<?xml version="1.0" encoding="UTF-8" standalone="no" ?>
<gpx xmlns="http://www.topografix.com/GPX/1/1" xmlns:xsi="http://www.w3.org/2001/XMLSchema-instance" xsi:schemaLocation="http://www.topografix.com/GPX/1/1 http://www.topografix.com/GPX/1/1/gpx.xsd" version="1.1" creator="VisuGPX - https://www.visugpx.com">
  <metadata>
    <name>Villeneuvette 25 07 2024</name>
    <desc><![CDATA[trace vtt niveau sportif]]></desc>
  </metadata>
  <trk>
    <name><![CDATA[visugpx_jwtkVq386Y_1]]></name>
    <extensions>
      <line xmlns="http://www.topografix.com/GPX/gpx_style/0/2">
        <color>0000FF</color>
        <width>4</width>
          <extensions>
            <sens>1</sens>
          </extensions>
      </line>
    </extensions>
    <trkseg>
      <trkpt lat="43.6107" lon="3.40184">
        <ele>134</ele>
        <time>2024-07-25T06:36:28Z</time>
      </trkpt>
      <trkpt lat="43.61064" lon="3.40173">
        <ele>134</ele>
      </trkpt>
      <trkpt lat="43.61055" lon="3.40167">
        <ele>134</ele>
      </trkpt>
      <trkpt lat="43.61045" lon="3.40165">
        <ele>133.6</ele>
      </trkpt>
      <trkpt lat="43.6104" lon="3.40167">
        <ele>133.4</ele>
      </trkpt>
      <trkpt lat="43.61014" lon="3.40199">
        <ele>132.6</ele>
        <time>2024-07-25T06:36:29Z</time>
      </trkpt>
      <trkpt lat="43.61011" lon="3.40204">
        <ele>132.5</ele>
        <time>2024-07-25T06:36:30Z</time>
      </trkpt>
      <trkpt lat="43.61009" lon="3.40206">
        <ele>132.5</ele>
        <time>2024-07-25T06:36:31Z</time>
      </trkpt>
      <trkpt lat="43.61008" lon="3.40207">
        <ele>132.4</ele>
        <time>2024-07-25T06:36:32Z</time>
      </trkpt>
      <trkpt lat="43.61006" lon="3.40208">
        <ele>132.3</ele>
        <time>2024-07-25T06:36:33Z</time>
      </trkpt>
      <trkpt lat="43.61004" lon="3.4021">
        <ele>132.2</ele>
        <time>2024-07-25T06:36:34Z</time>
      </trkpt>
      <trkpt lat="43.61003" lon="3.40212">
        <ele>132.2</ele>
        <time>2024-07-25T06:36:35Z</time>
      </trkpt>
      <trkpt lat="43.61002" lon="3.40213">
        <ele>132.1</ele>
        <time>2024-07-25T06:36:36Z</time>
      </trkpt>
      <trkpt lat="43.61" lon="3.40215">
        <ele>132</ele>
        <time>2024-07-25T06:36:37Z</time>
      </trkpt>
      <trkpt lat="43.60999" lon="3.40216">
        <ele>132</ele>
        <time>2024-07-25T06:36:38Z</time>
      </trkpt>
      <trkpt lat="43.60998" lon="3.40217">
        <ele>132</ele>
        <time>2024-07-25T06:36:39Z</time>
      </trkpt>
      <trkpt lat="43.60997" lon="3.40218">
        <ele>132.1</ele>
        <time>2024-07-25T06:36:40Z</time>
      </trkpt>
      <trkpt lat="43.60996" lon="3.40219">
        <ele>132.1</ele>
        <time>2024-07-25T06:36:41Z</time>
      </trkpt>
      <trkpt lat="43.60995" lon="3.4022">
        <ele>132.2</ele>
        <time>2024-07-25T06:36:42Z</time>
      </trkpt>
      <trkpt lat="43.60994" lon="3.4022">
        <ele>132.2</ele>
        <time>2024-07-25T06:36:43Z</time>
      </trkpt>
      <trkpt lat="43.60993" lon="3.4022">
        <ele>132.2</ele>
        <time>2024-07-25T06:36:44Z</time>
      </trkpt>
      <trkpt lat="43.60993" lon="3.40221">
        <ele>132.2</ele>
        <time>2024-07-25T06:36:45Z</time>
      </trkpt>
      <trkpt lat="43.60992" lon="3.40221">
        <ele>132.3</ele>
        <time>2024-07-25T06:36:46Z</time>
      </trkpt>
      <trkpt lat="43.6099" lon="3.40218">
        <ele>132.3</ele>
        <time>2024-07-25T06:37:09Z</time>
      </trkpt>
      <trkpt lat="43.60988" lon="3.40215">
        <ele>132.2</ele>
        <time>2024-07-25T06:37:10Z</time>
      </trkpt>
      <trkpt lat="43.60986" lon="3.40213">
        <ele>132.2</ele>
        <time>2024-07-25T06:37:11Z</time>
      </trkpt>
      <trkpt lat="43.60983" lon="3.4021">
        <ele>132.1</ele>
        <time>2024-07-25T06:37:12Z</time>
      </trkpt>
      <trkpt lat="43.6098" lon="3.40206">
        <ele>131.9</ele>
        <time>2024-07-25T06:37:13Z</time>
      </trkpt>
      <trkpt lat="43.60976" lon="3.40201">
        <ele>131.5</ele>
        <time>2024-07-25T06:37:14Z</time>
      </trkpt>
      <trkpt lat="43.60973" lon="3.40198">
        <ele>131.3</ele>
        <time>2024-07-25T06:37:15Z</time>
      </trkpt>
      <trkpt lat="43.6097" lon="3.40193">
        <ele>130.4</ele>
        <time>2024-07-25T06:37:16Z</time>
      </trkpt>
      <trkpt lat="43.60965" lon="3.40189">
        <ele>129</ele>
        <time>2024-07-25T06:37:17Z</time>
      </trkpt>
      <trkpt lat="43.6096" lon="3.40187">
        <ele>127.7</ele>
        <time>2024-07-25T06:37:18Z</time>
      </trkpt>
      <trkpt lat="43.60956" lon="3.40184">
        <ele>126.5</ele>
        <time>2024-07-25T06:37:19Z</time>
      </trkpt>
      <trkpt lat="43.60951" lon="3.40183">
        <ele>125.2</ele>
        <time>2024-07-25T06:37:20Z</time>
      </trkpt>
      <trkpt lat="43.60945" lon="3.40181">
        <ele>123.7</ele>
        <time>2024-07-25T06:37:21Z</time>
      </trkpt>
      <trkpt lat="43.6094" lon="3.4018">
        <ele>124.1</ele>
        <time>2024-07-25T06:37:22Z</time>
      </trkpt>
      <trkpt lat="43.60935" lon="3.40179">
        <ele>124.7</ele>
        <time>2024-07-25T06:37:23Z</time>
      </trkpt>
      <trkpt lat="43.6093" lon="3.40178">
        <ele>125.5</ele>
        <time>2024-07-25T06:37:24Z</time>
      </trkpt>
      <trkpt lat="43.60926" lon="3.40175">
        <ele>126.3</ele>
        <time>2024-07-25T06:37:25Z</time>
      </trkpt>
      <trkpt lat="43.60922" lon="3.40171">
        <ele>127.4</ele>
        <time>2024-07-25T06:37:26Z</time>
      </trkpt>
      <trkpt lat="43.60919" lon="3.40165">
        <ele>128.4</ele>
        <time>2024-07-25T06:37:27Z</time>
      </trkpt>
      <trkpt lat="43.60916" lon="3.40159">
        <ele>128.4</ele>
        <time>2024-07-25T06:37:28Z</time>
      </trkpt>
      <trkpt lat="43.60914" lon="3.40154">
        <ele>128.1</ele>
        <time>2024-07-25T06:37:29Z</time>
      </trkpt>
      <trkpt lat="43.60911" lon="3.40149">
        <ele>128</ele>
        <time>2024-07-25T06:37:30Z</time>
      </trkpt>
      <trkpt lat="43.60908" lon="3.40143">
        <ele>128</ele>
        <time>2024-07-25T06:37:31Z</time>
      </trkpt>
      <trkpt lat="43.60905" lon="3.40136">
        <ele>128.7</ele>
        <time>2024-07-25T06:37:32Z</time>
      </trkpt>
      <trkpt lat="43.60903" lon="3.40131">
        <ele>129.6</ele>
        <time>2024-07-25T06:37:33Z</time>
      </trkpt>
      <trkpt lat="43.60901" lon="3.40124">
        <ele>130.6</ele>
        <time>2024-07-25T06:37:34Z</time>
      </trkpt>
      <trkpt lat="43.60899" lon="3.40118">
        <ele>131.3</ele>
        <time>2024-07-25T06:37:35Z</time>
      </trkpt>
      <trkpt lat="43.60899" lon="3.40113">
        <ele>131.9</ele>
        <time>2024-07-25T06:37:36Z</time>
      </trkpt>
      <trkpt lat="43.60898" lon="3.40107">
        <ele>132.1</ele>
        <time>2024-07-25T06:37:37Z</time>
      </trkpt>
      <trkpt lat="43.60897" lon="3.40101">
        <ele>132.2</ele>
        <time>2024-07-25T06:37:38Z</time>
      </trkpt>
      <trkpt lat="43.60896" lon="3.40096">
        <ele>132.3</ele>
        <time>2024-07-25T06:37:39Z</time>
      </trkpt>
      <trkpt lat="43.60893" lon="3.40092">
        <ele>132.1</ele>
        <time>2024-07-25T06:37:40Z</time>
      </trkpt>
      <trkpt lat="43.60889" lon="3.4009">
        <ele>131.8</ele>
        <time>2024-07-25T06:37:41Z</time>
      </trkpt>
      <trkpt lat="43.60886" lon="3.40089">
        <ele>132.3</ele>
        <time>2024-07-25T06:37:42Z</time>
      </trkpt>
      <trkpt lat="43.60884" lon="3.40089">
        <ele>132.7</ele>
        <time>2024-07-25T06:37:43Z</time>
      </trkpt>
      <trkpt lat="43.60881" lon="3.4009">
        <ele>133.2</ele>
        <time>2024-07-25T06:37:44Z</time>
      </trkpt>
      <trkpt lat="43.60879" lon="3.40092">
        <ele>133.4</ele>
        <time>2024-07-25T06:37:45Z</time>
      </trkpt>
      <trkpt lat="43.60876" lon="3.40093">
        <ele>133.8</ele>
        <time>2024-07-25T06:37:46Z</time>
      </trkpt>
      <trkpt lat="43.60873" lon="3.40094">
        <ele>134.2</ele>
        <time>2024-07-25T06:37:47Z</time>
      </trkpt>
      <trkpt lat="43.6087" lon="3.40096">
        <ele>134.4</ele>
        <time>2024-07-25T06:37:48Z</time>
      </trkpt>
      <trkpt lat="43.60868" lon="3.40098">
        <ele>134.4</ele>
        <time>2024-07-25T06:37:49Z</time>
      </trkpt>
      <trkpt lat="43.60866" lon="3.401">
        <ele>134.4</ele>
        <time>2024-07-25T06:37:50Z</time>
      </trkpt>
      <trkpt lat="43.60863" lon="3.40101">
        <ele>134.6</ele>
        <time>2024-07-25T06:37:51Z</time>
      </trkpt>
      <trkpt lat="43.60861" lon="3.40102">
        <ele>134.7</ele>
        <time>2024-07-25T06:37:52Z</time>
      </trkpt>
      <trkpt lat="43.60858" lon="3.40103">
        <ele>134.9</ele>
        <time>2024-07-25T06:37:53Z</time>
      </trkpt>
      <trkpt lat="43.60856" lon="3.40103">
        <ele>135.2</ele>
        <time>2024-07-25T06:37:54Z</time>
      </trkpt>
      <trkpt lat="43.60853" lon="3.40102">
        <ele>135.8</ele>
        <time>2024-07-25T06:37:55Z</time>
      </trkpt>
      <trkpt lat="43.60851" lon="3.40102">
        <ele>136.1</ele>
        <time>2024-07-25T06:37:56Z</time>
      </trkpt>
      <trkpt lat="43.60848" lon="3.40101">
        <ele>136.7</ele>
        <time>2024-07-25T06:37:57Z</time>
      </trkpt>
      <trkpt lat="43.60845" lon="3.40101">
        <ele>137.1</ele>
        <time>2024-07-25T06:37:58Z</time>
      </trkpt>
      <trkpt lat="43.60842" lon="3.40102">
        <ele>137.4</ele>
        <time>2024-07-25T06:37:59Z</time>
      </trkpt>
      <trkpt lat="43.60839" lon="3.40103">
        <ele>137.6</ele>
        <time>2024-07-25T06:38:00Z</time>
      </trkpt>
      <trkpt lat="43.60836" lon="3.40104">
        <ele>137.9</ele>
        <time>2024-07-25T06:38:01Z</time>
      </trkpt>
      <trkpt lat="43.60834" lon="3.40105">
        <ele>138</ele>
        <time>2024-07-25T06:38:02Z</time>
      </trkpt>
      <trkpt lat="43.60831" lon="3.40107">
        <ele>138.1</ele>
        <time>2024-07-25T06:38:03Z</time>
      </trkpt>
      <trkpt lat="43.60829" lon="3.40108">
        <ele>138.3</ele>
        <time>2024-07-25T06:38:04Z</time>
      </trkpt>
      <trkpt lat="43.60826" lon="3.4011">
        <ele>138.5</ele>
        <time>2024-07-25T06:38:05Z</time>
      </trkpt>
      <trkpt lat="43.60824" lon="3.40111">
        <ele>138.7</ele>
        <time>2024-07-25T06:38:06Z</time>
      </trkpt>
      <trkpt lat="43.60822" lon="3.40112">
        <ele>139</ele>
        <time>2024-07-25T06:38:07Z</time>
      </trkpt>
      <trkpt lat="43.60819" lon="3.40113">
        <ele>139.4</ele>
        <time>2024-07-25T06:38:08Z</time>
      </trkpt>
      <trkpt lat="43.60817" lon="3.40114">
        <ele>139.8</ele>
        <time>2024-07-25T06:38:09Z</time>
      </trkpt>
      <trkpt lat="43.60815" lon="3.40115">
        <ele>140.1</ele>
        <time>2024-07-25T06:38:10Z</time>
      </trkpt>
      <trkpt lat="43.60813" lon="3.40116">
        <ele>140.5</ele>
        <time>2024-07-25T06:38:11Z</time>
      </trkpt>
      <trkpt lat="43.60811" lon="3.40115">
        <ele>140.9</ele>
        <time>2024-07-25T06:38:12Z</time>
      </trkpt>
      <trkpt lat="43.6081" lon="3.40112">
        <ele>141.2</ele>
        <time>2024-07-25T06:38:13Z</time>
      </trkpt>
      <trkpt lat="43.60809" lon="3.4011">
        <ele>141.5</ele>
        <time>2024-07-25T06:38:14Z</time>
      </trkpt>
      <trkpt lat="43.6081" lon="3.40108">
        <ele>141.7</ele>
        <time>2024-07-25T06:38:15Z</time>
      </trkpt>
      <trkpt lat="43.6081" lon="3.40105">
        <ele>142.1</ele>
        <time>2024-07-25T06:38:16Z</time>
      </trkpt>
      <trkpt lat="43.60811" lon="3.40103">
        <ele>142.2</ele>
        <time>2024-07-25T06:38:17Z</time>
      </trkpt>
      <trkpt lat="43.60812" lon="3.40101">
        <ele>142.4</ele>
        <time>2024-07-25T06:38:18Z</time>
      </trkpt>
      <trkpt lat="43.60813" lon="3.401">
        <ele>142.4</ele>
        <time>2024-07-25T06:38:19Z</time>
      </trkpt>
      <trkpt lat="43.60815" lon="3.40098">
        <ele>142.3</ele>
        <time>2024-07-25T06:38:20Z</time>
      </trkpt>
      <trkpt lat="43.60816" lon="3.40097">
        <ele>142.3</ele>
        <time>2024-07-25T06:38:21Z</time>
      </trkpt>
      <trkpt lat="43.60818" lon="3.40095">
        <ele>142.3</ele>
        <time>2024-07-25T06:38:22Z</time>
      </trkpt>
      <trkpt lat="43.60819" lon="3.40093">
        <ele>142.5</ele>
        <time>2024-07-25T06:38:23Z</time>
      </trkpt>
      <trkpt lat="43.6082" lon="3.40091">
        <ele>142.7</ele>
        <time>2024-07-25T06:38:24Z</time>
      </trkpt>
      <trkpt lat="43.60821" lon="3.40089">
        <ele>142.8</ele>
        <time>2024-07-25T06:38:25Z</time>
      </trkpt>
      <trkpt lat="43.60822" lon="3.40086">
        <ele>143.2</ele>
        <time>2024-07-25T06:38:26Z</time>
      </trkpt>
      <trkpt lat="43.60823" lon="3.40083">
        <ele>143.6</ele>
        <time>2024-07-25T06:38:27Z</time>
      </trkpt>
      <trkpt lat="43.60822" lon="3.40081">
        <ele>144.2</ele>
        <time>2024-07-25T06:38:28Z</time>
      </trkpt>
      <trkpt lat="43.60821" lon="3.40078">
        <ele>145.1</ele>
        <time>2024-07-25T06:38:29Z</time>
      </trkpt>
      <trkpt lat="43.60819" lon="3.40077">
        <ele>145.7</ele>
        <time>2024-07-25T06:38:30Z</time>
      </trkpt>
      <trkpt lat="43.60817" lon="3.40076">
        <ele>146.2</ele>
        <time>2024-07-25T06:38:31Z</time>
      </trkpt>
      <trkpt lat="43.60815" lon="3.40076">
        <ele>146.5</ele>
        <time>2024-07-25T06:38:32Z</time>
      </trkpt>
      <trkpt lat="43.60813" lon="3.40076">
        <ele>146.8</ele>
        <time>2024-07-25T06:38:33Z</time>
      </trkpt>
      <trkpt lat="43.60811" lon="3.40076">
        <ele>147.1</ele>
        <time>2024-07-25T06:38:34Z</time>
      </trkpt>
      <trkpt lat="43.60809" lon="3.40076">
        <ele>147.4</ele>
        <time>2024-07-25T06:38:35Z</time>
      </trkpt>
      <trkpt lat="43.60807" lon="3.40077">
        <ele>147.4</ele>
        <time>2024-07-25T06:38:36Z</time>
      </trkpt>
      <trkpt lat="43.60805" lon="3.40078">
        <ele>147.5</ele>
        <time>2024-07-25T06:38:37Z</time>
      </trkpt>
      <trkpt lat="43.60803" lon="3.40078">
        <ele>148.1</ele>
        <time>2024-07-25T06:38:38Z</time>
      </trkpt>
      <trkpt lat="43.608" lon="3.40079">
        <ele>148.7</ele>
        <time>2024-07-25T06:38:39Z</time>
      </trkpt>
      <trkpt lat="43.60798" lon="3.40079">
        <ele>149.2</ele>
        <time>2024-07-25T06:38:40Z</time>
      </trkpt>
      <trkpt lat="43.60796" lon="3.4008">
        <ele>149.6</ele>
        <time>2024-07-25T06:38:41Z</time>
      </trkpt>
      <trkpt lat="43.60794" lon="3.40082">
        <ele>149.6</ele>
        <time>2024-07-25T06:38:42Z</time>
      </trkpt>
      <trkpt lat="43.60792" lon="3.40083">
        <ele>150</ele>
        <time>2024-07-25T06:38:43Z</time>
      </trkpt>
      <trkpt lat="43.60791" lon="3.40084">
        <ele>150.1</ele>
        <time>2024-07-25T06:38:44Z</time>
      </trkpt>
      <trkpt lat="43.60789" lon="3.40086">
        <ele>150.4</ele>
        <time>2024-07-25T06:38:45Z</time>
      </trkpt>
      <trkpt lat="43.60787" lon="3.40087">
        <ele>150.9</ele>
        <time>2024-07-25T06:38:46Z</time>
      </trkpt>
      <trkpt lat="43.60786" lon="3.40088">
        <ele>151.1</ele>
        <time>2024-07-25T06:38:47Z</time>
      </trkpt>
      <trkpt lat="43.60785" lon="3.4009">
        <ele>151.1</ele>
        <time>2024-07-25T06:38:48Z</time>
      </trkpt>
      <trkpt lat="43.60783" lon="3.40091">
        <ele>151.6</ele>
        <time>2024-07-25T06:38:49Z</time>
      </trkpt>
      <trkpt lat="43.60781" lon="3.40093">
        <ele>152</ele>
        <time>2024-07-25T06:38:50Z</time>
      </trkpt>
      <trkpt lat="43.60779" lon="3.40096">
        <ele>152.3</ele>
        <time>2024-07-25T06:38:51Z</time>
      </trkpt>
      <trkpt lat="43.60777" lon="3.40098">
        <ele>152.6</ele>
        <time>2024-07-25T06:38:52Z</time>
      </trkpt>
      <trkpt lat="43.60776" lon="3.401">
        <ele>152.6</ele>
        <time>2024-07-25T06:38:53Z</time>
      </trkpt>
      <trkpt lat="43.60774" lon="3.40102">
        <ele>152.8</ele>
        <time>2024-07-25T06:38:54Z</time>
      </trkpt>
      <trkpt lat="43.60772" lon="3.40104">
        <ele>153.1</ele>
        <time>2024-07-25T06:38:55Z</time>
      </trkpt>
      <trkpt lat="43.60771" lon="3.40106">
        <ele>153.1</ele>
        <time>2024-07-25T06:38:56Z</time>
      </trkpt>
      <trkpt lat="43.6077" lon="3.40107">
        <ele>153.2</ele>
        <time>2024-07-25T06:38:57Z</time>
      </trkpt>
      <trkpt lat="43.60768" lon="3.4011">
        <ele>153.2</ele>
        <time>2024-07-25T06:38:58Z</time>
      </trkpt>
      <trkpt lat="43.60766" lon="3.40113">
        <ele>153.4</ele>
        <time>2024-07-25T06:38:59Z</time>
      </trkpt>
      <trkpt lat="43.60764" lon="3.40115">
        <ele>153.8</ele>
        <time>2024-07-25T06:39:00Z</time>
      </trkpt>
      <trkpt lat="43.60762" lon="3.40117">
        <ele>154.1</ele>
        <time>2024-07-25T06:39:01Z</time>
      </trkpt>
      <trkpt lat="43.6076" lon="3.40118">
        <ele>154.4</ele>
        <time>2024-07-25T06:39:02Z</time>
      </trkpt>
      <trkpt lat="43.60759" lon="3.40119">
        <ele>154.6</ele>
        <time>2024-07-25T06:39:03Z</time>
      </trkpt>
      <trkpt lat="43.60757" lon="3.40119">
        <ele>155</ele>
        <time>2024-07-25T06:39:04Z</time>
      </trkpt>
      <trkpt lat="43.60756" lon="3.40119">
        <ele>155.2</ele>
        <time>2024-07-25T06:39:05Z</time>
      </trkpt>
      <trkpt lat="43.60754" lon="3.4012">
        <ele>155.5</ele>
        <time>2024-07-25T06:39:06Z</time>
      </trkpt>
      <trkpt lat="43.60752" lon="3.4012">
        <ele>156</ele>
        <time>2024-07-25T06:39:07Z</time>
      </trkpt>
      <trkpt lat="43.6075" lon="3.4012">
        <ele>156.4</ele>
        <time>2024-07-25T06:39:08Z</time>
      </trkpt>
      <trkpt lat="43.60748" lon="3.4012">
        <ele>157</ele>
        <time>2024-07-25T06:39:09Z</time>
      </trkpt>
      <trkpt lat="43.60746" lon="3.4012">
        <ele>157.7</ele>
        <time>2024-07-25T06:39:10Z</time>
      </trkpt>
      <trkpt lat="43.60744" lon="3.4012">
        <ele>158.3</ele>
        <time>2024-07-25T06:39:11Z</time>
      </trkpt>
      <trkpt lat="43.60742" lon="3.4012">
        <ele>159</ele>
        <time>2024-07-25T06:39:12Z</time>
      </trkpt>
      <trkpt lat="43.6074" lon="3.40121">
        <ele>159.5</ele>
        <time>2024-07-25T06:39:13Z</time>
      </trkpt>
      <trkpt lat="43.60738" lon="3.40121">
        <ele>160.2</ele>
        <time>2024-07-25T06:39:14Z</time>
      </trkpt>
      <trkpt lat="43.60736" lon="3.40121">
        <ele>160.8</ele>
        <time>2024-07-25T06:39:15Z</time>
      </trkpt>
      <trkpt lat="43.60733" lon="3.40122">
        <ele>161.7</ele>
        <time>2024-07-25T06:39:16Z</time>
      </trkpt>
      <trkpt lat="43.60731" lon="3.40123">
        <ele>162.3</ele>
        <time>2024-07-25T06:39:17Z</time>
      </trkpt>
      <trkpt lat="43.60728" lon="3.40124">
        <ele>163.2</ele>
        <time>2024-07-25T06:39:18Z</time>
      </trkpt>
      <trkpt lat="43.60726" lon="3.40127">
        <ele>163.6</ele>
        <time>2024-07-25T06:39:19Z</time>
      </trkpt>
      <trkpt lat="43.60724" lon="3.40128">
        <ele>164.2</ele>
        <time>2024-07-25T06:39:20Z</time>
      </trkpt>
      <trkpt lat="43.60722" lon="3.4013">
        <ele>164.7</ele>
        <time>2024-07-25T06:39:21Z</time>
      </trkpt>
      <trkpt lat="43.60721" lon="3.40131">
        <ele>164.9</ele>
        <time>2024-07-25T06:39:22Z</time>
      </trkpt>
      <trkpt lat="43.60719" lon="3.40133">
        <ele>165.3</ele>
        <time>2024-07-25T06:39:23Z</time>
      </trkpt>
      <trkpt lat="43.60717" lon="3.40135">
        <ele>165.6</ele>
        <time>2024-07-25T06:39:24Z</time>
      </trkpt>
      <trkpt lat="43.60716" lon="3.40137">
        <ele>165.7</ele>
        <time>2024-07-25T06:39:25Z</time>
      </trkpt>
      <trkpt lat="43.60714" lon="3.40139">
        <ele>166.1</ele>
        <time>2024-07-25T06:39:26Z</time>
      </trkpt>
      <trkpt lat="43.60712" lon="3.40141">
        <ele>166.2</ele>
        <time>2024-07-25T06:39:27Z</time>
      </trkpt>
      <trkpt lat="43.60711" lon="3.40142">
        <ele>166.3</ele>
        <time>2024-07-25T06:39:28Z</time>
      </trkpt>
      <trkpt lat="43.60709" lon="3.40143">
        <ele>166.6</ele>
        <time>2024-07-25T06:39:29Z</time>
      </trkpt>
      <trkpt lat="43.60708" lon="3.40143">
        <ele>166.8</ele>
        <time>2024-07-25T06:39:30Z</time>
      </trkpt>
      <trkpt lat="43.60707" lon="3.40144">
        <ele>166.9</ele>
        <time>2024-07-25T06:39:31Z</time>
      </trkpt>
      <trkpt lat="43.60705" lon="3.40143">
        <ele>167.6</ele>
        <time>2024-07-25T06:39:32Z</time>
      </trkpt>
      <trkpt lat="43.60704" lon="3.40143">
        <ele>167.9</ele>
        <time>2024-07-25T06:39:33Z</time>
      </trkpt>
      <trkpt lat="43.60704" lon="3.40143">
        <ele>167.9</ele>
        <time>2024-07-25T06:39:34Z</time>
      </trkpt>
      <trkpt lat="43.60705" lon="3.40144">
        <ele>167.4</ele>
        <time>2024-07-25T06:39:35Z</time>
      </trkpt>
      <trkpt lat="43.60697" lon="3.40141">
        <ele>170</ele>
        <time>2024-07-25T06:39:51Z</time>
      </trkpt>
      <trkpt lat="43.60694" lon="3.40141">
        <ele>170.7</ele>
        <time>2024-07-25T06:39:52Z</time>
      </trkpt>
      <trkpt lat="43.60691" lon="3.40141">
        <ele>171.2</ele>
        <time>2024-07-25T06:39:53Z</time>
      </trkpt>
      <trkpt lat="43.60687" lon="3.40142">
        <ele>171.7</ele>
        <time>2024-07-25T06:39:54Z</time>
      </trkpt>
      <trkpt lat="43.60684" lon="3.40143">
        <ele>172.1</ele>
        <time>2024-07-25T06:39:55Z</time>
      </trkpt>
      <trkpt lat="43.6068" lon="3.40146">
        <ele>172.2</ele>
        <time>2024-07-25T06:39:56Z</time>
      </trkpt>
      <trkpt lat="43.60677" lon="3.40148">
        <ele>172.3</ele>
        <time>2024-07-25T06:39:57Z</time>
      </trkpt>
      <trkpt lat="43.60675" lon="3.40152">
        <ele>171.8</ele>
        <time>2024-07-25T06:39:58Z</time>
      </trkpt>
      <trkpt lat="43.60673" lon="3.40155">
        <ele>171.5</ele>
        <time>2024-07-25T06:39:59Z</time>
      </trkpt>
      <trkpt lat="43.60672" lon="3.40159">
        <ele>170.8</ele>
        <time>2024-07-25T06:40:00Z</time>
      </trkpt>
      <trkpt lat="43.60671" lon="3.40164">
        <ele>169.9</ele>
        <time>2024-07-25T06:40:01Z</time>
      </trkpt>
      <trkpt lat="43.6067" lon="3.40169">
        <ele>168.9</ele>
        <time>2024-07-25T06:40:02Z</time>
      </trkpt>
      <trkpt lat="43.60669" lon="3.40174">
        <ele>167.6</ele>
        <time>2024-07-25T06:40:03Z</time>
      </trkpt>
      <trkpt lat="43.60667" lon="3.40178">
        <ele>166.7</ele>
        <time>2024-07-25T06:40:04Z</time>
      </trkpt>
      <trkpt lat="43.60667" lon="3.40183">
        <ele>165.3</ele>
        <time>2024-07-25T06:40:05Z</time>
      </trkpt>
      <trkpt lat="43.60666" lon="3.40188">
        <ele>164</ele>
        <time>2024-07-25T06:40:06Z</time>
      </trkpt>
      <trkpt lat="43.60665" lon="3.40191">
        <ele>163.4</ele>
        <time>2024-07-25T06:40:07Z</time>
      </trkpt>
      <trkpt lat="43.60665" lon="3.40195">
        <ele>162.5</ele>
        <time>2024-07-25T06:40:08Z</time>
      </trkpt>
      <trkpt lat="43.60664" lon="3.40199">
        <ele>162.7</ele>
        <time>2024-07-25T06:40:09Z</time>
      </trkpt>
      <trkpt lat="43.60664" lon="3.40203">
        <ele>162.7</ele>
        <time>2024-07-25T06:40:10Z</time>
      </trkpt>
      <trkpt lat="43.60663" lon="3.40207">
        <ele>162.9</ele>
        <time>2024-07-25T06:40:11Z</time>
      </trkpt>
      <trkpt lat="43.60662" lon="3.4021">
        <ele>163.1</ele>
        <time>2024-07-25T06:40:12Z</time>
      </trkpt>
      <trkpt lat="43.60662" lon="3.40213">
        <ele>163</ele>
        <time>2024-07-25T06:40:13Z</time>
      </trkpt>
      <trkpt lat="43.6066" lon="3.40217">
        <ele>163.3</ele>
        <time>2024-07-25T06:40:14Z</time>
      </trkpt>
      <trkpt lat="43.60659" lon="3.4022">
        <ele>163.4</ele>
        <time>2024-07-25T06:40:15Z</time>
      </trkpt>
      <trkpt lat="43.60657" lon="3.40223">
        <ele>163.7</ele>
        <time>2024-07-25T06:40:16Z</time>
      </trkpt>
      <trkpt lat="43.60655" lon="3.40226">
        <ele>163.8</ele>
        <time>2024-07-25T06:40:17Z</time>
      </trkpt>
      <trkpt lat="43.60653" lon="3.40228">
        <ele>163.9</ele>
        <time>2024-07-25T06:40:18Z</time>
      </trkpt>
      <trkpt lat="43.60651" lon="3.4023">
        <ele>164.1</ele>
        <time>2024-07-25T06:40:19Z</time>
      </trkpt>
      <trkpt lat="43.60649" lon="3.40232">
        <ele>164.3</ele>
        <time>2024-07-25T06:40:20Z</time>
      </trkpt>
      <trkpt lat="43.60648" lon="3.40233">
        <ele>164.3</ele>
        <time>2024-07-25T06:40:21Z</time>
      </trkpt>
      <trkpt lat="43.60647" lon="3.40235">
        <ele>164.3</ele>
        <time>2024-07-25T06:40:22Z</time>
      </trkpt>
      <trkpt lat="43.60646" lon="3.40237">
        <ele>164.3</ele>
        <time>2024-07-25T06:40:23Z</time>
      </trkpt>
      <trkpt lat="43.60644" lon="3.40239">
        <ele>164.4</ele>
        <time>2024-07-25T06:40:24Z</time>
      </trkpt>
      <trkpt lat="43.60642" lon="3.40242">
        <ele>164.4</ele>
        <time>2024-07-25T06:40:25Z</time>
      </trkpt>
      <trkpt lat="43.6064" lon="3.40244">
        <ele>164.5</ele>
        <time>2024-07-25T06:40:26Z</time>
      </trkpt>
      <trkpt lat="43.60638" lon="3.40246">
        <ele>164.7</ele>
        <time>2024-07-25T06:40:27Z</time>
      </trkpt>
      <trkpt lat="43.60636" lon="3.40248">
        <ele>165</ele>
        <time>2024-07-25T06:40:28Z</time>
      </trkpt>
      <trkpt lat="43.60634" lon="3.40249">
        <ele>165.5</ele>
        <time>2024-07-25T06:40:29Z</time>
      </trkpt>
      <trkpt lat="43.60632" lon="3.40252">
        <ele>165.9</ele>
        <time>2024-07-25T06:40:30Z</time>
      </trkpt>
      <trkpt lat="43.60631" lon="3.40253">
        <ele>166.1</ele>
        <time>2024-07-25T06:40:31Z</time>
      </trkpt>
      <trkpt lat="43.60628" lon="3.40255">
        <ele>166.8</ele>
        <time>2024-07-25T06:40:32Z</time>
      </trkpt>
      <trkpt lat="43.60626" lon="3.40257">
        <ele>167.3</ele>
        <time>2024-07-25T06:40:33Z</time>
      </trkpt>
      <trkpt lat="43.60624" lon="3.40259">
        <ele>167.8</ele>
        <time>2024-07-25T06:40:34Z</time>
      </trkpt>
      <trkpt lat="43.60622" lon="3.40261">
        <ele>168.3</ele>
        <time>2024-07-25T06:40:35Z</time>
      </trkpt>
      <trkpt lat="43.60621" lon="3.40263">
        <ele>168.5</ele>
        <time>2024-07-25T06:40:36Z</time>
      </trkpt>
      <trkpt lat="43.60619" lon="3.40265">
        <ele>169</ele>
        <time>2024-07-25T06:40:37Z</time>
      </trkpt>
      <trkpt lat="43.60617" lon="3.40267">
        <ele>169.6</ele>
        <time>2024-07-25T06:40:38Z</time>
      </trkpt>
      <trkpt lat="43.60616" lon="3.4027">
        <ele>169.7</ele>
        <time>2024-07-25T06:40:39Z</time>
      </trkpt>
      <trkpt lat="43.60614" lon="3.40272">
        <ele>170.3</ele>
        <time>2024-07-25T06:40:40Z</time>
      </trkpt>
      <trkpt lat="43.60613" lon="3.40274">
        <ele>170.5</ele>
        <time>2024-07-25T06:40:41Z</time>
      </trkpt>
      <trkpt lat="43.60611" lon="3.40276">
        <ele>171.1</ele>
        <time>2024-07-25T06:40:42Z</time>
      </trkpt>
      <trkpt lat="43.60609" lon="3.40278">
        <ele>171.5</ele>
        <time>2024-07-25T06:40:43Z</time>
      </trkpt>
      <trkpt lat="43.60608" lon="3.40281">
        <ele>171.2</ele>
        <time>2024-07-25T06:40:44Z</time>
      </trkpt>
      <trkpt lat="43.60607" lon="3.40283">
        <ele>171</ele>
        <time>2024-07-25T06:40:45Z</time>
      </trkpt>
      <trkpt lat="43.60605" lon="3.40286">
        <ele>170.9</ele>
        <time>2024-07-25T06:40:46Z</time>
      </trkpt>
      <trkpt lat="43.60603" lon="3.40288">
        <ele>171</ele>
        <time>2024-07-25T06:40:47Z</time>
      </trkpt>
      <trkpt lat="43.60602" lon="3.40291">
        <ele>170.6</ele>
        <time>2024-07-25T06:40:48Z</time>
      </trkpt>
      <trkpt lat="43.606" lon="3.40293">
        <ele>170.6</ele>
        <time>2024-07-25T06:40:49Z</time>
      </trkpt>
      <trkpt lat="43.60597" lon="3.40296">
        <ele>170.6</ele>
        <time>2024-07-25T06:40:50Z</time>
      </trkpt>
      <trkpt lat="43.60595" lon="3.40298">
        <ele>170.6</ele>
        <time>2024-07-25T06:40:51Z</time>
      </trkpt>
      <trkpt lat="43.60593" lon="3.40301">
        <ele>170.3</ele>
        <time>2024-07-25T06:40:52Z</time>
      </trkpt>
      <trkpt lat="43.60591" lon="3.40302">
        <ele>170.4</ele>
        <time>2024-07-25T06:40:53Z</time>
      </trkpt>
      <trkpt lat="43.60588" lon="3.40304">
        <ele>170.5</ele>
        <time>2024-07-25T06:40:54Z</time>
      </trkpt>
      <trkpt lat="43.60585" lon="3.40305">
        <ele>170.8</ele>
        <time>2024-07-25T06:40:55Z</time>
      </trkpt>
      <trkpt lat="43.60583" lon="3.40305">
        <ele>171.2</ele>
        <time>2024-07-25T06:40:56Z</time>
      </trkpt>
      <trkpt lat="43.6058" lon="3.40305">
        <ele>171.3</ele>
        <time>2024-07-25T06:40:57Z</time>
      </trkpt>
      <trkpt lat="43.60578" lon="3.40306">
        <ele>171.1</ele>
        <time>2024-07-25T06:40:58Z</time>
      </trkpt>
      <trkpt lat="43.60575" lon="3.40307">
        <ele>170.9</ele>
        <time>2024-07-25T06:40:59Z</time>
      </trkpt>
      <trkpt lat="43.60572" lon="3.40307">
        <ele>171</ele>
        <time>2024-07-25T06:41:00Z</time>
      </trkpt>
      <trkpt lat="43.60569" lon="3.40307">
        <ele>171.1</ele>
        <time>2024-07-25T06:41:01Z</time>
      </trkpt>
      <trkpt lat="43.60567" lon="3.40307">
        <ele>171.2</ele>
        <time>2024-07-25T06:41:02Z</time>
      </trkpt>
      <trkpt lat="43.60565" lon="3.40307">
        <ele>171.3</ele>
        <time>2024-07-25T06:41:03Z</time>
      </trkpt>
      <trkpt lat="43.60562" lon="3.40307">
        <ele>171.4</ele>
        <time>2024-07-25T06:41:04Z</time>
      </trkpt>
      <trkpt lat="43.6056" lon="3.40306">
        <ele>171.7</ele>
        <time>2024-07-25T06:41:05Z</time>
      </trkpt>
      <trkpt lat="43.60558" lon="3.40306">
        <ele>171.8</ele>
        <time>2024-07-25T06:41:06Z</time>
      </trkpt>
      <trkpt lat="43.60556" lon="3.40305">
        <ele>172.1</ele>
        <time>2024-07-25T06:41:07Z</time>
      </trkpt>
      <trkpt lat="43.60554" lon="3.40305">
        <ele>172.1</ele>
        <time>2024-07-25T06:41:08Z</time>
      </trkpt>
      <trkpt lat="43.60551" lon="3.40304">
        <ele>172.2</ele>
        <time>2024-07-25T06:41:09Z</time>
      </trkpt>
      <trkpt lat="43.6055" lon="3.40304">
        <ele>172.2</ele>
        <time>2024-07-25T06:41:10Z</time>
      </trkpt>
      <trkpt lat="43.60548" lon="3.40304">
        <ele>172.1</ele>
        <time>2024-07-25T06:41:11Z</time>
      </trkpt>
      <trkpt lat="43.60546" lon="3.40304">
        <ele>172.1</ele>
        <time>2024-07-25T06:41:12Z</time>
      </trkpt>
      <trkpt lat="43.60544" lon="3.40304">
        <ele>172</ele>
        <time>2024-07-25T06:41:13Z</time>
      </trkpt>
      <trkpt lat="43.60542" lon="3.40303">
        <ele>172.2</ele>
        <time>2024-07-25T06:41:14Z</time>
      </trkpt>
      <trkpt lat="43.6054" lon="3.40303">
        <ele>172.1</ele>
        <time>2024-07-25T06:41:15Z</time>
      </trkpt>
      <trkpt lat="43.60539" lon="3.40303">
        <ele>172.1</ele>
        <time>2024-07-25T06:41:16Z</time>
      </trkpt>
      <trkpt lat="43.60537" lon="3.40302">
        <ele>172.3</ele>
        <time>2024-07-25T06:41:17Z</time>
      </trkpt>
      <trkpt lat="43.60536" lon="3.40302">
        <ele>172.3</ele>
        <time>2024-07-25T06:41:18Z</time>
      </trkpt>
      <trkpt lat="43.60534" lon="3.40303">
        <ele>171.9</ele>
        <time>2024-07-25T06:41:19Z</time>
      </trkpt>
      <trkpt lat="43.60534" lon="3.40302">
        <ele>172.2</ele>
        <time>2024-07-25T06:41:20Z</time>
      </trkpt>
      <trkpt lat="43.60535" lon="3.40302">
        <ele>172.3</ele>
        <time>2024-07-25T06:41:21Z</time>
      </trkpt>
      <trkpt lat="43.6053" lon="3.40302">
        <ele>172.1</ele>
        <time>2024-07-25T06:41:33Z</time>
      </trkpt>
      <trkpt lat="43.60528" lon="3.40301">
        <ele>172.3</ele>
        <time>2024-07-25T06:41:34Z</time>
      </trkpt>
      <trkpt lat="43.60527" lon="3.403">
        <ele>172.6</ele>
        <time>2024-07-25T06:41:35Z</time>
      </trkpt>
      <trkpt lat="43.60524" lon="3.40299">
        <ele>172.8</ele>
        <time>2024-07-25T06:41:36Z</time>
      </trkpt>
      <trkpt lat="43.60522" lon="3.40298">
        <ele>173</ele>
        <time>2024-07-25T06:41:37Z</time>
      </trkpt>
      <trkpt lat="43.60521" lon="3.40297">
        <ele>173.2</ele>
        <time>2024-07-25T06:41:38Z</time>
      </trkpt>
      <trkpt lat="43.60519" lon="3.40296">
        <ele>173.4</ele>
        <time>2024-07-25T06:41:39Z</time>
      </trkpt>
      <trkpt lat="43.60518" lon="3.40295">
        <ele>173.6</ele>
        <time>2024-07-25T06:41:40Z</time>
      </trkpt>
      <trkpt lat="43.60516" lon="3.40294">
        <ele>173.8</ele>
        <time>2024-07-25T06:41:41Z</time>
      </trkpt>
      <trkpt lat="43.60514" lon="3.40293">
        <ele>173.9</ele>
        <time>2024-07-25T06:41:42Z</time>
      </trkpt>
      <trkpt lat="43.60513" lon="3.40292">
        <ele>174.1</ele>
        <time>2024-07-25T06:41:43Z</time>
      </trkpt>
      <trkpt lat="43.60511" lon="3.40291">
        <ele>174.2</ele>
        <time>2024-07-25T06:41:44Z</time>
      </trkpt>
      <trkpt lat="43.6051" lon="3.40289">
        <ele>174.6</ele>
        <time>2024-07-25T06:41:45Z</time>
      </trkpt>
      <trkpt lat="43.60508" lon="3.40288">
        <ele>174.7</ele>
        <time>2024-07-25T06:41:46Z</time>
      </trkpt>
      <trkpt lat="43.60507" lon="3.40286">
        <ele>175.1</ele>
        <time>2024-07-25T06:41:47Z</time>
      </trkpt>
      <trkpt lat="43.60505" lon="3.40284">
        <ele>175.3</ele>
        <time>2024-07-25T06:41:48Z</time>
      </trkpt>
      <trkpt lat="43.60504" lon="3.40282">
        <ele>175.6</ele>
        <time>2024-07-25T06:41:49Z</time>
      </trkpt>
      <trkpt lat="43.60502" lon="3.4028">
        <ele>175.8</ele>
        <time>2024-07-25T06:41:50Z</time>
      </trkpt>
      <trkpt lat="43.605" lon="3.40278">
        <ele>176</ele>
        <time>2024-07-25T06:41:51Z</time>
      </trkpt>
      <trkpt lat="43.60499" lon="3.40276">
        <ele>176</ele>
        <time>2024-07-25T06:41:52Z</time>
      </trkpt>
      <trkpt lat="43.60498" lon="3.40273">
        <ele>175.9</ele>
        <time>2024-07-25T06:41:53Z</time>
      </trkpt>
      <trkpt lat="43.60497" lon="3.40271">
        <ele>175.9</ele>
        <time>2024-07-25T06:41:54Z</time>
      </trkpt>
      <trkpt lat="43.60496" lon="3.40268">
        <ele>175.9</ele>
        <time>2024-07-25T06:41:55Z</time>
      </trkpt>
      <trkpt lat="43.60495" lon="3.40266">
        <ele>175.8</ele>
        <time>2024-07-25T06:41:56Z</time>
      </trkpt>
      <trkpt lat="43.60494" lon="3.40263">
        <ele>175.8</ele>
        <time>2024-07-25T06:41:57Z</time>
      </trkpt>
      <trkpt lat="43.60494" lon="3.4026">
        <ele>175.8</ele>
        <time>2024-07-25T06:41:58Z</time>
      </trkpt>
      <trkpt lat="43.60494" lon="3.40257">
        <ele>175.8</ele>
        <time>2024-07-25T06:41:59Z</time>
      </trkpt>
      <trkpt lat="43.60494" lon="3.40254">
        <ele>175.8</ele>
        <time>2024-07-25T06:42:00Z</time>
      </trkpt>
      <trkpt lat="43.60494" lon="3.40252">
        <ele>175.8</ele>
        <time>2024-07-25T06:42:01Z</time>
      </trkpt>
      <trkpt lat="43.60494" lon="3.40249">
        <ele>175.8</ele>
        <time>2024-07-25T06:42:02Z</time>
      </trkpt>
      <trkpt lat="43.60494" lon="3.40247">
        <ele>175.9</ele>
        <time>2024-07-25T06:42:03Z</time>
      </trkpt>
      <trkpt lat="43.60495" lon="3.40244">
        <ele>176.1</ele>
        <time>2024-07-25T06:42:04Z</time>
      </trkpt>
      <trkpt lat="43.60495" lon="3.40241">
        <ele>176.3</ele>
        <time>2024-07-25T06:42:05Z</time>
      </trkpt>
      <trkpt lat="43.60496" lon="3.40238">
        <ele>176.5</ele>
        <time>2024-07-25T06:42:06Z</time>
      </trkpt>
      <trkpt lat="43.60497" lon="3.40235">
        <ele>176.8</ele>
        <time>2024-07-25T06:42:07Z</time>
      </trkpt>
      <trkpt lat="43.60498" lon="3.40232">
        <ele>177.1</ele>
        <time>2024-07-25T06:42:08Z</time>
      </trkpt>
      <trkpt lat="43.60499" lon="3.40229">
        <ele>177.4</ele>
        <time>2024-07-25T06:42:09Z</time>
      </trkpt>
      <trkpt lat="43.60499" lon="3.40225">
        <ele>177.7</ele>
        <time>2024-07-25T06:42:10Z</time>
      </trkpt>
      <trkpt lat="43.60499" lon="3.40221">
        <ele>177.8</ele>
        <time>2024-07-25T06:42:11Z</time>
      </trkpt>
      <trkpt lat="43.605" lon="3.40216">
        <ele>177.8</ele>
        <time>2024-07-25T06:42:12Z</time>
      </trkpt>
      <trkpt lat="43.605" lon="3.40212">
        <ele>177.6</ele>
        <time>2024-07-25T06:42:13Z</time>
      </trkpt>
      <trkpt lat="43.605" lon="3.40207">
        <ele>177.5</ele>
        <time>2024-07-25T06:42:14Z</time>
      </trkpt>
      <trkpt lat="43.605" lon="3.40202">
        <ele>177.3</ele>
        <time>2024-07-25T06:42:15Z</time>
      </trkpt>
      <trkpt lat="43.605" lon="3.40197">
        <ele>177.1</ele>
        <time>2024-07-25T06:42:16Z</time>
      </trkpt>
      <trkpt lat="43.605" lon="3.40192">
        <ele>176.6</ele>
        <time>2024-07-25T06:42:17Z</time>
      </trkpt>
      <trkpt lat="43.605" lon="3.40188">
        <ele>175.8</ele>
        <time>2024-07-25T06:42:18Z</time>
      </trkpt>
      <trkpt lat="43.605" lon="3.40184">
        <ele>175.1</ele>
        <time>2024-07-25T06:42:19Z</time>
      </trkpt>
      <trkpt lat="43.605" lon="3.4018">
        <ele>174.4</ele>
        <time>2024-07-25T06:42:20Z</time>
      </trkpt>
      <trkpt lat="43.605" lon="3.40175">
        <ele>173.5</ele>
        <time>2024-07-25T06:42:21Z</time>
      </trkpt>
      <trkpt lat="43.60501" lon="3.40171">
        <ele>173</ele>
        <time>2024-07-25T06:42:22Z</time>
      </trkpt>
      <trkpt lat="43.60502" lon="3.40167">
        <ele>172.4</ele>
        <time>2024-07-25T06:42:23Z</time>
      </trkpt>
      <trkpt lat="43.60503" lon="3.40163">
        <ele>171.7</ele>
        <time>2024-07-25T06:42:24Z</time>
      </trkpt>
      <trkpt lat="43.60505" lon="3.40159">
        <ele>171.2</ele>
        <time>2024-07-25T06:42:25Z</time>
      </trkpt>
      <trkpt lat="43.60506" lon="3.40155">
        <ele>170.5</ele>
        <time>2024-07-25T06:42:26Z</time>
      </trkpt>
      <trkpt lat="43.60508" lon="3.4015">
        <ele>169.9</ele>
        <time>2024-07-25T06:42:27Z</time>
      </trkpt>
      <trkpt lat="43.6051" lon="3.40147">
        <ele>169.9</ele>
        <time>2024-07-25T06:42:28Z</time>
      </trkpt>
      <trkpt lat="43.60511" lon="3.40142">
        <ele>169.2</ele>
        <time>2024-07-25T06:42:29Z</time>
      </trkpt>
      <trkpt lat="43.60513" lon="3.40138">
        <ele>169.1</ele>
        <time>2024-07-25T06:42:30Z</time>
      </trkpt>
      <trkpt lat="43.60514" lon="3.40134">
        <ele>169</ele>
        <time>2024-07-25T06:42:31Z</time>
      </trkpt>
      <trkpt lat="43.60516" lon="3.40131">
        <ele>169.3</ele>
        <time>2024-07-25T06:42:32Z</time>
      </trkpt>
      <trkpt lat="43.60519" lon="3.40127">
        <ele>169.9</ele>
        <time>2024-07-25T06:42:33Z</time>
      </trkpt>
      <trkpt lat="43.60521" lon="3.40123">
        <ele>170.1</ele>
        <time>2024-07-25T06:42:34Z</time>
      </trkpt>
      <trkpt lat="43.60523" lon="3.40119">
        <ele>170.3</ele>
        <time>2024-07-25T06:42:35Z</time>
      </trkpt>
      <trkpt lat="43.60525" lon="3.40115">
        <ele>170.5</ele>
        <time>2024-07-25T06:42:36Z</time>
      </trkpt>
      <trkpt lat="43.60527" lon="3.40111">
        <ele>170.7</ele>
        <time>2024-07-25T06:42:37Z</time>
      </trkpt>
      <trkpt lat="43.60527" lon="3.40106">
        <ele>170.4</ele>
        <time>2024-07-25T06:42:38Z</time>
      </trkpt>
      <trkpt lat="43.60526" lon="3.40103">
        <ele>169.8</ele>
        <time>2024-07-25T06:42:39Z</time>
      </trkpt>
      <trkpt lat="43.60526" lon="3.40099">
        <ele>169.5</ele>
        <time>2024-07-25T06:42:40Z</time>
      </trkpt>
      <trkpt lat="43.60525" lon="3.40095">
        <ele>168.9</ele>
        <time>2024-07-25T06:42:41Z</time>
      </trkpt>
      <trkpt lat="43.60524" lon="3.40091">
        <ele>168.2</ele>
        <time>2024-07-25T06:42:42Z</time>
      </trkpt>
      <trkpt lat="43.60523" lon="3.40085">
        <ele>167.4</ele>
        <time>2024-07-25T06:42:43Z</time>
      </trkpt>
      <trkpt lat="43.60521" lon="3.4008">
        <ele>166.7</ele>
        <time>2024-07-25T06:42:44Z</time>
      </trkpt>
      <trkpt lat="43.6052" lon="3.40075">
        <ele>166.4</ele>
        <time>2024-07-25T06:42:45Z</time>
      </trkpt>
      <trkpt lat="43.60519" lon="3.4007">
        <ele>166.2</ele>
        <time>2024-07-25T06:42:46Z</time>
      </trkpt>
      <trkpt lat="43.60519" lon="3.40065">
        <ele>166.3</ele>
        <time>2024-07-25T06:42:47Z</time>
      </trkpt>
      <trkpt lat="43.60518" lon="3.4006">
        <ele>166</ele>
        <time>2024-07-25T06:42:48Z</time>
      </trkpt>
      <trkpt lat="43.60517" lon="3.40055">
        <ele>165.7</ele>
        <time>2024-07-25T06:42:49Z</time>
      </trkpt>
      <trkpt lat="43.60516" lon="3.4005">
        <ele>165.1</ele>
        <time>2024-07-25T06:42:50Z</time>
      </trkpt>
      <trkpt lat="43.60516" lon="3.40043">
        <ele>164.7</ele>
        <time>2024-07-25T06:42:51Z</time>
      </trkpt>
      <trkpt lat="43.60516" lon="3.40037">
        <ele>164.4</ele>
        <time>2024-07-25T06:42:52Z</time>
      </trkpt>
      <trkpt lat="43.60517" lon="3.40032">
        <ele>164.6</ele>
        <time>2024-07-25T06:42:53Z</time>
      </trkpt>
      <trkpt lat="43.60517" lon="3.40026">
        <ele>164.2</ele>
        <time>2024-07-25T06:42:54Z</time>
      </trkpt>
      <trkpt lat="43.60517" lon="3.40021">
        <ele>164</ele>
        <time>2024-07-25T06:42:55Z</time>
      </trkpt>
      <trkpt lat="43.60518" lon="3.40015">
        <ele>164</ele>
        <time>2024-07-25T06:42:56Z</time>
      </trkpt>
      <trkpt lat="43.60519" lon="3.4001">
        <ele>164.1</ele>
        <time>2024-07-25T06:42:57Z</time>
      </trkpt>
      <trkpt lat="43.60519" lon="3.40005">
        <ele>163.8</ele>
        <time>2024-07-25T06:42:58Z</time>
      </trkpt>
      <trkpt lat="43.6052" lon="3.4">
        <ele>163.9</ele>
        <time>2024-07-25T06:42:59Z</time>
      </trkpt>
      <trkpt lat="43.6052" lon="3.39995">
        <ele>163.4</ele>
        <time>2024-07-25T06:43:00Z</time>
      </trkpt>
      <trkpt lat="43.60521" lon="3.39989">
        <ele>163.2</ele>
        <time>2024-07-25T06:43:01Z</time>
      </trkpt>
      <trkpt lat="43.60522" lon="3.39983">
        <ele>163</ele>
        <time>2024-07-25T06:43:02Z</time>
      </trkpt>
      <trkpt lat="43.60524" lon="3.39977">
        <ele>163.1</ele>
        <time>2024-07-25T06:43:03Z</time>
      </trkpt>
      <trkpt lat="43.60525" lon="3.39971">
        <ele>162.9</ele>
        <time>2024-07-25T06:43:04Z</time>
      </trkpt>
      <trkpt lat="43.60527" lon="3.39965">
        <ele>163.2</ele>
        <time>2024-07-25T06:43:05Z</time>
      </trkpt>
      <trkpt lat="43.60528" lon="3.39958">
        <ele>163.1</ele>
        <time>2024-07-25T06:43:06Z</time>
      </trkpt>
      <trkpt lat="43.60529" lon="3.39952">
        <ele>163.2</ele>
        <time>2024-07-25T06:43:07Z</time>
      </trkpt>
      <trkpt lat="43.6053" lon="3.39946">
        <ele>163.2</ele>
        <time>2024-07-25T06:43:08Z</time>
      </trkpt>
      <trkpt lat="43.60531" lon="3.3994">
        <ele>163.3</ele>
        <time>2024-07-25T06:43:09Z</time>
      </trkpt>
      <trkpt lat="43.60533" lon="3.39934">
        <ele>163.7</ele>
        <time>2024-07-25T06:43:10Z</time>
      </trkpt>
      <trkpt lat="43.60535" lon="3.39928">
        <ele>164.1</ele>
        <time>2024-07-25T06:43:11Z</time>
      </trkpt>
      <trkpt lat="43.60536" lon="3.39922">
        <ele>164</ele>
        <time>2024-07-25T06:43:12Z</time>
      </trkpt>
      <trkpt lat="43.60538" lon="3.39916">
        <ele>164.3</ele>
        <time>2024-07-25T06:43:13Z</time>
      </trkpt>
      <trkpt lat="43.6054" lon="3.39909">
        <ele>164.2</ele>
        <time>2024-07-25T06:43:14Z</time>
      </trkpt>
      <trkpt lat="43.60541" lon="3.39903">
        <ele>163.8</ele>
        <time>2024-07-25T06:43:15Z</time>
      </trkpt>
      <trkpt lat="43.60542" lon="3.39898">
        <ele>163.4</ele>
        <time>2024-07-25T06:43:16Z</time>
      </trkpt>
      <trkpt lat="43.60544" lon="3.39892">
        <ele>163.2</ele>
        <time>2024-07-25T06:43:17Z</time>
      </trkpt>
      <trkpt lat="43.60545" lon="3.39887">
        <ele>162.8</ele>
        <time>2024-07-25T06:43:18Z</time>
      </trkpt>
      <trkpt lat="43.60546" lon="3.39884">
        <ele>162.7</ele>
        <time>2024-07-25T06:43:19Z</time>
      </trkpt>
      <trkpt lat="43.60546" lon="3.39881">
        <ele>162.4</ele>
        <time>2024-07-25T06:43:20Z</time>
      </trkpt>
      <trkpt lat="43.60546" lon="3.39878">
        <ele>162.1</ele>
        <time>2024-07-25T06:43:21Z</time>
      </trkpt>
      <trkpt lat="43.60546" lon="3.39875">
        <ele>161.8</ele>
        <time>2024-07-25T06:43:22Z</time>
      </trkpt>
      <trkpt lat="43.60546" lon="3.39872">
        <ele>161.4</ele>
        <time>2024-07-25T06:43:23Z</time>
      </trkpt>
      <trkpt lat="43.60547" lon="3.39868">
        <ele>161.2</ele>
        <time>2024-07-25T06:43:24Z</time>
      </trkpt>
      <trkpt lat="43.60546" lon="3.39863">
        <ele>160.5</ele>
        <time>2024-07-25T06:43:25Z</time>
      </trkpt>
      <trkpt lat="43.60545" lon="3.39859">
        <ele>160.1</ele>
        <time>2024-07-25T06:43:26Z</time>
      </trkpt>
      <trkpt lat="43.60544" lon="3.39854">
        <ele>159.9</ele>
        <time>2024-07-25T06:43:27Z</time>
      </trkpt>
      <trkpt lat="43.60542" lon="3.3985">
        <ele>159.4</ele>
        <time>2024-07-25T06:43:28Z</time>
      </trkpt>
      <trkpt lat="43.6054" lon="3.39845">
        <ele>158.8</ele>
        <time>2024-07-25T06:43:29Z</time>
      </trkpt>
      <trkpt lat="43.60538" lon="3.39841">
        <ele>158.2</ele>
        <time>2024-07-25T06:43:30Z</time>
      </trkpt>
      <trkpt lat="43.60537" lon="3.39836">
        <ele>157.8</ele>
        <time>2024-07-25T06:43:31Z</time>
      </trkpt>
      <trkpt lat="43.60536" lon="3.3983">
        <ele>157</ele>
        <time>2024-07-25T06:43:32Z</time>
      </trkpt>
      <trkpt lat="43.60536" lon="3.39825">
        <ele>156.5</ele>
        <time>2024-07-25T06:43:33Z</time>
      </trkpt>
      <trkpt lat="43.60537" lon="3.39821">
        <ele>156.3</ele>
        <time>2024-07-25T06:43:34Z</time>
      </trkpt>
      <trkpt lat="43.60538" lon="3.39817">
        <ele>156.2</ele>
        <time>2024-07-25T06:43:35Z</time>
      </trkpt>
      <trkpt lat="43.6054" lon="3.39812">
        <ele>156.2</ele>
        <time>2024-07-25T06:43:36Z</time>
      </trkpt>
      <trkpt lat="43.60544" lon="3.39809">
        <ele>157</ele>
        <time>2024-07-25T06:43:37Z</time>
      </trkpt>
      <trkpt lat="43.60546" lon="3.39806">
        <ele>157.3</ele>
        <time>2024-07-25T06:43:38Z</time>
      </trkpt>
      <trkpt lat="43.60549" lon="3.39804">
        <ele>157.9</ele>
        <time>2024-07-25T06:43:39Z</time>
      </trkpt>
      <trkpt lat="43.60552" lon="3.39802">
        <ele>158.4</ele>
        <time>2024-07-25T06:43:40Z</time>
      </trkpt>
      <trkpt lat="43.60555" lon="3.39799">
        <ele>158.7</ele>
        <time>2024-07-25T06:43:41Z</time>
      </trkpt>
      <trkpt lat="43.60558" lon="3.39797">
        <ele>159</ele>
        <time>2024-07-25T06:43:42Z</time>
      </trkpt>
      <trkpt lat="43.6056" lon="3.39794">
        <ele>158.9</ele>
        <time>2024-07-25T06:43:43Z</time>
      </trkpt>
      <trkpt lat="43.60563" lon="3.39792">
        <ele>159.2</ele>
        <time>2024-07-25T06:43:44Z</time>
      </trkpt>
      <trkpt lat="43.60566" lon="3.39788">
        <ele>159</ele>
        <time>2024-07-25T06:43:45Z</time>
      </trkpt>
      <trkpt lat="43.60568" lon="3.39785">
        <ele>158.8</ele>
        <time>2024-07-25T06:43:46Z</time>
      </trkpt>
      <trkpt lat="43.60571" lon="3.39781">
        <ele>158.5</ele>
        <time>2024-07-25T06:43:47Z</time>
      </trkpt>
      <trkpt lat="43.60574" lon="3.39778">
        <ele>158.4</ele>
        <time>2024-07-25T06:43:48Z</time>
      </trkpt>
      <trkpt lat="43.60577" lon="3.39775">
        <ele>158.4</ele>
        <time>2024-07-25T06:43:49Z</time>
      </trkpt>
      <trkpt lat="43.6058" lon="3.39772">
        <ele>158.4</ele>
        <time>2024-07-25T06:43:50Z</time>
      </trkpt>
      <trkpt lat="43.60583" lon="3.3977">
        <ele>158.5</ele>
        <time>2024-07-25T06:43:51Z</time>
      </trkpt>
      <trkpt lat="43.60586" lon="3.39766">
        <ele>158.8</ele>
        <time>2024-07-25T06:43:52Z</time>
      </trkpt>
      <trkpt lat="43.60587" lon="3.39762">
        <ele>158.4</ele>
        <time>2024-07-25T06:43:53Z</time>
      </trkpt>
      <trkpt lat="43.60589" lon="3.39758">
        <ele>158.2</ele>
        <time>2024-07-25T06:43:54Z</time>
      </trkpt>
      <trkpt lat="43.60589" lon="3.39755">
        <ele>157.6</ele>
        <time>2024-07-25T06:43:55Z</time>
      </trkpt>
      <trkpt lat="43.6059" lon="3.39751">
        <ele>157.1</ele>
        <time>2024-07-25T06:43:56Z</time>
      </trkpt>
      <trkpt lat="43.6059" lon="3.39747">
        <ele>156.5</ele>
        <time>2024-07-25T06:43:57Z</time>
      </trkpt>
      <trkpt lat="43.6059" lon="3.39743">
        <ele>155.9</ele>
        <time>2024-07-25T06:43:58Z</time>
      </trkpt>
      <trkpt lat="43.60591" lon="3.39739">
        <ele>155.5</ele>
        <time>2024-07-25T06:43:59Z</time>
      </trkpt>
      <trkpt lat="43.60594" lon="3.39736">
        <ele>155.9</ele>
        <time>2024-07-25T06:44:00Z</time>
      </trkpt>
      <trkpt lat="43.60596" lon="3.39732">
        <ele>155.8</ele>
        <time>2024-07-25T06:44:01Z</time>
      </trkpt>
      <trkpt lat="43.60599" lon="3.39728">
        <ele>155.9</ele>
        <time>2024-07-25T06:44:02Z</time>
      </trkpt>
      <trkpt lat="43.60601" lon="3.39725">
        <ele>155.9</ele>
        <time>2024-07-25T06:44:03Z</time>
      </trkpt>
      <trkpt lat="43.60603" lon="3.39722">
        <ele>155.9</ele>
        <time>2024-07-25T06:44:04Z</time>
      </trkpt>
      <trkpt lat="43.60604" lon="3.39718">
        <ele>155.5</ele>
        <time>2024-07-25T06:44:05Z</time>
      </trkpt>
      <trkpt lat="43.60606" lon="3.39714">
        <ele>155.3</ele>
        <time>2024-07-25T06:44:06Z</time>
      </trkpt>
      <trkpt lat="43.60608" lon="3.3971">
        <ele>155.1</ele>
        <time>2024-07-25T06:44:07Z</time>
      </trkpt>
      <trkpt lat="43.6061" lon="3.39707">
        <ele>155</ele>
        <time>2024-07-25T06:44:08Z</time>
      </trkpt>
      <trkpt lat="43.60612" lon="3.39704">
        <ele>155</ele>
        <time>2024-07-25T06:44:09Z</time>
      </trkpt>
      <trkpt lat="43.60615" lon="3.39701">
        <ele>155.4</ele>
        <time>2024-07-25T06:44:10Z</time>
      </trkpt>
      <trkpt lat="43.60619" lon="3.39698">
        <ele>156</ele>
        <time>2024-07-25T06:44:11Z</time>
      </trkpt>
      <trkpt lat="43.60622" lon="3.39694">
        <ele>156</ele>
        <time>2024-07-25T06:44:12Z</time>
      </trkpt>
      <trkpt lat="43.60624" lon="3.3969">
        <ele>155.8</ele>
        <time>2024-07-25T06:44:13Z</time>
      </trkpt>
      <trkpt lat="43.60626" lon="3.39685">
        <ele>155.2</ele>
        <time>2024-07-25T06:44:14Z</time>
      </trkpt>
      <trkpt lat="43.60628" lon="3.39681">
        <ele>154.9</ele>
        <time>2024-07-25T06:44:15Z</time>
      </trkpt>
      <trkpt lat="43.60631" lon="3.39678">
        <ele>154.9</ele>
        <time>2024-07-25T06:44:16Z</time>
      </trkpt>
      <trkpt lat="43.60633" lon="3.39674">
        <ele>154.5</ele>
        <time>2024-07-25T06:44:17Z</time>
      </trkpt>
      <trkpt lat="43.60636" lon="3.3967">
        <ele>154.2</ele>
        <time>2024-07-25T06:44:18Z</time>
      </trkpt>
      <trkpt lat="43.60639" lon="3.39665">
        <ele>153.8</ele>
        <time>2024-07-25T06:44:19Z</time>
      </trkpt>
      <trkpt lat="43.60641" lon="3.3966">
        <ele>153.9</ele>
        <time>2024-07-25T06:44:20Z</time>
      </trkpt>
      <trkpt lat="43.60642" lon="3.39655">
        <ele>153.5</ele>
        <time>2024-07-25T06:44:21Z</time>
      </trkpt>
      <trkpt lat="43.60644" lon="3.3965">
        <ele>153.4</ele>
        <time>2024-07-25T06:44:22Z</time>
      </trkpt>
      <trkpt lat="43.60647" lon="3.39645">
        <ele>153.5</ele>
        <time>2024-07-25T06:44:23Z</time>
      </trkpt>
      <trkpt lat="43.6065" lon="3.39641">
        <ele>153.6</ele>
        <time>2024-07-25T06:44:24Z</time>
      </trkpt>
      <trkpt lat="43.60654" lon="3.39636">
        <ele>153.9</ele>
        <time>2024-07-25T06:44:25Z</time>
      </trkpt>
      <trkpt lat="43.60657" lon="3.39632">
        <ele>153.9</ele>
        <time>2024-07-25T06:44:26Z</time>
      </trkpt>
      <trkpt lat="43.6066" lon="3.39627">
        <ele>153.6</ele>
        <time>2024-07-25T06:44:27Z</time>
      </trkpt>
      <trkpt lat="43.60663" lon="3.39623">
        <ele>153.3</ele>
        <time>2024-07-25T06:44:28Z</time>
      </trkpt>
      <trkpt lat="43.60667" lon="3.39618">
        <ele>152.8</ele>
        <time>2024-07-25T06:44:29Z</time>
      </trkpt>
      <trkpt lat="43.6067" lon="3.39614">
        <ele>152.2</ele>
        <time>2024-07-25T06:44:30Z</time>
      </trkpt>
      <trkpt lat="43.60672" lon="3.39611">
        <ele>151.8</ele>
        <time>2024-07-25T06:44:31Z</time>
      </trkpt>
      <trkpt lat="43.60674" lon="3.39607">
        <ele>151.9</ele>
        <time>2024-07-25T06:44:32Z</time>
      </trkpt>
      <trkpt lat="43.60677" lon="3.39604">
        <ele>152.2</ele>
        <time>2024-07-25T06:44:33Z</time>
      </trkpt>
      <trkpt lat="43.60679" lon="3.39601">
        <ele>152.3</ele>
        <time>2024-07-25T06:44:34Z</time>
      </trkpt>
      <trkpt lat="43.6068" lon="3.39597">
        <ele>152.2</ele>
        <time>2024-07-25T06:44:35Z</time>
      </trkpt>
      <trkpt lat="43.60681" lon="3.39594">
        <ele>152.1</ele>
        <time>2024-07-25T06:44:36Z</time>
      </trkpt>
      <trkpt lat="43.60681" lon="3.39591">
        <ele>151.9</ele>
        <time>2024-07-25T06:44:37Z</time>
      </trkpt>
      <trkpt lat="43.60682" lon="3.39589">
        <ele>151.9</ele>
        <time>2024-07-25T06:44:38Z</time>
      </trkpt>
      <trkpt lat="43.60681" lon="3.39586">
        <ele>151.7</ele>
        <time>2024-07-25T06:44:39Z</time>
      </trkpt>
      <trkpt lat="43.60681" lon="3.39583">
        <ele>151.5</ele>
        <time>2024-07-25T06:44:40Z</time>
      </trkpt>
      <trkpt lat="43.60681" lon="3.39581">
        <ele>151.6</ele>
        <time>2024-07-25T06:44:41Z</time>
      </trkpt>
      <trkpt lat="43.60681" lon="3.39578">
        <ele>151.8</ele>
        <time>2024-07-25T06:44:42Z</time>
      </trkpt>
      <trkpt lat="43.6068" lon="3.39576">
        <ele>151.9</ele>
        <time>2024-07-25T06:44:43Z</time>
      </trkpt>
      <trkpt lat="43.60679" lon="3.39573">
        <ele>152</ele>
        <time>2024-07-25T06:44:44Z</time>
      </trkpt>
      <trkpt lat="43.60678" lon="3.39569">
        <ele>152.2</ele>
        <time>2024-07-25T06:44:45Z</time>
      </trkpt>
      <trkpt lat="43.60676" lon="3.39567">
        <ele>152.3</ele>
        <time>2024-07-25T06:44:46Z</time>
      </trkpt>
      <trkpt lat="43.60673" lon="3.39565">
        <ele>152.4</ele>
        <time>2024-07-25T06:44:47Z</time>
      </trkpt>
      <trkpt lat="43.60671" lon="3.39564">
        <ele>152.4</ele>
        <time>2024-07-25T06:44:48Z</time>
      </trkpt>
      <trkpt lat="43.60668" lon="3.39562">
        <ele>152.5</ele>
        <time>2024-07-25T06:44:49Z</time>
      </trkpt>
      <trkpt lat="43.60666" lon="3.3956">
        <ele>152.6</ele>
        <time>2024-07-25T06:44:50Z</time>
      </trkpt>
      <trkpt lat="43.60663" lon="3.39559">
        <ele>152.6</ele>
        <time>2024-07-25T06:44:51Z</time>
      </trkpt>
      <trkpt lat="43.60661" lon="3.39557">
        <ele>152.7</ele>
        <time>2024-07-25T06:44:52Z</time>
      </trkpt>
      <trkpt lat="43.60658" lon="3.39555">
        <ele>152.7</ele>
        <time>2024-07-25T06:44:53Z</time>
      </trkpt>
      <trkpt lat="43.60655" lon="3.39553">
        <ele>152.8</ele>
        <time>2024-07-25T06:44:54Z</time>
      </trkpt>
      <trkpt lat="43.60653" lon="3.39552">
        <ele>152.8</ele>
        <time>2024-07-25T06:44:55Z</time>
      </trkpt>
      <trkpt lat="43.60651" lon="3.3955">
        <ele>152.9</ele>
        <time>2024-07-25T06:44:56Z</time>
      </trkpt>
      <trkpt lat="43.60649" lon="3.39549">
        <ele>153</ele>
        <time>2024-07-25T06:44:57Z</time>
      </trkpt>
      <trkpt lat="43.60648" lon="3.39546">
        <ele>153.2</ele>
        <time>2024-07-25T06:44:58Z</time>
      </trkpt>
      <trkpt lat="43.60647" lon="3.39543">
        <ele>153.5</ele>
        <time>2024-07-25T06:44:59Z</time>
      </trkpt>
      <trkpt lat="43.60647" lon="3.39539">
        <ele>153.9</ele>
        <time>2024-07-25T06:45:00Z</time>
      </trkpt>
      <trkpt lat="43.60648" lon="3.39536">
        <ele>154.2</ele>
        <time>2024-07-25T06:45:01Z</time>
      </trkpt>
      <trkpt lat="43.60648" lon="3.39532">
        <ele>154.6</ele>
        <time>2024-07-25T06:45:02Z</time>
      </trkpt>
      <trkpt lat="43.6065" lon="3.39529">
        <ele>154.9</ele>
        <time>2024-07-25T06:45:03Z</time>
      </trkpt>
      <trkpt lat="43.60651" lon="3.39527">
        <ele>155.1</ele>
        <time>2024-07-25T06:45:04Z</time>
      </trkpt>
      <trkpt lat="43.60653" lon="3.39525">
        <ele>155.3</ele>
        <time>2024-07-25T06:45:05Z</time>
      </trkpt>
      <trkpt lat="43.60654" lon="3.39523">
        <ele>155.4</ele>
        <time>2024-07-25T06:45:06Z</time>
      </trkpt>
      <trkpt lat="43.60656" lon="3.39521">
        <ele>155.6</ele>
        <time>2024-07-25T06:45:07Z</time>
      </trkpt>
      <trkpt lat="43.60657" lon="3.39519">
        <ele>155.8</ele>
        <time>2024-07-25T06:45:08Z</time>
      </trkpt>
      <trkpt lat="43.60658" lon="3.39514">
        <ele>156.4</ele>
        <time>2024-07-25T06:45:11Z</time>
      </trkpt>
      <trkpt lat="43.60659" lon="3.39501">
        <ele>157.6</ele>
        <time>2024-07-25T06:45:14Z</time>
      </trkpt>
      <trkpt lat="43.60662" lon="3.3949">
        <ele>158.5</ele>
        <time>2024-07-25T06:45:21Z</time>
      </trkpt>
      <trkpt lat="43.60664" lon="3.39481">
        <ele>159.2</ele>
        <time>2024-07-25T06:45:41Z</time>
      </trkpt>
      <trkpt lat="43.60672" lon="3.39459">
        <ele>161.3</ele>
      </trkpt>
      <trkpt lat="43.60674" lon="3.39454">
        <ele>161.7</ele>
      </trkpt>
      <trkpt lat="43.60685" lon="3.39435">
        <ele>163.9</ele>
      </trkpt>
      <trkpt lat="43.60698" lon="3.39422">
        <ele>166.4</ele>
        <time>2024-07-25T06:45:54Z</time>
      </trkpt>
      <trkpt lat="43.60722" lon="3.39416">
        <ele>172</ele>
        <time>2024-07-25T06:46:09Z</time>
      </trkpt>
      <trkpt lat="43.60739" lon="3.39416">
        <ele>174.5</ele>
        <time>2024-07-25T06:46:19Z</time>
      </trkpt>
      <trkpt lat="43.60749" lon="3.39411">
        <ele>176.9</ele>
        <time>2024-07-25T06:46:20Z</time>
      </trkpt>
      <trkpt lat="43.60752" lon="3.39408">
        <ele>178.2</ele>
        <time>2024-07-25T06:46:34Z</time>
      </trkpt>
      <trkpt lat="43.60752" lon="3.39406">
        <ele>178.6</ele>
        <time>2024-07-25T06:46:35Z</time>
      </trkpt>
      <trkpt lat="43.60753" lon="3.39403">
        <ele>179.4</ele>
        <time>2024-07-25T06:46:36Z</time>
      </trkpt>
      <trkpt lat="43.60753" lon="3.39401">
        <ele>179.9</ele>
        <time>2024-07-25T06:46:37Z</time>
      </trkpt>
      <trkpt lat="43.60753" lon="3.39399">
        <ele>180.3</ele>
        <time>2024-07-25T06:46:38Z</time>
      </trkpt>
      <trkpt lat="43.60753" lon="3.39397">
        <ele>180.7</ele>
        <time>2024-07-25T06:46:39Z</time>
      </trkpt>
      <trkpt lat="43.60753" lon="3.39395">
        <ele>181.1</ele>
        <time>2024-07-25T06:46:40Z</time>
      </trkpt>
      <trkpt lat="43.60752" lon="3.39392">
        <ele>181.6</ele>
        <time>2024-07-25T06:46:41Z</time>
      </trkpt>
      <trkpt lat="43.60752" lon="3.39391">
        <ele>181.8</ele>
        <time>2024-07-25T06:46:42Z</time>
      </trkpt>
      <trkpt lat="43.60751" lon="3.39389">
        <ele>182.1</ele>
        <time>2024-07-25T06:46:43Z</time>
      </trkpt>
      <trkpt lat="43.60751" lon="3.39387">
        <ele>182.3</ele>
        <time>2024-07-25T06:46:44Z</time>
      </trkpt>
      <trkpt lat="43.6075" lon="3.39384">
        <ele>182.5</ele>
        <time>2024-07-25T06:46:45Z</time>
      </trkpt>
      <trkpt lat="43.60749" lon="3.39382">
        <ele>182.5</ele>
        <time>2024-07-25T06:46:46Z</time>
      </trkpt>
      <trkpt lat="43.60748" lon="3.3938">
        <ele>182.5</ele>
        <time>2024-07-25T06:46:47Z</time>
      </trkpt>
      <trkpt lat="43.60748" lon="3.39379">
        <ele>182.6</ele>
        <time>2024-07-25T06:46:48Z</time>
      </trkpt>
      <trkpt lat="43.60748" lon="3.39378">
        <ele>182.7</ele>
        <time>2024-07-25T06:46:49Z</time>
      </trkpt>
      <trkpt lat="43.60748" lon="3.39376">
        <ele>182.9</ele>
        <time>2024-07-25T06:46:50Z</time>
      </trkpt>
      <trkpt lat="43.60747" lon="3.39375">
        <ele>182.7</ele>
        <time>2024-07-25T06:46:51Z</time>
      </trkpt>
      <trkpt lat="43.60747" lon="3.39374">
        <ele>182.9</ele>
        <time>2024-07-25T06:46:52Z</time>
      </trkpt>
      <trkpt lat="43.60747" lon="3.39373">
        <ele>183</ele>
        <time>2024-07-25T06:46:53Z</time>
      </trkpt>
      <trkpt lat="43.60746" lon="3.39371">
        <ele>182.9</ele>
        <time>2024-07-25T06:46:54Z</time>
      </trkpt>
      <trkpt lat="43.60746" lon="3.3937">
        <ele>183</ele>
        <time>2024-07-25T06:46:55Z</time>
      </trkpt>
      <trkpt lat="43.60745" lon="3.39369">
        <ele>182.9</ele>
        <time>2024-07-25T06:46:56Z</time>
      </trkpt>
      <trkpt lat="43.60745" lon="3.39368">
        <ele>183</ele>
        <time>2024-07-25T06:46:57Z</time>
      </trkpt>
      <trkpt lat="43.60745" lon="3.39368">
        <ele>183</ele>
        <time>2024-07-25T06:46:58Z</time>
      </trkpt>
      <trkpt lat="43.60744" lon="3.39362">
        <ele>183.4</ele>
        <time>2024-07-25T06:47:16Z</time>
      </trkpt>
      <trkpt lat="43.60743" lon="3.39359">
        <ele>183.5</ele>
        <time>2024-07-25T06:47:17Z</time>
      </trkpt>
      <trkpt lat="43.60742" lon="3.39357">
        <ele>183.6</ele>
        <time>2024-07-25T06:47:18Z</time>
      </trkpt>
      <trkpt lat="43.60741" lon="3.39355">
        <ele>183.6</ele>
        <time>2024-07-25T06:47:19Z</time>
      </trkpt>
      <trkpt lat="43.6074" lon="3.39352">
        <ele>183.8</ele>
        <time>2024-07-25T06:47:20Z</time>
      </trkpt>
      <trkpt lat="43.60739" lon="3.3935">
        <ele>183.8</ele>
        <time>2024-07-25T06:47:21Z</time>
      </trkpt>
      <trkpt lat="43.60739" lon="3.39348">
        <ele>184.1</ele>
        <time>2024-07-25T06:47:22Z</time>
      </trkpt>
      <trkpt lat="43.60738" lon="3.39345">
        <ele>184.3</ele>
        <time>2024-07-25T06:47:23Z</time>
      </trkpt>
      <trkpt lat="43.60736" lon="3.39343">
        <ele>184.1</ele>
        <time>2024-07-25T06:47:24Z</time>
      </trkpt>
      <trkpt lat="43.60736" lon="3.39341">
        <ele>184.4</ele>
        <time>2024-07-25T06:47:25Z</time>
      </trkpt>
      <trkpt lat="43.60735" lon="3.39339">
        <ele>184.4</ele>
        <time>2024-07-25T06:47:26Z</time>
      </trkpt>
      <trkpt lat="43.60734" lon="3.39336">
        <ele>184.6</ele>
        <time>2024-07-25T06:47:27Z</time>
      </trkpt>
      <trkpt lat="43.60734" lon="3.39334">
        <ele>184.9</ele>
        <time>2024-07-25T06:47:28Z</time>
      </trkpt>
      <trkpt lat="43.60733" lon="3.39332">
        <ele>185</ele>
        <time>2024-07-25T06:47:29Z</time>
      </trkpt>
      <trkpt lat="43.60731" lon="3.39329">
        <ele>185</ele>
        <time>2024-07-25T06:47:30Z</time>
      </trkpt>
      <trkpt lat="43.60731" lon="3.39327">
        <ele>185.4</ele>
        <time>2024-07-25T06:47:31Z</time>
      </trkpt>
      <trkpt lat="43.6073" lon="3.39324">
        <ele>185.6</ele>
        <time>2024-07-25T06:47:32Z</time>
      </trkpt>
      <trkpt lat="43.60729" lon="3.39322">
        <ele>185.7</ele>
        <time>2024-07-25T06:47:33Z</time>
      </trkpt>
      <trkpt lat="43.60729" lon="3.39319">
        <ele>186.3</ele>
        <time>2024-07-25T06:47:34Z</time>
      </trkpt>
      <trkpt lat="43.60729" lon="3.39317">
        <ele>186.6</ele>
        <time>2024-07-25T06:47:35Z</time>
      </trkpt>
      <trkpt lat="43.60728" lon="3.39314">
        <ele>186.9</ele>
        <time>2024-07-25T06:47:36Z</time>
      </trkpt>
      <trkpt lat="43.60727" lon="3.39312">
        <ele>187</ele>
        <time>2024-07-25T06:47:37Z</time>
      </trkpt>
      <trkpt lat="43.60727" lon="3.3931">
        <ele>187.4</ele>
        <time>2024-07-25T06:47:38Z</time>
      </trkpt>
      <trkpt lat="43.60726" lon="3.39307">
        <ele>187.7</ele>
        <time>2024-07-25T06:47:39Z</time>
      </trkpt>
      <trkpt lat="43.60725" lon="3.39305">
        <ele>187.8</ele>
        <time>2024-07-25T06:47:40Z</time>
      </trkpt>
      <trkpt lat="43.60725" lon="3.39302">
        <ele>188.1</ele>
        <time>2024-07-25T06:47:41Z</time>
      </trkpt>
      <trkpt lat="43.60724" lon="3.393">
        <ele>188.1</ele>
        <time>2024-07-25T06:47:42Z</time>
      </trkpt>
      <trkpt lat="43.60724" lon="3.39297">
        <ele>188.4</ele>
        <time>2024-07-25T06:47:43Z</time>
      </trkpt>
      <trkpt lat="43.60723" lon="3.39294">
        <ele>188.5</ele>
        <time>2024-07-25T06:47:44Z</time>
      </trkpt>
      <trkpt lat="43.60723" lon="3.39292">
        <ele>188.7</ele>
        <time>2024-07-25T06:47:45Z</time>
      </trkpt>
      <trkpt lat="43.60722" lon="3.3929">
        <ele>188.6</ele>
        <time>2024-07-25T06:47:46Z</time>
      </trkpt>
      <trkpt lat="43.60722" lon="3.39287">
        <ele>188.9</ele>
        <time>2024-07-25T06:47:47Z</time>
      </trkpt>
      <trkpt lat="43.60721" lon="3.39284">
        <ele>189</ele>
        <time>2024-07-25T06:47:48Z</time>
      </trkpt>
      <trkpt lat="43.60721" lon="3.39282">
        <ele>189.2</ele>
        <time>2024-07-25T06:47:49Z</time>
      </trkpt>
      <trkpt lat="43.6072" lon="3.39279">
        <ele>189.2</ele>
        <time>2024-07-25T06:47:50Z</time>
      </trkpt>
      <trkpt lat="43.60719" lon="3.39277">
        <ele>189.2</ele>
        <time>2024-07-25T06:47:51Z</time>
      </trkpt>
      <trkpt lat="43.60719" lon="3.39274">
        <ele>189.6</ele>
        <time>2024-07-25T06:47:52Z</time>
      </trkpt>
      <trkpt lat="43.60719" lon="3.39272">
        <ele>189.9</ele>
        <time>2024-07-25T06:47:53Z</time>
      </trkpt>
      <trkpt lat="43.60718" lon="3.39269">
        <ele>190</ele>
        <time>2024-07-25T06:47:54Z</time>
      </trkpt>
      <trkpt lat="43.60718" lon="3.39267">
        <ele>190.3</ele>
        <time>2024-07-25T06:47:55Z</time>
      </trkpt>
      <trkpt lat="43.60718" lon="3.39264">
        <ele>190.8</ele>
        <time>2024-07-25T06:47:56Z</time>
      </trkpt>
      <trkpt lat="43.60717" lon="3.39261">
        <ele>190.9</ele>
        <time>2024-07-25T06:47:57Z</time>
      </trkpt>
      <trkpt lat="43.60716" lon="3.39259">
        <ele>190.9</ele>
        <time>2024-07-25T06:47:58Z</time>
      </trkpt>
      <trkpt lat="43.60716" lon="3.39257">
        <ele>191.2</ele>
        <time>2024-07-25T06:47:59Z</time>
      </trkpt>
      <trkpt lat="43.60716" lon="3.39254">
        <ele>191.6</ele>
        <time>2024-07-25T06:48:00Z</time>
      </trkpt>
      <trkpt lat="43.60715" lon="3.39252">
        <ele>191.6</ele>
        <time>2024-07-25T06:48:01Z</time>
      </trkpt>
      <trkpt lat="43.60715" lon="3.3925">
        <ele>191.9</ele>
        <time>2024-07-25T06:48:02Z</time>
      </trkpt>
      <trkpt lat="43.60714" lon="3.39247">
        <ele>192</ele>
        <time>2024-07-25T06:48:03Z</time>
      </trkpt>
      <trkpt lat="43.60714" lon="3.39245">
        <ele>192.2</ele>
        <time>2024-07-25T06:48:04Z</time>
      </trkpt>
      <trkpt lat="43.60714" lon="3.39242">
        <ele>192.5</ele>
        <time>2024-07-25T06:48:05Z</time>
      </trkpt>
      <trkpt lat="43.60714" lon="3.3924">
        <ele>192.7</ele>
        <time>2024-07-25T06:48:06Z</time>
      </trkpt>
      <trkpt lat="43.60714" lon="3.39237">
        <ele>193</ele>
        <time>2024-07-25T06:48:07Z</time>
      </trkpt>
      <trkpt lat="43.60713" lon="3.39234">
        <ele>193.1</ele>
        <time>2024-07-25T06:48:08Z</time>
      </trkpt>
      <trkpt lat="43.60713" lon="3.39231">
        <ele>193.4</ele>
        <time>2024-07-25T06:48:09Z</time>
      </trkpt>
      <trkpt lat="43.60712" lon="3.39229">
        <ele>193.3</ele>
        <time>2024-07-25T06:48:10Z</time>
      </trkpt>
      <trkpt lat="43.60712" lon="3.39226">
        <ele>193.6</ele>
        <time>2024-07-25T06:48:11Z</time>
      </trkpt>
      <trkpt lat="43.60712" lon="3.39223">
        <ele>194</ele>
        <time>2024-07-25T06:48:12Z</time>
      </trkpt>
      <trkpt lat="43.60711" lon="3.3922">
        <ele>194.1</ele>
        <time>2024-07-25T06:48:13Z</time>
      </trkpt>
      <trkpt lat="43.60711" lon="3.39218">
        <ele>194.5</ele>
        <time>2024-07-25T06:48:14Z</time>
      </trkpt>
      <trkpt lat="43.6071" lon="3.39215">
        <ele>194.7</ele>
        <time>2024-07-25T06:48:15Z</time>
      </trkpt>
      <trkpt lat="43.6071" lon="3.39212">
        <ele>195.2</ele>
        <time>2024-07-25T06:48:16Z</time>
      </trkpt>
      <trkpt lat="43.60709" lon="3.39209">
        <ele>195.3</ele>
        <time>2024-07-25T06:48:17Z</time>
      </trkpt>
      <trkpt lat="43.60708" lon="3.39207">
        <ele>195.4</ele>
        <time>2024-07-25T06:48:18Z</time>
      </trkpt>
      <trkpt lat="43.60707" lon="3.39204">
        <ele>195.5</ele>
        <time>2024-07-25T06:48:19Z</time>
      </trkpt>
      <trkpt lat="43.60706" lon="3.39202">
        <ele>195.5</ele>
        <time>2024-07-25T06:48:20Z</time>
      </trkpt>
      <trkpt lat="43.60705" lon="3.392">
        <ele>195.5</ele>
        <time>2024-07-25T06:48:21Z</time>
      </trkpt>
      <trkpt lat="43.60704" lon="3.39198">
        <ele>195.5</ele>
        <time>2024-07-25T06:48:22Z</time>
      </trkpt>
      <trkpt lat="43.60703" lon="3.39195">
        <ele>195.7</ele>
        <time>2024-07-25T06:48:23Z</time>
      </trkpt>
      <trkpt lat="43.60702" lon="3.39193">
        <ele>195.7</ele>
        <time>2024-07-25T06:48:24Z</time>
      </trkpt>
      <trkpt lat="43.60702" lon="3.39191">
        <ele>196.1</ele>
        <time>2024-07-25T06:48:25Z</time>
      </trkpt>
      <trkpt lat="43.60701" lon="3.39189">
        <ele>196.1</ele>
        <time>2024-07-25T06:48:26Z</time>
      </trkpt>
      <trkpt lat="43.607" lon="3.39187">
        <ele>196.1</ele>
        <time>2024-07-25T06:48:27Z</time>
      </trkpt>
      <trkpt lat="43.60699" lon="3.39184">
        <ele>196.4</ele>
        <time>2024-07-25T06:48:28Z</time>
      </trkpt>
      <trkpt lat="43.60699" lon="3.39182">
        <ele>196.7</ele>
        <time>2024-07-25T06:48:29Z</time>
      </trkpt>
      <trkpt lat="43.60698" lon="3.39179">
        <ele>196.9</ele>
        <time>2024-07-25T06:48:30Z</time>
      </trkpt>
      <trkpt lat="43.60698" lon="3.39176">
        <ele>197.5</ele>
        <time>2024-07-25T06:48:31Z</time>
      </trkpt>
      <trkpt lat="43.60697" lon="3.39173">
        <ele>197.7</ele>
        <time>2024-07-25T06:48:32Z</time>
      </trkpt>
      <trkpt lat="43.60697" lon="3.3917">
        <ele>198.2</ele>
        <time>2024-07-25T06:48:33Z</time>
      </trkpt>
      <trkpt lat="43.60697" lon="3.39167">
        <ele>198.8</ele>
        <time>2024-07-25T06:48:34Z</time>
      </trkpt>
      <trkpt lat="43.60697" lon="3.39165">
        <ele>199.1</ele>
        <time>2024-07-25T06:48:35Z</time>
      </trkpt>
      <trkpt lat="43.60696" lon="3.39162">
        <ele>199.2</ele>
        <time>2024-07-25T06:48:36Z</time>
      </trkpt>
      <trkpt lat="43.60696" lon="3.3916">
        <ele>199.5</ele>
        <time>2024-07-25T06:48:37Z</time>
      </trkpt>
      <trkpt lat="43.60696" lon="3.39157">
        <ele>199.9</ele>
        <time>2024-07-25T06:48:38Z</time>
      </trkpt>
      <trkpt lat="43.60696" lon="3.39154">
        <ele>200.4</ele>
        <time>2024-07-25T06:48:39Z</time>
      </trkpt>
      <trkpt lat="43.60695" lon="3.39151">
        <ele>200.4</ele>
        <time>2024-07-25T06:48:40Z</time>
      </trkpt>
      <trkpt lat="43.60694" lon="3.39149">
        <ele>200.5</ele>
        <time>2024-07-25T06:48:41Z</time>
      </trkpt>
      <trkpt lat="43.60693" lon="3.39146">
        <ele>201</ele>
        <time>2024-07-25T06:48:42Z</time>
      </trkpt>
      <trkpt lat="43.60692" lon="3.39143">
        <ele>201.5</ele>
        <time>2024-07-25T06:48:43Z</time>
      </trkpt>
      <trkpt lat="43.6069" lon="3.39142">
        <ele>201.7</ele>
        <time>2024-07-25T06:48:44Z</time>
      </trkpt>
      <trkpt lat="43.60687" lon="3.39141">
        <ele>201.9</ele>
        <time>2024-07-25T06:48:45Z</time>
      </trkpt>
      <trkpt lat="43.60685" lon="3.3914">
        <ele>202.1</ele>
        <time>2024-07-25T06:48:46Z</time>
      </trkpt>
      <trkpt lat="43.60682" lon="3.3914">
        <ele>202.2</ele>
        <time>2024-07-25T06:48:47Z</time>
      </trkpt>
      <trkpt lat="43.6068" lon="3.3914">
        <ele>202.3</ele>
        <time>2024-07-25T06:48:48Z</time>
      </trkpt>
      <trkpt lat="43.60677" lon="3.39141">
        <ele>202.2</ele>
        <time>2024-07-25T06:48:49Z</time>
      </trkpt>
      <trkpt lat="43.60675" lon="3.39143">
        <ele>201.8</ele>
        <time>2024-07-25T06:48:50Z</time>
      </trkpt>
      <trkpt lat="43.60673" lon="3.39144">
        <ele>201.6</ele>
        <time>2024-07-25T06:48:51Z</time>
      </trkpt>
      <trkpt lat="43.60671" lon="3.39145">
        <ele>201.4</ele>
        <time>2024-07-25T06:48:52Z</time>
      </trkpt>
      <trkpt lat="43.60669" lon="3.39147">
        <ele>200.9</ele>
        <time>2024-07-25T06:48:53Z</time>
      </trkpt>
      <trkpt lat="43.60667" lon="3.39148">
        <ele>200.7</ele>
        <time>2024-07-25T06:48:54Z</time>
      </trkpt>
      <trkpt lat="43.60665" lon="3.39149">
        <ele>200.5</ele>
        <time>2024-07-25T06:48:55Z</time>
      </trkpt>
      <trkpt lat="43.60662" lon="3.39149">
        <ele>200.6</ele>
        <time>2024-07-25T06:48:56Z</time>
      </trkpt>
      <trkpt lat="43.6066" lon="3.3915">
        <ele>200.4</ele>
        <time>2024-07-25T06:48:57Z</time>
      </trkpt>
      <trkpt lat="43.60658" lon="3.3915">
        <ele>200.5</ele>
        <time>2024-07-25T06:48:58Z</time>
      </trkpt>
      <trkpt lat="43.60656" lon="3.3915">
        <ele>200.6</ele>
        <time>2024-07-25T06:48:59Z</time>
      </trkpt>
      <trkpt lat="43.60654" lon="3.39149">
        <ele>200.9</ele>
        <time>2024-07-25T06:49:00Z</time>
      </trkpt>
      <trkpt lat="43.60651" lon="3.39149">
        <ele>201</ele>
        <time>2024-07-25T06:49:01Z</time>
      </trkpt>
      <trkpt lat="43.60649" lon="3.39149">
        <ele>201.1</ele>
        <time>2024-07-25T06:49:02Z</time>
      </trkpt>
      <trkpt lat="43.60646" lon="3.39149">
        <ele>201.2</ele>
        <time>2024-07-25T06:49:03Z</time>
      </trkpt>
      <trkpt lat="43.60644" lon="3.39148">
        <ele>201.5</ele>
        <time>2024-07-25T06:49:04Z</time>
      </trkpt>
      <trkpt lat="43.60642" lon="3.39147">
        <ele>201.8</ele>
        <time>2024-07-25T06:49:05Z</time>
      </trkpt>
      <trkpt lat="43.6064" lon="3.39145">
        <ele>202.4</ele>
        <time>2024-07-25T06:49:06Z</time>
      </trkpt>
      <trkpt lat="43.60637" lon="3.39143">
        <ele>202.6</ele>
        <time>2024-07-25T06:49:07Z</time>
      </trkpt>
      <trkpt lat="43.60635" lon="3.39142">
        <ele>202.5</ele>
        <time>2024-07-25T06:49:08Z</time>
      </trkpt>
      <trkpt lat="43.60633" lon="3.3914">
        <ele>202.7</ele>
        <time>2024-07-25T06:49:09Z</time>
      </trkpt>
      <trkpt lat="43.60631" lon="3.39138">
        <ele>202.9</ele>
        <time>2024-07-25T06:49:10Z</time>
      </trkpt>
      <trkpt lat="43.60629" lon="3.39136">
        <ele>203.1</ele>
        <time>2024-07-25T06:49:11Z</time>
      </trkpt>
      <trkpt lat="43.60627" lon="3.39135">
        <ele>203.1</ele>
        <time>2024-07-25T06:49:12Z</time>
      </trkpt>
      <trkpt lat="43.60625" lon="3.39133">
        <ele>203.3</ele>
        <time>2024-07-25T06:49:13Z</time>
      </trkpt>
      <trkpt lat="43.60624" lon="3.39131">
        <ele>203.7</ele>
        <time>2024-07-25T06:49:14Z</time>
      </trkpt>
      <trkpt lat="43.60622" lon="3.39129">
        <ele>203.9</ele>
        <time>2024-07-25T06:49:15Z</time>
      </trkpt>
      <trkpt lat="43.6062" lon="3.39127">
        <ele>204.2</ele>
        <time>2024-07-25T06:49:16Z</time>
      </trkpt>
      <trkpt lat="43.60618" lon="3.39125">
        <ele>204.4</ele>
        <time>2024-07-25T06:49:17Z</time>
      </trkpt>
      <trkpt lat="43.60616" lon="3.39123">
        <ele>204.6</ele>
        <time>2024-07-25T06:49:18Z</time>
      </trkpt>
      <trkpt lat="43.60615" lon="3.39121">
        <ele>204.9</ele>
        <time>2024-07-25T06:49:19Z</time>
      </trkpt>
      <trkpt lat="43.60614" lon="3.39118">
        <ele>205.6</ele>
        <time>2024-07-25T06:49:20Z</time>
      </trkpt>
      <trkpt lat="43.60612" lon="3.39116">
        <ele>205.8</ele>
        <time>2024-07-25T06:49:21Z</time>
      </trkpt>
      <trkpt lat="43.60611" lon="3.39113">
        <ele>206.4</ele>
        <time>2024-07-25T06:49:22Z</time>
      </trkpt>
      <trkpt lat="43.60609" lon="3.39111">
        <ele>206.3</ele>
        <time>2024-07-25T06:49:23Z</time>
      </trkpt>
      <trkpt lat="43.60608" lon="3.39108">
        <ele>206.4</ele>
        <time>2024-07-25T06:49:24Z</time>
      </trkpt>
      <trkpt lat="43.60607" lon="3.39106">
        <ele>206.4</ele>
        <time>2024-07-25T06:49:25Z</time>
      </trkpt>
      <trkpt lat="43.60605" lon="3.39103">
        <ele>206.2</ele>
        <time>2024-07-25T06:49:26Z</time>
      </trkpt>
      <trkpt lat="43.60604" lon="3.391">
        <ele>206.3</ele>
        <time>2024-07-25T06:49:27Z</time>
      </trkpt>
      <trkpt lat="43.60603" lon="3.39097">
        <ele>206.5</ele>
        <time>2024-07-25T06:49:28Z</time>
      </trkpt>
      <trkpt lat="43.60601" lon="3.39094">
        <ele>206.2</ele>
        <time>2024-07-25T06:49:29Z</time>
      </trkpt>
      <trkpt lat="43.60601" lon="3.39092">
        <ele>206.5</ele>
        <time>2024-07-25T06:49:30Z</time>
      </trkpt>
      <trkpt lat="43.606" lon="3.39088">
        <ele>206.8</ele>
        <time>2024-07-25T06:49:31Z</time>
      </trkpt>
      <trkpt lat="43.60599" lon="3.39085">
        <ele>206.9</ele>
        <time>2024-07-25T06:49:32Z</time>
      </trkpt>
      <trkpt lat="43.60598" lon="3.39083">
        <ele>206.9</ele>
        <time>2024-07-25T06:49:33Z</time>
      </trkpt>
      <trkpt lat="43.60597" lon="3.3908">
        <ele>207</ele>
        <time>2024-07-25T06:49:34Z</time>
      </trkpt>
      <trkpt lat="43.60597" lon="3.39077">
        <ele>207.4</ele>
        <time>2024-07-25T06:49:35Z</time>
      </trkpt>
      <trkpt lat="43.60596" lon="3.39074">
        <ele>207.5</ele>
        <time>2024-07-25T06:49:36Z</time>
      </trkpt>
      <trkpt lat="43.60595" lon="3.39071">
        <ele>207.6</ele>
        <time>2024-07-25T06:49:37Z</time>
      </trkpt>
      <trkpt lat="43.60595" lon="3.39068">
        <ele>208.1</ele>
        <time>2024-07-25T06:49:38Z</time>
      </trkpt>
      <trkpt lat="43.60594" lon="3.39065">
        <ele>208.1</ele>
        <time>2024-07-25T06:49:39Z</time>
      </trkpt>
      <trkpt lat="43.60594" lon="3.39061">
        <ele>208.7</ele>
        <time>2024-07-25T06:49:40Z</time>
      </trkpt>
      <trkpt lat="43.60593" lon="3.39058">
        <ele>208.8</ele>
        <time>2024-07-25T06:49:41Z</time>
      </trkpt>
      <trkpt lat="43.60592" lon="3.39055">
        <ele>208.8</ele>
        <time>2024-07-25T06:49:42Z</time>
      </trkpt>
      <trkpt lat="43.60591" lon="3.39052">
        <ele>208.7</ele>
        <time>2024-07-25T06:49:43Z</time>
      </trkpt>
      <trkpt lat="43.60591" lon="3.39049">
        <ele>209</ele>
        <time>2024-07-25T06:49:44Z</time>
      </trkpt>
      <trkpt lat="43.60591" lon="3.39046">
        <ele>209.3</ele>
        <time>2024-07-25T06:49:45Z</time>
      </trkpt>
      <trkpt lat="43.6059" lon="3.39043">
        <ele>209.2</ele>
        <time>2024-07-25T06:49:46Z</time>
      </trkpt>
      <trkpt lat="43.6059" lon="3.39039">
        <ele>209.7</ele>
        <time>2024-07-25T06:49:47Z</time>
      </trkpt>
      <trkpt lat="43.6059" lon="3.39036">
        <ele>210</ele>
        <time>2024-07-25T06:49:48Z</time>
      </trkpt>
      <trkpt lat="43.60589" lon="3.39033">
        <ele>209.9</ele>
        <time>2024-07-25T06:49:49Z</time>
      </trkpt>
      <trkpt lat="43.60589" lon="3.3903">
        <ele>210.2</ele>
        <time>2024-07-25T06:49:50Z</time>
      </trkpt>
      <trkpt lat="43.60589" lon="3.39027">
        <ele>210.5</ele>
        <time>2024-07-25T06:49:51Z</time>
      </trkpt>
      <trkpt lat="43.60589" lon="3.39024">
        <ele>210.9</ele>
        <time>2024-07-25T06:49:52Z</time>
      </trkpt>
      <trkpt lat="43.60588" lon="3.39021">
        <ele>210.7</ele>
        <time>2024-07-25T06:49:53Z</time>
      </trkpt>
      <trkpt lat="43.60588" lon="3.39018">
        <ele>211.1</ele>
        <time>2024-07-25T06:49:54Z</time>
      </trkpt>
      <trkpt lat="43.60588" lon="3.39015">
        <ele>211.4</ele>
        <time>2024-07-25T06:49:55Z</time>
      </trkpt>
      <trkpt lat="43.60588" lon="3.39012">
        <ele>211.7</ele>
        <time>2024-07-25T06:49:56Z</time>
      </trkpt>
      <trkpt lat="43.60588" lon="3.39009">
        <ele>212</ele>
        <time>2024-07-25T06:49:57Z</time>
      </trkpt>
      <trkpt lat="43.60587" lon="3.39006">
        <ele>211.9</ele>
        <time>2024-07-25T06:49:58Z</time>
      </trkpt>
      <trkpt lat="43.60587" lon="3.39003">
        <ele>212.3</ele>
        <time>2024-07-25T06:49:59Z</time>
      </trkpt>
      <trkpt lat="43.60587" lon="3.39">
        <ele>212.6</ele>
        <time>2024-07-25T06:50:00Z</time>
      </trkpt>
      <trkpt lat="43.60586" lon="3.38997">
        <ele>212.4</ele>
        <time>2024-07-25T06:50:01Z</time>
      </trkpt>
      <trkpt lat="43.60586" lon="3.38994">
        <ele>212.6</ele>
        <time>2024-07-25T06:50:02Z</time>
      </trkpt>
      <trkpt lat="43.60586" lon="3.3899">
        <ele>212.9</ele>
        <time>2024-07-25T06:50:03Z</time>
      </trkpt>
      <trkpt lat="43.60585" lon="3.38987">
        <ele>212.7</ele>
        <time>2024-07-25T06:50:04Z</time>
      </trkpt>
      <trkpt lat="43.60585" lon="3.38984">
        <ele>212.9</ele>
        <time>2024-07-25T06:50:05Z</time>
      </trkpt>
      <trkpt lat="43.60585" lon="3.3898">
        <ele>213.2</ele>
        <time>2024-07-25T06:50:06Z</time>
      </trkpt>
      <trkpt lat="43.60585" lon="3.38978">
        <ele>213.4</ele>
        <time>2024-07-25T06:50:07Z</time>
      </trkpt>
      <trkpt lat="43.60584" lon="3.38975">
        <ele>213.1</ele>
        <time>2024-07-25T06:50:08Z</time>
      </trkpt>
      <trkpt lat="43.60584" lon="3.38971">
        <ele>213.4</ele>
        <time>2024-07-25T06:50:09Z</time>
      </trkpt>
      <trkpt lat="43.60584" lon="3.38968">
        <ele>213.8</ele>
        <time>2024-07-25T06:50:10Z</time>
      </trkpt>
      <trkpt lat="43.60583" lon="3.38965">
        <ele>213.7</ele>
        <time>2024-07-25T06:50:11Z</time>
      </trkpt>
      <trkpt lat="43.60583" lon="3.38961">
        <ele>214.1</ele>
        <time>2024-07-25T06:50:12Z</time>
      </trkpt>
      <trkpt lat="43.60583" lon="3.38958">
        <ele>214.4</ele>
        <time>2024-07-25T06:50:13Z</time>
      </trkpt>
      <trkpt lat="43.60583" lon="3.38955">
        <ele>214.7</ele>
        <time>2024-07-25T06:50:14Z</time>
      </trkpt>
      <trkpt lat="43.60583" lon="3.38952">
        <ele>215</ele>
        <time>2024-07-25T06:50:15Z</time>
      </trkpt>
      <trkpt lat="43.60582" lon="3.38949">
        <ele>214.9</ele>
        <time>2024-07-25T06:50:16Z</time>
      </trkpt>
      <trkpt lat="43.60582" lon="3.38946">
        <ele>215.3</ele>
        <time>2024-07-25T06:50:17Z</time>
      </trkpt>
      <trkpt lat="43.60582" lon="3.38943">
        <ele>215.5</ele>
        <time>2024-07-25T06:50:18Z</time>
      </trkpt>
      <trkpt lat="43.60582" lon="3.3894">
        <ele>215.6</ele>
        <time>2024-07-25T06:50:19Z</time>
      </trkpt>
      <trkpt lat="43.60582" lon="3.38937">
        <ele>215.7</ele>
        <time>2024-07-25T06:50:20Z</time>
      </trkpt>
      <trkpt lat="43.60582" lon="3.38934">
        <ele>215.8</ele>
        <time>2024-07-25T06:50:21Z</time>
      </trkpt>
      <trkpt lat="43.60582" lon="3.38931">
        <ele>215.9</ele>
        <time>2024-07-25T06:50:22Z</time>
      </trkpt>
      <trkpt lat="43.60583" lon="3.38928">
        <ele>216.4</ele>
        <time>2024-07-25T06:50:23Z</time>
      </trkpt>
      <trkpt lat="43.60583" lon="3.38925">
        <ele>216.6</ele>
        <time>2024-07-25T06:50:24Z</time>
      </trkpt>
      <trkpt lat="43.60583" lon="3.38922">
        <ele>216.7</ele>
        <time>2024-07-25T06:50:25Z</time>
      </trkpt>
      <trkpt lat="43.60583" lon="3.38919">
        <ele>216.8</ele>
        <time>2024-07-25T06:50:26Z</time>
      </trkpt>
      <trkpt lat="43.60583" lon="3.38916">
        <ele>216.9</ele>
        <time>2024-07-25T06:50:27Z</time>
      </trkpt>
      <trkpt lat="43.60583" lon="3.38913">
        <ele>217.3</ele>
        <time>2024-07-25T06:50:28Z</time>
      </trkpt>
      <trkpt lat="43.60583" lon="3.3891">
        <ele>217.6</ele>
        <time>2024-07-25T06:50:29Z</time>
      </trkpt>
      <trkpt lat="43.60583" lon="3.38907">
        <ele>217.9</ele>
        <time>2024-07-25T06:50:30Z</time>
      </trkpt>
      <trkpt lat="43.60583" lon="3.38904">
        <ele>218.2</ele>
        <time>2024-07-25T06:50:31Z</time>
      </trkpt>
      <trkpt lat="43.60582" lon="3.38901">
        <ele>218.2</ele>
        <time>2024-07-25T06:50:32Z</time>
      </trkpt>
      <trkpt lat="43.60582" lon="3.38898">
        <ele>218.5</ele>
        <time>2024-07-25T06:50:33Z</time>
      </trkpt>
      <trkpt lat="43.60581" lon="3.38895">
        <ele>218.5</ele>
        <time>2024-07-25T06:50:34Z</time>
      </trkpt>
      <trkpt lat="43.60581" lon="3.38891">
        <ele>219</ele>
        <time>2024-07-25T06:50:35Z</time>
      </trkpt>
      <trkpt lat="43.6058" lon="3.38888">
        <ele>219</ele>
        <time>2024-07-25T06:50:36Z</time>
      </trkpt>
      <trkpt lat="43.6058" lon="3.38885">
        <ele>219.4</ele>
        <time>2024-07-25T06:50:37Z</time>
      </trkpt>
      <trkpt lat="43.60579" lon="3.38881">
        <ele>219.7</ele>
        <time>2024-07-25T06:50:38Z</time>
      </trkpt>
      <trkpt lat="43.60579" lon="3.38878">
        <ele>220.1</ele>
        <time>2024-07-25T06:50:39Z</time>
      </trkpt>
      <trkpt lat="43.60579" lon="3.38875">
        <ele>220.5</ele>
        <time>2024-07-25T06:50:40Z</time>
      </trkpt>
      <trkpt lat="43.60578" lon="3.38871">
        <ele>220.8</ele>
        <time>2024-07-25T06:50:41Z</time>
      </trkpt>
      <trkpt lat="43.60577" lon="3.38868">
        <ele>221.1</ele>
        <time>2024-07-25T06:50:42Z</time>
      </trkpt>
      <trkpt lat="43.60577" lon="3.38865">
        <ele>221.5</ele>
        <time>2024-07-25T06:50:43Z</time>
      </trkpt>
      <trkpt lat="43.60576" lon="3.38861">
        <ele>222</ele>
        <time>2024-07-25T06:50:44Z</time>
      </trkpt>
      <trkpt lat="43.60574" lon="3.38858">
        <ele>222.2</ele>
        <time>2024-07-25T06:50:45Z</time>
      </trkpt>
      <trkpt lat="43.60571" lon="3.38856">
        <ele>222.1</ele>
        <time>2024-07-25T06:50:46Z</time>
      </trkpt>
      <trkpt lat="43.60568" lon="3.38855">
        <ele>221.9</ele>
        <time>2024-07-25T06:50:47Z</time>
      </trkpt>
      <trkpt lat="43.60566" lon="3.38854">
        <ele>221.8</ele>
        <time>2024-07-25T06:50:48Z</time>
      </trkpt>
      <trkpt lat="43.60563" lon="3.38854">
        <ele>221.4</ele>
        <time>2024-07-25T06:50:49Z</time>
      </trkpt>
      <trkpt lat="43.6056" lon="3.38855">
        <ele>220.7</ele>
        <time>2024-07-25T06:50:50Z</time>
      </trkpt>
      <trkpt lat="43.60557" lon="3.38855">
        <ele>220.3</ele>
        <time>2024-07-25T06:50:51Z</time>
      </trkpt>
      <trkpt lat="43.60554" lon="3.38855">
        <ele>219.9</ele>
        <time>2024-07-25T06:50:52Z</time>
      </trkpt>
      <trkpt lat="43.60551" lon="3.38855">
        <ele>219.4</ele>
        <time>2024-07-25T06:50:53Z</time>
      </trkpt>
      <trkpt lat="43.60548" lon="3.38855">
        <ele>219</ele>
        <time>2024-07-25T06:50:54Z</time>
      </trkpt>
      <trkpt lat="43.60546" lon="3.38854">
        <ele>218.8</ele>
        <time>2024-07-25T06:50:55Z</time>
      </trkpt>
      <trkpt lat="43.60543" lon="3.38853">
        <ele>218.5</ele>
        <time>2024-07-25T06:50:56Z</time>
      </trkpt>
      <trkpt lat="43.60541" lon="3.38852">
        <ele>218.4</ele>
        <time>2024-07-25T06:50:57Z</time>
      </trkpt>
      <trkpt lat="43.60538" lon="3.38851">
        <ele>218.1</ele>
        <time>2024-07-25T06:50:58Z</time>
      </trkpt>
      <trkpt lat="43.60535" lon="3.3885">
        <ele>217.7</ele>
        <time>2024-07-25T06:50:59Z</time>
      </trkpt>
      <trkpt lat="43.60533" lon="3.38849">
        <ele>217.6</ele>
        <time>2024-07-25T06:51:00Z</time>
      </trkpt>
      <trkpt lat="43.60531" lon="3.38846">
        <ele>217.7</ele>
        <time>2024-07-25T06:51:01Z</time>
      </trkpt>
      <trkpt lat="43.60528" lon="3.38845">
        <ele>217.4</ele>
        <time>2024-07-25T06:51:02Z</time>
      </trkpt>
      <trkpt lat="43.60526" lon="3.38843">
        <ele>217.4</ele>
        <time>2024-07-25T06:51:03Z</time>
      </trkpt>
      <trkpt lat="43.60524" lon="3.38841">
        <ele>217.4</ele>
        <time>2024-07-25T06:51:04Z</time>
      </trkpt>
      <trkpt lat="43.60522" lon="3.38838">
        <ele>217.5</ele>
        <time>2024-07-25T06:51:05Z</time>
      </trkpt>
      <trkpt lat="43.6052" lon="3.38836">
        <ele>217.5</ele>
        <time>2024-07-25T06:51:06Z</time>
      </trkpt>
      <trkpt lat="43.60518" lon="3.38834">
        <ele>217.5</ele>
        <time>2024-07-25T06:51:07Z</time>
      </trkpt>
      <trkpt lat="43.60517" lon="3.38831">
        <ele>217.7</ele>
        <time>2024-07-25T06:51:08Z</time>
      </trkpt>
      <trkpt lat="43.60515" lon="3.38828">
        <ele>217.7</ele>
        <time>2024-07-25T06:51:09Z</time>
      </trkpt>
      <trkpt lat="43.60514" lon="3.38824">
        <ele>218</ele>
        <time>2024-07-25T06:51:10Z</time>
      </trkpt>
      <trkpt lat="43.60513" lon="3.38821">
        <ele>218.2</ele>
        <time>2024-07-25T06:51:11Z</time>
      </trkpt>
      <trkpt lat="43.60512" lon="3.38817">
        <ele>218.5</ele>
        <time>2024-07-25T06:51:12Z</time>
      </trkpt>
      <trkpt lat="43.60512" lon="3.38813">
        <ele>218.9</ele>
        <time>2024-07-25T06:51:13Z</time>
      </trkpt>
      <trkpt lat="43.60512" lon="3.3881">
        <ele>219.2</ele>
        <time>2024-07-25T06:51:14Z</time>
      </trkpt>
      <trkpt lat="43.60511" lon="3.38807">
        <ele>219.4</ele>
        <time>2024-07-25T06:51:15Z</time>
      </trkpt>
      <trkpt lat="43.60511" lon="3.38803">
        <ele>219.8</ele>
        <time>2024-07-25T06:51:16Z</time>
      </trkpt>
      <trkpt lat="43.60511" lon="3.388">
        <ele>220.1</ele>
        <time>2024-07-25T06:51:17Z</time>
      </trkpt>
      <trkpt lat="43.60511" lon="3.38796">
        <ele>220.5</ele>
        <time>2024-07-25T06:51:18Z</time>
      </trkpt>
      <trkpt lat="43.60511" lon="3.38792">
        <ele>220.9</ele>
        <time>2024-07-25T06:51:19Z</time>
      </trkpt>
      <trkpt lat="43.60512" lon="3.38789">
        <ele>221.4</ele>
        <time>2024-07-25T06:51:20Z</time>
      </trkpt>
      <trkpt lat="43.60512" lon="3.38785">
        <ele>221.8</ele>
        <time>2024-07-25T06:51:21Z</time>
      </trkpt>
      <trkpt lat="43.60513" lon="3.38782">
        <ele>222.4</ele>
        <time>2024-07-25T06:51:22Z</time>
      </trkpt>
      <trkpt lat="43.60514" lon="3.38779">
        <ele>222.9</ele>
        <time>2024-07-25T06:51:23Z</time>
      </trkpt>
      <trkpt lat="43.60515" lon="3.38776">
        <ele>223.4</ele>
        <time>2024-07-25T06:51:24Z</time>
      </trkpt>
      <trkpt lat="43.60516" lon="3.38773">
        <ele>224</ele>
        <time>2024-07-25T06:51:25Z</time>
      </trkpt>
      <trkpt lat="43.60516" lon="3.38769">
        <ele>224.4</ele>
        <time>2024-07-25T06:51:26Z</time>
      </trkpt>
      <trkpt lat="43.60517" lon="3.38765">
        <ele>225.1</ele>
        <time>2024-07-25T06:51:27Z</time>
      </trkpt>
      <trkpt lat="43.60518" lon="3.38762">
        <ele>225.6</ele>
        <time>2024-07-25T06:51:28Z</time>
      </trkpt>
      <trkpt lat="43.60518" lon="3.38758">
        <ele>226</ele>
        <time>2024-07-25T06:51:29Z</time>
      </trkpt>
      <trkpt lat="43.60518" lon="3.38754">
        <ele>226.5</ele>
        <time>2024-07-25T06:51:30Z</time>
      </trkpt>
      <trkpt lat="43.60518" lon="3.38749">
        <ele>227</ele>
        <time>2024-07-25T06:51:31Z</time>
      </trkpt>
      <trkpt lat="43.60517" lon="3.38745">
        <ele>227.3</ele>
        <time>2024-07-25T06:51:32Z</time>
      </trkpt>
      <trkpt lat="43.60516" lon="3.3874">
        <ele>227.6</ele>
        <time>2024-07-25T06:51:33Z</time>
      </trkpt>
      <trkpt lat="43.60514" lon="3.38736">
        <ele>227.5</ele>
        <time>2024-07-25T06:51:34Z</time>
      </trkpt>
      <trkpt lat="43.60513" lon="3.38734">
        <ele>227.5</ele>
        <time>2024-07-25T06:51:35Z</time>
      </trkpt>
      <trkpt lat="43.60511" lon="3.38731">
        <ele>227.3</ele>
        <time>2024-07-25T06:51:36Z</time>
      </trkpt>
      <trkpt lat="43.60509" lon="3.38728">
        <ele>227</ele>
        <time>2024-07-25T06:51:37Z</time>
      </trkpt>
      <trkpt lat="43.60507" lon="3.38724">
        <ele>226.9</ele>
        <time>2024-07-25T06:51:38Z</time>
      </trkpt>
      <trkpt lat="43.60505" lon="3.38721">
        <ele>226.6</ele>
        <time>2024-07-25T06:51:39Z</time>
      </trkpt>
      <trkpt lat="43.60504" lon="3.38718">
        <ele>226.8</ele>
        <time>2024-07-25T06:51:40Z</time>
      </trkpt>
      <trkpt lat="43.60502" lon="3.38715">
        <ele>226.6</ele>
        <time>2024-07-25T06:51:41Z</time>
      </trkpt>
      <trkpt lat="43.605" lon="3.38712">
        <ele>226.5</ele>
        <time>2024-07-25T06:51:42Z</time>
      </trkpt>
      <trkpt lat="43.60499" lon="3.38709">
        <ele>226.7</ele>
        <time>2024-07-25T06:51:43Z</time>
      </trkpt>
      <trkpt lat="43.60498" lon="3.38705">
        <ele>227.1</ele>
        <time>2024-07-25T06:51:44Z</time>
      </trkpt>
      <trkpt lat="43.60496" lon="3.38702">
        <ele>227.2</ele>
        <time>2024-07-25T06:51:45Z</time>
      </trkpt>
      <trkpt lat="43.60494" lon="3.38698">
        <ele>227.4</ele>
        <time>2024-07-25T06:51:46Z</time>
      </trkpt>
      <trkpt lat="43.60492" lon="3.38695">
        <ele>227.5</ele>
        <time>2024-07-25T06:51:47Z</time>
      </trkpt>
      <trkpt lat="43.60491" lon="3.38692">
        <ele>227.8</ele>
        <time>2024-07-25T06:51:48Z</time>
      </trkpt>
      <trkpt lat="43.60489" lon="3.38689">
        <ele>228</ele>
        <time>2024-07-25T06:51:49Z</time>
      </trkpt>
      <trkpt lat="43.60487" lon="3.38686">
        <ele>228.1</ele>
        <time>2024-07-25T06:51:50Z</time>
      </trkpt>
      <trkpt lat="43.60485" lon="3.38683">
        <ele>228.1</ele>
        <time>2024-07-25T06:51:51Z</time>
      </trkpt>
      <trkpt lat="43.60483" lon="3.38679">
        <ele>228.3</ele>
        <time>2024-07-25T06:51:52Z</time>
      </trkpt>
      <trkpt lat="43.60482" lon="3.38676">
        <ele>228.5</ele>
        <time>2024-07-25T06:51:53Z</time>
      </trkpt>
      <trkpt lat="43.6048" lon="3.38673">
        <ele>228.4</ele>
        <time>2024-07-25T06:51:54Z</time>
      </trkpt>
      <trkpt lat="43.60478" lon="3.38669">
        <ele>228.4</ele>
        <time>2024-07-25T06:51:55Z</time>
      </trkpt>
      <trkpt lat="43.60477" lon="3.38665">
        <ele>228.6</ele>
        <time>2024-07-25T06:51:56Z</time>
      </trkpt>
      <trkpt lat="43.60475" lon="3.38662">
        <ele>228.5</ele>
        <time>2024-07-25T06:51:57Z</time>
      </trkpt>
      <trkpt lat="43.60473" lon="3.38659">
        <ele>228.3</ele>
        <time>2024-07-25T06:51:58Z</time>
      </trkpt>
      <trkpt lat="43.60471" lon="3.38655">
        <ele>228.4</ele>
        <time>2024-07-25T06:51:59Z</time>
      </trkpt>
      <trkpt lat="43.60469" lon="3.38651">
        <ele>228.6</ele>
        <time>2024-07-25T06:52:00Z</time>
      </trkpt>
      <trkpt lat="43.60468" lon="3.38648">
        <ele>228.8</ele>
        <time>2024-07-25T06:52:01Z</time>
      </trkpt>
      <trkpt lat="43.60466" lon="3.38644">
        <ele>228.9</ele>
        <time>2024-07-25T06:52:02Z</time>
      </trkpt>
      <trkpt lat="43.60464" lon="3.38641">
        <ele>228.9</ele>
        <time>2024-07-25T06:52:03Z</time>
      </trkpt>
      <trkpt lat="43.60462" lon="3.38638">
        <ele>229</ele>
        <time>2024-07-25T06:52:04Z</time>
      </trkpt>
      <trkpt lat="43.6046" lon="3.38634">
        <ele>229.3</ele>
        <time>2024-07-25T06:52:05Z</time>
      </trkpt>
      <trkpt lat="43.60458" lon="3.38631">
        <ele>229.3</ele>
        <time>2024-07-25T06:52:06Z</time>
      </trkpt>
      <trkpt lat="43.60457" lon="3.38627">
        <ele>229.8</ele>
        <time>2024-07-25T06:52:07Z</time>
      </trkpt>
      <trkpt lat="43.60455" lon="3.38624">
        <ele>229.7</ele>
        <time>2024-07-25T06:52:08Z</time>
      </trkpt>
      <trkpt lat="43.60453" lon="3.38621">
        <ele>229.6</ele>
        <time>2024-07-25T06:52:09Z</time>
      </trkpt>
      <trkpt lat="43.60452" lon="3.38617">
        <ele>229.9</ele>
        <time>2024-07-25T06:52:10Z</time>
      </trkpt>
      <trkpt lat="43.6045" lon="3.38613">
        <ele>229.7</ele>
        <time>2024-07-25T06:52:11Z</time>
      </trkpt>
      <trkpt lat="43.60448" lon="3.38609">
        <ele>229.6</ele>
        <time>2024-07-25T06:52:12Z</time>
      </trkpt>
      <trkpt lat="43.60447" lon="3.38605">
        <ele>229.8</ele>
        <time>2024-07-25T06:52:13Z</time>
      </trkpt>
      <trkpt lat="43.60445" lon="3.38602">
        <ele>229.5</ele>
        <time>2024-07-25T06:52:14Z</time>
      </trkpt>
      <trkpt lat="43.60443" lon="3.38598">
        <ele>229.4</ele>
        <time>2024-07-25T06:52:15Z</time>
      </trkpt>
      <trkpt lat="43.60441" lon="3.38594">
        <ele>229.4</ele>
        <time>2024-07-25T06:52:16Z</time>
      </trkpt>
      <trkpt lat="43.60439" lon="3.3859">
        <ele>229.3</ele>
        <time>2024-07-25T06:52:17Z</time>
      </trkpt>
      <trkpt lat="43.60437" lon="3.38586">
        <ele>229.2</ele>
        <time>2024-07-25T06:52:18Z</time>
      </trkpt>
      <trkpt lat="43.60435" lon="3.38582">
        <ele>229.2</ele>
        <time>2024-07-25T06:52:19Z</time>
      </trkpt>
      <trkpt lat="43.60434" lon="3.38577">
        <ele>229.8</ele>
        <time>2024-07-25T06:52:20Z</time>
      </trkpt>
      <trkpt lat="43.60432" lon="3.38573">
        <ele>229.9</ele>
        <time>2024-07-25T06:52:21Z</time>
      </trkpt>
      <trkpt lat="43.60431" lon="3.38569">
        <ele>230.2</ele>
        <time>2024-07-25T06:52:22Z</time>
      </trkpt>
      <trkpt lat="43.6043" lon="3.38565">
        <ele>230.6</ele>
        <time>2024-07-25T06:52:23Z</time>
      </trkpt>
      <trkpt lat="43.60429" lon="3.38561">
        <ele>230.9</ele>
        <time>2024-07-25T06:52:24Z</time>
      </trkpt>
      <trkpt lat="43.60427" lon="3.38557">
        <ele>230.8</ele>
        <time>2024-07-25T06:52:25Z</time>
      </trkpt>
      <trkpt lat="43.60426" lon="3.38552">
        <ele>231.2</ele>
        <time>2024-07-25T06:52:26Z</time>
      </trkpt>
      <trkpt lat="43.60425" lon="3.38548">
        <ele>231.4</ele>
        <time>2024-07-25T06:52:27Z</time>
      </trkpt>
      <trkpt lat="43.60424" lon="3.38544">
        <ele>231.6</ele>
        <time>2024-07-25T06:52:28Z</time>
      </trkpt>
      <trkpt lat="43.60423" lon="3.3854">
        <ele>231.7</ele>
        <time>2024-07-25T06:52:29Z</time>
      </trkpt>
      <trkpt lat="43.60422" lon="3.38536">
        <ele>231.9</ele>
        <time>2024-07-25T06:52:30Z</time>
      </trkpt>
      <trkpt lat="43.6042" lon="3.38532">
        <ele>231.7</ele>
        <time>2024-07-25T06:52:31Z</time>
      </trkpt>
      <trkpt lat="43.60419" lon="3.38529">
        <ele>231.7</ele>
        <time>2024-07-25T06:52:32Z</time>
      </trkpt>
      <trkpt lat="43.60418" lon="3.38525">
        <ele>231.8</ele>
        <time>2024-07-25T06:52:33Z</time>
      </trkpt>
      <trkpt lat="43.60417" lon="3.3852">
        <ele>232</ele>
        <time>2024-07-25T06:52:34Z</time>
      </trkpt>
      <trkpt lat="43.60416" lon="3.38516">
        <ele>232</ele>
        <time>2024-07-25T06:52:35Z</time>
      </trkpt>
      <trkpt lat="43.60415" lon="3.38512">
        <ele>232</ele>
        <time>2024-07-25T06:52:36Z</time>
      </trkpt>
      <trkpt lat="43.60414" lon="3.38508">
        <ele>232.1</ele>
        <time>2024-07-25T06:52:37Z</time>
      </trkpt>
      <trkpt lat="43.60412" lon="3.38504">
        <ele>231.7</ele>
        <time>2024-07-25T06:52:38Z</time>
      </trkpt>
      <trkpt lat="43.60411" lon="3.385">
        <ele>231.8</ele>
        <time>2024-07-25T06:52:39Z</time>
      </trkpt>
      <trkpt lat="43.6041" lon="3.38496">
        <ele>231.9</ele>
        <time>2024-07-25T06:52:40Z</time>
      </trkpt>
      <trkpt lat="43.60409" lon="3.38492">
        <ele>232.1</ele>
        <time>2024-07-25T06:52:41Z</time>
      </trkpt>
      <trkpt lat="43.60408" lon="3.38487">
        <ele>232.4</ele>
        <time>2024-07-25T06:52:42Z</time>
      </trkpt>
      <trkpt lat="43.60407" lon="3.38483">
        <ele>232.6</ele>
        <time>2024-07-25T06:52:43Z</time>
      </trkpt>
      <trkpt lat="43.60406" lon="3.38479">
        <ele>232.8</ele>
        <time>2024-07-25T06:52:44Z</time>
      </trkpt>
      <trkpt lat="43.60405" lon="3.38475">
        <ele>233</ele>
        <time>2024-07-25T06:52:45Z</time>
      </trkpt>
      <trkpt lat="43.60404" lon="3.3847">
        <ele>233.1</ele>
        <time>2024-07-25T06:52:46Z</time>
      </trkpt>
      <trkpt lat="43.60403" lon="3.38465">
        <ele>233.1</ele>
        <time>2024-07-25T06:52:47Z</time>
      </trkpt>
      <trkpt lat="43.60402" lon="3.3846">
        <ele>233.1</ele>
        <time>2024-07-25T06:52:48Z</time>
      </trkpt>
      <trkpt lat="43.60401" lon="3.38456">
        <ele>233</ele>
        <time>2024-07-25T06:52:49Z</time>
      </trkpt>
      <trkpt lat="43.604" lon="3.38452">
        <ele>232.9</ele>
        <time>2024-07-25T06:52:50Z</time>
      </trkpt>
      <trkpt lat="43.604" lon="3.38447">
        <ele>233.2</ele>
        <time>2024-07-25T06:52:51Z</time>
      </trkpt>
      <trkpt lat="43.60399" lon="3.38442">
        <ele>233.2</ele>
        <time>2024-07-25T06:52:52Z</time>
      </trkpt>
      <trkpt lat="43.60398" lon="3.38437">
        <ele>233.2</ele>
        <time>2024-07-25T06:52:53Z</time>
      </trkpt>
      <trkpt lat="43.60398" lon="3.38432">
        <ele>233.7</ele>
        <time>2024-07-25T06:52:54Z</time>
      </trkpt>
      <trkpt lat="43.60397" lon="3.38428">
        <ele>233.6</ele>
        <time>2024-07-25T06:52:55Z</time>
      </trkpt>
      <trkpt lat="43.60396" lon="3.38423">
        <ele>233.6</ele>
        <time>2024-07-25T06:52:56Z</time>
      </trkpt>
      <trkpt lat="43.60395" lon="3.38418">
        <ele>233.5</ele>
        <time>2024-07-25T06:52:57Z</time>
      </trkpt>
      <trkpt lat="43.60394" lon="3.38414">
        <ele>233.4</ele>
        <time>2024-07-25T06:52:58Z</time>
      </trkpt>
      <trkpt lat="43.60394" lon="3.3841">
        <ele>233.7</ele>
        <time>2024-07-25T06:52:59Z</time>
      </trkpt>
      <trkpt lat="43.60393" lon="3.38405">
        <ele>233.7</ele>
        <time>2024-07-25T06:53:00Z</time>
      </trkpt>
      <trkpt lat="43.60392" lon="3.38401">
        <ele>233.5</ele>
        <time>2024-07-25T06:53:01Z</time>
      </trkpt>
      <trkpt lat="43.60391" lon="3.38396">
        <ele>233.5</ele>
        <time>2024-07-25T06:53:02Z</time>
      </trkpt>
      <trkpt lat="43.6039" lon="3.38392">
        <ele>233.3</ele>
        <time>2024-07-25T06:53:03Z</time>
      </trkpt>
      <trkpt lat="43.60389" lon="3.38387">
        <ele>233.2</ele>
        <time>2024-07-25T06:53:04Z</time>
      </trkpt>
      <trkpt lat="43.60388" lon="3.38383">
        <ele>233.1</ele>
        <time>2024-07-25T06:53:05Z</time>
      </trkpt>
      <trkpt lat="43.60388" lon="3.38378">
        <ele>233.5</ele>
        <time>2024-07-25T06:53:06Z</time>
      </trkpt>
      <trkpt lat="43.60387" lon="3.38373">
        <ele>233.4</ele>
        <time>2024-07-25T06:53:07Z</time>
      </trkpt>
      <trkpt lat="43.60386" lon="3.38368">
        <ele>233.4</ele>
        <time>2024-07-25T06:53:08Z</time>
      </trkpt>
      <trkpt lat="43.60386" lon="3.38363">
        <ele>233.7</ele>
        <time>2024-07-25T06:53:09Z</time>
      </trkpt>
      <trkpt lat="43.60386" lon="3.38359">
        <ele>233.9</ele>
        <time>2024-07-25T06:53:10Z</time>
      </trkpt>
      <trkpt lat="43.60385" lon="3.38355">
        <ele>233.7</ele>
        <time>2024-07-25T06:53:11Z</time>
      </trkpt>
      <trkpt lat="43.60385" lon="3.38351">
        <ele>233.8</ele>
        <time>2024-07-25T06:53:12Z</time>
      </trkpt>
      <trkpt lat="43.60384" lon="3.38346">
        <ele>233.6</ele>
        <time>2024-07-25T06:53:13Z</time>
      </trkpt>
      <trkpt lat="43.60384" lon="3.38342">
        <ele>233.8</ele>
        <time>2024-07-25T06:53:14Z</time>
      </trkpt>
      <trkpt lat="43.60384" lon="3.38337">
        <ele>233.9</ele>
        <time>2024-07-25T06:53:15Z</time>
      </trkpt>
      <trkpt lat="43.60383" lon="3.38333">
        <ele>233.7</ele>
        <time>2024-07-25T06:53:16Z</time>
      </trkpt>
      <trkpt lat="43.60383" lon="3.38329">
        <ele>233.9</ele>
        <time>2024-07-25T06:53:17Z</time>
      </trkpt>
      <trkpt lat="43.60383" lon="3.38325">
        <ele>234.2</ele>
        <time>2024-07-25T06:53:18Z</time>
      </trkpt>
      <trkpt lat="43.60383" lon="3.38321">
        <ele>234.5</ele>
        <time>2024-07-25T06:53:19Z</time>
      </trkpt>
      <trkpt lat="43.60383" lon="3.38316">
        <ele>234.8</ele>
        <time>2024-07-25T06:53:20Z</time>
      </trkpt>
      <trkpt lat="43.60383" lon="3.38312">
        <ele>235</ele>
        <time>2024-07-25T06:53:21Z</time>
      </trkpt>
      <trkpt lat="43.60384" lon="3.38308">
        <ele>235.7</ele>
        <time>2024-07-25T06:53:22Z</time>
      </trkpt>
      <trkpt lat="43.60383" lon="3.38304">
        <ele>235.5</ele>
        <time>2024-07-25T06:53:23Z</time>
      </trkpt>
      <trkpt lat="43.60383" lon="3.383">
        <ele>235.5</ele>
        <time>2024-07-25T06:53:24Z</time>
      </trkpt>
      <trkpt lat="43.60383" lon="3.38296">
        <ele>235.5</ele>
        <time>2024-07-25T06:53:25Z</time>
      </trkpt>
      <trkpt lat="43.60383" lon="3.38291">
        <ele>235.5</ele>
        <time>2024-07-25T06:53:26Z</time>
      </trkpt>
      <trkpt lat="43.60383" lon="3.38286">
        <ele>235.5</ele>
        <time>2024-07-25T06:53:27Z</time>
      </trkpt>
      <trkpt lat="43.60383" lon="3.38281">
        <ele>235.5</ele>
        <time>2024-07-25T06:53:28Z</time>
      </trkpt>
      <trkpt lat="43.60382" lon="3.38277">
        <ele>235.1</ele>
        <time>2024-07-25T06:53:29Z</time>
      </trkpt>
      <trkpt lat="43.60382" lon="3.38272">
        <ele>235.3</ele>
        <time>2024-07-25T06:53:30Z</time>
      </trkpt>
      <trkpt lat="43.60382" lon="3.38268">
        <ele>235.5</ele>
        <time>2024-07-25T06:53:31Z</time>
      </trkpt>
      <trkpt lat="43.60382" lon="3.38263">
        <ele>235.7</ele>
        <time>2024-07-25T06:53:32Z</time>
      </trkpt>
      <trkpt lat="43.60382" lon="3.38258">
        <ele>235.9</ele>
        <time>2024-07-25T06:53:33Z</time>
      </trkpt>
      <trkpt lat="43.60382" lon="3.38254">
        <ele>236.1</ele>
        <time>2024-07-25T06:53:34Z</time>
      </trkpt>
      <trkpt lat="43.60381" lon="3.3825">
        <ele>235.9</ele>
        <time>2024-07-25T06:53:35Z</time>
      </trkpt>
      <trkpt lat="43.60381" lon="3.38245">
        <ele>236.2</ele>
        <time>2024-07-25T06:53:36Z</time>
      </trkpt>
      <trkpt lat="43.60381" lon="3.38241">
        <ele>236.5</ele>
        <time>2024-07-25T06:53:37Z</time>
      </trkpt>
      <trkpt lat="43.6038" lon="3.38236">
        <ele>236.5</ele>
        <time>2024-07-25T06:53:38Z</time>
      </trkpt>
      <trkpt lat="43.6038" lon="3.38232">
        <ele>236.8</ele>
        <time>2024-07-25T06:53:39Z</time>
      </trkpt>
      <trkpt lat="43.6038" lon="3.38228">
        <ele>237.1</ele>
        <time>2024-07-25T06:53:40Z</time>
      </trkpt>
      <trkpt lat="43.60379" lon="3.38224">
        <ele>237</ele>
        <time>2024-07-25T06:53:41Z</time>
      </trkpt>
      <trkpt lat="43.60379" lon="3.38219">
        <ele>237.3</ele>
        <time>2024-07-25T06:53:42Z</time>
      </trkpt>
      <trkpt lat="43.60379" lon="3.38215">
        <ele>237.5</ele>
        <time>2024-07-25T06:53:43Z</time>
      </trkpt>
      <trkpt lat="43.60378" lon="3.38211">
        <ele>237.3</ele>
        <time>2024-07-25T06:53:44Z</time>
      </trkpt>
      <trkpt lat="43.60378" lon="3.38206">
        <ele>237.6</ele>
        <time>2024-07-25T06:53:45Z</time>
      </trkpt>
      <trkpt lat="43.60378" lon="3.38202">
        <ele>237.9</ele>
        <time>2024-07-25T06:53:46Z</time>
      </trkpt>
      <trkpt lat="43.60377" lon="3.38198">
        <ele>237.7</ele>
        <time>2024-07-25T06:53:47Z</time>
      </trkpt>
      <trkpt lat="43.60377" lon="3.38194">
        <ele>237.9</ele>
        <time>2024-07-25T06:53:48Z</time>
      </trkpt>
      <trkpt lat="43.60377" lon="3.38189">
        <ele>238.3</ele>
        <time>2024-07-25T06:53:49Z</time>
      </trkpt>
      <trkpt lat="43.60377" lon="3.38184">
        <ele>238.6</ele>
        <time>2024-07-25T06:53:50Z</time>
      </trkpt>
      <trkpt lat="43.60376" lon="3.3818">
        <ele>238.5</ele>
        <time>2024-07-25T06:53:51Z</time>
      </trkpt>
      <trkpt lat="43.60376" lon="3.38175">
        <ele>238.8</ele>
        <time>2024-07-25T06:53:52Z</time>
      </trkpt>
      <trkpt lat="43.60376" lon="3.38171">
        <ele>239.1</ele>
        <time>2024-07-25T06:53:53Z</time>
      </trkpt>
      <trkpt lat="43.60375" lon="3.38166">
        <ele>239</ele>
        <time>2024-07-25T06:53:54Z</time>
      </trkpt>
      <trkpt lat="43.60375" lon="3.38162">
        <ele>239.2</ele>
        <time>2024-07-25T06:53:55Z</time>
      </trkpt>
      <trkpt lat="43.60375" lon="3.38158">
        <ele>239.3</ele>
        <time>2024-07-25T06:53:56Z</time>
      </trkpt>
      <trkpt lat="43.60375" lon="3.38154">
        <ele>239.5</ele>
        <time>2024-07-25T06:53:57Z</time>
      </trkpt>
      <trkpt lat="43.60374" lon="3.38149">
        <ele>239.2</ele>
        <time>2024-07-25T06:53:58Z</time>
      </trkpt>
      <trkpt lat="43.60374" lon="3.38145">
        <ele>239.3</ele>
        <time>2024-07-25T06:53:59Z</time>
      </trkpt>
      <trkpt lat="43.60374" lon="3.3814">
        <ele>239.5</ele>
        <time>2024-07-25T06:54:00Z</time>
      </trkpt>
      <trkpt lat="43.60374" lon="3.38136">
        <ele>239.6</ele>
        <time>2024-07-25T06:54:01Z</time>
      </trkpt>
      <trkpt lat="43.60373" lon="3.38131">
        <ele>239.3</ele>
        <time>2024-07-25T06:54:02Z</time>
      </trkpt>
      <trkpt lat="43.60373" lon="3.38127">
        <ele>239.3</ele>
        <time>2024-07-25T06:54:03Z</time>
      </trkpt>
      <trkpt lat="43.60373" lon="3.38123">
        <ele>239.4</ele>
        <time>2024-07-25T06:54:04Z</time>
      </trkpt>
      <trkpt lat="43.60372" lon="3.38119">
        <ele>239</ele>
        <time>2024-07-25T06:54:05Z</time>
      </trkpt>
      <trkpt lat="43.60372" lon="3.38115">
        <ele>239</ele>
        <time>2024-07-25T06:54:06Z</time>
      </trkpt>
      <trkpt lat="43.60372" lon="3.3811">
        <ele>239.1</ele>
        <time>2024-07-25T06:54:07Z</time>
      </trkpt>
      <trkpt lat="43.60372" lon="3.38106">
        <ele>239.3</ele>
        <time>2024-07-25T06:54:08Z</time>
      </trkpt>
      <trkpt lat="43.60372" lon="3.38102">
        <ele>239.4</ele>
        <time>2024-07-25T06:54:09Z</time>
      </trkpt>
      <trkpt lat="43.60371" lon="3.38097">
        <ele>239.1</ele>
        <time>2024-07-25T06:54:10Z</time>
      </trkpt>
      <trkpt lat="43.60371" lon="3.38093">
        <ele>239.3</ele>
        <time>2024-07-25T06:54:11Z</time>
      </trkpt>
      <trkpt lat="43.6037" lon="3.38089">
        <ele>239</ele>
        <time>2024-07-25T06:54:12Z</time>
      </trkpt>
      <trkpt lat="43.6037" lon="3.38084">
        <ele>239.1</ele>
        <time>2024-07-25T06:54:13Z</time>
      </trkpt>
      <trkpt lat="43.60369" lon="3.38079">
        <ele>239.1</ele>
        <time>2024-07-25T06:54:14Z</time>
      </trkpt>
      <trkpt lat="43.60369" lon="3.38074">
        <ele>239.6</ele>
        <time>2024-07-25T06:54:15Z</time>
      </trkpt>
      <trkpt lat="43.60369" lon="3.3807">
        <ele>240</ele>
        <time>2024-07-25T06:54:16Z</time>
      </trkpt>
      <trkpt lat="43.60369" lon="3.38065">
        <ele>240.5</ele>
        <time>2024-07-25T06:54:17Z</time>
      </trkpt>
      <trkpt lat="43.60368" lon="3.38061">
        <ele>240.4</ele>
        <time>2024-07-25T06:54:18Z</time>
      </trkpt>
      <trkpt lat="43.60368" lon="3.38056">
        <ele>240.9</ele>
        <time>2024-07-25T06:54:19Z</time>
      </trkpt>
      <trkpt lat="43.60368" lon="3.38052">
        <ele>241.2</ele>
        <time>2024-07-25T06:54:20Z</time>
      </trkpt>
      <trkpt lat="43.60367" lon="3.38047">
        <ele>241.2</ele>
        <time>2024-07-25T06:54:21Z</time>
      </trkpt>
      <trkpt lat="43.60366" lon="3.38043">
        <ele>241</ele>
        <time>2024-07-25T06:54:22Z</time>
      </trkpt>
      <trkpt lat="43.60366" lon="3.38038">
        <ele>241.4</ele>
        <time>2024-07-25T06:54:23Z</time>
      </trkpt>
      <trkpt lat="43.60365" lon="3.38034">
        <ele>241.2</ele>
        <time>2024-07-25T06:54:24Z</time>
      </trkpt>
      <trkpt lat="43.60365" lon="3.38029">
        <ele>241.6</ele>
        <time>2024-07-25T06:54:25Z</time>
      </trkpt>
      <trkpt lat="43.60364" lon="3.38025">
        <ele>241.4</ele>
        <time>2024-07-25T06:54:26Z</time>
      </trkpt>
      <trkpt lat="43.60364" lon="3.38021">
        <ele>241.5</ele>
        <time>2024-07-25T06:54:27Z</time>
      </trkpt>
      <trkpt lat="43.60364" lon="3.38016">
        <ele>241.8</ele>
        <time>2024-07-25T06:54:28Z</time>
      </trkpt>
      <trkpt lat="43.60363" lon="3.38012">
        <ele>241.5</ele>
        <time>2024-07-25T06:54:29Z</time>
      </trkpt>
      <trkpt lat="43.60362" lon="3.38008">
        <ele>241.1</ele>
        <time>2024-07-25T06:54:30Z</time>
      </trkpt>
      <trkpt lat="43.60362" lon="3.38003">
        <ele>241.3</ele>
        <time>2024-07-25T06:54:31Z</time>
      </trkpt>
      <trkpt lat="43.60362" lon="3.37999">
        <ele>241.6</ele>
        <time>2024-07-25T06:54:32Z</time>
      </trkpt>
      <trkpt lat="43.60361" lon="3.37995">
        <ele>241.5</ele>
        <time>2024-07-25T06:54:33Z</time>
      </trkpt>
      <trkpt lat="43.60361" lon="3.3799">
        <ele>242</ele>
        <time>2024-07-25T06:54:34Z</time>
      </trkpt>
      <trkpt lat="43.6036" lon="3.37986">
        <ele>242.1</ele>
        <time>2024-07-25T06:54:35Z</time>
      </trkpt>
      <trkpt lat="43.6036" lon="3.37982">
        <ele>242.5</ele>
        <time>2024-07-25T06:54:36Z</time>
      </trkpt>
      <trkpt lat="43.60359" lon="3.37978">
        <ele>242.5</ele>
        <time>2024-07-25T06:54:37Z</time>
      </trkpt>
      <trkpt lat="43.60359" lon="3.37974">
        <ele>242.9</ele>
        <time>2024-07-25T06:54:38Z</time>
      </trkpt>
      <trkpt lat="43.60358" lon="3.3797">
        <ele>242.8</ele>
        <time>2024-07-25T06:54:39Z</time>
      </trkpt>
      <trkpt lat="43.60358" lon="3.37965">
        <ele>243.2</ele>
        <time>2024-07-25T06:54:40Z</time>
      </trkpt>
      <trkpt lat="43.60358" lon="3.37961">
        <ele>243.5</ele>
        <time>2024-07-25T06:54:41Z</time>
      </trkpt>
      <trkpt lat="43.60358" lon="3.37956">
        <ele>243.8</ele>
        <time>2024-07-25T06:54:42Z</time>
      </trkpt>
      <trkpt lat="43.60358" lon="3.37952">
        <ele>244.1</ele>
        <time>2024-07-25T06:54:43Z</time>
      </trkpt>
      <trkpt lat="43.60357" lon="3.37948">
        <ele>244</ele>
        <time>2024-07-25T06:54:44Z</time>
      </trkpt>
      <trkpt lat="43.60357" lon="3.37944">
        <ele>244.3</ele>
        <time>2024-07-25T06:54:45Z</time>
      </trkpt>
      <trkpt lat="43.60357" lon="3.3794">
        <ele>244.5</ele>
        <time>2024-07-25T06:54:46Z</time>
      </trkpt>
      <trkpt lat="43.60357" lon="3.37936">
        <ele>244.8</ele>
        <time>2024-07-25T06:54:47Z</time>
      </trkpt>
      <trkpt lat="43.60357" lon="3.37931">
        <ele>245.1</ele>
        <time>2024-07-25T06:54:48Z</time>
      </trkpt>
      <trkpt lat="43.60356" lon="3.37927">
        <ele>244.9</ele>
        <time>2024-07-25T06:54:49Z</time>
      </trkpt>
      <trkpt lat="43.60356" lon="3.37923">
        <ele>245.2</ele>
        <time>2024-07-25T06:54:50Z</time>
      </trkpt>
      <trkpt lat="43.60356" lon="3.37919">
        <ele>245.5</ele>
        <time>2024-07-25T06:54:51Z</time>
      </trkpt>
      <trkpt lat="43.60355" lon="3.37915">
        <ele>245.2</ele>
        <time>2024-07-25T06:54:52Z</time>
      </trkpt>
      <trkpt lat="43.60355" lon="3.37911">
        <ele>245.3</ele>
        <time>2024-07-25T06:54:53Z</time>
      </trkpt>
      <trkpt lat="43.60355" lon="3.37907">
        <ele>245.5</ele>
        <time>2024-07-25T06:54:54Z</time>
      </trkpt>
      <trkpt lat="43.60355" lon="3.37903">
        <ele>245.6</ele>
        <time>2024-07-25T06:54:55Z</time>
      </trkpt>
      <trkpt lat="43.60355" lon="3.37899">
        <ele>245.8</ele>
        <time>2024-07-25T06:54:56Z</time>
      </trkpt>
      <trkpt lat="43.60354" lon="3.37895">
        <ele>245.5</ele>
        <time>2024-07-25T06:54:57Z</time>
      </trkpt>
      <trkpt lat="43.60354" lon="3.37892">
        <ele>245.6</ele>
        <time>2024-07-25T06:54:58Z</time>
      </trkpt>
      <trkpt lat="43.60354" lon="3.37888">
        <ele>245.8</ele>
        <time>2024-07-25T06:54:59Z</time>
      </trkpt>
      <trkpt lat="43.60353" lon="3.37884">
        <ele>245.7</ele>
        <time>2024-07-25T06:55:00Z</time>
      </trkpt>
      <trkpt lat="43.60353" lon="3.3788">
        <ele>246.2</ele>
        <time>2024-07-25T06:55:01Z</time>
      </trkpt>
      <trkpt lat="43.60353" lon="3.37876">
        <ele>246.6</ele>
        <time>2024-07-25T06:55:02Z</time>
      </trkpt>
      <trkpt lat="43.60352" lon="3.37872">
        <ele>246.6</ele>
        <time>2024-07-25T06:55:03Z</time>
      </trkpt>
      <trkpt lat="43.60352" lon="3.37867">
        <ele>247.1</ele>
        <time>2024-07-25T06:55:04Z</time>
      </trkpt>
      <trkpt lat="43.60351" lon="3.37863">
        <ele>247.1</ele>
        <time>2024-07-25T06:55:05Z</time>
      </trkpt>
      <trkpt lat="43.60351" lon="3.37859">
        <ele>247.4</ele>
        <time>2024-07-25T06:55:06Z</time>
      </trkpt>
      <trkpt lat="43.60351" lon="3.37855">
        <ele>247.8</ele>
        <time>2024-07-25T06:55:07Z</time>
      </trkpt>
      <trkpt lat="43.60351" lon="3.37851">
        <ele>248.1</ele>
        <time>2024-07-25T06:55:08Z</time>
      </trkpt>
      <trkpt lat="43.6035" lon="3.37847">
        <ele>248</ele>
        <time>2024-07-25T06:55:09Z</time>
      </trkpt>
      <trkpt lat="43.6035" lon="3.37843">
        <ele>248.4</ele>
        <time>2024-07-25T06:55:10Z</time>
      </trkpt>
      <trkpt lat="43.60349" lon="3.37839">
        <ele>248.3</ele>
        <time>2024-07-25T06:55:11Z</time>
      </trkpt>
      <trkpt lat="43.60349" lon="3.37835">
        <ele>248.6</ele>
        <time>2024-07-25T06:55:12Z</time>
      </trkpt>
      <trkpt lat="43.60348" lon="3.37831">
        <ele>248.6</ele>
        <time>2024-07-25T06:55:13Z</time>
      </trkpt>
      <trkpt lat="43.60347" lon="3.37827">
        <ele>248.6</ele>
        <time>2024-07-25T06:55:14Z</time>
      </trkpt>
      <trkpt lat="43.60346" lon="3.37823">
        <ele>248.6</ele>
        <time>2024-07-25T06:55:15Z</time>
      </trkpt>
      <trkpt lat="43.60345" lon="3.37819">
        <ele>248.6</ele>
        <time>2024-07-25T06:55:16Z</time>
      </trkpt>
      <trkpt lat="43.60344" lon="3.37815">
        <ele>248.6</ele>
        <time>2024-07-25T06:55:17Z</time>
      </trkpt>
      <trkpt lat="43.60344" lon="3.37811">
        <ele>249</ele>
        <time>2024-07-25T06:55:18Z</time>
      </trkpt>
      <trkpt lat="43.60343" lon="3.37807">
        <ele>249</ele>
        <time>2024-07-25T06:55:19Z</time>
      </trkpt>
      <trkpt lat="43.60342" lon="3.37803">
        <ele>249.1</ele>
        <time>2024-07-25T06:55:20Z</time>
      </trkpt>
      <trkpt lat="43.6034" lon="3.37799">
        <ele>248.8</ele>
        <time>2024-07-25T06:55:21Z</time>
      </trkpt>
      <trkpt lat="43.60339" lon="3.37795">
        <ele>248.9</ele>
        <time>2024-07-25T06:55:22Z</time>
      </trkpt>
      <trkpt lat="43.60338" lon="3.3779">
        <ele>249.2</ele>
        <time>2024-07-25T06:55:23Z</time>
      </trkpt>
      <trkpt lat="43.60337" lon="3.37786">
        <ele>249.3</ele>
        <time>2024-07-25T06:55:24Z</time>
      </trkpt>
      <trkpt lat="43.60336" lon="3.37783">
        <ele>249.3</ele>
        <time>2024-07-25T06:55:25Z</time>
      </trkpt>
      <trkpt lat="43.60335" lon="3.37779">
        <ele>249.5</ele>
        <time>2024-07-25T06:55:26Z</time>
      </trkpt>
      <trkpt lat="43.60334" lon="3.37774">
        <ele>249.8</ele>
        <time>2024-07-25T06:55:27Z</time>
      </trkpt>
      <trkpt lat="43.60332" lon="3.3777">
        <ele>249.5</ele>
        <time>2024-07-25T06:55:28Z</time>
      </trkpt>
      <trkpt lat="43.60331" lon="3.37767">
        <ele>249.5</ele>
        <time>2024-07-25T06:55:29Z</time>
      </trkpt>
      <trkpt lat="43.6033" lon="3.37763">
        <ele>249.6</ele>
        <time>2024-07-25T06:55:30Z</time>
      </trkpt>
      <trkpt lat="43.60329" lon="3.37759">
        <ele>249.7</ele>
        <time>2024-07-25T06:55:31Z</time>
      </trkpt>
      <trkpt lat="43.60328" lon="3.37755">
        <ele>249.8</ele>
        <time>2024-07-25T06:55:32Z</time>
      </trkpt>
      <trkpt lat="43.60327" lon="3.37751">
        <ele>249.9</ele>
        <time>2024-07-25T06:55:33Z</time>
      </trkpt>
      <trkpt lat="43.60326" lon="3.37747">
        <ele>249.9</ele>
        <time>2024-07-25T06:55:34Z</time>
      </trkpt>
      <trkpt lat="43.60326" lon="3.37744">
        <ele>250.2</ele>
        <time>2024-07-25T06:55:35Z</time>
      </trkpt>
      <trkpt lat="43.60325" lon="3.3774">
        <ele>250.2</ele>
        <time>2024-07-25T06:55:36Z</time>
      </trkpt>
      <trkpt lat="43.60324" lon="3.37736">
        <ele>250.1</ele>
        <time>2024-07-25T06:55:37Z</time>
      </trkpt>
      <trkpt lat="43.60323" lon="3.37732">
        <ele>250.1</ele>
        <time>2024-07-25T06:55:38Z</time>
      </trkpt>
      <trkpt lat="43.60323" lon="3.37728">
        <ele>250.5</ele>
        <time>2024-07-25T06:55:39Z</time>
      </trkpt>
      <trkpt lat="43.60323" lon="3.37724">
        <ele>251</ele>
        <time>2024-07-25T06:55:40Z</time>
      </trkpt>
      <trkpt lat="43.60322" lon="3.3772">
        <ele>250.8</ele>
        <time>2024-07-25T06:55:41Z</time>
      </trkpt>
      <trkpt lat="43.60322" lon="3.37716">
        <ele>250.9</ele>
        <time>2024-07-25T06:55:42Z</time>
      </trkpt>
      <trkpt lat="43.60322" lon="3.37712">
        <ele>251.1</ele>
        <time>2024-07-25T06:55:43Z</time>
      </trkpt>
      <trkpt lat="43.60322" lon="3.37708">
        <ele>251.2</ele>
        <time>2024-07-25T06:55:44Z</time>
      </trkpt>
      <trkpt lat="43.60323" lon="3.37704">
        <ele>251.8</ele>
        <time>2024-07-25T06:55:45Z</time>
      </trkpt>
      <trkpt lat="43.60323" lon="3.37701">
        <ele>251.9</ele>
        <time>2024-07-25T06:55:46Z</time>
      </trkpt>
      <trkpt lat="43.60324" lon="3.37696">
        <ele>252.6</ele>
        <time>2024-07-25T06:55:47Z</time>
      </trkpt>
      <trkpt lat="43.60324" lon="3.37692">
        <ele>252.6</ele>
        <time>2024-07-25T06:55:48Z</time>
      </trkpt>
      <trkpt lat="43.60324" lon="3.37688">
        <ele>252.6</ele>
        <time>2024-07-25T06:55:49Z</time>
      </trkpt>
      <trkpt lat="43.60325" lon="3.37685">
        <ele>253.1</ele>
        <time>2024-07-25T06:55:50Z</time>
      </trkpt>
      <trkpt lat="43.60325" lon="3.37681">
        <ele>253.1</ele>
        <time>2024-07-25T06:55:51Z</time>
      </trkpt>
      <trkpt lat="43.60325" lon="3.37677">
        <ele>253.1</ele>
        <time>2024-07-25T06:55:52Z</time>
      </trkpt>
      <trkpt lat="43.60325" lon="3.37673">
        <ele>253.1</ele>
        <time>2024-07-25T06:55:53Z</time>
      </trkpt>
      <trkpt lat="43.60326" lon="3.37669">
        <ele>253.6</ele>
        <time>2024-07-25T06:55:54Z</time>
      </trkpt>
      <trkpt lat="43.60326" lon="3.37665">
        <ele>253.6</ele>
        <time>2024-07-25T06:55:55Z</time>
      </trkpt>
      <trkpt lat="43.60326" lon="3.37662">
        <ele>253.5</ele>
        <time>2024-07-25T06:55:56Z</time>
      </trkpt>
      <trkpt lat="43.60327" lon="3.37657">
        <ele>254</ele>
        <time>2024-07-25T06:55:57Z</time>
      </trkpt>
      <trkpt lat="43.60327" lon="3.37653">
        <ele>253.9</ele>
        <time>2024-07-25T06:55:58Z</time>
      </trkpt>
      <trkpt lat="43.60328" lon="3.37649">
        <ele>254.4</ele>
        <time>2024-07-25T06:55:59Z</time>
      </trkpt>
      <trkpt lat="43.60328" lon="3.37645">
        <ele>254.4</ele>
        <time>2024-07-25T06:56:00Z</time>
      </trkpt>
      <trkpt lat="43.60328" lon="3.37641">
        <ele>254.3</ele>
        <time>2024-07-25T06:56:01Z</time>
      </trkpt>
      <trkpt lat="43.60328" lon="3.37636">
        <ele>254.3</ele>
        <time>2024-07-25T06:56:02Z</time>
      </trkpt>
      <trkpt lat="43.60329" lon="3.37633">
        <ele>254.8</ele>
        <time>2024-07-25T06:56:03Z</time>
      </trkpt>
      <trkpt lat="43.60329" lon="3.37629">
        <ele>254.8</ele>
        <time>2024-07-25T06:56:04Z</time>
      </trkpt>
      <trkpt lat="43.6033" lon="3.37625">
        <ele>255.3</ele>
        <time>2024-07-25T06:56:05Z</time>
      </trkpt>
      <trkpt lat="43.6033" lon="3.37621">
        <ele>255.3</ele>
        <time>2024-07-25T06:56:06Z</time>
      </trkpt>
      <trkpt lat="43.6033" lon="3.37617">
        <ele>255.3</ele>
        <time>2024-07-25T06:56:07Z</time>
      </trkpt>
      <trkpt lat="43.60331" lon="3.37612">
        <ele>255.8</ele>
        <time>2024-07-25T06:56:08Z</time>
      </trkpt>
      <trkpt lat="43.60331" lon="3.37608">
        <ele>255.9</ele>
        <time>2024-07-25T06:56:09Z</time>
      </trkpt>
      <trkpt lat="43.60331" lon="3.37603">
        <ele>256.1</ele>
        <time>2024-07-25T06:56:10Z</time>
      </trkpt>
      <trkpt lat="43.60331" lon="3.37598">
        <ele>256.3</ele>
        <time>2024-07-25T06:56:11Z</time>
      </trkpt>
      <trkpt lat="43.60331" lon="3.37594">
        <ele>256.4</ele>
        <time>2024-07-25T06:56:12Z</time>
      </trkpt>
      <trkpt lat="43.60331" lon="3.3759">
        <ele>256.5</ele>
        <time>2024-07-25T06:56:13Z</time>
      </trkpt>
      <trkpt lat="43.60331" lon="3.37586">
        <ele>256.7</ele>
        <time>2024-07-25T06:56:14Z</time>
      </trkpt>
      <trkpt lat="43.60331" lon="3.37581">
        <ele>256.8</ele>
        <time>2024-07-25T06:56:15Z</time>
      </trkpt>
      <trkpt lat="43.60331" lon="3.37577">
        <ele>256.9</ele>
        <time>2024-07-25T06:56:16Z</time>
      </trkpt>
      <trkpt lat="43.60331" lon="3.37573">
        <ele>257.1</ele>
        <time>2024-07-25T06:56:17Z</time>
      </trkpt>
      <trkpt lat="43.6033" lon="3.37569">
        <ele>256.7</ele>
        <time>2024-07-25T06:56:18Z</time>
      </trkpt>
      <trkpt lat="43.6033" lon="3.37565">
        <ele>256.8</ele>
        <time>2024-07-25T06:56:19Z</time>
      </trkpt>
      <trkpt lat="43.6033" lon="3.37561">
        <ele>256.9</ele>
        <time>2024-07-25T06:56:20Z</time>
      </trkpt>
      <trkpt lat="43.6033" lon="3.37557">
        <ele>257</ele>
        <time>2024-07-25T06:56:21Z</time>
      </trkpt>
      <trkpt lat="43.6033" lon="3.37553">
        <ele>257.1</ele>
        <time>2024-07-25T06:56:22Z</time>
      </trkpt>
      <trkpt lat="43.6033" lon="3.37549">
        <ele>257.1</ele>
        <time>2024-07-25T06:56:23Z</time>
      </trkpt>
      <trkpt lat="43.6033" lon="3.37545">
        <ele>257.2</ele>
        <time>2024-07-25T06:56:24Z</time>
      </trkpt>
      <trkpt lat="43.6033" lon="3.37541">
        <ele>257.2</ele>
        <time>2024-07-25T06:56:25Z</time>
      </trkpt>
      <trkpt lat="43.6033" lon="3.37537">
        <ele>257.2</ele>
        <time>2024-07-25T06:56:26Z</time>
      </trkpt>
      <trkpt lat="43.6033" lon="3.37532">
        <ele>257.3</ele>
        <time>2024-07-25T06:56:27Z</time>
      </trkpt>
      <trkpt lat="43.60331" lon="3.37528">
        <ele>257.8</ele>
        <time>2024-07-25T06:56:28Z</time>
      </trkpt>
      <trkpt lat="43.60331" lon="3.37524">
        <ele>258</ele>
        <time>2024-07-25T06:56:29Z</time>
      </trkpt>
      <trkpt lat="43.60331" lon="3.3752">
        <ele>258.1</ele>
        <time>2024-07-25T06:56:30Z</time>
      </trkpt>
      <trkpt lat="43.60331" lon="3.37516">
        <ele>258.2</ele>
        <time>2024-07-25T06:56:31Z</time>
      </trkpt>
      <trkpt lat="43.60331" lon="3.37512">
        <ele>258.4</ele>
        <time>2024-07-25T06:56:32Z</time>
      </trkpt>
      <trkpt lat="43.60332" lon="3.37509">
        <ele>259</ele>
        <time>2024-07-25T06:56:33Z</time>
      </trkpt>
      <trkpt lat="43.60332" lon="3.37505">
        <ele>259.1</ele>
        <time>2024-07-25T06:56:34Z</time>
      </trkpt>
      <trkpt lat="43.60332" lon="3.37501">
        <ele>259.3</ele>
        <time>2024-07-25T06:56:35Z</time>
      </trkpt>
      <trkpt lat="43.60333" lon="3.37496">
        <ele>259.8</ele>
        <time>2024-07-25T06:56:36Z</time>
      </trkpt>
      <trkpt lat="43.60333" lon="3.37492">
        <ele>259.8</ele>
        <time>2024-07-25T06:56:37Z</time>
      </trkpt>
      <trkpt lat="43.60334" lon="3.37488">
        <ele>260.3</ele>
        <time>2024-07-25T06:56:38Z</time>
      </trkpt>
      <trkpt lat="43.60334" lon="3.37484">
        <ele>260.3</ele>
        <time>2024-07-25T06:56:39Z</time>
      </trkpt>
      <trkpt lat="43.60335" lon="3.3748">
        <ele>260.8</ele>
        <time>2024-07-25T06:56:40Z</time>
      </trkpt>
      <trkpt lat="43.60335" lon="3.37476">
        <ele>260.8</ele>
        <time>2024-07-25T06:56:41Z</time>
      </trkpt>
      <trkpt lat="43.60336" lon="3.37473">
        <ele>261.3</ele>
        <time>2024-07-25T06:56:42Z</time>
      </trkpt>
      <trkpt lat="43.60337" lon="3.37469">
        <ele>261.7</ele>
        <time>2024-07-25T06:56:43Z</time>
      </trkpt>
      <trkpt lat="43.60337" lon="3.37465">
        <ele>261.7</ele>
        <time>2024-07-25T06:56:44Z</time>
      </trkpt>
      <trkpt lat="43.60337" lon="3.37461">
        <ele>261.7</ele>
        <time>2024-07-25T06:56:45Z</time>
      </trkpt>
      <trkpt lat="43.60338" lon="3.37457">
        <ele>262.1</ele>
        <time>2024-07-25T06:56:46Z</time>
      </trkpt>
      <trkpt lat="43.60339" lon="3.37453">
        <ele>262.5</ele>
        <time>2024-07-25T06:56:47Z</time>
      </trkpt>
      <trkpt lat="43.60339" lon="3.37449">
        <ele>262.5</ele>
        <time>2024-07-25T06:56:48Z</time>
      </trkpt>
      <trkpt lat="43.6034" lon="3.37445">
        <ele>262.9</ele>
        <time>2024-07-25T06:56:49Z</time>
      </trkpt>
      <trkpt lat="43.6034" lon="3.37441">
        <ele>262.9</ele>
        <time>2024-07-25T06:56:50Z</time>
      </trkpt>
      <trkpt lat="43.60341" lon="3.37437">
        <ele>263.2</ele>
        <time>2024-07-25T06:56:51Z</time>
      </trkpt>
      <trkpt lat="43.60341" lon="3.37433">
        <ele>263.2</ele>
        <time>2024-07-25T06:56:52Z</time>
      </trkpt>
      <trkpt lat="43.60341" lon="3.37429">
        <ele>263.2</ele>
        <time>2024-07-25T06:56:53Z</time>
      </trkpt>
      <trkpt lat="43.6034" lon="3.37425">
        <ele>262.7</ele>
        <time>2024-07-25T06:56:54Z</time>
      </trkpt>
      <trkpt lat="43.6034" lon="3.3742">
        <ele>262.7</ele>
        <time>2024-07-25T06:56:55Z</time>
      </trkpt>
      <trkpt lat="43.60339" lon="3.37416">
        <ele>262.3</ele>
        <time>2024-07-25T06:56:56Z</time>
      </trkpt>
      <trkpt lat="43.60339" lon="3.37411">
        <ele>262.4</ele>
        <time>2024-07-25T06:56:57Z</time>
      </trkpt>
      <trkpt lat="43.60339" lon="3.37407">
        <ele>262.5</ele>
        <time>2024-07-25T06:56:58Z</time>
      </trkpt>
      <trkpt lat="43.60338" lon="3.37403">
        <ele>262.3</ele>
        <time>2024-07-25T06:56:59Z</time>
      </trkpt>
      <trkpt lat="43.60338" lon="3.37398">
        <ele>262.4</ele>
        <time>2024-07-25T06:57:00Z</time>
      </trkpt>
      <trkpt lat="43.60338" lon="3.37394">
        <ele>262.5</ele>
        <time>2024-07-25T06:57:01Z</time>
      </trkpt>
      <trkpt lat="43.60338" lon="3.3739">
        <ele>262.6</ele>
        <time>2024-07-25T06:57:02Z</time>
      </trkpt>
      <trkpt lat="43.60338" lon="3.37385">
        <ele>262.7</ele>
        <time>2024-07-25T06:57:03Z</time>
      </trkpt>
      <trkpt lat="43.60338" lon="3.3738">
        <ele>262.7</ele>
        <time>2024-07-25T06:57:04Z</time>
      </trkpt>
      <trkpt lat="43.60338" lon="3.37375">
        <ele>262.7</ele>
        <time>2024-07-25T06:57:05Z</time>
      </trkpt>
      <trkpt lat="43.60338" lon="3.37371">
        <ele>262.7</ele>
        <time>2024-07-25T06:57:06Z</time>
      </trkpt>
      <trkpt lat="43.60338" lon="3.37367">
        <ele>262.7</ele>
        <time>2024-07-25T06:57:07Z</time>
      </trkpt>
      <trkpt lat="43.60338" lon="3.37363">
        <ele>262.7</ele>
        <time>2024-07-25T06:57:08Z</time>
      </trkpt>
      <trkpt lat="43.60337" lon="3.37358">
        <ele>262.3</ele>
        <time>2024-07-25T06:57:09Z</time>
      </trkpt>
      <trkpt lat="43.60338" lon="3.37354">
        <ele>262.6</ele>
        <time>2024-07-25T06:57:10Z</time>
      </trkpt>
      <trkpt lat="43.60338" lon="3.3735">
        <ele>262.6</ele>
        <time>2024-07-25T06:57:11Z</time>
      </trkpt>
      <trkpt lat="43.60338" lon="3.37346">
        <ele>262.6</ele>
        <time>2024-07-25T06:57:12Z</time>
      </trkpt>
      <trkpt lat="43.60338" lon="3.37342">
        <ele>262.6</ele>
        <time>2024-07-25T06:57:13Z</time>
      </trkpt>
      <trkpt lat="43.60338" lon="3.37337">
        <ele>262.5</ele>
        <time>2024-07-25T06:57:14Z</time>
      </trkpt>
      <trkpt lat="43.60339" lon="3.37333">
        <ele>262.8</ele>
        <time>2024-07-25T06:57:15Z</time>
      </trkpt>
      <trkpt lat="43.60339" lon="3.37329">
        <ele>262.7</ele>
        <time>2024-07-25T06:57:16Z</time>
      </trkpt>
      <trkpt lat="43.6034" lon="3.37325">
        <ele>262.9</ele>
        <time>2024-07-25T06:57:17Z</time>
      </trkpt>
      <trkpt lat="43.60341" lon="3.37321">
        <ele>263</ele>
        <time>2024-07-25T06:57:18Z</time>
      </trkpt>
      <trkpt lat="43.60341" lon="3.37317">
        <ele>262.9</ele>
        <time>2024-07-25T06:57:19Z</time>
      </trkpt>
      <trkpt lat="43.60342" lon="3.37312">
        <ele>263</ele>
        <time>2024-07-25T06:57:20Z</time>
      </trkpt>
      <trkpt lat="43.60343" lon="3.37308">
        <ele>263.2</ele>
        <time>2024-07-25T06:57:21Z</time>
      </trkpt>
      <trkpt lat="43.60344" lon="3.37305">
        <ele>263.4</ele>
        <time>2024-07-25T06:57:22Z</time>
      </trkpt>
      <trkpt lat="43.60345" lon="3.37301">
        <ele>263.5</ele>
        <time>2024-07-25T06:57:23Z</time>
      </trkpt>
      <trkpt lat="43.60347" lon="3.37297">
        <ele>264</ele>
        <time>2024-07-25T06:57:24Z</time>
      </trkpt>
      <trkpt lat="43.60348" lon="3.37292">
        <ele>264</ele>
        <time>2024-07-25T06:57:25Z</time>
      </trkpt>
      <trkpt lat="43.60349" lon="3.37289">
        <ele>264.2</ele>
        <time>2024-07-25T06:57:26Z</time>
      </trkpt>
      <trkpt lat="43.6035" lon="3.37286">
        <ele>264.4</ele>
        <time>2024-07-25T06:57:27Z</time>
      </trkpt>
      <trkpt lat="43.60351" lon="3.37282">
        <ele>264.6</ele>
        <time>2024-07-25T06:57:28Z</time>
      </trkpt>
      <trkpt lat="43.60352" lon="3.37279">
        <ele>264.8</ele>
        <time>2024-07-25T06:57:29Z</time>
      </trkpt>
      <trkpt lat="43.60353" lon="3.37274">
        <ele>264.8</ele>
        <time>2024-07-25T06:57:30Z</time>
      </trkpt>
      <trkpt lat="43.60354" lon="3.3727">
        <ele>264.9</ele>
        <time>2024-07-25T06:57:31Z</time>
      </trkpt>
      <trkpt lat="43.60355" lon="3.37266">
        <ele>265</ele>
        <time>2024-07-25T06:57:32Z</time>
      </trkpt>
      <trkpt lat="43.60356" lon="3.37262">
        <ele>265</ele>
        <time>2024-07-25T06:57:33Z</time>
      </trkpt>
      <trkpt lat="43.60357" lon="3.37258">
        <ele>265.1</ele>
        <time>2024-07-25T06:57:34Z</time>
      </trkpt>
      <trkpt lat="43.60358" lon="3.37254">
        <ele>265.2</ele>
        <time>2024-07-25T06:57:35Z</time>
      </trkpt>
      <trkpt lat="43.60359" lon="3.37249">
        <ele>265.2</ele>
        <time>2024-07-25T06:57:36Z</time>
      </trkpt>
      <trkpt lat="43.6036" lon="3.37245">
        <ele>265.6</ele>
        <time>2024-07-25T06:57:37Z</time>
      </trkpt>
      <trkpt lat="43.60361" lon="3.3724">
        <ele>266</ele>
        <time>2024-07-25T06:57:38Z</time>
      </trkpt>
      <trkpt lat="43.60362" lon="3.37236">
        <ele>266</ele>
        <time>2024-07-25T06:57:39Z</time>
      </trkpt>
      <trkpt lat="43.60363" lon="3.37231">
        <ele>266</ele>
        <time>2024-07-25T06:57:40Z</time>
      </trkpt>
      <trkpt lat="43.60364" lon="3.37227">
        <ele>266</ele>
        <time>2024-07-25T06:57:41Z</time>
      </trkpt>
      <trkpt lat="43.60365" lon="3.37223">
        <ele>266</ele>
        <time>2024-07-25T06:57:42Z</time>
      </trkpt>
      <trkpt lat="43.60366" lon="3.37219">
        <ele>266</ele>
        <time>2024-07-25T06:57:43Z</time>
      </trkpt>
      <trkpt lat="43.60366" lon="3.37214">
        <ele>266.1</ele>
        <time>2024-07-25T06:57:44Z</time>
      </trkpt>
      <trkpt lat="43.60367" lon="3.3721">
        <ele>266.1</ele>
        <time>2024-07-25T06:57:45Z</time>
      </trkpt>
      <trkpt lat="43.60368" lon="3.37206">
        <ele>266.1</ele>
        <time>2024-07-25T06:57:46Z</time>
      </trkpt>
      <trkpt lat="43.60369" lon="3.37201">
        <ele>266.2</ele>
        <time>2024-07-25T06:57:47Z</time>
      </trkpt>
      <trkpt lat="43.6037" lon="3.37196">
        <ele>266.3</ele>
        <time>2024-07-25T06:57:48Z</time>
      </trkpt>
      <trkpt lat="43.60371" lon="3.37192">
        <ele>266.4</ele>
        <time>2024-07-25T06:57:49Z</time>
      </trkpt>
      <trkpt lat="43.60372" lon="3.37188">
        <ele>266.4</ele>
        <time>2024-07-25T06:57:50Z</time>
      </trkpt>
      <trkpt lat="43.60373" lon="3.37183">
        <ele>266.4</ele>
        <time>2024-07-25T06:57:51Z</time>
      </trkpt>
      <trkpt lat="43.60373" lon="3.37178">
        <ele>266.4</ele>
        <time>2024-07-25T06:57:52Z</time>
      </trkpt>
      <trkpt lat="43.60374" lon="3.37174">
        <ele>266.5</ele>
        <time>2024-07-25T06:57:53Z</time>
      </trkpt>
      <trkpt lat="43.60375" lon="3.37169">
        <ele>266.5</ele>
        <time>2024-07-25T06:57:54Z</time>
      </trkpt>
      <trkpt lat="43.60376" lon="3.37165">
        <ele>266.5</ele>
        <time>2024-07-25T06:57:55Z</time>
      </trkpt>
      <trkpt lat="43.60376" lon="3.3716">
        <ele>266.3</ele>
        <time>2024-07-25T06:57:56Z</time>
      </trkpt>
      <trkpt lat="43.60377" lon="3.37155">
        <ele>266.2</ele>
        <time>2024-07-25T06:57:57Z</time>
      </trkpt>
      <trkpt lat="43.60377" lon="3.3715">
        <ele>266.1</ele>
        <time>2024-07-25T06:57:58Z</time>
      </trkpt>
      <trkpt lat="43.60377" lon="3.37144">
        <ele>265.9</ele>
        <time>2024-07-25T06:57:59Z</time>
      </trkpt>
      <trkpt lat="43.60377" lon="3.37139">
        <ele>265.7</ele>
        <time>2024-07-25T06:58:00Z</time>
      </trkpt>
      <trkpt lat="43.60377" lon="3.37134">
        <ele>265.7</ele>
        <time>2024-07-25T06:58:01Z</time>
      </trkpt>
      <trkpt lat="43.60377" lon="3.37129">
        <ele>265.8</ele>
        <time>2024-07-25T06:58:02Z</time>
      </trkpt>
      <trkpt lat="43.60377" lon="3.37125">
        <ele>265.8</ele>
        <time>2024-07-25T06:58:03Z</time>
      </trkpt>
      <trkpt lat="43.60377" lon="3.37121">
        <ele>265.8</ele>
        <time>2024-07-25T06:58:04Z</time>
      </trkpt>
      <trkpt lat="43.60377" lon="3.37116">
        <ele>265.8</ele>
        <time>2024-07-25T06:58:05Z</time>
      </trkpt>
      <trkpt lat="43.60377" lon="3.37111">
        <ele>265.9</ele>
        <time>2024-07-25T06:58:06Z</time>
      </trkpt>
      <trkpt lat="43.60377" lon="3.37106">
        <ele>265.9</ele>
        <time>2024-07-25T06:58:07Z</time>
      </trkpt>
      <trkpt lat="43.60377" lon="3.37101">
        <ele>266</ele>
        <time>2024-07-25T06:58:08Z</time>
      </trkpt>
      <trkpt lat="43.60377" lon="3.37097">
        <ele>266.1</ele>
        <time>2024-07-25T06:58:09Z</time>
      </trkpt>
      <trkpt lat="43.60377" lon="3.37092">
        <ele>266.2</ele>
        <time>2024-07-25T06:58:10Z</time>
      </trkpt>
      <trkpt lat="43.60377" lon="3.37088">
        <ele>266.2</ele>
        <time>2024-07-25T06:58:11Z</time>
      </trkpt>
      <trkpt lat="43.60377" lon="3.37083">
        <ele>266.3</ele>
        <time>2024-07-25T06:58:12Z</time>
      </trkpt>
      <trkpt lat="43.60377" lon="3.37078">
        <ele>266.5</ele>
        <time>2024-07-25T06:58:13Z</time>
      </trkpt>
      <trkpt lat="43.60378" lon="3.37073">
        <ele>266.8</ele>
        <time>2024-07-25T06:58:14Z</time>
      </trkpt>
      <trkpt lat="43.60378" lon="3.37068">
        <ele>267</ele>
        <time>2024-07-25T06:58:15Z</time>
      </trkpt>
      <trkpt lat="43.60379" lon="3.37064">
        <ele>267.3</ele>
        <time>2024-07-25T06:58:16Z</time>
      </trkpt>
      <trkpt lat="43.6038" lon="3.37058">
        <ele>267.6</ele>
        <time>2024-07-25T06:58:17Z</time>
      </trkpt>
      <trkpt lat="43.60381" lon="3.37054">
        <ele>268</ele>
        <time>2024-07-25T06:58:18Z</time>
      </trkpt>
      <trkpt lat="43.60382" lon="3.37049">
        <ele>268.4</ele>
        <time>2024-07-25T06:58:19Z</time>
      </trkpt>
      <trkpt lat="43.60383" lon="3.37045">
        <ele>268.8</ele>
        <time>2024-07-25T06:58:20Z</time>
      </trkpt>
      <trkpt lat="43.60384" lon="3.3704">
        <ele>269.2</ele>
        <time>2024-07-25T06:58:21Z</time>
      </trkpt>
      <trkpt lat="43.60385" lon="3.37036">
        <ele>269.4</ele>
        <time>2024-07-25T06:58:22Z</time>
      </trkpt>
      <trkpt lat="43.60387" lon="3.37031">
        <ele>269.8</ele>
        <time>2024-07-25T06:58:23Z</time>
      </trkpt>
      <trkpt lat="43.60388" lon="3.37027">
        <ele>270</ele>
        <time>2024-07-25T06:58:24Z</time>
      </trkpt>
      <trkpt lat="43.60389" lon="3.37022">
        <ele>270.2</ele>
        <time>2024-07-25T06:58:25Z</time>
      </trkpt>
      <trkpt lat="43.60389" lon="3.37017">
        <ele>270.4</ele>
        <time>2024-07-25T06:58:26Z</time>
      </trkpt>
      <trkpt lat="43.6039" lon="3.37012">
        <ele>270.4</ele>
        <time>2024-07-25T06:58:27Z</time>
      </trkpt>
      <trkpt lat="43.60391" lon="3.37008">
        <ele>270.5</ele>
        <time>2024-07-25T06:58:28Z</time>
      </trkpt>
      <trkpt lat="43.60391" lon="3.37003">
        <ele>270.7</ele>
        <time>2024-07-25T06:58:29Z</time>
      </trkpt>
      <trkpt lat="43.60391" lon="3.36998">
        <ele>270.8</ele>
        <time>2024-07-25T06:58:30Z</time>
      </trkpt>
      <trkpt lat="43.60392" lon="3.36993">
        <ele>270.9</ele>
        <time>2024-07-25T06:58:31Z</time>
      </trkpt>
      <trkpt lat="43.60392" lon="3.36988">
        <ele>271</ele>
        <time>2024-07-25T06:58:32Z</time>
      </trkpt>
      <trkpt lat="43.60392" lon="3.36984">
        <ele>271.2</ele>
        <time>2024-07-25T06:58:33Z</time>
      </trkpt>
      <trkpt lat="43.60392" lon="3.36979">
        <ele>271.3</ele>
        <time>2024-07-25T06:58:34Z</time>
      </trkpt>
      <trkpt lat="43.60392" lon="3.36974">
        <ele>271.5</ele>
        <time>2024-07-25T06:58:35Z</time>
      </trkpt>
      <trkpt lat="43.60392" lon="3.36969">
        <ele>271.7</ele>
        <time>2024-07-25T06:58:36Z</time>
      </trkpt>
      <trkpt lat="43.60392" lon="3.36965">
        <ele>271.8</ele>
        <time>2024-07-25T06:58:37Z</time>
      </trkpt>
      <trkpt lat="43.60392" lon="3.3696">
        <ele>271.9</ele>
        <time>2024-07-25T06:58:38Z</time>
      </trkpt>
      <trkpt lat="43.60392" lon="3.36955">
        <ele>272.1</ele>
        <time>2024-07-25T06:58:39Z</time>
      </trkpt>
      <trkpt lat="43.60391" lon="3.36951">
        <ele>272.4</ele>
        <time>2024-07-25T06:58:40Z</time>
      </trkpt>
      <trkpt lat="43.60391" lon="3.36946">
        <ele>272.6</ele>
        <time>2024-07-25T06:58:41Z</time>
      </trkpt>
      <trkpt lat="43.60391" lon="3.36941">
        <ele>272.6</ele>
        <time>2024-07-25T06:58:42Z</time>
      </trkpt>
      <trkpt lat="43.60391" lon="3.36935">
        <ele>272.6</ele>
        <time>2024-07-25T06:58:43Z</time>
      </trkpt>
      <trkpt lat="43.6039" lon="3.3693">
        <ele>272.8</ele>
        <time>2024-07-25T06:58:44Z</time>
      </trkpt>
      <trkpt lat="43.6039" lon="3.36925">
        <ele>272.8</ele>
        <time>2024-07-25T06:58:45Z</time>
      </trkpt>
      <trkpt lat="43.60389" lon="3.3692">
        <ele>273</ele>
        <time>2024-07-25T06:58:46Z</time>
      </trkpt>
      <trkpt lat="43.60388" lon="3.36915">
        <ele>273.1</ele>
        <time>2024-07-25T06:58:47Z</time>
      </trkpt>
      <trkpt lat="43.60388" lon="3.3691">
        <ele>273</ele>
        <time>2024-07-25T06:58:48Z</time>
      </trkpt>
      <trkpt lat="43.60387" lon="3.36906">
        <ele>273.1</ele>
        <time>2024-07-25T06:58:49Z</time>
      </trkpt>
      <trkpt lat="43.60386" lon="3.36901">
        <ele>273.1</ele>
        <time>2024-07-25T06:58:50Z</time>
      </trkpt>
      <trkpt lat="43.60384" lon="3.36897">
        <ele>273.5</ele>
        <time>2024-07-25T06:58:51Z</time>
      </trkpt>
      <trkpt lat="43.60383" lon="3.36892">
        <ele>273.6</ele>
        <time>2024-07-25T06:58:52Z</time>
      </trkpt>
      <trkpt lat="43.60381" lon="3.36888">
        <ele>273.9</ele>
        <time>2024-07-25T06:58:53Z</time>
      </trkpt>
      <trkpt lat="43.60379" lon="3.36884">
        <ele>274.3</ele>
        <time>2024-07-25T06:58:54Z</time>
      </trkpt>
      <trkpt lat="43.60378" lon="3.3688">
        <ele>274.3</ele>
        <time>2024-07-25T06:58:55Z</time>
      </trkpt>
      <trkpt lat="43.60376" lon="3.36876">
        <ele>274.6</ele>
        <time>2024-07-25T06:58:56Z</time>
      </trkpt>
      <trkpt lat="43.60374" lon="3.36871">
        <ele>274.8</ele>
        <time>2024-07-25T06:58:57Z</time>
      </trkpt>
      <trkpt lat="43.60372" lon="3.36867">
        <ele>275</ele>
        <time>2024-07-25T06:58:58Z</time>
      </trkpt>
      <trkpt lat="43.6037" lon="3.36863">
        <ele>275.2</ele>
        <time>2024-07-25T06:58:59Z</time>
      </trkpt>
      <trkpt lat="43.60368" lon="3.36859">
        <ele>275.3</ele>
        <time>2024-07-25T06:59:00Z</time>
      </trkpt>
      <trkpt lat="43.60366" lon="3.36855">
        <ele>275.4</ele>
        <time>2024-07-25T06:59:01Z</time>
      </trkpt>
      <trkpt lat="43.60364" lon="3.36851">
        <ele>275.4</ele>
        <time>2024-07-25T06:59:02Z</time>
      </trkpt>
      <trkpt lat="43.60362" lon="3.36847">
        <ele>275.3</ele>
        <time>2024-07-25T06:59:03Z</time>
      </trkpt>
      <trkpt lat="43.6036" lon="3.36843">
        <ele>275.2</ele>
        <time>2024-07-25T06:59:04Z</time>
      </trkpt>
      <trkpt lat="43.60359" lon="3.36838">
        <ele>274.9</ele>
        <time>2024-07-25T06:59:05Z</time>
      </trkpt>
      <trkpt lat="43.60357" lon="3.36834">
        <ele>274.9</ele>
        <time>2024-07-25T06:59:06Z</time>
      </trkpt>
      <trkpt lat="43.60356" lon="3.3683">
        <ele>275</ele>
        <time>2024-07-25T06:59:07Z</time>
      </trkpt>
      <trkpt lat="43.60354" lon="3.36826">
        <ele>275.4</ele>
        <time>2024-07-25T06:59:08Z</time>
      </trkpt>
      <trkpt lat="43.60353" lon="3.36822">
        <ele>275.6</ele>
        <time>2024-07-25T06:59:09Z</time>
      </trkpt>
      <trkpt lat="43.60351" lon="3.36817">
        <ele>276</ele>
        <time>2024-07-25T06:59:10Z</time>
      </trkpt>
      <trkpt lat="43.6035" lon="3.36813">
        <ele>276.3</ele>
        <time>2024-07-25T06:59:11Z</time>
      </trkpt>
      <trkpt lat="43.60349" lon="3.36809">
        <ele>276.5</ele>
        <time>2024-07-25T06:59:12Z</time>
      </trkpt>
      <trkpt lat="43.60348" lon="3.36805">
        <ele>276.8</ele>
        <time>2024-07-25T06:59:13Z</time>
      </trkpt>
      <trkpt lat="43.60347" lon="3.368">
        <ele>277.2</ele>
        <time>2024-07-25T06:59:14Z</time>
      </trkpt>
      <trkpt lat="43.60346" lon="3.36796">
        <ele>277.5</ele>
        <time>2024-07-25T06:59:15Z</time>
      </trkpt>
      <trkpt lat="43.60345" lon="3.36791">
        <ele>277.9</ele>
        <time>2024-07-25T06:59:16Z</time>
      </trkpt>
      <trkpt lat="43.60344" lon="3.36787">
        <ele>278.2</ele>
        <time>2024-07-25T06:59:17Z</time>
      </trkpt>
      <trkpt lat="43.60343" lon="3.36782">
        <ele>278.5</ele>
        <time>2024-07-25T06:59:18Z</time>
      </trkpt>
      <trkpt lat="43.60342" lon="3.36778">
        <ele>278.8</ele>
        <time>2024-07-25T06:59:19Z</time>
      </trkpt>
      <trkpt lat="43.60342" lon="3.36774">
        <ele>278.6</ele>
        <time>2024-07-25T06:59:20Z</time>
      </trkpt>
      <trkpt lat="43.60341" lon="3.3677">
        <ele>278.7</ele>
        <time>2024-07-25T06:59:21Z</time>
      </trkpt>
      <trkpt lat="43.6034" lon="3.36765">
        <ele>278.6</ele>
        <time>2024-07-25T06:59:22Z</time>
      </trkpt>
      <trkpt lat="43.60339" lon="3.36761">
        <ele>278.6</ele>
        <time>2024-07-25T06:59:23Z</time>
      </trkpt>
      <trkpt lat="43.60338" lon="3.36757">
        <ele>278.6</ele>
        <time>2024-07-25T06:59:24Z</time>
      </trkpt>
      <trkpt lat="43.60337" lon="3.36753">
        <ele>278.5</ele>
        <time>2024-07-25T06:59:25Z</time>
      </trkpt>
      <trkpt lat="43.60336" lon="3.36749">
        <ele>278.5</ele>
        <time>2024-07-25T06:59:26Z</time>
      </trkpt>
      <trkpt lat="43.60335" lon="3.36745">
        <ele>278.5</ele>
        <time>2024-07-25T06:59:27Z</time>
      </trkpt>
      <trkpt lat="43.60334" lon="3.36741">
        <ele>278.6</ele>
        <time>2024-07-25T06:59:28Z</time>
      </trkpt>
      <trkpt lat="43.60333" lon="3.36736">
        <ele>278.5</ele>
        <time>2024-07-25T06:59:29Z</time>
      </trkpt>
      <trkpt lat="43.60331" lon="3.36732">
        <ele>278.7</ele>
        <time>2024-07-25T06:59:30Z</time>
      </trkpt>
      <trkpt lat="43.6033" lon="3.36728">
        <ele>278.7</ele>
        <time>2024-07-25T06:59:31Z</time>
      </trkpt>
      <trkpt lat="43.60328" lon="3.36723">
        <ele>278.8</ele>
        <time>2024-07-25T06:59:32Z</time>
      </trkpt>
      <trkpt lat="43.60326" lon="3.36719">
        <ele>279.1</ele>
        <time>2024-07-25T06:59:33Z</time>
      </trkpt>
      <trkpt lat="43.60324" lon="3.36715">
        <ele>279.3</ele>
        <time>2024-07-25T06:59:34Z</time>
      </trkpt>
      <trkpt lat="43.60323" lon="3.36712">
        <ele>279.4</ele>
        <time>2024-07-25T06:59:35Z</time>
      </trkpt>
      <trkpt lat="43.60321" lon="3.36709">
        <ele>279.6</ele>
        <time>2024-07-25T06:59:36Z</time>
      </trkpt>
      <trkpt lat="43.60319" lon="3.36707">
        <ele>279.8</ele>
        <time>2024-07-25T06:59:37Z</time>
      </trkpt>
      <trkpt lat="43.60316" lon="3.36704">
        <ele>279.9</ele>
        <time>2024-07-25T06:59:38Z</time>
      </trkpt>
      <trkpt lat="43.60314" lon="3.36701">
        <ele>280</ele>
        <time>2024-07-25T06:59:39Z</time>
      </trkpt>
      <trkpt lat="43.60312" lon="3.36699">
        <ele>280</ele>
        <time>2024-07-25T06:59:40Z</time>
      </trkpt>
      <trkpt lat="43.60311" lon="3.36696">
        <ele>279.9</ele>
        <time>2024-07-25T06:59:41Z</time>
      </trkpt>
      <trkpt lat="43.60309" lon="3.36693">
        <ele>279.9</ele>
        <time>2024-07-25T06:59:42Z</time>
      </trkpt>
      <trkpt lat="43.60307" lon="3.3669">
        <ele>280</ele>
        <time>2024-07-25T06:59:43Z</time>
      </trkpt>
      <trkpt lat="43.60306" lon="3.36686">
        <ele>280</ele>
        <time>2024-07-25T06:59:44Z</time>
      </trkpt>
      <trkpt lat="43.60306" lon="3.36681">
        <ele>280</ele>
        <time>2024-07-25T06:59:45Z</time>
      </trkpt>
      <trkpt lat="43.60306" lon="3.36677">
        <ele>280</ele>
        <time>2024-07-25T06:59:46Z</time>
      </trkpt>
      <trkpt lat="43.60306" lon="3.36672">
        <ele>280</ele>
        <time>2024-07-25T06:59:47Z</time>
      </trkpt>
      <trkpt lat="43.60307" lon="3.36668">
        <ele>280</ele>
        <time>2024-07-25T06:59:48Z</time>
      </trkpt>
      <trkpt lat="43.60308" lon="3.36665">
        <ele>280.1</ele>
        <time>2024-07-25T06:59:49Z</time>
      </trkpt>
      <trkpt lat="43.6031" lon="3.36662">
        <ele>280.2</ele>
        <time>2024-07-25T06:59:50Z</time>
      </trkpt>
      <trkpt lat="43.60312" lon="3.36659">
        <ele>280.3</ele>
        <time>2024-07-25T06:59:51Z</time>
      </trkpt>
      <trkpt lat="43.60314" lon="3.36655">
        <ele>280.5</ele>
        <time>2024-07-25T06:59:52Z</time>
      </trkpt>
      <trkpt lat="43.60316" lon="3.36652">
        <ele>280.7</ele>
        <time>2024-07-25T06:59:53Z</time>
      </trkpt>
      <trkpt lat="43.60318" lon="3.36649">
        <ele>280.9</ele>
        <time>2024-07-25T06:59:54Z</time>
      </trkpt>
      <trkpt lat="43.6032" lon="3.36645">
        <ele>281.2</ele>
        <time>2024-07-25T06:59:55Z</time>
      </trkpt>
      <trkpt lat="43.60321" lon="3.36642">
        <ele>281.4</ele>
        <time>2024-07-25T06:59:56Z</time>
      </trkpt>
      <trkpt lat="43.60323" lon="3.3664">
        <ele>281.6</ele>
        <time>2024-07-25T06:59:57Z</time>
      </trkpt>
      <trkpt lat="43.60325" lon="3.36637">
        <ele>281.8</ele>
        <time>2024-07-25T06:59:58Z</time>
      </trkpt>
      <trkpt lat="43.60327" lon="3.36633">
        <ele>282.1</ele>
        <time>2024-07-25T06:59:59Z</time>
      </trkpt>
      <trkpt lat="43.60328" lon="3.3663">
        <ele>282.4</ele>
        <time>2024-07-25T07:00:00Z</time>
      </trkpt>
      <trkpt lat="43.60329" lon="3.36627">
        <ele>282.6</ele>
        <time>2024-07-25T07:00:01Z</time>
      </trkpt>
      <trkpt lat="43.6033" lon="3.36623">
        <ele>283</ele>
        <time>2024-07-25T07:00:02Z</time>
      </trkpt>
      <trkpt lat="43.60332" lon="3.36619">
        <ele>283.3</ele>
        <time>2024-07-25T07:00:03Z</time>
      </trkpt>
      <trkpt lat="43.60333" lon="3.36615">
        <ele>283.7</ele>
        <time>2024-07-25T07:00:04Z</time>
      </trkpt>
      <trkpt lat="43.60333" lon="3.36611">
        <ele>284</ele>
        <time>2024-07-25T07:00:05Z</time>
      </trkpt>
      <trkpt lat="43.60335" lon="3.36608">
        <ele>284.3</ele>
        <time>2024-07-25T07:00:06Z</time>
      </trkpt>
      <trkpt lat="43.60336" lon="3.36604">
        <ele>284.7</ele>
        <time>2024-07-25T07:00:07Z</time>
      </trkpt>
      <trkpt lat="43.60338" lon="3.366">
        <ele>285</ele>
        <time>2024-07-25T07:00:08Z</time>
      </trkpt>
      <trkpt lat="43.60339" lon="3.36597">
        <ele>285.2</ele>
        <time>2024-07-25T07:00:09Z</time>
      </trkpt>
      <trkpt lat="43.6034" lon="3.36594">
        <ele>285.4</ele>
        <time>2024-07-25T07:00:10Z</time>
      </trkpt>
      <trkpt lat="43.60341" lon="3.3659">
        <ele>285.8</ele>
        <time>2024-07-25T07:00:11Z</time>
      </trkpt>
      <trkpt lat="43.60342" lon="3.36586">
        <ele>286.1</ele>
        <time>2024-07-25T07:00:12Z</time>
      </trkpt>
      <trkpt lat="43.60343" lon="3.36583">
        <ele>286.3</ele>
        <time>2024-07-25T07:00:13Z</time>
      </trkpt>
      <trkpt lat="43.60344" lon="3.36579">
        <ele>286.6</ele>
        <time>2024-07-25T07:00:14Z</time>
      </trkpt>
      <trkpt lat="43.60346" lon="3.36575">
        <ele>286.6</ele>
        <time>2024-07-25T07:00:15Z</time>
      </trkpt>
      <trkpt lat="43.60347" lon="3.36571">
        <ele>286.9</ele>
        <time>2024-07-25T07:00:16Z</time>
      </trkpt>
      <trkpt lat="43.60348" lon="3.36567">
        <ele>287.1</ele>
        <time>2024-07-25T07:00:17Z</time>
      </trkpt>
      <trkpt lat="43.60349" lon="3.36564">
        <ele>287.2</ele>
        <time>2024-07-25T07:00:18Z</time>
      </trkpt>
      <trkpt lat="43.6035" lon="3.3656">
        <ele>287.4</ele>
        <time>2024-07-25T07:00:19Z</time>
      </trkpt>
      <trkpt lat="43.60351" lon="3.36556">
        <ele>287.5</ele>
        <time>2024-07-25T07:00:20Z</time>
      </trkpt>
      <trkpt lat="43.60353" lon="3.36552">
        <ele>287.3</ele>
        <time>2024-07-25T07:00:21Z</time>
      </trkpt>
      <trkpt lat="43.60354" lon="3.36547">
        <ele>287.5</ele>
        <time>2024-07-25T07:00:22Z</time>
      </trkpt>
      <trkpt lat="43.60355" lon="3.36543">
        <ele>287.5</ele>
        <time>2024-07-25T07:00:23Z</time>
      </trkpt>
      <trkpt lat="43.60356" lon="3.36539">
        <ele>287.6</ele>
        <time>2024-07-25T07:00:24Z</time>
      </trkpt>
      <trkpt lat="43.60356" lon="3.36535">
        <ele>287.9</ele>
        <time>2024-07-25T07:00:25Z</time>
      </trkpt>
      <trkpt lat="43.60357" lon="3.36531">
        <ele>287.9</ele>
        <time>2024-07-25T07:00:26Z</time>
      </trkpt>
      <trkpt lat="43.60357" lon="3.36527">
        <ele>288.2</ele>
        <time>2024-07-25T07:00:27Z</time>
      </trkpt>
      <trkpt lat="43.60358" lon="3.36523">
        <ele>288.2</ele>
        <time>2024-07-25T07:00:28Z</time>
      </trkpt>
      <trkpt lat="43.60359" lon="3.36518">
        <ele>288.3</ele>
        <time>2024-07-25T07:00:29Z</time>
      </trkpt>
      <trkpt lat="43.60359" lon="3.36514">
        <ele>288.6</ele>
        <time>2024-07-25T07:00:30Z</time>
      </trkpt>
      <trkpt lat="43.6036" lon="3.36509">
        <ele>288.6</ele>
        <time>2024-07-25T07:00:31Z</time>
      </trkpt>
      <trkpt lat="43.60361" lon="3.36504">
        <ele>288.7</ele>
        <time>2024-07-25T07:00:32Z</time>
      </trkpt>
      <trkpt lat="43.60361" lon="3.365">
        <ele>289</ele>
        <time>2024-07-25T07:00:33Z</time>
      </trkpt>
      <trkpt lat="43.60362" lon="3.36495">
        <ele>288.9</ele>
        <time>2024-07-25T07:00:34Z</time>
      </trkpt>
      <trkpt lat="43.60363" lon="3.3649">
        <ele>288.8</ele>
        <time>2024-07-25T07:00:35Z</time>
      </trkpt>
      <trkpt lat="43.60363" lon="3.36486">
        <ele>289</ele>
        <time>2024-07-25T07:00:36Z</time>
      </trkpt>
      <trkpt lat="43.60364" lon="3.36481">
        <ele>288.9</ele>
        <time>2024-07-25T07:00:37Z</time>
      </trkpt>
      <trkpt lat="43.60365" lon="3.36477">
        <ele>288.8</ele>
        <time>2024-07-25T07:00:38Z</time>
      </trkpt>
      <trkpt lat="43.60365" lon="3.36472">
        <ele>289</ele>
        <time>2024-07-25T07:00:39Z</time>
      </trkpt>
      <trkpt lat="43.60366" lon="3.36467">
        <ele>289.1</ele>
        <time>2024-07-25T07:00:40Z</time>
      </trkpt>
      <trkpt lat="43.60367" lon="3.36463">
        <ele>289.2</ele>
        <time>2024-07-25T07:00:41Z</time>
      </trkpt>
      <trkpt lat="43.60367" lon="3.36458">
        <ele>289.5</ele>
        <time>2024-07-25T07:00:42Z</time>
      </trkpt>
      <trkpt lat="43.60368" lon="3.36453">
        <ele>289.6</ele>
        <time>2024-07-25T07:00:43Z</time>
      </trkpt>
      <trkpt lat="43.60368" lon="3.36448">
        <ele>290</ele>
        <time>2024-07-25T07:00:44Z</time>
      </trkpt>
      <trkpt lat="43.60369" lon="3.36443">
        <ele>290.1</ele>
        <time>2024-07-25T07:00:45Z</time>
      </trkpt>
      <trkpt lat="43.6037" lon="3.36438">
        <ele>290.1</ele>
        <time>2024-07-25T07:00:46Z</time>
      </trkpt>
      <trkpt lat="43.6037" lon="3.36433">
        <ele>290.5</ele>
        <time>2024-07-25T07:00:47Z</time>
      </trkpt>
      <trkpt lat="43.60371" lon="3.36428">
        <ele>290.5</ele>
        <time>2024-07-25T07:00:48Z</time>
      </trkpt>
      <trkpt lat="43.60372" lon="3.36423">
        <ele>290.5</ele>
        <time>2024-07-25T07:00:49Z</time>
      </trkpt>
      <trkpt lat="43.60372" lon="3.36418">
        <ele>290.8</ele>
        <time>2024-07-25T07:00:50Z</time>
      </trkpt>
      <trkpt lat="43.60373" lon="3.36414">
        <ele>290.8</ele>
        <time>2024-07-25T07:00:51Z</time>
      </trkpt>
      <trkpt lat="43.60374" lon="3.36409">
        <ele>290.8</ele>
        <time>2024-07-25T07:00:52Z</time>
      </trkpt>
      <trkpt lat="43.60375" lon="3.36404">
        <ele>290.9</ele>
        <time>2024-07-25T07:00:53Z</time>
      </trkpt>
      <trkpt lat="43.60375" lon="3.36399">
        <ele>291.3</ele>
        <time>2024-07-25T07:00:54Z</time>
      </trkpt>
      <trkpt lat="43.60376" lon="3.36394">
        <ele>291.3</ele>
        <time>2024-07-25T07:00:55Z</time>
      </trkpt>
      <trkpt lat="43.60377" lon="3.36389">
        <ele>291.4</ele>
        <time>2024-07-25T07:00:56Z</time>
      </trkpt>
      <trkpt lat="43.60377" lon="3.36384">
        <ele>291.8</ele>
        <time>2024-07-25T07:00:57Z</time>
      </trkpt>
      <trkpt lat="43.60377" lon="3.36379">
        <ele>292.1</ele>
        <time>2024-07-25T07:00:58Z</time>
      </trkpt>
      <trkpt lat="43.60378" lon="3.36374">
        <ele>292.2</ele>
        <time>2024-07-25T07:00:59Z</time>
      </trkpt>
      <trkpt lat="43.60378" lon="3.36369">
        <ele>292.6</ele>
        <time>2024-07-25T07:01:00Z</time>
      </trkpt>
      <trkpt lat="43.60379" lon="3.36364">
        <ele>292.6</ele>
        <time>2024-07-25T07:01:01Z</time>
      </trkpt>
      <trkpt lat="43.6038" lon="3.3636">
        <ele>292.6</ele>
        <time>2024-07-25T07:01:02Z</time>
      </trkpt>
      <trkpt lat="43.6038" lon="3.36355">
        <ele>292.9</ele>
        <time>2024-07-25T07:01:03Z</time>
      </trkpt>
      <trkpt lat="43.60381" lon="3.36351">
        <ele>292.7</ele>
        <time>2024-07-25T07:01:04Z</time>
      </trkpt>
      <trkpt lat="43.60381" lon="3.36346">
        <ele>293</ele>
        <time>2024-07-25T07:01:05Z</time>
      </trkpt>
      <trkpt lat="43.60381" lon="3.36341">
        <ele>293.2</ele>
        <time>2024-07-25T07:01:06Z</time>
      </trkpt>
      <trkpt lat="43.60382" lon="3.36336">
        <ele>293.1</ele>
        <time>2024-07-25T07:01:07Z</time>
      </trkpt>
      <trkpt lat="43.60383" lon="3.36331">
        <ele>293</ele>
        <time>2024-07-25T07:01:08Z</time>
      </trkpt>
      <trkpt lat="43.60383" lon="3.36326">
        <ele>293.2</ele>
        <time>2024-07-25T07:01:09Z</time>
      </trkpt>
      <trkpt lat="43.60384" lon="3.36321">
        <ele>293.1</ele>
        <time>2024-07-25T07:01:10Z</time>
      </trkpt>
      <trkpt lat="43.60384" lon="3.36317">
        <ele>293.3</ele>
        <time>2024-07-25T07:01:11Z</time>
      </trkpt>
      <trkpt lat="43.60384" lon="3.36312">
        <ele>293.5</ele>
        <time>2024-07-25T07:01:12Z</time>
      </trkpt>
      <trkpt lat="43.60385" lon="3.36307">
        <ele>293.3</ele>
        <time>2024-07-25T07:01:13Z</time>
      </trkpt>
      <trkpt lat="43.60385" lon="3.36303">
        <ele>293.6</ele>
        <time>2024-07-25T07:01:14Z</time>
      </trkpt>
      <trkpt lat="43.60386" lon="3.36298">
        <ele>293.6</ele>
        <time>2024-07-25T07:01:15Z</time>
      </trkpt>
      <trkpt lat="43.60386" lon="3.36293">
        <ele>293.9</ele>
        <time>2024-07-25T07:01:16Z</time>
      </trkpt>
      <trkpt lat="43.60387" lon="3.36289">
        <ele>293.9</ele>
        <time>2024-07-25T07:01:17Z</time>
      </trkpt>
      <trkpt lat="43.60387" lon="3.36284">
        <ele>294.2</ele>
        <time>2024-07-25T07:01:18Z</time>
      </trkpt>
      <trkpt lat="43.60388" lon="3.36279">
        <ele>294.2</ele>
        <time>2024-07-25T07:01:19Z</time>
      </trkpt>
      <trkpt lat="43.60389" lon="3.36275">
        <ele>294.1</ele>
        <time>2024-07-25T07:01:20Z</time>
      </trkpt>
      <trkpt lat="43.60389" lon="3.3627">
        <ele>294.2</ele>
        <time>2024-07-25T07:01:21Z</time>
      </trkpt>
      <trkpt lat="43.6039" lon="3.36265">
        <ele>294.1</ele>
        <time>2024-07-25T07:01:22Z</time>
      </trkpt>
      <trkpt lat="43.60391" lon="3.3626">
        <ele>294.1</ele>
        <time>2024-07-25T07:01:23Z</time>
      </trkpt>
      <trkpt lat="43.60391" lon="3.36255">
        <ele>294.3</ele>
        <time>2024-07-25T07:01:24Z</time>
      </trkpt>
      <trkpt lat="43.60392" lon="3.36251">
        <ele>294.2</ele>
        <time>2024-07-25T07:01:25Z</time>
      </trkpt>
      <trkpt lat="43.60392" lon="3.36246">
        <ele>294.5</ele>
        <time>2024-07-25T07:01:26Z</time>
      </trkpt>
      <trkpt lat="43.60393" lon="3.36242">
        <ele>294.5</ele>
        <time>2024-07-25T07:01:27Z</time>
      </trkpt>
      <trkpt lat="43.60393" lon="3.36237">
        <ele>294.8</ele>
        <time>2024-07-25T07:01:28Z</time>
      </trkpt>
      <trkpt lat="43.60394" lon="3.36233">
        <ele>294.8</ele>
        <time>2024-07-25T07:01:29Z</time>
      </trkpt>
      <trkpt lat="43.60394" lon="3.36228">
        <ele>295.2</ele>
        <time>2024-07-25T07:01:30Z</time>
      </trkpt>
      <trkpt lat="43.60394" lon="3.36224">
        <ele>295.4</ele>
        <time>2024-07-25T07:01:31Z</time>
      </trkpt>
      <trkpt lat="43.60395" lon="3.36219">
        <ele>295.5</ele>
        <time>2024-07-25T07:01:32Z</time>
      </trkpt>
      <trkpt lat="43.60395" lon="3.36214">
        <ele>295.8</ele>
        <time>2024-07-25T07:01:33Z</time>
      </trkpt>
      <trkpt lat="43.60396" lon="3.3621">
        <ele>295.8</ele>
        <time>2024-07-25T07:01:34Z</time>
      </trkpt>
      <trkpt lat="43.60396" lon="3.36205">
        <ele>296.2</ele>
        <time>2024-07-25T07:01:35Z</time>
      </trkpt>
      <trkpt lat="43.60396" lon="3.362">
        <ele>296.6</ele>
        <time>2024-07-25T07:01:36Z</time>
      </trkpt>
      <trkpt lat="43.60397" lon="3.36196">
        <ele>296.6</ele>
        <time>2024-07-25T07:01:37Z</time>
      </trkpt>
      <trkpt lat="43.60397" lon="3.36191">
        <ele>296.7</ele>
        <time>2024-07-25T07:01:38Z</time>
      </trkpt>
      <trkpt lat="43.60397" lon="3.36187">
        <ele>296.7</ele>
        <time>2024-07-25T07:01:39Z</time>
      </trkpt>
      <trkpt lat="43.60397" lon="3.36182">
        <ele>296.7</ele>
        <time>2024-07-25T07:01:40Z</time>
      </trkpt>
      <trkpt lat="43.60397" lon="3.36177">
        <ele>296.7</ele>
        <time>2024-07-25T07:01:41Z</time>
      </trkpt>
      <trkpt lat="43.60396" lon="3.36173">
        <ele>297</ele>
        <time>2024-07-25T07:01:42Z</time>
      </trkpt>
      <trkpt lat="43.60396" lon="3.36168">
        <ele>297</ele>
        <time>2024-07-25T07:01:43Z</time>
      </trkpt>
      <trkpt lat="43.60395" lon="3.36163">
        <ele>297.2</ele>
        <time>2024-07-25T07:01:44Z</time>
      </trkpt>
      <trkpt lat="43.60395" lon="3.36159">
        <ele>297.2</ele>
        <time>2024-07-25T07:01:45Z</time>
      </trkpt>
      <trkpt lat="43.60394" lon="3.36154">
        <ele>297.5</ele>
        <time>2024-07-25T07:01:46Z</time>
      </trkpt>
      <trkpt lat="43.60394" lon="3.36149">
        <ele>297.5</ele>
        <time>2024-07-25T07:01:47Z</time>
      </trkpt>
      <trkpt lat="43.60393" lon="3.36145">
        <ele>297.8</ele>
        <time>2024-07-25T07:01:48Z</time>
      </trkpt>
      <trkpt lat="43.60393" lon="3.3614">
        <ele>297.8</ele>
        <time>2024-07-25T07:01:49Z</time>
      </trkpt>
      <trkpt lat="43.60392" lon="3.36136">
        <ele>297.9</ele>
        <time>2024-07-25T07:01:50Z</time>
      </trkpt>
      <trkpt lat="43.60391" lon="3.36131">
        <ele>297.8</ele>
        <time>2024-07-25T07:01:51Z</time>
      </trkpt>
      <trkpt lat="43.60389" lon="3.36126">
        <ele>298</ele>
        <time>2024-07-25T07:01:52Z</time>
      </trkpt>
      <trkpt lat="43.60388" lon="3.36121">
        <ele>298</ele>
        <time>2024-07-25T07:01:53Z</time>
      </trkpt>
      <trkpt lat="43.60386" lon="3.36116">
        <ele>298.1</ele>
        <time>2024-07-25T07:01:54Z</time>
      </trkpt>
      <trkpt lat="43.60384" lon="3.36111">
        <ele>298.2</ele>
        <time>2024-07-25T07:01:55Z</time>
      </trkpt>
      <trkpt lat="43.60382" lon="3.36107">
        <ele>298</ele>
        <time>2024-07-25T07:01:56Z</time>
      </trkpt>
      <trkpt lat="43.60379" lon="3.36103">
        <ele>298</ele>
        <time>2024-07-25T07:01:57Z</time>
      </trkpt>
      <trkpt lat="43.60376" lon="3.36099">
        <ele>298.1</ele>
        <time>2024-07-25T07:01:58Z</time>
      </trkpt>
      <trkpt lat="43.60373" lon="3.36096">
        <ele>298.3</ele>
        <time>2024-07-25T07:01:59Z</time>
      </trkpt>
      <trkpt lat="43.6037" lon="3.36093">
        <ele>298.5</ele>
        <time>2024-07-25T07:02:00Z</time>
      </trkpt>
      <trkpt lat="43.60368" lon="3.3609">
        <ele>298.5</ele>
        <time>2024-07-25T07:02:01Z</time>
      </trkpt>
      <trkpt lat="43.60365" lon="3.36087">
        <ele>298.7</ele>
        <time>2024-07-25T07:02:02Z</time>
      </trkpt>
      <trkpt lat="43.60362" lon="3.36085">
        <ele>299.1</ele>
        <time>2024-07-25T07:02:03Z</time>
      </trkpt>
      <trkpt lat="43.60359" lon="3.36082">
        <ele>299.1</ele>
        <time>2024-07-25T07:02:04Z</time>
      </trkpt>
      <trkpt lat="43.60355" lon="3.3608">
        <ele>299.3</ele>
        <time>2024-07-25T07:02:05Z</time>
      </trkpt>
      <trkpt lat="43.60352" lon="3.36078">
        <ele>299.5</ele>
        <time>2024-07-25T07:02:06Z</time>
      </trkpt>
      <trkpt lat="43.60349" lon="3.36076">
        <ele>299.7</ele>
        <time>2024-07-25T07:02:07Z</time>
      </trkpt>
      <trkpt lat="43.60345" lon="3.36074">
        <ele>300</ele>
        <time>2024-07-25T07:02:08Z</time>
      </trkpt>
      <trkpt lat="43.60342" lon="3.36071">
        <ele>300.1</ele>
        <time>2024-07-25T07:02:09Z</time>
      </trkpt>
      <trkpt lat="43.60339" lon="3.36068">
        <ele>300.3</ele>
        <time>2024-07-25T07:02:10Z</time>
      </trkpt>
      <trkpt lat="43.60335" lon="3.36065">
        <ele>300.7</ele>
        <time>2024-07-25T07:02:11Z</time>
      </trkpt>
      <trkpt lat="43.60333" lon="3.36062">
        <ele>300.7</ele>
        <time>2024-07-25T07:02:12Z</time>
      </trkpt>
      <trkpt lat="43.60331" lon="3.36059">
        <ele>300.5</ele>
        <time>2024-07-25T07:02:13Z</time>
      </trkpt>
      <trkpt lat="43.6033" lon="3.36055">
        <ele>300.1</ele>
        <time>2024-07-25T07:02:14Z</time>
      </trkpt>
      <trkpt lat="43.60329" lon="3.36051">
        <ele>299.9</ele>
        <time>2024-07-25T07:02:15Z</time>
      </trkpt>
      <trkpt lat="43.60328" lon="3.36048">
        <ele>299.8</ele>
        <time>2024-07-25T07:02:16Z</time>
      </trkpt>
      <trkpt lat="43.60328" lon="3.36044">
        <ele>299.5</ele>
        <time>2024-07-25T07:02:17Z</time>
      </trkpt>
      <trkpt lat="43.60327" lon="3.36042">
        <ele>299.5</ele>
        <time>2024-07-25T07:02:18Z</time>
      </trkpt>
      <trkpt lat="43.60328" lon="3.3604">
        <ele>299.3</ele>
        <time>2024-07-25T07:02:19Z</time>
      </trkpt>
      <trkpt lat="43.60329" lon="3.36038">
        <ele>299.1</ele>
        <time>2024-07-25T07:02:20Z</time>
      </trkpt>
      <trkpt lat="43.60329" lon="3.36036">
        <ele>299</ele>
        <time>2024-07-25T07:02:21Z</time>
      </trkpt>
      <trkpt lat="43.60328" lon="3.36035">
        <ele>299</ele>
        <time>2024-07-25T07:02:22Z</time>
      </trkpt>
      <trkpt lat="43.60327" lon="3.36034">
        <ele>299</ele>
        <time>2024-07-25T07:02:23Z</time>
      </trkpt>
      <trkpt lat="43.60326" lon="3.36035">
        <ele>299.2</ele>
        <time>2024-07-25T07:02:24Z</time>
      </trkpt>
      <trkpt lat="43.60325" lon="3.36037">
        <ele>299.4</ele>
        <time>2024-07-25T07:02:25Z</time>
      </trkpt>
      <trkpt lat="43.60325" lon="3.36039">
        <ele>299.5</ele>
        <time>2024-07-25T07:02:26Z</time>
      </trkpt>
      <trkpt lat="43.60324" lon="3.36042">
        <ele>299.7</ele>
        <time>2024-07-25T07:02:27Z</time>
      </trkpt>
      <trkpt lat="43.60323" lon="3.36045">
        <ele>299.9</ele>
        <time>2024-07-25T07:02:28Z</time>
      </trkpt>
      <trkpt lat="43.60322" lon="3.36047">
        <ele>300</ele>
        <time>2024-07-25T07:02:29Z</time>
      </trkpt>
      <trkpt lat="43.60319" lon="3.36049">
        <ele>300.3</ele>
        <time>2024-07-25T07:02:30Z</time>
      </trkpt>
      <trkpt lat="43.60317" lon="3.36051">
        <ele>300.5</ele>
        <time>2024-07-25T07:02:31Z</time>
      </trkpt>
      <trkpt lat="43.60315" lon="3.36052">
        <ele>300.6</ele>
        <time>2024-07-25T07:02:32Z</time>
      </trkpt>
      <trkpt lat="43.60312" lon="3.36054">
        <ele>300.7</ele>
        <time>2024-07-25T07:02:33Z</time>
      </trkpt>
      <trkpt lat="43.60309" lon="3.36055">
        <ele>300.9</ele>
        <time>2024-07-25T07:02:34Z</time>
      </trkpt>
      <trkpt lat="43.60306" lon="3.36056">
        <ele>301</ele>
        <time>2024-07-25T07:02:35Z</time>
      </trkpt>
      <trkpt lat="43.60303" lon="3.36058">
        <ele>301.4</ele>
        <time>2024-07-25T07:02:36Z</time>
      </trkpt>
      <trkpt lat="43.60302" lon="3.36061">
        <ele>301.9</ele>
        <time>2024-07-25T07:02:37Z</time>
      </trkpt>
      <trkpt lat="43.603" lon="3.36064">
        <ele>302.3</ele>
        <time>2024-07-25T07:02:38Z</time>
      </trkpt>
      <trkpt lat="43.60297" lon="3.36067">
        <ele>302.7</ele>
        <time>2024-07-25T07:02:39Z</time>
      </trkpt>
      <trkpt lat="43.60294" lon="3.36069">
        <ele>302.9</ele>
        <time>2024-07-25T07:02:40Z</time>
      </trkpt>
      <trkpt lat="43.60291" lon="3.36071">
        <ele>303.2</ele>
        <time>2024-07-25T07:02:41Z</time>
      </trkpt>
      <trkpt lat="43.60289" lon="3.36073">
        <ele>303.4</ele>
        <time>2024-07-25T07:02:42Z</time>
      </trkpt>
      <trkpt lat="43.60286" lon="3.36073">
        <ele>303.3</ele>
        <time>2024-07-25T07:02:43Z</time>
      </trkpt>
      <trkpt lat="43.60283" lon="3.36072">
        <ele>303.2</ele>
        <time>2024-07-25T07:02:44Z</time>
      </trkpt>
      <trkpt lat="43.6028" lon="3.36071">
        <ele>303.1</ele>
        <time>2024-07-25T07:02:45Z</time>
      </trkpt>
      <trkpt lat="43.60278" lon="3.36071">
        <ele>303.1</ele>
        <time>2024-07-25T07:02:46Z</time>
      </trkpt>
      <trkpt lat="43.60275" lon="3.36071">
        <ele>303.2</ele>
        <time>2024-07-25T07:02:47Z</time>
      </trkpt>
      <trkpt lat="43.60273" lon="3.3607">
        <ele>303.2</ele>
        <time>2024-07-25T07:02:48Z</time>
      </trkpt>
      <trkpt lat="43.60271" lon="3.3607">
        <ele>303.3</ele>
        <time>2024-07-25T07:02:49Z</time>
      </trkpt>
      <trkpt lat="43.60269" lon="3.36071">
        <ele>303.4</ele>
        <time>2024-07-25T07:02:50Z</time>
      </trkpt>
      <trkpt lat="43.60267" lon="3.36073">
        <ele>303.5</ele>
        <time>2024-07-25T07:02:51Z</time>
      </trkpt>
      <trkpt lat="43.60266" lon="3.36074">
        <ele>303.6</ele>
        <time>2024-07-25T07:02:52Z</time>
      </trkpt>
      <trkpt lat="43.60265" lon="3.36076">
        <ele>303.7</ele>
        <time>2024-07-25T07:02:53Z</time>
      </trkpt>
      <trkpt lat="43.60264" lon="3.36078">
        <ele>303.8</ele>
        <time>2024-07-25T07:02:54Z</time>
      </trkpt>
      <trkpt lat="43.60264" lon="3.36081">
        <ele>303.9</ele>
        <time>2024-07-25T07:02:55Z</time>
      </trkpt>
      <trkpt lat="43.60263" lon="3.36084">
        <ele>304</ele>
        <time>2024-07-25T07:02:56Z</time>
      </trkpt>
      <trkpt lat="43.60262" lon="3.36087">
        <ele>304.1</ele>
        <time>2024-07-25T07:02:57Z</time>
      </trkpt>
      <trkpt lat="43.60261" lon="3.3609">
        <ele>304.1</ele>
        <time>2024-07-25T07:02:58Z</time>
      </trkpt>
      <trkpt lat="43.6026" lon="3.36093">
        <ele>304.2</ele>
        <time>2024-07-25T07:02:59Z</time>
      </trkpt>
      <trkpt lat="43.60259" lon="3.36096">
        <ele>304.1</ele>
        <time>2024-07-25T07:03:00Z</time>
      </trkpt>
      <trkpt lat="43.60258" lon="3.36098">
        <ele>304.1</ele>
        <time>2024-07-25T07:03:01Z</time>
      </trkpt>
      <trkpt lat="43.60258" lon="3.361">
        <ele>304.1</ele>
        <time>2024-07-25T07:03:02Z</time>
      </trkpt>
      <trkpt lat="43.60257" lon="3.36103">
        <ele>304</ele>
        <time>2024-07-25T07:03:03Z</time>
      </trkpt>
      <trkpt lat="43.60256" lon="3.36107">
        <ele>303.9</ele>
        <time>2024-07-25T07:03:04Z</time>
      </trkpt>
      <trkpt lat="43.60254" lon="3.36109">
        <ele>303.6</ele>
        <time>2024-07-25T07:03:05Z</time>
      </trkpt>
      <trkpt lat="43.60252" lon="3.36111">
        <ele>303.3</ele>
        <time>2024-07-25T07:03:06Z</time>
      </trkpt>
      <trkpt lat="43.60249" lon="3.36113">
        <ele>302.8</ele>
        <time>2024-07-25T07:03:07Z</time>
      </trkpt>
      <trkpt lat="43.60247" lon="3.36114">
        <ele>302.5</ele>
        <time>2024-07-25T07:03:08Z</time>
      </trkpt>
      <trkpt lat="43.60245" lon="3.36115">
        <ele>302.2</ele>
        <time>2024-07-25T07:03:09Z</time>
      </trkpt>
      <trkpt lat="43.60243" lon="3.36115">
        <ele>302</ele>
        <time>2024-07-25T07:03:10Z</time>
      </trkpt>
      <trkpt lat="43.60241" lon="3.36115">
        <ele>301.8</ele>
        <time>2024-07-25T07:03:11Z</time>
      </trkpt>
      <trkpt lat="43.60239" lon="3.36115">
        <ele>301.5</ele>
        <time>2024-07-25T07:03:12Z</time>
      </trkpt>
      <trkpt lat="43.60237" lon="3.36115">
        <ele>301.3</ele>
        <time>2024-07-25T07:03:13Z</time>
      </trkpt>
      <trkpt lat="43.60235" lon="3.36116">
        <ele>300.9</ele>
        <time>2024-07-25T07:03:14Z</time>
      </trkpt>
      <trkpt lat="43.60232" lon="3.36117">
        <ele>300.4</ele>
        <time>2024-07-25T07:03:15Z</time>
      </trkpt>
      <trkpt lat="43.6023" lon="3.36117">
        <ele>300.2</ele>
        <time>2024-07-25T07:03:16Z</time>
      </trkpt>
      <trkpt lat="43.60228" lon="3.36118">
        <ele>299.8</ele>
        <time>2024-07-25T07:03:17Z</time>
      </trkpt>
      <trkpt lat="43.60226" lon="3.36118">
        <ele>299.5</ele>
        <time>2024-07-25T07:03:18Z</time>
      </trkpt>
      <trkpt lat="43.60225" lon="3.36118">
        <ele>299.4</ele>
        <time>2024-07-25T07:03:19Z</time>
      </trkpt>
      <trkpt lat="43.60225" lon="3.36118">
        <ele>299.4</ele>
        <time>2024-07-25T07:03:20Z</time>
      </trkpt>
      <trkpt lat="43.60225" lon="3.36118">
        <ele>299.4</ele>
        <time>2024-07-25T07:03:21Z</time>
      </trkpt>
      <trkpt lat="43.60221" lon="3.36122">
        <ele>298.2</ele>
        <time>2024-07-25T07:03:28Z</time>
      </trkpt>
      <trkpt lat="43.60219" lon="3.36124">
        <ele>297.6</ele>
        <time>2024-07-25T07:03:29Z</time>
      </trkpt>
      <trkpt lat="43.60217" lon="3.36125">
        <ele>297.1</ele>
        <time>2024-07-25T07:03:30Z</time>
      </trkpt>
      <trkpt lat="43.60216" lon="3.36127">
        <ele>296.5</ele>
        <time>2024-07-25T07:03:31Z</time>
      </trkpt>
      <trkpt lat="43.60214" lon="3.36128">
        <ele>296</ele>
        <time>2024-07-25T07:03:32Z</time>
      </trkpt>
      <trkpt lat="43.60212" lon="3.3613">
        <ele>295.2</ele>
        <time>2024-07-25T07:03:33Z</time>
      </trkpt>
      <trkpt lat="43.6021" lon="3.36131">
        <ele>294.6</ele>
        <time>2024-07-25T07:03:34Z</time>
      </trkpt>
      <trkpt lat="43.60207" lon="3.36132">
        <ele>293.7</ele>
        <time>2024-07-25T07:03:35Z</time>
      </trkpt>
      <trkpt lat="43.60205" lon="3.36133">
        <ele>293</ele>
        <time>2024-07-25T07:03:36Z</time>
      </trkpt>
      <trkpt lat="43.60202" lon="3.36136">
        <ele>291.6</ele>
        <time>2024-07-25T07:03:37Z</time>
      </trkpt>
      <trkpt lat="43.602" lon="3.36138">
        <ele>290.6</ele>
        <time>2024-07-25T07:03:38Z</time>
      </trkpt>
      <trkpt lat="43.60198" lon="3.36139">
        <ele>289.9</ele>
        <time>2024-07-25T07:03:39Z</time>
      </trkpt>
      <trkpt lat="43.60195" lon="3.3614">
        <ele>288.8</ele>
        <time>2024-07-25T07:03:40Z</time>
      </trkpt>
      <trkpt lat="43.60193" lon="3.36141">
        <ele>288.2</ele>
        <time>2024-07-25T07:03:41Z</time>
      </trkpt>
      <trkpt lat="43.6019" lon="3.36143">
        <ele>287.3</ele>
        <time>2024-07-25T07:03:42Z</time>
      </trkpt>
      <trkpt lat="43.60186" lon="3.36144">
        <ele>286.4</ele>
        <time>2024-07-25T07:03:43Z</time>
      </trkpt>
      <trkpt lat="43.60182" lon="3.36145">
        <ele>285.6</ele>
        <time>2024-07-25T07:03:44Z</time>
      </trkpt>
      <trkpt lat="43.60178" lon="3.36146">
        <ele>284.7</ele>
        <time>2024-07-25T07:03:45Z</time>
      </trkpt>
      <trkpt lat="43.60174" lon="3.36146">
        <ele>284.2</ele>
        <time>2024-07-25T07:03:46Z</time>
      </trkpt>
      <trkpt lat="43.6017" lon="3.36147">
        <ele>283.3</ele>
        <time>2024-07-25T07:03:47Z</time>
      </trkpt>
      <trkpt lat="43.60166" lon="3.36147">
        <ele>282.8</ele>
        <time>2024-07-25T07:03:48Z</time>
      </trkpt>
      <trkpt lat="43.60163" lon="3.36148">
        <ele>282.4</ele>
        <time>2024-07-25T07:03:49Z</time>
      </trkpt>
      <trkpt lat="43.60159" lon="3.36149">
        <ele>282</ele>
        <time>2024-07-25T07:03:50Z</time>
      </trkpt>
      <trkpt lat="43.60157" lon="3.3615">
        <ele>281.6</ele>
        <time>2024-07-25T07:03:51Z</time>
      </trkpt>
      <trkpt lat="43.60154" lon="3.36151">
        <ele>281.2</ele>
        <time>2024-07-25T07:03:52Z</time>
      </trkpt>
      <trkpt lat="43.60151" lon="3.36151">
        <ele>281.2</ele>
        <time>2024-07-25T07:03:53Z</time>
      </trkpt>
      <trkpt lat="43.60148" lon="3.36152">
        <ele>280.8</ele>
        <time>2024-07-25T07:03:54Z</time>
      </trkpt>
      <trkpt lat="43.60145" lon="3.36153">
        <ele>280.4</ele>
        <time>2024-07-25T07:03:55Z</time>
      </trkpt>
      <trkpt lat="43.60141" lon="3.36154">
        <ele>280</ele>
        <time>2024-07-25T07:03:56Z</time>
      </trkpt>
      <trkpt lat="43.60138" lon="3.36154">
        <ele>280.1</ele>
        <time>2024-07-25T07:03:57Z</time>
      </trkpt>
      <trkpt lat="43.60135" lon="3.36155">
        <ele>280</ele>
        <time>2024-07-25T07:03:58Z</time>
      </trkpt>
      <trkpt lat="43.60131" lon="3.36156">
        <ele>280.1</ele>
        <time>2024-07-25T07:03:59Z</time>
      </trkpt>
      <trkpt lat="43.60128" lon="3.36157">
        <ele>280</ele>
        <time>2024-07-25T07:04:00Z</time>
      </trkpt>
      <trkpt lat="43.60125" lon="3.36158">
        <ele>279.9</ele>
        <time>2024-07-25T07:04:01Z</time>
      </trkpt>
      <trkpt lat="43.60121" lon="3.36159">
        <ele>280</ele>
        <time>2024-07-25T07:04:02Z</time>
      </trkpt>
      <trkpt lat="43.60118" lon="3.3616">
        <ele>279.9</ele>
        <time>2024-07-25T07:04:03Z</time>
      </trkpt>
      <trkpt lat="43.60116" lon="3.3616">
        <ele>280.1</ele>
        <time>2024-07-25T07:04:04Z</time>
      </trkpt>
      <trkpt lat="43.60113" lon="3.36161">
        <ele>280</ele>
        <time>2024-07-25T07:04:05Z</time>
      </trkpt>
      <trkpt lat="43.60111" lon="3.36163">
        <ele>279.5</ele>
        <time>2024-07-25T07:04:06Z</time>
      </trkpt>
      <trkpt lat="43.60108" lon="3.36164">
        <ele>279.5</ele>
        <time>2024-07-25T07:04:07Z</time>
      </trkpt>
      <trkpt lat="43.60105" lon="3.36166">
        <ele>279.1</ele>
        <time>2024-07-25T07:04:08Z</time>
      </trkpt>
      <trkpt lat="43.60102" lon="3.36168">
        <ele>278.8</ele>
        <time>2024-07-25T07:04:09Z</time>
      </trkpt>
      <trkpt lat="43.60099" lon="3.3617">
        <ele>278.5</ele>
        <time>2024-07-25T07:04:10Z</time>
      </trkpt>
      <trkpt lat="43.60096" lon="3.36172">
        <ele>278.2</ele>
        <time>2024-07-25T07:04:11Z</time>
      </trkpt>
      <trkpt lat="43.60093" lon="3.36174">
        <ele>277.8</ele>
        <time>2024-07-25T07:04:12Z</time>
      </trkpt>
      <trkpt lat="43.60091" lon="3.36175">
        <ele>277.7</ele>
        <time>2024-07-25T07:04:13Z</time>
      </trkpt>
      <trkpt lat="43.60089" lon="3.36176">
        <ele>277.6</ele>
        <time>2024-07-25T07:04:14Z</time>
      </trkpt>
      <trkpt lat="43.60087" lon="3.36177">
        <ele>277.4</ele>
        <time>2024-07-25T07:04:15Z</time>
      </trkpt>
      <trkpt lat="43.60085" lon="3.36179">
        <ele>276.9</ele>
        <time>2024-07-25T07:04:16Z</time>
      </trkpt>
      <trkpt lat="43.60083" lon="3.36182">
        <ele>275.9</ele>
        <time>2024-07-25T07:04:17Z</time>
      </trkpt>
      <trkpt lat="43.6008" lon="3.36185">
        <ele>274.9</ele>
        <time>2024-07-25T07:04:18Z</time>
      </trkpt>
      <trkpt lat="43.60077" lon="3.36187">
        <ele>274.2</ele>
        <time>2024-07-25T07:04:19Z</time>
      </trkpt>
      <trkpt lat="43.60074" lon="3.36189">
        <ele>273.5</ele>
        <time>2024-07-25T07:04:20Z</time>
      </trkpt>
      <trkpt lat="43.60071" lon="3.36192">
        <ele>272.4</ele>
        <time>2024-07-25T07:04:21Z</time>
      </trkpt>
      <trkpt lat="43.60068" lon="3.36195">
        <ele>271.3</ele>
        <time>2024-07-25T07:04:22Z</time>
      </trkpt>
      <trkpt lat="43.60064" lon="3.36198">
        <ele>270.3</ele>
        <time>2024-07-25T07:04:23Z</time>
      </trkpt>
      <trkpt lat="43.60061" lon="3.362">
        <ele>269.6</ele>
        <time>2024-07-25T07:04:24Z</time>
      </trkpt>
      <trkpt lat="43.60058" lon="3.36203">
        <ele>268.5</ele>
        <time>2024-07-25T07:04:25Z</time>
      </trkpt>
      <trkpt lat="43.60055" lon="3.36206">
        <ele>267.4</ele>
        <time>2024-07-25T07:04:26Z</time>
      </trkpt>
      <trkpt lat="43.60052" lon="3.36209">
        <ele>266.2</ele>
        <time>2024-07-25T07:04:27Z</time>
      </trkpt>
      <trkpt lat="43.60048" lon="3.36212">
        <ele>264.9</ele>
        <time>2024-07-25T07:04:28Z</time>
      </trkpt>
      <trkpt lat="43.60043" lon="3.36214">
        <ele>264.1</ele>
        <time>2024-07-25T07:04:29Z</time>
      </trkpt>
      <trkpt lat="43.60038" lon="3.36215">
        <ele>263.7</ele>
        <time>2024-07-25T07:04:30Z</time>
      </trkpt>
      <trkpt lat="43.60033" lon="3.36216">
        <ele>263.3</ele>
        <time>2024-07-25T07:04:31Z</time>
      </trkpt>
      <trkpt lat="43.60027" lon="3.36217">
        <ele>262.9</ele>
        <time>2024-07-25T07:04:32Z</time>
      </trkpt>
      <trkpt lat="43.60022" lon="3.36218">
        <ele>262.3</ele>
        <time>2024-07-25T07:04:33Z</time>
      </trkpt>
      <trkpt lat="43.60018" lon="3.36218">
        <ele>262.2</ele>
        <time>2024-07-25T07:04:34Z</time>
      </trkpt>
      <trkpt lat="43.60014" lon="3.36219">
        <ele>261.7</ele>
        <time>2024-07-25T07:04:35Z</time>
      </trkpt>
      <trkpt lat="43.60009" lon="3.3622">
        <ele>261.1</ele>
        <time>2024-07-25T07:04:36Z</time>
      </trkpt>
      <trkpt lat="43.60006" lon="3.36221">
        <ele>260.7</ele>
        <time>2024-07-25T07:04:37Z</time>
      </trkpt>
      <trkpt lat="43.60002" lon="3.36222">
        <ele>260.2</ele>
        <time>2024-07-25T07:04:38Z</time>
      </trkpt>
      <trkpt lat="43.59999" lon="3.36222">
        <ele>259.9</ele>
        <time>2024-07-25T07:04:39Z</time>
      </trkpt>
      <trkpt lat="43.59995" lon="3.36221">
        <ele>259.7</ele>
        <time>2024-07-25T07:04:40Z</time>
      </trkpt>
      <trkpt lat="43.59992" lon="3.36221">
        <ele>259.3</ele>
        <time>2024-07-25T07:04:41Z</time>
      </trkpt>
      <trkpt lat="43.59989" lon="3.36221">
        <ele>258.9</ele>
        <time>2024-07-25T07:04:42Z</time>
      </trkpt>
      <trkpt lat="43.59986" lon="3.36221">
        <ele>258.4</ele>
        <time>2024-07-25T07:04:43Z</time>
      </trkpt>
      <trkpt lat="43.59984" lon="3.36221">
        <ele>258.2</ele>
        <time>2024-07-25T07:04:44Z</time>
      </trkpt>
      <trkpt lat="43.59981" lon="3.36221">
        <ele>257.7</ele>
        <time>2024-07-25T07:04:45Z</time>
      </trkpt>
      <trkpt lat="43.59979" lon="3.36222">
        <ele>257.1</ele>
        <time>2024-07-25T07:04:46Z</time>
      </trkpt>
      <trkpt lat="43.59976" lon="3.36222">
        <ele>256.6</ele>
        <time>2024-07-25T07:04:47Z</time>
      </trkpt>
      <trkpt lat="43.59974" lon="3.36222">
        <ele>256.3</ele>
        <time>2024-07-25T07:04:48Z</time>
      </trkpt>
      <trkpt lat="43.59971" lon="3.36222">
        <ele>255.9</ele>
        <time>2024-07-25T07:04:49Z</time>
      </trkpt>
      <trkpt lat="43.59968" lon="3.36222">
        <ele>255.5</ele>
        <time>2024-07-25T07:04:50Z</time>
      </trkpt>
      <trkpt lat="43.59965" lon="3.36223">
        <ele>254.7</ele>
        <time>2024-07-25T07:04:51Z</time>
      </trkpt>
      <trkpt lat="43.59962" lon="3.36224">
        <ele>253.9</ele>
        <time>2024-07-25T07:04:52Z</time>
      </trkpt>
      <trkpt lat="43.59958" lon="3.36224">
        <ele>253.3</ele>
        <time>2024-07-25T07:04:53Z</time>
      </trkpt>
      <trkpt lat="43.59955" lon="3.36224">
        <ele>252.9</ele>
        <time>2024-07-25T07:04:54Z</time>
      </trkpt>
      <trkpt lat="43.59951" lon="3.36224">
        <ele>252.3</ele>
        <time>2024-07-25T07:04:55Z</time>
      </trkpt>
      <trkpt lat="43.59948" lon="3.36223">
        <ele>252.2</ele>
        <time>2024-07-25T07:04:56Z</time>
      </trkpt>
      <trkpt lat="43.59946" lon="3.36222">
        <ele>252.3</ele>
        <time>2024-07-25T07:04:57Z</time>
      </trkpt>
      <trkpt lat="43.59943" lon="3.36222">
        <ele>251.8</ele>
        <time>2024-07-25T07:04:58Z</time>
      </trkpt>
      <trkpt lat="43.59941" lon="3.36221">
        <ele>251.7</ele>
        <time>2024-07-25T07:04:59Z</time>
      </trkpt>
      <trkpt lat="43.59938" lon="3.36221">
        <ele>251</ele>
        <time>2024-07-25T07:05:00Z</time>
      </trkpt>
      <trkpt lat="43.59935" lon="3.36221">
        <ele>250.4</ele>
        <time>2024-07-25T07:05:01Z</time>
      </trkpt>
      <trkpt lat="43.59932" lon="3.3622">
        <ele>250.1</ele>
        <time>2024-07-25T07:05:02Z</time>
      </trkpt>
      <trkpt lat="43.59929" lon="3.36219">
        <ele>249.8</ele>
        <time>2024-07-25T07:05:03Z</time>
      </trkpt>
      <trkpt lat="43.59927" lon="3.36217">
        <ele>250</ele>
        <time>2024-07-25T07:05:04Z</time>
      </trkpt>
      <trkpt lat="43.59925" lon="3.36215">
        <ele>250.2</ele>
        <time>2024-07-25T07:05:05Z</time>
      </trkpt>
      <trkpt lat="43.59923" lon="3.36214">
        <ele>250.1</ele>
        <time>2024-07-25T07:05:06Z</time>
      </trkpt>
      <trkpt lat="43.5992" lon="3.36214">
        <ele>249.4</ele>
        <time>2024-07-25T07:05:07Z</time>
      </trkpt>
      <trkpt lat="43.59917" lon="3.36214">
        <ele>248.7</ele>
        <time>2024-07-25T07:05:08Z</time>
      </trkpt>
      <trkpt lat="43.59914" lon="3.36213">
        <ele>248.2</ele>
        <time>2024-07-25T07:05:09Z</time>
      </trkpt>
      <trkpt lat="43.59911" lon="3.36212">
        <ele>247.7</ele>
        <time>2024-07-25T07:05:10Z</time>
      </trkpt>
      <trkpt lat="43.59908" lon="3.36211">
        <ele>247.1</ele>
        <time>2024-07-25T07:05:11Z</time>
      </trkpt>
      <trkpt lat="43.59905" lon="3.36209">
        <ele>246.9</ele>
        <time>2024-07-25T07:05:12Z</time>
      </trkpt>
      <trkpt lat="43.59903" lon="3.36207">
        <ele>247</ele>
        <time>2024-07-25T07:05:13Z</time>
      </trkpt>
      <trkpt lat="43.59902" lon="3.36205">
        <ele>247.4</ele>
        <time>2024-07-25T07:05:14Z</time>
      </trkpt>
      <trkpt lat="43.599" lon="3.36203">
        <ele>247.4</ele>
        <time>2024-07-25T07:05:15Z</time>
      </trkpt>
      <trkpt lat="43.59899" lon="3.36201">
        <ele>247.8</ele>
        <time>2024-07-25T07:05:16Z</time>
      </trkpt>
      <trkpt lat="43.59898" lon="3.36199">
        <ele>248.1</ele>
        <time>2024-07-25T07:05:17Z</time>
      </trkpt>
      <trkpt lat="43.59896" lon="3.36197">
        <ele>248.2</ele>
        <time>2024-07-25T07:05:18Z</time>
      </trkpt>
      <trkpt lat="43.59894" lon="3.36195">
        <ele>248.3</ele>
        <time>2024-07-25T07:05:19Z</time>
      </trkpt>
      <trkpt lat="43.59892" lon="3.36193">
        <ele>248.4</ele>
        <time>2024-07-25T07:05:20Z</time>
      </trkpt>
      <trkpt lat="43.5989" lon="3.3619">
        <ele>248.8</ele>
        <time>2024-07-25T07:05:21Z</time>
      </trkpt>
      <trkpt lat="43.59888" lon="3.36187">
        <ele>249.2</ele>
        <time>2024-07-25T07:05:22Z</time>
      </trkpt>
      <trkpt lat="43.59886" lon="3.36185">
        <ele>249.2</ele>
        <time>2024-07-25T07:05:23Z</time>
      </trkpt>
      <trkpt lat="43.59884" lon="3.36182">
        <ele>249.6</ele>
        <time>2024-07-25T07:05:24Z</time>
      </trkpt>
      <trkpt lat="43.59881" lon="3.3618">
        <ele>249.4</ele>
        <time>2024-07-25T07:05:25Z</time>
      </trkpt>
      <trkpt lat="43.59878" lon="3.36178">
        <ele>249.2</ele>
        <time>2024-07-25T07:05:26Z</time>
      </trkpt>
      <trkpt lat="43.59876" lon="3.36176">
        <ele>249.3</ele>
        <time>2024-07-25T07:05:27Z</time>
      </trkpt>
      <trkpt lat="43.59873" lon="3.36174">
        <ele>249</ele>
        <time>2024-07-25T07:05:28Z</time>
      </trkpt>
      <trkpt lat="43.59871" lon="3.36172">
        <ele>249.1</ele>
        <time>2024-07-25T07:05:29Z</time>
      </trkpt>
      <trkpt lat="43.59869" lon="3.36171">
        <ele>248.9</ele>
        <time>2024-07-25T07:05:30Z</time>
      </trkpt>
      <trkpt lat="43.59867" lon="3.36171">
        <ele>248.3</ele>
        <time>2024-07-25T07:05:31Z</time>
      </trkpt>
      <trkpt lat="43.59865" lon="3.3617">
        <ele>248</ele>
        <time>2024-07-25T07:05:32Z</time>
      </trkpt>
      <trkpt lat="43.59862" lon="3.36167">
        <ele>248.1</ele>
        <time>2024-07-25T07:05:33Z</time>
      </trkpt>
      <trkpt lat="43.59859" lon="3.36165">
        <ele>248.2</ele>
        <time>2024-07-25T07:05:34Z</time>
      </trkpt>
      <trkpt lat="43.59856" lon="3.36164">
        <ele>248</ele>
        <time>2024-07-25T07:05:35Z</time>
      </trkpt>
      <trkpt lat="43.59852" lon="3.36164">
        <ele>247.1</ele>
        <time>2024-07-25T07:05:36Z</time>
      </trkpt>
      <trkpt lat="43.59849" lon="3.36163">
        <ele>246.8</ele>
        <time>2024-07-25T07:05:37Z</time>
      </trkpt>
      <trkpt lat="43.59846" lon="3.36161">
        <ele>247</ele>
        <time>2024-07-25T07:05:38Z</time>
      </trkpt>
      <trkpt lat="43.59843" lon="3.3616">
        <ele>246.7</ele>
        <time>2024-07-25T07:05:39Z</time>
      </trkpt>
      <trkpt lat="43.59841" lon="3.36158">
        <ele>247.1</ele>
        <time>2024-07-25T07:05:40Z</time>
      </trkpt>
      <trkpt lat="43.59838" lon="3.36158">
        <ele>246.4</ele>
        <time>2024-07-25T07:05:41Z</time>
      </trkpt>
      <trkpt lat="43.59836" lon="3.36158">
        <ele>246</ele>
        <time>2024-07-25T07:05:42Z</time>
      </trkpt>
      <trkpt lat="43.59834" lon="3.36158">
        <ele>245.6</ele>
        <time>2024-07-25T07:05:43Z</time>
      </trkpt>
      <trkpt lat="43.59831" lon="3.36157">
        <ele>245.4</ele>
        <time>2024-07-25T07:05:44Z</time>
      </trkpt>
      <trkpt lat="43.59829" lon="3.36156">
        <ele>245.4</ele>
        <time>2024-07-25T07:05:45Z</time>
      </trkpt>
      <trkpt lat="43.59827" lon="3.36156">
        <ele>245.1</ele>
        <time>2024-07-25T07:05:46Z</time>
      </trkpt>
      <trkpt lat="43.59825" lon="3.36155">
        <ele>245.1</ele>
        <time>2024-07-25T07:05:47Z</time>
      </trkpt>
      <trkpt lat="43.59823" lon="3.36154">
        <ele>245.2</ele>
        <time>2024-07-25T07:05:48Z</time>
      </trkpt>
      <trkpt lat="43.59822" lon="3.36152">
        <ele>245.8</ele>
        <time>2024-07-25T07:05:49Z</time>
      </trkpt>
      <trkpt lat="43.5982" lon="3.36151">
        <ele>245.8</ele>
        <time>2024-07-25T07:05:50Z</time>
      </trkpt>
      <trkpt lat="43.59818" lon="3.36151">
        <ele>245.4</ele>
        <time>2024-07-25T07:05:51Z</time>
      </trkpt>
      <trkpt lat="43.59815" lon="3.3615">
        <ele>245.3</ele>
        <time>2024-07-25T07:05:52Z</time>
      </trkpt>
      <trkpt lat="43.59813" lon="3.36149">
        <ele>245.3</ele>
        <time>2024-07-25T07:05:53Z</time>
      </trkpt>
      <trkpt lat="43.59811" lon="3.36147">
        <ele>245.8</ele>
        <time>2024-07-25T07:05:54Z</time>
      </trkpt>
      <trkpt lat="43.59809" lon="3.36147">
        <ele>245.4</ele>
        <time>2024-07-25T07:05:55Z</time>
      </trkpt>
      <trkpt lat="43.59807" lon="3.36146">
        <ele>245.4</ele>
        <time>2024-07-25T07:05:56Z</time>
      </trkpt>
      <trkpt lat="43.59805" lon="3.36145">
        <ele>245.5</ele>
        <time>2024-07-25T07:05:57Z</time>
      </trkpt>
      <trkpt lat="43.59803" lon="3.36144">
        <ele>245.5</ele>
        <time>2024-07-25T07:05:58Z</time>
      </trkpt>
      <trkpt lat="43.59801" lon="3.36143">
        <ele>245.6</ele>
        <time>2024-07-25T07:05:59Z</time>
      </trkpt>
      <trkpt lat="43.59798" lon="3.36143">
        <ele>245.1</ele>
        <time>2024-07-25T07:06:00Z</time>
      </trkpt>
      <trkpt lat="43.59796" lon="3.36143">
        <ele>244.8</ele>
        <time>2024-07-25T07:06:01Z</time>
      </trkpt>
      <trkpt lat="43.59793" lon="3.36143">
        <ele>244.2</ele>
        <time>2024-07-25T07:06:02Z</time>
      </trkpt>
      <trkpt lat="43.5979" lon="3.36143">
        <ele>243.7</ele>
        <time>2024-07-25T07:06:03Z</time>
      </trkpt>
      <trkpt lat="43.59788" lon="3.36142">
        <ele>243.7</ele>
        <time>2024-07-25T07:06:04Z</time>
      </trkpt>
      <trkpt lat="43.59786" lon="3.36141">
        <ele>243.8</ele>
        <time>2024-07-25T07:06:05Z</time>
      </trkpt>
      <trkpt lat="43.59783" lon="3.36139">
        <ele>243.9</ele>
        <time>2024-07-25T07:06:06Z</time>
      </trkpt>
      <trkpt lat="43.59779" lon="3.36137">
        <ele>243.9</ele>
        <time>2024-07-25T07:06:07Z</time>
      </trkpt>
      <trkpt lat="43.59775" lon="3.36136">
        <ele>243.5</ele>
        <time>2024-07-25T07:06:08Z</time>
      </trkpt>
      <trkpt lat="43.59772" lon="3.36135">
        <ele>243.2</ele>
        <time>2024-07-25T07:06:09Z</time>
      </trkpt>
      <trkpt lat="43.5977" lon="3.36135">
        <ele>242.8</ele>
        <time>2024-07-25T07:06:10Z</time>
      </trkpt>
      <trkpt lat="43.59767" lon="3.36135">
        <ele>242.1</ele>
        <time>2024-07-25T07:06:11Z</time>
      </trkpt>
      <trkpt lat="43.59764" lon="3.36135">
        <ele>241.5</ele>
        <time>2024-07-25T07:06:12Z</time>
      </trkpt>
      <trkpt lat="43.5976" lon="3.36133">
        <ele>241.4</ele>
        <time>2024-07-25T07:06:13Z</time>
      </trkpt>
      <trkpt lat="43.59756" lon="3.36131">
        <ele>241.4</ele>
        <time>2024-07-25T07:06:14Z</time>
      </trkpt>
      <trkpt lat="43.59754" lon="3.3613">
        <ele>241.3</ele>
        <time>2024-07-25T07:06:15Z</time>
      </trkpt>
      <trkpt lat="43.59751" lon="3.36129">
        <ele>241.1</ele>
        <time>2024-07-25T07:06:16Z</time>
      </trkpt>
      <trkpt lat="43.59749" lon="3.36128">
        <ele>241.2</ele>
        <time>2024-07-25T07:06:17Z</time>
      </trkpt>
      <trkpt lat="43.59746" lon="3.36127">
        <ele>241.1</ele>
        <time>2024-07-25T07:06:18Z</time>
      </trkpt>
      <trkpt lat="43.59744" lon="3.36128">
        <ele>240.4</ele>
        <time>2024-07-25T07:06:19Z</time>
      </trkpt>
      <trkpt lat="43.59741" lon="3.36128">
        <ele>239.9</ele>
        <time>2024-07-25T07:06:20Z</time>
      </trkpt>
      <trkpt lat="43.59739" lon="3.36128">
        <ele>239.6</ele>
        <time>2024-07-25T07:06:21Z</time>
      </trkpt>
      <trkpt lat="43.59736" lon="3.36128">
        <ele>239.1</ele>
        <time>2024-07-25T07:06:22Z</time>
      </trkpt>
      <trkpt lat="43.59733" lon="3.36127">
        <ele>239</ele>
        <time>2024-07-25T07:06:23Z</time>
      </trkpt>
      <trkpt lat="43.59729" lon="3.36127">
        <ele>238.4</ele>
        <time>2024-07-25T07:06:24Z</time>
      </trkpt>
      <trkpt lat="43.59726" lon="3.36126">
        <ele>238.2</ele>
        <time>2024-07-25T07:06:25Z</time>
      </trkpt>
      <trkpt lat="43.59722" lon="3.36124">
        <ele>238.3</ele>
        <time>2024-07-25T07:06:26Z</time>
      </trkpt>
      <trkpt lat="43.59719" lon="3.36122">
        <ele>238.5</ele>
        <time>2024-07-25T07:06:27Z</time>
      </trkpt>
      <trkpt lat="43.59716" lon="3.36122">
        <ele>237.9</ele>
        <time>2024-07-25T07:06:28Z</time>
      </trkpt>
      <trkpt lat="43.59713" lon="3.36122">
        <ele>237.3</ele>
        <time>2024-07-25T07:06:29Z</time>
      </trkpt>
      <trkpt lat="43.59712" lon="3.36121">
        <ele>237.5</ele>
        <time>2024-07-25T07:06:30Z</time>
      </trkpt>
      <trkpt lat="43.5971" lon="3.3612">
        <ele>237.4</ele>
        <time>2024-07-25T07:06:31Z</time>
      </trkpt>
      <trkpt lat="43.59708" lon="3.36119">
        <ele>237.4</ele>
        <time>2024-07-25T07:06:32Z</time>
      </trkpt>
      <trkpt lat="43.59705" lon="3.36117">
        <ele>237.4</ele>
        <time>2024-07-25T07:06:33Z</time>
      </trkpt>
      <trkpt lat="43.59701" lon="3.36116">
        <ele>236.9</ele>
        <time>2024-07-25T07:06:34Z</time>
      </trkpt>
      <trkpt lat="43.59699" lon="3.36115">
        <ele>236.8</ele>
        <time>2024-07-25T07:06:35Z</time>
      </trkpt>
      <trkpt lat="43.59697" lon="3.36114">
        <ele>236.7</ele>
        <time>2024-07-25T07:06:36Z</time>
      </trkpt>
      <trkpt lat="43.59695" lon="3.36113">
        <ele>236.6</ele>
        <time>2024-07-25T07:06:37Z</time>
      </trkpt>
      <trkpt lat="43.59693" lon="3.36113">
        <ele>236.1</ele>
        <time>2024-07-25T07:06:38Z</time>
      </trkpt>
      <trkpt lat="43.5969" lon="3.3611">
        <ele>236.4</ele>
        <time>2024-07-25T07:06:39Z</time>
      </trkpt>
      <trkpt lat="43.59687" lon="3.36109">
        <ele>236.1</ele>
        <time>2024-07-25T07:06:40Z</time>
      </trkpt>
      <trkpt lat="43.59684" lon="3.36109">
        <ele>235.4</ele>
        <time>2024-07-25T07:06:41Z</time>
      </trkpt>
      <trkpt lat="43.59682" lon="3.36109">
        <ele>235</ele>
        <time>2024-07-25T07:06:42Z</time>
      </trkpt>
      <trkpt lat="43.5968" lon="3.36109">
        <ele>234.5</ele>
        <time>2024-07-25T07:06:43Z</time>
      </trkpt>
      <trkpt lat="43.59678" lon="3.36108">
        <ele>234.4</ele>
        <time>2024-07-25T07:06:44Z</time>
      </trkpt>
      <trkpt lat="43.59677" lon="3.36106">
        <ele>234.8</ele>
        <time>2024-07-25T07:06:45Z</time>
      </trkpt>
      <trkpt lat="43.59675" lon="3.36105">
        <ele>234.6</ele>
        <time>2024-07-25T07:06:46Z</time>
      </trkpt>
      <trkpt lat="43.59672" lon="3.36104">
        <ele>234.2</ele>
        <time>2024-07-25T07:06:47Z</time>
      </trkpt>
      <trkpt lat="43.5967" lon="3.36104">
        <ele>233.8</ele>
        <time>2024-07-25T07:06:48Z</time>
      </trkpt>
      <trkpt lat="43.59667" lon="3.36102">
        <ele>233.7</ele>
        <time>2024-07-25T07:06:49Z</time>
      </trkpt>
      <trkpt lat="43.59665" lon="3.36101">
        <ele>233.5</ele>
        <time>2024-07-25T07:06:50Z</time>
      </trkpt>
      <trkpt lat="43.59662" lon="3.361">
        <ele>233</ele>
        <time>2024-07-25T07:06:51Z</time>
      </trkpt>
      <trkpt lat="43.5966" lon="3.36099">
        <ele>232.7</ele>
        <time>2024-07-25T07:06:52Z</time>
      </trkpt>
      <trkpt lat="43.59657" lon="3.36099">
        <ele>231.9</ele>
        <time>2024-07-25T07:06:53Z</time>
      </trkpt>
      <trkpt lat="43.59655" lon="3.36097">
        <ele>231.9</ele>
        <time>2024-07-25T07:06:54Z</time>
      </trkpt>
      <trkpt lat="43.59653" lon="3.36095">
        <ele>231.9</ele>
        <time>2024-07-25T07:06:55Z</time>
      </trkpt>
      <trkpt lat="43.5965" lon="3.36092">
        <ele>231.9</ele>
        <time>2024-07-25T07:06:56Z</time>
      </trkpt>
      <trkpt lat="43.59647" lon="3.3609">
        <ele>231.6</ele>
        <time>2024-07-25T07:06:57Z</time>
      </trkpt>
      <trkpt lat="43.59644" lon="3.36088">
        <ele>231.3</ele>
        <time>2024-07-25T07:06:58Z</time>
      </trkpt>
      <trkpt lat="43.59641" lon="3.36086">
        <ele>230.9</ele>
        <time>2024-07-25T07:06:59Z</time>
      </trkpt>
      <trkpt lat="43.59638" lon="3.36083">
        <ele>230.9</ele>
        <time>2024-07-25T07:07:00Z</time>
      </trkpt>
      <trkpt lat="43.59635" lon="3.36081">
        <ele>230.7</ele>
        <time>2024-07-25T07:07:01Z</time>
      </trkpt>
      <trkpt lat="43.59631" lon="3.3608">
        <ele>229.9</ele>
        <time>2024-07-25T07:07:02Z</time>
      </trkpt>
      <trkpt lat="43.59628" lon="3.3608">
        <ele>229.1</ele>
        <time>2024-07-25T07:07:03Z</time>
      </trkpt>
      <trkpt lat="43.59624" lon="3.36079">
        <ele>228.3</ele>
        <time>2024-07-25T07:07:04Z</time>
      </trkpt>
      <trkpt lat="43.59621" lon="3.36077">
        <ele>228</ele>
        <time>2024-07-25T07:07:05Z</time>
      </trkpt>
      <trkpt lat="43.59618" lon="3.36076">
        <ele>227.5</ele>
        <time>2024-07-25T07:07:06Z</time>
      </trkpt>
      <trkpt lat="43.59615" lon="3.36074">
        <ele>227.1</ele>
        <time>2024-07-25T07:07:07Z</time>
      </trkpt>
      <trkpt lat="43.59612" lon="3.36073">
        <ele>226.5</ele>
        <time>2024-07-25T07:07:08Z</time>
      </trkpt>
      <trkpt lat="43.5961" lon="3.36073">
        <ele>225.9</ele>
        <time>2024-07-25T07:07:09Z</time>
      </trkpt>
      <trkpt lat="43.59607" lon="3.36073">
        <ele>225</ele>
        <time>2024-07-25T07:07:10Z</time>
      </trkpt>
      <trkpt lat="43.59605" lon="3.36072">
        <ele>224.7</ele>
        <time>2024-07-25T07:07:11Z</time>
      </trkpt>
      <trkpt lat="43.59604" lon="3.3607">
        <ele>224.8</ele>
        <time>2024-07-25T07:07:12Z</time>
      </trkpt>
      <trkpt lat="43.59603" lon="3.36069">
        <ele>224.8</ele>
        <time>2024-07-25T07:07:13Z</time>
      </trkpt>
      <trkpt lat="43.59601" lon="3.36068">
        <ele>224.4</ele>
        <time>2024-07-25T07:07:14Z</time>
      </trkpt>
      <trkpt lat="43.596" lon="3.36069">
        <ele>223.9</ele>
        <time>2024-07-25T07:07:15Z</time>
      </trkpt>
      <trkpt lat="43.59599" lon="3.36068">
        <ele>223.8</ele>
        <time>2024-07-25T07:07:16Z</time>
      </trkpt>
      <trkpt lat="43.59598" lon="3.36067">
        <ele>223.8</ele>
        <time>2024-07-25T07:07:17Z</time>
      </trkpt>
      <trkpt lat="43.59596" lon="3.36068">
        <ele>223</ele>
        <time>2024-07-25T07:07:18Z</time>
      </trkpt>
      <trkpt lat="43.59594" lon="3.36068">
        <ele>222.4</ele>
        <time>2024-07-25T07:07:19Z</time>
      </trkpt>
      <trkpt lat="43.59592" lon="3.36068">
        <ele>221.8</ele>
        <time>2024-07-25T07:07:20Z</time>
      </trkpt>
      <trkpt lat="43.5959" lon="3.36069">
        <ele>221</ele>
        <time>2024-07-25T07:07:21Z</time>
      </trkpt>
      <trkpt lat="43.5959" lon="3.3607">
        <ele>220.8</ele>
        <time>2024-07-25T07:07:22Z</time>
      </trkpt>
      <trkpt lat="43.59589" lon="3.36071">
        <ele>220.3</ele>
        <time>2024-07-25T07:07:23Z</time>
      </trkpt>
      <trkpt lat="43.59588" lon="3.36072">
        <ele>219.8</ele>
        <time>2024-07-25T07:07:24Z</time>
      </trkpt>
      <trkpt lat="43.59586" lon="3.36073">
        <ele>219</ele>
        <time>2024-07-25T07:07:25Z</time>
      </trkpt>
      <trkpt lat="43.59585" lon="3.36074">
        <ele>218.5</ele>
        <time>2024-07-25T07:07:26Z</time>
      </trkpt>
      <trkpt lat="43.59584" lon="3.36074">
        <ele>218.2</ele>
        <time>2024-07-25T07:07:27Z</time>
      </trkpt>
      <trkpt lat="43.59583" lon="3.36076">
        <ele>217.5</ele>
        <time>2024-07-25T07:07:28Z</time>
      </trkpt>
      <trkpt lat="43.59582" lon="3.36077">
        <ele>217</ele>
        <time>2024-07-25T07:07:29Z</time>
      </trkpt>
      <trkpt lat="43.59581" lon="3.36077">
        <ele>216.8</ele>
        <time>2024-07-25T07:07:30Z</time>
      </trkpt>
      <trkpt lat="43.59581" lon="3.36077">
        <ele>216.8</ele>
        <time>2024-07-25T07:07:31Z</time>
      </trkpt>
      <trkpt lat="43.59575" lon="3.36086">
        <ele>213.3</ele>
        <time>2024-07-25T07:08:30Z</time>
      </trkpt>
      <trkpt lat="43.59573" lon="3.36087">
        <ele>212.6</ele>
        <time>2024-07-25T07:08:31Z</time>
      </trkpt>
      <trkpt lat="43.59572" lon="3.36089">
        <ele>211.8</ele>
        <time>2024-07-25T07:08:32Z</time>
      </trkpt>
      <trkpt lat="43.5957" lon="3.3609">
        <ele>211.1</ele>
        <time>2024-07-25T07:08:33Z</time>
      </trkpt>
      <trkpt lat="43.59568" lon="3.3609">
        <ele>210.6</ele>
        <time>2024-07-25T07:08:34Z</time>
      </trkpt>
      <trkpt lat="43.59565" lon="3.36088">
        <ele>210.3</ele>
        <time>2024-07-25T07:08:35Z</time>
      </trkpt>
      <trkpt lat="43.59563" lon="3.36087">
        <ele>210</ele>
        <time>2024-07-25T07:08:36Z</time>
      </trkpt>
      <trkpt lat="43.59561" lon="3.36087">
        <ele>209.5</ele>
        <time>2024-07-25T07:08:37Z</time>
      </trkpt>
      <trkpt lat="43.59559" lon="3.36088">
        <ele>208.7</ele>
        <time>2024-07-25T07:08:38Z</time>
      </trkpt>
      <trkpt lat="43.59556" lon="3.36089">
        <ele>207.7</ele>
        <time>2024-07-25T07:08:39Z</time>
      </trkpt>
      <trkpt lat="43.59554" lon="3.36089">
        <ele>207.2</ele>
        <time>2024-07-25T07:08:40Z</time>
      </trkpt>
      <trkpt lat="43.59553" lon="3.36089">
        <ele>207</ele>
        <time>2024-07-25T07:08:41Z</time>
      </trkpt>
      <trkpt lat="43.59551" lon="3.36088">
        <ele>206.8</ele>
        <time>2024-07-25T07:08:42Z</time>
      </trkpt>
      <trkpt lat="43.5955" lon="3.36087">
        <ele>206.9</ele>
        <time>2024-07-25T07:08:43Z</time>
      </trkpt>
      <trkpt lat="43.59549" lon="3.36085">
        <ele>207.2</ele>
        <time>2024-07-25T07:08:44Z</time>
      </trkpt>
      <trkpt lat="43.59548" lon="3.36082">
        <ele>207.7</ele>
        <time>2024-07-25T07:08:45Z</time>
      </trkpt>
      <trkpt lat="43.59547" lon="3.36081">
        <ele>207.7</ele>
        <time>2024-07-25T07:08:46Z</time>
      </trkpt>
      <trkpt lat="43.59545" lon="3.36081">
        <ele>207.3</ele>
        <time>2024-07-25T07:08:47Z</time>
      </trkpt>
      <trkpt lat="43.59542" lon="3.3608">
        <ele>206.9</ele>
        <time>2024-07-25T07:08:48Z</time>
      </trkpt>
      <trkpt lat="43.5954" lon="3.3608">
        <ele>206.4</ele>
        <time>2024-07-25T07:08:49Z</time>
      </trkpt>
      <trkpt lat="43.59537" lon="3.36079">
        <ele>206</ele>
        <time>2024-07-25T07:08:50Z</time>
      </trkpt>
      <trkpt lat="43.59535" lon="3.36078">
        <ele>205.8</ele>
        <time>2024-07-25T07:08:51Z</time>
      </trkpt>
      <trkpt lat="43.59532" lon="3.36078">
        <ele>205.1</ele>
        <time>2024-07-25T07:08:52Z</time>
      </trkpt>
      <trkpt lat="43.5953" lon="3.36077">
        <ele>204.9</ele>
        <time>2024-07-25T07:08:53Z</time>
      </trkpt>
      <trkpt lat="43.59529" lon="3.36076">
        <ele>204.9</ele>
        <time>2024-07-25T07:08:54Z</time>
      </trkpt>
      <trkpt lat="43.59528" lon="3.36074">
        <ele>205.1</ele>
        <time>2024-07-25T07:08:55Z</time>
      </trkpt>
      <trkpt lat="43.59527" lon="3.36072">
        <ele>205.4</ele>
        <time>2024-07-25T07:08:56Z</time>
      </trkpt>
      <trkpt lat="43.59526" lon="3.3607">
        <ele>205.8</ele>
        <time>2024-07-25T07:08:57Z</time>
      </trkpt>
      <trkpt lat="43.59526" lon="3.36067">
        <ele>206.4</ele>
        <time>2024-07-25T07:08:58Z</time>
      </trkpt>
      <trkpt lat="43.59525" lon="3.36064">
        <ele>207</ele>
        <time>2024-07-25T07:08:59Z</time>
      </trkpt>
      <trkpt lat="43.59524" lon="3.36061">
        <ele>207.6</ele>
        <time>2024-07-25T07:09:00Z</time>
      </trkpt>
      <trkpt lat="43.59522" lon="3.36058">
        <ele>208.1</ele>
        <time>2024-07-25T07:09:01Z</time>
      </trkpt>
      <trkpt lat="43.59521" lon="3.36054">
        <ele>208.8</ele>
        <time>2024-07-25T07:09:02Z</time>
      </trkpt>
      <trkpt lat="43.59519" lon="3.3605">
        <ele>209.2</ele>
        <time>2024-07-25T07:09:03Z</time>
      </trkpt>
      <trkpt lat="43.59516" lon="3.36047">
        <ele>209.4</ele>
        <time>2024-07-25T07:09:04Z</time>
      </trkpt>
      <trkpt lat="43.59514" lon="3.36044">
        <ele>209.7</ele>
        <time>2024-07-25T07:09:05Z</time>
      </trkpt>
      <trkpt lat="43.59511" lon="3.3604">
        <ele>209.9</ele>
        <time>2024-07-25T07:09:06Z</time>
      </trkpt>
      <trkpt lat="43.59509" lon="3.36036">
        <ele>210.2</ele>
        <time>2024-07-25T07:09:07Z</time>
      </trkpt>
      <trkpt lat="43.59508" lon="3.36032">
        <ele>210.6</ele>
        <time>2024-07-25T07:09:08Z</time>
      </trkpt>
      <trkpt lat="43.59506" lon="3.36028">
        <ele>210.8</ele>
        <time>2024-07-25T07:09:09Z</time>
      </trkpt>
      <trkpt lat="43.59504" lon="3.36024">
        <ele>211</ele>
        <time>2024-07-25T07:09:10Z</time>
      </trkpt>
      <trkpt lat="43.59501" lon="3.3602">
        <ele>211</ele>
        <time>2024-07-25T07:09:11Z</time>
      </trkpt>
      <trkpt lat="43.59498" lon="3.36016">
        <ele>210.8</ele>
        <time>2024-07-25T07:09:12Z</time>
      </trkpt>
      <trkpt lat="43.59497" lon="3.36012">
        <ele>211</ele>
        <time>2024-07-25T07:09:13Z</time>
      </trkpt>
      <trkpt lat="43.59496" lon="3.36008">
        <ele>211.1</ele>
        <time>2024-07-25T07:09:14Z</time>
      </trkpt>
      <trkpt lat="43.59496" lon="3.36005">
        <ele>211.4</ele>
        <time>2024-07-25T07:09:15Z</time>
      </trkpt>
      <trkpt lat="43.59494" lon="3.36001">
        <ele>211.2</ele>
        <time>2024-07-25T07:09:16Z</time>
      </trkpt>
      <trkpt lat="43.59492" lon="3.35998">
        <ele>210.8</ele>
        <time>2024-07-25T07:09:17Z</time>
      </trkpt>
      <trkpt lat="43.5949" lon="3.35996">
        <ele>210.3</ele>
        <time>2024-07-25T07:09:18Z</time>
      </trkpt>
      <trkpt lat="43.59488" lon="3.35996">
        <ele>209.6</ele>
        <time>2024-07-25T07:09:19Z</time>
      </trkpt>
      <trkpt lat="43.59487" lon="3.35995">
        <ele>209.4</ele>
        <time>2024-07-25T07:09:20Z</time>
      </trkpt>
      <trkpt lat="43.59485" lon="3.35993">
        <ele>208.8</ele>
        <time>2024-07-25T07:09:21Z</time>
      </trkpt>
      <trkpt lat="43.59483" lon="3.35991">
        <ele>208.2</ele>
        <time>2024-07-25T07:09:22Z</time>
      </trkpt>
      <trkpt lat="43.59482" lon="3.3599">
        <ele>207.8</ele>
        <time>2024-07-25T07:09:23Z</time>
      </trkpt>
      <trkpt lat="43.5948" lon="3.35988">
        <ele>207.2</ele>
        <time>2024-07-25T07:09:24Z</time>
      </trkpt>
      <trkpt lat="43.59479" lon="3.35988">
        <ele>206.8</ele>
        <time>2024-07-25T07:09:25Z</time>
      </trkpt>
      <trkpt lat="43.59478" lon="3.35986">
        <ele>206.5</ele>
        <time>2024-07-25T07:09:26Z</time>
      </trkpt>
      <trkpt lat="43.59477" lon="3.35985">
        <ele>206.1</ele>
        <time>2024-07-25T07:09:27Z</time>
      </trkpt>
      <trkpt lat="43.59475" lon="3.35985">
        <ele>205.4</ele>
        <time>2024-07-25T07:09:28Z</time>
      </trkpt>
      <trkpt lat="43.59473" lon="3.35984">
        <ele>204.7</ele>
        <time>2024-07-25T07:09:29Z</time>
      </trkpt>
      <trkpt lat="43.59472" lon="3.35984">
        <ele>204.3</ele>
        <time>2024-07-25T07:09:30Z</time>
      </trkpt>
      <trkpt lat="43.59469" lon="3.35983">
        <ele>203.1</ele>
        <time>2024-07-25T07:09:31Z</time>
      </trkpt>
      <trkpt lat="43.59466" lon="3.35982">
        <ele>201.8</ele>
        <time>2024-07-25T07:09:32Z</time>
      </trkpt>
      <trkpt lat="43.59464" lon="3.35983">
        <ele>201.1</ele>
        <time>2024-07-25T07:09:33Z</time>
      </trkpt>
      <trkpt lat="43.59462" lon="3.35985">
        <ele>200.4</ele>
        <time>2024-07-25T07:09:34Z</time>
      </trkpt>
      <trkpt lat="43.5946" lon="3.35989">
        <ele>199.9</ele>
        <time>2024-07-25T07:09:35Z</time>
      </trkpt>
      <trkpt lat="43.59458" lon="3.35993">
        <ele>199.4</ele>
        <time>2024-07-25T07:09:36Z</time>
      </trkpt>
      <trkpt lat="43.59456" lon="3.35996">
        <ele>198.8</ele>
        <time>2024-07-25T07:09:37Z</time>
      </trkpt>
      <trkpt lat="43.59454" lon="3.36">
        <ele>198.4</ele>
        <time>2024-07-25T07:09:38Z</time>
      </trkpt>
      <trkpt lat="43.59452" lon="3.36002">
        <ele>197.9</ele>
        <time>2024-07-25T07:09:39Z</time>
      </trkpt>
      <trkpt lat="43.5945" lon="3.36003">
        <ele>197.3</ele>
        <time>2024-07-25T07:09:40Z</time>
      </trkpt>
      <trkpt lat="43.59447" lon="3.36004">
        <ele>196.3</ele>
        <time>2024-07-25T07:09:41Z</time>
      </trkpt>
      <trkpt lat="43.59445" lon="3.36007">
        <ele>195.9</ele>
        <time>2024-07-25T07:09:42Z</time>
      </trkpt>
      <trkpt lat="43.59444" lon="3.36011">
        <ele>196.1</ele>
        <time>2024-07-25T07:09:43Z</time>
      </trkpt>
      <trkpt lat="43.59442" lon="3.36016">
        <ele>196</ele>
        <time>2024-07-25T07:09:44Z</time>
      </trkpt>
      <trkpt lat="43.59441" lon="3.3602">
        <ele>196.1</ele>
        <time>2024-07-25T07:09:45Z</time>
      </trkpt>
      <trkpt lat="43.59439" lon="3.36024">
        <ele>196</ele>
        <time>2024-07-25T07:09:46Z</time>
      </trkpt>
      <trkpt lat="43.59438" lon="3.36027">
        <ele>196.1</ele>
        <time>2024-07-25T07:09:47Z</time>
      </trkpt>
      <trkpt lat="43.59437" lon="3.3603">
        <ele>196.1</ele>
        <time>2024-07-25T07:09:48Z</time>
      </trkpt>
      <trkpt lat="43.59436" lon="3.36032">
        <ele>196</ele>
        <time>2024-07-25T07:09:49Z</time>
      </trkpt>
      <trkpt lat="43.59434" lon="3.36034">
        <ele>195.7</ele>
        <time>2024-07-25T07:09:50Z</time>
      </trkpt>
      <trkpt lat="43.59433" lon="3.36035">
        <ele>195.5</ele>
        <time>2024-07-25T07:09:51Z</time>
      </trkpt>
      <trkpt lat="43.59432" lon="3.36035">
        <ele>195.3</ele>
        <time>2024-07-25T07:09:52Z</time>
      </trkpt>
      <trkpt lat="43.59432" lon="3.36034">
        <ele>195.2</ele>
        <time>2024-07-25T07:09:53Z</time>
      </trkpt>
      <trkpt lat="43.59431" lon="3.36035">
        <ele>195</ele>
        <time>2024-07-25T07:09:54Z</time>
      </trkpt>
      <trkpt lat="43.5943" lon="3.36036">
        <ele>194.9</ele>
        <time>2024-07-25T07:09:55Z</time>
      </trkpt>
      <trkpt lat="43.5943" lon="3.36037">
        <ele>195</ele>
        <time>2024-07-25T07:09:56Z</time>
      </trkpt>
      <trkpt lat="43.5943" lon="3.36037">
        <ele>195</ele>
        <time>2024-07-25T07:09:57Z</time>
      </trkpt>
      <trkpt lat="43.59428" lon="3.36029">
        <ele>193.4</ele>
        <time>2024-07-25T07:10:07Z</time>
      </trkpt>
      <trkpt lat="43.59427" lon="3.36023">
        <ele>192.4</ele>
        <time>2024-07-25T07:10:08Z</time>
      </trkpt>
      <trkpt lat="43.59427" lon="3.36018">
        <ele>191.7</ele>
        <time>2024-07-25T07:10:09Z</time>
      </trkpt>
      <trkpt lat="43.59428" lon="3.36014">
        <ele>191.5</ele>
        <time>2024-07-25T07:10:10Z</time>
      </trkpt>
      <trkpt lat="43.59427" lon="3.36011">
        <ele>190.8</ele>
        <time>2024-07-25T07:10:11Z</time>
      </trkpt>
      <trkpt lat="43.59427" lon="3.36007">
        <ele>190.3</ele>
        <time>2024-07-25T07:10:12Z</time>
      </trkpt>
      <trkpt lat="43.59427" lon="3.36001">
        <ele>189.5</ele>
        <time>2024-07-25T07:10:13Z</time>
      </trkpt>
      <trkpt lat="43.59427" lon="3.35995">
        <ele>188.9</ele>
        <time>2024-07-25T07:10:14Z</time>
      </trkpt>
      <trkpt lat="43.59427" lon="3.35991">
        <ele>188.6</ele>
        <time>2024-07-25T07:10:15Z</time>
      </trkpt>
      <trkpt lat="43.59426" lon="3.35988">
        <ele>188</ele>
        <time>2024-07-25T07:10:16Z</time>
      </trkpt>
      <trkpt lat="43.59424" lon="3.35987">
        <ele>187.3</ele>
        <time>2024-07-25T07:10:17Z</time>
      </trkpt>
      <trkpt lat="43.59423" lon="3.35986">
        <ele>186.9</ele>
        <time>2024-07-25T07:10:18Z</time>
      </trkpt>
      <trkpt lat="43.59421" lon="3.35984">
        <ele>186.2</ele>
        <time>2024-07-25T07:10:19Z</time>
      </trkpt>
      <trkpt lat="43.59421" lon="3.35982">
        <ele>186</ele>
        <time>2024-07-25T07:10:20Z</time>
      </trkpt>
      <trkpt lat="43.5942" lon="3.35979">
        <ele>185.5</ele>
        <time>2024-07-25T07:10:21Z</time>
      </trkpt>
      <trkpt lat="43.59419" lon="3.35976">
        <ele>185</ele>
        <time>2024-07-25T07:10:22Z</time>
      </trkpt>
      <trkpt lat="43.59418" lon="3.35975">
        <ele>184.6</ele>
        <time>2024-07-25T07:10:23Z</time>
      </trkpt>
      <trkpt lat="43.59418" lon="3.35973">
        <ele>184.4</ele>
        <time>2024-07-25T07:10:24Z</time>
      </trkpt>
      <trkpt lat="43.59416" lon="3.3597">
        <ele>183.8</ele>
        <time>2024-07-25T07:10:25Z</time>
      </trkpt>
      <trkpt lat="43.59415" lon="3.35969">
        <ele>183.5</ele>
        <time>2024-07-25T07:10:26Z</time>
      </trkpt>
      <trkpt lat="43.59413" lon="3.35969">
        <ele>182.8</ele>
        <time>2024-07-25T07:10:27Z</time>
      </trkpt>
      <trkpt lat="43.59411" lon="3.35967">
        <ele>182.2</ele>
        <time>2024-07-25T07:10:28Z</time>
      </trkpt>
      <trkpt lat="43.59409" lon="3.35966">
        <ele>181.6</ele>
        <time>2024-07-25T07:10:29Z</time>
      </trkpt>
      <trkpt lat="43.59408" lon="3.35964">
        <ele>181.4</ele>
        <time>2024-07-25T07:10:30Z</time>
      </trkpt>
      <trkpt lat="43.59406" lon="3.35963">
        <ele>180.8</ele>
        <time>2024-07-25T07:10:31Z</time>
      </trkpt>
      <trkpt lat="43.59404" lon="3.35962">
        <ele>180.2</ele>
        <time>2024-07-25T07:10:32Z</time>
      </trkpt>
      <trkpt lat="43.59402" lon="3.35961">
        <ele>179.7</ele>
        <time>2024-07-25T07:10:33Z</time>
      </trkpt>
      <trkpt lat="43.594" lon="3.35961">
        <ele>179.1</ele>
        <time>2024-07-25T07:10:34Z</time>
      </trkpt>
      <trkpt lat="43.59399" lon="3.3596">
        <ele>178.8</ele>
        <time>2024-07-25T07:10:35Z</time>
      </trkpt>
      <trkpt lat="43.59399" lon="3.35961">
        <ele>178.8</ele>
        <time>2024-07-25T07:10:36Z</time>
      </trkpt>
      <trkpt lat="43.59399" lon="3.35961">
        <ele>178.8</ele>
        <time>2024-07-25T07:10:37Z</time>
      </trkpt>
      <trkpt lat="43.59398" lon="3.35951">
        <ele>179</ele>
        <time>2024-07-25T07:13:54Z</time>
      </trkpt>
      <trkpt lat="43.59397" lon="3.35948">
        <ele>178.9</ele>
        <time>2024-07-25T07:13:55Z</time>
      </trkpt>
      <trkpt lat="43.59396" lon="3.35945">
        <ele>178.8</ele>
        <time>2024-07-25T07:13:56Z</time>
      </trkpt>
      <trkpt lat="43.59393" lon="3.35943">
        <ele>178.2</ele>
        <time>2024-07-25T07:13:57Z</time>
      </trkpt>
      <trkpt lat="43.59389" lon="3.35942">
        <ele>177.3</ele>
        <time>2024-07-25T07:13:58Z</time>
      </trkpt>
      <trkpt lat="43.59385" lon="3.3594">
        <ele>176.6</ele>
        <time>2024-07-25T07:13:59Z</time>
      </trkpt>
      <trkpt lat="43.59381" lon="3.35937">
        <ele>176</ele>
        <time>2024-07-25T07:14:00Z</time>
      </trkpt>
      <trkpt lat="43.59378" lon="3.35932">
        <ele>175.8</ele>
        <time>2024-07-25T07:14:01Z</time>
      </trkpt>
      <trkpt lat="43.59374" lon="3.35927">
        <ele>175.3</ele>
        <time>2024-07-25T07:14:02Z</time>
      </trkpt>
      <trkpt lat="43.59371" lon="3.35921">
        <ele>175.1</ele>
        <time>2024-07-25T07:14:03Z</time>
      </trkpt>
      <trkpt lat="43.59367" lon="3.35916">
        <ele>174.6</ele>
        <time>2024-07-25T07:14:04Z</time>
      </trkpt>
      <trkpt lat="43.59362" lon="3.35912">
        <ele>174</ele>
        <time>2024-07-25T07:14:05Z</time>
      </trkpt>
      <trkpt lat="43.59357" lon="3.3591">
        <ele>173.8</ele>
        <time>2024-07-25T07:14:06Z</time>
      </trkpt>
      <trkpt lat="43.59353" lon="3.35907">
        <ele>173.9</ele>
        <time>2024-07-25T07:14:07Z</time>
      </trkpt>
      <trkpt lat="43.59349" lon="3.35903">
        <ele>174.2</ele>
        <time>2024-07-25T07:14:08Z</time>
      </trkpt>
      <trkpt lat="43.59345" lon="3.359">
        <ele>174.3</ele>
        <time>2024-07-25T07:14:09Z</time>
      </trkpt>
      <trkpt lat="43.59341" lon="3.35897">
        <ele>174.4</ele>
        <time>2024-07-25T07:14:10Z</time>
      </trkpt>
      <trkpt lat="43.59337" lon="3.35895">
        <ele>174.3</ele>
        <time>2024-07-25T07:14:11Z</time>
      </trkpt>
      <trkpt lat="43.59332" lon="3.35895">
        <ele>173.8</ele>
        <time>2024-07-25T07:14:12Z</time>
      </trkpt>
      <trkpt lat="43.59328" lon="3.35895">
        <ele>173.5</ele>
        <time>2024-07-25T07:14:13Z</time>
      </trkpt>
      <trkpt lat="43.59324" lon="3.35897">
        <ele>172.8</ele>
        <time>2024-07-25T07:14:14Z</time>
      </trkpt>
      <trkpt lat="43.59319" lon="3.359">
        <ele>172.1</ele>
        <time>2024-07-25T07:14:15Z</time>
      </trkpt>
      <trkpt lat="43.59315" lon="3.35904">
        <ele>171.4</ele>
        <time>2024-07-25T07:14:16Z</time>
      </trkpt>
      <trkpt lat="43.5931" lon="3.35906">
        <ele>171</ele>
        <time>2024-07-25T07:14:17Z</time>
      </trkpt>
      <trkpt lat="43.59305" lon="3.35909">
        <ele>170.5</ele>
        <time>2024-07-25T07:14:18Z</time>
      </trkpt>
      <trkpt lat="43.593" lon="3.35911">
        <ele>169.8</ele>
        <time>2024-07-25T07:14:19Z</time>
      </trkpt>
      <trkpt lat="43.59295" lon="3.35912">
        <ele>169.1</ele>
        <time>2024-07-25T07:14:20Z</time>
      </trkpt>
      <trkpt lat="43.59289" lon="3.3591">
        <ele>168.5</ele>
        <time>2024-07-25T07:14:21Z</time>
      </trkpt>
      <trkpt lat="43.59283" lon="3.35906">
        <ele>168</ele>
        <time>2024-07-25T07:14:22Z</time>
      </trkpt>
      <trkpt lat="43.59277" lon="3.35904">
        <ele>167.4</ele>
        <time>2024-07-25T07:14:23Z</time>
      </trkpt>
      <trkpt lat="43.5927" lon="3.35903">
        <ele>166.8</ele>
        <time>2024-07-25T07:14:24Z</time>
      </trkpt>
      <trkpt lat="43.59263" lon="3.35901">
        <ele>166.3</ele>
        <time>2024-07-25T07:14:25Z</time>
      </trkpt>
      <trkpt lat="43.59257" lon="3.35899">
        <ele>165.9</ele>
        <time>2024-07-25T07:14:26Z</time>
      </trkpt>
      <trkpt lat="43.5925" lon="3.35899">
        <ele>165.3</ele>
        <time>2024-07-25T07:14:27Z</time>
      </trkpt>
      <trkpt lat="43.59243" lon="3.35899">
        <ele>165.3</ele>
        <time>2024-07-25T07:14:28Z</time>
      </trkpt>
      <trkpt lat="43.59236" lon="3.35899">
        <ele>165.3</ele>
        <time>2024-07-25T07:14:29Z</time>
      </trkpt>
      <trkpt lat="43.5923" lon="3.35899">
        <ele>165.3</ele>
        <time>2024-07-25T07:14:30Z</time>
      </trkpt>
      <trkpt lat="43.59225" lon="3.35898">
        <ele>165.3</ele>
        <time>2024-07-25T07:14:31Z</time>
      </trkpt>
      <trkpt lat="43.5922" lon="3.35897">
        <ele>165.2</ele>
        <time>2024-07-25T07:14:32Z</time>
      </trkpt>
      <trkpt lat="43.59215" lon="3.35897">
        <ele>164.6</ele>
        <time>2024-07-25T07:14:33Z</time>
      </trkpt>
      <trkpt lat="43.5921" lon="3.35896">
        <ele>164.2</ele>
        <time>2024-07-25T07:14:34Z</time>
      </trkpt>
      <trkpt lat="43.59204" lon="3.35895">
        <ele>163.6</ele>
        <time>2024-07-25T07:14:35Z</time>
      </trkpt>
      <trkpt lat="43.59198" lon="3.35895">
        <ele>162.9</ele>
        <time>2024-07-25T07:14:36Z</time>
      </trkpt>
      <trkpt lat="43.59192" lon="3.35895">
        <ele>162.3</ele>
        <time>2024-07-25T07:14:37Z</time>
      </trkpt>
      <trkpt lat="43.59185" lon="3.35893">
        <ele>161.6</ele>
        <time>2024-07-25T07:14:38Z</time>
      </trkpt>
      <trkpt lat="43.59177" lon="3.35891">
        <ele>160.9</ele>
        <time>2024-07-25T07:14:39Z</time>
      </trkpt>
      <trkpt lat="43.59169" lon="3.35887">
        <ele>160.6</ele>
        <time>2024-07-25T07:14:40Z</time>
      </trkpt>
      <trkpt lat="43.59161" lon="3.35883">
        <ele>160.1</ele>
        <time>2024-07-25T07:14:41Z</time>
      </trkpt>
      <trkpt lat="43.59154" lon="3.35878">
        <ele>159.4</ele>
        <time>2024-07-25T07:14:42Z</time>
      </trkpt>
      <trkpt lat="43.59146" lon="3.35873">
        <ele>158.2</ele>
        <time>2024-07-25T07:14:43Z</time>
      </trkpt>
      <trkpt lat="43.59138" lon="3.3587">
        <ele>156.6</ele>
        <time>2024-07-25T07:14:44Z</time>
      </trkpt>
      <trkpt lat="43.5913" lon="3.35866">
        <ele>155.8</ele>
        <time>2024-07-25T07:14:45Z</time>
      </trkpt>
      <trkpt lat="43.59123" lon="3.35863">
        <ele>155.2</ele>
        <time>2024-07-25T07:14:46Z</time>
      </trkpt>
      <trkpt lat="43.59115" lon="3.35861">
        <ele>154.4</ele>
        <time>2024-07-25T07:14:47Z</time>
      </trkpt>
      <trkpt lat="43.59108" lon="3.35859">
        <ele>153.7</ele>
        <time>2024-07-25T07:14:48Z</time>
      </trkpt>
      <trkpt lat="43.591" lon="3.35858">
        <ele>152.8</ele>
        <time>2024-07-25T07:14:49Z</time>
      </trkpt>
      <trkpt lat="43.59093" lon="3.35857">
        <ele>152.1</ele>
        <time>2024-07-25T07:14:50Z</time>
      </trkpt>
      <trkpt lat="43.59085" lon="3.35859">
        <ele>151.3</ele>
        <time>2024-07-25T07:14:51Z</time>
      </trkpt>
      <trkpt lat="43.59077" lon="3.3586">
        <ele>150.3</ele>
        <time>2024-07-25T07:14:52Z</time>
      </trkpt>
      <trkpt lat="43.5907" lon="3.35862">
        <ele>149.5</ele>
        <time>2024-07-25T07:14:53Z</time>
      </trkpt>
      <trkpt lat="43.59063" lon="3.35863">
        <ele>148.7</ele>
        <time>2024-07-25T07:14:54Z</time>
      </trkpt>
      <trkpt lat="43.59055" lon="3.35862">
        <ele>147.9</ele>
        <time>2024-07-25T07:14:55Z</time>
      </trkpt>
      <trkpt lat="43.59047" lon="3.3586">
        <ele>147.7</ele>
        <time>2024-07-25T07:14:56Z</time>
      </trkpt>
      <trkpt lat="43.59039" lon="3.35858">
        <ele>147.4</ele>
        <time>2024-07-25T07:14:57Z</time>
      </trkpt>
      <trkpt lat="43.59031" lon="3.35857">
        <ele>147.1</ele>
        <time>2024-07-25T07:14:58Z</time>
      </trkpt>
      <trkpt lat="43.59024" lon="3.35857">
        <ele>146.8</ele>
        <time>2024-07-25T07:14:59Z</time>
      </trkpt>
      <trkpt lat="43.59016" lon="3.35858">
        <ele>146.5</ele>
        <time>2024-07-25T07:15:00Z</time>
      </trkpt>
      <trkpt lat="43.59008" lon="3.35859">
        <ele>146.2</ele>
        <time>2024-07-25T07:15:01Z</time>
      </trkpt>
      <trkpt lat="43.59" lon="3.3586">
        <ele>146</ele>
        <time>2024-07-25T07:15:02Z</time>
      </trkpt>
      <trkpt lat="43.58993" lon="3.35861">
        <ele>146.2</ele>
        <time>2024-07-25T07:15:03Z</time>
      </trkpt>
      <trkpt lat="43.58987" lon="3.35863">
        <ele>146.4</ele>
        <time>2024-07-25T07:15:04Z</time>
      </trkpt>
      <trkpt lat="43.58981" lon="3.35866">
        <ele>146.6</ele>
        <time>2024-07-25T07:15:05Z</time>
      </trkpt>
      <trkpt lat="43.58976" lon="3.3587">
        <ele>146.8</ele>
        <time>2024-07-25T07:15:06Z</time>
      </trkpt>
      <trkpt lat="43.58972" lon="3.35873">
        <ele>147</ele>
        <time>2024-07-25T07:15:07Z</time>
      </trkpt>
      <trkpt lat="43.58968" lon="3.35878">
        <ele>147.1</ele>
        <time>2024-07-25T07:15:08Z</time>
      </trkpt>
      <trkpt lat="43.58965" lon="3.35881">
        <ele>147.2</ele>
        <time>2024-07-25T07:15:09Z</time>
      </trkpt>
      <trkpt lat="43.58961" lon="3.35884">
        <ele>147.3</ele>
        <time>2024-07-25T07:15:10Z</time>
      </trkpt>
      <trkpt lat="43.58959" lon="3.35887">
        <ele>147.4</ele>
        <time>2024-07-25T07:15:11Z</time>
      </trkpt>
      <trkpt lat="43.58957" lon="3.35888">
        <ele>147.5</ele>
        <time>2024-07-25T07:15:12Z</time>
      </trkpt>
      <trkpt lat="43.58955" lon="3.35887">
        <ele>147.6</ele>
        <time>2024-07-25T07:15:13Z</time>
      </trkpt>
      <trkpt lat="43.58953" lon="3.35884">
        <ele>147.6</ele>
        <time>2024-07-25T07:15:14Z</time>
      </trkpt>
      <trkpt lat="43.58953" lon="3.35882">
        <ele>147.5</ele>
        <time>2024-07-25T07:15:15Z</time>
      </trkpt>
      <trkpt lat="43.58952" lon="3.3588">
        <ele>147.5</ele>
        <time>2024-07-25T07:15:16Z</time>
      </trkpt>
      <trkpt lat="43.58952" lon="3.35877">
        <ele>147.4</ele>
        <time>2024-07-25T07:15:17Z</time>
      </trkpt>
      <trkpt lat="43.58951" lon="3.35874">
        <ele>147.4</ele>
        <time>2024-07-25T07:15:18Z</time>
      </trkpt>
      <trkpt lat="43.5895" lon="3.35871">
        <ele>147.3</ele>
        <time>2024-07-25T07:15:19Z</time>
      </trkpt>
      <trkpt lat="43.58949" lon="3.35867">
        <ele>147.2</ele>
        <time>2024-07-25T07:15:20Z</time>
      </trkpt>
      <trkpt lat="43.58948" lon="3.35863">
        <ele>147.1</ele>
        <time>2024-07-25T07:15:21Z</time>
      </trkpt>
      <trkpt lat="43.58947" lon="3.35859">
        <ele>146.8</ele>
        <time>2024-07-25T07:15:22Z</time>
      </trkpt>
      <trkpt lat="43.58945" lon="3.35855">
        <ele>146.6</ele>
        <time>2024-07-25T07:15:23Z</time>
      </trkpt>
      <trkpt lat="43.58944" lon="3.35851">
        <ele>146.3</ele>
        <time>2024-07-25T07:15:24Z</time>
      </trkpt>
      <trkpt lat="43.58944" lon="3.35848">
        <ele>146.1</ele>
        <time>2024-07-25T07:15:25Z</time>
      </trkpt>
      <trkpt lat="43.58945" lon="3.35844">
        <ele>145.8</ele>
        <time>2024-07-25T07:15:26Z</time>
      </trkpt>
      <trkpt lat="43.58947" lon="3.35841">
        <ele>145.6</ele>
        <time>2024-07-25T07:15:27Z</time>
      </trkpt>
      <trkpt lat="43.5895" lon="3.35839">
        <ele>145.4</ele>
        <time>2024-07-25T07:15:28Z</time>
      </trkpt>
      <trkpt lat="43.58952" lon="3.35837">
        <ele>145.3</ele>
        <time>2024-07-25T07:15:29Z</time>
      </trkpt>
      <trkpt lat="43.58955" lon="3.35835">
        <ele>145.1</ele>
        <time>2024-07-25T07:15:30Z</time>
      </trkpt>
      <trkpt lat="43.58959" lon="3.35834">
        <ele>145</ele>
        <time>2024-07-25T07:15:31Z</time>
      </trkpt>
      <trkpt lat="43.58962" lon="3.35832">
        <ele>144.8</ele>
        <time>2024-07-25T07:15:32Z</time>
      </trkpt>
      <trkpt lat="43.58966" lon="3.35829">
        <ele>144.3</ele>
        <time>2024-07-25T07:15:33Z</time>
      </trkpt>
      <trkpt lat="43.5897" lon="3.35826">
        <ele>143.9</ele>
        <time>2024-07-25T07:15:34Z</time>
      </trkpt>
      <trkpt lat="43.58973" lon="3.35823">
        <ele>143.5</ele>
        <time>2024-07-25T07:15:35Z</time>
      </trkpt>
      <trkpt lat="43.58977" lon="3.3582">
        <ele>143.2</ele>
        <time>2024-07-25T07:15:36Z</time>
      </trkpt>
      <trkpt lat="43.5898" lon="3.35818">
        <ele>142.9</ele>
        <time>2024-07-25T07:15:37Z</time>
      </trkpt>
      <trkpt lat="43.58984" lon="3.35817">
        <ele>142.9</ele>
        <time>2024-07-25T07:15:38Z</time>
      </trkpt>
      <trkpt lat="43.58988" lon="3.35816">
        <ele>142.9</ele>
        <time>2024-07-25T07:15:39Z</time>
      </trkpt>
      <trkpt lat="43.58992" lon="3.35816">
        <ele>142.9</ele>
        <time>2024-07-25T07:15:40Z</time>
      </trkpt>
      <trkpt lat="43.58996" lon="3.35816">
        <ele>143</ele>
        <time>2024-07-25T07:15:41Z</time>
      </trkpt>
      <trkpt lat="43.58999" lon="3.35816">
        <ele>143.1</ele>
        <time>2024-07-25T07:15:42Z</time>
      </trkpt>
      <trkpt lat="43.59002" lon="3.35815">
        <ele>143.2</ele>
        <time>2024-07-25T07:15:43Z</time>
      </trkpt>
      <trkpt lat="43.59006" lon="3.35813">
        <ele>143.4</ele>
        <time>2024-07-25T07:15:44Z</time>
      </trkpt>
      <trkpt lat="43.59009" lon="3.35811">
        <ele>143.5</ele>
        <time>2024-07-25T07:15:45Z</time>
      </trkpt>
      <trkpt lat="43.59012" lon="3.35809">
        <ele>143.6</ele>
        <time>2024-07-25T07:15:46Z</time>
      </trkpt>
      <trkpt lat="43.59016" lon="3.35808">
        <ele>143.9</ele>
        <time>2024-07-25T07:15:47Z</time>
      </trkpt>
      <trkpt lat="43.59019" lon="3.35807">
        <ele>144.2</ele>
        <time>2024-07-25T07:15:48Z</time>
      </trkpt>
      <trkpt lat="43.59023" lon="3.35806">
        <ele>144.5</ele>
        <time>2024-07-25T07:15:49Z</time>
      </trkpt>
      <trkpt lat="43.59027" lon="3.35805">
        <ele>144.9</ele>
        <time>2024-07-25T07:15:50Z</time>
      </trkpt>
      <trkpt lat="43.5903" lon="3.35805">
        <ele>145.1</ele>
        <time>2024-07-25T07:15:51Z</time>
      </trkpt>
      <trkpt lat="43.59034" lon="3.35804">
        <ele>145.3</ele>
        <time>2024-07-25T07:15:52Z</time>
      </trkpt>
      <trkpt lat="43.59037" lon="3.35803">
        <ele>145.4</ele>
        <time>2024-07-25T07:15:53Z</time>
      </trkpt>
      <trkpt lat="43.59041" lon="3.35802">
        <ele>145.6</ele>
        <time>2024-07-25T07:15:54Z</time>
      </trkpt>
      <trkpt lat="43.59044" lon="3.35801">
        <ele>145.8</ele>
        <time>2024-07-25T07:15:55Z</time>
      </trkpt>
      <trkpt lat="43.59047" lon="3.358">
        <ele>145.9</ele>
        <time>2024-07-25T07:15:56Z</time>
      </trkpt>
      <trkpt lat="43.5905" lon="3.35799">
        <ele>146.1</ele>
        <time>2024-07-25T07:15:57Z</time>
      </trkpt>
      <trkpt lat="43.59053" lon="3.35797">
        <ele>146.2</ele>
        <time>2024-07-25T07:15:58Z</time>
      </trkpt>
      <trkpt lat="43.59056" lon="3.35795">
        <ele>146.3</ele>
        <time>2024-07-25T07:15:59Z</time>
      </trkpt>
      <trkpt lat="43.59059" lon="3.35794">
        <ele>146.6</ele>
        <time>2024-07-25T07:16:00Z</time>
      </trkpt>
      <trkpt lat="43.59061" lon="3.35792">
        <ele>146.6</ele>
        <time>2024-07-25T07:16:01Z</time>
      </trkpt>
      <trkpt lat="43.59064" lon="3.35791">
        <ele>146.8</ele>
        <time>2024-07-25T07:16:02Z</time>
      </trkpt>
      <trkpt lat="43.59067" lon="3.35789">
        <ele>147</ele>
        <time>2024-07-25T07:16:03Z</time>
      </trkpt>
      <trkpt lat="43.59069" lon="3.35788">
        <ele>147.1</ele>
        <time>2024-07-25T07:16:04Z</time>
      </trkpt>
      <trkpt lat="43.59072" lon="3.35787">
        <ele>147.2</ele>
        <time>2024-07-25T07:16:05Z</time>
      </trkpt>
      <trkpt lat="43.59075" lon="3.35786">
        <ele>147.4</ele>
        <time>2024-07-25T07:16:06Z</time>
      </trkpt>
      <trkpt lat="43.59077" lon="3.35785">
        <ele>147.5</ele>
        <time>2024-07-25T07:16:07Z</time>
      </trkpt>
      <trkpt lat="43.5908" lon="3.35784">
        <ele>147.6</ele>
        <time>2024-07-25T07:16:08Z</time>
      </trkpt>
      <trkpt lat="43.59083" lon="3.35784">
        <ele>147.9</ele>
        <time>2024-07-25T07:16:09Z</time>
      </trkpt>
      <trkpt lat="43.59085" lon="3.35784">
        <ele>148.1</ele>
        <time>2024-07-25T07:16:10Z</time>
      </trkpt>
      <trkpt lat="43.59088" lon="3.35783">
        <ele>148.4</ele>
        <time>2024-07-25T07:16:11Z</time>
      </trkpt>
      <trkpt lat="43.59091" lon="3.35782">
        <ele>148.6</ele>
        <time>2024-07-25T07:16:12Z</time>
      </trkpt>
      <trkpt lat="43.59094" lon="3.35781">
        <ele>148.9</ele>
        <time>2024-07-25T07:16:13Z</time>
      </trkpt>
      <trkpt lat="43.59097" lon="3.35781">
        <ele>149.3</ele>
        <time>2024-07-25T07:16:14Z</time>
      </trkpt>
      <trkpt lat="43.59099" lon="3.3578">
        <ele>149.5</ele>
        <time>2024-07-25T07:16:15Z</time>
      </trkpt>
      <trkpt lat="43.59102" lon="3.35778">
        <ele>149.7</ele>
        <time>2024-07-25T07:16:16Z</time>
      </trkpt>
      <trkpt lat="43.59105" lon="3.35777">
        <ele>150.1</ele>
        <time>2024-07-25T07:16:17Z</time>
      </trkpt>
      <trkpt lat="43.59108" lon="3.35776">
        <ele>150.5</ele>
        <time>2024-07-25T07:16:18Z</time>
      </trkpt>
      <trkpt lat="43.5911" lon="3.35773">
        <ele>150.7</ele>
        <time>2024-07-25T07:16:19Z</time>
      </trkpt>
      <trkpt lat="43.59112" lon="3.35771">
        <ele>150.8</ele>
        <time>2024-07-25T07:16:20Z</time>
      </trkpt>
      <trkpt lat="43.59114" lon="3.35768">
        <ele>150.9</ele>
        <time>2024-07-25T07:16:21Z</time>
      </trkpt>
      <trkpt lat="43.59115" lon="3.35765">
        <ele>150.8</ele>
        <time>2024-07-25T07:16:22Z</time>
      </trkpt>
      <trkpt lat="43.59116" lon="3.35762">
        <ele>150.8</ele>
        <time>2024-07-25T07:16:23Z</time>
      </trkpt>
      <trkpt lat="43.59115" lon="3.35758">
        <ele>150.6</ele>
        <time>2024-07-25T07:16:24Z</time>
      </trkpt>
      <trkpt lat="43.59113" lon="3.35756">
        <ele>150.4</ele>
        <time>2024-07-25T07:16:25Z</time>
      </trkpt>
      <trkpt lat="43.59111" lon="3.35755">
        <ele>150.2</ele>
        <time>2024-07-25T07:16:26Z</time>
      </trkpt>
      <trkpt lat="43.59109" lon="3.35753">
        <ele>149.7</ele>
        <time>2024-07-25T07:16:27Z</time>
      </trkpt>
      <trkpt lat="43.59107" lon="3.35752">
        <ele>149.3</ele>
        <time>2024-07-25T07:16:28Z</time>
      </trkpt>
      <trkpt lat="43.59104" lon="3.35751">
        <ele>148.8</ele>
        <time>2024-07-25T07:16:29Z</time>
      </trkpt>
      <trkpt lat="43.59101" lon="3.3575">
        <ele>148.2</ele>
        <time>2024-07-25T07:16:30Z</time>
      </trkpt>
      <trkpt lat="43.59099" lon="3.35748">
        <ele>147.8</ele>
        <time>2024-07-25T07:16:31Z</time>
      </trkpt>
      <trkpt lat="43.59096" lon="3.35746">
        <ele>147.4</ele>
        <time>2024-07-25T07:16:32Z</time>
      </trkpt>
      <trkpt lat="43.59092" lon="3.35745">
        <ele>146.8</ele>
        <time>2024-07-25T07:16:33Z</time>
      </trkpt>
      <trkpt lat="43.59088" lon="3.35743">
        <ele>146.4</ele>
        <time>2024-07-25T07:16:34Z</time>
      </trkpt>
      <trkpt lat="43.59083" lon="3.35741">
        <ele>145.9</ele>
        <time>2024-07-25T07:16:35Z</time>
      </trkpt>
      <trkpt lat="43.59079" lon="3.35739">
        <ele>145.8</ele>
        <time>2024-07-25T07:16:36Z</time>
      </trkpt>
      <trkpt lat="43.59074" lon="3.35736">
        <ele>145.7</ele>
        <time>2024-07-25T07:16:37Z</time>
      </trkpt>
      <trkpt lat="43.59069" lon="3.35733">
        <ele>145.5</ele>
        <time>2024-07-25T07:16:38Z</time>
      </trkpt>
      <trkpt lat="43.59063" lon="3.35731">
        <ele>145.1</ele>
        <time>2024-07-25T07:16:39Z</time>
      </trkpt>
      <trkpt lat="43.59057" lon="3.3573">
        <ele>144.6</ele>
        <time>2024-07-25T07:16:40Z</time>
      </trkpt>
      <trkpt lat="43.59051" lon="3.3573">
        <ele>144.2</ele>
        <time>2024-07-25T07:16:41Z</time>
      </trkpt>
      <trkpt lat="43.59045" lon="3.35732">
        <ele>143.6</ele>
        <time>2024-07-25T07:16:42Z</time>
      </trkpt>
      <trkpt lat="43.59039" lon="3.35734">
        <ele>143.1</ele>
        <time>2024-07-25T07:16:43Z</time>
      </trkpt>
      <trkpt lat="43.59033" lon="3.35737">
        <ele>142.3</ele>
        <time>2024-07-25T07:16:44Z</time>
      </trkpt>
      <trkpt lat="43.59027" lon="3.3574">
        <ele>141.4</ele>
        <time>2024-07-25T07:16:45Z</time>
      </trkpt>
      <trkpt lat="43.5902" lon="3.35743">
        <ele>140.9</ele>
        <time>2024-07-25T07:16:46Z</time>
      </trkpt>
      <trkpt lat="43.59014" lon="3.35745">
        <ele>140.5</ele>
        <time>2024-07-25T07:16:47Z</time>
      </trkpt>
      <trkpt lat="43.59009" lon="3.35747">
        <ele>140.3</ele>
        <time>2024-07-25T07:16:48Z</time>
      </trkpt>
      <trkpt lat="43.59003" lon="3.3575">
        <ele>140</ele>
        <time>2024-07-25T07:16:49Z</time>
      </trkpt>
      <trkpt lat="43.58998" lon="3.35752">
        <ele>139.6</ele>
        <time>2024-07-25T07:16:50Z</time>
      </trkpt>
      <trkpt lat="43.58993" lon="3.35754">
        <ele>139.1</ele>
        <time>2024-07-25T07:16:51Z</time>
      </trkpt>
      <trkpt lat="43.58988" lon="3.35755">
        <ele>138.6</ele>
        <time>2024-07-25T07:16:52Z</time>
      </trkpt>
      <trkpt lat="43.58983" lon="3.35754">
        <ele>138.3</ele>
        <time>2024-07-25T07:16:53Z</time>
      </trkpt>
      <trkpt lat="43.58977" lon="3.35752">
        <ele>138.1</ele>
        <time>2024-07-25T07:16:54Z</time>
      </trkpt>
      <trkpt lat="43.58973" lon="3.35748">
        <ele>138.1</ele>
        <time>2024-07-25T07:16:55Z</time>
      </trkpt>
      <trkpt lat="43.58969" lon="3.35743">
        <ele>137.6</ele>
        <time>2024-07-25T07:16:56Z</time>
      </trkpt>
      <trkpt lat="43.58967" lon="3.35738">
        <ele>137.5</ele>
        <time>2024-07-25T07:16:57Z</time>
      </trkpt>
      <trkpt lat="43.58965" lon="3.35733">
        <ele>137.5</ele>
        <time>2024-07-25T07:16:58Z</time>
      </trkpt>
      <trkpt lat="43.58964" lon="3.35729">
        <ele>137.7</ele>
        <time>2024-07-25T07:16:59Z</time>
      </trkpt>
      <trkpt lat="43.58964" lon="3.35726">
        <ele>137.9</ele>
        <time>2024-07-25T07:17:00Z</time>
      </trkpt>
      <trkpt lat="43.58964" lon="3.35724">
        <ele>138</ele>
        <time>2024-07-25T07:17:01Z</time>
      </trkpt>
      <trkpt lat="43.58964" lon="3.35723">
        <ele>138.1</ele>
        <time>2024-07-25T07:17:02Z</time>
      </trkpt>
      <trkpt lat="43.58964" lon="3.35721">
        <ele>138.1</ele>
        <time>2024-07-25T07:17:03Z</time>
      </trkpt>
      <trkpt lat="43.58963" lon="3.35719">
        <ele>138.1</ele>
        <time>2024-07-25T07:17:04Z</time>
      </trkpt>
      <trkpt lat="43.58963" lon="3.35717">
        <ele>138.1</ele>
        <time>2024-07-25T07:17:05Z</time>
      </trkpt>
      <trkpt lat="43.58963" lon="3.35715">
        <ele>138.2</ele>
        <time>2024-07-25T07:17:06Z</time>
      </trkpt>
      <trkpt lat="43.58963" lon="3.35712">
        <ele>138.2</ele>
        <time>2024-07-25T07:17:07Z</time>
      </trkpt>
      <trkpt lat="43.58963" lon="3.35709">
        <ele>138.3</ele>
        <time>2024-07-25T07:17:08Z</time>
      </trkpt>
      <trkpt lat="43.58963" lon="3.35705">
        <ele>138.4</ele>
        <time>2024-07-25T07:17:09Z</time>
      </trkpt>
      <trkpt lat="43.58962" lon="3.35701">
        <ele>138.4</ele>
        <time>2024-07-25T07:17:10Z</time>
      </trkpt>
      <trkpt lat="43.58962" lon="3.35697">
        <ele>138.5</ele>
        <time>2024-07-25T07:17:11Z</time>
      </trkpt>
      <trkpt lat="43.58962" lon="3.35695">
        <ele>138.5</ele>
        <time>2024-07-25T07:17:12Z</time>
      </trkpt>
      <trkpt lat="43.58962" lon="3.35691">
        <ele>137.9</ele>
        <time>2024-07-25T07:17:13Z</time>
      </trkpt>
      <trkpt lat="43.58962" lon="3.35688">
        <ele>137.3</ele>
        <time>2024-07-25T07:17:14Z</time>
      </trkpt>
      <trkpt lat="43.58962" lon="3.35683">
        <ele>136.3</ele>
        <time>2024-07-25T07:17:15Z</time>
      </trkpt>
      <trkpt lat="43.58962" lon="3.3568">
        <ele>135.7</ele>
        <time>2024-07-25T07:17:16Z</time>
      </trkpt>
      <trkpt lat="43.58963" lon="3.35676">
        <ele>135.1</ele>
        <time>2024-07-25T07:17:17Z</time>
      </trkpt>
      <trkpt lat="43.58963" lon="3.35671">
        <ele>134.2</ele>
        <time>2024-07-25T07:17:18Z</time>
      </trkpt>
      <trkpt lat="43.58965" lon="3.35667">
        <ele>133.8</ele>
        <time>2024-07-25T07:17:19Z</time>
      </trkpt>
      <trkpt lat="43.58967" lon="3.35663">
        <ele>133.5</ele>
        <time>2024-07-25T07:17:20Z</time>
      </trkpt>
      <trkpt lat="43.58969" lon="3.35661">
        <ele>133.5</ele>
        <time>2024-07-25T07:17:21Z</time>
      </trkpt>
      <trkpt lat="43.5897" lon="3.35659">
        <ele>133.3</ele>
        <time>2024-07-25T07:17:22Z</time>
      </trkpt>
      <trkpt lat="43.58971" lon="3.35657">
        <ele>133.1</ele>
        <time>2024-07-25T07:17:23Z</time>
      </trkpt>
      <trkpt lat="43.5897" lon="3.35655">
        <ele>132.6</ele>
        <time>2024-07-25T07:17:24Z</time>
      </trkpt>
      <trkpt lat="43.58968" lon="3.35654">
        <ele>132.2</ele>
        <time>2024-07-25T07:17:25Z</time>
      </trkpt>
      <trkpt lat="43.58967" lon="3.35655">
        <ele>132.2</ele>
        <time>2024-07-25T07:17:26Z</time>
      </trkpt>
      <trkpt lat="43.58964" lon="3.35658">
        <ele>132.2</ele>
        <time>2024-07-25T07:17:27Z</time>
      </trkpt>
      <trkpt lat="43.58961" lon="3.3566">
        <ele>132.1</ele>
        <time>2024-07-25T07:17:28Z</time>
      </trkpt>
      <trkpt lat="43.58959" lon="3.35663">
        <ele>132.1</ele>
        <time>2024-07-25T07:17:29Z</time>
      </trkpt>
      <trkpt lat="43.58956" lon="3.35664">
        <ele>131.8</ele>
        <time>2024-07-25T07:17:30Z</time>
      </trkpt>
      <trkpt lat="43.58952" lon="3.35664">
        <ele>131.1</ele>
        <time>2024-07-25T07:17:31Z</time>
      </trkpt>
      <trkpt lat="43.58948" lon="3.35663">
        <ele>130.3</ele>
        <time>2024-07-25T07:17:32Z</time>
      </trkpt>
      <trkpt lat="43.58943" lon="3.35663">
        <ele>129.6</ele>
        <time>2024-07-25T07:17:33Z</time>
      </trkpt>
      <trkpt lat="43.58938" lon="3.35663">
        <ele>129</ele>
        <time>2024-07-25T07:17:34Z</time>
      </trkpt>
      <trkpt lat="43.58936" lon="3.35664">
        <ele>128.9</ele>
        <time>2024-07-25T07:17:35Z</time>
      </trkpt>
      <trkpt lat="43.58933" lon="3.35665">
        <ele>128.6</ele>
        <time>2024-07-25T07:17:36Z</time>
      </trkpt>
      <trkpt lat="43.58931" lon="3.35665">
        <ele>128.4</ele>
        <time>2024-07-25T07:17:37Z</time>
      </trkpt>
      <trkpt lat="43.58928" lon="3.35664">
        <ele>128</ele>
        <time>2024-07-25T07:17:38Z</time>
      </trkpt>
      <trkpt lat="43.58926" lon="3.35663">
        <ele>127.7</ele>
        <time>2024-07-25T07:17:39Z</time>
      </trkpt>
      <trkpt lat="43.58924" lon="3.35661">
        <ele>127.2</ele>
        <time>2024-07-25T07:17:40Z</time>
      </trkpt>
      <trkpt lat="43.58921" lon="3.3566">
        <ele>126.8</ele>
        <time>2024-07-25T07:17:41Z</time>
      </trkpt>
      <trkpt lat="43.58919" lon="3.35658">
        <ele>126.3</ele>
        <time>2024-07-25T07:17:42Z</time>
      </trkpt>
      <trkpt lat="43.58916" lon="3.35658">
        <ele>126</ele>
        <time>2024-07-25T07:17:43Z</time>
      </trkpt>
      <trkpt lat="43.58915" lon="3.3566">
        <ele>126</ele>
        <time>2024-07-25T07:17:44Z</time>
      </trkpt>
      <trkpt lat="43.58913" lon="3.35661">
        <ele>125.8</ele>
        <time>2024-07-25T07:17:45Z</time>
      </trkpt>
      <trkpt lat="43.5891" lon="3.35663">
        <ele>125.4</ele>
        <time>2024-07-25T07:17:46Z</time>
      </trkpt>
      <trkpt lat="43.58908" lon="3.35664">
        <ele>125</ele>
        <time>2024-07-25T07:17:47Z</time>
      </trkpt>
      <trkpt lat="43.58907" lon="3.35664">
        <ele>124.9</ele>
        <time>2024-07-25T07:17:48Z</time>
      </trkpt>
      <trkpt lat="43.58905" lon="3.35664">
        <ele>124.5</ele>
        <time>2024-07-25T07:17:49Z</time>
      </trkpt>
      <trkpt lat="43.58904" lon="3.35661">
        <ele>124.3</ele>
        <time>2024-07-25T07:17:50Z</time>
      </trkpt>
      <trkpt lat="43.58905" lon="3.35659">
        <ele>124.5</ele>
        <time>2024-07-25T07:17:51Z</time>
      </trkpt>
      <trkpt lat="43.58906" lon="3.35657">
        <ele>124.6</ele>
        <time>2024-07-25T07:17:52Z</time>
      </trkpt>
      <trkpt lat="43.58908" lon="3.35656">
        <ele>124.8</ele>
        <time>2024-07-25T07:17:53Z</time>
      </trkpt>
      <trkpt lat="43.58908" lon="3.35655">
        <ele>124.8</ele>
        <time>2024-07-25T07:17:54Z</time>
      </trkpt>
      <trkpt lat="43.58908" lon="3.35656">
        <ele>124.8</ele>
        <time>2024-07-25T07:17:55Z</time>
      </trkpt>
      <trkpt lat="43.58909" lon="3.35652">
        <ele>124.8</ele>
        <time>2024-07-25T07:18:02Z</time>
      </trkpt>
      <trkpt lat="43.58907" lon="3.35651">
        <ele>124.6</ele>
        <time>2024-07-25T07:18:03Z</time>
      </trkpt>
      <trkpt lat="43.58906" lon="3.35653">
        <ele>124.5</ele>
        <time>2024-07-25T07:18:04Z</time>
      </trkpt>
      <trkpt lat="43.58905" lon="3.35656">
        <ele>124.5</ele>
        <time>2024-07-25T07:18:05Z</time>
      </trkpt>
      <trkpt lat="43.58905" lon="3.35658">
        <ele>124.5</ele>
        <time>2024-07-25T07:18:06Z</time>
      </trkpt>
      <trkpt lat="43.58904" lon="3.35659">
        <ele>124.3</ele>
        <time>2024-07-25T07:18:07Z</time>
      </trkpt>
      <trkpt lat="43.58903" lon="3.35661">
        <ele>124.1</ele>
        <time>2024-07-25T07:18:08Z</time>
      </trkpt>
      <trkpt lat="43.58902" lon="3.35663">
        <ele>123.9</ele>
        <time>2024-07-25T07:18:09Z</time>
      </trkpt>
      <trkpt lat="43.58901" lon="3.35665">
        <ele>123.7</ele>
        <time>2024-07-25T07:18:10Z</time>
      </trkpt>
      <trkpt lat="43.589" lon="3.35668">
        <ele>123.6</ele>
        <time>2024-07-25T07:18:11Z</time>
      </trkpt>
      <trkpt lat="43.58899" lon="3.3567">
        <ele>123.6</ele>
        <time>2024-07-25T07:18:12Z</time>
      </trkpt>
      <trkpt lat="43.58898" lon="3.35672">
        <ele>123.7</ele>
        <time>2024-07-25T07:18:13Z</time>
      </trkpt>
      <trkpt lat="43.58897" lon="3.35674">
        <ele>123.7</ele>
        <time>2024-07-25T07:18:14Z</time>
      </trkpt>
      <trkpt lat="43.58895" lon="3.35676">
        <ele>123.4</ele>
        <time>2024-07-25T07:18:15Z</time>
      </trkpt>
      <trkpt lat="43.58893" lon="3.35678">
        <ele>123</ele>
        <time>2024-07-25T07:18:16Z</time>
      </trkpt>
      <trkpt lat="43.5889" lon="3.35679">
        <ele>122.2</ele>
        <time>2024-07-25T07:18:17Z</time>
      </trkpt>
      <trkpt lat="43.58887" lon="3.35681">
        <ele>122.3</ele>
        <time>2024-07-25T07:18:18Z</time>
      </trkpt>
      <trkpt lat="43.58884" lon="3.3568">
        <ele>122.6</ele>
        <time>2024-07-25T07:18:19Z</time>
      </trkpt>
      <trkpt lat="43.58882" lon="3.35678">
        <ele>122.8</ele>
        <time>2024-07-25T07:18:20Z</time>
      </trkpt>
      <trkpt lat="43.58881" lon="3.35675">
        <ele>122.8</ele>
        <time>2024-07-25T07:18:21Z</time>
      </trkpt>
      <trkpt lat="43.58882" lon="3.35671">
        <ele>122.4</ele>
        <time>2024-07-25T07:18:22Z</time>
      </trkpt>
      <trkpt lat="43.58882" lon="3.35668">
        <ele>122.3</ele>
        <time>2024-07-25T07:18:23Z</time>
      </trkpt>
      <trkpt lat="43.58882" lon="3.35665">
        <ele>122.4</ele>
        <time>2024-07-25T07:18:24Z</time>
      </trkpt>
      <trkpt lat="43.58883" lon="3.35663">
        <ele>122.5</ele>
        <time>2024-07-25T07:18:25Z</time>
      </trkpt>
      <trkpt lat="43.58884" lon="3.3566">
        <ele>122.7</ele>
        <time>2024-07-25T07:18:26Z</time>
      </trkpt>
      <trkpt lat="43.58886" lon="3.35656">
        <ele>122.9</ele>
        <time>2024-07-25T07:18:27Z</time>
      </trkpt>
      <trkpt lat="43.58887" lon="3.35654">
        <ele>123</ele>
        <time>2024-07-25T07:18:28Z</time>
      </trkpt>
      <trkpt lat="43.58888" lon="3.35651">
        <ele>123.3</ele>
        <time>2024-07-25T07:18:29Z</time>
      </trkpt>
      <trkpt lat="43.58889" lon="3.35648">
        <ele>123.7</ele>
        <time>2024-07-25T07:18:30Z</time>
      </trkpt>
      <trkpt lat="43.5889" lon="3.35645">
        <ele>124.1</ele>
        <time>2024-07-25T07:18:31Z</time>
      </trkpt>
      <trkpt lat="43.58891" lon="3.35643">
        <ele>124.4</ele>
        <time>2024-07-25T07:18:32Z</time>
      </trkpt>
      <trkpt lat="43.58892" lon="3.3564">
        <ele>124.8</ele>
        <time>2024-07-25T07:18:33Z</time>
      </trkpt>
      <trkpt lat="43.58894" lon="3.35638">
        <ele>124.9</ele>
        <time>2024-07-25T07:18:34Z</time>
      </trkpt>
      <trkpt lat="43.58895" lon="3.35635">
        <ele>124.9</ele>
        <time>2024-07-25T07:18:35Z</time>
      </trkpt>
      <trkpt lat="43.58896" lon="3.35631">
        <ele>124.9</ele>
        <time>2024-07-25T07:18:36Z</time>
      </trkpt>
      <trkpt lat="43.58897" lon="3.35628">
        <ele>124.9</ele>
        <time>2024-07-25T07:18:37Z</time>
      </trkpt>
      <trkpt lat="43.58899" lon="3.35625">
        <ele>124.7</ele>
        <time>2024-07-25T07:18:38Z</time>
      </trkpt>
      <trkpt lat="43.589" lon="3.35622">
        <ele>124.6</ele>
        <time>2024-07-25T07:18:39Z</time>
      </trkpt>
      <trkpt lat="43.58901" lon="3.35619">
        <ele>124.4</ele>
        <time>2024-07-25T07:18:40Z</time>
      </trkpt>
      <trkpt lat="43.58902" lon="3.35617">
        <ele>124.2</ele>
        <time>2024-07-25T07:18:41Z</time>
      </trkpt>
      <trkpt lat="43.58903" lon="3.35613">
        <ele>124</ele>
        <time>2024-07-25T07:18:42Z</time>
      </trkpt>
      <trkpt lat="43.58904" lon="3.3561">
        <ele>123.8</ele>
        <time>2024-07-25T07:18:43Z</time>
      </trkpt>
      <trkpt lat="43.58905" lon="3.35606">
        <ele>123.9</ele>
        <time>2024-07-25T07:18:44Z</time>
      </trkpt>
      <trkpt lat="43.58906" lon="3.35603">
        <ele>124</ele>
        <time>2024-07-25T07:18:45Z</time>
      </trkpt>
      <trkpt lat="43.58907" lon="3.35599">
        <ele>124.2</ele>
        <time>2024-07-25T07:18:46Z</time>
      </trkpt>
      <trkpt lat="43.58909" lon="3.35596">
        <ele>124.2</ele>
        <time>2024-07-25T07:18:47Z</time>
      </trkpt>
      <trkpt lat="43.58911" lon="3.35593">
        <ele>124.3</ele>
        <time>2024-07-25T07:18:48Z</time>
      </trkpt>
      <trkpt lat="43.58912" lon="3.3559">
        <ele>124.5</ele>
        <time>2024-07-25T07:18:49Z</time>
      </trkpt>
      <trkpt lat="43.58914" lon="3.35586">
        <ele>124.8</ele>
        <time>2024-07-25T07:18:50Z</time>
      </trkpt>
      <trkpt lat="43.58915" lon="3.35583">
        <ele>125.1</ele>
        <time>2024-07-25T07:18:51Z</time>
      </trkpt>
      <trkpt lat="43.58915" lon="3.3558">
        <ele>125.4</ele>
        <time>2024-07-25T07:18:52Z</time>
      </trkpt>
      <trkpt lat="43.58916" lon="3.35577">
        <ele>125.5</ele>
        <time>2024-07-25T07:18:53Z</time>
      </trkpt>
      <trkpt lat="43.58917" lon="3.35573">
        <ele>125.7</ele>
        <time>2024-07-25T07:18:54Z</time>
      </trkpt>
      <trkpt lat="43.58918" lon="3.35569">
        <ele>125.9</ele>
        <time>2024-07-25T07:18:55Z</time>
      </trkpt>
      <trkpt lat="43.5892" lon="3.35565">
        <ele>126</ele>
        <time>2024-07-25T07:18:56Z</time>
      </trkpt>
      <trkpt lat="43.58921" lon="3.35562">
        <ele>126.1</ele>
        <time>2024-07-25T07:18:57Z</time>
      </trkpt>
      <trkpt lat="43.58923" lon="3.35558">
        <ele>126</ele>
        <time>2024-07-25T07:18:58Z</time>
      </trkpt>
      <trkpt lat="43.58925" lon="3.35555">
        <ele>125.8</ele>
        <time>2024-07-25T07:18:59Z</time>
      </trkpt>
      <trkpt lat="43.58927" lon="3.35551">
        <ele>125.6</ele>
        <time>2024-07-25T07:19:00Z</time>
      </trkpt>
      <trkpt lat="43.58928" lon="3.35547">
        <ele>125.6</ele>
        <time>2024-07-25T07:19:01Z</time>
      </trkpt>
      <trkpt lat="43.5893" lon="3.35543">
        <ele>125.3</ele>
        <time>2024-07-25T07:19:02Z</time>
      </trkpt>
      <trkpt lat="43.58932" lon="3.3554">
        <ele>125</ele>
        <time>2024-07-25T07:19:03Z</time>
      </trkpt>
      <trkpt lat="43.58934" lon="3.35536">
        <ele>124.8</ele>
        <time>2024-07-25T07:19:04Z</time>
      </trkpt>
      <trkpt lat="43.58935" lon="3.35533">
        <ele>124.6</ele>
        <time>2024-07-25T07:19:05Z</time>
      </trkpt>
      <trkpt lat="43.58937" lon="3.3553">
        <ele>124.3</ele>
        <time>2024-07-25T07:19:06Z</time>
      </trkpt>
      <trkpt lat="43.58938" lon="3.35526">
        <ele>124.4</ele>
        <time>2024-07-25T07:19:07Z</time>
      </trkpt>
      <trkpt lat="43.5894" lon="3.35523">
        <ele>124.5</ele>
        <time>2024-07-25T07:19:08Z</time>
      </trkpt>
      <trkpt lat="43.58941" lon="3.35519">
        <ele>125</ele>
        <time>2024-07-25T07:19:09Z</time>
      </trkpt>
      <trkpt lat="43.58943" lon="3.35516">
        <ele>125.3</ele>
        <time>2024-07-25T07:19:10Z</time>
      </trkpt>
      <trkpt lat="43.58944" lon="3.35512">
        <ele>125.9</ele>
        <time>2024-07-25T07:19:11Z</time>
      </trkpt>
      <trkpt lat="43.58946" lon="3.35508">
        <ele>126.6</ele>
        <time>2024-07-25T07:19:12Z</time>
      </trkpt>
      <trkpt lat="43.58947" lon="3.35504">
        <ele>127.2</ele>
        <time>2024-07-25T07:19:13Z</time>
      </trkpt>
      <trkpt lat="43.58949" lon="3.35501">
        <ele>127.5</ele>
        <time>2024-07-25T07:19:14Z</time>
      </trkpt>
      <trkpt lat="43.58951" lon="3.35497">
        <ele>127.6</ele>
        <time>2024-07-25T07:19:15Z</time>
      </trkpt>
      <trkpt lat="43.58952" lon="3.35494">
        <ele>127.7</ele>
        <time>2024-07-25T07:19:16Z</time>
      </trkpt>
      <trkpt lat="43.58954" lon="3.35491">
        <ele>127.5</ele>
        <time>2024-07-25T07:19:17Z</time>
      </trkpt>
      <trkpt lat="43.58956" lon="3.35488">
        <ele>127.3</ele>
        <time>2024-07-25T07:19:18Z</time>
      </trkpt>
      <trkpt lat="43.58958" lon="3.35485">
        <ele>127</ele>
        <time>2024-07-25T07:19:19Z</time>
      </trkpt>
      <trkpt lat="43.58959" lon="3.35482">
        <ele>126.9</ele>
        <time>2024-07-25T07:19:20Z</time>
      </trkpt>
      <trkpt lat="43.58961" lon="3.35479">
        <ele>126.5</ele>
        <time>2024-07-25T07:19:21Z</time>
      </trkpt>
      <trkpt lat="43.58963" lon="3.35476">
        <ele>126.1</ele>
        <time>2024-07-25T07:19:22Z</time>
      </trkpt>
      <trkpt lat="43.58966" lon="3.35472">
        <ele>125.4</ele>
        <time>2024-07-25T07:19:23Z</time>
      </trkpt>
      <trkpt lat="43.58968" lon="3.35468">
        <ele>125.6</ele>
        <time>2024-07-25T07:19:24Z</time>
      </trkpt>
      <trkpt lat="43.5897" lon="3.35465">
        <ele>125.7</ele>
        <time>2024-07-25T07:19:25Z</time>
      </trkpt>
      <trkpt lat="43.58972" lon="3.35462">
        <ele>125.9</ele>
        <time>2024-07-25T07:19:26Z</time>
      </trkpt>
      <trkpt lat="43.58973" lon="3.35459">
        <ele>126.4</ele>
        <time>2024-07-25T07:19:27Z</time>
      </trkpt>
      <trkpt lat="43.58975" lon="3.35455">
        <ele>127</ele>
        <time>2024-07-25T07:19:28Z</time>
      </trkpt>
      <trkpt lat="43.58977" lon="3.35452">
        <ele>127.4</ele>
        <time>2024-07-25T07:19:29Z</time>
      </trkpt>
      <trkpt lat="43.58979" lon="3.35449">
        <ele>127.6</ele>
        <time>2024-07-25T07:19:30Z</time>
      </trkpt>
      <trkpt lat="43.58981" lon="3.35445">
        <ele>127.7</ele>
        <time>2024-07-25T07:19:31Z</time>
      </trkpt>
      <trkpt lat="43.58983" lon="3.35442">
        <ele>127.5</ele>
        <time>2024-07-25T07:19:32Z</time>
      </trkpt>
      <trkpt lat="43.58985" lon="3.35438">
        <ele>127.4</ele>
        <time>2024-07-25T07:19:33Z</time>
      </trkpt>
      <trkpt lat="43.58987" lon="3.35435">
        <ele>127.2</ele>
        <time>2024-07-25T07:19:34Z</time>
      </trkpt>
      <trkpt lat="43.58989" lon="3.35432">
        <ele>127</ele>
        <time>2024-07-25T07:19:35Z</time>
      </trkpt>
      <trkpt lat="43.58991" lon="3.35428">
        <ele>126.9</ele>
        <time>2024-07-25T07:19:36Z</time>
      </trkpt>
      <trkpt lat="43.58993" lon="3.35425">
        <ele>126.7</ele>
        <time>2024-07-25T07:19:37Z</time>
      </trkpt>
      <trkpt lat="43.58995" lon="3.35422">
        <ele>126.5</ele>
        <time>2024-07-25T07:19:38Z</time>
      </trkpt>
      <trkpt lat="43.58997" lon="3.35419">
        <ele>126.3</ele>
        <time>2024-07-25T07:19:39Z</time>
      </trkpt>
      <trkpt lat="43.58999" lon="3.35416">
        <ele>126.2</ele>
        <time>2024-07-25T07:19:40Z</time>
      </trkpt>
      <trkpt lat="43.59001" lon="3.35413">
        <ele>126.5</ele>
        <time>2024-07-25T07:19:41Z</time>
      </trkpt>
      <trkpt lat="43.59002" lon="3.3541">
        <ele>126.9</ele>
        <time>2024-07-25T07:19:42Z</time>
      </trkpt>
      <trkpt lat="43.59004" lon="3.35407">
        <ele>127.2</ele>
        <time>2024-07-25T07:19:43Z</time>
      </trkpt>
      <trkpt lat="43.59006" lon="3.35404">
        <ele>127.4</ele>
        <time>2024-07-25T07:19:44Z</time>
      </trkpt>
      <trkpt lat="43.59008" lon="3.35401">
        <ele>127.4</ele>
        <time>2024-07-25T07:19:45Z</time>
      </trkpt>
      <trkpt lat="43.5901" lon="3.35398">
        <ele>127.4</ele>
        <time>2024-07-25T07:19:46Z</time>
      </trkpt>
      <trkpt lat="43.59012" lon="3.35395">
        <ele>127.2</ele>
        <time>2024-07-25T07:19:47Z</time>
      </trkpt>
      <trkpt lat="43.59014" lon="3.35392">
        <ele>126.9</ele>
        <time>2024-07-25T07:19:48Z</time>
      </trkpt>
      <trkpt lat="43.59016" lon="3.35388">
        <ele>126.6</ele>
        <time>2024-07-25T07:19:49Z</time>
      </trkpt>
      <trkpt lat="43.59018" lon="3.35385">
        <ele>126.6</ele>
        <time>2024-07-25T07:19:50Z</time>
      </trkpt>
      <trkpt lat="43.59019" lon="3.35383">
        <ele>126.7</ele>
        <time>2024-07-25T07:19:51Z</time>
      </trkpt>
      <trkpt lat="43.59021" lon="3.3538">
        <ele>126.8</ele>
        <time>2024-07-25T07:19:52Z</time>
      </trkpt>
      <trkpt lat="43.59023" lon="3.35377">
        <ele>126.9</ele>
        <time>2024-07-25T07:19:53Z</time>
      </trkpt>
      <trkpt lat="43.59025" lon="3.35374">
        <ele>127.1</ele>
        <time>2024-07-25T07:19:54Z</time>
      </trkpt>
      <trkpt lat="43.59027" lon="3.35371">
        <ele>127.3</ele>
        <time>2024-07-25T07:19:55Z</time>
      </trkpt>
      <trkpt lat="43.59029" lon="3.35368">
        <ele>127.8</ele>
        <time>2024-07-25T07:19:56Z</time>
      </trkpt>
      <trkpt lat="43.59031" lon="3.35365">
        <ele>128.3</ele>
        <time>2024-07-25T07:19:57Z</time>
      </trkpt>
      <trkpt lat="43.59033" lon="3.35363">
        <ele>128.6</ele>
        <time>2024-07-25T07:19:58Z</time>
      </trkpt>
      <trkpt lat="43.59034" lon="3.3536">
        <ele>128.8</ele>
        <time>2024-07-25T07:19:59Z</time>
      </trkpt>
      <trkpt lat="43.59036" lon="3.35356">
        <ele>128.8</ele>
        <time>2024-07-25T07:20:00Z</time>
      </trkpt>
      <trkpt lat="43.59038" lon="3.35353">
        <ele>128.7</ele>
        <time>2024-07-25T07:20:01Z</time>
      </trkpt>
      <trkpt lat="43.5904" lon="3.35349">
        <ele>128.5</ele>
        <time>2024-07-25T07:20:02Z</time>
      </trkpt>
      <trkpt lat="43.59041" lon="3.35346">
        <ele>128.3</ele>
        <time>2024-07-25T07:20:03Z</time>
      </trkpt>
      <trkpt lat="43.59043" lon="3.35343">
        <ele>128</ele>
        <time>2024-07-25T07:20:04Z</time>
      </trkpt>
      <trkpt lat="43.59045" lon="3.35339">
        <ele>127.5</ele>
        <time>2024-07-25T07:20:05Z</time>
      </trkpt>
      <trkpt lat="43.59047" lon="3.35336">
        <ele>127</ele>
        <time>2024-07-25T07:20:06Z</time>
      </trkpt>
      <trkpt lat="43.59049" lon="3.35333">
        <ele>126.5</ele>
        <time>2024-07-25T07:20:07Z</time>
      </trkpt>
      <trkpt lat="43.5905" lon="3.3533">
        <ele>126.8</ele>
        <time>2024-07-25T07:20:08Z</time>
      </trkpt>
      <trkpt lat="43.59052" lon="3.35327">
        <ele>127</ele>
        <time>2024-07-25T07:20:09Z</time>
      </trkpt>
      <trkpt lat="43.59054" lon="3.35324">
        <ele>127.3</ele>
        <time>2024-07-25T07:20:10Z</time>
      </trkpt>
      <trkpt lat="43.59056" lon="3.35321">
        <ele>127.7</ele>
        <time>2024-07-25T07:20:11Z</time>
      </trkpt>
      <trkpt lat="43.59059" lon="3.35318">
        <ele>128.4</ele>
        <time>2024-07-25T07:20:12Z</time>
      </trkpt>
      <trkpt lat="43.59061" lon="3.35315">
        <ele>128.8</ele>
        <time>2024-07-25T07:20:13Z</time>
      </trkpt>
      <trkpt lat="43.59063" lon="3.35313">
        <ele>128.9</ele>
        <time>2024-07-25T07:20:14Z</time>
      </trkpt>
      <trkpt lat="43.59065" lon="3.3531">
        <ele>128.8</ele>
        <time>2024-07-25T07:20:15Z</time>
      </trkpt>
      <trkpt lat="43.59068" lon="3.35307">
        <ele>128.3</ele>
        <time>2024-07-25T07:20:16Z</time>
      </trkpt>
      <trkpt lat="43.5907" lon="3.35304">
        <ele>128.1</ele>
        <time>2024-07-25T07:20:17Z</time>
      </trkpt>
      <trkpt lat="43.59073" lon="3.35302">
        <ele>127.8</ele>
        <time>2024-07-25T07:20:18Z</time>
      </trkpt>
      <trkpt lat="43.59075" lon="3.353">
        <ele>127.8</ele>
        <time>2024-07-25T07:20:19Z</time>
      </trkpt>
      <trkpt lat="43.59077" lon="3.35298">
        <ele>127.9</ele>
        <time>2024-07-25T07:20:20Z</time>
      </trkpt>
      <trkpt lat="43.59079" lon="3.35295">
        <ele>128.2</ele>
        <time>2024-07-25T07:20:21Z</time>
      </trkpt>
      <trkpt lat="43.59081" lon="3.35293">
        <ele>128.4</ele>
        <time>2024-07-25T07:20:22Z</time>
      </trkpt>
      <trkpt lat="43.59084" lon="3.35292">
        <ele>128.5</ele>
        <time>2024-07-25T07:20:23Z</time>
      </trkpt>
      <trkpt lat="43.59087" lon="3.35289">
        <ele>129.4</ele>
        <time>2024-07-25T07:20:24Z</time>
      </trkpt>
      <trkpt lat="43.59089" lon="3.35287">
        <ele>129.8</ele>
        <time>2024-07-25T07:20:25Z</time>
      </trkpt>
      <trkpt lat="43.59091" lon="3.35284">
        <ele>130.2</ele>
        <time>2024-07-25T07:20:26Z</time>
      </trkpt>
      <trkpt lat="43.59093" lon="3.35281">
        <ele>130.4</ele>
        <time>2024-07-25T07:20:27Z</time>
      </trkpt>
      <trkpt lat="43.59095" lon="3.35278">
        <ele>130.3</ele>
        <time>2024-07-25T07:20:28Z</time>
      </trkpt>
      <trkpt lat="43.59097" lon="3.35275">
        <ele>130.1</ele>
        <time>2024-07-25T07:20:29Z</time>
      </trkpt>
      <trkpt lat="43.59098" lon="3.35272">
        <ele>130</ele>
        <time>2024-07-25T07:20:30Z</time>
      </trkpt>
      <trkpt lat="43.591" lon="3.35269">
        <ele>129.8</ele>
        <time>2024-07-25T07:20:31Z</time>
      </trkpt>
      <trkpt lat="43.59102" lon="3.35266">
        <ele>129.6</ele>
        <time>2024-07-25T07:20:32Z</time>
      </trkpt>
      <trkpt lat="43.59103" lon="3.35262">
        <ele>129.6</ele>
        <time>2024-07-25T07:20:33Z</time>
      </trkpt>
      <trkpt lat="43.59105" lon="3.35259">
        <ele>129.4</ele>
        <time>2024-07-25T07:20:34Z</time>
      </trkpt>
      <trkpt lat="43.59107" lon="3.35255">
        <ele>129.3</ele>
        <time>2024-07-25T07:20:35Z</time>
      </trkpt>
      <trkpt lat="43.59108" lon="3.35252">
        <ele>129.3</ele>
        <time>2024-07-25T07:20:36Z</time>
      </trkpt>
      <trkpt lat="43.5911" lon="3.35248">
        <ele>129.3</ele>
        <time>2024-07-25T07:20:37Z</time>
      </trkpt>
      <trkpt lat="43.59112" lon="3.35244">
        <ele>129.8</ele>
        <time>2024-07-25T07:20:38Z</time>
      </trkpt>
      <trkpt lat="43.59113" lon="3.3524">
        <ele>130.3</ele>
        <time>2024-07-25T07:20:39Z</time>
      </trkpt>
      <trkpt lat="43.59114" lon="3.35236">
        <ele>130.8</ele>
        <time>2024-07-25T07:20:40Z</time>
      </trkpt>
      <trkpt lat="43.59115" lon="3.35233">
        <ele>131.1</ele>
        <time>2024-07-25T07:20:41Z</time>
      </trkpt>
      <trkpt lat="43.59116" lon="3.3523">
        <ele>131.3</ele>
        <time>2024-07-25T07:20:42Z</time>
      </trkpt>
      <trkpt lat="43.59117" lon="3.35226">
        <ele>131.6</ele>
        <time>2024-07-25T07:20:43Z</time>
      </trkpt>
      <trkpt lat="43.59118" lon="3.35223">
        <ele>131.7</ele>
        <time>2024-07-25T07:20:44Z</time>
      </trkpt>
      <trkpt lat="43.59119" lon="3.35218">
        <ele>131.8</ele>
        <time>2024-07-25T07:20:45Z</time>
      </trkpt>
      <trkpt lat="43.5912" lon="3.35214">
        <ele>131.9</ele>
        <time>2024-07-25T07:20:46Z</time>
      </trkpt>
      <trkpt lat="43.59121" lon="3.3521">
        <ele>131.9</ele>
        <time>2024-07-25T07:20:47Z</time>
      </trkpt>
      <trkpt lat="43.59122" lon="3.35206">
        <ele>132</ele>
        <time>2024-07-25T07:20:48Z</time>
      </trkpt>
      <trkpt lat="43.59122" lon="3.35202">
        <ele>132.1</ele>
        <time>2024-07-25T07:20:49Z</time>
      </trkpt>
      <trkpt lat="43.59123" lon="3.35198">
        <ele>132.1</ele>
        <time>2024-07-25T07:20:50Z</time>
      </trkpt>
      <trkpt lat="43.59123" lon="3.35194">
        <ele>132.1</ele>
        <time>2024-07-25T07:20:51Z</time>
      </trkpt>
      <trkpt lat="43.59124" lon="3.3519">
        <ele>132</ele>
        <time>2024-07-25T07:20:52Z</time>
      </trkpt>
      <trkpt lat="43.59124" lon="3.35185">
        <ele>131.9</ele>
        <time>2024-07-25T07:20:53Z</time>
      </trkpt>
      <trkpt lat="43.59124" lon="3.35181">
        <ele>131.8</ele>
        <time>2024-07-25T07:20:54Z</time>
      </trkpt>
      <trkpt lat="43.59125" lon="3.35176">
        <ele>131.7</ele>
        <time>2024-07-25T07:20:55Z</time>
      </trkpt>
      <trkpt lat="43.59125" lon="3.35172">
        <ele>131.6</ele>
        <time>2024-07-25T07:20:56Z</time>
      </trkpt>
      <trkpt lat="43.59125" lon="3.35167">
        <ele>131.5</ele>
        <time>2024-07-25T07:20:57Z</time>
      </trkpt>
      <trkpt lat="43.59125" lon="3.35163">
        <ele>131.7</ele>
        <time>2024-07-25T07:20:58Z</time>
      </trkpt>
      <trkpt lat="43.59125" lon="3.35158">
        <ele>132</ele>
        <time>2024-07-25T07:20:59Z</time>
      </trkpt>
      <trkpt lat="43.59124" lon="3.35154">
        <ele>132.3</ele>
        <time>2024-07-25T07:21:00Z</time>
      </trkpt>
      <trkpt lat="43.59124" lon="3.35149">
        <ele>132.5</ele>
        <time>2024-07-25T07:21:01Z</time>
      </trkpt>
      <trkpt lat="43.59123" lon="3.35145">
        <ele>132.8</ele>
        <time>2024-07-25T07:21:02Z</time>
      </trkpt>
      <trkpt lat="43.59123" lon="3.35141">
        <ele>133</ele>
        <time>2024-07-25T07:21:03Z</time>
      </trkpt>
      <trkpt lat="43.59122" lon="3.35137">
        <ele>133.3</ele>
        <time>2024-07-25T07:21:04Z</time>
      </trkpt>
      <trkpt lat="43.59121" lon="3.35133">
        <ele>133.4</ele>
        <time>2024-07-25T07:21:05Z</time>
      </trkpt>
      <trkpt lat="43.5912" lon="3.35129">
        <ele>133.5</ele>
        <time>2024-07-25T07:21:06Z</time>
      </trkpt>
      <trkpt lat="43.59119" lon="3.35126">
        <ele>133.5</ele>
        <time>2024-07-25T07:21:07Z</time>
      </trkpt>
      <trkpt lat="43.59118" lon="3.35122">
        <ele>133.5</ele>
        <time>2024-07-25T07:21:08Z</time>
      </trkpt>
      <trkpt lat="43.59116" lon="3.35118">
        <ele>133.4</ele>
        <time>2024-07-25T07:21:09Z</time>
      </trkpt>
      <trkpt lat="43.59114" lon="3.35114">
        <ele>133.3</ele>
        <time>2024-07-25T07:21:10Z</time>
      </trkpt>
      <trkpt lat="43.59111" lon="3.35111">
        <ele>133</ele>
        <time>2024-07-25T07:21:11Z</time>
      </trkpt>
      <trkpt lat="43.59109" lon="3.35108">
        <ele>132.7</ele>
        <time>2024-07-25T07:21:12Z</time>
      </trkpt>
      <trkpt lat="43.59107" lon="3.35105">
        <ele>132.5</ele>
        <time>2024-07-25T07:21:13Z</time>
      </trkpt>
      <trkpt lat="43.59105" lon="3.35102">
        <ele>132.4</ele>
        <time>2024-07-25T07:21:14Z</time>
      </trkpt>
      <trkpt lat="43.59104" lon="3.35099">
        <ele>132.2</ele>
        <time>2024-07-25T07:21:15Z</time>
      </trkpt>
      <trkpt lat="43.59102" lon="3.35096">
        <ele>132.2</ele>
        <time>2024-07-25T07:21:16Z</time>
      </trkpt>
      <trkpt lat="43.591" lon="3.35092">
        <ele>132.1</ele>
        <time>2024-07-25T07:21:17Z</time>
      </trkpt>
      <trkpt lat="43.59099" lon="3.35089">
        <ele>132.1</ele>
        <time>2024-07-25T07:21:18Z</time>
      </trkpt>
      <trkpt lat="43.59099" lon="3.35085">
        <ele>131.8</ele>
        <time>2024-07-25T07:21:19Z</time>
      </trkpt>
      <trkpt lat="43.59098" lon="3.35081">
        <ele>131.9</ele>
        <time>2024-07-25T07:21:20Z</time>
      </trkpt>
      <trkpt lat="43.59097" lon="3.35078">
        <ele>132.2</ele>
        <time>2024-07-25T07:21:21Z</time>
      </trkpt>
      <trkpt lat="43.59097" lon="3.35074">
        <ele>132.4</ele>
        <time>2024-07-25T07:21:22Z</time>
      </trkpt>
      <trkpt lat="43.59096" lon="3.3507">
        <ele>132.7</ele>
        <time>2024-07-25T07:21:23Z</time>
      </trkpt>
      <trkpt lat="43.59096" lon="3.35066">
        <ele>132.9</ele>
        <time>2024-07-25T07:21:24Z</time>
      </trkpt>
      <trkpt lat="43.59095" lon="3.35063">
        <ele>133.2</ele>
        <time>2024-07-25T07:21:25Z</time>
      </trkpt>
      <trkpt lat="43.59094" lon="3.35059">
        <ele>133.6</ele>
        <time>2024-07-25T07:21:26Z</time>
      </trkpt>
      <trkpt lat="43.59094" lon="3.35055">
        <ele>133.7</ele>
        <time>2024-07-25T07:21:27Z</time>
      </trkpt>
      <trkpt lat="43.59093" lon="3.35051">
        <ele>134.1</ele>
        <time>2024-07-25T07:21:28Z</time>
      </trkpt>
      <trkpt lat="43.59092" lon="3.35048">
        <ele>134.4</ele>
        <time>2024-07-25T07:21:29Z</time>
      </trkpt>
      <trkpt lat="43.59091" lon="3.35044">
        <ele>134.7</ele>
        <time>2024-07-25T07:21:30Z</time>
      </trkpt>
      <trkpt lat="43.5909" lon="3.35041">
        <ele>134.9</ele>
        <time>2024-07-25T07:21:31Z</time>
      </trkpt>
      <trkpt lat="43.59089" lon="3.35036">
        <ele>135.2</ele>
        <time>2024-07-25T07:21:32Z</time>
      </trkpt>
      <trkpt lat="43.59088" lon="3.35032">
        <ele>135.4</ele>
        <time>2024-07-25T07:21:33Z</time>
      </trkpt>
      <trkpt lat="43.59086" lon="3.35028">
        <ele>135.7</ele>
        <time>2024-07-25T07:21:34Z</time>
      </trkpt>
      <trkpt lat="43.59084" lon="3.35025">
        <ele>135.6</ele>
        <time>2024-07-25T07:21:35Z</time>
      </trkpt>
      <trkpt lat="43.59081" lon="3.35023">
        <ele>135.6</ele>
        <time>2024-07-25T07:21:36Z</time>
      </trkpt>
      <trkpt lat="43.59078" lon="3.35022">
        <ele>135.7</ele>
        <time>2024-07-25T07:21:37Z</time>
      </trkpt>
      <trkpt lat="43.59075" lon="3.35022">
        <ele>135.9</ele>
        <time>2024-07-25T07:21:38Z</time>
      </trkpt>
      <trkpt lat="43.59072" lon="3.35022">
        <ele>136</ele>
        <time>2024-07-25T07:21:39Z</time>
      </trkpt>
      <trkpt lat="43.59069" lon="3.35024">
        <ele>136.3</ele>
        <time>2024-07-25T07:21:40Z</time>
      </trkpt>
      <trkpt lat="43.59067" lon="3.35025">
        <ele>136.5</ele>
        <time>2024-07-25T07:21:41Z</time>
      </trkpt>
      <trkpt lat="43.59064" lon="3.35026">
        <ele>136.6</ele>
        <time>2024-07-25T07:21:42Z</time>
      </trkpt>
      <trkpt lat="43.5906" lon="3.35027">
        <ele>136.8</ele>
        <time>2024-07-25T07:21:43Z</time>
      </trkpt>
      <trkpt lat="43.59057" lon="3.35028">
        <ele>136.9</ele>
        <time>2024-07-25T07:21:44Z</time>
      </trkpt>
      <trkpt lat="43.59054" lon="3.35028">
        <ele>137</ele>
        <time>2024-07-25T07:21:45Z</time>
      </trkpt>
      <trkpt lat="43.59051" lon="3.35029">
        <ele>137</ele>
        <time>2024-07-25T07:21:46Z</time>
      </trkpt>
      <trkpt lat="43.59048" lon="3.3503">
        <ele>136.9</ele>
        <time>2024-07-25T07:21:47Z</time>
      </trkpt>
      <trkpt lat="43.59045" lon="3.35031">
        <ele>136.9</ele>
        <time>2024-07-25T07:21:48Z</time>
      </trkpt>
      <trkpt lat="43.59043" lon="3.35032">
        <ele>136.9</ele>
        <time>2024-07-25T07:21:49Z</time>
      </trkpt>
      <trkpt lat="43.5904" lon="3.35033">
        <ele>136.9</ele>
        <time>2024-07-25T07:21:50Z</time>
      </trkpt>
      <trkpt lat="43.59037" lon="3.35033">
        <ele>136.9</ele>
        <time>2024-07-25T07:21:51Z</time>
      </trkpt>
      <trkpt lat="43.59035" lon="3.35033">
        <ele>137</ele>
        <time>2024-07-25T07:21:52Z</time>
      </trkpt>
      <trkpt lat="43.59032" lon="3.35031">
        <ele>137</ele>
        <time>2024-07-25T07:21:53Z</time>
      </trkpt>
      <trkpt lat="43.5903" lon="3.35029">
        <ele>137</ele>
        <time>2024-07-25T07:21:54Z</time>
      </trkpt>
      <trkpt lat="43.59029" lon="3.35026">
        <ele>137</ele>
        <time>2024-07-25T07:21:55Z</time>
      </trkpt>
      <trkpt lat="43.59028" lon="3.35022">
        <ele>137</ele>
        <time>2024-07-25T07:21:56Z</time>
      </trkpt>
      <trkpt lat="43.59027" lon="3.35019">
        <ele>137.1</ele>
        <time>2024-07-25T07:21:57Z</time>
      </trkpt>
      <trkpt lat="43.59026" lon="3.35014">
        <ele>137.1</ele>
        <time>2024-07-25T07:21:58Z</time>
      </trkpt>
      <trkpt lat="43.59024" lon="3.3501">
        <ele>137.3</ele>
        <time>2024-07-25T07:21:59Z</time>
      </trkpt>
      <trkpt lat="43.59023" lon="3.35006">
        <ele>137.3</ele>
        <time>2024-07-25T07:22:00Z</time>
      </trkpt>
      <trkpt lat="43.59022" lon="3.35002">
        <ele>137.4</ele>
        <time>2024-07-25T07:22:01Z</time>
      </trkpt>
      <trkpt lat="43.59021" lon="3.34998">
        <ele>137.5</ele>
        <time>2024-07-25T07:22:02Z</time>
      </trkpt>
      <trkpt lat="43.5902" lon="3.34994">
        <ele>137.5</ele>
        <time>2024-07-25T07:22:03Z</time>
      </trkpt>
      <trkpt lat="43.59019" lon="3.3499">
        <ele>137.5</ele>
        <time>2024-07-25T07:22:04Z</time>
      </trkpt>
      <trkpt lat="43.59018" lon="3.34986">
        <ele>137.5</ele>
        <time>2024-07-25T07:22:05Z</time>
      </trkpt>
      <trkpt lat="43.59017" lon="3.34982">
        <ele>137.5</ele>
        <time>2024-07-25T07:22:06Z</time>
      </trkpt>
      <trkpt lat="43.59016" lon="3.34978">
        <ele>137.5</ele>
        <time>2024-07-25T07:22:07Z</time>
      </trkpt>
      <trkpt lat="43.59015" lon="3.34974">
        <ele>137.5</ele>
        <time>2024-07-25T07:22:08Z</time>
      </trkpt>
      <trkpt lat="43.59013" lon="3.34971">
        <ele>137.6</ele>
        <time>2024-07-25T07:22:09Z</time>
      </trkpt>
      <trkpt lat="43.59011" lon="3.34968">
        <ele>137.7</ele>
        <time>2024-07-25T07:22:10Z</time>
      </trkpt>
      <trkpt lat="43.59009" lon="3.34966">
        <ele>137.7</ele>
        <time>2024-07-25T07:22:11Z</time>
      </trkpt>
      <trkpt lat="43.59007" lon="3.34964">
        <ele>137.8</ele>
        <time>2024-07-25T07:22:12Z</time>
      </trkpt>
      <trkpt lat="43.59004" lon="3.34962">
        <ele>137.9</ele>
        <time>2024-07-25T07:22:13Z</time>
      </trkpt>
      <trkpt lat="43.59003" lon="3.34961">
        <ele>137.9</ele>
        <time>2024-07-25T07:22:14Z</time>
      </trkpt>
      <trkpt lat="43.59" lon="3.34959">
        <ele>138</ele>
        <time>2024-07-25T07:22:15Z</time>
      </trkpt>
      <trkpt lat="43.58998" lon="3.34958">
        <ele>138.8</ele>
        <time>2024-07-25T07:22:16Z</time>
      </trkpt>
      <trkpt lat="43.58996" lon="3.34958">
        <ele>139.5</ele>
        <time>2024-07-25T07:22:17Z</time>
      </trkpt>
      <trkpt lat="43.58994" lon="3.3496">
        <ele>140.3</ele>
        <time>2024-07-25T07:22:18Z</time>
      </trkpt>
      <trkpt lat="43.58993" lon="3.34963">
        <ele>140.8</ele>
        <time>2024-07-25T07:22:19Z</time>
      </trkpt>
      <trkpt lat="43.58992" lon="3.34965">
        <ele>141.2</ele>
        <time>2024-07-25T07:22:20Z</time>
      </trkpt>
      <trkpt lat="43.58992" lon="3.34968">
        <ele>141.3</ele>
        <time>2024-07-25T07:22:21Z</time>
      </trkpt>
      <trkpt lat="43.58992" lon="3.34971">
        <ele>141.4</ele>
        <time>2024-07-25T07:22:22Z</time>
      </trkpt>
      <trkpt lat="43.58992" lon="3.34973">
        <ele>141.5</ele>
        <time>2024-07-25T07:22:23Z</time>
      </trkpt>
      <trkpt lat="43.58991" lon="3.34976">
        <ele>141.9</ele>
        <time>2024-07-25T07:22:24Z</time>
      </trkpt>
      <trkpt lat="43.5899" lon="3.34978">
        <ele>142.3</ele>
        <time>2024-07-25T07:22:25Z</time>
      </trkpt>
      <trkpt lat="43.5899" lon="3.3498">
        <ele>142.3</ele>
        <time>2024-07-25T07:22:26Z</time>
      </trkpt>
      <trkpt lat="43.58989" lon="3.34983">
        <ele>142.7</ele>
        <time>2024-07-25T07:22:27Z</time>
      </trkpt>
      <trkpt lat="43.58988" lon="3.34985">
        <ele>143</ele>
        <time>2024-07-25T07:22:28Z</time>
      </trkpt>
      <trkpt lat="43.58988" lon="3.34988">
        <ele>143</ele>
        <time>2024-07-25T07:22:29Z</time>
      </trkpt>
      <trkpt lat="43.58987" lon="3.34991">
        <ele>143.3</ele>
        <time>2024-07-25T07:22:30Z</time>
      </trkpt>
      <trkpt lat="43.58986" lon="3.34994">
        <ele>143.6</ele>
        <time>2024-07-25T07:22:31Z</time>
      </trkpt>
      <trkpt lat="43.58986" lon="3.34996">
        <ele>143.6</ele>
        <time>2024-07-25T07:22:32Z</time>
      </trkpt>
      <trkpt lat="43.58985" lon="3.34998">
        <ele>143.9</ele>
        <time>2024-07-25T07:22:33Z</time>
      </trkpt>
      <trkpt lat="43.58985" lon="3.35001">
        <ele>143.9</ele>
        <time>2024-07-25T07:22:34Z</time>
      </trkpt>
      <trkpt lat="43.58984" lon="3.35004">
        <ele>144.4</ele>
        <time>2024-07-25T07:22:35Z</time>
      </trkpt>
      <trkpt lat="43.58984" lon="3.35007">
        <ele>144.6</ele>
        <time>2024-07-25T07:22:36Z</time>
      </trkpt>
      <trkpt lat="43.58984" lon="3.35009">
        <ele>144.7</ele>
        <time>2024-07-25T07:22:37Z</time>
      </trkpt>
      <trkpt lat="43.58984" lon="3.35012">
        <ele>144.9</ele>
        <time>2024-07-25T07:22:38Z</time>
      </trkpt>
      <trkpt lat="43.58984" lon="3.35014">
        <ele>145.1</ele>
        <time>2024-07-25T07:22:39Z</time>
      </trkpt>
      <trkpt lat="43.58983" lon="3.35017">
        <ele>145.6</ele>
        <time>2024-07-25T07:22:40Z</time>
      </trkpt>
      <trkpt lat="43.58982" lon="3.3502">
        <ele>146.2</ele>
        <time>2024-07-25T07:22:41Z</time>
      </trkpt>
      <trkpt lat="43.58982" lon="3.35022">
        <ele>146.4</ele>
        <time>2024-07-25T07:22:42Z</time>
      </trkpt>
      <trkpt lat="43.58982" lon="3.35025">
        <ele>146.6</ele>
        <time>2024-07-25T07:22:43Z</time>
      </trkpt>
      <trkpt lat="43.58982" lon="3.35028">
        <ele>146.8</ele>
        <time>2024-07-25T07:22:44Z</time>
      </trkpt>
      <trkpt lat="43.58982" lon="3.3503">
        <ele>147</ele>
        <time>2024-07-25T07:22:45Z</time>
      </trkpt>
      <trkpt lat="43.58982" lon="3.35033">
        <ele>147.3</ele>
        <time>2024-07-25T07:22:46Z</time>
      </trkpt>
      <trkpt lat="43.58982" lon="3.35035">
        <ele>147.5</ele>
        <time>2024-07-25T07:22:47Z</time>
      </trkpt>
      <trkpt lat="43.58982" lon="3.35037">
        <ele>147.7</ele>
        <time>2024-07-25T07:22:48Z</time>
      </trkpt>
      <trkpt lat="43.58982" lon="3.35039">
        <ele>147.8</ele>
        <time>2024-07-25T07:22:49Z</time>
      </trkpt>
      <trkpt lat="43.58982" lon="3.35041">
        <ele>148</ele>
        <time>2024-07-25T07:22:50Z</time>
      </trkpt>
      <trkpt lat="43.58983" lon="3.35044">
        <ele>147.9</ele>
        <time>2024-07-25T07:22:51Z</time>
      </trkpt>
      <trkpt lat="43.58983" lon="3.35048">
        <ele>148.2</ele>
        <time>2024-07-25T07:22:52Z</time>
      </trkpt>
      <trkpt lat="43.58984" lon="3.35051">
        <ele>148.1</ele>
        <time>2024-07-25T07:22:53Z</time>
      </trkpt>
      <trkpt lat="43.58984" lon="3.35054">
        <ele>148.3</ele>
        <time>2024-07-25T07:22:54Z</time>
      </trkpt>
      <trkpt lat="43.58984" lon="3.35056">
        <ele>148.5</ele>
        <time>2024-07-25T07:22:55Z</time>
      </trkpt>
      <trkpt lat="43.58984" lon="3.35059">
        <ele>148.9</ele>
        <time>2024-07-25T07:22:56Z</time>
      </trkpt>
      <trkpt lat="43.58984" lon="3.35062">
        <ele>149.2</ele>
        <time>2024-07-25T07:22:57Z</time>
      </trkpt>
      <trkpt lat="43.58984" lon="3.35064">
        <ele>149.5</ele>
        <time>2024-07-25T07:22:58Z</time>
      </trkpt>
      <trkpt lat="43.58984" lon="3.35066">
        <ele>149.7</ele>
        <time>2024-07-25T07:22:59Z</time>
      </trkpt>
      <trkpt lat="43.58984" lon="3.35069">
        <ele>150.1</ele>
        <time>2024-07-25T07:23:00Z</time>
      </trkpt>
      <trkpt lat="43.58985" lon="3.35071">
        <ele>149.9</ele>
        <time>2024-07-25T07:23:01Z</time>
      </trkpt>
      <trkpt lat="43.58985" lon="3.35073">
        <ele>150.1</ele>
        <time>2024-07-25T07:23:02Z</time>
      </trkpt>
      <trkpt lat="43.58985" lon="3.35076">
        <ele>150.5</ele>
        <time>2024-07-25T07:23:03Z</time>
      </trkpt>
      <trkpt lat="43.58985" lon="3.35078">
        <ele>150.8</ele>
        <time>2024-07-25T07:23:04Z</time>
      </trkpt>
      <trkpt lat="43.58985" lon="3.3508">
        <ele>151</ele>
        <time>2024-07-25T07:23:05Z</time>
      </trkpt>
      <trkpt lat="43.58986" lon="3.35082">
        <ele>150.9</ele>
        <time>2024-07-25T07:23:06Z</time>
      </trkpt>
      <trkpt lat="43.58986" lon="3.35084">
        <ele>151.1</ele>
        <time>2024-07-25T07:23:07Z</time>
      </trkpt>
      <trkpt lat="43.58986" lon="3.35086">
        <ele>151.5</ele>
        <time>2024-07-25T07:23:08Z</time>
      </trkpt>
      <trkpt lat="43.58986" lon="3.35088">
        <ele>151.8</ele>
        <time>2024-07-25T07:23:09Z</time>
      </trkpt>
      <trkpt lat="43.58987" lon="3.35091">
        <ele>151.9</ele>
        <time>2024-07-25T07:23:10Z</time>
      </trkpt>
      <trkpt lat="43.58987" lon="3.35092">
        <ele>152.1</ele>
        <time>2024-07-25T07:23:11Z</time>
      </trkpt>
      <trkpt lat="43.58988" lon="3.35094">
        <ele>152.1</ele>
        <time>2024-07-25T07:23:12Z</time>
      </trkpt>
      <trkpt lat="43.58988" lon="3.35096">
        <ele>152.4</ele>
        <time>2024-07-25T07:23:13Z</time>
      </trkpt>
      <trkpt lat="43.58989" lon="3.35099">
        <ele>152.6</ele>
        <time>2024-07-25T07:23:14Z</time>
      </trkpt>
      <trkpt lat="43.58989" lon="3.35101">
        <ele>152.9</ele>
        <time>2024-07-25T07:23:15Z</time>
      </trkpt>
      <trkpt lat="43.58989" lon="3.35103">
        <ele>153.2</ele>
        <time>2024-07-25T07:23:16Z</time>
      </trkpt>
      <trkpt lat="43.58989" lon="3.35105">
        <ele>153.6</ele>
        <time>2024-07-25T07:23:17Z</time>
      </trkpt>
      <trkpt lat="43.5899" lon="3.35106">
        <ele>153.4</ele>
        <time>2024-07-25T07:23:18Z</time>
      </trkpt>
      <trkpt lat="43.5899" lon="3.35108">
        <ele>153.7</ele>
        <time>2024-07-25T07:23:19Z</time>
      </trkpt>
      <trkpt lat="43.5899" lon="3.3511">
        <ele>154.1</ele>
        <time>2024-07-25T07:23:20Z</time>
      </trkpt>
      <trkpt lat="43.5899" lon="3.35112">
        <ele>154.4</ele>
        <time>2024-07-25T07:23:21Z</time>
      </trkpt>
      <trkpt lat="43.58991" lon="3.35114">
        <ele>154.4</ele>
        <time>2024-07-25T07:23:22Z</time>
      </trkpt>
      <trkpt lat="43.5899" lon="3.35116">
        <ele>155</ele>
        <time>2024-07-25T07:23:23Z</time>
      </trkpt>
      <trkpt lat="43.5899" lon="3.35119">
        <ele>155.4</ele>
        <time>2024-07-25T07:23:24Z</time>
      </trkpt>
      <trkpt lat="43.5899" lon="3.3512">
        <ele>155.6</ele>
        <time>2024-07-25T07:23:25Z</time>
      </trkpt>
      <trkpt lat="43.5899" lon="3.35122">
        <ele>155.9</ele>
        <time>2024-07-25T07:23:26Z</time>
      </trkpt>
      <trkpt lat="43.58991" lon="3.35125">
        <ele>156.1</ele>
        <time>2024-07-25T07:23:27Z</time>
      </trkpt>
      <trkpt lat="43.58991" lon="3.35127">
        <ele>156.4</ele>
        <time>2024-07-25T07:23:28Z</time>
      </trkpt>
      <trkpt lat="43.58991" lon="3.35129">
        <ele>156.7</ele>
        <time>2024-07-25T07:23:29Z</time>
      </trkpt>
      <trkpt lat="43.58991" lon="3.35131">
        <ele>157.1</ele>
        <time>2024-07-25T07:23:30Z</time>
      </trkpt>
      <trkpt lat="43.58991" lon="3.35133">
        <ele>157.4</ele>
        <time>2024-07-25T07:23:31Z</time>
      </trkpt>
      <trkpt lat="43.58991" lon="3.35135">
        <ele>157.7</ele>
        <time>2024-07-25T07:23:32Z</time>
      </trkpt>
      <trkpt lat="43.58992" lon="3.35137">
        <ele>157.8</ele>
        <time>2024-07-25T07:23:33Z</time>
      </trkpt>
      <trkpt lat="43.58991" lon="3.35139">
        <ele>158.3</ele>
        <time>2024-07-25T07:23:34Z</time>
      </trkpt>
      <trkpt lat="43.58991" lon="3.35141">
        <ele>158.4</ele>
        <time>2024-07-25T07:23:35Z</time>
      </trkpt>
      <trkpt lat="43.58992" lon="3.35143">
        <ele>158.4</ele>
        <time>2024-07-25T07:23:36Z</time>
      </trkpt>
      <trkpt lat="43.58992" lon="3.35145">
        <ele>158.5</ele>
        <time>2024-07-25T07:23:37Z</time>
      </trkpt>
      <trkpt lat="43.58992" lon="3.35147">
        <ele>158.6</ele>
        <time>2024-07-25T07:23:38Z</time>
      </trkpt>
      <trkpt lat="43.58992" lon="3.35149">
        <ele>158.7</ele>
        <time>2024-07-25T07:23:39Z</time>
      </trkpt>
      <trkpt lat="43.58992" lon="3.3515">
        <ele>158.7</ele>
        <time>2024-07-25T07:23:40Z</time>
      </trkpt>
      <trkpt lat="43.58991" lon="3.35152">
        <ele>158.9</ele>
        <time>2024-07-25T07:23:41Z</time>
      </trkpt>
      <trkpt lat="43.5899" lon="3.35153">
        <ele>159.1</ele>
        <time>2024-07-25T07:23:42Z</time>
      </trkpt>
      <trkpt lat="43.58989" lon="3.35154">
        <ele>159.2</ele>
        <time>2024-07-25T07:23:43Z</time>
      </trkpt>
      <trkpt lat="43.58988" lon="3.35155">
        <ele>159.4</ele>
        <time>2024-07-25T07:23:44Z</time>
      </trkpt>
      <trkpt lat="43.58986" lon="3.35156">
        <ele>159.6</ele>
        <time>2024-07-25T07:23:45Z</time>
      </trkpt>
      <trkpt lat="43.58985" lon="3.35156">
        <ele>159.7</ele>
        <time>2024-07-25T07:23:46Z</time>
      </trkpt>
      <trkpt lat="43.58983" lon="3.35157">
        <ele>160</ele>
        <time>2024-07-25T07:23:47Z</time>
      </trkpt>
      <trkpt lat="43.58982" lon="3.35157">
        <ele>160.1</ele>
        <time>2024-07-25T07:23:48Z</time>
      </trkpt>
      <trkpt lat="43.5898" lon="3.35158">
        <ele>160.3</ele>
        <time>2024-07-25T07:23:49Z</time>
      </trkpt>
      <trkpt lat="43.58979" lon="3.35158">
        <ele>160.4</ele>
        <time>2024-07-25T07:23:50Z</time>
      </trkpt>
      <trkpt lat="43.58977" lon="3.35158">
        <ele>160.5</ele>
        <time>2024-07-25T07:23:51Z</time>
      </trkpt>
      <trkpt lat="43.58976" lon="3.35158">
        <ele>160.6</ele>
        <time>2024-07-25T07:23:52Z</time>
      </trkpt>
      <trkpt lat="43.58974" lon="3.35159">
        <ele>160.8</ele>
        <time>2024-07-25T07:23:53Z</time>
      </trkpt>
      <trkpt lat="43.58973" lon="3.35159">
        <ele>160.9</ele>
        <time>2024-07-25T07:23:54Z</time>
      </trkpt>
      <trkpt lat="43.58971" lon="3.35159">
        <ele>161.2</ele>
        <time>2024-07-25T07:23:55Z</time>
      </trkpt>
      <trkpt lat="43.5897" lon="3.3516">
        <ele>161.4</ele>
        <time>2024-07-25T07:23:56Z</time>
      </trkpt>
      <trkpt lat="43.58969" lon="3.3516">
        <ele>161.6</ele>
        <time>2024-07-25T07:23:57Z</time>
      </trkpt>
      <trkpt lat="43.58968" lon="3.35162">
        <ele>161.7</ele>
        <time>2024-07-25T07:23:58Z</time>
      </trkpt>
      <trkpt lat="43.58966" lon="3.35163">
        <ele>162.1</ele>
        <time>2024-07-25T07:23:59Z</time>
      </trkpt>
      <trkpt lat="43.58965" lon="3.35165">
        <ele>162.3</ele>
        <time>2024-07-25T07:24:00Z</time>
      </trkpt>
      <trkpt lat="43.58964" lon="3.35166">
        <ele>162.5</ele>
        <time>2024-07-25T07:24:01Z</time>
      </trkpt>
      <trkpt lat="43.58963" lon="3.35167">
        <ele>162.7</ele>
        <time>2024-07-25T07:24:02Z</time>
      </trkpt>
      <trkpt lat="43.58962" lon="3.35168">
        <ele>162.8</ele>
        <time>2024-07-25T07:24:03Z</time>
      </trkpt>
      <trkpt lat="43.58961" lon="3.3517">
        <ele>162.9</ele>
        <time>2024-07-25T07:24:04Z</time>
      </trkpt>
      <trkpt lat="43.5896" lon="3.35172">
        <ele>163.1</ele>
        <time>2024-07-25T07:24:05Z</time>
      </trkpt>
      <trkpt lat="43.58959" lon="3.35174">
        <ele>163.2</ele>
        <time>2024-07-25T07:24:06Z</time>
      </trkpt>
      <trkpt lat="43.58957" lon="3.35176">
        <ele>163.6</ele>
        <time>2024-07-25T07:24:07Z</time>
      </trkpt>
      <trkpt lat="43.58956" lon="3.35178">
        <ele>163.8</ele>
        <time>2024-07-25T07:24:08Z</time>
      </trkpt>
      <trkpt lat="43.58955" lon="3.3518">
        <ele>163.9</ele>
        <time>2024-07-25T07:24:09Z</time>
      </trkpt>
      <trkpt lat="43.58954" lon="3.35183">
        <ele>164.1</ele>
        <time>2024-07-25T07:24:10Z</time>
      </trkpt>
      <trkpt lat="43.58952" lon="3.35186">
        <ele>164.5</ele>
        <time>2024-07-25T07:24:11Z</time>
      </trkpt>
      <trkpt lat="43.58951" lon="3.35189">
        <ele>164.6</ele>
        <time>2024-07-25T07:24:12Z</time>
      </trkpt>
      <trkpt lat="43.5895" lon="3.35192">
        <ele>164.8</ele>
        <time>2024-07-25T07:24:13Z</time>
      </trkpt>
      <trkpt lat="43.58949" lon="3.35195">
        <ele>165</ele>
        <time>2024-07-25T07:24:14Z</time>
      </trkpt>
      <trkpt lat="43.58948" lon="3.35198">
        <ele>165.1</ele>
        <time>2024-07-25T07:24:15Z</time>
      </trkpt>
      <trkpt lat="43.58947" lon="3.35201">
        <ele>165.2</ele>
        <time>2024-07-25T07:24:16Z</time>
      </trkpt>
      <trkpt lat="43.58946" lon="3.35204">
        <ele>165.3</ele>
        <time>2024-07-25T07:24:17Z</time>
      </trkpt>
      <trkpt lat="43.58945" lon="3.35207">
        <ele>165.4</ele>
        <time>2024-07-25T07:24:18Z</time>
      </trkpt>
      <trkpt lat="43.58943" lon="3.3521">
        <ele>165.6</ele>
        <time>2024-07-25T07:24:19Z</time>
      </trkpt>
      <trkpt lat="43.58942" lon="3.35213">
        <ele>165.6</ele>
        <time>2024-07-25T07:24:20Z</time>
      </trkpt>
      <trkpt lat="43.58941" lon="3.35215">
        <ele>165.6</ele>
        <time>2024-07-25T07:24:21Z</time>
      </trkpt>
      <trkpt lat="43.58939" lon="3.35219">
        <ele>165.7</ele>
        <time>2024-07-25T07:24:22Z</time>
      </trkpt>
      <trkpt lat="43.58938" lon="3.35222">
        <ele>165.7</ele>
        <time>2024-07-25T07:24:23Z</time>
      </trkpt>
      <trkpt lat="43.58937" lon="3.35225">
        <ele>165.6</ele>
        <time>2024-07-25T07:24:24Z</time>
      </trkpt>
      <trkpt lat="43.58936" lon="3.35228">
        <ele>165.6</ele>
        <time>2024-07-25T07:24:25Z</time>
      </trkpt>
      <trkpt lat="43.58935" lon="3.35232">
        <ele>165.4</ele>
        <time>2024-07-25T07:24:26Z</time>
      </trkpt>
      <trkpt lat="43.58934" lon="3.35235">
        <ele>165.4</ele>
        <time>2024-07-25T07:24:27Z</time>
      </trkpt>
      <trkpt lat="43.58932" lon="3.35239">
        <ele>165.4</ele>
        <time>2024-07-25T07:24:28Z</time>
      </trkpt>
      <trkpt lat="43.58931" lon="3.35243">
        <ele>165.3</ele>
        <time>2024-07-25T07:24:29Z</time>
      </trkpt>
      <trkpt lat="43.58929" lon="3.35246">
        <ele>165.4</ele>
        <time>2024-07-25T07:24:30Z</time>
      </trkpt>
      <trkpt lat="43.58928" lon="3.35249">
        <ele>165.4</ele>
        <time>2024-07-25T07:24:31Z</time>
      </trkpt>
      <trkpt lat="43.58926" lon="3.35252">
        <ele>165.4</ele>
        <time>2024-07-25T07:24:32Z</time>
      </trkpt>
      <trkpt lat="43.58924" lon="3.35255">
        <ele>165.4</ele>
        <time>2024-07-25T07:24:33Z</time>
      </trkpt>
      <trkpt lat="43.58922" lon="3.35258">
        <ele>165.5</ele>
        <time>2024-07-25T07:24:34Z</time>
      </trkpt>
      <trkpt lat="43.58919" lon="3.35262">
        <ele>165.7</ele>
        <time>2024-07-25T07:24:35Z</time>
      </trkpt>
      <trkpt lat="43.58917" lon="3.35265">
        <ele>165.9</ele>
        <time>2024-07-25T07:24:36Z</time>
      </trkpt>
      <trkpt lat="43.58914" lon="3.35268">
        <ele>165.9</ele>
        <time>2024-07-25T07:24:37Z</time>
      </trkpt>
      <trkpt lat="43.58911" lon="3.3527">
        <ele>166.1</ele>
        <time>2024-07-25T07:24:38Z</time>
      </trkpt>
      <trkpt lat="43.58908" lon="3.35272">
        <ele>166.2</ele>
        <time>2024-07-25T07:24:39Z</time>
      </trkpt>
      <trkpt lat="43.58905" lon="3.35274">
        <ele>166.4</ele>
        <time>2024-07-25T07:24:40Z</time>
      </trkpt>
      <trkpt lat="43.58902" lon="3.35276">
        <ele>166.6</ele>
        <time>2024-07-25T07:24:41Z</time>
      </trkpt>
      <trkpt lat="43.58899" lon="3.35278">
        <ele>166.8</ele>
        <time>2024-07-25T07:24:42Z</time>
      </trkpt>
      <trkpt lat="43.58896" lon="3.35279">
        <ele>166.8</ele>
        <time>2024-07-25T07:24:43Z</time>
      </trkpt>
      <trkpt lat="43.58894" lon="3.35281">
        <ele>166.4</ele>
        <time>2024-07-25T07:24:44Z</time>
      </trkpt>
      <trkpt lat="43.58891" lon="3.35283">
        <ele>166.1</ele>
        <time>2024-07-25T07:24:45Z</time>
      </trkpt>
      <trkpt lat="43.58889" lon="3.35286">
        <ele>165.3</ele>
        <time>2024-07-25T07:24:46Z</time>
      </trkpt>
      <trkpt lat="43.58886" lon="3.35289">
        <ele>164.7</ele>
        <time>2024-07-25T07:24:47Z</time>
      </trkpt>
      <trkpt lat="43.58883" lon="3.35291">
        <ele>164.5</ele>
        <time>2024-07-25T07:24:48Z</time>
      </trkpt>
      <trkpt lat="43.5888" lon="3.35294">
        <ele>164.2</ele>
        <time>2024-07-25T07:24:49Z</time>
      </trkpt>
      <trkpt lat="43.58877" lon="3.35296">
        <ele>164.3</ele>
        <time>2024-07-25T07:24:50Z</time>
      </trkpt>
      <trkpt lat="43.58873" lon="3.35297">
        <ele>164.9</ele>
        <time>2024-07-25T07:24:51Z</time>
      </trkpt>
      <trkpt lat="43.5887" lon="3.35298">
        <ele>165.4</ele>
        <time>2024-07-25T07:24:52Z</time>
      </trkpt>
      <trkpt lat="43.58866" lon="3.35299">
        <ele>166.2</ele>
        <time>2024-07-25T07:24:53Z</time>
      </trkpt>
      <trkpt lat="43.58863" lon="3.35299">
        <ele>166.8</ele>
        <time>2024-07-25T07:24:54Z</time>
      </trkpt>
      <trkpt lat="43.5886" lon="3.353">
        <ele>167.2</ele>
        <time>2024-07-25T07:24:55Z</time>
      </trkpt>
      <trkpt lat="43.58857" lon="3.35301">
        <ele>167.2</ele>
        <time>2024-07-25T07:24:56Z</time>
      </trkpt>
      <trkpt lat="43.58854" lon="3.35302">
        <ele>167.2</ele>
        <time>2024-07-25T07:24:57Z</time>
      </trkpt>
      <trkpt lat="43.58851" lon="3.35303">
        <ele>167.1</ele>
        <time>2024-07-25T07:24:58Z</time>
      </trkpt>
      <trkpt lat="43.58848" lon="3.35303">
        <ele>167.1</ele>
        <time>2024-07-25T07:24:59Z</time>
      </trkpt>
      <trkpt lat="43.58845" lon="3.35303">
        <ele>167.1</ele>
        <time>2024-07-25T07:25:00Z</time>
      </trkpt>
      <trkpt lat="43.58842" lon="3.35303">
        <ele>167.2</ele>
        <time>2024-07-25T07:25:01Z</time>
      </trkpt>
      <trkpt lat="43.58839" lon="3.35304">
        <ele>167.1</ele>
        <time>2024-07-25T07:25:02Z</time>
      </trkpt>
      <trkpt lat="43.58835" lon="3.35304">
        <ele>167.1</ele>
        <time>2024-07-25T07:25:03Z</time>
      </trkpt>
      <trkpt lat="43.58832" lon="3.35305">
        <ele>167.1</ele>
        <time>2024-07-25T07:25:04Z</time>
      </trkpt>
      <trkpt lat="43.5883" lon="3.35306">
        <ele>167.1</ele>
        <time>2024-07-25T07:25:05Z</time>
      </trkpt>
      <trkpt lat="43.58827" lon="3.35308">
        <ele>166.9</ele>
        <time>2024-07-25T07:25:06Z</time>
      </trkpt>
      <trkpt lat="43.58825" lon="3.3531">
        <ele>166.7</ele>
        <time>2024-07-25T07:25:07Z</time>
      </trkpt>
      <trkpt lat="43.58822" lon="3.35312">
        <ele>166.6</ele>
        <time>2024-07-25T07:25:08Z</time>
      </trkpt>
      <trkpt lat="43.58819" lon="3.35315">
        <ele>166.4</ele>
        <time>2024-07-25T07:25:09Z</time>
      </trkpt>
      <trkpt lat="43.58816" lon="3.35317">
        <ele>166.4</ele>
        <time>2024-07-25T07:25:10Z</time>
      </trkpt>
      <trkpt lat="43.58813" lon="3.35319">
        <ele>166.5</ele>
        <time>2024-07-25T07:25:11Z</time>
      </trkpt>
      <trkpt lat="43.5881" lon="3.35322">
        <ele>166.5</ele>
        <time>2024-07-25T07:25:12Z</time>
      </trkpt>
      <trkpt lat="43.58806" lon="3.35325">
        <ele>166.8</ele>
        <time>2024-07-25T07:25:13Z</time>
      </trkpt>
      <trkpt lat="43.58803" lon="3.35329">
        <ele>166.7</ele>
        <time>2024-07-25T07:25:14Z</time>
      </trkpt>
      <trkpt lat="43.58801" lon="3.35332">
        <ele>166.6</ele>
        <time>2024-07-25T07:25:15Z</time>
      </trkpt>
      <trkpt lat="43.58799" lon="3.35335">
        <ele>166.6</ele>
        <time>2024-07-25T07:25:16Z</time>
      </trkpt>
      <trkpt lat="43.58796" lon="3.35339">
        <ele>166.6</ele>
        <time>2024-07-25T07:25:17Z</time>
      </trkpt>
      <trkpt lat="43.58794" lon="3.35343">
        <ele>166.5</ele>
        <time>2024-07-25T07:25:18Z</time>
      </trkpt>
      <trkpt lat="43.58792" lon="3.35348">
        <ele>166.4</ele>
        <time>2024-07-25T07:25:19Z</time>
      </trkpt>
      <trkpt lat="43.5879" lon="3.35352">
        <ele>166.4</ele>
        <time>2024-07-25T07:25:20Z</time>
      </trkpt>
      <trkpt lat="43.58788" lon="3.35356">
        <ele>166.5</ele>
        <time>2024-07-25T07:25:21Z</time>
      </trkpt>
      <trkpt lat="43.58786" lon="3.3536">
        <ele>166.6</ele>
        <time>2024-07-25T07:25:22Z</time>
      </trkpt>
      <trkpt lat="43.58784" lon="3.35365">
        <ele>166.7</ele>
        <time>2024-07-25T07:25:23Z</time>
      </trkpt>
      <trkpt lat="43.58782" lon="3.35369">
        <ele>166.9</ele>
        <time>2024-07-25T07:25:24Z</time>
      </trkpt>
      <trkpt lat="43.5878" lon="3.35372">
        <ele>167.1</ele>
        <time>2024-07-25T07:25:25Z</time>
      </trkpt>
      <trkpt lat="43.58779" lon="3.35375">
        <ele>167.2</ele>
        <time>2024-07-25T07:25:26Z</time>
      </trkpt>
      <trkpt lat="43.58778" lon="3.35376">
        <ele>167.4</ele>
        <time>2024-07-25T07:25:27Z</time>
      </trkpt>
      <trkpt lat="43.58777" lon="3.35377">
        <ele>167.5</ele>
        <time>2024-07-25T07:25:28Z</time>
      </trkpt>
      <trkpt lat="43.58777" lon="3.35378">
        <ele>167.4</ele>
        <time>2024-07-25T07:25:29Z</time>
      </trkpt>
      <trkpt lat="43.58777" lon="3.35379">
        <ele>167.4</ele>
        <time>2024-07-25T07:25:30Z</time>
      </trkpt>
      <trkpt lat="43.58777" lon="3.35379">
        <ele>167.4</ele>
        <time>2024-07-25T07:25:31Z</time>
      </trkpt>
      <trkpt lat="43.58781" lon="3.35381">
        <ele>166.5</ele>
        <time>2024-07-25T07:25:41Z</time>
      </trkpt>
      <trkpt lat="43.58782" lon="3.35381">
        <ele>166.3</ele>
        <time>2024-07-25T07:25:42Z</time>
      </trkpt>
      <trkpt lat="43.58784" lon="3.35379">
        <ele>165.9</ele>
        <time>2024-07-25T07:25:43Z</time>
      </trkpt>
      <trkpt lat="43.58786" lon="3.35376">
        <ele>165.7</ele>
        <time>2024-07-25T07:25:44Z</time>
      </trkpt>
      <trkpt lat="43.58787" lon="3.35374">
        <ele>165.6</ele>
        <time>2024-07-25T07:25:45Z</time>
      </trkpt>
      <trkpt lat="43.58789" lon="3.35373">
        <ele>165.2</ele>
        <time>2024-07-25T07:25:46Z</time>
      </trkpt>
      <trkpt lat="43.58791" lon="3.35374">
        <ele>164.7</ele>
        <time>2024-07-25T07:25:47Z</time>
      </trkpt>
      <trkpt lat="43.58793" lon="3.35375">
        <ele>164.2</ele>
        <time>2024-07-25T07:25:48Z</time>
      </trkpt>
      <trkpt lat="43.58795" lon="3.35374">
        <ele>163.9</ele>
        <time>2024-07-25T07:25:49Z</time>
      </trkpt>
      <trkpt lat="43.58798" lon="3.35374">
        <ele>163.2</ele>
        <time>2024-07-25T07:25:50Z</time>
      </trkpt>
      <trkpt lat="43.58801" lon="3.35373">
        <ele>162.7</ele>
        <time>2024-07-25T07:25:51Z</time>
      </trkpt>
      <trkpt lat="43.58805" lon="3.35372">
        <ele>161.9</ele>
        <time>2024-07-25T07:25:52Z</time>
      </trkpt>
      <trkpt lat="43.58809" lon="3.35371">
        <ele>161.1</ele>
        <time>2024-07-25T07:25:53Z</time>
      </trkpt>
      <trkpt lat="43.58812" lon="3.35371">
        <ele>160.4</ele>
        <time>2024-07-25T07:25:54Z</time>
      </trkpt>
      <trkpt lat="43.58816" lon="3.35371">
        <ele>159.5</ele>
        <time>2024-07-25T07:25:55Z</time>
      </trkpt>
      <trkpt lat="43.58819" lon="3.35371">
        <ele>158.8</ele>
        <time>2024-07-25T07:25:56Z</time>
      </trkpt>
      <trkpt lat="43.58824" lon="3.3537">
        <ele>157.9</ele>
        <time>2024-07-25T07:25:57Z</time>
      </trkpt>
      <trkpt lat="43.58828" lon="3.35369">
        <ele>157.2</ele>
        <time>2024-07-25T07:25:58Z</time>
      </trkpt>
      <trkpt lat="43.5883" lon="3.35367">
        <ele>157.2</ele>
        <time>2024-07-25T07:25:59Z</time>
      </trkpt>
      <trkpt lat="43.58832" lon="3.35365">
        <ele>157.3</ele>
        <time>2024-07-25T07:26:00Z</time>
      </trkpt>
      <trkpt lat="43.58833" lon="3.35364">
        <ele>157.3</ele>
        <time>2024-07-25T07:26:01Z</time>
      </trkpt>
      <trkpt lat="43.58834" lon="3.35362">
        <ele>157.5</ele>
        <time>2024-07-25T07:26:02Z</time>
      </trkpt>
      <trkpt lat="43.58836" lon="3.35362">
        <ele>156.8</ele>
        <time>2024-07-25T07:26:03Z</time>
      </trkpt>
      <trkpt lat="43.58837" lon="3.35361">
        <ele>156.7</ele>
        <time>2024-07-25T07:26:04Z</time>
      </trkpt>
      <trkpt lat="43.58837" lon="3.35361">
        <ele>156.7</ele>
        <time>2024-07-25T07:26:05Z</time>
      </trkpt>
      <trkpt lat="43.58837" lon="3.35361">
        <ele>156.7</ele>
        <time>2024-07-25T07:26:06Z</time>
      </trkpt>
      <trkpt lat="43.58841" lon="3.35378">
        <ele>151.2</ele>
        <time>2024-07-25T07:27:11Z</time>
      </trkpt>
      <trkpt lat="43.58841" lon="3.35381">
        <ele>150.4</ele>
        <time>2024-07-25T07:27:12Z</time>
      </trkpt>
      <trkpt lat="43.5884" lon="3.35384">
        <ele>150</ele>
        <time>2024-07-25T07:27:13Z</time>
      </trkpt>
      <trkpt lat="43.58841" lon="3.35388">
        <ele>148.7</ele>
        <time>2024-07-25T07:27:14Z</time>
      </trkpt>
      <trkpt lat="43.58841" lon="3.35391">
        <ele>148</ele>
        <time>2024-07-25T07:27:15Z</time>
      </trkpt>
      <trkpt lat="43.5884" lon="3.35395">
        <ele>147.4</ele>
        <time>2024-07-25T07:27:16Z</time>
      </trkpt>
      <trkpt lat="43.58839" lon="3.35398">
        <ele>146.9</ele>
        <time>2024-07-25T07:27:17Z</time>
      </trkpt>
      <trkpt lat="43.58839" lon="3.354">
        <ele>146.4</ele>
        <time>2024-07-25T07:27:18Z</time>
      </trkpt>
      <trkpt lat="43.58839" lon="3.35404">
        <ele>145.5</ele>
        <time>2024-07-25T07:27:19Z</time>
      </trkpt>
      <trkpt lat="43.58839" lon="3.35407">
        <ele>144.7</ele>
        <time>2024-07-25T07:27:20Z</time>
      </trkpt>
      <trkpt lat="43.58839" lon="3.35411">
        <ele>143.8</ele>
        <time>2024-07-25T07:27:21Z</time>
      </trkpt>
      <trkpt lat="43.58839" lon="3.35415">
        <ele>142.8</ele>
        <time>2024-07-25T07:27:22Z</time>
      </trkpt>
      <trkpt lat="43.58839" lon="3.35419">
        <ele>141.9</ele>
        <time>2024-07-25T07:27:23Z</time>
      </trkpt>
      <trkpt lat="43.58838" lon="3.35422">
        <ele>141.6</ele>
        <time>2024-07-25T07:27:24Z</time>
      </trkpt>
      <trkpt lat="43.58837" lon="3.35426">
        <ele>141.1</ele>
        <time>2024-07-25T07:27:25Z</time>
      </trkpt>
      <trkpt lat="43.58835" lon="3.35431">
        <ele>140.5</ele>
        <time>2024-07-25T07:27:26Z</time>
      </trkpt>
      <trkpt lat="43.58834" lon="3.35437">
        <ele>139.5</ele>
        <time>2024-07-25T07:27:27Z</time>
      </trkpt>
      <trkpt lat="43.58832" lon="3.35445">
        <ele>138.4</ele>
        <time>2024-07-25T07:27:28Z</time>
      </trkpt>
      <trkpt lat="43.58831" lon="3.35451">
        <ele>138.1</ele>
        <time>2024-07-25T07:27:29Z</time>
      </trkpt>
      <trkpt lat="43.5883" lon="3.35454">
        <ele>138</ele>
        <time>2024-07-25T07:27:30Z</time>
      </trkpt>
      <trkpt lat="43.5883" lon="3.35457">
        <ele>137.7</ele>
        <time>2024-07-25T07:27:31Z</time>
      </trkpt>
      <trkpt lat="43.5883" lon="3.35459">
        <ele>137.4</ele>
        <time>2024-07-25T07:27:32Z</time>
      </trkpt>
      <trkpt lat="43.58829" lon="3.35462">
        <ele>137.4</ele>
        <time>2024-07-25T07:27:33Z</time>
      </trkpt>
      <trkpt lat="43.58828" lon="3.35466">
        <ele>137.1</ele>
        <time>2024-07-25T07:27:34Z</time>
      </trkpt>
      <trkpt lat="43.58826" lon="3.35468">
        <ele>137.4</ele>
        <time>2024-07-25T07:27:35Z</time>
      </trkpt>
      <trkpt lat="43.58824" lon="3.3547">
        <ele>137.7</ele>
        <time>2024-07-25T07:27:36Z</time>
      </trkpt>
      <trkpt lat="43.58823" lon="3.35472">
        <ele>137.6</ele>
        <time>2024-07-25T07:27:37Z</time>
      </trkpt>
      <trkpt lat="43.58821" lon="3.35474">
        <ele>137.9</ele>
        <time>2024-07-25T07:27:38Z</time>
      </trkpt>
      <trkpt lat="43.5882" lon="3.35476">
        <ele>137.8</ele>
        <time>2024-07-25T07:27:39Z</time>
      </trkpt>
      <trkpt lat="43.58818" lon="3.35477">
        <ele>138.2</ele>
        <time>2024-07-25T07:27:40Z</time>
      </trkpt>
      <trkpt lat="43.58817" lon="3.35479">
        <ele>138.1</ele>
        <time>2024-07-25T07:27:41Z</time>
      </trkpt>
      <trkpt lat="43.58816" lon="3.3548">
        <ele>138.2</ele>
        <time>2024-07-25T07:27:42Z</time>
      </trkpt>
      <trkpt lat="43.58815" lon="3.35482">
        <ele>138.1</ele>
        <time>2024-07-25T07:27:43Z</time>
      </trkpt>
      <trkpt lat="43.58813" lon="3.35483">
        <ele>138.4</ele>
        <time>2024-07-25T07:27:44Z</time>
      </trkpt>
      <trkpt lat="43.58812" lon="3.35486">
        <ele>138.1</ele>
        <time>2024-07-25T07:27:45Z</time>
      </trkpt>
      <trkpt lat="43.58811" lon="3.35489">
        <ele>137.8</ele>
        <time>2024-07-25T07:27:46Z</time>
      </trkpt>
      <trkpt lat="43.5881" lon="3.3549">
        <ele>137.9</ele>
        <time>2024-07-25T07:27:47Z</time>
      </trkpt>
      <trkpt lat="43.5881" lon="3.35489">
        <ele>138.1</ele>
        <time>2024-07-25T07:27:48Z</time>
      </trkpt>
      <trkpt lat="43.5881" lon="3.35489">
        <ele>138.1</ele>
        <time>2024-07-25T07:27:49Z</time>
      </trkpt>
      <trkpt lat="43.58807" lon="3.35495">
        <ele>137.6</ele>
        <time>2024-07-25T07:28:38Z</time>
      </trkpt>
      <trkpt lat="43.58805" lon="3.35499">
        <ele>137.5</ele>
        <time>2024-07-25T07:28:39Z</time>
      </trkpt>
      <trkpt lat="43.58803" lon="3.35504">
        <ele>137.7</ele>
        <time>2024-07-25T07:28:40Z</time>
      </trkpt>
      <trkpt lat="43.588" lon="3.3551">
        <ele>138.1</ele>
        <time>2024-07-25T07:28:41Z</time>
      </trkpt>
      <trkpt lat="43.58798" lon="3.35515">
        <ele>138</ele>
        <time>2024-07-25T07:28:42Z</time>
      </trkpt>
      <trkpt lat="43.58796" lon="3.3552">
        <ele>137.8</ele>
        <time>2024-07-25T07:28:43Z</time>
      </trkpt>
      <trkpt lat="43.58793" lon="3.35525">
        <ele>137.7</ele>
        <time>2024-07-25T07:28:44Z</time>
      </trkpt>
      <trkpt lat="43.58791" lon="3.35531">
        <ele>137.2</ele>
        <time>2024-07-25T07:28:45Z</time>
      </trkpt>
      <trkpt lat="43.58788" lon="3.35536">
        <ele>137.3</ele>
        <time>2024-07-25T07:28:46Z</time>
      </trkpt>
      <trkpt lat="43.58786" lon="3.35543">
        <ele>136.7</ele>
        <time>2024-07-25T07:28:47Z</time>
      </trkpt>
      <trkpt lat="43.58783" lon="3.35549">
        <ele>136.3</ele>
        <time>2024-07-25T07:28:48Z</time>
      </trkpt>
      <trkpt lat="43.5878" lon="3.35556">
        <ele>135.5</ele>
        <time>2024-07-25T07:28:49Z</time>
      </trkpt>
      <trkpt lat="43.58776" lon="3.35563">
        <ele>135.9</ele>
        <time>2024-07-25T07:28:50Z</time>
      </trkpt>
      <trkpt lat="43.58772" lon="3.3557">
        <ele>137</ele>
        <time>2024-07-25T07:28:51Z</time>
      </trkpt>
      <trkpt lat="43.58768" lon="3.35576">
        <ele>137.6</ele>
        <time>2024-07-25T07:28:52Z</time>
      </trkpt>
      <trkpt lat="43.58764" lon="3.35581">
        <ele>137.8</ele>
        <time>2024-07-25T07:28:53Z</time>
      </trkpt>
      <trkpt lat="43.5876" lon="3.35586">
        <ele>137.9</ele>
        <time>2024-07-25T07:28:54Z</time>
      </trkpt>
      <trkpt lat="43.58757" lon="3.3559">
        <ele>137.7</ele>
        <time>2024-07-25T07:28:55Z</time>
      </trkpt>
      <trkpt lat="43.58754" lon="3.35595">
        <ele>136.8</ele>
        <time>2024-07-25T07:28:56Z</time>
      </trkpt>
      <trkpt lat="43.5875" lon="3.356">
        <ele>135.8</ele>
        <time>2024-07-25T07:28:57Z</time>
      </trkpt>
      <trkpt lat="43.58747" lon="3.35605">
        <ele>135.8</ele>
        <time>2024-07-25T07:28:58Z</time>
      </trkpt>
      <trkpt lat="43.58744" lon="3.3561">
        <ele>135.6</ele>
        <time>2024-07-25T07:28:59Z</time>
      </trkpt>
      <trkpt lat="43.58742" lon="3.35615">
        <ele>136</ele>
        <time>2024-07-25T07:29:00Z</time>
      </trkpt>
      <trkpt lat="43.58739" lon="3.3562">
        <ele>137.2</ele>
        <time>2024-07-25T07:29:01Z</time>
      </trkpt>
      <trkpt lat="43.58737" lon="3.35626">
        <ele>137.3</ele>
        <time>2024-07-25T07:29:02Z</time>
      </trkpt>
      <trkpt lat="43.58735" lon="3.35633">
        <ele>137.1</ele>
        <time>2024-07-25T07:29:03Z</time>
      </trkpt>
      <trkpt lat="43.58733" lon="3.3564">
        <ele>136.5</ele>
        <time>2024-07-25T07:29:04Z</time>
      </trkpt>
      <trkpt lat="43.58731" lon="3.35646">
        <ele>136.1</ele>
        <time>2024-07-25T07:29:05Z</time>
      </trkpt>
      <trkpt lat="43.58729" lon="3.35652">
        <ele>135.6</ele>
        <time>2024-07-25T07:29:06Z</time>
      </trkpt>
      <trkpt lat="43.58726" lon="3.35659">
        <ele>134.9</ele>
        <time>2024-07-25T07:29:07Z</time>
      </trkpt>
      <trkpt lat="43.58725" lon="3.35663">
        <ele>134.3</ele>
        <time>2024-07-25T07:29:08Z</time>
      </trkpt>
      <trkpt lat="43.58723" lon="3.35668">
        <ele>133.6</ele>
        <time>2024-07-25T07:29:09Z</time>
      </trkpt>
      <trkpt lat="43.58722" lon="3.35672">
        <ele>133.5</ele>
        <time>2024-07-25T07:29:10Z</time>
      </trkpt>
      <trkpt lat="43.5872" lon="3.35677">
        <ele>134.8</ele>
        <time>2024-07-25T07:29:11Z</time>
      </trkpt>
      <trkpt lat="43.58718" lon="3.35681">
        <ele>136</ele>
        <time>2024-07-25T07:29:12Z</time>
      </trkpt>
      <trkpt lat="43.58716" lon="3.35686">
        <ele>136.9</ele>
        <time>2024-07-25T07:29:13Z</time>
      </trkpt>
      <trkpt lat="43.58714" lon="3.35692">
        <ele>137.4</ele>
        <time>2024-07-25T07:29:14Z</time>
      </trkpt>
      <trkpt lat="43.58714" lon="3.35697">
        <ele>136.1</ele>
        <time>2024-07-25T07:29:15Z</time>
      </trkpt>
      <trkpt lat="43.58713" lon="3.35703">
        <ele>135</ele>
        <time>2024-07-25T07:29:16Z</time>
      </trkpt>
      <trkpt lat="43.58714" lon="3.35711">
        <ele>132.1</ele>
        <time>2024-07-25T07:29:17Z</time>
      </trkpt>
      <trkpt lat="43.58716" lon="3.3572">
        <ele>129.2</ele>
        <time>2024-07-25T07:29:18Z</time>
      </trkpt>
      <trkpt lat="43.58719" lon="3.35729">
        <ele>128</ele>
        <time>2024-07-25T07:29:19Z</time>
      </trkpt>
      <trkpt lat="43.58723" lon="3.35737">
        <ele>127.4</ele>
        <time>2024-07-25T07:29:20Z</time>
      </trkpt>
      <trkpt lat="43.58727" lon="3.35746">
        <ele>127</ele>
        <time>2024-07-25T07:29:21Z</time>
      </trkpt>
      <trkpt lat="43.58731" lon="3.35753">
        <ele>126.6</ele>
        <time>2024-07-25T07:29:22Z</time>
      </trkpt>
      <trkpt lat="43.58736" lon="3.3576">
        <ele>126.1</ele>
        <time>2024-07-25T07:29:23Z</time>
      </trkpt>
      <trkpt lat="43.58741" lon="3.35767">
        <ele>125.7</ele>
        <time>2024-07-25T07:29:24Z</time>
      </trkpt>
      <trkpt lat="43.58745" lon="3.35774">
        <ele>125.3</ele>
        <time>2024-07-25T07:29:25Z</time>
      </trkpt>
      <trkpt lat="43.58749" lon="3.35781">
        <ele>124.9</ele>
        <time>2024-07-25T07:29:26Z</time>
      </trkpt>
      <trkpt lat="43.58753" lon="3.35788">
        <ele>124.5</ele>
        <time>2024-07-25T07:29:27Z</time>
      </trkpt>
      <trkpt lat="43.58756" lon="3.35794">
        <ele>124.2</ele>
        <time>2024-07-25T07:29:28Z</time>
      </trkpt>
      <trkpt lat="43.58759" lon="3.35799">
        <ele>123.9</ele>
        <time>2024-07-25T07:29:29Z</time>
      </trkpt>
      <trkpt lat="43.58761" lon="3.35802">
        <ele>123.7</ele>
        <time>2024-07-25T07:29:30Z</time>
      </trkpt>
      <trkpt lat="43.58763" lon="3.35806">
        <ele>123.5</ele>
        <time>2024-07-25T07:29:31Z</time>
      </trkpt>
      <trkpt lat="43.58765" lon="3.3581">
        <ele>123.1</ele>
        <time>2024-07-25T07:29:32Z</time>
      </trkpt>
      <trkpt lat="43.58767" lon="3.35813">
        <ele>122.7</ele>
        <time>2024-07-25T07:29:33Z</time>
      </trkpt>
      <trkpt lat="43.58769" lon="3.35815">
        <ele>122.4</ele>
        <time>2024-07-25T07:29:34Z</time>
      </trkpt>
      <trkpt lat="43.5877" lon="3.35817">
        <ele>122.1</ele>
        <time>2024-07-25T07:29:35Z</time>
      </trkpt>
      <trkpt lat="43.5877" lon="3.35819">
        <ele>121.9</ele>
        <time>2024-07-25T07:29:36Z</time>
      </trkpt>
      <trkpt lat="43.5877" lon="3.35823">
        <ele>121.5</ele>
        <time>2024-07-25T07:29:37Z</time>
      </trkpt>
      <trkpt lat="43.58769" lon="3.35826">
        <ele>121.3</ele>
        <time>2024-07-25T07:29:38Z</time>
      </trkpt>
      <trkpt lat="43.58767" lon="3.35828">
        <ele>121.4</ele>
        <time>2024-07-25T07:29:39Z</time>
      </trkpt>
      <trkpt lat="43.58765" lon="3.3583">
        <ele>121.6</ele>
        <time>2024-07-25T07:29:40Z</time>
      </trkpt>
      <trkpt lat="43.58763" lon="3.35832">
        <ele>121.7</ele>
        <time>2024-07-25T07:29:41Z</time>
      </trkpt>
      <trkpt lat="43.58762" lon="3.35833">
        <ele>121.9</ele>
        <time>2024-07-25T07:29:42Z</time>
      </trkpt>
      <trkpt lat="43.58761" lon="3.35834">
        <ele>122</ele>
        <time>2024-07-25T07:29:43Z</time>
      </trkpt>
      <trkpt lat="43.58759" lon="3.35836">
        <ele>122.1</ele>
        <time>2024-07-25T07:29:44Z</time>
      </trkpt>
      <trkpt lat="43.58758" lon="3.35838">
        <ele>122.1</ele>
        <time>2024-07-25T07:29:45Z</time>
      </trkpt>
      <trkpt lat="43.58755" lon="3.35841">
        <ele>122</ele>
        <time>2024-07-25T07:29:46Z</time>
      </trkpt>
      <trkpt lat="43.58753" lon="3.35844">
        <ele>121.6</ele>
        <time>2024-07-25T07:29:47Z</time>
      </trkpt>
      <trkpt lat="43.58751" lon="3.35847">
        <ele>121.1</ele>
        <time>2024-07-25T07:29:48Z</time>
      </trkpt>
      <trkpt lat="43.58749" lon="3.35849">
        <ele>120.7</ele>
        <time>2024-07-25T07:29:49Z</time>
      </trkpt>
      <trkpt lat="43.58747" lon="3.35851">
        <ele>120.6</ele>
        <time>2024-07-25T07:29:50Z</time>
      </trkpt>
      <trkpt lat="43.58745" lon="3.35854">
        <ele>120.3</ele>
        <time>2024-07-25T07:29:51Z</time>
      </trkpt>
      <trkpt lat="43.58743" lon="3.35857">
        <ele>120.2</ele>
        <time>2024-07-25T07:29:52Z</time>
      </trkpt>
      <trkpt lat="43.5874" lon="3.35859">
        <ele>120.5</ele>
        <time>2024-07-25T07:29:53Z</time>
      </trkpt>
      <trkpt lat="43.58738" lon="3.35862">
        <ele>120.6</ele>
        <time>2024-07-25T07:29:54Z</time>
      </trkpt>
      <trkpt lat="43.58735" lon="3.35864">
        <ele>121.2</ele>
        <time>2024-07-25T07:29:55Z</time>
      </trkpt>
      <trkpt lat="43.58733" lon="3.35867">
        <ele>121.4</ele>
        <time>2024-07-25T07:29:56Z</time>
      </trkpt>
      <trkpt lat="43.5873" lon="3.35869">
        <ele>121.7</ele>
        <time>2024-07-25T07:29:57Z</time>
      </trkpt>
      <trkpt lat="43.58727" lon="3.35871">
        <ele>121.8</ele>
        <time>2024-07-25T07:29:58Z</time>
      </trkpt>
      <trkpt lat="43.58724" lon="3.35873">
        <ele>121.7</ele>
        <time>2024-07-25T07:29:59Z</time>
      </trkpt>
      <trkpt lat="43.58721" lon="3.35875">
        <ele>121.6</ele>
        <time>2024-07-25T07:30:00Z</time>
      </trkpt>
      <trkpt lat="43.58718" lon="3.35878">
        <ele>121.3</ele>
        <time>2024-07-25T07:30:01Z</time>
      </trkpt>
      <trkpt lat="43.58715" lon="3.35881">
        <ele>121.2</ele>
        <time>2024-07-25T07:30:02Z</time>
      </trkpt>
      <trkpt lat="43.58712" lon="3.35884">
        <ele>121.1</ele>
        <time>2024-07-25T07:30:03Z</time>
      </trkpt>
      <trkpt lat="43.58708" lon="3.35887">
        <ele>121.2</ele>
        <time>2024-07-25T07:30:04Z</time>
      </trkpt>
      <trkpt lat="43.58704" lon="3.3589">
        <ele>121.6</ele>
        <time>2024-07-25T07:30:05Z</time>
      </trkpt>
      <trkpt lat="43.58701" lon="3.35893">
        <ele>121.7</ele>
        <time>2024-07-25T07:30:06Z</time>
      </trkpt>
      <trkpt lat="43.58697" lon="3.35896">
        <ele>121.6</ele>
        <time>2024-07-25T07:30:07Z</time>
      </trkpt>
      <trkpt lat="43.58692" lon="3.35899">
        <ele>121.3</ele>
        <time>2024-07-25T07:30:08Z</time>
      </trkpt>
      <trkpt lat="43.58688" lon="3.35904">
        <ele>120.8</ele>
        <time>2024-07-25T07:30:09Z</time>
      </trkpt>
      <trkpt lat="43.58683" lon="3.35908">
        <ele>120.5</ele>
        <time>2024-07-25T07:30:10Z</time>
      </trkpt>
      <trkpt lat="43.58679" lon="3.35911">
        <ele>120.5</ele>
        <time>2024-07-25T07:30:11Z</time>
      </trkpt>
      <trkpt lat="43.58674" lon="3.35915">
        <ele>120.4</ele>
        <time>2024-07-25T07:30:12Z</time>
      </trkpt>
      <trkpt lat="43.5867" lon="3.35918">
        <ele>120.6</ele>
        <time>2024-07-25T07:30:13Z</time>
      </trkpt>
      <trkpt lat="43.58666" lon="3.35921">
        <ele>120.6</ele>
        <time>2024-07-25T07:30:14Z</time>
      </trkpt>
      <trkpt lat="43.58662" lon="3.35924">
        <ele>120.5</ele>
        <time>2024-07-25T07:30:15Z</time>
      </trkpt>
      <trkpt lat="43.58658" lon="3.35927">
        <ele>120.4</ele>
        <time>2024-07-25T07:30:16Z</time>
      </trkpt>
      <trkpt lat="43.58653" lon="3.35931">
        <ele>120.2</ele>
        <time>2024-07-25T07:30:17Z</time>
      </trkpt>
      <trkpt lat="43.58649" lon="3.35934">
        <ele>120</ele>
        <time>2024-07-25T07:30:18Z</time>
      </trkpt>
      <trkpt lat="43.58646" lon="3.35936">
        <ele>119.9</ele>
        <time>2024-07-25T07:30:19Z</time>
      </trkpt>
      <trkpt lat="43.58642" lon="3.35939">
        <ele>119.7</ele>
        <time>2024-07-25T07:30:20Z</time>
      </trkpt>
      <trkpt lat="43.58638" lon="3.35941">
        <ele>119.6</ele>
        <time>2024-07-25T07:30:21Z</time>
      </trkpt>
      <trkpt lat="43.58634" lon="3.35944">
        <ele>119.6</ele>
        <time>2024-07-25T07:30:22Z</time>
      </trkpt>
      <trkpt lat="43.5863" lon="3.35946">
        <ele>119.9</ele>
        <time>2024-07-25T07:30:23Z</time>
      </trkpt>
      <trkpt lat="43.58626" lon="3.35947">
        <ele>120.3</ele>
        <time>2024-07-25T07:30:24Z</time>
      </trkpt>
      <trkpt lat="43.58621" lon="3.35949">
        <ele>120.5</ele>
        <time>2024-07-25T07:30:25Z</time>
      </trkpt>
      <trkpt lat="43.58616" lon="3.35951">
        <ele>120.6</ele>
        <time>2024-07-25T07:30:26Z</time>
      </trkpt>
      <trkpt lat="43.58612" lon="3.35952">
        <ele>120.6</ele>
        <time>2024-07-25T07:30:27Z</time>
      </trkpt>
      <trkpt lat="43.58608" lon="3.35953">
        <ele>120.7</ele>
        <time>2024-07-25T07:30:28Z</time>
      </trkpt>
      <trkpt lat="43.58604" lon="3.35954">
        <ele>120.8</ele>
        <time>2024-07-25T07:30:29Z</time>
      </trkpt>
      <trkpt lat="43.586" lon="3.35954">
        <ele>121.1</ele>
        <time>2024-07-25T07:30:30Z</time>
      </trkpt>
      <trkpt lat="43.58595" lon="3.35956">
        <ele>121.1</ele>
        <time>2024-07-25T07:30:31Z</time>
      </trkpt>
      <trkpt lat="43.58591" lon="3.35958">
        <ele>121</ele>
        <time>2024-07-25T07:30:32Z</time>
      </trkpt>
      <trkpt lat="43.58586" lon="3.35961">
        <ele>120.8</ele>
        <time>2024-07-25T07:30:33Z</time>
      </trkpt>
      <trkpt lat="43.58581" lon="3.35964">
        <ele>120.7</ele>
        <time>2024-07-25T07:30:34Z</time>
      </trkpt>
      <trkpt lat="43.58576" lon="3.35967">
        <ele>120.6</ele>
        <time>2024-07-25T07:30:35Z</time>
      </trkpt>
      <trkpt lat="43.58571" lon="3.3597">
        <ele>120.6</ele>
        <time>2024-07-25T07:30:36Z</time>
      </trkpt>
      <trkpt lat="43.58567" lon="3.35973">
        <ele>120.7</ele>
        <time>2024-07-25T07:30:37Z</time>
      </trkpt>
      <trkpt lat="43.58562" lon="3.35976">
        <ele>120.7</ele>
        <time>2024-07-25T07:30:38Z</time>
      </trkpt>
      <trkpt lat="43.58558" lon="3.35979">
        <ele>120.4</ele>
        <time>2024-07-25T07:30:39Z</time>
      </trkpt>
      <trkpt lat="43.58554" lon="3.35982">
        <ele>120</ele>
        <time>2024-07-25T07:30:40Z</time>
      </trkpt>
      <trkpt lat="43.5855" lon="3.35985">
        <ele>119.6</ele>
        <time>2024-07-25T07:30:41Z</time>
      </trkpt>
      <trkpt lat="43.58546" lon="3.35988">
        <ele>119.3</ele>
        <time>2024-07-25T07:30:42Z</time>
      </trkpt>
      <trkpt lat="43.58543" lon="3.35991">
        <ele>119</ele>
        <time>2024-07-25T07:30:43Z</time>
      </trkpt>
      <trkpt lat="43.58539" lon="3.35993">
        <ele>119</ele>
        <time>2024-07-25T07:30:44Z</time>
      </trkpt>
      <trkpt lat="43.58535" lon="3.35996">
        <ele>118.9</ele>
        <time>2024-07-25T07:30:45Z</time>
      </trkpt>
      <trkpt lat="43.5853" lon="3.35999">
        <ele>118.9</ele>
        <time>2024-07-25T07:30:46Z</time>
      </trkpt>
      <trkpt lat="43.58525" lon="3.36003">
        <ele>118.9</ele>
        <time>2024-07-25T07:30:47Z</time>
      </trkpt>
      <trkpt lat="43.5852" lon="3.36007">
        <ele>118.7</ele>
        <time>2024-07-25T07:30:48Z</time>
      </trkpt>
      <trkpt lat="43.58515" lon="3.36011">
        <ele>118.5</ele>
        <time>2024-07-25T07:30:49Z</time>
      </trkpt>
      <trkpt lat="43.5851" lon="3.36015">
        <ele>118.3</ele>
        <time>2024-07-25T07:30:50Z</time>
      </trkpt>
      <trkpt lat="43.58506" lon="3.36018">
        <ele>118.1</ele>
        <time>2024-07-25T07:30:51Z</time>
      </trkpt>
      <trkpt lat="43.58501" lon="3.36023">
        <ele>117.6</ele>
        <time>2024-07-25T07:30:52Z</time>
      </trkpt>
      <trkpt lat="43.58496" lon="3.36027">
        <ele>117.7</ele>
        <time>2024-07-25T07:30:53Z</time>
      </trkpt>
      <trkpt lat="43.58491" lon="3.36031">
        <ele>118.1</ele>
        <time>2024-07-25T07:30:54Z</time>
      </trkpt>
      <trkpt lat="43.58486" lon="3.36036">
        <ele>118.4</ele>
        <time>2024-07-25T07:30:55Z</time>
      </trkpt>
      <trkpt lat="43.58481" lon="3.3604">
        <ele>118.5</ele>
        <time>2024-07-25T07:30:56Z</time>
      </trkpt>
      <trkpt lat="43.58477" lon="3.36045">
        <ele>118.3</ele>
        <time>2024-07-25T07:30:57Z</time>
      </trkpt>
      <trkpt lat="43.58472" lon="3.36049">
        <ele>118</ele>
        <time>2024-07-25T07:30:58Z</time>
      </trkpt>
      <trkpt lat="43.58468" lon="3.36052">
        <ele>117.9</ele>
        <time>2024-07-25T07:30:59Z</time>
      </trkpt>
      <trkpt lat="43.58464" lon="3.36056">
        <ele>117.9</ele>
        <time>2024-07-25T07:31:00Z</time>
      </trkpt>
      <trkpt lat="43.5846" lon="3.3606">
        <ele>117.9</ele>
        <time>2024-07-25T07:31:01Z</time>
      </trkpt>
      <trkpt lat="43.58456" lon="3.36063">
        <ele>118</ele>
        <time>2024-07-25T07:31:02Z</time>
      </trkpt>
      <trkpt lat="43.58452" lon="3.36066">
        <ele>118</ele>
        <time>2024-07-25T07:31:03Z</time>
      </trkpt>
      <trkpt lat="43.58449" lon="3.36069">
        <ele>117.8</ele>
        <time>2024-07-25T07:31:04Z</time>
      </trkpt>
      <trkpt lat="43.58445" lon="3.36074">
        <ele>117.3</ele>
        <time>2024-07-25T07:31:05Z</time>
      </trkpt>
      <trkpt lat="43.58441" lon="3.36078">
        <ele>117.2</ele>
        <time>2024-07-25T07:31:06Z</time>
      </trkpt>
      <trkpt lat="43.58438" lon="3.36083">
        <ele>117</ele>
        <time>2024-07-25T07:31:07Z</time>
      </trkpt>
      <trkpt lat="43.58434" lon="3.36087">
        <ele>117.4</ele>
        <time>2024-07-25T07:31:08Z</time>
      </trkpt>
      <trkpt lat="43.58431" lon="3.36092">
        <ele>117.6</ele>
        <time>2024-07-25T07:31:09Z</time>
      </trkpt>
      <trkpt lat="43.58427" lon="3.36097">
        <ele>117.9</ele>
        <time>2024-07-25T07:31:10Z</time>
      </trkpt>
      <trkpt lat="43.58423" lon="3.36102">
        <ele>118.1</ele>
        <time>2024-07-25T07:31:11Z</time>
      </trkpt>
      <trkpt lat="43.5842" lon="3.36106">
        <ele>118.1</ele>
        <time>2024-07-25T07:31:12Z</time>
      </trkpt>
      <trkpt lat="43.58416" lon="3.36112">
        <ele>117.9</ele>
        <time>2024-07-25T07:31:13Z</time>
      </trkpt>
      <trkpt lat="43.58412" lon="3.36117">
        <ele>117.4</ele>
        <time>2024-07-25T07:31:14Z</time>
      </trkpt>
      <trkpt lat="43.58409" lon="3.36121">
        <ele>117.1</ele>
        <time>2024-07-25T07:31:15Z</time>
      </trkpt>
      <trkpt lat="43.58405" lon="3.36127">
        <ele>116.9</ele>
        <time>2024-07-25T07:31:16Z</time>
      </trkpt>
      <trkpt lat="43.58402" lon="3.36131">
        <ele>116.8</ele>
        <time>2024-07-25T07:31:17Z</time>
      </trkpt>
      <trkpt lat="43.58399" lon="3.36136">
        <ele>116.8</ele>
        <time>2024-07-25T07:31:18Z</time>
      </trkpt>
      <trkpt lat="43.58396" lon="3.3614">
        <ele>116.9</ele>
        <time>2024-07-25T07:31:19Z</time>
      </trkpt>
      <trkpt lat="43.58392" lon="3.36145">
        <ele>116.8</ele>
        <time>2024-07-25T07:31:20Z</time>
      </trkpt>
      <trkpt lat="43.58389" lon="3.36149">
        <ele>116.5</ele>
        <time>2024-07-25T07:31:21Z</time>
      </trkpt>
      <trkpt lat="43.58386" lon="3.36154">
        <ele>116.1</ele>
        <time>2024-07-25T07:31:22Z</time>
      </trkpt>
      <trkpt lat="43.58383" lon="3.36158">
        <ele>115.9</ele>
        <time>2024-07-25T07:31:23Z</time>
      </trkpt>
      <trkpt lat="43.58379" lon="3.36163">
        <ele>115.8</ele>
        <time>2024-07-25T07:31:24Z</time>
      </trkpt>
      <trkpt lat="43.58375" lon="3.36167">
        <ele>116</ele>
        <time>2024-07-25T07:31:25Z</time>
      </trkpt>
      <trkpt lat="43.58371" lon="3.36171">
        <ele>116.3</ele>
        <time>2024-07-25T07:31:26Z</time>
      </trkpt>
      <trkpt lat="43.58367" lon="3.36174">
        <ele>116.5</ele>
        <time>2024-07-25T07:31:27Z</time>
      </trkpt>
      <trkpt lat="43.58362" lon="3.36178">
        <ele>116.7</ele>
        <time>2024-07-25T07:31:28Z</time>
      </trkpt>
      <trkpt lat="43.58357" lon="3.36181">
        <ele>116.7</ele>
        <time>2024-07-25T07:31:29Z</time>
      </trkpt>
      <trkpt lat="43.58352" lon="3.36183">
        <ele>116.8</ele>
        <time>2024-07-25T07:31:30Z</time>
      </trkpt>
      <trkpt lat="43.58347" lon="3.36184">
        <ele>117</ele>
        <time>2024-07-25T07:31:31Z</time>
      </trkpt>
      <trkpt lat="43.58342" lon="3.36186">
        <ele>117.1</ele>
        <time>2024-07-25T07:31:32Z</time>
      </trkpt>
      <trkpt lat="43.58338" lon="3.36187">
        <ele>117.2</ele>
        <time>2024-07-25T07:31:33Z</time>
      </trkpt>
      <trkpt lat="43.58334" lon="3.36188">
        <ele>117.4</ele>
        <time>2024-07-25T07:31:34Z</time>
      </trkpt>
      <trkpt lat="43.5833" lon="3.36189">
        <ele>117.5</ele>
        <time>2024-07-25T07:31:35Z</time>
      </trkpt>
      <trkpt lat="43.58325" lon="3.3619">
        <ele>117.5</ele>
        <time>2024-07-25T07:31:36Z</time>
      </trkpt>
      <trkpt lat="43.5832" lon="3.36191">
        <ele>117.6</ele>
        <time>2024-07-25T07:31:37Z</time>
      </trkpt>
      <trkpt lat="43.58316" lon="3.36193">
        <ele>117.7</ele>
        <time>2024-07-25T07:31:38Z</time>
      </trkpt>
      <trkpt lat="43.58311" lon="3.36195">
        <ele>117.8</ele>
        <time>2024-07-25T07:31:39Z</time>
      </trkpt>
      <trkpt lat="43.58307" lon="3.36197">
        <ele>117.9</ele>
        <time>2024-07-25T07:31:40Z</time>
      </trkpt>
      <trkpt lat="43.58303" lon="3.36198">
        <ele>117.9</ele>
        <time>2024-07-25T07:31:41Z</time>
      </trkpt>
      <trkpt lat="43.583" lon="3.36199">
        <ele>117.8</ele>
        <time>2024-07-25T07:31:42Z</time>
      </trkpt>
      <trkpt lat="43.58296" lon="3.362">
        <ele>117.8</ele>
        <time>2024-07-25T07:31:43Z</time>
      </trkpt>
      <trkpt lat="43.58293" lon="3.36201">
        <ele>117.8</ele>
        <time>2024-07-25T07:31:44Z</time>
      </trkpt>
      <trkpt lat="43.5829" lon="3.36202">
        <ele>117.7</ele>
        <time>2024-07-25T07:31:45Z</time>
      </trkpt>
      <trkpt lat="43.58286" lon="3.36203">
        <ele>117.7</ele>
        <time>2024-07-25T07:31:46Z</time>
      </trkpt>
      <trkpt lat="43.58283" lon="3.36204">
        <ele>117.7</ele>
        <time>2024-07-25T07:31:47Z</time>
      </trkpt>
      <trkpt lat="43.5828" lon="3.36205">
        <ele>117.6</ele>
        <time>2024-07-25T07:31:48Z</time>
      </trkpt>
      <trkpt lat="43.58277" lon="3.36207">
        <ele>117.5</ele>
        <time>2024-07-25T07:31:49Z</time>
      </trkpt>
      <trkpt lat="43.58275" lon="3.36208">
        <ele>117.5</ele>
        <time>2024-07-25T07:31:50Z</time>
      </trkpt>
      <trkpt lat="43.58272" lon="3.36209">
        <ele>117.4</ele>
        <time>2024-07-25T07:31:51Z</time>
      </trkpt>
      <trkpt lat="43.5827" lon="3.3621">
        <ele>117.3</ele>
        <time>2024-07-25T07:31:52Z</time>
      </trkpt>
      <trkpt lat="43.58268" lon="3.36211">
        <ele>117.3</ele>
        <time>2024-07-25T07:31:53Z</time>
      </trkpt>
      <trkpt lat="43.58266" lon="3.36212">
        <ele>117.2</ele>
        <time>2024-07-25T07:31:54Z</time>
      </trkpt>
      <trkpt lat="43.58263" lon="3.36213">
        <ele>117.2</ele>
        <time>2024-07-25T07:31:55Z</time>
      </trkpt>
      <trkpt lat="43.58261" lon="3.36214">
        <ele>117.1</ele>
        <time>2024-07-25T07:31:56Z</time>
      </trkpt>
      <trkpt lat="43.58258" lon="3.36216">
        <ele>117.1</ele>
        <time>2024-07-25T07:31:57Z</time>
      </trkpt>
      <trkpt lat="43.58256" lon="3.36217">
        <ele>117</ele>
        <time>2024-07-25T07:31:58Z</time>
      </trkpt>
      <trkpt lat="43.58254" lon="3.36218">
        <ele>117</ele>
        <time>2024-07-25T07:31:59Z</time>
      </trkpt>
      <trkpt lat="43.58251" lon="3.36218">
        <ele>117</ele>
        <time>2024-07-25T07:32:00Z</time>
      </trkpt>
      <trkpt lat="43.5825" lon="3.3622">
        <ele>117</ele>
        <time>2024-07-25T07:32:01Z</time>
      </trkpt>
      <trkpt lat="43.58247" lon="3.36221">
        <ele>117</ele>
        <time>2024-07-25T07:32:02Z</time>
      </trkpt>
      <trkpt lat="43.58245" lon="3.36223">
        <ele>117</ele>
        <time>2024-07-25T07:32:03Z</time>
      </trkpt>
      <trkpt lat="43.58243" lon="3.36224">
        <ele>116.9</ele>
        <time>2024-07-25T07:32:04Z</time>
      </trkpt>
      <trkpt lat="43.58241" lon="3.36223">
        <ele>117</ele>
        <time>2024-07-25T07:32:05Z</time>
      </trkpt>
      <trkpt lat="43.58239" lon="3.36221">
        <ele>117</ele>
        <time>2024-07-25T07:32:06Z</time>
      </trkpt>
      <trkpt lat="43.58237" lon="3.36217">
        <ele>117</ele>
        <time>2024-07-25T07:32:07Z</time>
      </trkpt>
      <trkpt lat="43.58235" lon="3.36213">
        <ele>117</ele>
        <time>2024-07-25T07:32:08Z</time>
      </trkpt>
      <trkpt lat="43.58234" lon="3.36208">
        <ele>117</ele>
        <time>2024-07-25T07:32:09Z</time>
      </trkpt>
      <trkpt lat="43.58233" lon="3.36203">
        <ele>117</ele>
        <time>2024-07-25T07:32:10Z</time>
      </trkpt>
      <trkpt lat="43.58231" lon="3.36198">
        <ele>117</ele>
        <time>2024-07-25T07:32:11Z</time>
      </trkpt>
      <trkpt lat="43.58229" lon="3.36193">
        <ele>117.1</ele>
        <time>2024-07-25T07:32:12Z</time>
      </trkpt>
      <trkpt lat="43.58228" lon="3.36189">
        <ele>117.2</ele>
        <time>2024-07-25T07:32:13Z</time>
      </trkpt>
      <trkpt lat="43.58226" lon="3.36184">
        <ele>117.4</ele>
        <time>2024-07-25T07:32:14Z</time>
      </trkpt>
      <trkpt lat="43.58224" lon="3.3618">
        <ele>117.5</ele>
        <time>2024-07-25T07:32:15Z</time>
      </trkpt>
      <trkpt lat="43.58222" lon="3.36176">
        <ele>117.7</ele>
        <time>2024-07-25T07:32:16Z</time>
      </trkpt>
      <trkpt lat="43.58221" lon="3.36174">
        <ele>117.8</ele>
        <time>2024-07-25T07:32:17Z</time>
      </trkpt>
      <trkpt lat="43.58221" lon="3.36171">
        <ele>117.9</ele>
        <time>2024-07-25T07:32:18Z</time>
      </trkpt>
      <trkpt lat="43.58221" lon="3.36169">
        <ele>118</ele>
        <time>2024-07-25T07:32:19Z</time>
      </trkpt>
      <trkpt lat="43.5822" lon="3.36166">
        <ele>118.1</ele>
        <time>2024-07-25T07:32:20Z</time>
      </trkpt>
      <trkpt lat="43.58219" lon="3.36163">
        <ele>118.3</ele>
        <time>2024-07-25T07:32:21Z</time>
      </trkpt>
      <trkpt lat="43.58219" lon="3.3616">
        <ele>118.4</ele>
        <time>2024-07-25T07:32:22Z</time>
      </trkpt>
      <trkpt lat="43.58218" lon="3.36156">
        <ele>118.7</ele>
        <time>2024-07-25T07:32:23Z</time>
      </trkpt>
      <trkpt lat="43.58217" lon="3.36153">
        <ele>118.9</ele>
        <time>2024-07-25T07:32:24Z</time>
      </trkpt>
      <trkpt lat="43.58216" lon="3.3615">
        <ele>119.1</ele>
        <time>2024-07-25T07:32:25Z</time>
      </trkpt>
      <trkpt lat="43.58215" lon="3.36148">
        <ele>119.3</ele>
        <time>2024-07-25T07:32:26Z</time>
      </trkpt>
      <trkpt lat="43.58214" lon="3.36146">
        <ele>119.5</ele>
        <time>2024-07-25T07:32:27Z</time>
      </trkpt>
      <trkpt lat="43.58214" lon="3.36144">
        <ele>119.6</ele>
        <time>2024-07-25T07:32:28Z</time>
      </trkpt>
      <trkpt lat="43.58214" lon="3.36143">
        <ele>119.7</ele>
        <time>2024-07-25T07:32:29Z</time>
      </trkpt>
      <trkpt lat="43.58213" lon="3.36141">
        <ele>119.9</ele>
        <time>2024-07-25T07:32:30Z</time>
      </trkpt>
      <trkpt lat="43.58212" lon="3.36139">
        <ele>120.1</ele>
        <time>2024-07-25T07:32:31Z</time>
      </trkpt>
      <trkpt lat="43.5821" lon="3.36139">
        <ele>120.3</ele>
        <time>2024-07-25T07:32:32Z</time>
      </trkpt>
      <trkpt lat="43.58209" lon="3.36139">
        <ele>120.4</ele>
        <time>2024-07-25T07:32:33Z</time>
      </trkpt>
      <trkpt lat="43.58207" lon="3.36139">
        <ele>120.6</ele>
        <time>2024-07-25T07:32:34Z</time>
      </trkpt>
      <trkpt lat="43.58206" lon="3.36139">
        <ele>120.7</ele>
        <time>2024-07-25T07:32:35Z</time>
      </trkpt>
      <trkpt lat="43.58204" lon="3.36138">
        <ele>121.2</ele>
        <time>2024-07-25T07:32:36Z</time>
      </trkpt>
      <trkpt lat="43.58204" lon="3.36138">
        <ele>121.2</ele>
        <time>2024-07-25T07:32:37Z</time>
      </trkpt>
      <trkpt lat="43.58204" lon="3.36138">
        <ele>121.2</ele>
        <time>2024-07-25T07:32:38Z</time>
      </trkpt>
      <trkpt lat="43.58195" lon="3.36139">
        <ele>121.9</ele>
        <time>2024-07-25T07:32:59Z</time>
      </trkpt>
      <trkpt lat="43.58193" lon="3.36139">
        <ele>122.2</ele>
        <time>2024-07-25T07:33:00Z</time>
      </trkpt>
      <trkpt lat="43.58191" lon="3.3614">
        <ele>122.5</ele>
        <time>2024-07-25T07:33:01Z</time>
      </trkpt>
      <trkpt lat="43.58189" lon="3.3614">
        <ele>122.8</ele>
        <time>2024-07-25T07:33:02Z</time>
      </trkpt>
      <trkpt lat="43.58189" lon="3.3614">
        <ele>122.8</ele>
        <time>2024-07-25T07:33:03Z</time>
      </trkpt>
      <trkpt lat="43.58189" lon="3.3614">
        <ele>122.8</ele>
        <time>2024-07-25T07:33:04Z</time>
      </trkpt>
      <trkpt lat="43.58186" lon="3.3614">
        <ele>123.3</ele>
        <time>2024-07-25T07:33:05Z</time>
      </trkpt>
      <trkpt lat="43.58184" lon="3.36141">
        <ele>123.5</ele>
        <time>2024-07-25T07:33:06Z</time>
      </trkpt>
      <trkpt lat="43.58182" lon="3.36141">
        <ele>123.8</ele>
        <time>2024-07-25T07:33:07Z</time>
      </trkpt>
      <trkpt lat="43.5818" lon="3.36142">
        <ele>124</ele>
        <time>2024-07-25T07:33:08Z</time>
      </trkpt>
      <trkpt lat="43.58178" lon="3.36143">
        <ele>124.1</ele>
        <time>2024-07-25T07:33:09Z</time>
      </trkpt>
      <trkpt lat="43.58176" lon="3.36143">
        <ele>124.4</ele>
        <time>2024-07-25T07:33:10Z</time>
      </trkpt>
      <trkpt lat="43.58174" lon="3.36144">
        <ele>124.5</ele>
        <time>2024-07-25T07:33:11Z</time>
      </trkpt>
      <trkpt lat="43.58173" lon="3.36144">
        <ele>124.6</ele>
        <time>2024-07-25T07:33:12Z</time>
      </trkpt>
      <trkpt lat="43.58172" lon="3.36145">
        <ele>124.5</ele>
        <time>2024-07-25T07:33:13Z</time>
      </trkpt>
      <trkpt lat="43.58171" lon="3.36145">
        <ele>124.6</ele>
        <time>2024-07-25T07:33:14Z</time>
      </trkpt>
      <trkpt lat="43.58171" lon="3.36144">
        <ele>124.9</ele>
        <time>2024-07-25T07:33:15Z</time>
      </trkpt>
      <trkpt lat="43.5817" lon="3.36144">
        <ele>125</ele>
        <time>2024-07-25T07:33:16Z</time>
      </trkpt>
      <trkpt lat="43.5817" lon="3.36144">
        <ele>125</ele>
        <time>2024-07-25T07:33:17Z</time>
      </trkpt>
      <trkpt lat="43.58166" lon="3.36145">
        <ele>125.4</ele>
        <time>2024-07-25T07:33:22Z</time>
      </trkpt>
      <trkpt lat="43.58165" lon="3.36146">
        <ele>125.3</ele>
        <time>2024-07-25T07:33:23Z</time>
      </trkpt>
      <trkpt lat="43.58163" lon="3.36147">
        <ele>125.4</ele>
        <time>2024-07-25T07:33:24Z</time>
      </trkpt>
      <trkpt lat="43.58161" lon="3.36147">
        <ele>125.8</ele>
        <time>2024-07-25T07:33:25Z</time>
      </trkpt>
      <trkpt lat="43.58159" lon="3.36147">
        <ele>126.2</ele>
        <time>2024-07-25T07:33:26Z</time>
      </trkpt>
      <trkpt lat="43.58157" lon="3.36147">
        <ele>126.5</ele>
        <time>2024-07-25T07:33:27Z</time>
      </trkpt>
      <trkpt lat="43.58155" lon="3.36147">
        <ele>126.9</ele>
        <time>2024-07-25T07:33:28Z</time>
      </trkpt>
      <trkpt lat="43.58152" lon="3.36147">
        <ele>127.5</ele>
        <time>2024-07-25T07:33:29Z</time>
      </trkpt>
      <trkpt lat="43.5815" lon="3.36148">
        <ele>127.6</ele>
        <time>2024-07-25T07:33:30Z</time>
      </trkpt>
      <trkpt lat="43.58148" lon="3.36148">
        <ele>128</ele>
        <time>2024-07-25T07:33:31Z</time>
      </trkpt>
      <trkpt lat="43.58147" lon="3.36149">
        <ele>127.8</ele>
        <time>2024-07-25T07:33:32Z</time>
      </trkpt>
      <trkpt lat="43.58145" lon="3.36149">
        <ele>128.2</ele>
        <time>2024-07-25T07:33:33Z</time>
      </trkpt>
      <trkpt lat="43.58143" lon="3.36149">
        <ele>128.6</ele>
        <time>2024-07-25T07:33:34Z</time>
      </trkpt>
      <trkpt lat="43.58141" lon="3.36149">
        <ele>129</ele>
        <time>2024-07-25T07:33:35Z</time>
      </trkpt>
      <trkpt lat="43.5814" lon="3.36149">
        <ele>129.1</ele>
        <time>2024-07-25T07:33:36Z</time>
      </trkpt>
      <trkpt lat="43.5814" lon="3.36149">
        <ele>129.1</ele>
        <time>2024-07-25T07:33:37Z</time>
      </trkpt>
      <trkpt lat="43.5814" lon="3.36149">
        <ele>129.1</ele>
        <time>2024-07-25T07:33:38Z</time>
      </trkpt>
      <trkpt lat="43.58115" lon="3.36153">
        <ele>133.1</ele>
        <time>2024-07-25T07:36:12Z</time>
      </trkpt>
      <trkpt lat="43.58112" lon="3.36156">
        <ele>132.9</ele>
        <time>2024-07-25T07:36:13Z</time>
      </trkpt>
      <trkpt lat="43.5811" lon="3.36158">
        <ele>132.7</ele>
        <time>2024-07-25T07:36:14Z</time>
      </trkpt>
      <trkpt lat="43.58107" lon="3.36161">
        <ele>132.4</ele>
        <time>2024-07-25T07:36:15Z</time>
      </trkpt>
      <trkpt lat="43.58103" lon="3.36164">
        <ele>132.2</ele>
        <time>2024-07-25T07:36:16Z</time>
      </trkpt>
      <trkpt lat="43.581" lon="3.36167">
        <ele>131.9</ele>
        <time>2024-07-25T07:36:17Z</time>
      </trkpt>
      <trkpt lat="43.58096" lon="3.3617">
        <ele>131.6</ele>
        <time>2024-07-25T07:36:18Z</time>
      </trkpt>
      <trkpt lat="43.58092" lon="3.36172">
        <ele>131.7</ele>
        <time>2024-07-25T07:36:19Z</time>
      </trkpt>
      <trkpt lat="43.58087" lon="3.36176">
        <ele>131.3</ele>
        <time>2024-07-25T07:36:20Z</time>
      </trkpt>
      <trkpt lat="43.58082" lon="3.36179">
        <ele>131.1</ele>
        <time>2024-07-25T07:36:21Z</time>
      </trkpt>
      <trkpt lat="43.58076" lon="3.36182">
        <ele>130.6</ele>
        <time>2024-07-25T07:36:22Z</time>
      </trkpt>
      <trkpt lat="43.5807" lon="3.36185">
        <ele>130.2</ele>
        <time>2024-07-25T07:36:23Z</time>
      </trkpt>
      <trkpt lat="43.58064" lon="3.36188">
        <ele>129.9</ele>
        <time>2024-07-25T07:36:24Z</time>
      </trkpt>
      <trkpt lat="43.58058" lon="3.3619">
        <ele>129.9</ele>
        <time>2024-07-25T07:36:25Z</time>
      </trkpt>
      <trkpt lat="43.58053" lon="3.3619">
        <ele>130</ele>
        <time>2024-07-25T07:36:26Z</time>
      </trkpt>
      <trkpt lat="43.58047" lon="3.36189">
        <ele>129.8</ele>
        <time>2024-07-25T07:36:27Z</time>
      </trkpt>
      <trkpt lat="43.58042" lon="3.36189">
        <ele>129.5</ele>
        <time>2024-07-25T07:36:28Z</time>
      </trkpt>
      <trkpt lat="43.58037" lon="3.36188">
        <ele>129.3</ele>
        <time>2024-07-25T07:36:29Z</time>
      </trkpt>
      <trkpt lat="43.58031" lon="3.36188">
        <ele>128.9</ele>
        <time>2024-07-25T07:36:30Z</time>
      </trkpt>
      <trkpt lat="43.58025" lon="3.36187">
        <ele>128.4</ele>
        <time>2024-07-25T07:36:31Z</time>
      </trkpt>
      <trkpt lat="43.5802" lon="3.36186">
        <ele>127.7</ele>
        <time>2024-07-25T07:36:32Z</time>
      </trkpt>
      <trkpt lat="43.58015" lon="3.36185">
        <ele>127</ele>
        <time>2024-07-25T07:36:33Z</time>
      </trkpt>
      <trkpt lat="43.5801" lon="3.36185">
        <ele>126.2</ele>
        <time>2024-07-25T07:36:34Z</time>
      </trkpt>
      <trkpt lat="43.58005" lon="3.36184">
        <ele>125.4</ele>
        <time>2024-07-25T07:36:35Z</time>
      </trkpt>
      <trkpt lat="43.57999" lon="3.36184">
        <ele>124.6</ele>
        <time>2024-07-25T07:36:36Z</time>
      </trkpt>
      <trkpt lat="43.57994" lon="3.36183">
        <ele>124.3</ele>
        <time>2024-07-25T07:36:37Z</time>
      </trkpt>
      <trkpt lat="43.57988" lon="3.36182">
        <ele>124</ele>
        <time>2024-07-25T07:36:38Z</time>
      </trkpt>
      <trkpt lat="43.57983" lon="3.36183">
        <ele>123.8</ele>
        <time>2024-07-25T07:36:39Z</time>
      </trkpt>
      <trkpt lat="43.57978" lon="3.36186">
        <ele>123.3</ele>
        <time>2024-07-25T07:36:40Z</time>
      </trkpt>
      <trkpt lat="43.57973" lon="3.3619">
        <ele>122.5</ele>
        <time>2024-07-25T07:36:41Z</time>
      </trkpt>
      <trkpt lat="43.57969" lon="3.36194">
        <ele>122.9</ele>
        <time>2024-07-25T07:36:42Z</time>
      </trkpt>
      <trkpt lat="43.57965" lon="3.36198">
        <ele>123.4</ele>
        <time>2024-07-25T07:36:43Z</time>
      </trkpt>
      <trkpt lat="43.57962" lon="3.36202">
        <ele>123.7</ele>
        <time>2024-07-25T07:36:44Z</time>
      </trkpt>
      <trkpt lat="43.57959" lon="3.36205">
        <ele>124</ele>
        <time>2024-07-25T07:36:45Z</time>
      </trkpt>
      <trkpt lat="43.57957" lon="3.3621">
        <ele>123.8</ele>
        <time>2024-07-25T07:36:46Z</time>
      </trkpt>
      <trkpt lat="43.57955" lon="3.36215">
        <ele>123.7</ele>
        <time>2024-07-25T07:36:47Z</time>
      </trkpt>
      <trkpt lat="43.57953" lon="3.3622">
        <ele>123.4</ele>
        <time>2024-07-25T07:36:48Z</time>
      </trkpt>
      <trkpt lat="43.57949" lon="3.36225">
        <ele>123.7</ele>
        <time>2024-07-25T07:36:49Z</time>
      </trkpt>
      <trkpt lat="43.57944" lon="3.36228">
        <ele>124.2</ele>
        <time>2024-07-25T07:36:50Z</time>
      </trkpt>
      <trkpt lat="43.57939" lon="3.36232">
        <ele>124.2</ele>
        <time>2024-07-25T07:36:51Z</time>
      </trkpt>
      <trkpt lat="43.57935" lon="3.36234">
        <ele>124.3</ele>
        <time>2024-07-25T07:36:52Z</time>
      </trkpt>
      <trkpt lat="43.57931" lon="3.36235">
        <ele>124.6</ele>
        <time>2024-07-25T07:36:53Z</time>
      </trkpt>
      <trkpt lat="43.57927" lon="3.36237">
        <ele>124.8</ele>
        <time>2024-07-25T07:36:54Z</time>
      </trkpt>
      <trkpt lat="43.57924" lon="3.36238">
        <ele>124.9</ele>
        <time>2024-07-25T07:36:55Z</time>
      </trkpt>
      <trkpt lat="43.57921" lon="3.36239">
        <ele>125.1</ele>
        <time>2024-07-25T07:36:56Z</time>
      </trkpt>
      <trkpt lat="43.57918" lon="3.3624">
        <ele>125.3</ele>
        <time>2024-07-25T07:36:57Z</time>
      </trkpt>
      <trkpt lat="43.57915" lon="3.36241">
        <ele>125.3</ele>
        <time>2024-07-25T07:36:58Z</time>
      </trkpt>
      <trkpt lat="43.57913" lon="3.36241">
        <ele>125.4</ele>
        <time>2024-07-25T07:36:59Z</time>
      </trkpt>
      <trkpt lat="43.5791" lon="3.36242">
        <ele>125.3</ele>
        <time>2024-07-25T07:37:00Z</time>
      </trkpt>
      <trkpt lat="43.57907" lon="3.36242">
        <ele>125.4</ele>
        <time>2024-07-25T07:37:01Z</time>
      </trkpt>
      <trkpt lat="43.57905" lon="3.36242">
        <ele>125.5</ele>
        <time>2024-07-25T07:37:02Z</time>
      </trkpt>
      <trkpt lat="43.57902" lon="3.3624">
        <ele>125.8</ele>
        <time>2024-07-25T07:37:03Z</time>
      </trkpt>
      <trkpt lat="43.57899" lon="3.36239">
        <ele>126</ele>
        <time>2024-07-25T07:37:04Z</time>
      </trkpt>
      <trkpt lat="43.57897" lon="3.36238">
        <ele>126.1</ele>
        <time>2024-07-25T07:37:05Z</time>
      </trkpt>
      <trkpt lat="43.57894" lon="3.36236">
        <ele>126.4</ele>
        <time>2024-07-25T07:37:06Z</time>
      </trkpt>
      <trkpt lat="43.57892" lon="3.36234">
        <ele>126.7</ele>
        <time>2024-07-25T07:37:07Z</time>
      </trkpt>
      <trkpt lat="43.5789" lon="3.36233">
        <ele>126.8</ele>
        <time>2024-07-25T07:37:08Z</time>
      </trkpt>
      <trkpt lat="43.57888" lon="3.36231">
        <ele>127</ele>
        <time>2024-07-25T07:37:09Z</time>
      </trkpt>
      <trkpt lat="43.57885" lon="3.36229">
        <ele>127</ele>
        <time>2024-07-25T07:37:10Z</time>
      </trkpt>
      <trkpt lat="43.57883" lon="3.36227">
        <ele>127.1</ele>
        <time>2024-07-25T07:37:11Z</time>
      </trkpt>
      <trkpt lat="43.5788" lon="3.36224">
        <ele>127.2</ele>
        <time>2024-07-25T07:37:12Z</time>
      </trkpt>
      <trkpt lat="43.57878" lon="3.36222">
        <ele>127.2</ele>
        <time>2024-07-25T07:37:13Z</time>
      </trkpt>
      <trkpt lat="43.57876" lon="3.3622">
        <ele>127.3</ele>
        <time>2024-07-25T07:37:14Z</time>
      </trkpt>
      <trkpt lat="43.57874" lon="3.36218">
        <ele>127.4</ele>
        <time>2024-07-25T07:37:15Z</time>
      </trkpt>
      <trkpt lat="43.57872" lon="3.36216">
        <ele>127.5</ele>
        <time>2024-07-25T07:37:16Z</time>
      </trkpt>
      <trkpt lat="43.5787" lon="3.36213">
        <ele>127.6</ele>
        <time>2024-07-25T07:37:17Z</time>
      </trkpt>
      <trkpt lat="43.57868" lon="3.36211">
        <ele>127.7</ele>
        <time>2024-07-25T07:37:18Z</time>
      </trkpt>
      <trkpt lat="43.57866" lon="3.36208">
        <ele>127.9</ele>
        <time>2024-07-25T07:37:19Z</time>
      </trkpt>
      <trkpt lat="43.57865" lon="3.36206">
        <ele>128</ele>
        <time>2024-07-25T07:37:20Z</time>
      </trkpt>
      <trkpt lat="43.57863" lon="3.36203">
        <ele>128.2</ele>
        <time>2024-07-25T07:37:21Z</time>
      </trkpt>
      <trkpt lat="43.57862" lon="3.36201">
        <ele>128.4</ele>
        <time>2024-07-25T07:37:22Z</time>
      </trkpt>
      <trkpt lat="43.57861" lon="3.36199">
        <ele>128.5</ele>
        <time>2024-07-25T07:37:23Z</time>
      </trkpt>
      <trkpt lat="43.57859" lon="3.36197">
        <ele>128.6</ele>
        <time>2024-07-25T07:37:24Z</time>
      </trkpt>
      <trkpt lat="43.57858" lon="3.36195">
        <ele>128.7</ele>
        <time>2024-07-25T07:37:25Z</time>
      </trkpt>
      <trkpt lat="43.57857" lon="3.36194">
        <ele>128.7</ele>
        <time>2024-07-25T07:37:26Z</time>
      </trkpt>
      <trkpt lat="43.57856" lon="3.36192">
        <ele>128.8</ele>
        <time>2024-07-25T07:37:27Z</time>
      </trkpt>
      <trkpt lat="43.57856" lon="3.36189">
        <ele>129</ele>
        <time>2024-07-25T07:37:28Z</time>
      </trkpt>
      <trkpt lat="43.57856" lon="3.36187">
        <ele>129.2</ele>
        <time>2024-07-25T07:37:29Z</time>
      </trkpt>
      <trkpt lat="43.57858" lon="3.36184">
        <ele>129.5</ele>
        <time>2024-07-25T07:37:30Z</time>
      </trkpt>
      <trkpt lat="43.57859" lon="3.36182">
        <ele>129.7</ele>
        <time>2024-07-25T07:37:31Z</time>
      </trkpt>
      <trkpt lat="43.57861" lon="3.3618">
        <ele>130</ele>
        <time>2024-07-25T07:37:32Z</time>
      </trkpt>
      <trkpt lat="43.57863" lon="3.36178">
        <ele>130.4</ele>
        <time>2024-07-25T07:37:33Z</time>
      </trkpt>
      <trkpt lat="43.57864" lon="3.36177">
        <ele>130.5</ele>
        <time>2024-07-25T07:37:34Z</time>
      </trkpt>
      <trkpt lat="43.57866" lon="3.36175">
        <ele>130.9</ele>
        <time>2024-07-25T07:37:35Z</time>
      </trkpt>
      <trkpt lat="43.57867" lon="3.36174">
        <ele>131.1</ele>
        <time>2024-07-25T07:37:36Z</time>
      </trkpt>
      <trkpt lat="43.57868" lon="3.36172">
        <ele>131.3</ele>
        <time>2024-07-25T07:37:37Z</time>
      </trkpt>
      <trkpt lat="43.57869" lon="3.3617">
        <ele>131.6</ele>
        <time>2024-07-25T07:37:38Z</time>
      </trkpt>
      <trkpt lat="43.57871" lon="3.36167">
        <ele>132</ele>
        <time>2024-07-25T07:37:39Z</time>
      </trkpt>
      <trkpt lat="43.57871" lon="3.36166">
        <ele>132.1</ele>
        <time>2024-07-25T07:37:40Z</time>
      </trkpt>
      <trkpt lat="43.57872" lon="3.36164">
        <ele>132.5</ele>
        <time>2024-07-25T07:37:41Z</time>
      </trkpt>
      <trkpt lat="43.57873" lon="3.36162">
        <ele>132.9</ele>
        <time>2024-07-25T07:37:42Z</time>
      </trkpt>
      <trkpt lat="43.57875" lon="3.36161">
        <ele>133.2</ele>
        <time>2024-07-25T07:37:43Z</time>
      </trkpt>
      <trkpt lat="43.57876" lon="3.36159">
        <ele>133.6</ele>
        <time>2024-07-25T07:37:44Z</time>
      </trkpt>
      <trkpt lat="43.57877" lon="3.36159">
        <ele>133.7</ele>
        <time>2024-07-25T07:37:45Z</time>
      </trkpt>
      <trkpt lat="43.57878" lon="3.36158">
        <ele>133.9</ele>
        <time>2024-07-25T07:37:46Z</time>
      </trkpt>
      <trkpt lat="43.57879" lon="3.36156">
        <ele>134.3</ele>
        <time>2024-07-25T07:37:47Z</time>
      </trkpt>
      <trkpt lat="43.57881" lon="3.36155">
        <ele>134.7</ele>
        <time>2024-07-25T07:37:48Z</time>
      </trkpt>
      <trkpt lat="43.57882" lon="3.36155">
        <ele>134.8</ele>
        <time>2024-07-25T07:37:49Z</time>
      </trkpt>
      <trkpt lat="43.57884" lon="3.36153">
        <ele>135.4</ele>
        <time>2024-07-25T07:37:50Z</time>
      </trkpt>
      <trkpt lat="43.57885" lon="3.36153">
        <ele>135.5</ele>
        <time>2024-07-25T07:37:51Z</time>
      </trkpt>
      <trkpt lat="43.57887" lon="3.36153">
        <ele>135.7</ele>
        <time>2024-07-25T07:37:52Z</time>
      </trkpt>
      <trkpt lat="43.57889" lon="3.36152">
        <ele>136.1</ele>
        <time>2024-07-25T07:37:53Z</time>
      </trkpt>
      <trkpt lat="43.57891" lon="3.36151">
        <ele>136.4</ele>
        <time>2024-07-25T07:37:54Z</time>
      </trkpt>
      <trkpt lat="43.57892" lon="3.36152">
        <ele>136.3</ele>
        <time>2024-07-25T07:37:55Z</time>
      </trkpt>
      <trkpt lat="43.57894" lon="3.36152">
        <ele>136.5</ele>
        <time>2024-07-25T07:37:56Z</time>
      </trkpt>
      <trkpt lat="43.57896" lon="3.36151">
        <ele>136.8</ele>
        <time>2024-07-25T07:37:57Z</time>
      </trkpt>
      <trkpt lat="43.57897" lon="3.36151">
        <ele>136.9</ele>
        <time>2024-07-25T07:37:58Z</time>
      </trkpt>
      <trkpt lat="43.57899" lon="3.3615">
        <ele>137.2</ele>
        <time>2024-07-25T07:37:59Z</time>
      </trkpt>
      <trkpt lat="43.57901" lon="3.3615">
        <ele>137.4</ele>
        <time>2024-07-25T07:38:00Z</time>
      </trkpt>
      <trkpt lat="43.57903" lon="3.36149">
        <ele>137.7</ele>
        <time>2024-07-25T07:38:01Z</time>
      </trkpt>
      <trkpt lat="43.57904" lon="3.36149">
        <ele>137.8</ele>
        <time>2024-07-25T07:38:02Z</time>
      </trkpt>
      <trkpt lat="43.57906" lon="3.36148">
        <ele>138.1</ele>
        <time>2024-07-25T07:38:03Z</time>
      </trkpt>
      <trkpt lat="43.57907" lon="3.36148">
        <ele>138.2</ele>
        <time>2024-07-25T07:38:04Z</time>
      </trkpt>
      <trkpt lat="43.57909" lon="3.36148">
        <ele>138.4</ele>
        <time>2024-07-25T07:38:05Z</time>
      </trkpt>
      <trkpt lat="43.57911" lon="3.36148">
        <ele>138.6</ele>
        <time>2024-07-25T07:38:06Z</time>
      </trkpt>
      <trkpt lat="43.57913" lon="3.36147">
        <ele>138.9</ele>
        <time>2024-07-25T07:38:07Z</time>
      </trkpt>
      <trkpt lat="43.57914" lon="3.36147">
        <ele>139</ele>
        <time>2024-07-25T07:38:08Z</time>
      </trkpt>
      <trkpt lat="43.57916" lon="3.36146">
        <ele>139.4</ele>
        <time>2024-07-25T07:38:09Z</time>
      </trkpt>
      <trkpt lat="43.57918" lon="3.36145">
        <ele>139.6</ele>
        <time>2024-07-25T07:38:10Z</time>
      </trkpt>
      <trkpt lat="43.5792" lon="3.36145">
        <ele>139.6</ele>
        <time>2024-07-25T07:38:11Z</time>
      </trkpt>
      <trkpt lat="43.57922" lon="3.36144">
        <ele>139.7</ele>
        <time>2024-07-25T07:38:12Z</time>
      </trkpt>
      <trkpt lat="43.57924" lon="3.36143">
        <ele>139.9</ele>
        <time>2024-07-25T07:38:13Z</time>
      </trkpt>
      <trkpt lat="43.57926" lon="3.36143">
        <ele>139.8</ele>
        <time>2024-07-25T07:38:14Z</time>
      </trkpt>
      <trkpt lat="43.57928" lon="3.36143">
        <ele>139.8</ele>
        <time>2024-07-25T07:38:15Z</time>
      </trkpt>
      <trkpt lat="43.5793" lon="3.36142">
        <ele>139.9</ele>
        <time>2024-07-25T07:38:16Z</time>
      </trkpt>
      <trkpt lat="43.57932" lon="3.36141">
        <ele>140</ele>
        <time>2024-07-25T07:38:17Z</time>
      </trkpt>
      <trkpt lat="43.57933" lon="3.36139">
        <ele>140.4</ele>
        <time>2024-07-25T07:38:18Z</time>
      </trkpt>
      <trkpt lat="43.57935" lon="3.36137">
        <ele>140.7</ele>
        <time>2024-07-25T07:38:19Z</time>
      </trkpt>
      <trkpt lat="43.57937" lon="3.36136">
        <ele>140.8</ele>
        <time>2024-07-25T07:38:20Z</time>
      </trkpt>
      <trkpt lat="43.57938" lon="3.36134">
        <ele>141.2</ele>
        <time>2024-07-25T07:38:21Z</time>
      </trkpt>
      <trkpt lat="43.57939" lon="3.36133">
        <ele>141.3</ele>
        <time>2024-07-25T07:38:22Z</time>
      </trkpt>
      <trkpt lat="43.57941" lon="3.36131">
        <ele>141.6</ele>
        <time>2024-07-25T07:38:23Z</time>
      </trkpt>
      <trkpt lat="43.57942" lon="3.36129">
        <ele>141.9</ele>
        <time>2024-07-25T07:38:24Z</time>
      </trkpt>
      <trkpt lat="43.57944" lon="3.36127">
        <ele>142.2</ele>
        <time>2024-07-25T07:38:25Z</time>
      </trkpt>
      <trkpt lat="43.57945" lon="3.36125">
        <ele>142.3</ele>
        <time>2024-07-25T07:38:26Z</time>
      </trkpt>
      <trkpt lat="43.57946" lon="3.36124">
        <ele>142.2</ele>
        <time>2024-07-25T07:38:27Z</time>
      </trkpt>
      <trkpt lat="43.57947" lon="3.36122">
        <ele>142.2</ele>
        <time>2024-07-25T07:38:28Z</time>
      </trkpt>
      <trkpt lat="43.57948" lon="3.36119">
        <ele>142.4</ele>
        <time>2024-07-25T07:38:29Z</time>
      </trkpt>
      <trkpt lat="43.5795" lon="3.36117">
        <ele>142.1</ele>
        <time>2024-07-25T07:38:30Z</time>
      </trkpt>
      <trkpt lat="43.57951" lon="3.36116">
        <ele>142</ele>
        <time>2024-07-25T07:38:31Z</time>
      </trkpt>
      <trkpt lat="43.57953" lon="3.36113">
        <ele>141.9</ele>
        <time>2024-07-25T07:38:32Z</time>
      </trkpt>
      <trkpt lat="43.57954" lon="3.36111">
        <ele>141.9</ele>
        <time>2024-07-25T07:38:33Z</time>
      </trkpt>
      <trkpt lat="43.57955" lon="3.36109">
        <ele>142</ele>
        <time>2024-07-25T07:38:34Z</time>
      </trkpt>
      <trkpt lat="43.57956" lon="3.36107">
        <ele>142.1</ele>
        <time>2024-07-25T07:38:35Z</time>
      </trkpt>
      <trkpt lat="43.57957" lon="3.36105">
        <ele>142.1</ele>
        <time>2024-07-25T07:38:36Z</time>
      </trkpt>
      <trkpt lat="43.57958" lon="3.36103">
        <ele>142.2</ele>
        <time>2024-07-25T07:38:37Z</time>
      </trkpt>
      <trkpt lat="43.57959" lon="3.36101">
        <ele>142.3</ele>
        <time>2024-07-25T07:38:38Z</time>
      </trkpt>
      <trkpt lat="43.5796" lon="3.36098">
        <ele>142.6</ele>
        <time>2024-07-25T07:38:39Z</time>
      </trkpt>
      <trkpt lat="43.57962" lon="3.36096">
        <ele>142.4</ele>
        <time>2024-07-25T07:38:40Z</time>
      </trkpt>
      <trkpt lat="43.57963" lon="3.36093">
        <ele>142.7</ele>
        <time>2024-07-25T07:38:41Z</time>
      </trkpt>
      <trkpt lat="43.57965" lon="3.3609">
        <ele>142.7</ele>
        <time>2024-07-25T07:38:42Z</time>
      </trkpt>
      <trkpt lat="43.57967" lon="3.36087">
        <ele>142.7</ele>
        <time>2024-07-25T07:38:43Z</time>
      </trkpt>
      <trkpt lat="43.57969" lon="3.36084">
        <ele>142.8</ele>
        <time>2024-07-25T07:38:44Z</time>
      </trkpt>
      <trkpt lat="43.5797" lon="3.36081">
        <ele>143.1</ele>
        <time>2024-07-25T07:38:45Z</time>
      </trkpt>
      <trkpt lat="43.57972" lon="3.36078">
        <ele>143</ele>
        <time>2024-07-25T07:38:46Z</time>
      </trkpt>
      <trkpt lat="43.57973" lon="3.36075">
        <ele>143.2</ele>
        <time>2024-07-25T07:38:47Z</time>
      </trkpt>
      <trkpt lat="43.57975" lon="3.36072">
        <ele>143</ele>
        <time>2024-07-25T07:38:48Z</time>
      </trkpt>
      <trkpt lat="43.57977" lon="3.36069">
        <ele>142.9</ele>
        <time>2024-07-25T07:38:49Z</time>
      </trkpt>
      <trkpt lat="43.57978" lon="3.36066">
        <ele>143</ele>
        <time>2024-07-25T07:38:50Z</time>
      </trkpt>
      <trkpt lat="43.5798" lon="3.36063">
        <ele>142.9</ele>
        <time>2024-07-25T07:38:51Z</time>
      </trkpt>
      <trkpt lat="43.57982" lon="3.3606">
        <ele>142.7</ele>
        <time>2024-07-25T07:38:52Z</time>
      </trkpt>
      <trkpt lat="43.57983" lon="3.36057">
        <ele>142.9</ele>
        <time>2024-07-25T07:38:53Z</time>
      </trkpt>
      <trkpt lat="43.57985" lon="3.36054">
        <ele>142.8</ele>
        <time>2024-07-25T07:38:54Z</time>
      </trkpt>
      <trkpt lat="43.57986" lon="3.36051">
        <ele>143.1</ele>
        <time>2024-07-25T07:38:55Z</time>
      </trkpt>
      <trkpt lat="43.57988" lon="3.36048">
        <ele>143.1</ele>
        <time>2024-07-25T07:38:56Z</time>
      </trkpt>
      <trkpt lat="43.5799" lon="3.36045">
        <ele>143.1</ele>
        <time>2024-07-25T07:38:57Z</time>
      </trkpt>
      <trkpt lat="43.57992" lon="3.36042">
        <ele>143.2</ele>
        <time>2024-07-25T07:38:58Z</time>
      </trkpt>
      <trkpt lat="43.57993" lon="3.36039">
        <ele>143.5</ele>
        <time>2024-07-25T07:38:59Z</time>
      </trkpt>
      <trkpt lat="43.57995" lon="3.36036">
        <ele>143.6</ele>
        <time>2024-07-25T07:39:00Z</time>
      </trkpt>
      <trkpt lat="43.57997" lon="3.36033">
        <ele>143.7</ele>
        <time>2024-07-25T07:39:01Z</time>
      </trkpt>
      <trkpt lat="43.57999" lon="3.3603">
        <ele>143.8</ele>
        <time>2024-07-25T07:39:02Z</time>
      </trkpt>
      <trkpt lat="43.58" lon="3.36026">
        <ele>144.4</ele>
        <time>2024-07-25T07:39:03Z</time>
      </trkpt>
      <trkpt lat="43.58002" lon="3.36023">
        <ele>144.1</ele>
        <time>2024-07-25T07:39:04Z</time>
      </trkpt>
      <trkpt lat="43.58003" lon="3.3602">
        <ele>144.4</ele>
        <time>2024-07-25T07:39:05Z</time>
      </trkpt>
      <trkpt lat="43.58005" lon="3.36018">
        <ele>144</ele>
        <time>2024-07-25T07:39:06Z</time>
      </trkpt>
      <trkpt lat="43.58007" lon="3.36015">
        <ele>143.8</ele>
        <time>2024-07-25T07:39:07Z</time>
      </trkpt>
      <trkpt lat="43.58009" lon="3.36011">
        <ele>144</ele>
        <time>2024-07-25T07:39:08Z</time>
      </trkpt>
      <trkpt lat="43.5801" lon="3.36009">
        <ele>144.1</ele>
        <time>2024-07-25T07:39:09Z</time>
      </trkpt>
      <trkpt lat="43.58012" lon="3.36006">
        <ele>144.1</ele>
        <time>2024-07-25T07:39:10Z</time>
      </trkpt>
      <trkpt lat="43.58013" lon="3.36003">
        <ele>144.5</ele>
        <time>2024-07-25T07:39:11Z</time>
      </trkpt>
      <trkpt lat="43.58015" lon="3.36">
        <ele>144.6</ele>
        <time>2024-07-25T07:39:12Z</time>
      </trkpt>
      <trkpt lat="43.58016" lon="3.35997">
        <ele>145</ele>
        <time>2024-07-25T07:39:13Z</time>
      </trkpt>
      <trkpt lat="43.58018" lon="3.35994">
        <ele>145</ele>
        <time>2024-07-25T07:39:14Z</time>
      </trkpt>
      <trkpt lat="43.5802" lon="3.35991">
        <ele>145</ele>
        <time>2024-07-25T07:39:15Z</time>
      </trkpt>
      <trkpt lat="43.58021" lon="3.35988">
        <ele>145.4</ele>
        <time>2024-07-25T07:39:16Z</time>
      </trkpt>
      <trkpt lat="43.58023" lon="3.35985">
        <ele>145.4</ele>
        <time>2024-07-25T07:39:17Z</time>
      </trkpt>
      <trkpt lat="43.58025" lon="3.35982">
        <ele>145.5</ele>
        <time>2024-07-25T07:39:18Z</time>
      </trkpt>
      <trkpt lat="43.58026" lon="3.35979">
        <ele>145.9</ele>
        <time>2024-07-25T07:39:19Z</time>
      </trkpt>
      <trkpt lat="43.58028" lon="3.35976">
        <ele>146</ele>
        <time>2024-07-25T07:39:20Z</time>
      </trkpt>
      <trkpt lat="43.5803" lon="3.35973">
        <ele>146</ele>
        <time>2024-07-25T07:39:21Z</time>
      </trkpt>
      <trkpt lat="43.58031" lon="3.3597">
        <ele>146.4</ele>
        <time>2024-07-25T07:39:22Z</time>
      </trkpt>
      <trkpt lat="43.58033" lon="3.35968">
        <ele>146.2</ele>
        <time>2024-07-25T07:39:23Z</time>
      </trkpt>
      <trkpt lat="43.58034" lon="3.35964">
        <ele>146.9</ele>
        <time>2024-07-25T07:39:24Z</time>
      </trkpt>
      <trkpt lat="43.58036" lon="3.35961">
        <ele>147</ele>
        <time>2024-07-25T07:39:25Z</time>
      </trkpt>
      <trkpt lat="43.58038" lon="3.35958">
        <ele>147.1</ele>
        <time>2024-07-25T07:39:26Z</time>
      </trkpt>
      <trkpt lat="43.58039" lon="3.35956">
        <ele>147.3</ele>
        <time>2024-07-25T07:39:27Z</time>
      </trkpt>
      <trkpt lat="43.58041" lon="3.35952">
        <ele>147.7</ele>
        <time>2024-07-25T07:39:28Z</time>
      </trkpt>
      <trkpt lat="43.58042" lon="3.35949">
        <ele>148.2</ele>
        <time>2024-07-25T07:39:29Z</time>
      </trkpt>
      <trkpt lat="43.58044" lon="3.35946">
        <ele>148.3</ele>
        <time>2024-07-25T07:39:30Z</time>
      </trkpt>
      <trkpt lat="43.58046" lon="3.35943">
        <ele>148.4</ele>
        <time>2024-07-25T07:39:31Z</time>
      </trkpt>
      <trkpt lat="43.58047" lon="3.3594">
        <ele>148.7</ele>
        <time>2024-07-25T07:39:32Z</time>
      </trkpt>
      <trkpt lat="43.58048" lon="3.35937">
        <ele>149.1</ele>
        <time>2024-07-25T07:39:33Z</time>
      </trkpt>
      <trkpt lat="43.5805" lon="3.35933">
        <ele>149.3</ele>
        <time>2024-07-25T07:39:34Z</time>
      </trkpt>
      <trkpt lat="43.58051" lon="3.35931">
        <ele>149.4</ele>
        <time>2024-07-25T07:39:35Z</time>
      </trkpt>
      <trkpt lat="43.58052" lon="3.35928">
        <ele>149.7</ele>
        <time>2024-07-25T07:39:36Z</time>
      </trkpt>
      <trkpt lat="43.58054" lon="3.35925">
        <ele>149.7</ele>
        <time>2024-07-25T07:39:37Z</time>
      </trkpt>
      <trkpt lat="43.58055" lon="3.35922">
        <ele>150</ele>
        <time>2024-07-25T07:39:38Z</time>
      </trkpt>
      <trkpt lat="43.58057" lon="3.35919">
        <ele>150</ele>
        <time>2024-07-25T07:39:39Z</time>
      </trkpt>
      <trkpt lat="43.58058" lon="3.35916">
        <ele>150.3</ele>
        <time>2024-07-25T07:39:40Z</time>
      </trkpt>
      <trkpt lat="43.5806" lon="3.35913">
        <ele>150.3</ele>
        <time>2024-07-25T07:39:41Z</time>
      </trkpt>
      <trkpt lat="43.58062" lon="3.3591">
        <ele>150.4</ele>
        <time>2024-07-25T07:39:42Z</time>
      </trkpt>
      <trkpt lat="43.58063" lon="3.35908">
        <ele>150.6</ele>
        <time>2024-07-25T07:39:43Z</time>
      </trkpt>
      <trkpt lat="43.58064" lon="3.35904">
        <ele>151.3</ele>
        <time>2024-07-25T07:39:44Z</time>
      </trkpt>
      <trkpt lat="43.58065" lon="3.35901">
        <ele>151.7</ele>
        <time>2024-07-25T07:39:45Z</time>
      </trkpt>
      <trkpt lat="43.58066" lon="3.35898">
        <ele>152.2</ele>
        <time>2024-07-25T07:39:46Z</time>
      </trkpt>
      <trkpt lat="43.58067" lon="3.35896">
        <ele>152.4</ele>
        <time>2024-07-25T07:39:47Z</time>
      </trkpt>
      <trkpt lat="43.58068" lon="3.35893">
        <ele>152.9</ele>
        <time>2024-07-25T07:39:48Z</time>
      </trkpt>
      <trkpt lat="43.5807" lon="3.3589">
        <ele>153</ele>
        <time>2024-07-25T07:39:49Z</time>
      </trkpt>
      <trkpt lat="43.58071" lon="3.35888">
        <ele>153.2</ele>
        <time>2024-07-25T07:39:50Z</time>
      </trkpt>
      <trkpt lat="43.58072" lon="3.35885">
        <ele>153.5</ele>
        <time>2024-07-25T07:39:51Z</time>
      </trkpt>
      <trkpt lat="43.58074" lon="3.35882">
        <ele>153.5</ele>
        <time>2024-07-25T07:39:52Z</time>
      </trkpt>
      <trkpt lat="43.58075" lon="3.35879">
        <ele>153.8</ele>
        <time>2024-07-25T07:39:53Z</time>
      </trkpt>
      <trkpt lat="43.58076" lon="3.35876">
        <ele>154.2</ele>
        <time>2024-07-25T07:39:54Z</time>
      </trkpt>
      <trkpt lat="43.58077" lon="3.35874">
        <ele>154.3</ele>
        <time>2024-07-25T07:39:55Z</time>
      </trkpt>
      <trkpt lat="43.58078" lon="3.35871">
        <ele>154.6</ele>
        <time>2024-07-25T07:39:56Z</time>
      </trkpt>
      <trkpt lat="43.58079" lon="3.35868">
        <ele>154.9</ele>
        <time>2024-07-25T07:39:57Z</time>
      </trkpt>
      <trkpt lat="43.5808" lon="3.35865">
        <ele>155.2</ele>
        <time>2024-07-25T07:39:58Z</time>
      </trkpt>
      <trkpt lat="43.58082" lon="3.35863">
        <ele>155</ele>
        <time>2024-07-25T07:39:59Z</time>
      </trkpt>
      <trkpt lat="43.58083" lon="3.3586">
        <ele>155.3</ele>
        <time>2024-07-25T07:40:00Z</time>
      </trkpt>
      <trkpt lat="43.58084" lon="3.35857">
        <ele>155.6</ele>
        <time>2024-07-25T07:40:01Z</time>
      </trkpt>
      <trkpt lat="43.58085" lon="3.35855">
        <ele>155.6</ele>
        <time>2024-07-25T07:40:02Z</time>
      </trkpt>
      <trkpt lat="43.58086" lon="3.35852">
        <ele>155.9</ele>
        <time>2024-07-25T07:40:03Z</time>
      </trkpt>
      <trkpt lat="43.58088" lon="3.35849">
        <ele>155.8</ele>
        <time>2024-07-25T07:40:04Z</time>
      </trkpt>
      <trkpt lat="43.58089" lon="3.35846">
        <ele>156.1</ele>
        <time>2024-07-25T07:40:05Z</time>
      </trkpt>
      <trkpt lat="43.5809" lon="3.35843">
        <ele>156.5</ele>
        <time>2024-07-25T07:40:06Z</time>
      </trkpt>
      <trkpt lat="43.58091" lon="3.3584">
        <ele>156.9</ele>
        <time>2024-07-25T07:40:07Z</time>
      </trkpt>
      <trkpt lat="43.58092" lon="3.35838">
        <ele>157</ele>
        <time>2024-07-25T07:40:08Z</time>
      </trkpt>
      <trkpt lat="43.58093" lon="3.35835">
        <ele>157.4</ele>
        <time>2024-07-25T07:40:09Z</time>
      </trkpt>
      <trkpt lat="43.58095" lon="3.35832">
        <ele>157.5</ele>
        <time>2024-07-25T07:40:10Z</time>
      </trkpt>
      <trkpt lat="43.58096" lon="3.35829">
        <ele>157.9</ele>
        <time>2024-07-25T07:40:11Z</time>
      </trkpt>
      <trkpt lat="43.58097" lon="3.35826">
        <ele>158.3</ele>
        <time>2024-07-25T07:40:12Z</time>
      </trkpt>
      <trkpt lat="43.58098" lon="3.35823">
        <ele>158.7</ele>
        <time>2024-07-25T07:40:13Z</time>
      </trkpt>
      <trkpt lat="43.581" lon="3.3582">
        <ele>158.7</ele>
        <time>2024-07-25T07:40:14Z</time>
      </trkpt>
      <trkpt lat="43.58101" lon="3.35818">
        <ele>158.8</ele>
        <time>2024-07-25T07:40:15Z</time>
      </trkpt>
      <trkpt lat="43.58102" lon="3.35815">
        <ele>159.1</ele>
        <time>2024-07-25T07:40:16Z</time>
      </trkpt>
      <trkpt lat="43.58103" lon="3.35813">
        <ele>159.2</ele>
        <time>2024-07-25T07:40:17Z</time>
      </trkpt>
      <trkpt lat="43.58105" lon="3.3581">
        <ele>159.2</ele>
        <time>2024-07-25T07:40:18Z</time>
      </trkpt>
      <trkpt lat="43.58106" lon="3.35808">
        <ele>159.3</ele>
        <time>2024-07-25T07:40:19Z</time>
      </trkpt>
      <trkpt lat="43.58107" lon="3.35805">
        <ele>159.6</ele>
        <time>2024-07-25T07:40:20Z</time>
      </trkpt>
      <trkpt lat="43.58108" lon="3.35803">
        <ele>159.6</ele>
        <time>2024-07-25T07:40:21Z</time>
      </trkpt>
      <trkpt lat="43.58108" lon="3.35801">
        <ele>160</ele>
        <time>2024-07-25T07:40:22Z</time>
      </trkpt>
      <trkpt lat="43.58109" lon="3.35798">
        <ele>160.2</ele>
        <time>2024-07-25T07:40:23Z</time>
      </trkpt>
      <trkpt lat="43.5811" lon="3.35796">
        <ele>160.1</ele>
        <time>2024-07-25T07:40:24Z</time>
      </trkpt>
      <trkpt lat="43.58111" lon="3.35793">
        <ele>160.3</ele>
        <time>2024-07-25T07:40:25Z</time>
      </trkpt>
      <trkpt lat="43.58112" lon="3.3579">
        <ele>160.4</ele>
        <time>2024-07-25T07:40:26Z</time>
      </trkpt>
      <trkpt lat="43.58113" lon="3.35787">
        <ele>160.6</ele>
        <time>2024-07-25T07:40:27Z</time>
      </trkpt>
      <trkpt lat="43.58114" lon="3.35785">
        <ele>160.6</ele>
        <time>2024-07-25T07:40:28Z</time>
      </trkpt>
      <trkpt lat="43.58115" lon="3.35782">
        <ele>160.7</ele>
        <time>2024-07-25T07:40:29Z</time>
      </trkpt>
      <trkpt lat="43.58115" lon="3.3578">
        <ele>161.1</ele>
        <time>2024-07-25T07:40:30Z</time>
      </trkpt>
      <trkpt lat="43.58116" lon="3.35777">
        <ele>161.2</ele>
        <time>2024-07-25T07:40:31Z</time>
      </trkpt>
      <trkpt lat="43.58117" lon="3.35775">
        <ele>161.2</ele>
        <time>2024-07-25T07:40:32Z</time>
      </trkpt>
      <trkpt lat="43.58118" lon="3.35772">
        <ele>161.4</ele>
        <time>2024-07-25T07:40:33Z</time>
      </trkpt>
      <trkpt lat="43.58119" lon="3.35769">
        <ele>161.6</ele>
        <time>2024-07-25T07:40:34Z</time>
      </trkpt>
      <trkpt lat="43.5812" lon="3.35766">
        <ele>161.8</ele>
        <time>2024-07-25T07:40:35Z</time>
      </trkpt>
      <trkpt lat="43.5812" lon="3.35763">
        <ele>162.3</ele>
        <time>2024-07-25T07:40:36Z</time>
      </trkpt>
      <trkpt lat="43.58121" lon="3.3576">
        <ele>162.5</ele>
        <time>2024-07-25T07:40:37Z</time>
      </trkpt>
      <trkpt lat="43.58122" lon="3.35757">
        <ele>162.6</ele>
        <time>2024-07-25T07:40:38Z</time>
      </trkpt>
      <trkpt lat="43.58123" lon="3.35754">
        <ele>162.7</ele>
        <time>2024-07-25T07:40:39Z</time>
      </trkpt>
      <trkpt lat="43.58124" lon="3.35751">
        <ele>162.8</ele>
        <time>2024-07-25T07:40:40Z</time>
      </trkpt>
      <trkpt lat="43.58124" lon="3.35748">
        <ele>163.3</ele>
        <time>2024-07-25T07:40:41Z</time>
      </trkpt>
      <trkpt lat="43.58125" lon="3.35745">
        <ele>163.3</ele>
        <time>2024-07-25T07:40:42Z</time>
      </trkpt>
      <trkpt lat="43.58126" lon="3.35742">
        <ele>163.3</ele>
        <time>2024-07-25T07:40:43Z</time>
      </trkpt>
      <trkpt lat="43.58126" lon="3.35739">
        <ele>163.8</ele>
        <time>2024-07-25T07:40:44Z</time>
      </trkpt>
      <trkpt lat="43.58127" lon="3.35736">
        <ele>163.8</ele>
        <time>2024-07-25T07:40:45Z</time>
      </trkpt>
      <trkpt lat="43.58127" lon="3.35734">
        <ele>164.1</ele>
        <time>2024-07-25T07:40:46Z</time>
      </trkpt>
      <trkpt lat="43.58128" lon="3.35731">
        <ele>164.1</ele>
        <time>2024-07-25T07:40:47Z</time>
      </trkpt>
      <trkpt lat="43.58129" lon="3.35728">
        <ele>164.1</ele>
        <time>2024-07-25T07:40:48Z</time>
      </trkpt>
      <trkpt lat="43.58129" lon="3.35726">
        <ele>164.4</ele>
        <time>2024-07-25T07:40:49Z</time>
      </trkpt>
      <trkpt lat="43.5813" lon="3.35723">
        <ele>164.4</ele>
        <time>2024-07-25T07:40:50Z</time>
      </trkpt>
      <trkpt lat="43.58131" lon="3.35719">
        <ele>164.6</ele>
        <time>2024-07-25T07:40:51Z</time>
      </trkpt>
      <trkpt lat="43.58132" lon="3.35716">
        <ele>164.8</ele>
        <time>2024-07-25T07:40:52Z</time>
      </trkpt>
      <trkpt lat="43.58133" lon="3.35713">
        <ele>164.9</ele>
        <time>2024-07-25T07:40:53Z</time>
      </trkpt>
      <trkpt lat="43.58134" lon="3.3571">
        <ele>165</ele>
        <time>2024-07-25T07:40:54Z</time>
      </trkpt>
      <trkpt lat="43.58135" lon="3.35707">
        <ele>165.2</ele>
        <time>2024-07-25T07:40:55Z</time>
      </trkpt>
      <trkpt lat="43.58137" lon="3.35704">
        <ele>164.8</ele>
        <time>2024-07-25T07:40:56Z</time>
      </trkpt>
      <trkpt lat="43.58138" lon="3.35702">
        <ele>164.8</ele>
        <time>2024-07-25T07:40:57Z</time>
      </trkpt>
      <trkpt lat="43.58139" lon="3.35699">
        <ele>165</ele>
        <time>2024-07-25T07:40:58Z</time>
      </trkpt>
      <trkpt lat="43.58141" lon="3.35696">
        <ele>165</ele>
        <time>2024-07-25T07:40:59Z</time>
      </trkpt>
      <trkpt lat="43.58142" lon="3.35694">
        <ele>165.1</ele>
        <time>2024-07-25T07:41:00Z</time>
      </trkpt>
      <trkpt lat="43.58143" lon="3.3569">
        <ele>165.6</ele>
        <time>2024-07-25T07:41:01Z</time>
      </trkpt>
      <trkpt lat="43.58145" lon="3.35687">
        <ele>165.5</ele>
        <time>2024-07-25T07:41:02Z</time>
      </trkpt>
      <trkpt lat="43.58147" lon="3.35684">
        <ele>165.4</ele>
        <time>2024-07-25T07:41:03Z</time>
      </trkpt>
      <trkpt lat="43.58149" lon="3.35681">
        <ele>165.3</ele>
        <time>2024-07-25T07:41:04Z</time>
      </trkpt>
      <trkpt lat="43.5815" lon="3.35678">
        <ele>165.5</ele>
        <time>2024-07-25T07:41:05Z</time>
      </trkpt>
      <trkpt lat="43.58152" lon="3.35675">
        <ele>165.3</ele>
        <time>2024-07-25T07:41:06Z</time>
      </trkpt>
      <trkpt lat="43.58154" lon="3.35671">
        <ele>165.2</ele>
        <time>2024-07-25T07:41:07Z</time>
      </trkpt>
      <trkpt lat="43.58155" lon="3.35668">
        <ele>165.4</ele>
        <time>2024-07-25T07:41:08Z</time>
      </trkpt>
      <trkpt lat="43.58157" lon="3.35665">
        <ele>165.1</ele>
        <time>2024-07-25T07:41:09Z</time>
      </trkpt>
      <trkpt lat="43.58158" lon="3.35661">
        <ele>165.4</ele>
        <time>2024-07-25T07:41:10Z</time>
      </trkpt>
      <trkpt lat="43.5816" lon="3.35658">
        <ele>165</ele>
        <time>2024-07-25T07:41:11Z</time>
      </trkpt>
      <trkpt lat="43.58161" lon="3.35654">
        <ele>165.3</ele>
        <time>2024-07-25T07:41:12Z</time>
      </trkpt>
      <trkpt lat="43.58162" lon="3.35649">
        <ele>165.6</ele>
        <time>2024-07-25T07:41:13Z</time>
      </trkpt>
      <trkpt lat="43.58164" lon="3.35645">
        <ele>165.3</ele>
        <time>2024-07-25T07:41:14Z</time>
      </trkpt>
      <trkpt lat="43.58165" lon="3.35642">
        <ele>165.3</ele>
        <time>2024-07-25T07:41:15Z</time>
      </trkpt>
      <trkpt lat="43.58167" lon="3.35638">
        <ele>165</ele>
        <time>2024-07-25T07:41:16Z</time>
      </trkpt>
      <trkpt lat="43.58168" lon="3.35633">
        <ele>165</ele>
        <time>2024-07-25T07:41:17Z</time>
      </trkpt>
      <trkpt lat="43.5817" lon="3.35628">
        <ele>164.6</ele>
        <time>2024-07-25T07:41:18Z</time>
      </trkpt>
      <trkpt lat="43.58171" lon="3.35623">
        <ele>164.7</ele>
        <time>2024-07-25T07:41:19Z</time>
      </trkpt>
      <trkpt lat="43.58172" lon="3.35619">
        <ele>164.6</ele>
        <time>2024-07-25T07:41:20Z</time>
      </trkpt>
      <trkpt lat="43.58174" lon="3.35614">
        <ele>164</ele>
        <time>2024-07-25T07:41:21Z</time>
      </trkpt>
      <trkpt lat="43.58175" lon="3.3561">
        <ele>163.9</ele>
        <time>2024-07-25T07:41:22Z</time>
      </trkpt>
      <trkpt lat="43.58176" lon="3.35605">
        <ele>163.6</ele>
        <time>2024-07-25T07:41:23Z</time>
      </trkpt>
      <trkpt lat="43.58177" lon="3.35601">
        <ele>163.2</ele>
        <time>2024-07-25T07:41:24Z</time>
      </trkpt>
      <trkpt lat="43.58178" lon="3.35596">
        <ele>162.9</ele>
        <time>2024-07-25T07:41:25Z</time>
      </trkpt>
      <trkpt lat="43.58179" lon="3.35591">
        <ele>162.6</ele>
        <time>2024-07-25T07:41:26Z</time>
      </trkpt>
      <trkpt lat="43.58179" lon="3.35587">
        <ele>162.7</ele>
        <time>2024-07-25T07:41:27Z</time>
      </trkpt>
      <trkpt lat="43.5818" lon="3.35582">
        <ele>162.4</ele>
        <time>2024-07-25T07:41:28Z</time>
      </trkpt>
      <trkpt lat="43.5818" lon="3.35577">
        <ele>162.7</ele>
        <time>2024-07-25T07:41:29Z</time>
      </trkpt>
      <trkpt lat="43.5818" lon="3.35572">
        <ele>162.9</ele>
        <time>2024-07-25T07:41:30Z</time>
      </trkpt>
      <trkpt lat="43.58181" lon="3.35566">
        <ele>162.7</ele>
        <time>2024-07-25T07:41:31Z</time>
      </trkpt>
      <trkpt lat="43.58181" lon="3.3556">
        <ele>163</ele>
        <time>2024-07-25T07:41:32Z</time>
      </trkpt>
      <trkpt lat="43.58182" lon="3.35554">
        <ele>162.8</ele>
        <time>2024-07-25T07:41:33Z</time>
      </trkpt>
      <trkpt lat="43.58183" lon="3.35547">
        <ele>162.5</ele>
        <time>2024-07-25T07:41:34Z</time>
      </trkpt>
      <trkpt lat="43.58184" lon="3.35541">
        <ele>162.2</ele>
        <time>2024-07-25T07:41:35Z</time>
      </trkpt>
      <trkpt lat="43.58185" lon="3.35534">
        <ele>161.9</ele>
        <time>2024-07-25T07:41:36Z</time>
      </trkpt>
      <trkpt lat="43.58185" lon="3.35527">
        <ele>162.2</ele>
        <time>2024-07-25T07:41:37Z</time>
      </trkpt>
      <trkpt lat="43.58186" lon="3.3552">
        <ele>162.3</ele>
        <time>2024-07-25T07:41:38Z</time>
      </trkpt>
      <trkpt lat="43.58187" lon="3.35513">
        <ele>162.5</ele>
        <time>2024-07-25T07:41:39Z</time>
      </trkpt>
      <trkpt lat="43.58188" lon="3.35506">
        <ele>162.7</ele>
        <time>2024-07-25T07:41:40Z</time>
      </trkpt>
      <trkpt lat="43.58189" lon="3.355">
        <ele>162.7</ele>
        <time>2024-07-25T07:41:41Z</time>
      </trkpt>
      <trkpt lat="43.5819" lon="3.35494">
        <ele>162.8</ele>
        <time>2024-07-25T07:41:42Z</time>
      </trkpt>
      <trkpt lat="43.58191" lon="3.35489">
        <ele>162.8</ele>
        <time>2024-07-25T07:41:43Z</time>
      </trkpt>
      <trkpt lat="43.58192" lon="3.35485">
        <ele>162.7</ele>
        <time>2024-07-25T07:41:44Z</time>
      </trkpt>
      <trkpt lat="43.58194" lon="3.35482">
        <ele>162.1</ele>
        <time>2024-07-25T07:41:45Z</time>
      </trkpt>
      <trkpt lat="43.58196" lon="3.35478">
        <ele>162.7</ele>
        <time>2024-07-25T07:41:46Z</time>
      </trkpt>
      <trkpt lat="43.58198" lon="3.35475">
        <ele>163.5</ele>
        <time>2024-07-25T07:41:47Z</time>
      </trkpt>
      <trkpt lat="43.582" lon="3.3547">
        <ele>164.2</ele>
        <time>2024-07-25T07:41:48Z</time>
      </trkpt>
      <trkpt lat="43.58201" lon="3.35466">
        <ele>164.6</ele>
        <time>2024-07-25T07:41:49Z</time>
      </trkpt>
      <trkpt lat="43.58202" lon="3.35461">
        <ele>165</ele>
        <time>2024-07-25T07:41:50Z</time>
      </trkpt>
      <trkpt lat="43.58203" lon="3.35456">
        <ele>165.4</ele>
        <time>2024-07-25T07:41:51Z</time>
      </trkpt>
      <trkpt lat="43.58204" lon="3.3545">
        <ele>165.9</ele>
        <time>2024-07-25T07:41:52Z</time>
      </trkpt>
      <trkpt lat="43.58204" lon="3.35446">
        <ele>166</ele>
        <time>2024-07-25T07:41:53Z</time>
      </trkpt>
      <trkpt lat="43.58203" lon="3.35441">
        <ele>165.9</ele>
        <time>2024-07-25T07:41:54Z</time>
      </trkpt>
      <trkpt lat="43.58203" lon="3.35437">
        <ele>166.1</ele>
        <time>2024-07-25T07:41:55Z</time>
      </trkpt>
      <trkpt lat="43.58203" lon="3.35434">
        <ele>166.3</ele>
        <time>2024-07-25T07:41:56Z</time>
      </trkpt>
      <trkpt lat="43.58202" lon="3.35429">
        <ele>166.3</ele>
        <time>2024-07-25T07:41:57Z</time>
      </trkpt>
      <trkpt lat="43.58201" lon="3.35426">
        <ele>166.1</ele>
        <time>2024-07-25T07:41:58Z</time>
      </trkpt>
      <trkpt lat="43.582" lon="3.35422">
        <ele>166.1</ele>
        <time>2024-07-25T07:41:59Z</time>
      </trkpt>
      <trkpt lat="43.58199" lon="3.35418">
        <ele>166.1</ele>
        <time>2024-07-25T07:42:00Z</time>
      </trkpt>
      <trkpt lat="43.58198" lon="3.35415">
        <ele>166.1</ele>
        <time>2024-07-25T07:42:01Z</time>
      </trkpt>
      <trkpt lat="43.58197" lon="3.35412">
        <ele>166.3</ele>
        <time>2024-07-25T07:42:02Z</time>
      </trkpt>
      <trkpt lat="43.58196" lon="3.35408">
        <ele>166.6</ele>
        <time>2024-07-25T07:42:03Z</time>
      </trkpt>
      <trkpt lat="43.58194" lon="3.35405">
        <ele>166.8</ele>
        <time>2024-07-25T07:42:04Z</time>
      </trkpt>
      <trkpt lat="43.58193" lon="3.35401">
        <ele>167.5</ele>
        <time>2024-07-25T07:42:05Z</time>
      </trkpt>
      <trkpt lat="43.58191" lon="3.35398">
        <ele>168.1</ele>
        <time>2024-07-25T07:42:06Z</time>
      </trkpt>
      <trkpt lat="43.5819" lon="3.35394">
        <ele>168.6</ele>
        <time>2024-07-25T07:42:07Z</time>
      </trkpt>
      <trkpt lat="43.58189" lon="3.35391">
        <ele>169</ele>
        <time>2024-07-25T07:42:08Z</time>
      </trkpt>
      <trkpt lat="43.58188" lon="3.35388">
        <ele>169.3</ele>
        <time>2024-07-25T07:42:09Z</time>
      </trkpt>
      <trkpt lat="43.58187" lon="3.35384">
        <ele>169.7</ele>
        <time>2024-07-25T07:42:10Z</time>
      </trkpt>
      <trkpt lat="43.58186" lon="3.3538">
        <ele>170.1</ele>
        <time>2024-07-25T07:42:11Z</time>
      </trkpt>
      <trkpt lat="43.58185" lon="3.35376">
        <ele>170.4</ele>
        <time>2024-07-25T07:42:12Z</time>
      </trkpt>
      <trkpt lat="43.58184" lon="3.35372">
        <ele>170.7</ele>
        <time>2024-07-25T07:42:13Z</time>
      </trkpt>
      <trkpt lat="43.58184" lon="3.35367">
        <ele>171</ele>
        <time>2024-07-25T07:42:14Z</time>
      </trkpt>
      <trkpt lat="43.58183" lon="3.35363">
        <ele>171.2</ele>
        <time>2024-07-25T07:42:15Z</time>
      </trkpt>
      <trkpt lat="43.58182" lon="3.35359">
        <ele>171.5</ele>
        <time>2024-07-25T07:42:16Z</time>
      </trkpt>
      <trkpt lat="43.58182" lon="3.35356">
        <ele>171.8</ele>
        <time>2024-07-25T07:42:17Z</time>
      </trkpt>
      <trkpt lat="43.58181" lon="3.35352">
        <ele>172.1</ele>
        <time>2024-07-25T07:42:18Z</time>
      </trkpt>
      <trkpt lat="43.58181" lon="3.35347">
        <ele>172.6</ele>
        <time>2024-07-25T07:42:19Z</time>
      </trkpt>
      <trkpt lat="43.5818" lon="3.35344">
        <ele>172.7</ele>
        <time>2024-07-25T07:42:20Z</time>
      </trkpt>
      <trkpt lat="43.5818" lon="3.35341">
        <ele>173</ele>
        <time>2024-07-25T07:42:21Z</time>
      </trkpt>
      <trkpt lat="43.58179" lon="3.35337">
        <ele>173.2</ele>
        <time>2024-07-25T07:42:22Z</time>
      </trkpt>
      <trkpt lat="43.58179" lon="3.35334">
        <ele>173.5</ele>
        <time>2024-07-25T07:42:23Z</time>
      </trkpt>
      <trkpt lat="43.58178" lon="3.35331">
        <ele>173.6</ele>
        <time>2024-07-25T07:42:24Z</time>
      </trkpt>
      <trkpt lat="43.58178" lon="3.35328">
        <ele>173.9</ele>
        <time>2024-07-25T07:42:25Z</time>
      </trkpt>
      <trkpt lat="43.58178" lon="3.35325">
        <ele>174.3</ele>
        <time>2024-07-25T07:42:26Z</time>
      </trkpt>
      <trkpt lat="43.58177" lon="3.35322">
        <ele>174.4</ele>
        <time>2024-07-25T07:42:27Z</time>
      </trkpt>
      <trkpt lat="43.58176" lon="3.35319">
        <ele>174.4</ele>
        <time>2024-07-25T07:42:28Z</time>
      </trkpt>
      <trkpt lat="43.58176" lon="3.35316">
        <ele>174.8</ele>
        <time>2024-07-25T07:42:29Z</time>
      </trkpt>
      <trkpt lat="43.58175" lon="3.35313">
        <ele>174.8</ele>
        <time>2024-07-25T07:42:30Z</time>
      </trkpt>
      <trkpt lat="43.58175" lon="3.3531">
        <ele>175.2</ele>
        <time>2024-07-25T07:42:31Z</time>
      </trkpt>
      <trkpt lat="43.58174" lon="3.35307">
        <ele>175.2</ele>
        <time>2024-07-25T07:42:32Z</time>
      </trkpt>
      <trkpt lat="43.58174" lon="3.35304">
        <ele>175.5</ele>
        <time>2024-07-25T07:42:33Z</time>
      </trkpt>
      <trkpt lat="43.58174" lon="3.35301">
        <ele>175.7</ele>
        <time>2024-07-25T07:42:34Z</time>
      </trkpt>
      <trkpt lat="43.58173" lon="3.35297">
        <ele>175.7</ele>
        <time>2024-07-25T07:42:35Z</time>
      </trkpt>
      <trkpt lat="43.58174" lon="3.35294">
        <ele>176.3</ele>
        <time>2024-07-25T07:42:36Z</time>
      </trkpt>
      <trkpt lat="43.58173" lon="3.35291">
        <ele>176.2</ele>
        <time>2024-07-25T07:42:37Z</time>
      </trkpt>
      <trkpt lat="43.58173" lon="3.35288">
        <ele>176.5</ele>
        <time>2024-07-25T07:42:38Z</time>
      </trkpt>
      <trkpt lat="43.58173" lon="3.35285">
        <ele>176.7</ele>
        <time>2024-07-25T07:42:39Z</time>
      </trkpt>
      <trkpt lat="43.58172" lon="3.35282">
        <ele>176.6</ele>
        <time>2024-07-25T07:42:40Z</time>
      </trkpt>
      <trkpt lat="43.58172" lon="3.35279">
        <ele>176.8</ele>
        <time>2024-07-25T07:42:41Z</time>
      </trkpt>
      <trkpt lat="43.58171" lon="3.35276">
        <ele>176.8</ele>
        <time>2024-07-25T07:42:42Z</time>
      </trkpt>
      <trkpt lat="43.58171" lon="3.35273">
        <ele>177.1</ele>
        <time>2024-07-25T07:42:43Z</time>
      </trkpt>
      <trkpt lat="43.5817" lon="3.3527">
        <ele>177</ele>
        <time>2024-07-25T07:42:44Z</time>
      </trkpt>
      <trkpt lat="43.5817" lon="3.35268">
        <ele>177.3</ele>
        <time>2024-07-25T07:42:45Z</time>
      </trkpt>
      <trkpt lat="43.5817" lon="3.35265">
        <ele>177.6</ele>
        <time>2024-07-25T07:42:46Z</time>
      </trkpt>
      <trkpt lat="43.58169" lon="3.35262">
        <ele>177.5</ele>
        <time>2024-07-25T07:42:47Z</time>
      </trkpt>
      <trkpt lat="43.58169" lon="3.35259">
        <ele>177.9</ele>
        <time>2024-07-25T07:42:48Z</time>
      </trkpt>
      <trkpt lat="43.58168" lon="3.35256">
        <ele>177.8</ele>
        <time>2024-07-25T07:42:49Z</time>
      </trkpt>
      <trkpt lat="43.58167" lon="3.35253">
        <ele>177.8</ele>
        <time>2024-07-25T07:42:50Z</time>
      </trkpt>
      <trkpt lat="43.58167" lon="3.3525">
        <ele>178.1</ele>
        <time>2024-07-25T07:42:51Z</time>
      </trkpt>
      <trkpt lat="43.58166" lon="3.35247">
        <ele>178.3</ele>
        <time>2024-07-25T07:42:52Z</time>
      </trkpt>
      <trkpt lat="43.58166" lon="3.35244">
        <ele>178.6</ele>
        <time>2024-07-25T07:42:53Z</time>
      </trkpt>
      <trkpt lat="43.58166" lon="3.3524">
        <ele>179</ele>
        <time>2024-07-25T07:42:54Z</time>
      </trkpt>
      <trkpt lat="43.58165" lon="3.35237">
        <ele>179.2</ele>
        <time>2024-07-25T07:42:55Z</time>
      </trkpt>
      <trkpt lat="43.58164" lon="3.35234">
        <ele>179.4</ele>
        <time>2024-07-25T07:42:56Z</time>
      </trkpt>
      <trkpt lat="43.58164" lon="3.35231">
        <ele>179.7</ele>
        <time>2024-07-25T07:42:57Z</time>
      </trkpt>
      <trkpt lat="43.58163" lon="3.35227">
        <ele>179.9</ele>
        <time>2024-07-25T07:42:58Z</time>
      </trkpt>
      <trkpt lat="43.58163" lon="3.35224">
        <ele>180.2</ele>
        <time>2024-07-25T07:42:59Z</time>
      </trkpt>
      <trkpt lat="43.58162" lon="3.35221">
        <ele>180.3</ele>
        <time>2024-07-25T07:43:00Z</time>
      </trkpt>
      <trkpt lat="43.58162" lon="3.35218">
        <ele>180.6</ele>
        <time>2024-07-25T07:43:01Z</time>
      </trkpt>
      <trkpt lat="43.58161" lon="3.35215">
        <ele>180.7</ele>
        <time>2024-07-25T07:43:02Z</time>
      </trkpt>
      <trkpt lat="43.5816" lon="3.35211">
        <ele>180.8</ele>
        <time>2024-07-25T07:43:03Z</time>
      </trkpt>
      <trkpt lat="43.5816" lon="3.35208">
        <ele>181.1</ele>
        <time>2024-07-25T07:43:04Z</time>
      </trkpt>
      <trkpt lat="43.5816" lon="3.35206">
        <ele>181.3</ele>
        <time>2024-07-25T07:43:05Z</time>
      </trkpt>
      <trkpt lat="43.58159" lon="3.35203">
        <ele>181.3</ele>
        <time>2024-07-25T07:43:06Z</time>
      </trkpt>
      <trkpt lat="43.58159" lon="3.352">
        <ele>181.6</ele>
        <time>2024-07-25T07:43:07Z</time>
      </trkpt>
      <trkpt lat="43.58158" lon="3.35197">
        <ele>181.6</ele>
        <time>2024-07-25T07:43:08Z</time>
      </trkpt>
      <trkpt lat="43.58158" lon="3.35194">
        <ele>181.9</ele>
        <time>2024-07-25T07:43:09Z</time>
      </trkpt>
      <trkpt lat="43.58157" lon="3.35191">
        <ele>181.9</ele>
        <time>2024-07-25T07:43:10Z</time>
      </trkpt>
      <trkpt lat="43.58157" lon="3.35188">
        <ele>182.3</ele>
        <time>2024-07-25T07:43:11Z</time>
      </trkpt>
      <trkpt lat="43.58156" lon="3.35184">
        <ele>182.4</ele>
        <time>2024-07-25T07:43:12Z</time>
      </trkpt>
      <trkpt lat="43.58155" lon="3.35181">
        <ele>182.5</ele>
        <time>2024-07-25T07:43:13Z</time>
      </trkpt>
      <trkpt lat="43.58155" lon="3.35178">
        <ele>182.8</ele>
        <time>2024-07-25T07:43:14Z</time>
      </trkpt>
      <trkpt lat="43.58155" lon="3.35175">
        <ele>183.2</ele>
        <time>2024-07-25T07:43:15Z</time>
      </trkpt>
      <trkpt lat="43.58154" lon="3.35172">
        <ele>183.2</ele>
        <time>2024-07-25T07:43:16Z</time>
      </trkpt>
      <trkpt lat="43.58154" lon="3.35169">
        <ele>183.6</ele>
        <time>2024-07-25T07:43:17Z</time>
      </trkpt>
      <trkpt lat="43.58153" lon="3.35165">
        <ele>183.7</ele>
        <time>2024-07-25T07:43:18Z</time>
      </trkpt>
      <trkpt lat="43.58153" lon="3.35162">
        <ele>184</ele>
        <time>2024-07-25T07:43:19Z</time>
      </trkpt>
      <trkpt lat="43.58153" lon="3.35159">
        <ele>184.2</ele>
        <time>2024-07-25T07:43:20Z</time>
      </trkpt>
      <trkpt lat="43.58152" lon="3.35155">
        <ele>184.4</ele>
        <time>2024-07-25T07:43:21Z</time>
      </trkpt>
      <trkpt lat="43.58152" lon="3.35152">
        <ele>184.6</ele>
        <time>2024-07-25T07:43:22Z</time>
      </trkpt>
      <trkpt lat="43.58151" lon="3.35149">
        <ele>184.7</ele>
        <time>2024-07-25T07:43:23Z</time>
      </trkpt>
      <trkpt lat="43.58151" lon="3.35146">
        <ele>185</ele>
        <time>2024-07-25T07:43:24Z</time>
      </trkpt>
      <trkpt lat="43.58151" lon="3.35143">
        <ele>185.2</ele>
        <time>2024-07-25T07:43:25Z</time>
      </trkpt>
      <trkpt lat="43.5815" lon="3.3514">
        <ele>185.3</ele>
        <time>2024-07-25T07:43:26Z</time>
      </trkpt>
      <trkpt lat="43.5815" lon="3.35137">
        <ele>185.5</ele>
        <time>2024-07-25T07:43:27Z</time>
      </trkpt>
      <trkpt lat="43.58149" lon="3.35134">
        <ele>185.5</ele>
        <time>2024-07-25T07:43:28Z</time>
      </trkpt>
      <trkpt lat="43.58149" lon="3.3513">
        <ele>185.7</ele>
        <time>2024-07-25T07:43:29Z</time>
      </trkpt>
      <trkpt lat="43.58148" lon="3.35127">
        <ele>185.7</ele>
        <time>2024-07-25T07:43:30Z</time>
      </trkpt>
      <trkpt lat="43.58148" lon="3.35124">
        <ele>185.9</ele>
        <time>2024-07-25T07:43:31Z</time>
      </trkpt>
      <trkpt lat="43.58148" lon="3.35121">
        <ele>186</ele>
        <time>2024-07-25T07:43:32Z</time>
      </trkpt>
      <trkpt lat="43.58148" lon="3.35118">
        <ele>186.2</ele>
        <time>2024-07-25T07:43:33Z</time>
      </trkpt>
      <trkpt lat="43.58147" lon="3.35115">
        <ele>186.1</ele>
        <time>2024-07-25T07:43:34Z</time>
      </trkpt>
      <trkpt lat="43.58147" lon="3.35112">
        <ele>186.3</ele>
        <time>2024-07-25T07:43:35Z</time>
      </trkpt>
      <trkpt lat="43.58147" lon="3.35108">
        <ele>186.7</ele>
        <time>2024-07-25T07:43:36Z</time>
      </trkpt>
      <trkpt lat="43.58146" lon="3.35105">
        <ele>186.7</ele>
        <time>2024-07-25T07:43:37Z</time>
      </trkpt>
      <trkpt lat="43.58146" lon="3.35102">
        <ele>187</ele>
        <time>2024-07-25T07:43:38Z</time>
      </trkpt>
      <trkpt lat="43.58145" lon="3.35099">
        <ele>187.1</ele>
        <time>2024-07-25T07:43:39Z</time>
      </trkpt>
      <trkpt lat="43.58145" lon="3.35096">
        <ele>187.4</ele>
        <time>2024-07-25T07:43:40Z</time>
      </trkpt>
      <trkpt lat="43.58144" lon="3.35093">
        <ele>187.4</ele>
        <time>2024-07-25T07:43:41Z</time>
      </trkpt>
      <trkpt lat="43.58144" lon="3.3509">
        <ele>187.8</ele>
        <time>2024-07-25T07:43:42Z</time>
      </trkpt>
      <trkpt lat="43.58143" lon="3.35087">
        <ele>187.8</ele>
        <time>2024-07-25T07:43:43Z</time>
      </trkpt>
      <trkpt lat="43.58143" lon="3.35084">
        <ele>188.1</ele>
        <time>2024-07-25T07:43:44Z</time>
      </trkpt>
      <trkpt lat="43.58143" lon="3.35081">
        <ele>188.5</ele>
        <time>2024-07-25T07:43:45Z</time>
      </trkpt>
      <trkpt lat="43.58142" lon="3.35078">
        <ele>188.5</ele>
        <time>2024-07-25T07:43:46Z</time>
      </trkpt>
      <trkpt lat="43.58142" lon="3.35074">
        <ele>189</ele>
        <time>2024-07-25T07:43:47Z</time>
      </trkpt>
      <trkpt lat="43.58141" lon="3.35072">
        <ele>188.9</ele>
        <time>2024-07-25T07:43:48Z</time>
      </trkpt>
      <trkpt lat="43.58141" lon="3.35069">
        <ele>189.2</ele>
        <time>2024-07-25T07:43:49Z</time>
      </trkpt>
      <trkpt lat="43.58141" lon="3.35066">
        <ele>189.6</ele>
        <time>2024-07-25T07:43:50Z</time>
      </trkpt>
      <trkpt lat="43.5814" lon="3.35063">
        <ele>189.6</ele>
        <time>2024-07-25T07:43:51Z</time>
      </trkpt>
      <trkpt lat="43.5814" lon="3.35061">
        <ele>189.8</ele>
        <time>2024-07-25T07:43:52Z</time>
      </trkpt>
      <trkpt lat="43.58139" lon="3.35058">
        <ele>189.8</ele>
        <time>2024-07-25T07:43:53Z</time>
      </trkpt>
      <trkpt lat="43.58139" lon="3.35055">
        <ele>190.1</ele>
        <time>2024-07-25T07:43:54Z</time>
      </trkpt>
      <trkpt lat="43.58139" lon="3.35051">
        <ele>190.5</ele>
        <time>2024-07-25T07:43:55Z</time>
      </trkpt>
      <trkpt lat="43.58139" lon="3.35048">
        <ele>190.9</ele>
        <time>2024-07-25T07:43:56Z</time>
      </trkpt>
      <trkpt lat="43.58138" lon="3.35046">
        <ele>191.2</ele>
        <time>2024-07-25T07:43:57Z</time>
      </trkpt>
      <trkpt lat="43.58138" lon="3.35043">
        <ele>191.5</ele>
        <time>2024-07-25T07:43:58Z</time>
      </trkpt>
      <trkpt lat="43.58138" lon="3.3504">
        <ele>191.8</ele>
        <time>2024-07-25T07:43:59Z</time>
      </trkpt>
      <trkpt lat="43.58138" lon="3.35037">
        <ele>192.1</ele>
        <time>2024-07-25T07:44:00Z</time>
      </trkpt>
      <trkpt lat="43.58137" lon="3.35035">
        <ele>192.5</ele>
        <time>2024-07-25T07:44:01Z</time>
      </trkpt>
      <trkpt lat="43.58137" lon="3.35032">
        <ele>192.8</ele>
        <time>2024-07-25T07:44:02Z</time>
      </trkpt>
      <trkpt lat="43.58137" lon="3.35029">
        <ele>193.1</ele>
        <time>2024-07-25T07:44:03Z</time>
      </trkpt>
      <trkpt lat="43.58137" lon="3.35026">
        <ele>193.4</ele>
        <time>2024-07-25T07:44:04Z</time>
      </trkpt>
      <trkpt lat="43.58137" lon="3.35023">
        <ele>193.7</ele>
        <time>2024-07-25T07:44:05Z</time>
      </trkpt>
      <trkpt lat="43.58137" lon="3.35021">
        <ele>193.9</ele>
        <time>2024-07-25T07:44:06Z</time>
      </trkpt>
      <trkpt lat="43.58137" lon="3.35019">
        <ele>194.1</ele>
        <time>2024-07-25T07:44:07Z</time>
      </trkpt>
      <trkpt lat="43.58137" lon="3.35017">
        <ele>194.3</ele>
        <time>2024-07-25T07:44:08Z</time>
      </trkpt>
      <trkpt lat="43.58137" lon="3.35014">
        <ele>194.6</ele>
        <time>2024-07-25T07:44:09Z</time>
      </trkpt>
      <trkpt lat="43.58137" lon="3.35011">
        <ele>194.9</ele>
        <time>2024-07-25T07:44:10Z</time>
      </trkpt>
      <trkpt lat="43.58137" lon="3.35009">
        <ele>195.1</ele>
        <time>2024-07-25T07:44:11Z</time>
      </trkpt>
      <trkpt lat="43.58137" lon="3.35006">
        <ele>195.4</ele>
        <time>2024-07-25T07:44:12Z</time>
      </trkpt>
      <trkpt lat="43.58137" lon="3.35004">
        <ele>195.7</ele>
        <time>2024-07-25T07:44:13Z</time>
      </trkpt>
      <trkpt lat="43.58137" lon="3.35">
        <ele>196.1</ele>
        <time>2024-07-25T07:44:14Z</time>
      </trkpt>
      <trkpt lat="43.58136" lon="3.34998">
        <ele>196.2</ele>
        <time>2024-07-25T07:44:15Z</time>
      </trkpt>
      <trkpt lat="43.58136" lon="3.34995">
        <ele>196.4</ele>
        <time>2024-07-25T07:44:16Z</time>
      </trkpt>
      <trkpt lat="43.58136" lon="3.34992">
        <ele>196.6</ele>
        <time>2024-07-25T07:44:17Z</time>
      </trkpt>
      <trkpt lat="43.58136" lon="3.34989">
        <ele>196.8</ele>
        <time>2024-07-25T07:44:18Z</time>
      </trkpt>
      <trkpt lat="43.58136" lon="3.34987">
        <ele>196.9</ele>
        <time>2024-07-25T07:44:19Z</time>
      </trkpt>
      <trkpt lat="43.58136" lon="3.34984">
        <ele>197.1</ele>
        <time>2024-07-25T07:44:20Z</time>
      </trkpt>
      <trkpt lat="43.58136" lon="3.34982">
        <ele>197.2</ele>
        <time>2024-07-25T07:44:21Z</time>
      </trkpt>
      <trkpt lat="43.58136" lon="3.34979">
        <ele>197.4</ele>
        <time>2024-07-25T07:44:22Z</time>
      </trkpt>
      <trkpt lat="43.58136" lon="3.34976">
        <ele>197.6</ele>
        <time>2024-07-25T07:44:23Z</time>
      </trkpt>
      <trkpt lat="43.58136" lon="3.34973">
        <ele>197.7</ele>
        <time>2024-07-25T07:44:24Z</time>
      </trkpt>
      <trkpt lat="43.58136" lon="3.3497">
        <ele>197.9</ele>
        <time>2024-07-25T07:44:25Z</time>
      </trkpt>
      <trkpt lat="43.58136" lon="3.34968">
        <ele>198</ele>
        <time>2024-07-25T07:44:26Z</time>
      </trkpt>
      <trkpt lat="43.58135" lon="3.34965">
        <ele>198.1</ele>
        <time>2024-07-25T07:44:27Z</time>
      </trkpt>
      <trkpt lat="43.58136" lon="3.34962">
        <ele>198.3</ele>
        <time>2024-07-25T07:44:28Z</time>
      </trkpt>
      <trkpt lat="43.58136" lon="3.34959">
        <ele>198.5</ele>
        <time>2024-07-25T07:44:29Z</time>
      </trkpt>
      <trkpt lat="43.58136" lon="3.34957">
        <ele>198.6</ele>
        <time>2024-07-25T07:44:30Z</time>
      </trkpt>
      <trkpt lat="43.58136" lon="3.34954">
        <ele>198.7</ele>
        <time>2024-07-25T07:44:31Z</time>
      </trkpt>
      <trkpt lat="43.58136" lon="3.34951">
        <ele>198.9</ele>
        <time>2024-07-25T07:44:32Z</time>
      </trkpt>
      <trkpt lat="43.58136" lon="3.34949">
        <ele>199</ele>
        <time>2024-07-25T07:44:33Z</time>
      </trkpt>
      <trkpt lat="43.58136" lon="3.34946">
        <ele>199.1</ele>
        <time>2024-07-25T07:44:34Z</time>
      </trkpt>
      <trkpt lat="43.58136" lon="3.34943">
        <ele>199.4</ele>
        <time>2024-07-25T07:44:35Z</time>
      </trkpt>
      <trkpt lat="43.58136" lon="3.3494">
        <ele>199.7</ele>
        <time>2024-07-25T07:44:36Z</time>
      </trkpt>
      <trkpt lat="43.58136" lon="3.34938">
        <ele>199.9</ele>
        <time>2024-07-25T07:44:37Z</time>
      </trkpt>
      <trkpt lat="43.58137" lon="3.34934">
        <ele>200.3</ele>
        <time>2024-07-25T07:44:38Z</time>
      </trkpt>
      <trkpt lat="43.58137" lon="3.34931">
        <ele>200.6</ele>
        <time>2024-07-25T07:44:39Z</time>
      </trkpt>
      <trkpt lat="43.58136" lon="3.34929">
        <ele>200.9</ele>
        <time>2024-07-25T07:44:40Z</time>
      </trkpt>
      <trkpt lat="43.58136" lon="3.34926">
        <ele>201.2</ele>
        <time>2024-07-25T07:44:41Z</time>
      </trkpt>
      <trkpt lat="43.58136" lon="3.34923">
        <ele>201.5</ele>
        <time>2024-07-25T07:44:42Z</time>
      </trkpt>
      <trkpt lat="43.58136" lon="3.34921">
        <ele>201.7</ele>
        <time>2024-07-25T07:44:43Z</time>
      </trkpt>
      <trkpt lat="43.58135" lon="3.34918">
        <ele>202.1</ele>
        <time>2024-07-25T07:44:44Z</time>
      </trkpt>
      <trkpt lat="43.58135" lon="3.34916">
        <ele>202.4</ele>
        <time>2024-07-25T07:44:45Z</time>
      </trkpt>
      <trkpt lat="43.58135" lon="3.34913">
        <ele>202.8</ele>
        <time>2024-07-25T07:44:46Z</time>
      </trkpt>
      <trkpt lat="43.58134" lon="3.34909">
        <ele>203.4</ele>
        <time>2024-07-25T07:44:47Z</time>
      </trkpt>
      <trkpt lat="43.58134" lon="3.34907">
        <ele>203.7</ele>
        <time>2024-07-25T07:44:48Z</time>
      </trkpt>
      <trkpt lat="43.58134" lon="3.34905">
        <ele>204</ele>
        <time>2024-07-25T07:44:49Z</time>
      </trkpt>
      <trkpt lat="43.58133" lon="3.34902">
        <ele>204.4</ele>
        <time>2024-07-25T07:44:50Z</time>
      </trkpt>
      <trkpt lat="43.58133" lon="3.34899">
        <ele>204.8</ele>
        <time>2024-07-25T07:44:51Z</time>
      </trkpt>
      <trkpt lat="43.58133" lon="3.34897">
        <ele>205.1</ele>
        <time>2024-07-25T07:44:52Z</time>
      </trkpt>
      <trkpt lat="43.58132" lon="3.34894">
        <ele>205.4</ele>
        <time>2024-07-25T07:44:53Z</time>
      </trkpt>
      <trkpt lat="43.58132" lon="3.3489">
        <ele>205.9</ele>
        <time>2024-07-25T07:44:54Z</time>
      </trkpt>
      <trkpt lat="43.58131" lon="3.34888">
        <ele>205.9</ele>
        <time>2024-07-25T07:44:55Z</time>
      </trkpt>
      <trkpt lat="43.58131" lon="3.34885">
        <ele>206.2</ele>
        <time>2024-07-25T07:44:56Z</time>
      </trkpt>
      <trkpt lat="43.5813" lon="3.34883">
        <ele>206.2</ele>
        <time>2024-07-25T07:44:57Z</time>
      </trkpt>
      <trkpt lat="43.5813" lon="3.3488">
        <ele>206.4</ele>
        <time>2024-07-25T07:44:58Z</time>
      </trkpt>
      <trkpt lat="43.5813" lon="3.34877">
        <ele>206.6</ele>
        <time>2024-07-25T07:44:59Z</time>
      </trkpt>
      <trkpt lat="43.5813" lon="3.34874">
        <ele>206.8</ele>
        <time>2024-07-25T07:45:00Z</time>
      </trkpt>
      <trkpt lat="43.58129" lon="3.34871">
        <ele>206.8</ele>
        <time>2024-07-25T07:45:01Z</time>
      </trkpt>
      <trkpt lat="43.58129" lon="3.34868">
        <ele>207</ele>
        <time>2024-07-25T07:45:02Z</time>
      </trkpt>
      <trkpt lat="43.58128" lon="3.34866">
        <ele>206.9</ele>
        <time>2024-07-25T07:45:03Z</time>
      </trkpt>
      <trkpt lat="43.58128" lon="3.34863">
        <ele>207.1</ele>
        <time>2024-07-25T07:45:04Z</time>
      </trkpt>
      <trkpt lat="43.58128" lon="3.34861">
        <ele>207.3</ele>
        <time>2024-07-25T07:45:05Z</time>
      </trkpt>
      <trkpt lat="43.58127" lon="3.34857">
        <ele>207</ele>
        <time>2024-07-25T07:45:06Z</time>
      </trkpt>
      <trkpt lat="43.58127" lon="3.34854">
        <ele>207.1</ele>
        <time>2024-07-25T07:45:07Z</time>
      </trkpt>
      <trkpt lat="43.58127" lon="3.34851">
        <ele>207.1</ele>
        <time>2024-07-25T07:45:08Z</time>
      </trkpt>
      <trkpt lat="43.58127" lon="3.34848">
        <ele>207.1</ele>
        <time>2024-07-25T07:45:09Z</time>
      </trkpt>
      <trkpt lat="43.58127" lon="3.34845">
        <ele>207.2</ele>
        <time>2024-07-25T07:45:10Z</time>
      </trkpt>
      <trkpt lat="43.58126" lon="3.34843">
        <ele>207</ele>
        <time>2024-07-25T07:45:11Z</time>
      </trkpt>
      <trkpt lat="43.58126" lon="3.3484">
        <ele>207</ele>
        <time>2024-07-25T07:45:12Z</time>
      </trkpt>
      <trkpt lat="43.58126" lon="3.34837">
        <ele>207.1</ele>
        <time>2024-07-25T07:45:13Z</time>
      </trkpt>
      <trkpt lat="43.58125" lon="3.34835">
        <ele>207</ele>
        <time>2024-07-25T07:45:14Z</time>
      </trkpt>
      <trkpt lat="43.58125" lon="3.34832">
        <ele>207.2</ele>
        <time>2024-07-25T07:45:15Z</time>
      </trkpt>
      <trkpt lat="43.58124" lon="3.3483">
        <ele>207.4</ele>
        <time>2024-07-25T07:45:16Z</time>
      </trkpt>
      <trkpt lat="43.58123" lon="3.34827">
        <ele>207.8</ele>
        <time>2024-07-25T07:45:17Z</time>
      </trkpt>
      <trkpt lat="43.58122" lon="3.34824">
        <ele>208.1</ele>
        <time>2024-07-25T07:45:18Z</time>
      </trkpt>
      <trkpt lat="43.58121" lon="3.34822">
        <ele>208.2</ele>
        <time>2024-07-25T07:45:19Z</time>
      </trkpt>
      <trkpt lat="43.58121" lon="3.34819">
        <ele>208.7</ele>
        <time>2024-07-25T07:45:20Z</time>
      </trkpt>
      <trkpt lat="43.5812" lon="3.34816">
        <ele>209</ele>
        <time>2024-07-25T07:45:21Z</time>
      </trkpt>
      <trkpt lat="43.5812" lon="3.34813">
        <ele>209.4</ele>
        <time>2024-07-25T07:45:22Z</time>
      </trkpt>
      <trkpt lat="43.58119" lon="3.3481">
        <ele>209.6</ele>
        <time>2024-07-25T07:45:23Z</time>
      </trkpt>
      <trkpt lat="43.58118" lon="3.34807">
        <ele>209.8</ele>
        <time>2024-07-25T07:45:24Z</time>
      </trkpt>
      <trkpt lat="43.58117" lon="3.34805">
        <ele>209.8</ele>
        <time>2024-07-25T07:45:25Z</time>
      </trkpt>
      <trkpt lat="43.58116" lon="3.34803">
        <ele>210</ele>
        <time>2024-07-25T07:45:26Z</time>
      </trkpt>
      <trkpt lat="43.58114" lon="3.34801">
        <ele>209.9</ele>
        <time>2024-07-25T07:45:27Z</time>
      </trkpt>
      <trkpt lat="43.58113" lon="3.34799">
        <ele>210.2</ele>
        <time>2024-07-25T07:45:28Z</time>
      </trkpt>
      <trkpt lat="43.58112" lon="3.34796">
        <ele>210.6</ele>
        <time>2024-07-25T07:45:29Z</time>
      </trkpt>
      <trkpt lat="43.58111" lon="3.34794">
        <ele>210.9</ele>
        <time>2024-07-25T07:45:30Z</time>
      </trkpt>
      <trkpt lat="43.5811" lon="3.34792">
        <ele>211.4</ele>
        <time>2024-07-25T07:45:31Z</time>
      </trkpt>
      <trkpt lat="43.58108" lon="3.3479">
        <ele>211.9</ele>
        <time>2024-07-25T07:45:32Z</time>
      </trkpt>
      <trkpt lat="43.58107" lon="3.34788">
        <ele>212.4</ele>
        <time>2024-07-25T07:45:33Z</time>
      </trkpt>
      <trkpt lat="43.58105" lon="3.34786">
        <ele>212.7</ele>
        <time>2024-07-25T07:45:34Z</time>
      </trkpt>
      <trkpt lat="43.58104" lon="3.34784">
        <ele>213.1</ele>
        <time>2024-07-25T07:45:35Z</time>
      </trkpt>
      <trkpt lat="43.58103" lon="3.34782">
        <ele>213.4</ele>
        <time>2024-07-25T07:45:36Z</time>
      </trkpt>
      <trkpt lat="43.58102" lon="3.3478">
        <ele>213.6</ele>
        <time>2024-07-25T07:45:37Z</time>
      </trkpt>
      <trkpt lat="43.58101" lon="3.34778">
        <ele>213.9</ele>
        <time>2024-07-25T07:45:38Z</time>
      </trkpt>
      <trkpt lat="43.581" lon="3.34777">
        <ele>214</ele>
        <time>2024-07-25T07:45:39Z</time>
      </trkpt>
      <trkpt lat="43.58099" lon="3.34775">
        <ele>214.2</ele>
        <time>2024-07-25T07:45:40Z</time>
      </trkpt>
      <trkpt lat="43.58098" lon="3.34773">
        <ele>214.5</ele>
        <time>2024-07-25T07:45:41Z</time>
      </trkpt>
      <trkpt lat="43.58097" lon="3.34771">
        <ele>214.7</ele>
        <time>2024-07-25T07:45:42Z</time>
      </trkpt>
      <trkpt lat="43.58096" lon="3.34769">
        <ele>214.9</ele>
        <time>2024-07-25T07:45:43Z</time>
      </trkpt>
      <trkpt lat="43.58094" lon="3.34766">
        <ele>215.1</ele>
        <time>2024-07-25T07:45:44Z</time>
      </trkpt>
      <trkpt lat="43.58092" lon="3.34764">
        <ele>215</ele>
        <time>2024-07-25T07:45:45Z</time>
      </trkpt>
      <trkpt lat="43.5809" lon="3.34762">
        <ele>215</ele>
        <time>2024-07-25T07:45:46Z</time>
      </trkpt>
      <trkpt lat="43.58089" lon="3.3476">
        <ele>215.1</ele>
        <time>2024-07-25T07:45:47Z</time>
      </trkpt>
      <trkpt lat="43.58086" lon="3.34759">
        <ele>214.6</ele>
        <time>2024-07-25T07:45:48Z</time>
      </trkpt>
      <trkpt lat="43.58084" lon="3.34759">
        <ele>214.2</ele>
        <time>2024-07-25T07:45:49Z</time>
      </trkpt>
      <trkpt lat="43.58081" lon="3.34759">
        <ele>214.5</ele>
        <time>2024-07-25T07:45:50Z</time>
      </trkpt>
      <trkpt lat="43.58079" lon="3.34759">
        <ele>214.9</ele>
        <time>2024-07-25T07:45:51Z</time>
      </trkpt>
      <trkpt lat="43.58077" lon="3.34761">
        <ele>215.2</ele>
        <time>2024-07-25T07:45:52Z</time>
      </trkpt>
      <trkpt lat="43.58075" lon="3.34764">
        <ele>215.6</ele>
        <time>2024-07-25T07:45:53Z</time>
      </trkpt>
      <trkpt lat="43.58074" lon="3.34766">
        <ele>215.8</ele>
        <time>2024-07-25T07:45:54Z</time>
      </trkpt>
      <trkpt lat="43.58074" lon="3.3477">
        <ele>215.8</ele>
        <time>2024-07-25T07:45:55Z</time>
      </trkpt>
      <trkpt lat="43.58074" lon="3.34773">
        <ele>215.7</ele>
        <time>2024-07-25T07:45:56Z</time>
      </trkpt>
      <trkpt lat="43.58075" lon="3.34776">
        <ele>215.3</ele>
        <time>2024-07-25T07:45:57Z</time>
      </trkpt>
      <trkpt lat="43.58076" lon="3.34779">
        <ele>214.9</ele>
        <time>2024-07-25T07:45:58Z</time>
      </trkpt>
      <trkpt lat="43.58077" lon="3.34782">
        <ele>214.6</ele>
        <time>2024-07-25T07:45:59Z</time>
      </trkpt>
      <trkpt lat="43.58078" lon="3.34785">
        <ele>214.2</ele>
        <time>2024-07-25T07:46:00Z</time>
      </trkpt>
      <trkpt lat="43.58079" lon="3.34788">
        <ele>213.8</ele>
        <time>2024-07-25T07:46:01Z</time>
      </trkpt>
      <trkpt lat="43.5808" lon="3.34792">
        <ele>213.4</ele>
        <time>2024-07-25T07:46:02Z</time>
      </trkpt>
      <trkpt lat="43.58081" lon="3.34796">
        <ele>213</ele>
        <time>2024-07-25T07:46:03Z</time>
      </trkpt>
      <trkpt lat="43.58082" lon="3.34799">
        <ele>212.6</ele>
        <time>2024-07-25T07:46:04Z</time>
      </trkpt>
      <trkpt lat="43.58082" lon="3.34803">
        <ele>212.6</ele>
        <time>2024-07-25T07:46:05Z</time>
      </trkpt>
      <trkpt lat="43.58083" lon="3.34806">
        <ele>212.2</ele>
        <time>2024-07-25T07:46:06Z</time>
      </trkpt>
      <trkpt lat="43.58083" lon="3.34809">
        <ele>212.4</ele>
        <time>2024-07-25T07:46:07Z</time>
      </trkpt>
      <trkpt lat="43.58084" lon="3.34813">
        <ele>212.4</ele>
        <time>2024-07-25T07:46:08Z</time>
      </trkpt>
      <trkpt lat="43.58084" lon="3.34816">
        <ele>212.6</ele>
        <time>2024-07-25T07:46:09Z</time>
      </trkpt>
      <trkpt lat="43.58084" lon="3.34819">
        <ele>212.8</ele>
        <time>2024-07-25T07:46:10Z</time>
      </trkpt>
      <trkpt lat="43.58084" lon="3.34823">
        <ele>213.1</ele>
        <time>2024-07-25T07:46:11Z</time>
      </trkpt>
      <trkpt lat="43.58084" lon="3.34827">
        <ele>213.4</ele>
        <time>2024-07-25T07:46:12Z</time>
      </trkpt>
      <trkpt lat="43.58085" lon="3.34831">
        <ele>213.3</ele>
        <time>2024-07-25T07:46:13Z</time>
      </trkpt>
      <trkpt lat="43.58085" lon="3.34835">
        <ele>213.5</ele>
        <time>2024-07-25T07:46:14Z</time>
      </trkpt>
      <trkpt lat="43.58085" lon="3.34838">
        <ele>213.6</ele>
        <time>2024-07-25T07:46:15Z</time>
      </trkpt>
      <trkpt lat="43.58085" lon="3.34842">
        <ele>213.7</ele>
        <time>2024-07-25T07:46:16Z</time>
      </trkpt>
      <trkpt lat="43.58085" lon="3.34846">
        <ele>213.8</ele>
        <time>2024-07-25T07:46:17Z</time>
      </trkpt>
      <trkpt lat="43.58085" lon="3.3485">
        <ele>214</ele>
        <time>2024-07-25T07:46:18Z</time>
      </trkpt>
      <trkpt lat="43.58086" lon="3.34854">
        <ele>213.7</ele>
        <time>2024-07-25T07:46:19Z</time>
      </trkpt>
      <trkpt lat="43.58086" lon="3.34858">
        <ele>213.8</ele>
        <time>2024-07-25T07:46:20Z</time>
      </trkpt>
      <trkpt lat="43.58085" lon="3.34861">
        <ele>214.3</ele>
        <time>2024-07-25T07:46:21Z</time>
      </trkpt>
      <trkpt lat="43.58085" lon="3.34864">
        <ele>214.4</ele>
        <time>2024-07-25T07:46:22Z</time>
      </trkpt>
      <trkpt lat="43.58085" lon="3.34868">
        <ele>214.5</ele>
        <time>2024-07-25T07:46:23Z</time>
      </trkpt>
      <trkpt lat="43.58085" lon="3.34872">
        <ele>214.6</ele>
        <time>2024-07-25T07:46:24Z</time>
      </trkpt>
      <trkpt lat="43.58085" lon="3.34876">
        <ele>214.8</ele>
        <time>2024-07-25T07:46:25Z</time>
      </trkpt>
      <trkpt lat="43.58085" lon="3.34879">
        <ele>214.9</ele>
        <time>2024-07-25T07:46:26Z</time>
      </trkpt>
      <trkpt lat="43.58084" lon="3.34883">
        <ele>215.5</ele>
        <time>2024-07-25T07:46:27Z</time>
      </trkpt>
      <trkpt lat="43.58084" lon="3.34887">
        <ele>215.6</ele>
        <time>2024-07-25T07:46:28Z</time>
      </trkpt>
      <trkpt lat="43.58084" lon="3.34891">
        <ele>215.6</ele>
        <time>2024-07-25T07:46:29Z</time>
      </trkpt>
      <trkpt lat="43.58084" lon="3.34894">
        <ele>215.5</ele>
        <time>2024-07-25T07:46:30Z</time>
      </trkpt>
      <trkpt lat="43.58084" lon="3.34897">
        <ele>215.4</ele>
        <time>2024-07-25T07:46:31Z</time>
      </trkpt>
      <trkpt lat="43.58084" lon="3.349">
        <ele>215.3</ele>
        <time>2024-07-25T07:46:32Z</time>
      </trkpt>
      <trkpt lat="43.58083" lon="3.34904">
        <ele>215.6</ele>
        <time>2024-07-25T07:46:33Z</time>
      </trkpt>
      <trkpt lat="43.58082" lon="3.34908">
        <ele>215.9</ele>
        <time>2024-07-25T07:46:34Z</time>
      </trkpt>
      <trkpt lat="43.58081" lon="3.34911">
        <ele>216.2</ele>
        <time>2024-07-25T07:46:35Z</time>
      </trkpt>
      <trkpt lat="43.5808" lon="3.34914">
        <ele>216.5</ele>
        <time>2024-07-25T07:46:36Z</time>
      </trkpt>
      <trkpt lat="43.58079" lon="3.34918">
        <ele>216.8</ele>
        <time>2024-07-25T07:46:37Z</time>
      </trkpt>
      <trkpt lat="43.58077" lon="3.34921">
        <ele>217.4</ele>
        <time>2024-07-25T07:46:38Z</time>
      </trkpt>
      <trkpt lat="43.58076" lon="3.34925">
        <ele>217.6</ele>
        <time>2024-07-25T07:46:39Z</time>
      </trkpt>
      <trkpt lat="43.58075" lon="3.34929">
        <ele>217.7</ele>
        <time>2024-07-25T07:46:40Z</time>
      </trkpt>
      <trkpt lat="43.58074" lon="3.34932">
        <ele>217.9</ele>
        <time>2024-07-25T07:46:41Z</time>
      </trkpt>
      <trkpt lat="43.58072" lon="3.34936">
        <ele>218.5</ele>
        <time>2024-07-25T07:46:42Z</time>
      </trkpt>
      <trkpt lat="43.58071" lon="3.34939">
        <ele>218.7</ele>
        <time>2024-07-25T07:46:43Z</time>
      </trkpt>
      <trkpt lat="43.5807" lon="3.34943">
        <ele>218.9</ele>
        <time>2024-07-25T07:46:44Z</time>
      </trkpt>
      <trkpt lat="43.58069" lon="3.34946">
        <ele>219.1</ele>
        <time>2024-07-25T07:46:45Z</time>
      </trkpt>
      <trkpt lat="43.58068" lon="3.3495">
        <ele>219.2</ele>
        <time>2024-07-25T07:46:46Z</time>
      </trkpt>
      <trkpt lat="43.58068" lon="3.34953">
        <ele>219</ele>
        <time>2024-07-25T07:46:47Z</time>
      </trkpt>
      <trkpt lat="43.58067" lon="3.34956">
        <ele>219.2</ele>
        <time>2024-07-25T07:46:48Z</time>
      </trkpt>
      <trkpt lat="43.58066" lon="3.34959">
        <ele>219.4</ele>
        <time>2024-07-25T07:46:49Z</time>
      </trkpt>
      <trkpt lat="43.58065" lon="3.34963">
        <ele>219.6</ele>
        <time>2024-07-25T07:46:50Z</time>
      </trkpt>
      <trkpt lat="43.58064" lon="3.34966">
        <ele>219.8</ele>
        <time>2024-07-25T07:46:51Z</time>
      </trkpt>
      <trkpt lat="43.58063" lon="3.34969">
        <ele>220</ele>
        <time>2024-07-25T07:46:52Z</time>
      </trkpt>
      <trkpt lat="43.58062" lon="3.34972">
        <ele>220.2</ele>
        <time>2024-07-25T07:46:53Z</time>
      </trkpt>
      <trkpt lat="43.58061" lon="3.34975">
        <ele>220.5</ele>
        <time>2024-07-25T07:46:54Z</time>
      </trkpt>
      <trkpt lat="43.5806" lon="3.34979">
        <ele>220.6</ele>
        <time>2024-07-25T07:46:55Z</time>
      </trkpt>
      <trkpt lat="43.58058" lon="3.34982">
        <ele>221.3</ele>
        <time>2024-07-25T07:46:56Z</time>
      </trkpt>
      <trkpt lat="43.58057" lon="3.34985">
        <ele>221.5</ele>
        <time>2024-07-25T07:46:57Z</time>
      </trkpt>
      <trkpt lat="43.58056" lon="3.34989">
        <ele>221.6</ele>
        <time>2024-07-25T07:46:58Z</time>
      </trkpt>
      <trkpt lat="43.58055" lon="3.34991">
        <ele>221.8</ele>
        <time>2024-07-25T07:46:59Z</time>
      </trkpt>
      <trkpt lat="43.58054" lon="3.34994">
        <ele>221.9</ele>
        <time>2024-07-25T07:47:00Z</time>
      </trkpt>
      <trkpt lat="43.58053" lon="3.34997">
        <ele>222</ele>
        <time>2024-07-25T07:47:01Z</time>
      </trkpt>
      <trkpt lat="43.58052" lon="3.35">
        <ele>222.2</ele>
        <time>2024-07-25T07:47:02Z</time>
      </trkpt>
      <trkpt lat="43.58051" lon="3.35004">
        <ele>222.3</ele>
        <time>2024-07-25T07:47:03Z</time>
      </trkpt>
      <trkpt lat="43.5805" lon="3.35007">
        <ele>222.5</ele>
        <time>2024-07-25T07:47:04Z</time>
      </trkpt>
      <trkpt lat="43.58049" lon="3.3501">
        <ele>222.7</ele>
        <time>2024-07-25T07:47:05Z</time>
      </trkpt>
      <trkpt lat="43.58048" lon="3.35013">
        <ele>222.9</ele>
        <time>2024-07-25T07:47:06Z</time>
      </trkpt>
      <trkpt lat="43.58047" lon="3.35016">
        <ele>223</ele>
        <time>2024-07-25T07:47:07Z</time>
      </trkpt>
      <trkpt lat="43.58046" lon="3.35019">
        <ele>223.2</ele>
        <time>2024-07-25T07:47:08Z</time>
      </trkpt>
      <trkpt lat="43.58045" lon="3.35022">
        <ele>223.3</ele>
        <time>2024-07-25T07:47:09Z</time>
      </trkpt>
      <trkpt lat="43.58043" lon="3.35025">
        <ele>223.8</ele>
        <time>2024-07-25T07:47:10Z</time>
      </trkpt>
      <trkpt lat="43.58042" lon="3.35029">
        <ele>223.8</ele>
        <time>2024-07-25T07:47:11Z</time>
      </trkpt>
      <trkpt lat="43.58041" lon="3.35032">
        <ele>223.8</ele>
        <time>2024-07-25T07:47:12Z</time>
      </trkpt>
      <trkpt lat="43.58039" lon="3.35035">
        <ele>224.1</ele>
        <time>2024-07-25T07:47:13Z</time>
      </trkpt>
      <trkpt lat="43.58038" lon="3.35038">
        <ele>224.2</ele>
        <time>2024-07-25T07:47:14Z</time>
      </trkpt>
      <trkpt lat="43.58037" lon="3.3504">
        <ele>224.3</ele>
        <time>2024-07-25T07:47:15Z</time>
      </trkpt>
      <trkpt lat="43.58036" lon="3.35043">
        <ele>224.4</ele>
        <time>2024-07-25T07:47:16Z</time>
      </trkpt>
      <trkpt lat="43.58035" lon="3.35046">
        <ele>224.4</ele>
        <time>2024-07-25T07:47:17Z</time>
      </trkpt>
      <trkpt lat="43.58033" lon="3.35048">
        <ele>224.9</ele>
        <time>2024-07-25T07:47:18Z</time>
      </trkpt>
      <trkpt lat="43.58031" lon="3.35051">
        <ele>225.3</ele>
        <time>2024-07-25T07:47:19Z</time>
      </trkpt>
      <trkpt lat="43.5803" lon="3.35054">
        <ele>225.4</ele>
        <time>2024-07-25T07:47:20Z</time>
      </trkpt>
      <trkpt lat="43.58028" lon="3.35056">
        <ele>225.9</ele>
        <time>2024-07-25T07:47:21Z</time>
      </trkpt>
      <trkpt lat="43.58026" lon="3.35057">
        <ele>226</ele>
        <time>2024-07-25T07:47:22Z</time>
      </trkpt>
      <trkpt lat="43.58024" lon="3.35059">
        <ele>225.9</ele>
        <time>2024-07-25T07:47:23Z</time>
      </trkpt>
      <trkpt lat="43.58022" lon="3.3506">
        <ele>225.9</ele>
        <time>2024-07-25T07:47:24Z</time>
      </trkpt>
      <trkpt lat="43.58019" lon="3.35061">
        <ele>225.9</ele>
        <time>2024-07-25T07:47:25Z</time>
      </trkpt>
      <trkpt lat="43.58018" lon="3.3506">
        <ele>226</ele>
        <time>2024-07-25T07:47:26Z</time>
      </trkpt>
      <trkpt lat="43.58016" lon="3.35058">
        <ele>226.2</ele>
        <time>2024-07-25T07:47:27Z</time>
      </trkpt>
      <trkpt lat="43.58015" lon="3.35055">
        <ele>226.5</ele>
        <time>2024-07-25T07:47:28Z</time>
      </trkpt>
      <trkpt lat="43.58014" lon="3.35052">
        <ele>226.7</ele>
        <time>2024-07-25T07:47:29Z</time>
      </trkpt>
      <trkpt lat="43.58014" lon="3.35049">
        <ele>226.9</ele>
        <time>2024-07-25T07:47:30Z</time>
      </trkpt>
      <trkpt lat="43.58014" lon="3.35047">
        <ele>227</ele>
        <time>2024-07-25T07:47:31Z</time>
      </trkpt>
      <trkpt lat="43.58014" lon="3.35045">
        <ele>227.1</ele>
        <time>2024-07-25T07:47:32Z</time>
      </trkpt>
      <trkpt lat="43.58014" lon="3.35042">
        <ele>227.2</ele>
        <time>2024-07-25T07:47:33Z</time>
      </trkpt>
      <trkpt lat="43.58014" lon="3.35039">
        <ele>227.4</ele>
        <time>2024-07-25T07:47:34Z</time>
      </trkpt>
      <trkpt lat="43.58014" lon="3.35036">
        <ele>227.6</ele>
        <time>2024-07-25T07:47:35Z</time>
      </trkpt>
      <trkpt lat="43.58014" lon="3.35033">
        <ele>227.7</ele>
        <time>2024-07-25T07:47:36Z</time>
      </trkpt>
      <trkpt lat="43.58014" lon="3.35029">
        <ele>227.9</ele>
        <time>2024-07-25T07:47:37Z</time>
      </trkpt>
      <trkpt lat="43.58014" lon="3.35026">
        <ele>228.1</ele>
        <time>2024-07-25T07:47:38Z</time>
      </trkpt>
      <trkpt lat="43.58014" lon="3.35023">
        <ele>228.3</ele>
        <time>2024-07-25T07:47:39Z</time>
      </trkpt>
      <trkpt lat="43.58014" lon="3.3502">
        <ele>228.6</ele>
        <time>2024-07-25T07:47:40Z</time>
      </trkpt>
      <trkpt lat="43.58014" lon="3.35016">
        <ele>228.8</ele>
        <time>2024-07-25T07:47:41Z</time>
      </trkpt>
      <trkpt lat="43.58014" lon="3.35013">
        <ele>229.1</ele>
        <time>2024-07-25T07:47:42Z</time>
      </trkpt>
      <trkpt lat="43.58013" lon="3.35011">
        <ele>229.2</ele>
        <time>2024-07-25T07:47:43Z</time>
      </trkpt>
      <trkpt lat="43.58013" lon="3.35007">
        <ele>229.5</ele>
        <time>2024-07-25T07:47:44Z</time>
      </trkpt>
      <trkpt lat="43.58013" lon="3.35004">
        <ele>229.7</ele>
        <time>2024-07-25T07:47:45Z</time>
      </trkpt>
      <trkpt lat="43.58013" lon="3.35001">
        <ele>229.9</ele>
        <time>2024-07-25T07:47:46Z</time>
      </trkpt>
      <trkpt lat="43.58013" lon="3.34998">
        <ele>230.1</ele>
        <time>2024-07-25T07:47:47Z</time>
      </trkpt>
      <trkpt lat="43.58012" lon="3.34994">
        <ele>230.4</ele>
        <time>2024-07-25T07:47:48Z</time>
      </trkpt>
      <trkpt lat="43.58012" lon="3.34991">
        <ele>230.6</ele>
        <time>2024-07-25T07:47:49Z</time>
      </trkpt>
      <trkpt lat="43.58012" lon="3.34988">
        <ele>230.9</ele>
        <time>2024-07-25T07:47:50Z</time>
      </trkpt>
      <trkpt lat="43.58011" lon="3.34985">
        <ele>231.1</ele>
        <time>2024-07-25T07:47:51Z</time>
      </trkpt>
      <trkpt lat="43.58011" lon="3.34982">
        <ele>231.3</ele>
        <time>2024-07-25T07:47:52Z</time>
      </trkpt>
      <trkpt lat="43.58011" lon="3.34979">
        <ele>231.5</ele>
        <time>2024-07-25T07:47:53Z</time>
      </trkpt>
      <trkpt lat="43.5801" lon="3.34975">
        <ele>231.8</ele>
        <time>2024-07-25T07:47:54Z</time>
      </trkpt>
      <trkpt lat="43.5801" lon="3.34972">
        <ele>232</ele>
        <time>2024-07-25T07:47:55Z</time>
      </trkpt>
      <trkpt lat="43.5801" lon="3.34969">
        <ele>232.3</ele>
        <time>2024-07-25T07:47:56Z</time>
      </trkpt>
      <trkpt lat="43.58009" lon="3.34966">
        <ele>232.6</ele>
        <time>2024-07-25T07:47:57Z</time>
      </trkpt>
      <trkpt lat="43.58008" lon="3.34963">
        <ele>232.9</ele>
        <time>2024-07-25T07:47:58Z</time>
      </trkpt>
      <trkpt lat="43.58007" lon="3.3496">
        <ele>233.2</ele>
        <time>2024-07-25T07:47:59Z</time>
      </trkpt>
      <trkpt lat="43.58006" lon="3.34957">
        <ele>233.5</ele>
        <time>2024-07-25T07:48:00Z</time>
      </trkpt>
      <trkpt lat="43.58005" lon="3.34954">
        <ele>233.8</ele>
        <time>2024-07-25T07:48:01Z</time>
      </trkpt>
      <trkpt lat="43.58004" lon="3.3495">
        <ele>234.3</ele>
        <time>2024-07-25T07:48:02Z</time>
      </trkpt>
      <trkpt lat="43.58003" lon="3.34947">
        <ele>234.6</ele>
        <time>2024-07-25T07:48:03Z</time>
      </trkpt>
      <trkpt lat="43.58002" lon="3.34944">
        <ele>235</ele>
        <time>2024-07-25T07:48:04Z</time>
      </trkpt>
      <trkpt lat="43.58001" lon="3.34941">
        <ele>235.3</ele>
        <time>2024-07-25T07:48:05Z</time>
      </trkpt>
      <trkpt lat="43.58" lon="3.34938">
        <ele>235.7</ele>
        <time>2024-07-25T07:48:06Z</time>
      </trkpt>
      <trkpt lat="43.57999" lon="3.34934">
        <ele>235.9</ele>
        <time>2024-07-25T07:48:07Z</time>
      </trkpt>
      <trkpt lat="43.57998" lon="3.34932">
        <ele>235.8</ele>
        <time>2024-07-25T07:48:08Z</time>
      </trkpt>
      <trkpt lat="43.57997" lon="3.34929">
        <ele>235.9</ele>
        <time>2024-07-25T07:48:09Z</time>
      </trkpt>
      <trkpt lat="43.57997" lon="3.34925">
        <ele>236.3</ele>
        <time>2024-07-25T07:48:10Z</time>
      </trkpt>
      <trkpt lat="43.57996" lon="3.34922">
        <ele>236.3</ele>
        <time>2024-07-25T07:48:11Z</time>
      </trkpt>
      <trkpt lat="43.57995" lon="3.34919">
        <ele>236.3</ele>
        <time>2024-07-25T07:48:12Z</time>
      </trkpt>
      <trkpt lat="43.57995" lon="3.34916">
        <ele>236.6</ele>
        <time>2024-07-25T07:48:13Z</time>
      </trkpt>
      <trkpt lat="43.57994" lon="3.34912">
        <ele>236.4</ele>
        <time>2024-07-25T07:48:14Z</time>
      </trkpt>
      <trkpt lat="43.57994" lon="3.34909">
        <ele>236.5</ele>
        <time>2024-07-25T07:48:15Z</time>
      </trkpt>
      <trkpt lat="43.57994" lon="3.34905">
        <ele>236.7</ele>
        <time>2024-07-25T07:48:16Z</time>
      </trkpt>
      <trkpt lat="43.57994" lon="3.34902">
        <ele>236.8</ele>
        <time>2024-07-25T07:48:17Z</time>
      </trkpt>
      <trkpt lat="43.57994" lon="3.34898">
        <ele>236.9</ele>
        <time>2024-07-25T07:48:18Z</time>
      </trkpt>
      <trkpt lat="43.57994" lon="3.34895">
        <ele>237.1</ele>
        <time>2024-07-25T07:48:19Z</time>
      </trkpt>
      <trkpt lat="43.57994" lon="3.34891">
        <ele>237.2</ele>
        <time>2024-07-25T07:48:20Z</time>
      </trkpt>
      <trkpt lat="43.57995" lon="3.34887">
        <ele>237.6</ele>
        <time>2024-07-25T07:48:21Z</time>
      </trkpt>
      <trkpt lat="43.57995" lon="3.34883">
        <ele>237.6</ele>
        <time>2024-07-25T07:48:22Z</time>
      </trkpt>
      <trkpt lat="43.57995" lon="3.3488">
        <ele>237.6</ele>
        <time>2024-07-25T07:48:23Z</time>
      </trkpt>
      <trkpt lat="43.57995" lon="3.34876">
        <ele>237.6</ele>
        <time>2024-07-25T07:48:24Z</time>
      </trkpt>
      <trkpt lat="43.57996" lon="3.34872">
        <ele>237.9</ele>
        <time>2024-07-25T07:48:25Z</time>
      </trkpt>
      <trkpt lat="43.57996" lon="3.34868">
        <ele>238</ele>
        <time>2024-07-25T07:48:26Z</time>
      </trkpt>
      <trkpt lat="43.57997" lon="3.34864">
        <ele>238.2</ele>
        <time>2024-07-25T07:48:27Z</time>
      </trkpt>
      <trkpt lat="43.57998" lon="3.3486">
        <ele>238.5</ele>
        <time>2024-07-25T07:48:28Z</time>
      </trkpt>
      <trkpt lat="43.57998" lon="3.34856">
        <ele>238.3</ele>
        <time>2024-07-25T07:48:29Z</time>
      </trkpt>
      <trkpt lat="43.57999" lon="3.34852">
        <ele>238.4</ele>
        <time>2024-07-25T07:48:30Z</time>
      </trkpt>
      <trkpt lat="43.58" lon="3.34848">
        <ele>238.5</ele>
        <time>2024-07-25T07:48:31Z</time>
      </trkpt>
      <trkpt lat="43.58001" lon="3.34843">
        <ele>238.3</ele>
        <time>2024-07-25T07:48:32Z</time>
      </trkpt>
      <trkpt lat="43.58002" lon="3.34838">
        <ele>238</ele>
        <time>2024-07-25T07:48:33Z</time>
      </trkpt>
      <trkpt lat="43.58002" lon="3.34833">
        <ele>237.9</ele>
        <time>2024-07-25T07:48:34Z</time>
      </trkpt>
      <trkpt lat="43.58003" lon="3.34829">
        <ele>237.9</ele>
        <time>2024-07-25T07:48:35Z</time>
      </trkpt>
      <trkpt lat="43.58003" lon="3.34824">
        <ele>238</ele>
        <time>2024-07-25T07:48:36Z</time>
      </trkpt>
      <trkpt lat="43.58003" lon="3.34821">
        <ele>238.1</ele>
        <time>2024-07-25T07:48:37Z</time>
      </trkpt>
      <trkpt lat="43.58004" lon="3.34817">
        <ele>238.1</ele>
        <time>2024-07-25T07:48:38Z</time>
      </trkpt>
      <trkpt lat="43.58004" lon="3.34813">
        <ele>238.2</ele>
        <time>2024-07-25T07:48:39Z</time>
      </trkpt>
      <trkpt lat="43.58003" lon="3.34808">
        <ele>238.5</ele>
        <time>2024-07-25T07:48:40Z</time>
      </trkpt>
      <trkpt lat="43.58003" lon="3.34804">
        <ele>238.6</ele>
        <time>2024-07-25T07:48:41Z</time>
      </trkpt>
      <trkpt lat="43.58002" lon="3.34799">
        <ele>238.9</ele>
        <time>2024-07-25T07:48:42Z</time>
      </trkpt>
      <trkpt lat="43.58001" lon="3.34795">
        <ele>239.2</ele>
        <time>2024-07-25T07:48:43Z</time>
      </trkpt>
      <trkpt lat="43.58001" lon="3.34791">
        <ele>239.3</ele>
        <time>2024-07-25T07:48:44Z</time>
      </trkpt>
      <trkpt lat="43.58" lon="3.34787">
        <ele>239.7</ele>
        <time>2024-07-25T07:48:45Z</time>
      </trkpt>
      <trkpt lat="43.58" lon="3.34782">
        <ele>239.8</ele>
        <time>2024-07-25T07:48:46Z</time>
      </trkpt>
      <trkpt lat="43.58" lon="3.34778">
        <ele>240</ele>
        <time>2024-07-25T07:48:47Z</time>
      </trkpt>
      <trkpt lat="43.57999" lon="3.34775">
        <ele>240.1</ele>
        <time>2024-07-25T07:48:48Z</time>
      </trkpt>
      <trkpt lat="43.57999" lon="3.34771">
        <ele>240.3</ele>
        <time>2024-07-25T07:48:49Z</time>
      </trkpt>
      <trkpt lat="43.58" lon="3.34767">
        <ele>240.4</ele>
        <time>2024-07-25T07:48:50Z</time>
      </trkpt>
      <trkpt lat="43.58" lon="3.34764">
        <ele>240.5</ele>
        <time>2024-07-25T07:48:51Z</time>
      </trkpt>
      <trkpt lat="43.58" lon="3.3476">
        <ele>240.6</ele>
        <time>2024-07-25T07:48:52Z</time>
      </trkpt>
      <trkpt lat="43.58" lon="3.34757">
        <ele>240.7</ele>
        <time>2024-07-25T07:48:53Z</time>
      </trkpt>
      <trkpt lat="43.58001" lon="3.34753">
        <ele>240.6</ele>
        <time>2024-07-25T07:48:54Z</time>
      </trkpt>
      <trkpt lat="43.58001" lon="3.34749">
        <ele>240.7</ele>
        <time>2024-07-25T07:48:55Z</time>
      </trkpt>
      <trkpt lat="43.58001" lon="3.34745">
        <ele>241</ele>
        <time>2024-07-25T07:48:56Z</time>
      </trkpt>
      <trkpt lat="43.58002" lon="3.34741">
        <ele>241</ele>
        <time>2024-07-25T07:48:57Z</time>
      </trkpt>
      <trkpt lat="43.58002" lon="3.34737">
        <ele>241.3</ele>
        <time>2024-07-25T07:48:58Z</time>
      </trkpt>
      <trkpt lat="43.58003" lon="3.34733">
        <ele>241.2</ele>
        <time>2024-07-25T07:48:59Z</time>
      </trkpt>
      <trkpt lat="43.58003" lon="3.34729">
        <ele>241.5</ele>
        <time>2024-07-25T07:49:00Z</time>
      </trkpt>
      <trkpt lat="43.58004" lon="3.34726">
        <ele>241.3</ele>
        <time>2024-07-25T07:49:01Z</time>
      </trkpt>
      <trkpt lat="43.58004" lon="3.34722">
        <ele>241.6</ele>
        <time>2024-07-25T07:49:02Z</time>
      </trkpt>
      <trkpt lat="43.58004" lon="3.34719">
        <ele>241.8</ele>
        <time>2024-07-25T07:49:03Z</time>
      </trkpt>
      <trkpt lat="43.58005" lon="3.34716">
        <ele>241.6</ele>
        <time>2024-07-25T07:49:04Z</time>
      </trkpt>
      <trkpt lat="43.58005" lon="3.34713">
        <ele>241.7</ele>
        <time>2024-07-25T07:49:05Z</time>
      </trkpt>
      <trkpt lat="43.58005" lon="3.3471">
        <ele>241.9</ele>
        <time>2024-07-25T07:49:06Z</time>
      </trkpt>
      <trkpt lat="43.58005" lon="3.34706">
        <ele>242.2</ele>
        <time>2024-07-25T07:49:07Z</time>
      </trkpt>
      <trkpt lat="43.58005" lon="3.34703">
        <ele>242.3</ele>
        <time>2024-07-25T07:49:08Z</time>
      </trkpt>
      <trkpt lat="43.58004" lon="3.347">
        <ele>242.9</ele>
        <time>2024-07-25T07:49:09Z</time>
      </trkpt>
      <trkpt lat="43.58004" lon="3.34697">
        <ele>243.1</ele>
        <time>2024-07-25T07:49:10Z</time>
      </trkpt>
      <trkpt lat="43.58004" lon="3.34694">
        <ele>243.3</ele>
        <time>2024-07-25T07:49:11Z</time>
      </trkpt>
      <trkpt lat="43.58004" lon="3.34691">
        <ele>243.3</ele>
        <time>2024-07-25T07:49:12Z</time>
      </trkpt>
      <trkpt lat="43.58004" lon="3.34688">
        <ele>243.3</ele>
        <time>2024-07-25T07:49:13Z</time>
      </trkpt>
      <trkpt lat="43.58003" lon="3.34686">
        <ele>243.7</ele>
        <time>2024-07-25T07:49:14Z</time>
      </trkpt>
      <trkpt lat="43.58003" lon="3.34683">
        <ele>243.7</ele>
        <time>2024-07-25T07:49:15Z</time>
      </trkpt>
      <trkpt lat="43.58003" lon="3.3468">
        <ele>243.8</ele>
        <time>2024-07-25T07:49:16Z</time>
      </trkpt>
      <trkpt lat="43.58003" lon="3.34677">
        <ele>243.8</ele>
        <time>2024-07-25T07:49:17Z</time>
      </trkpt>
      <trkpt lat="43.58002" lon="3.34674">
        <ele>244.2</ele>
        <time>2024-07-25T07:49:18Z</time>
      </trkpt>
      <trkpt lat="43.58002" lon="3.34672">
        <ele>244.2</ele>
        <time>2024-07-25T07:49:19Z</time>
      </trkpt>
      <trkpt lat="43.58002" lon="3.34669">
        <ele>244.2</ele>
        <time>2024-07-25T07:49:20Z</time>
      </trkpt>
      <trkpt lat="43.58001" lon="3.34665">
        <ele>244.8</ele>
        <time>2024-07-25T07:49:21Z</time>
      </trkpt>
      <trkpt lat="43.58001" lon="3.34662">
        <ele>245.2</ele>
        <time>2024-07-25T07:49:22Z</time>
      </trkpt>
      <trkpt lat="43.58001" lon="3.34659">
        <ele>245.7</ele>
        <time>2024-07-25T07:49:23Z</time>
      </trkpt>
      <trkpt lat="43.58" lon="3.34656">
        <ele>246.5</ele>
        <time>2024-07-25T07:49:24Z</time>
      </trkpt>
      <trkpt lat="43.58" lon="3.34653">
        <ele>247</ele>
        <time>2024-07-25T07:49:25Z</time>
      </trkpt>
      <trkpt lat="43.57999" lon="3.3465">
        <ele>247.7</ele>
        <time>2024-07-25T07:49:26Z</time>
      </trkpt>
      <trkpt lat="43.57999" lon="3.34648">
        <ele>248</ele>
        <time>2024-07-25T07:49:27Z</time>
      </trkpt>
      <trkpt lat="43.57998" lon="3.34645">
        <ele>248.8</ele>
        <time>2024-07-25T07:49:28Z</time>
      </trkpt>
      <trkpt lat="43.57998" lon="3.34643">
        <ele>249.1</ele>
        <time>2024-07-25T07:49:29Z</time>
      </trkpt>
      <trkpt lat="43.57998" lon="3.3464">
        <ele>249.5</ele>
        <time>2024-07-25T07:49:30Z</time>
      </trkpt>
      <trkpt lat="43.57997" lon="3.34637">
        <ele>250.1</ele>
        <time>2024-07-25T07:49:31Z</time>
      </trkpt>
      <trkpt lat="43.57997" lon="3.34634">
        <ele>250.3</ele>
        <time>2024-07-25T07:49:32Z</time>
      </trkpt>
      <trkpt lat="43.57996" lon="3.34632">
        <ele>250.8</ele>
        <time>2024-07-25T07:49:33Z</time>
      </trkpt>
      <trkpt lat="43.57996" lon="3.34629">
        <ele>251</ele>
        <time>2024-07-25T07:49:34Z</time>
      </trkpt>
      <trkpt lat="43.57996" lon="3.34626">
        <ele>251.2</ele>
        <time>2024-07-25T07:49:35Z</time>
      </trkpt>
      <trkpt lat="43.57995" lon="3.34623">
        <ele>251.8</ele>
        <time>2024-07-25T07:49:36Z</time>
      </trkpt>
      <trkpt lat="43.57994" lon="3.3462">
        <ele>252.3</ele>
        <time>2024-07-25T07:49:37Z</time>
      </trkpt>
      <trkpt lat="43.57994" lon="3.34617">
        <ele>252.5</ele>
        <time>2024-07-25T07:49:38Z</time>
      </trkpt>
      <trkpt lat="43.57994" lon="3.34615">
        <ele>252.7</ele>
        <time>2024-07-25T07:49:39Z</time>
      </trkpt>
      <trkpt lat="43.57993" lon="3.34612">
        <ele>253.2</ele>
        <time>2024-07-25T07:49:40Z</time>
      </trkpt>
      <trkpt lat="43.57993" lon="3.34609">
        <ele>253.3</ele>
        <time>2024-07-25T07:49:41Z</time>
      </trkpt>
      <trkpt lat="43.57992" lon="3.34607">
        <ele>253.7</ele>
        <time>2024-07-25T07:49:42Z</time>
      </trkpt>
      <trkpt lat="43.57992" lon="3.34604">
        <ele>253.8</ele>
        <time>2024-07-25T07:49:43Z</time>
      </trkpt>
      <trkpt lat="43.57991" lon="3.34601">
        <ele>254.3</ele>
        <time>2024-07-25T07:49:44Z</time>
      </trkpt>
      <trkpt lat="43.57991" lon="3.34598">
        <ele>254.4</ele>
        <time>2024-07-25T07:49:45Z</time>
      </trkpt>
      <trkpt lat="43.5799" lon="3.34596">
        <ele>254.8</ele>
        <time>2024-07-25T07:49:46Z</time>
      </trkpt>
      <trkpt lat="43.5799" lon="3.34593">
        <ele>254.9</ele>
        <time>2024-07-25T07:49:47Z</time>
      </trkpt>
      <trkpt lat="43.57989" lon="3.3459">
        <ele>255.3</ele>
        <time>2024-07-25T07:49:48Z</time>
      </trkpt>
      <trkpt lat="43.57989" lon="3.34587">
        <ele>255.4</ele>
        <time>2024-07-25T07:49:49Z</time>
      </trkpt>
      <trkpt lat="43.57988" lon="3.34583">
        <ele>255.9</ele>
        <time>2024-07-25T07:49:50Z</time>
      </trkpt>
      <trkpt lat="43.57987" lon="3.3458">
        <ele>256.5</ele>
        <time>2024-07-25T07:49:51Z</time>
      </trkpt>
      <trkpt lat="43.57986" lon="3.34577">
        <ele>257.1</ele>
        <time>2024-07-25T07:49:52Z</time>
      </trkpt>
      <trkpt lat="43.57986" lon="3.34574">
        <ele>257.4</ele>
        <time>2024-07-25T07:49:53Z</time>
      </trkpt>
      <trkpt lat="43.57986" lon="3.34571">
        <ele>257.6</ele>
        <time>2024-07-25T07:49:54Z</time>
      </trkpt>
      <trkpt lat="43.57986" lon="3.34568">
        <ele>257.9</ele>
        <time>2024-07-25T07:49:55Z</time>
      </trkpt>
      <trkpt lat="43.57986" lon="3.34565">
        <ele>258.2</ele>
        <time>2024-07-25T07:49:56Z</time>
      </trkpt>
      <trkpt lat="43.57985" lon="3.34562">
        <ele>258.8</ele>
        <time>2024-07-25T07:49:57Z</time>
      </trkpt>
      <trkpt lat="43.57985" lon="3.34559">
        <ele>259.1</ele>
        <time>2024-07-25T07:49:58Z</time>
      </trkpt>
      <trkpt lat="43.57985" lon="3.34557">
        <ele>259.3</ele>
        <time>2024-07-25T07:49:59Z</time>
      </trkpt>
      <trkpt lat="43.57984" lon="3.34553">
        <ele>259.7</ele>
        <time>2024-07-25T07:50:00Z</time>
      </trkpt>
      <trkpt lat="43.57984" lon="3.3455">
        <ele>259.7</ele>
        <time>2024-07-25T07:50:01Z</time>
      </trkpt>
      <trkpt lat="43.57983" lon="3.34547">
        <ele>260.1</ele>
        <time>2024-07-25T07:50:02Z</time>
      </trkpt>
      <trkpt lat="43.57982" lon="3.34544">
        <ele>260.4</ele>
        <time>2024-07-25T07:50:03Z</time>
      </trkpt>
      <trkpt lat="43.57982" lon="3.34542">
        <ele>260.3</ele>
        <time>2024-07-25T07:50:04Z</time>
      </trkpt>
      <trkpt lat="43.57982" lon="3.34539">
        <ele>260.3</ele>
        <time>2024-07-25T07:50:05Z</time>
      </trkpt>
      <trkpt lat="43.57981" lon="3.34536">
        <ele>260.6</ele>
        <time>2024-07-25T07:50:06Z</time>
      </trkpt>
      <trkpt lat="43.57981" lon="3.34533">
        <ele>260.5</ele>
        <time>2024-07-25T07:50:07Z</time>
      </trkpt>
      <trkpt lat="43.57981" lon="3.3453">
        <ele>260.5</ele>
        <time>2024-07-25T07:50:08Z</time>
      </trkpt>
      <trkpt lat="43.5798" lon="3.34527">
        <ele>260.7</ele>
        <time>2024-07-25T07:50:09Z</time>
      </trkpt>
      <trkpt lat="43.57979" lon="3.34524">
        <ele>261</ele>
        <time>2024-07-25T07:50:10Z</time>
      </trkpt>
      <trkpt lat="43.57978" lon="3.34521">
        <ele>261.2</ele>
        <time>2024-07-25T07:50:11Z</time>
      </trkpt>
      <trkpt lat="43.57977" lon="3.34518">
        <ele>261.4</ele>
        <time>2024-07-25T07:50:12Z</time>
      </trkpt>
      <trkpt lat="43.57976" lon="3.34515">
        <ele>261.6</ele>
        <time>2024-07-25T07:50:13Z</time>
      </trkpt>
      <trkpt lat="43.57975" lon="3.34513">
        <ele>261.8</ele>
        <time>2024-07-25T07:50:14Z</time>
      </trkpt>
      <trkpt lat="43.57974" lon="3.3451">
        <ele>261.9</ele>
        <time>2024-07-25T07:50:15Z</time>
      </trkpt>
      <trkpt lat="43.57973" lon="3.34508">
        <ele>262.1</ele>
        <time>2024-07-25T07:50:16Z</time>
      </trkpt>
      <trkpt lat="43.57972" lon="3.34505">
        <ele>262.3</ele>
        <time>2024-07-25T07:50:17Z</time>
      </trkpt>
      <trkpt lat="43.57971" lon="3.34502">
        <ele>262.5</ele>
        <time>2024-07-25T07:50:18Z</time>
      </trkpt>
      <trkpt lat="43.5797" lon="3.34499">
        <ele>262.7</ele>
        <time>2024-07-25T07:50:19Z</time>
      </trkpt>
      <trkpt lat="43.5797" lon="3.34496">
        <ele>262.7</ele>
        <time>2024-07-25T07:50:20Z</time>
      </trkpt>
      <trkpt lat="43.57969" lon="3.34493">
        <ele>263</ele>
        <time>2024-07-25T07:50:21Z</time>
      </trkpt>
      <trkpt lat="43.57969" lon="3.34491">
        <ele>263</ele>
        <time>2024-07-25T07:50:22Z</time>
      </trkpt>
      <trkpt lat="43.57968" lon="3.34488">
        <ele>263.4</ele>
        <time>2024-07-25T07:50:23Z</time>
      </trkpt>
      <trkpt lat="43.57968" lon="3.34486">
        <ele>263.4</ele>
        <time>2024-07-25T07:50:24Z</time>
      </trkpt>
      <trkpt lat="43.57967" lon="3.34484">
        <ele>263.7</ele>
        <time>2024-07-25T07:50:25Z</time>
      </trkpt>
      <trkpt lat="43.57967" lon="3.34482">
        <ele>263.7</ele>
        <time>2024-07-25T07:50:26Z</time>
      </trkpt>
      <trkpt lat="43.57967" lon="3.34479">
        <ele>263.7</ele>
        <time>2024-07-25T07:50:27Z</time>
      </trkpt>
      <trkpt lat="43.57967" lon="3.34477">
        <ele>263.7</ele>
        <time>2024-07-25T07:50:28Z</time>
      </trkpt>
      <trkpt lat="43.57967" lon="3.34474">
        <ele>263.7</ele>
        <time>2024-07-25T07:50:29Z</time>
      </trkpt>
      <trkpt lat="43.57967" lon="3.34471">
        <ele>263.7</ele>
        <time>2024-07-25T07:50:30Z</time>
      </trkpt>
      <trkpt lat="43.57967" lon="3.34468">
        <ele>263.8</ele>
        <time>2024-07-25T07:50:31Z</time>
      </trkpt>
      <trkpt lat="43.57967" lon="3.34465">
        <ele>263.9</ele>
        <time>2024-07-25T07:50:32Z</time>
      </trkpt>
      <trkpt lat="43.57966" lon="3.34462">
        <ele>264.3</ele>
        <time>2024-07-25T07:50:33Z</time>
      </trkpt>
      <trkpt lat="43.57966" lon="3.34459">
        <ele>264.4</ele>
        <time>2024-07-25T07:50:34Z</time>
      </trkpt>
      <trkpt lat="43.57966" lon="3.34457">
        <ele>264.4</ele>
        <time>2024-07-25T07:50:35Z</time>
      </trkpt>
      <trkpt lat="43.57966" lon="3.34454">
        <ele>264.5</ele>
        <time>2024-07-25T07:50:36Z</time>
      </trkpt>
      <trkpt lat="43.57966" lon="3.34451">
        <ele>264.6</ele>
        <time>2024-07-25T07:50:37Z</time>
      </trkpt>
      <trkpt lat="43.57966" lon="3.34448">
        <ele>264.7</ele>
        <time>2024-07-25T07:50:38Z</time>
      </trkpt>
      <trkpt lat="43.57966" lon="3.34445">
        <ele>264.8</ele>
        <time>2024-07-25T07:50:39Z</time>
      </trkpt>
      <trkpt lat="43.57965" lon="3.34442">
        <ele>265.3</ele>
        <time>2024-07-25T07:50:40Z</time>
      </trkpt>
      <trkpt lat="43.57965" lon="3.34439">
        <ele>265.6</ele>
        <time>2024-07-25T07:50:41Z</time>
      </trkpt>
      <trkpt lat="43.57965" lon="3.34437">
        <ele>265.7</ele>
        <time>2024-07-25T07:50:42Z</time>
      </trkpt>
      <trkpt lat="43.57964" lon="3.34434">
        <ele>266.3</ele>
        <time>2024-07-25T07:50:43Z</time>
      </trkpt>
      <trkpt lat="43.57963" lon="3.34431">
        <ele>266.8</ele>
        <time>2024-07-25T07:50:44Z</time>
      </trkpt>
      <trkpt lat="43.57963" lon="3.34428">
        <ele>267</ele>
        <time>2024-07-25T07:50:45Z</time>
      </trkpt>
      <trkpt lat="43.57963" lon="3.34425">
        <ele>267.3</ele>
        <time>2024-07-25T07:50:46Z</time>
      </trkpt>
      <trkpt lat="43.57963" lon="3.34423">
        <ele>267.5</ele>
        <time>2024-07-25T07:50:47Z</time>
      </trkpt>
      <trkpt lat="43.57963" lon="3.3442">
        <ele>267.7</ele>
        <time>2024-07-25T07:50:48Z</time>
      </trkpt>
      <trkpt lat="43.57963" lon="3.34417">
        <ele>268</ele>
        <time>2024-07-25T07:50:49Z</time>
      </trkpt>
      <trkpt lat="43.57963" lon="3.34415">
        <ele>268.2</ele>
        <time>2024-07-25T07:50:50Z</time>
      </trkpt>
      <trkpt lat="43.57963" lon="3.34412">
        <ele>268.4</ele>
        <time>2024-07-25T07:50:51Z</time>
      </trkpt>
      <trkpt lat="43.57964" lon="3.3441">
        <ele>268.4</ele>
        <time>2024-07-25T07:50:52Z</time>
      </trkpt>
      <trkpt lat="43.57964" lon="3.34407">
        <ele>268.7</ele>
        <time>2024-07-25T07:50:53Z</time>
      </trkpt>
      <trkpt lat="43.57964" lon="3.34404">
        <ele>269</ele>
        <time>2024-07-25T07:50:54Z</time>
      </trkpt>
      <trkpt lat="43.57964" lon="3.34401">
        <ele>269.3</ele>
        <time>2024-07-25T07:50:55Z</time>
      </trkpt>
      <trkpt lat="43.57965" lon="3.34398">
        <ele>269.4</ele>
        <time>2024-07-25T07:50:56Z</time>
      </trkpt>
      <trkpt lat="43.57965" lon="3.34396">
        <ele>269.6</ele>
        <time>2024-07-25T07:50:57Z</time>
      </trkpt>
      <trkpt lat="43.57965" lon="3.34393">
        <ele>269.9</ele>
        <time>2024-07-25T07:50:58Z</time>
      </trkpt>
      <trkpt lat="43.57966" lon="3.34391">
        <ele>269.9</ele>
        <time>2024-07-25T07:50:59Z</time>
      </trkpt>
      <trkpt lat="43.57966" lon="3.34389">
        <ele>270.1</ele>
        <time>2024-07-25T07:51:00Z</time>
      </trkpt>
      <trkpt lat="43.57967" lon="3.34386">
        <ele>270.2</ele>
        <time>2024-07-25T07:51:01Z</time>
      </trkpt>
      <trkpt lat="43.57967" lon="3.34383">
        <ele>270.5</ele>
        <time>2024-07-25T07:51:02Z</time>
      </trkpt>
      <trkpt lat="43.57968" lon="3.3438">
        <ele>270.7</ele>
        <time>2024-07-25T07:51:03Z</time>
      </trkpt>
      <trkpt lat="43.57968" lon="3.34377">
        <ele>271</ele>
        <time>2024-07-25T07:51:04Z</time>
      </trkpt>
      <trkpt lat="43.57969" lon="3.34375">
        <ele>271</ele>
        <time>2024-07-25T07:51:05Z</time>
      </trkpt>
      <trkpt lat="43.57969" lon="3.34373">
        <ele>271.2</ele>
        <time>2024-07-25T07:51:06Z</time>
      </trkpt>
      <trkpt lat="43.57969" lon="3.34371">
        <ele>271.4</ele>
        <time>2024-07-25T07:51:07Z</time>
      </trkpt>
      <trkpt lat="43.5797" lon="3.34367">
        <ele>271.7</ele>
        <time>2024-07-25T07:51:08Z</time>
      </trkpt>
      <trkpt lat="43.5797" lon="3.34364">
        <ele>272</ele>
        <time>2024-07-25T07:51:09Z</time>
      </trkpt>
      <trkpt lat="43.57971" lon="3.34361">
        <ele>272.2</ele>
        <time>2024-07-25T07:51:10Z</time>
      </trkpt>
      <trkpt lat="43.57972" lon="3.34358">
        <ele>272.3</ele>
        <time>2024-07-25T07:51:11Z</time>
      </trkpt>
      <trkpt lat="43.57972" lon="3.34355">
        <ele>272.5</ele>
        <time>2024-07-25T07:51:12Z</time>
      </trkpt>
      <trkpt lat="43.57972" lon="3.34353">
        <ele>272.6</ele>
        <time>2024-07-25T07:51:13Z</time>
      </trkpt>
      <trkpt lat="43.57973" lon="3.3435">
        <ele>272.7</ele>
        <time>2024-07-25T07:51:14Z</time>
      </trkpt>
      <trkpt lat="43.57974" lon="3.34347">
        <ele>272.7</ele>
        <time>2024-07-25T07:51:15Z</time>
      </trkpt>
      <trkpt lat="43.57974" lon="3.34344">
        <ele>273</ele>
        <time>2024-07-25T07:51:16Z</time>
      </trkpt>
      <trkpt lat="43.57975" lon="3.34342">
        <ele>272.9</ele>
        <time>2024-07-25T07:51:17Z</time>
      </trkpt>
      <trkpt lat="43.57976" lon="3.34339">
        <ele>273</ele>
        <time>2024-07-25T07:51:18Z</time>
      </trkpt>
      <trkpt lat="43.57977" lon="3.34336">
        <ele>273.1</ele>
        <time>2024-07-25T07:51:19Z</time>
      </trkpt>
      <trkpt lat="43.57978" lon="3.34334">
        <ele>273.1</ele>
        <time>2024-07-25T07:51:20Z</time>
      </trkpt>
      <trkpt lat="43.57979" lon="3.34331">
        <ele>273.2</ele>
        <time>2024-07-25T07:51:21Z</time>
      </trkpt>
      <trkpt lat="43.57979" lon="3.34328">
        <ele>273.5</ele>
        <time>2024-07-25T07:51:22Z</time>
      </trkpt>
      <trkpt lat="43.5798" lon="3.34325">
        <ele>273.6</ele>
        <time>2024-07-25T07:51:23Z</time>
      </trkpt>
      <trkpt lat="43.57981" lon="3.34322">
        <ele>273.8</ele>
        <time>2024-07-25T07:51:24Z</time>
      </trkpt>
      <trkpt lat="43.57982" lon="3.34319">
        <ele>274</ele>
        <time>2024-07-25T07:51:25Z</time>
      </trkpt>
      <trkpt lat="43.57983" lon="3.34316">
        <ele>274.2</ele>
        <time>2024-07-25T07:51:26Z</time>
      </trkpt>
      <trkpt lat="43.57983" lon="3.34313">
        <ele>274.5</ele>
        <time>2024-07-25T07:51:27Z</time>
      </trkpt>
      <trkpt lat="43.57984" lon="3.34311">
        <ele>274.6</ele>
        <time>2024-07-25T07:51:28Z</time>
      </trkpt>
      <trkpt lat="43.57986" lon="3.34308">
        <ele>274.7</ele>
        <time>2024-07-25T07:51:29Z</time>
      </trkpt>
      <trkpt lat="43.57987" lon="3.34306">
        <ele>274.9</ele>
        <time>2024-07-25T07:51:30Z</time>
      </trkpt>
      <trkpt lat="43.57988" lon="3.34304">
        <ele>274.9</ele>
        <time>2024-07-25T07:51:31Z</time>
      </trkpt>
      <trkpt lat="43.57989" lon="3.34302">
        <ele>275</ele>
        <time>2024-07-25T07:51:32Z</time>
      </trkpt>
      <trkpt lat="43.5799" lon="3.343">
        <ele>275</ele>
        <time>2024-07-25T07:51:33Z</time>
      </trkpt>
      <trkpt lat="43.57991" lon="3.34297">
        <ele>275.2</ele>
        <time>2024-07-25T07:51:34Z</time>
      </trkpt>
      <trkpt lat="43.57992" lon="3.34295">
        <ele>275.3</ele>
        <time>2024-07-25T07:51:35Z</time>
      </trkpt>
      <trkpt lat="43.57992" lon="3.34293">
        <ele>275.4</ele>
        <time>2024-07-25T07:51:36Z</time>
      </trkpt>
      <trkpt lat="43.57993" lon="3.34291">
        <ele>275.5</ele>
        <time>2024-07-25T07:51:37Z</time>
      </trkpt>
      <trkpt lat="43.57994" lon="3.34289">
        <ele>275.7</ele>
        <time>2024-07-25T07:51:38Z</time>
      </trkpt>
      <trkpt lat="43.57996" lon="3.34288">
        <ele>275.8</ele>
        <time>2024-07-25T07:51:39Z</time>
      </trkpt>
      <trkpt lat="43.57997" lon="3.34285">
        <ele>276.1</ele>
        <time>2024-07-25T07:51:40Z</time>
      </trkpt>
      <trkpt lat="43.57999" lon="3.34283">
        <ele>276.4</ele>
        <time>2024-07-25T07:51:41Z</time>
      </trkpt>
      <trkpt lat="43.58" lon="3.34281">
        <ele>276.7</ele>
        <time>2024-07-25T07:51:42Z</time>
      </trkpt>
      <trkpt lat="43.58002" lon="3.34279">
        <ele>276.8</ele>
        <time>2024-07-25T07:51:43Z</time>
      </trkpt>
      <trkpt lat="43.58003" lon="3.34276">
        <ele>277.1</ele>
        <time>2024-07-25T07:51:44Z</time>
      </trkpt>
      <trkpt lat="43.58005" lon="3.34274">
        <ele>277.3</ele>
        <time>2024-07-25T07:51:45Z</time>
      </trkpt>
      <trkpt lat="43.58007" lon="3.34272">
        <ele>277.5</ele>
        <time>2024-07-25T07:51:46Z</time>
      </trkpt>
      <trkpt lat="43.58009" lon="3.34271">
        <ele>277.6</ele>
        <time>2024-07-25T07:51:47Z</time>
      </trkpt>
      <trkpt lat="43.5801" lon="3.3427">
        <ele>277.8</ele>
        <time>2024-07-25T07:51:48Z</time>
      </trkpt>
      <trkpt lat="43.58012" lon="3.34268">
        <ele>278.1</ele>
        <time>2024-07-25T07:51:49Z</time>
      </trkpt>
      <trkpt lat="43.58014" lon="3.34267">
        <ele>278.2</ele>
        <time>2024-07-25T07:51:50Z</time>
      </trkpt>
      <trkpt lat="43.58016" lon="3.34265">
        <ele>278.6</ele>
        <time>2024-07-25T07:51:51Z</time>
      </trkpt>
      <trkpt lat="43.58017" lon="3.34263">
        <ele>279</ele>
        <time>2024-07-25T07:51:52Z</time>
      </trkpt>
      <trkpt lat="43.58019" lon="3.34261">
        <ele>279.4</ele>
        <time>2024-07-25T07:51:53Z</time>
      </trkpt>
      <trkpt lat="43.58021" lon="3.34259">
        <ele>279.8</ele>
        <time>2024-07-25T07:51:54Z</time>
      </trkpt>
      <trkpt lat="43.58022" lon="3.34258">
        <ele>280</ele>
        <time>2024-07-25T07:51:55Z</time>
      </trkpt>
      <trkpt lat="43.58024" lon="3.34256">
        <ele>280.5</ele>
        <time>2024-07-25T07:51:56Z</time>
      </trkpt>
      <trkpt lat="43.58026" lon="3.34254">
        <ele>281</ele>
        <time>2024-07-25T07:51:57Z</time>
      </trkpt>
      <trkpt lat="43.58027" lon="3.34253">
        <ele>281.3</ele>
        <time>2024-07-25T07:51:58Z</time>
      </trkpt>
      <trkpt lat="43.58029" lon="3.34252">
        <ele>281.6</ele>
        <time>2024-07-25T07:51:59Z</time>
      </trkpt>
      <trkpt lat="43.5803" lon="3.3425">
        <ele>282.1</ele>
        <time>2024-07-25T07:52:00Z</time>
      </trkpt>
      <trkpt lat="43.58032" lon="3.34248">
        <ele>282.6</ele>
        <time>2024-07-25T07:52:01Z</time>
      </trkpt>
      <trkpt lat="43.58033" lon="3.34247">
        <ele>282.8</ele>
        <time>2024-07-25T07:52:02Z</time>
      </trkpt>
      <trkpt lat="43.58035" lon="3.34246">
        <ele>283.1</ele>
        <time>2024-07-25T07:52:03Z</time>
      </trkpt>
      <trkpt lat="43.58037" lon="3.34245">
        <ele>283.4</ele>
        <time>2024-07-25T07:52:04Z</time>
      </trkpt>
      <trkpt lat="43.58038" lon="3.34244">
        <ele>283.6</ele>
        <time>2024-07-25T07:52:05Z</time>
      </trkpt>
      <trkpt lat="43.5804" lon="3.34242">
        <ele>284</ele>
        <time>2024-07-25T07:52:06Z</time>
      </trkpt>
      <trkpt lat="43.58042" lon="3.34241">
        <ele>284.3</ele>
        <time>2024-07-25T07:52:07Z</time>
      </trkpt>
      <trkpt lat="43.58044" lon="3.3424">
        <ele>284.5</ele>
        <time>2024-07-25T07:52:08Z</time>
      </trkpt>
      <trkpt lat="43.58045" lon="3.3424">
        <ele>284.6</ele>
        <time>2024-07-25T07:52:09Z</time>
      </trkpt>
      <trkpt lat="43.58047" lon="3.34239">
        <ele>284.8</ele>
        <time>2024-07-25T07:52:10Z</time>
      </trkpt>
      <trkpt lat="43.58049" lon="3.34239">
        <ele>284.8</ele>
        <time>2024-07-25T07:52:11Z</time>
      </trkpt>
      <trkpt lat="43.58051" lon="3.34238">
        <ele>285.1</ele>
        <time>2024-07-25T07:52:12Z</time>
      </trkpt>
      <trkpt lat="43.58052" lon="3.34239">
        <ele>284.9</ele>
        <time>2024-07-25T07:52:13Z</time>
      </trkpt>
      <trkpt lat="43.58054" lon="3.34239">
        <ele>284.9</ele>
        <time>2024-07-25T07:52:14Z</time>
      </trkpt>
      <trkpt lat="43.58056" lon="3.34238">
        <ele>285.2</ele>
        <time>2024-07-25T07:52:15Z</time>
      </trkpt>
      <trkpt lat="43.58058" lon="3.34237">
        <ele>285.5</ele>
        <time>2024-07-25T07:52:16Z</time>
      </trkpt>
      <trkpt lat="43.5806" lon="3.34236">
        <ele>285.8</ele>
        <time>2024-07-25T07:52:17Z</time>
      </trkpt>
      <trkpt lat="43.58062" lon="3.34236">
        <ele>285.9</ele>
        <time>2024-07-25T07:52:18Z</time>
      </trkpt>
      <trkpt lat="43.58064" lon="3.34235">
        <ele>286.1</ele>
        <time>2024-07-25T07:52:19Z</time>
      </trkpt>
      <trkpt lat="43.58066" lon="3.34235">
        <ele>286.2</ele>
        <time>2024-07-25T07:52:20Z</time>
      </trkpt>
      <trkpt lat="43.58067" lon="3.34234">
        <ele>286.4</ele>
        <time>2024-07-25T07:52:21Z</time>
      </trkpt>
      <trkpt lat="43.58069" lon="3.34234">
        <ele>286.5</ele>
        <time>2024-07-25T07:52:22Z</time>
      </trkpt>
      <trkpt lat="43.58071" lon="3.34233">
        <ele>286.7</ele>
        <time>2024-07-25T07:52:23Z</time>
      </trkpt>
      <trkpt lat="43.58073" lon="3.34232">
        <ele>286.9</ele>
        <time>2024-07-25T07:52:24Z</time>
      </trkpt>
      <trkpt lat="43.58075" lon="3.34232">
        <ele>287</ele>
        <time>2024-07-25T07:52:25Z</time>
      </trkpt>
      <trkpt lat="43.58076" lon="3.34231">
        <ele>287.1</ele>
        <time>2024-07-25T07:52:26Z</time>
      </trkpt>
      <trkpt lat="43.58079" lon="3.3423">
        <ele>287.3</ele>
        <time>2024-07-25T07:52:27Z</time>
      </trkpt>
      <trkpt lat="43.58081" lon="3.3423">
        <ele>287.4</ele>
        <time>2024-07-25T07:52:28Z</time>
      </trkpt>
      <trkpt lat="43.58083" lon="3.34229">
        <ele>287.5</ele>
        <time>2024-07-25T07:52:29Z</time>
      </trkpt>
      <trkpt lat="43.58086" lon="3.34229">
        <ele>287.9</ele>
        <time>2024-07-25T07:52:30Z</time>
      </trkpt>
      <trkpt lat="43.58088" lon="3.34229">
        <ele>288.2</ele>
        <time>2024-07-25T07:52:31Z</time>
      </trkpt>
      <trkpt lat="43.5809" lon="3.3423">
        <ele>288.4</ele>
        <time>2024-07-25T07:52:32Z</time>
      </trkpt>
      <trkpt lat="43.58093" lon="3.3423">
        <ele>288.8</ele>
        <time>2024-07-25T07:52:33Z</time>
      </trkpt>
      <trkpt lat="43.58095" lon="3.3423">
        <ele>289.1</ele>
        <time>2024-07-25T07:52:34Z</time>
      </trkpt>
      <trkpt lat="43.58098" lon="3.34231">
        <ele>289.5</ele>
        <time>2024-07-25T07:52:35Z</time>
      </trkpt>
      <trkpt lat="43.581" lon="3.34231">
        <ele>289.8</ele>
        <time>2024-07-25T07:52:36Z</time>
      </trkpt>
      <trkpt lat="43.58102" lon="3.34232">
        <ele>290</ele>
        <time>2024-07-25T07:52:37Z</time>
      </trkpt>
      <trkpt lat="43.58105" lon="3.34234">
        <ele>290.3</ele>
        <time>2024-07-25T07:52:38Z</time>
      </trkpt>
      <trkpt lat="43.58107" lon="3.34235">
        <ele>290.5</ele>
        <time>2024-07-25T07:52:39Z</time>
      </trkpt>
      <trkpt lat="43.58109" lon="3.34237">
        <ele>290.6</ele>
        <time>2024-07-25T07:52:40Z</time>
      </trkpt>
      <trkpt lat="43.5811" lon="3.34239">
        <ele>290.6</ele>
        <time>2024-07-25T07:52:41Z</time>
      </trkpt>
      <trkpt lat="43.58112" lon="3.34241">
        <ele>291</ele>
        <time>2024-07-25T07:52:42Z</time>
      </trkpt>
      <trkpt lat="43.58113" lon="3.34243">
        <ele>291.3</ele>
        <time>2024-07-25T07:52:43Z</time>
      </trkpt>
      <trkpt lat="43.58113" lon="3.34246">
        <ele>291</ele>
        <time>2024-07-25T07:52:44Z</time>
      </trkpt>
      <trkpt lat="43.58114" lon="3.34249">
        <ele>291.2</ele>
        <time>2024-07-25T07:52:45Z</time>
      </trkpt>
      <trkpt lat="43.58114" lon="3.34252">
        <ele>291.3</ele>
        <time>2024-07-25T07:52:46Z</time>
      </trkpt>
      <trkpt lat="43.58115" lon="3.34255">
        <ele>291.8</ele>
        <time>2024-07-25T07:52:47Z</time>
      </trkpt>
      <trkpt lat="43.58115" lon="3.34258">
        <ele>292</ele>
        <time>2024-07-25T07:52:48Z</time>
      </trkpt>
      <trkpt lat="43.58115" lon="3.34261">
        <ele>292.2</ele>
        <time>2024-07-25T07:52:49Z</time>
      </trkpt>
      <trkpt lat="43.58116" lon="3.34264">
        <ele>292.7</ele>
        <time>2024-07-25T07:52:50Z</time>
      </trkpt>
      <trkpt lat="43.58116" lon="3.34266">
        <ele>292.8</ele>
        <time>2024-07-25T07:52:51Z</time>
      </trkpt>
      <trkpt lat="43.58117" lon="3.3427">
        <ele>293.3</ele>
        <time>2024-07-25T07:52:52Z</time>
      </trkpt>
      <trkpt lat="43.58118" lon="3.34273">
        <ele>293.8</ele>
        <time>2024-07-25T07:52:53Z</time>
      </trkpt>
      <trkpt lat="43.58118" lon="3.34277">
        <ele>293.9</ele>
        <time>2024-07-25T07:52:54Z</time>
      </trkpt>
      <trkpt lat="43.58118" lon="3.34281">
        <ele>293.9</ele>
        <time>2024-07-25T07:52:55Z</time>
      </trkpt>
      <trkpt lat="43.58119" lon="3.34284">
        <ele>294.1</ele>
        <time>2024-07-25T07:52:56Z</time>
      </trkpt>
      <trkpt lat="43.58119" lon="3.34287">
        <ele>294</ele>
        <time>2024-07-25T07:52:57Z</time>
      </trkpt>
      <trkpt lat="43.5812" lon="3.34289">
        <ele>294.3</ele>
        <time>2024-07-25T07:52:58Z</time>
      </trkpt>
      <trkpt lat="43.5812" lon="3.34292">
        <ele>294.2</ele>
        <time>2024-07-25T07:52:59Z</time>
      </trkpt>
      <trkpt lat="43.58121" lon="3.34295">
        <ele>294.4</ele>
        <time>2024-07-25T07:53:00Z</time>
      </trkpt>
      <trkpt lat="43.58122" lon="3.34299">
        <ele>294.7</ele>
        <time>2024-07-25T07:53:01Z</time>
      </trkpt>
      <trkpt lat="43.58123" lon="3.34302">
        <ele>294.9</ele>
        <time>2024-07-25T07:53:02Z</time>
      </trkpt>
      <trkpt lat="43.58123" lon="3.34305">
        <ele>294.9</ele>
        <time>2024-07-25T07:53:03Z</time>
      </trkpt>
      <trkpt lat="43.58124" lon="3.34309">
        <ele>295</ele>
        <time>2024-07-25T07:53:04Z</time>
      </trkpt>
      <trkpt lat="43.58124" lon="3.34312">
        <ele>294.8</ele>
        <time>2024-07-25T07:53:05Z</time>
      </trkpt>
      <trkpt lat="43.58125" lon="3.34316">
        <ele>294.9</ele>
        <time>2024-07-25T07:53:06Z</time>
      </trkpt>
      <trkpt lat="43.58126" lon="3.34319">
        <ele>295.1</ele>
        <time>2024-07-25T07:53:07Z</time>
      </trkpt>
      <trkpt lat="43.58127" lon="3.34322">
        <ele>295.2</ele>
        <time>2024-07-25T07:53:08Z</time>
      </trkpt>
      <trkpt lat="43.58128" lon="3.34325">
        <ele>295.3</ele>
        <time>2024-07-25T07:53:09Z</time>
      </trkpt>
      <trkpt lat="43.58129" lon="3.34328">
        <ele>295.5</ele>
        <time>2024-07-25T07:53:10Z</time>
      </trkpt>
      <trkpt lat="43.5813" lon="3.34331">
        <ele>295.6</ele>
        <time>2024-07-25T07:53:11Z</time>
      </trkpt>
      <trkpt lat="43.58131" lon="3.34334">
        <ele>295.7</ele>
        <time>2024-07-25T07:53:12Z</time>
      </trkpt>
      <trkpt lat="43.58132" lon="3.34337">
        <ele>295.7</ele>
        <time>2024-07-25T07:53:13Z</time>
      </trkpt>
      <trkpt lat="43.58133" lon="3.3434">
        <ele>295.8</ele>
        <time>2024-07-25T07:53:14Z</time>
      </trkpt>
      <trkpt lat="43.58133" lon="3.34342">
        <ele>295.6</ele>
        <time>2024-07-25T07:53:15Z</time>
      </trkpt>
      <trkpt lat="43.58134" lon="3.34345">
        <ele>295.7</ele>
        <time>2024-07-25T07:53:16Z</time>
      </trkpt>
      <trkpt lat="43.58135" lon="3.34348">
        <ele>295.8</ele>
        <time>2024-07-25T07:53:17Z</time>
      </trkpt>
      <trkpt lat="43.58136" lon="3.3435">
        <ele>295.9</ele>
        <time>2024-07-25T07:53:18Z</time>
      </trkpt>
      <trkpt lat="43.58137" lon="3.34353">
        <ele>296</ele>
        <time>2024-07-25T07:53:19Z</time>
      </trkpt>
      <trkpt lat="43.58138" lon="3.34356">
        <ele>296.1</ele>
        <time>2024-07-25T07:53:20Z</time>
      </trkpt>
      <trkpt lat="43.58139" lon="3.34359">
        <ele>296.2</ele>
        <time>2024-07-25T07:53:21Z</time>
      </trkpt>
      <trkpt lat="43.5814" lon="3.34362">
        <ele>296.4</ele>
        <time>2024-07-25T07:53:22Z</time>
      </trkpt>
      <trkpt lat="43.58141" lon="3.34365">
        <ele>296.8</ele>
        <time>2024-07-25T07:53:23Z</time>
      </trkpt>
      <trkpt lat="43.58143" lon="3.34367">
        <ele>297.5</ele>
        <time>2024-07-25T07:53:24Z</time>
      </trkpt>
      <trkpt lat="43.58144" lon="3.3437">
        <ele>297.8</ele>
        <time>2024-07-25T07:53:25Z</time>
      </trkpt>
      <trkpt lat="43.58145" lon="3.34373">
        <ele>298</ele>
        <time>2024-07-25T07:53:26Z</time>
      </trkpt>
      <trkpt lat="43.58146" lon="3.34375">
        <ele>298.3</ele>
        <time>2024-07-25T07:53:27Z</time>
      </trkpt>
      <trkpt lat="43.58148" lon="3.34378">
        <ele>298.9</ele>
        <time>2024-07-25T07:53:28Z</time>
      </trkpt>
      <trkpt lat="43.58149" lon="3.34381">
        <ele>299.1</ele>
        <time>2024-07-25T07:53:29Z</time>
      </trkpt>
      <trkpt lat="43.58151" lon="3.34383">
        <ele>299.8</ele>
        <time>2024-07-25T07:53:30Z</time>
      </trkpt>
      <trkpt lat="43.58152" lon="3.34386">
        <ele>299.9</ele>
        <time>2024-07-25T07:53:31Z</time>
      </trkpt>
      <trkpt lat="43.58154" lon="3.34388">
        <ele>300.5</ele>
        <time>2024-07-25T07:53:32Z</time>
      </trkpt>
      <trkpt lat="43.58156" lon="3.3439">
        <ele>301</ele>
        <time>2024-07-25T07:53:33Z</time>
      </trkpt>
      <trkpt lat="43.58158" lon="3.34392">
        <ele>301.5</ele>
        <time>2024-07-25T07:53:34Z</time>
      </trkpt>
      <trkpt lat="43.5816" lon="3.34394">
        <ele>302</ele>
        <time>2024-07-25T07:53:35Z</time>
      </trkpt>
      <trkpt lat="43.58162" lon="3.34397">
        <ele>302.4</ele>
        <time>2024-07-25T07:53:36Z</time>
      </trkpt>
      <trkpt lat="43.58164" lon="3.34399">
        <ele>302.9</ele>
        <time>2024-07-25T07:53:37Z</time>
      </trkpt>
      <trkpt lat="43.58166" lon="3.34401">
        <ele>303.5</ele>
        <time>2024-07-25T07:53:38Z</time>
      </trkpt>
      <trkpt lat="43.58167" lon="3.34403">
        <ele>303.6</ele>
        <time>2024-07-25T07:53:39Z</time>
      </trkpt>
      <trkpt lat="43.58169" lon="3.34405">
        <ele>304</ele>
        <time>2024-07-25T07:53:40Z</time>
      </trkpt>
      <trkpt lat="43.5817" lon="3.34408">
        <ele>303.9</ele>
        <time>2024-07-25T07:53:41Z</time>
      </trkpt>
      <trkpt lat="43.58172" lon="3.34409">
        <ele>304.4</ele>
        <time>2024-07-25T07:53:42Z</time>
      </trkpt>
      <trkpt lat="43.58173" lon="3.34411">
        <ele>304.5</ele>
        <time>2024-07-25T07:53:43Z</time>
      </trkpt>
      <trkpt lat="43.58175" lon="3.34413">
        <ele>304.8</ele>
        <time>2024-07-25T07:53:44Z</time>
      </trkpt>
      <trkpt lat="43.58176" lon="3.34415">
        <ele>304.9</ele>
        <time>2024-07-25T07:53:45Z</time>
      </trkpt>
      <trkpt lat="43.58177" lon="3.34418">
        <ele>304.8</ele>
        <time>2024-07-25T07:53:46Z</time>
      </trkpt>
      <trkpt lat="43.58179" lon="3.3442">
        <ele>305.1</ele>
        <time>2024-07-25T07:53:47Z</time>
      </trkpt>
      <trkpt lat="43.58181" lon="3.34423">
        <ele>305.3</ele>
        <time>2024-07-25T07:53:48Z</time>
      </trkpt>
      <trkpt lat="43.58182" lon="3.34425">
        <ele>305.4</ele>
        <time>2024-07-25T07:53:49Z</time>
      </trkpt>
      <trkpt lat="43.58184" lon="3.34427">
        <ele>305.7</ele>
        <time>2024-07-25T07:53:50Z</time>
      </trkpt>
      <trkpt lat="43.58186" lon="3.3443">
        <ele>306</ele>
        <time>2024-07-25T07:53:51Z</time>
      </trkpt>
      <trkpt lat="43.58188" lon="3.34432">
        <ele>306.4</ele>
        <time>2024-07-25T07:53:52Z</time>
      </trkpt>
      <trkpt lat="43.58189" lon="3.34434">
        <ele>306.4</ele>
        <time>2024-07-25T07:53:53Z</time>
      </trkpt>
      <trkpt lat="43.58191" lon="3.34437">
        <ele>306.7</ele>
        <time>2024-07-25T07:53:54Z</time>
      </trkpt>
      <trkpt lat="43.58193" lon="3.34439">
        <ele>307.1</ele>
        <time>2024-07-25T07:53:55Z</time>
      </trkpt>
      <trkpt lat="43.58194" lon="3.34441">
        <ele>307.2</ele>
        <time>2024-07-25T07:53:56Z</time>
      </trkpt>
      <trkpt lat="43.58197" lon="3.34443">
        <ele>307.8</ele>
        <time>2024-07-25T07:53:57Z</time>
      </trkpt>
      <trkpt lat="43.58199" lon="3.34445">
        <ele>308.1</ele>
        <time>2024-07-25T07:53:58Z</time>
      </trkpt>
      <trkpt lat="43.58201" lon="3.34447">
        <ele>308.3</ele>
        <time>2024-07-25T07:53:59Z</time>
      </trkpt>
      <trkpt lat="43.58203" lon="3.34449">
        <ele>308.4</ele>
        <time>2024-07-25T07:54:00Z</time>
      </trkpt>
      <trkpt lat="43.58205" lon="3.34451">
        <ele>308.6</ele>
        <time>2024-07-25T07:54:01Z</time>
      </trkpt>
      <trkpt lat="43.58206" lon="3.34453">
        <ele>308.6</ele>
        <time>2024-07-25T07:54:02Z</time>
      </trkpt>
      <trkpt lat="43.58208" lon="3.34454">
        <ele>308.9</ele>
        <time>2024-07-25T07:54:03Z</time>
      </trkpt>
      <trkpt lat="43.58211" lon="3.34456">
        <ele>309.3</ele>
        <time>2024-07-25T07:54:04Z</time>
      </trkpt>
      <trkpt lat="43.58213" lon="3.34457">
        <ele>309.6</ele>
        <time>2024-07-25T07:54:05Z</time>
      </trkpt>
      <trkpt lat="43.58215" lon="3.34458">
        <ele>309.9</ele>
        <time>2024-07-25T07:54:06Z</time>
      </trkpt>
      <trkpt lat="43.58217" lon="3.34459">
        <ele>310.2</ele>
        <time>2024-07-25T07:54:07Z</time>
      </trkpt>
      <trkpt lat="43.58219" lon="3.3446">
        <ele>310.5</ele>
        <time>2024-07-25T07:54:08Z</time>
      </trkpt>
      <trkpt lat="43.58221" lon="3.34461">
        <ele>310.7</ele>
        <time>2024-07-25T07:54:09Z</time>
      </trkpt>
      <trkpt lat="43.58223" lon="3.34461">
        <ele>311.1</ele>
        <time>2024-07-25T07:54:10Z</time>
      </trkpt>
      <trkpt lat="43.58226" lon="3.34462">
        <ele>311.3</ele>
        <time>2024-07-25T07:54:11Z</time>
      </trkpt>
      <trkpt lat="43.58228" lon="3.34463">
        <ele>311.4</ele>
        <time>2024-07-25T07:54:12Z</time>
      </trkpt>
      <trkpt lat="43.5823" lon="3.34463">
        <ele>311.7</ele>
        <time>2024-07-25T07:54:13Z</time>
      </trkpt>
      <trkpt lat="43.58232" lon="3.34463">
        <ele>312</ele>
        <time>2024-07-25T07:54:14Z</time>
      </trkpt>
      <trkpt lat="43.58235" lon="3.34463">
        <ele>312.3</ele>
        <time>2024-07-25T07:54:15Z</time>
      </trkpt>
      <trkpt lat="43.58237" lon="3.34464">
        <ele>312.5</ele>
        <time>2024-07-25T07:54:16Z</time>
      </trkpt>
      <trkpt lat="43.58239" lon="3.34464">
        <ele>312.7</ele>
        <time>2024-07-25T07:54:17Z</time>
      </trkpt>
      <trkpt lat="43.58241" lon="3.34464">
        <ele>313</ele>
        <time>2024-07-25T07:54:18Z</time>
      </trkpt>
      <trkpt lat="43.58243" lon="3.34465">
        <ele>313.1</ele>
        <time>2024-07-25T07:54:19Z</time>
      </trkpt>
      <trkpt lat="43.58245" lon="3.34464">
        <ele>313.5</ele>
        <time>2024-07-25T07:54:20Z</time>
      </trkpt>
      <trkpt lat="43.58247" lon="3.34464">
        <ele>313.8</ele>
        <time>2024-07-25T07:54:21Z</time>
      </trkpt>
      <trkpt lat="43.58249" lon="3.34464">
        <ele>314.1</ele>
        <time>2024-07-25T07:54:22Z</time>
      </trkpt>
      <trkpt lat="43.58251" lon="3.34463">
        <ele>314.3</ele>
        <time>2024-07-25T07:54:23Z</time>
      </trkpt>
      <trkpt lat="43.58253" lon="3.34463">
        <ele>314.4</ele>
        <time>2024-07-25T07:54:24Z</time>
      </trkpt>
      <trkpt lat="43.58255" lon="3.34463">
        <ele>314.4</ele>
        <time>2024-07-25T07:54:25Z</time>
      </trkpt>
      <trkpt lat="43.58255" lon="3.34463">
        <ele>314.4</ele>
        <time>2024-07-25T07:54:26Z</time>
      </trkpt>
      <trkpt lat="43.58256" lon="3.34463">
        <ele>314.4</ele>
        <time>2024-07-25T07:54:27Z</time>
      </trkpt>
      <trkpt lat="43.58256" lon="3.34463">
        <ele>314.4</ele>
        <time>2024-07-25T07:54:28Z</time>
      </trkpt>
      <trkpt lat="43.58257" lon="3.34466">
        <ele>314</ele>
        <time>2024-07-25T07:54:59Z</time>
      </trkpt>
      <trkpt lat="43.58257" lon="3.34469">
        <ele>313.5</ele>
        <time>2024-07-25T07:55:00Z</time>
      </trkpt>
      <trkpt lat="43.58257" lon="3.34472">
        <ele>313</ele>
        <time>2024-07-25T07:55:01Z</time>
      </trkpt>
      <trkpt lat="43.58258" lon="3.34474">
        <ele>312.7</ele>
        <time>2024-07-25T07:55:02Z</time>
      </trkpt>
      <trkpt lat="43.58258" lon="3.34476">
        <ele>312.4</ele>
        <time>2024-07-25T07:55:03Z</time>
      </trkpt>
      <trkpt lat="43.58259" lon="3.34478">
        <ele>312.1</ele>
        <time>2024-07-25T07:55:04Z</time>
      </trkpt>
      <trkpt lat="43.5826" lon="3.34481">
        <ele>311.6</ele>
        <time>2024-07-25T07:55:05Z</time>
      </trkpt>
      <trkpt lat="43.58261" lon="3.34483">
        <ele>311.3</ele>
        <time>2024-07-25T07:55:06Z</time>
      </trkpt>
      <trkpt lat="43.58262" lon="3.34485">
        <ele>311</ele>
        <time>2024-07-25T07:55:07Z</time>
      </trkpt>
      <trkpt lat="43.58263" lon="3.34487">
        <ele>310.6</ele>
        <time>2024-07-25T07:55:08Z</time>
      </trkpt>
      <trkpt lat="43.58264" lon="3.34488">
        <ele>310.4</ele>
        <time>2024-07-25T07:55:09Z</time>
      </trkpt>
      <trkpt lat="43.58264" lon="3.3449">
        <ele>310.1</ele>
        <time>2024-07-25T07:55:10Z</time>
      </trkpt>
      <trkpt lat="43.58265" lon="3.34493">
        <ele>309.6</ele>
        <time>2024-07-25T07:55:11Z</time>
      </trkpt>
      <trkpt lat="43.58265" lon="3.34497">
        <ele>309</ele>
        <time>2024-07-25T07:55:12Z</time>
      </trkpt>
      <trkpt lat="43.58267" lon="3.34499">
        <ele>308.6</ele>
        <time>2024-07-25T07:55:13Z</time>
      </trkpt>
      <trkpt lat="43.58268" lon="3.34501">
        <ele>308.2</ele>
        <time>2024-07-25T07:55:14Z</time>
      </trkpt>
      <trkpt lat="43.58269" lon="3.34504">
        <ele>307.6</ele>
        <time>2024-07-25T07:55:15Z</time>
      </trkpt>
      <trkpt lat="43.58271" lon="3.34506">
        <ele>307.2</ele>
        <time>2024-07-25T07:55:16Z</time>
      </trkpt>
      <trkpt lat="43.58271" lon="3.34509">
        <ele>306.6</ele>
        <time>2024-07-25T07:55:17Z</time>
      </trkpt>
      <trkpt lat="43.58272" lon="3.34512">
        <ele>306</ele>
        <time>2024-07-25T07:55:18Z</time>
      </trkpt>
      <trkpt lat="43.58273" lon="3.34515">
        <ele>305.5</ele>
        <time>2024-07-25T07:55:19Z</time>
      </trkpt>
      <trkpt lat="43.58274" lon="3.34517">
        <ele>305.1</ele>
        <time>2024-07-25T07:55:20Z</time>
      </trkpt>
      <trkpt lat="43.58276" lon="3.34519">
        <ele>304.6</ele>
        <time>2024-07-25T07:55:21Z</time>
      </trkpt>
      <trkpt lat="43.58277" lon="3.34521">
        <ele>304.2</ele>
        <time>2024-07-25T07:55:22Z</time>
      </trkpt>
      <trkpt lat="43.58278" lon="3.34522">
        <ele>304</ele>
        <time>2024-07-25T07:55:23Z</time>
      </trkpt>
      <trkpt lat="43.5828" lon="3.34524">
        <ele>303.3</ele>
        <time>2024-07-25T07:55:24Z</time>
      </trkpt>
      <trkpt lat="43.5828" lon="3.34525">
        <ele>303.2</ele>
        <time>2024-07-25T07:55:25Z</time>
      </trkpt>
      <trkpt lat="43.58281" lon="3.34526">
        <ele>302.8</ele>
        <time>2024-07-25T07:55:26Z</time>
      </trkpt>
      <trkpt lat="43.58281" lon="3.34528">
        <ele>302.5</ele>
        <time>2024-07-25T07:55:27Z</time>
      </trkpt>
      <trkpt lat="43.58282" lon="3.3453">
        <ele>301.9</ele>
        <time>2024-07-25T07:55:28Z</time>
      </trkpt>
      <trkpt lat="43.58284" lon="3.34533">
        <ele>300.9</ele>
        <time>2024-07-25T07:55:29Z</time>
      </trkpt>
      <trkpt lat="43.58286" lon="3.34535">
        <ele>300.2</ele>
        <time>2024-07-25T07:55:30Z</time>
      </trkpt>
      <trkpt lat="43.58288" lon="3.34537">
        <ele>299.6</ele>
        <time>2024-07-25T07:55:31Z</time>
      </trkpt>
      <trkpt lat="43.58289" lon="3.34538">
        <ele>299.3</ele>
        <time>2024-07-25T07:55:32Z</time>
      </trkpt>
      <trkpt lat="43.58291" lon="3.34539">
        <ele>298.8</ele>
        <time>2024-07-25T07:55:33Z</time>
      </trkpt>
      <trkpt lat="43.58291" lon="3.34539">
        <ele>298.8</ele>
        <time>2024-07-25T07:55:34Z</time>
      </trkpt>
      <trkpt lat="43.58291" lon="3.34539">
        <ele>298.8</ele>
        <time>2024-07-25T07:55:35Z</time>
      </trkpt>
      <trkpt lat="43.58293" lon="3.3454">
        <ele>298.5</ele>
        <time>2024-07-25T07:55:36Z</time>
      </trkpt>
      <trkpt lat="43.58293" lon="3.34541">
        <ele>298.3</ele>
        <time>2024-07-25T07:55:37Z</time>
      </trkpt>
      <trkpt lat="43.58293" lon="3.34541">
        <ele>298.3</ele>
        <time>2024-07-25T07:55:38Z</time>
      </trkpt>
      <trkpt lat="43.583" lon="3.34554">
        <ele>295.5</ele>
        <time>2024-07-25T07:56:08Z</time>
      </trkpt>
      <trkpt lat="43.58301" lon="3.34555">
        <ele>295.3</ele>
        <time>2024-07-25T07:56:09Z</time>
      </trkpt>
      <trkpt lat="43.58302" lon="3.34557">
        <ele>294.9</ele>
        <time>2024-07-25T07:56:10Z</time>
      </trkpt>
      <trkpt lat="43.58303" lon="3.34559">
        <ele>294.6</ele>
        <time>2024-07-25T07:56:11Z</time>
      </trkpt>
      <trkpt lat="43.58305" lon="3.3456">
        <ele>294.4</ele>
        <time>2024-07-25T07:56:12Z</time>
      </trkpt>
      <trkpt lat="43.58306" lon="3.34562">
        <ele>294</ele>
        <time>2024-07-25T07:56:13Z</time>
      </trkpt>
      <trkpt lat="43.58308" lon="3.34565">
        <ele>293.5</ele>
        <time>2024-07-25T07:56:14Z</time>
      </trkpt>
      <trkpt lat="43.58312" lon="3.34568">
        <ele>292.8</ele>
        <time>2024-07-25T07:56:15Z</time>
      </trkpt>
      <trkpt lat="43.58315" lon="3.3457">
        <ele>292.4</ele>
        <time>2024-07-25T07:56:16Z</time>
      </trkpt>
      <trkpt lat="43.58318" lon="3.34571">
        <ele>292.2</ele>
        <time>2024-07-25T07:56:17Z</time>
      </trkpt>
      <trkpt lat="43.58321" lon="3.34573">
        <ele>291.9</ele>
        <time>2024-07-25T07:56:18Z</time>
      </trkpt>
      <trkpt lat="43.58323" lon="3.34574">
        <ele>291.7</ele>
        <time>2024-07-25T07:56:19Z</time>
      </trkpt>
      <trkpt lat="43.58325" lon="3.34576">
        <ele>291.5</ele>
        <time>2024-07-25T07:56:20Z</time>
      </trkpt>
      <trkpt lat="43.58328" lon="3.34578">
        <ele>291.3</ele>
        <time>2024-07-25T07:56:21Z</time>
      </trkpt>
      <trkpt lat="43.5833" lon="3.3458">
        <ele>291.2</ele>
        <time>2024-07-25T07:56:22Z</time>
      </trkpt>
      <trkpt lat="43.58331" lon="3.34582">
        <ele>291.1</ele>
        <time>2024-07-25T07:56:23Z</time>
      </trkpt>
      <trkpt lat="43.58332" lon="3.34585">
        <ele>290.9</ele>
        <time>2024-07-25T07:56:24Z</time>
      </trkpt>
      <trkpt lat="43.58334" lon="3.34588">
        <ele>290.7</ele>
        <time>2024-07-25T07:56:25Z</time>
      </trkpt>
      <trkpt lat="43.58336" lon="3.34591">
        <ele>290.3</ele>
        <time>2024-07-25T07:56:26Z</time>
      </trkpt>
      <trkpt lat="43.58338" lon="3.34592">
        <ele>290</ele>
        <time>2024-07-25T07:56:27Z</time>
      </trkpt>
      <trkpt lat="43.58339" lon="3.34595">
        <ele>289.8</ele>
        <time>2024-07-25T07:56:28Z</time>
      </trkpt>
      <trkpt lat="43.58341" lon="3.34598">
        <ele>289.5</ele>
        <time>2024-07-25T07:56:29Z</time>
      </trkpt>
      <trkpt lat="43.58342" lon="3.346">
        <ele>289.4</ele>
        <time>2024-07-25T07:56:30Z</time>
      </trkpt>
      <trkpt lat="43.58344" lon="3.34602">
        <ele>289.2</ele>
        <time>2024-07-25T07:56:31Z</time>
      </trkpt>
      <trkpt lat="43.58346" lon="3.34602">
        <ele>289</ele>
        <time>2024-07-25T07:56:32Z</time>
      </trkpt>
      <trkpt lat="43.58348" lon="3.34602">
        <ele>288.8</ele>
        <time>2024-07-25T07:56:33Z</time>
      </trkpt>
      <trkpt lat="43.58349" lon="3.34603">
        <ele>288.7</ele>
        <time>2024-07-25T07:56:34Z</time>
      </trkpt>
      <trkpt lat="43.5835" lon="3.34606">
        <ele>288.7</ele>
        <time>2024-07-25T07:56:35Z</time>
      </trkpt>
      <trkpt lat="43.5835" lon="3.34608">
        <ele>288.7</ele>
        <time>2024-07-25T07:56:36Z</time>
      </trkpt>
      <trkpt lat="43.58351" lon="3.34611">
        <ele>288.7</ele>
        <time>2024-07-25T07:56:37Z</time>
      </trkpt>
      <trkpt lat="43.58351" lon="3.34613">
        <ele>288.7</ele>
        <time>2024-07-25T07:56:38Z</time>
      </trkpt>
      <trkpt lat="43.58351" lon="3.34616">
        <ele>288.6</ele>
        <time>2024-07-25T07:56:39Z</time>
      </trkpt>
      <trkpt lat="43.58351" lon="3.34619">
        <ele>288.5</ele>
        <time>2024-07-25T07:56:40Z</time>
      </trkpt>
      <trkpt lat="43.58351" lon="3.34622">
        <ele>288.4</ele>
        <time>2024-07-25T07:56:41Z</time>
      </trkpt>
      <trkpt lat="43.58352" lon="3.34625">
        <ele>288.3</ele>
        <time>2024-07-25T07:56:42Z</time>
      </trkpt>
      <trkpt lat="43.58352" lon="3.34628">
        <ele>288.3</ele>
        <time>2024-07-25T07:56:43Z</time>
      </trkpt>
      <trkpt lat="43.58352" lon="3.34631">
        <ele>288.2</ele>
        <time>2024-07-25T07:56:44Z</time>
      </trkpt>
      <trkpt lat="43.58351" lon="3.34635">
        <ele>288.1</ele>
        <time>2024-07-25T07:56:45Z</time>
      </trkpt>
      <trkpt lat="43.58351" lon="3.34638">
        <ele>288</ele>
        <time>2024-07-25T07:56:46Z</time>
      </trkpt>
      <trkpt lat="43.58351" lon="3.34641">
        <ele>287.9</ele>
        <time>2024-07-25T07:56:47Z</time>
      </trkpt>
      <trkpt lat="43.58351" lon="3.34645">
        <ele>287.8</ele>
        <time>2024-07-25T07:56:48Z</time>
      </trkpt>
      <trkpt lat="43.5835" lon="3.34649">
        <ele>287.6</ele>
        <time>2024-07-25T07:56:49Z</time>
      </trkpt>
      <trkpt lat="43.58351" lon="3.34653">
        <ele>287.5</ele>
        <time>2024-07-25T07:56:50Z</time>
      </trkpt>
      <trkpt lat="43.58351" lon="3.34657">
        <ele>287.3</ele>
        <time>2024-07-25T07:56:51Z</time>
      </trkpt>
      <trkpt lat="43.58351" lon="3.34662">
        <ele>287.2</ele>
        <time>2024-07-25T07:56:52Z</time>
      </trkpt>
      <trkpt lat="43.5835" lon="3.34666">
        <ele>287</ele>
        <time>2024-07-25T07:56:53Z</time>
      </trkpt>
      <trkpt lat="43.5835" lon="3.3467">
        <ele>287</ele>
        <time>2024-07-25T07:56:54Z</time>
      </trkpt>
      <trkpt lat="43.58351" lon="3.34674">
        <ele>286.9</ele>
        <time>2024-07-25T07:56:55Z</time>
      </trkpt>
      <trkpt lat="43.58351" lon="3.34677">
        <ele>286.9</ele>
        <time>2024-07-25T07:56:56Z</time>
      </trkpt>
      <trkpt lat="43.58351" lon="3.34682">
        <ele>286.8</ele>
        <time>2024-07-25T07:56:57Z</time>
      </trkpt>
      <trkpt lat="43.5835" lon="3.34687">
        <ele>286.7</ele>
        <time>2024-07-25T07:56:58Z</time>
      </trkpt>
      <trkpt lat="43.58351" lon="3.34692">
        <ele>286.7</ele>
        <time>2024-07-25T07:56:59Z</time>
      </trkpt>
      <trkpt lat="43.58351" lon="3.34696">
        <ele>286.6</ele>
        <time>2024-07-25T07:57:00Z</time>
      </trkpt>
      <trkpt lat="43.58351" lon="3.347">
        <ele>286.6</ele>
        <time>2024-07-25T07:57:01Z</time>
      </trkpt>
      <trkpt lat="43.58351" lon="3.34704">
        <ele>286.5</ele>
        <time>2024-07-25T07:57:02Z</time>
      </trkpt>
      <trkpt lat="43.58352" lon="3.34708">
        <ele>286.5</ele>
        <time>2024-07-25T07:57:03Z</time>
      </trkpt>
      <trkpt lat="43.58353" lon="3.34712">
        <ele>286.5</ele>
        <time>2024-07-25T07:57:04Z</time>
      </trkpt>
      <trkpt lat="43.58354" lon="3.34717">
        <ele>286.5</ele>
        <time>2024-07-25T07:57:05Z</time>
      </trkpt>
      <trkpt lat="43.58355" lon="3.34721">
        <ele>286.6</ele>
        <time>2024-07-25T07:57:06Z</time>
      </trkpt>
      <trkpt lat="43.58357" lon="3.34726">
        <ele>286.5</ele>
        <time>2024-07-25T07:57:07Z</time>
      </trkpt>
      <trkpt lat="43.58359" lon="3.34731">
        <ele>286.5</ele>
        <time>2024-07-25T07:57:08Z</time>
      </trkpt>
      <trkpt lat="43.5836" lon="3.34736">
        <ele>286.4</ele>
        <time>2024-07-25T07:57:09Z</time>
      </trkpt>
      <trkpt lat="43.58361" lon="3.3474">
        <ele>286.3</ele>
        <time>2024-07-25T07:57:10Z</time>
      </trkpt>
      <trkpt lat="43.58364" lon="3.34744">
        <ele>285.5</ele>
        <time>2024-07-25T07:57:11Z</time>
      </trkpt>
      <trkpt lat="43.58366" lon="3.3475">
        <ele>284.9</ele>
        <time>2024-07-25T07:57:12Z</time>
      </trkpt>
      <trkpt lat="43.58368" lon="3.34754">
        <ele>284.4</ele>
        <time>2024-07-25T07:57:13Z</time>
      </trkpt>
      <trkpt lat="43.5837" lon="3.34759">
        <ele>283.9</ele>
        <time>2024-07-25T07:57:14Z</time>
      </trkpt>
      <trkpt lat="43.58372" lon="3.34764">
        <ele>283.3</ele>
        <time>2024-07-25T07:57:15Z</time>
      </trkpt>
      <trkpt lat="43.58374" lon="3.34767">
        <ele>282.9</ele>
        <time>2024-07-25T07:57:16Z</time>
      </trkpt>
      <trkpt lat="43.58376" lon="3.34769">
        <ele>282.5</ele>
        <time>2024-07-25T07:57:17Z</time>
      </trkpt>
      <trkpt lat="43.58378" lon="3.34772">
        <ele>282</ele>
        <time>2024-07-25T07:57:18Z</time>
      </trkpt>
      <trkpt lat="43.5838" lon="3.34776">
        <ele>281.6</ele>
        <time>2024-07-25T07:57:19Z</time>
      </trkpt>
      <trkpt lat="43.58383" lon="3.34782">
        <ele>280.9</ele>
        <time>2024-07-25T07:57:20Z</time>
      </trkpt>
      <trkpt lat="43.58385" lon="3.34787">
        <ele>280.3</ele>
        <time>2024-07-25T07:57:21Z</time>
      </trkpt>
      <trkpt lat="43.58386" lon="3.34793">
        <ele>279.9</ele>
        <time>2024-07-25T07:57:22Z</time>
      </trkpt>
      <trkpt lat="43.58388" lon="3.34798">
        <ele>279.4</ele>
        <time>2024-07-25T07:57:23Z</time>
      </trkpt>
      <trkpt lat="43.58389" lon="3.34802">
        <ele>279.1</ele>
        <time>2024-07-25T07:57:24Z</time>
      </trkpt>
      <trkpt lat="43.5839" lon="3.34807">
        <ele>278.5</ele>
        <time>2024-07-25T07:57:25Z</time>
      </trkpt>
      <trkpt lat="43.5839" lon="3.34813">
        <ele>277.9</ele>
        <time>2024-07-25T07:57:26Z</time>
      </trkpt>
      <trkpt lat="43.5839" lon="3.34819">
        <ele>277.2</ele>
        <time>2024-07-25T07:57:27Z</time>
      </trkpt>
      <trkpt lat="43.58391" lon="3.34825">
        <ele>276.3</ele>
        <time>2024-07-25T07:57:28Z</time>
      </trkpt>
      <trkpt lat="43.58391" lon="3.34831">
        <ele>275.7</ele>
        <time>2024-07-25T07:57:29Z</time>
      </trkpt>
      <trkpt lat="43.58391" lon="3.34836">
        <ele>275.1</ele>
        <time>2024-07-25T07:57:30Z</time>
      </trkpt>
      <trkpt lat="43.58391" lon="3.34843">
        <ele>274.1</ele>
        <time>2024-07-25T07:57:31Z</time>
      </trkpt>
      <trkpt lat="43.58391" lon="3.34851">
        <ele>272.9</ele>
        <time>2024-07-25T07:57:32Z</time>
      </trkpt>
      <trkpt lat="43.5839" lon="3.34857">
        <ele>272.3</ele>
        <time>2024-07-25T07:57:33Z</time>
      </trkpt>
      <trkpt lat="43.58389" lon="3.34862">
        <ele>271.8</ele>
        <time>2024-07-25T07:57:34Z</time>
      </trkpt>
      <trkpt lat="43.58389" lon="3.34868">
        <ele>270.7</ele>
        <time>2024-07-25T07:57:35Z</time>
      </trkpt>
      <trkpt lat="43.58388" lon="3.34875">
        <ele>269.6</ele>
        <time>2024-07-25T07:57:36Z</time>
      </trkpt>
      <trkpt lat="43.58387" lon="3.3488">
        <ele>268.9</ele>
        <time>2024-07-25T07:57:37Z</time>
      </trkpt>
      <trkpt lat="43.58385" lon="3.34885">
        <ele>268.2</ele>
        <time>2024-07-25T07:57:38Z</time>
      </trkpt>
      <trkpt lat="43.58383" lon="3.34891">
        <ele>267.5</ele>
        <time>2024-07-25T07:57:39Z</time>
      </trkpt>
      <trkpt lat="43.58382" lon="3.34897">
        <ele>266.5</ele>
        <time>2024-07-25T07:57:40Z</time>
      </trkpt>
      <trkpt lat="43.58381" lon="3.34901">
        <ele>266</ele>
        <time>2024-07-25T07:57:41Z</time>
      </trkpt>
      <trkpt lat="43.5838" lon="3.34906">
        <ele>265.2</ele>
        <time>2024-07-25T07:57:42Z</time>
      </trkpt>
      <trkpt lat="43.58378" lon="3.3491">
        <ele>264.8</ele>
        <time>2024-07-25T07:57:43Z</time>
      </trkpt>
      <trkpt lat="43.58377" lon="3.34915">
        <ele>264</ele>
        <time>2024-07-25T07:57:44Z</time>
      </trkpt>
      <trkpt lat="43.58374" lon="3.34921">
        <ele>263.3</ele>
        <time>2024-07-25T07:57:45Z</time>
      </trkpt>
      <trkpt lat="43.58371" lon="3.34929">
        <ele>262.2</ele>
        <time>2024-07-25T07:57:46Z</time>
      </trkpt>
      <trkpt lat="43.58369" lon="3.34934">
        <ele>261.6</ele>
        <time>2024-07-25T07:57:47Z</time>
      </trkpt>
      <trkpt lat="43.58367" lon="3.3494">
        <ele>260.8</ele>
        <time>2024-07-25T07:57:48Z</time>
      </trkpt>
      <trkpt lat="43.58364" lon="3.34945">
        <ele>260.4</ele>
        <time>2024-07-25T07:57:49Z</time>
      </trkpt>
      <trkpt lat="43.58361" lon="3.34951">
        <ele>259.8</ele>
        <time>2024-07-25T07:57:50Z</time>
      </trkpt>
      <trkpt lat="43.58359" lon="3.34955">
        <ele>259.3</ele>
        <time>2024-07-25T07:57:51Z</time>
      </trkpt>
      <trkpt lat="43.58356" lon="3.3496">
        <ele>258.8</ele>
        <time>2024-07-25T07:57:52Z</time>
      </trkpt>
      <trkpt lat="43.58354" lon="3.34965">
        <ele>258.2</ele>
        <time>2024-07-25T07:57:53Z</time>
      </trkpt>
      <trkpt lat="43.58353" lon="3.34969">
        <ele>257.7</ele>
        <time>2024-07-25T07:57:54Z</time>
      </trkpt>
      <trkpt lat="43.58352" lon="3.34972">
        <ele>257.3</ele>
        <time>2024-07-25T07:57:55Z</time>
      </trkpt>
      <trkpt lat="43.5835" lon="3.34976">
        <ele>257</ele>
        <time>2024-07-25T07:57:56Z</time>
      </trkpt>
      <trkpt lat="43.58348" lon="3.34979">
        <ele>256.8</ele>
        <time>2024-07-25T07:57:57Z</time>
      </trkpt>
      <trkpt lat="43.58345" lon="3.34982">
        <ele>256.8</ele>
        <time>2024-07-25T07:57:58Z</time>
      </trkpt>
      <trkpt lat="43.58343" lon="3.34986">
        <ele>256.5</ele>
        <time>2024-07-25T07:57:59Z</time>
      </trkpt>
      <trkpt lat="43.58341" lon="3.3499">
        <ele>256.2</ele>
        <time>2024-07-25T07:58:00Z</time>
      </trkpt>
      <trkpt lat="43.58339" lon="3.34994">
        <ele>255.9</ele>
        <time>2024-07-25T07:58:01Z</time>
      </trkpt>
      <trkpt lat="43.58336" lon="3.34996">
        <ele>256.1</ele>
        <time>2024-07-25T07:58:02Z</time>
      </trkpt>
      <trkpt lat="43.58333" lon="3.34999">
        <ele>256.1</ele>
        <time>2024-07-25T07:58:03Z</time>
      </trkpt>
      <trkpt lat="43.5833" lon="3.35002">
        <ele>255.7</ele>
        <time>2024-07-25T07:58:04Z</time>
      </trkpt>
      <trkpt lat="43.58327" lon="3.35006">
        <ele>255.2</ele>
        <time>2024-07-25T07:58:05Z</time>
      </trkpt>
      <trkpt lat="43.58325" lon="3.3501">
        <ele>254.7</ele>
        <time>2024-07-25T07:58:06Z</time>
      </trkpt>
      <trkpt lat="43.58322" lon="3.35014">
        <ele>254.2</ele>
        <time>2024-07-25T07:58:07Z</time>
      </trkpt>
      <trkpt lat="43.58319" lon="3.35016">
        <ele>254</ele>
        <time>2024-07-25T07:58:08Z</time>
      </trkpt>
      <trkpt lat="43.58315" lon="3.35017">
        <ele>254</ele>
        <time>2024-07-25T07:58:09Z</time>
      </trkpt>
      <trkpt lat="43.58312" lon="3.35019">
        <ele>253.8</ele>
        <time>2024-07-25T07:58:10Z</time>
      </trkpt>
      <trkpt lat="43.5831" lon="3.35022">
        <ele>253.5</ele>
        <time>2024-07-25T07:58:11Z</time>
      </trkpt>
      <trkpt lat="43.58309" lon="3.35027">
        <ele>253</ele>
        <time>2024-07-25T07:58:12Z</time>
      </trkpt>
      <trkpt lat="43.58309" lon="3.35031">
        <ele>252.5</ele>
        <time>2024-07-25T07:58:13Z</time>
      </trkpt>
      <trkpt lat="43.58309" lon="3.35035">
        <ele>252.1</ele>
        <time>2024-07-25T07:58:14Z</time>
      </trkpt>
      <trkpt lat="43.58308" lon="3.3504">
        <ele>251.6</ele>
        <time>2024-07-25T07:58:15Z</time>
      </trkpt>
      <trkpt lat="43.58308" lon="3.35045">
        <ele>251</ele>
        <time>2024-07-25T07:58:16Z</time>
      </trkpt>
      <trkpt lat="43.58307" lon="3.3505">
        <ele>250.5</ele>
        <time>2024-07-25T07:58:17Z</time>
      </trkpt>
      <trkpt lat="43.58307" lon="3.35055">
        <ele>250</ele>
        <time>2024-07-25T07:58:18Z</time>
      </trkpt>
      <trkpt lat="43.58307" lon="3.35058">
        <ele>249.6</ele>
        <time>2024-07-25T07:58:19Z</time>
      </trkpt>
      <trkpt lat="43.58306" lon="3.35062">
        <ele>249.3</ele>
        <time>2024-07-25T07:58:20Z</time>
      </trkpt>
      <trkpt lat="43.58304" lon="3.35066">
        <ele>248.6</ele>
        <time>2024-07-25T07:58:21Z</time>
      </trkpt>
      <trkpt lat="43.58303" lon="3.3507">
        <ele>248</ele>
        <time>2024-07-25T07:58:22Z</time>
      </trkpt>
      <trkpt lat="43.58302" lon="3.35073">
        <ele>247.5</ele>
        <time>2024-07-25T07:58:23Z</time>
      </trkpt>
      <trkpt lat="43.583" lon="3.35076">
        <ele>246.9</ele>
        <time>2024-07-25T07:58:24Z</time>
      </trkpt>
      <trkpt lat="43.58299" lon="3.35081">
        <ele>246.3</ele>
        <time>2024-07-25T07:58:25Z</time>
      </trkpt>
      <trkpt lat="43.58299" lon="3.35085">
        <ele>245.9</ele>
        <time>2024-07-25T07:58:26Z</time>
      </trkpt>
      <trkpt lat="43.583" lon="3.35088">
        <ele>245.9</ele>
        <time>2024-07-25T07:58:27Z</time>
      </trkpt>
      <trkpt lat="43.58301" lon="3.35091">
        <ele>245.8</ele>
        <time>2024-07-25T07:58:28Z</time>
      </trkpt>
      <trkpt lat="43.58303" lon="3.35095">
        <ele>245.8</ele>
        <time>2024-07-25T07:58:29Z</time>
      </trkpt>
      <trkpt lat="43.58305" lon="3.351">
        <ele>245.7</ele>
        <time>2024-07-25T07:58:30Z</time>
      </trkpt>
      <trkpt lat="43.58306" lon="3.35105">
        <ele>245.4</ele>
        <time>2024-07-25T07:58:31Z</time>
      </trkpt>
      <trkpt lat="43.58307" lon="3.3511">
        <ele>244.9</ele>
        <time>2024-07-25T07:58:32Z</time>
      </trkpt>
      <trkpt lat="43.58309" lon="3.35113">
        <ele>244.3</ele>
        <time>2024-07-25T07:58:33Z</time>
      </trkpt>
      <trkpt lat="43.5831" lon="3.35118">
        <ele>243.7</ele>
        <time>2024-07-25T07:58:34Z</time>
      </trkpt>
      <trkpt lat="43.58311" lon="3.35123">
        <ele>243</ele>
        <time>2024-07-25T07:58:35Z</time>
      </trkpt>
      <trkpt lat="43.58311" lon="3.35128">
        <ele>242.5</ele>
        <time>2024-07-25T07:58:36Z</time>
      </trkpt>
      <trkpt lat="43.58311" lon="3.35133">
        <ele>242</ele>
        <time>2024-07-25T07:58:37Z</time>
      </trkpt>
      <trkpt lat="43.58312" lon="3.35137">
        <ele>241.5</ele>
        <time>2024-07-25T07:58:38Z</time>
      </trkpt>
      <trkpt lat="43.58313" lon="3.35141">
        <ele>240.9</ele>
        <time>2024-07-25T07:58:39Z</time>
      </trkpt>
      <trkpt lat="43.58313" lon="3.35146">
        <ele>240.2</ele>
        <time>2024-07-25T07:58:40Z</time>
      </trkpt>
      <trkpt lat="43.58315" lon="3.35151">
        <ele>239.2</ele>
        <time>2024-07-25T07:58:41Z</time>
      </trkpt>
      <trkpt lat="43.58317" lon="3.35156">
        <ele>238.3</ele>
        <time>2024-07-25T07:58:42Z</time>
      </trkpt>
      <trkpt lat="43.58318" lon="3.35161">
        <ele>237.5</ele>
        <time>2024-07-25T07:58:43Z</time>
      </trkpt>
      <trkpt lat="43.58319" lon="3.35165">
        <ele>236.8</ele>
        <time>2024-07-25T07:58:44Z</time>
      </trkpt>
      <trkpt lat="43.58319" lon="3.35169">
        <ele>236.1</ele>
        <time>2024-07-25T07:58:45Z</time>
      </trkpt>
      <trkpt lat="43.58318" lon="3.35173">
        <ele>235.4</ele>
        <time>2024-07-25T07:58:46Z</time>
      </trkpt>
      <trkpt lat="43.58318" lon="3.35177">
        <ele>234.6</ele>
        <time>2024-07-25T07:58:47Z</time>
      </trkpt>
      <trkpt lat="43.58317" lon="3.35181">
        <ele>233.9</ele>
        <time>2024-07-25T07:58:48Z</time>
      </trkpt>
      <trkpt lat="43.58317" lon="3.35186">
        <ele>232.9</ele>
        <time>2024-07-25T07:58:49Z</time>
      </trkpt>
      <trkpt lat="43.58318" lon="3.35189">
        <ele>232.2</ele>
        <time>2024-07-25T07:58:50Z</time>
      </trkpt>
      <trkpt lat="43.58321" lon="3.35192">
        <ele>231.4</ele>
        <time>2024-07-25T07:58:51Z</time>
      </trkpt>
      <trkpt lat="43.58323" lon="3.35194">
        <ele>230.8</ele>
        <time>2024-07-25T07:58:52Z</time>
      </trkpt>
      <trkpt lat="43.58325" lon="3.35197">
        <ele>230.2</ele>
        <time>2024-07-25T07:58:53Z</time>
      </trkpt>
      <trkpt lat="43.58327" lon="3.35201">
        <ele>229.5</ele>
        <time>2024-07-25T07:58:54Z</time>
      </trkpt>
      <trkpt lat="43.5833" lon="3.35205">
        <ele>228.7</ele>
        <time>2024-07-25T07:58:55Z</time>
      </trkpt>
      <trkpt lat="43.58331" lon="3.35209">
        <ele>228.1</ele>
        <time>2024-07-25T07:58:56Z</time>
      </trkpt>
      <trkpt lat="43.58332" lon="3.35213">
        <ele>227.4</ele>
        <time>2024-07-25T07:58:57Z</time>
      </trkpt>
      <trkpt lat="43.58333" lon="3.35217">
        <ele>226.8</ele>
        <time>2024-07-25T07:58:58Z</time>
      </trkpt>
      <trkpt lat="43.58333" lon="3.35221">
        <ele>226.2</ele>
        <time>2024-07-25T07:58:59Z</time>
      </trkpt>
      <trkpt lat="43.58332" lon="3.35225">
        <ele>225.6</ele>
        <time>2024-07-25T07:59:00Z</time>
      </trkpt>
      <trkpt lat="43.58332" lon="3.35229">
        <ele>224.9</ele>
        <time>2024-07-25T07:59:01Z</time>
      </trkpt>
      <trkpt lat="43.58332" lon="3.35234">
        <ele>224</ele>
        <time>2024-07-25T07:59:02Z</time>
      </trkpt>
      <trkpt lat="43.58332" lon="3.3524">
        <ele>222.9</ele>
        <time>2024-07-25T07:59:03Z</time>
      </trkpt>
      <trkpt lat="43.58334" lon="3.35244">
        <ele>222.1</ele>
        <time>2024-07-25T07:59:04Z</time>
      </trkpt>
      <trkpt lat="43.58335" lon="3.35249">
        <ele>221.2</ele>
        <time>2024-07-25T07:59:05Z</time>
      </trkpt>
      <trkpt lat="43.58335" lon="3.35253">
        <ele>220.6</ele>
        <time>2024-07-25T07:59:06Z</time>
      </trkpt>
      <trkpt lat="43.58333" lon="3.35257">
        <ele>220</ele>
        <time>2024-07-25T07:59:07Z</time>
      </trkpt>
      <trkpt lat="43.58332" lon="3.35261">
        <ele>219.4</ele>
        <time>2024-07-25T07:59:08Z</time>
      </trkpt>
      <trkpt lat="43.58331" lon="3.35266">
        <ele>218.7</ele>
        <time>2024-07-25T07:59:09Z</time>
      </trkpt>
      <trkpt lat="43.5833" lon="3.3527">
        <ele>218.1</ele>
        <time>2024-07-25T07:59:10Z</time>
      </trkpt>
      <trkpt lat="43.58331" lon="3.35274">
        <ele>217.5</ele>
        <time>2024-07-25T07:59:11Z</time>
      </trkpt>
      <trkpt lat="43.58331" lon="3.35277">
        <ele>217</ele>
        <time>2024-07-25T07:59:12Z</time>
      </trkpt>
      <trkpt lat="43.58332" lon="3.35281">
        <ele>216.6</ele>
        <time>2024-07-25T07:59:13Z</time>
      </trkpt>
      <trkpt lat="43.58333" lon="3.35285">
        <ele>216.2</ele>
        <time>2024-07-25T07:59:14Z</time>
      </trkpt>
      <trkpt lat="43.58333" lon="3.35289">
        <ele>215.8</ele>
        <time>2024-07-25T07:59:15Z</time>
      </trkpt>
      <trkpt lat="43.58333" lon="3.35293">
        <ele>215.3</ele>
        <time>2024-07-25T07:59:16Z</time>
      </trkpt>
      <trkpt lat="43.58333" lon="3.35296">
        <ele>215</ele>
        <time>2024-07-25T07:59:17Z</time>
      </trkpt>
      <trkpt lat="43.58332" lon="3.35296">
        <ele>214.8</ele>
        <time>2024-07-25T07:59:18Z</time>
      </trkpt>
      <trkpt lat="43.58332" lon="3.35296">
        <ele>214.8</ele>
        <time>2024-07-25T07:59:19Z</time>
      </trkpt>
      <trkpt lat="43.58336" lon="3.35305">
        <ele>214.3</ele>
        <time>2024-07-25T08:05:05Z</time>
      </trkpt>
      <trkpt lat="43.58336" lon="3.35311">
        <ele>214.1</ele>
        <time>2024-07-25T08:05:06Z</time>
      </trkpt>
      <trkpt lat="43.58335" lon="3.35317">
        <ele>213.8</ele>
        <time>2024-07-25T08:05:07Z</time>
      </trkpt>
      <trkpt lat="43.58333" lon="3.35323">
        <ele>213.3</ele>
        <time>2024-07-25T08:05:08Z</time>
      </trkpt>
      <trkpt lat="43.58331" lon="3.3533">
        <ele>212.5</ele>
        <time>2024-07-25T08:05:09Z</time>
      </trkpt>
      <trkpt lat="43.5833" lon="3.35338">
        <ele>212.1</ele>
        <time>2024-07-25T08:05:10Z</time>
      </trkpt>
      <trkpt lat="43.58329" lon="3.35345">
        <ele>211.8</ele>
        <time>2024-07-25T08:05:11Z</time>
      </trkpt>
      <trkpt lat="43.58328" lon="3.35353">
        <ele>211.6</ele>
        <time>2024-07-25T08:05:12Z</time>
      </trkpt>
      <trkpt lat="43.58328" lon="3.35361">
        <ele>211.7</ele>
        <time>2024-07-25T08:05:13Z</time>
      </trkpt>
      <trkpt lat="43.58327" lon="3.3537">
        <ele>211.1</ele>
        <time>2024-07-25T08:05:14Z</time>
      </trkpt>
      <trkpt lat="43.58327" lon="3.3538">
        <ele>210.7</ele>
        <time>2024-07-25T08:05:15Z</time>
      </trkpt>
      <trkpt lat="43.58327" lon="3.35388">
        <ele>210.4</ele>
        <time>2024-07-25T08:05:16Z</time>
      </trkpt>
      <trkpt lat="43.58327" lon="3.35394">
        <ele>210.3</ele>
        <time>2024-07-25T08:05:17Z</time>
      </trkpt>
      <trkpt lat="43.58327" lon="3.35398">
        <ele>210.2</ele>
        <time>2024-07-25T08:05:18Z</time>
      </trkpt>
      <trkpt lat="43.58327" lon="3.35401">
        <ele>210.1</ele>
        <time>2024-07-25T08:05:19Z</time>
      </trkpt>
      <trkpt lat="43.58326" lon="3.35402">
        <ele>209.8</ele>
        <time>2024-07-25T08:05:20Z</time>
      </trkpt>
      <trkpt lat="43.58326" lon="3.35405">
        <ele>209.7</ele>
        <time>2024-07-25T08:05:21Z</time>
      </trkpt>
      <trkpt lat="43.58326" lon="3.35407">
        <ele>209.7</ele>
        <time>2024-07-25T08:05:22Z</time>
      </trkpt>
      <trkpt lat="43.58327" lon="3.35409">
        <ele>209.8</ele>
        <time>2024-07-25T08:05:23Z</time>
      </trkpt>
      <trkpt lat="43.58327" lon="3.35409">
        <ele>209.8</ele>
        <time>2024-07-25T08:05:24Z</time>
      </trkpt>
      <trkpt lat="43.58327" lon="3.35409">
        <ele>209.8</ele>
        <time>2024-07-25T08:05:25Z</time>
      </trkpt>
      <trkpt lat="43.58322" lon="3.35407">
        <ele>208.8</ele>
        <time>2024-07-25T08:06:12Z</time>
      </trkpt>
      <trkpt lat="43.58319" lon="3.35407">
        <ele>208.1</ele>
        <time>2024-07-25T08:06:13Z</time>
      </trkpt>
      <trkpt lat="43.58317" lon="3.35408">
        <ele>207.6</ele>
        <time>2024-07-25T08:06:14Z</time>
      </trkpt>
      <trkpt lat="43.58314" lon="3.3541">
        <ele>206.9</ele>
        <time>2024-07-25T08:06:15Z</time>
      </trkpt>
      <trkpt lat="43.58311" lon="3.35412">
        <ele>206.2</ele>
        <time>2024-07-25T08:06:16Z</time>
      </trkpt>
      <trkpt lat="43.58309" lon="3.35413">
        <ele>205.8</ele>
        <time>2024-07-25T08:06:17Z</time>
      </trkpt>
      <trkpt lat="43.58307" lon="3.35414">
        <ele>205.3</ele>
        <time>2024-07-25T08:06:18Z</time>
      </trkpt>
      <trkpt lat="43.58305" lon="3.35415">
        <ele>204.8</ele>
        <time>2024-07-25T08:06:19Z</time>
      </trkpt>
      <trkpt lat="43.58303" lon="3.35415">
        <ele>204.2</ele>
        <time>2024-07-25T08:06:20Z</time>
      </trkpt>
      <trkpt lat="43.58301" lon="3.35415">
        <ele>203.5</ele>
        <time>2024-07-25T08:06:21Z</time>
      </trkpt>
      <trkpt lat="43.58298" lon="3.35417">
        <ele>202.5</ele>
        <time>2024-07-25T08:06:22Z</time>
      </trkpt>
      <trkpt lat="43.58295" lon="3.35418">
        <ele>201.5</ele>
        <time>2024-07-25T08:06:23Z</time>
      </trkpt>
      <trkpt lat="43.58292" lon="3.3542">
        <ele>200.4</ele>
        <time>2024-07-25T08:06:24Z</time>
      </trkpt>
      <trkpt lat="43.58289" lon="3.35421">
        <ele>199.3</ele>
        <time>2024-07-25T08:06:25Z</time>
      </trkpt>
      <trkpt lat="43.58287" lon="3.35422">
        <ele>198.6</ele>
        <time>2024-07-25T08:06:26Z</time>
      </trkpt>
      <trkpt lat="43.58286" lon="3.35423">
        <ele>198.2</ele>
        <time>2024-07-25T08:06:27Z</time>
      </trkpt>
      <trkpt lat="43.58285" lon="3.35423">
        <ele>197.9</ele>
        <time>2024-07-25T08:06:28Z</time>
      </trkpt>
      <trkpt lat="43.58284" lon="3.35424">
        <ele>197.5</ele>
        <time>2024-07-25T08:06:29Z</time>
      </trkpt>
      <trkpt lat="43.58284" lon="3.35424">
        <ele>197.5</ele>
        <time>2024-07-25T08:06:30Z</time>
      </trkpt>
      <trkpt lat="43.58283" lon="3.35424">
        <ele>197.2</ele>
        <time>2024-07-25T08:06:31Z</time>
      </trkpt>
      <trkpt lat="43.58282" lon="3.35425">
        <ele>196.8</ele>
        <time>2024-07-25T08:06:32Z</time>
      </trkpt>
      <trkpt lat="43.58282" lon="3.35425">
        <ele>196.8</ele>
        <time>2024-07-25T08:06:33Z</time>
      </trkpt>
      <trkpt lat="43.58282" lon="3.35426">
        <ele>196.7</ele>
        <time>2024-07-25T08:06:34Z</time>
      </trkpt>
      <trkpt lat="43.58282" lon="3.35426">
        <ele>196.7</ele>
        <time>2024-07-25T08:06:35Z</time>
      </trkpt>
      <trkpt lat="43.58281" lon="3.35427">
        <ele>196.3</ele>
        <time>2024-07-25T08:06:36Z</time>
      </trkpt>
      <trkpt lat="43.58281" lon="3.35427">
        <ele>196.3</ele>
        <time>2024-07-25T08:06:37Z</time>
      </trkpt>
      <trkpt lat="43.58281" lon="3.35428">
        <ele>196.2</ele>
        <time>2024-07-25T08:06:38Z</time>
      </trkpt>
      <trkpt lat="43.5828" lon="3.35428">
        <ele>195.9</ele>
        <time>2024-07-25T08:06:39Z</time>
      </trkpt>
      <trkpt lat="43.58279" lon="3.35428">
        <ele>195.6</ele>
        <time>2024-07-25T08:06:40Z</time>
      </trkpt>
      <trkpt lat="43.58277" lon="3.35428">
        <ele>194.8</ele>
        <time>2024-07-25T08:06:41Z</time>
      </trkpt>
      <trkpt lat="43.58276" lon="3.35429">
        <ele>194.3</ele>
        <time>2024-07-25T08:06:42Z</time>
      </trkpt>
      <trkpt lat="43.58273" lon="3.3543">
        <ele>193</ele>
        <time>2024-07-25T08:06:43Z</time>
      </trkpt>
      <trkpt lat="43.58271" lon="3.35431">
        <ele>192</ele>
        <time>2024-07-25T08:06:44Z</time>
      </trkpt>
      <trkpt lat="43.58269" lon="3.35432">
        <ele>191.1</ele>
        <time>2024-07-25T08:06:45Z</time>
      </trkpt>
      <trkpt lat="43.58267" lon="3.35433">
        <ele>190.2</ele>
        <time>2024-07-25T08:06:46Z</time>
      </trkpt>
      <trkpt lat="43.58265" lon="3.35433">
        <ele>189.4</ele>
        <time>2024-07-25T08:06:47Z</time>
      </trkpt>
      <trkpt lat="43.58263" lon="3.35432">
        <ele>188.6</ele>
        <time>2024-07-25T08:06:48Z</time>
      </trkpt>
      <trkpt lat="43.58262" lon="3.35431">
        <ele>188.2</ele>
        <time>2024-07-25T08:06:49Z</time>
      </trkpt>
      <trkpt lat="43.58261" lon="3.3543">
        <ele>187.8</ele>
        <time>2024-07-25T08:06:50Z</time>
      </trkpt>
      <trkpt lat="43.5826" lon="3.3543">
        <ele>187.3</ele>
        <time>2024-07-25T08:06:51Z</time>
      </trkpt>
      <trkpt lat="43.58259" lon="3.35429">
        <ele>186.9</ele>
        <time>2024-07-25T08:06:52Z</time>
      </trkpt>
      <trkpt lat="43.58258" lon="3.35428">
        <ele>186.5</ele>
        <time>2024-07-25T08:06:53Z</time>
      </trkpt>
      <trkpt lat="43.58256" lon="3.35427">
        <ele>185.6</ele>
        <time>2024-07-25T08:06:54Z</time>
      </trkpt>
      <trkpt lat="43.58253" lon="3.35427">
        <ele>184.3</ele>
        <time>2024-07-25T08:06:55Z</time>
      </trkpt>
      <trkpt lat="43.58251" lon="3.35426">
        <ele>183.4</ele>
        <time>2024-07-25T08:06:56Z</time>
      </trkpt>
      <trkpt lat="43.58249" lon="3.35426">
        <ele>182.6</ele>
        <time>2024-07-25T08:06:57Z</time>
      </trkpt>
      <trkpt lat="43.58247" lon="3.35426">
        <ele>181.8</ele>
        <time>2024-07-25T08:06:58Z</time>
      </trkpt>
      <trkpt lat="43.58246" lon="3.35426">
        <ele>181.4</ele>
        <time>2024-07-25T08:06:59Z</time>
      </trkpt>
      <trkpt lat="43.58246" lon="3.35426">
        <ele>181.4</ele>
        <time>2024-07-25T08:07:00Z</time>
      </trkpt>
      <trkpt lat="43.58245" lon="3.35426">
        <ele>181</ele>
        <time>2024-07-25T08:07:01Z</time>
      </trkpt>
      <trkpt lat="43.58244" lon="3.35426">
        <ele>180.6</ele>
        <time>2024-07-25T08:07:02Z</time>
      </trkpt>
      <trkpt lat="43.58242" lon="3.35426">
        <ele>179.8</ele>
        <time>2024-07-25T08:07:03Z</time>
      </trkpt>
      <trkpt lat="43.58242" lon="3.35426">
        <ele>179.8</ele>
        <time>2024-07-25T08:07:04Z</time>
      </trkpt>
      <trkpt lat="43.5824" lon="3.35425">
        <ele>179</ele>
        <time>2024-07-25T08:07:05Z</time>
      </trkpt>
      <trkpt lat="43.58239" lon="3.35425">
        <ele>178.6</ele>
        <time>2024-07-25T08:07:06Z</time>
      </trkpt>
      <trkpt lat="43.58238" lon="3.35426">
        <ele>178.2</ele>
        <time>2024-07-25T08:07:07Z</time>
      </trkpt>
      <trkpt lat="43.58237" lon="3.35428">
        <ele>177.9</ele>
        <time>2024-07-25T08:07:08Z</time>
      </trkpt>
      <trkpt lat="43.58237" lon="3.3543">
        <ele>177.9</ele>
        <time>2024-07-25T08:07:09Z</time>
      </trkpt>
      <trkpt lat="43.58237" lon="3.35432">
        <ele>177.9</ele>
        <time>2024-07-25T08:07:10Z</time>
      </trkpt>
      <trkpt lat="43.58236" lon="3.35434">
        <ele>177.5</ele>
        <time>2024-07-25T08:07:11Z</time>
      </trkpt>
      <trkpt lat="43.58235" lon="3.35434">
        <ele>177.1</ele>
        <time>2024-07-25T08:07:12Z</time>
      </trkpt>
      <trkpt lat="43.58234" lon="3.35435">
        <ele>176.7</ele>
        <time>2024-07-25T08:07:13Z</time>
      </trkpt>
      <trkpt lat="43.58233" lon="3.35436">
        <ele>176.3</ele>
        <time>2024-07-25T08:07:14Z</time>
      </trkpt>
      <trkpt lat="43.58233" lon="3.35437">
        <ele>176.3</ele>
        <time>2024-07-25T08:07:15Z</time>
      </trkpt>
      <trkpt lat="43.58224" lon="3.35435">
        <ele>172.7</ele>
        <time>2024-07-25T08:07:37Z</time>
      </trkpt>
      <trkpt lat="43.58222" lon="3.35437">
        <ele>171.9</ele>
        <time>2024-07-25T08:07:38Z</time>
      </trkpt>
      <trkpt lat="43.58221" lon="3.3544">
        <ele>171.6</ele>
        <time>2024-07-25T08:07:39Z</time>
      </trkpt>
      <trkpt lat="43.5822" lon="3.35442">
        <ele>171.3</ele>
        <time>2024-07-25T08:07:40Z</time>
      </trkpt>
      <trkpt lat="43.5822" lon="3.35445">
        <ele>171.2</ele>
        <time>2024-07-25T08:07:41Z</time>
      </trkpt>
      <trkpt lat="43.58219" lon="3.35446">
        <ele>170.8</ele>
        <time>2024-07-25T08:07:42Z</time>
      </trkpt>
      <trkpt lat="43.58218" lon="3.35448">
        <ele>170.3</ele>
        <time>2024-07-25T08:07:43Z</time>
      </trkpt>
      <trkpt lat="43.58218" lon="3.35449">
        <ele>170.2</ele>
        <time>2024-07-25T08:07:44Z</time>
      </trkpt>
      <trkpt lat="43.58218" lon="3.35448">
        <ele>170.3</ele>
        <time>2024-07-25T08:07:45Z</time>
      </trkpt>
      <trkpt lat="43.58206" lon="3.35458">
        <ele>166.1</ele>
        <time>2024-07-25T08:08:17Z</time>
      </trkpt>
      <trkpt lat="43.58205" lon="3.3546">
        <ele>165.8</ele>
        <time>2024-07-25T08:08:18Z</time>
      </trkpt>
      <trkpt lat="43.58204" lon="3.3546">
        <ele>165.5</ele>
        <time>2024-07-25T08:08:19Z</time>
      </trkpt>
      <trkpt lat="43.58202" lon="3.3546">
        <ele>165</ele>
        <time>2024-07-25T08:08:20Z</time>
      </trkpt>
      <trkpt lat="43.58201" lon="3.35461">
        <ele>164.7</ele>
        <time>2024-07-25T08:08:21Z</time>
      </trkpt>
      <trkpt lat="43.58201" lon="3.35462">
        <ele>164.7</ele>
        <time>2024-07-25T08:08:22Z</time>
      </trkpt>
      <trkpt lat="43.58201" lon="3.35463">
        <ele>164.7</ele>
        <time>2024-07-25T08:08:23Z</time>
      </trkpt>
      <trkpt lat="43.58201" lon="3.35463">
        <ele>164.7</ele>
        <time>2024-07-25T08:08:24Z</time>
      </trkpt>
      <trkpt lat="43.58196" lon="3.35477">
        <ele>162.8</ele>
        <time>2024-07-25T08:09:15Z</time>
      </trkpt>
      <trkpt lat="43.58194" lon="3.35481">
        <ele>162.2</ele>
        <time>2024-07-25T08:09:16Z</time>
      </trkpt>
      <trkpt lat="43.58192" lon="3.35486">
        <ele>162.6</ele>
        <time>2024-07-25T08:09:17Z</time>
      </trkpt>
      <trkpt lat="43.5819" lon="3.35492">
        <ele>163</ele>
        <time>2024-07-25T08:09:18Z</time>
      </trkpt>
      <trkpt lat="43.58189" lon="3.35498">
        <ele>162.9</ele>
        <time>2024-07-25T08:09:19Z</time>
      </trkpt>
      <trkpt lat="43.58188" lon="3.35504">
        <ele>162.8</ele>
        <time>2024-07-25T08:09:20Z</time>
      </trkpt>
      <trkpt lat="43.58187" lon="3.35511">
        <ele>162.7</ele>
        <time>2024-07-25T08:09:21Z</time>
      </trkpt>
      <trkpt lat="43.58186" lon="3.35519">
        <ele>162.4</ele>
        <time>2024-07-25T08:09:22Z</time>
      </trkpt>
      <trkpt lat="43.58185" lon="3.35526">
        <ele>162.3</ele>
        <time>2024-07-25T08:09:23Z</time>
      </trkpt>
      <trkpt lat="43.58185" lon="3.35534">
        <ele>161.9</ele>
        <time>2024-07-25T08:09:24Z</time>
      </trkpt>
      <trkpt lat="43.58184" lon="3.3554">
        <ele>162.2</ele>
        <time>2024-07-25T08:09:25Z</time>
      </trkpt>
      <trkpt lat="43.58183" lon="3.35546">
        <ele>162.5</ele>
        <time>2024-07-25T08:09:26Z</time>
      </trkpt>
      <trkpt lat="43.58183" lon="3.35551">
        <ele>162.3</ele>
        <time>2024-07-25T08:09:27Z</time>
      </trkpt>
      <trkpt lat="43.58183" lon="3.35556">
        <ele>162.2</ele>
        <time>2024-07-25T08:09:28Z</time>
      </trkpt>
      <trkpt lat="43.58182" lon="3.35562">
        <ele>162.4</ele>
        <time>2024-07-25T08:09:29Z</time>
      </trkpt>
      <trkpt lat="43.58182" lon="3.35568">
        <ele>162</ele>
        <time>2024-07-25T08:09:30Z</time>
      </trkpt>
      <trkpt lat="43.58182" lon="3.35575">
        <ele>161.6</ele>
        <time>2024-07-25T08:09:31Z</time>
      </trkpt>
      <trkpt lat="43.58181" lon="3.35581">
        <ele>161.9</ele>
        <time>2024-07-25T08:09:32Z</time>
      </trkpt>
      <trkpt lat="43.5818" lon="3.35587">
        <ele>162.2</ele>
        <time>2024-07-25T08:09:33Z</time>
      </trkpt>
      <trkpt lat="43.58179" lon="3.35593">
        <ele>162.5</ele>
        <time>2024-07-25T08:09:34Z</time>
      </trkpt>
      <trkpt lat="43.58179" lon="3.35599">
        <ele>162.3</ele>
        <time>2024-07-25T08:09:35Z</time>
      </trkpt>
      <trkpt lat="43.58177" lon="3.35605">
        <ele>163.1</ele>
        <time>2024-07-25T08:09:36Z</time>
      </trkpt>
      <trkpt lat="43.58176" lon="3.35611">
        <ele>163.3</ele>
        <time>2024-07-25T08:09:37Z</time>
      </trkpt>
      <trkpt lat="43.58174" lon="3.35617">
        <ele>163.8</ele>
        <time>2024-07-25T08:09:38Z</time>
      </trkpt>
      <trkpt lat="43.58171" lon="3.35623">
        <ele>164.7</ele>
        <time>2024-07-25T08:09:39Z</time>
      </trkpt>
      <trkpt lat="43.58169" lon="3.3563">
        <ele>164.9</ele>
        <time>2024-07-25T08:09:40Z</time>
      </trkpt>
      <trkpt lat="43.58167" lon="3.35636">
        <ele>165.2</ele>
        <time>2024-07-25T08:09:41Z</time>
      </trkpt>
      <trkpt lat="43.58165" lon="3.35642">
        <ele>165.3</ele>
        <time>2024-07-25T08:09:42Z</time>
      </trkpt>
      <trkpt lat="43.58162" lon="3.35647">
        <ele>165.9</ele>
        <time>2024-07-25T08:09:43Z</time>
      </trkpt>
      <trkpt lat="43.5816" lon="3.35652">
        <ele>166</ele>
        <time>2024-07-25T08:09:44Z</time>
      </trkpt>
      <trkpt lat="43.58158" lon="3.35658">
        <ele>165.9</ele>
        <time>2024-07-25T08:09:45Z</time>
      </trkpt>
      <trkpt lat="43.58156" lon="3.35663">
        <ele>165.9</ele>
        <time>2024-07-25T08:09:46Z</time>
      </trkpt>
      <trkpt lat="43.58153" lon="3.35668">
        <ele>166.2</ele>
        <time>2024-07-25T08:09:47Z</time>
      </trkpt>
      <trkpt lat="43.58151" lon="3.35673">
        <ele>166</ele>
        <time>2024-07-25T08:09:48Z</time>
      </trkpt>
      <trkpt lat="43.58148" lon="3.35678">
        <ele>166.2</ele>
        <time>2024-07-25T08:09:49Z</time>
      </trkpt>
      <trkpt lat="43.58145" lon="3.35683">
        <ele>166.3</ele>
        <time>2024-07-25T08:09:50Z</time>
      </trkpt>
      <trkpt lat="43.58143" lon="3.35688">
        <ele>166</ele>
        <time>2024-07-25T08:09:51Z</time>
      </trkpt>
      <trkpt lat="43.5814" lon="3.35692">
        <ele>166.2</ele>
        <time>2024-07-25T08:09:52Z</time>
      </trkpt>
      <trkpt lat="43.58138" lon="3.35697">
        <ele>165.9</ele>
        <time>2024-07-25T08:09:53Z</time>
      </trkpt>
      <trkpt lat="43.58136" lon="3.35702">
        <ele>165.7</ele>
        <time>2024-07-25T08:09:54Z</time>
      </trkpt>
      <trkpt lat="43.58133" lon="3.35709">
        <ele>165.7</ele>
        <time>2024-07-25T08:09:55Z</time>
      </trkpt>
      <trkpt lat="43.58131" lon="3.35715">
        <ele>165.5</ele>
        <time>2024-07-25T08:09:56Z</time>
      </trkpt>
      <trkpt lat="43.5813" lon="3.35719">
        <ele>165.1</ele>
        <time>2024-07-25T08:09:57Z</time>
      </trkpt>
      <trkpt lat="43.58129" lon="3.35724">
        <ele>164.7</ele>
        <time>2024-07-25T08:09:58Z</time>
      </trkpt>
      <trkpt lat="43.58128" lon="3.35729">
        <ele>164.4</ele>
        <time>2024-07-25T08:09:59Z</time>
      </trkpt>
      <trkpt lat="43.58127" lon="3.35734">
        <ele>164.1</ele>
        <time>2024-07-25T08:10:00Z</time>
      </trkpt>
      <trkpt lat="43.58125" lon="3.35739">
        <ele>164.3</ele>
        <time>2024-07-25T08:10:01Z</time>
      </trkpt>
      <trkpt lat="43.58124" lon="3.35744">
        <ele>163.9</ele>
        <time>2024-07-25T08:10:02Z</time>
      </trkpt>
      <trkpt lat="43.58123" lon="3.35751">
        <ele>163.3</ele>
        <time>2024-07-25T08:10:03Z</time>
      </trkpt>
      <trkpt lat="43.58122" lon="3.35757">
        <ele>162.6</ele>
        <time>2024-07-25T08:10:04Z</time>
      </trkpt>
      <trkpt lat="43.5812" lon="3.35763">
        <ele>162.3</ele>
        <time>2024-07-25T08:10:05Z</time>
      </trkpt>
      <trkpt lat="43.58118" lon="3.3577">
        <ele>161.8</ele>
        <time>2024-07-25T08:10:06Z</time>
      </trkpt>
      <trkpt lat="43.58117" lon="3.35776">
        <ele>161</ele>
        <time>2024-07-25T08:10:07Z</time>
      </trkpt>
      <trkpt lat="43.58114" lon="3.35782">
        <ele>161.1</ele>
        <time>2024-07-25T08:10:08Z</time>
      </trkpt>
      <trkpt lat="43.58112" lon="3.35789">
        <ele>160.6</ele>
        <time>2024-07-25T08:10:09Z</time>
      </trkpt>
      <trkpt lat="43.58109" lon="3.35797">
        <ele>160.3</ele>
        <time>2024-07-25T08:10:10Z</time>
      </trkpt>
      <trkpt lat="43.58106" lon="3.35803">
        <ele>160.3</ele>
        <time>2024-07-25T08:10:11Z</time>
      </trkpt>
      <trkpt lat="43.58103" lon="3.3581">
        <ele>159.9</ele>
        <time>2024-07-25T08:10:12Z</time>
      </trkpt>
      <trkpt lat="43.581" lon="3.35817">
        <ele>159.4</ele>
        <time>2024-07-25T08:10:13Z</time>
      </trkpt>
      <trkpt lat="43.58097" lon="3.35823">
        <ele>159</ele>
        <time>2024-07-25T08:10:14Z</time>
      </trkpt>
      <trkpt lat="43.58094" lon="3.3583">
        <ele>158.3</ele>
        <time>2024-07-25T08:10:15Z</time>
      </trkpt>
      <trkpt lat="43.58091" lon="3.35837">
        <ele>157.6</ele>
        <time>2024-07-25T08:10:16Z</time>
      </trkpt>
      <trkpt lat="43.58088" lon="3.35843">
        <ele>157.2</ele>
        <time>2024-07-25T08:10:17Z</time>
      </trkpt>
      <trkpt lat="43.58085" lon="3.35849">
        <ele>157</ele>
        <time>2024-07-25T08:10:18Z</time>
      </trkpt>
      <trkpt lat="43.58083" lon="3.35855">
        <ele>156.4</ele>
        <time>2024-07-25T08:10:19Z</time>
      </trkpt>
      <trkpt lat="43.5808" lon="3.35861">
        <ele>156.1</ele>
        <time>2024-07-25T08:10:20Z</time>
      </trkpt>
      <trkpt lat="43.58077" lon="3.35867">
        <ele>155.8</ele>
        <time>2024-07-25T08:10:21Z</time>
      </trkpt>
      <trkpt lat="43.58074" lon="3.35874">
        <ele>155.2</ele>
        <time>2024-07-25T08:10:22Z</time>
      </trkpt>
      <trkpt lat="43.58071" lon="3.35881">
        <ele>154.7</ele>
        <time>2024-07-25T08:10:23Z</time>
      </trkpt>
      <trkpt lat="43.58068" lon="3.3589">
        <ele>153.7</ele>
        <time>2024-07-25T08:10:24Z</time>
      </trkpt>
      <trkpt lat="43.58064" lon="3.35899">
        <ele>152.6</ele>
        <time>2024-07-25T08:10:25Z</time>
      </trkpt>
      <trkpt lat="43.5806" lon="3.35908">
        <ele>151.6</ele>
        <time>2024-07-25T08:10:26Z</time>
      </trkpt>
      <trkpt lat="43.58055" lon="3.35918">
        <ele>150.9</ele>
        <time>2024-07-25T08:10:27Z</time>
      </trkpt>
      <trkpt lat="43.58051" lon="3.35929">
        <ele>149.8</ele>
        <time>2024-07-25T08:10:28Z</time>
      </trkpt>
      <trkpt lat="43.58046" lon="3.3594">
        <ele>149.1</ele>
        <time>2024-07-25T08:10:29Z</time>
      </trkpt>
      <trkpt lat="43.5804" lon="3.35951">
        <ele>148.3</ele>
        <time>2024-07-25T08:10:30Z</time>
      </trkpt>
      <trkpt lat="43.58034" lon="3.35962">
        <ele>147.4</ele>
        <time>2024-07-25T08:10:31Z</time>
      </trkpt>
      <trkpt lat="43.58028" lon="3.35973">
        <ele>146.7</ele>
        <time>2024-07-25T08:10:32Z</time>
      </trkpt>
      <trkpt lat="43.58022" lon="3.35984">
        <ele>146</ele>
        <time>2024-07-25T08:10:33Z</time>
      </trkpt>
      <trkpt lat="43.58016" lon="3.35995">
        <ele>145.4</ele>
        <time>2024-07-25T08:10:34Z</time>
      </trkpt>
      <trkpt lat="43.5801" lon="3.36006">
        <ele>144.9</ele>
        <time>2024-07-25T08:10:35Z</time>
      </trkpt>
      <trkpt lat="43.58004" lon="3.36017">
        <ele>144.6</ele>
        <time>2024-07-25T08:10:36Z</time>
      </trkpt>
      <trkpt lat="43.57998" lon="3.36029">
        <ele>144.3</ele>
        <time>2024-07-25T08:10:37Z</time>
      </trkpt>
      <trkpt lat="43.57992" lon="3.3604">
        <ele>143.6</ele>
        <time>2024-07-25T08:10:38Z</time>
      </trkpt>
      <trkpt lat="43.57986" lon="3.36051">
        <ele>143.1</ele>
        <time>2024-07-25T08:10:39Z</time>
      </trkpt>
      <trkpt lat="43.5798" lon="3.36062">
        <ele>143</ele>
        <time>2024-07-25T08:10:40Z</time>
      </trkpt>
      <trkpt lat="43.57974" lon="3.36072">
        <ele>143.4</ele>
        <time>2024-07-25T08:10:41Z</time>
      </trkpt>
      <trkpt lat="43.57969" lon="3.36081">
        <ele>143.4</ele>
        <time>2024-07-25T08:10:42Z</time>
      </trkpt>
      <trkpt lat="43.57965" lon="3.3609">
        <ele>142.7</ele>
        <time>2024-07-25T08:10:43Z</time>
      </trkpt>
      <trkpt lat="43.5796" lon="3.36098">
        <ele>142.6</ele>
        <time>2024-07-25T08:10:44Z</time>
      </trkpt>
      <trkpt lat="43.57956" lon="3.36106">
        <ele>142.3</ele>
        <time>2024-07-25T08:10:45Z</time>
      </trkpt>
      <trkpt lat="43.57952" lon="3.36113">
        <ele>142.2</ele>
        <time>2024-07-25T08:10:46Z</time>
      </trkpt>
      <trkpt lat="43.57948" lon="3.36118">
        <ele>142.6</ele>
        <time>2024-07-25T08:10:47Z</time>
      </trkpt>
      <trkpt lat="43.57946" lon="3.36122">
        <ele>142.5</ele>
        <time>2024-07-25T08:10:48Z</time>
      </trkpt>
      <trkpt lat="43.57944" lon="3.36125">
        <ele>142.5</ele>
        <time>2024-07-25T08:10:49Z</time>
      </trkpt>
      <trkpt lat="43.57942" lon="3.36128">
        <ele>142.1</ele>
        <time>2024-07-25T08:10:50Z</time>
      </trkpt>
      <trkpt lat="43.57939" lon="3.36131">
        <ele>141.7</ele>
        <time>2024-07-25T08:10:51Z</time>
      </trkpt>
      <trkpt lat="43.57936" lon="3.36135">
        <ele>141.1</ele>
        <time>2024-07-25T08:10:52Z</time>
      </trkpt>
      <trkpt lat="43.57933" lon="3.36139">
        <ele>140.4</ele>
        <time>2024-07-25T08:10:53Z</time>
      </trkpt>
      <trkpt lat="43.57928" lon="3.36141">
        <ele>140.2</ele>
        <time>2024-07-25T08:10:54Z</time>
      </trkpt>
      <trkpt lat="43.57924" lon="3.36143">
        <ele>139.9</ele>
        <time>2024-07-25T08:10:55Z</time>
      </trkpt>
      <trkpt lat="43.57918" lon="3.36144">
        <ele>139.9</ele>
        <time>2024-07-25T08:10:56Z</time>
      </trkpt>
      <trkpt lat="43.57912" lon="3.36145">
        <ele>139.2</ele>
        <time>2024-07-25T08:10:57Z</time>
      </trkpt>
      <trkpt lat="43.57905" lon="3.36146">
        <ele>138.4</ele>
        <time>2024-07-25T08:10:58Z</time>
      </trkpt>
      <trkpt lat="43.57898" lon="3.36148">
        <ele>137.5</ele>
        <time>2024-07-25T08:10:59Z</time>
      </trkpt>
      <trkpt lat="43.57892" lon="3.36149">
        <ele>136.8</ele>
        <time>2024-07-25T08:11:00Z</time>
      </trkpt>
      <trkpt lat="43.57886" lon="3.3615">
        <ele>136</ele>
        <time>2024-07-25T08:11:01Z</time>
      </trkpt>
      <trkpt lat="43.57881" lon="3.36153">
        <ele>135</ele>
        <time>2024-07-25T08:11:02Z</time>
      </trkpt>
      <trkpt lat="43.57876" lon="3.36157">
        <ele>133.8</ele>
        <time>2024-07-25T08:11:03Z</time>
      </trkpt>
      <trkpt lat="43.57873" lon="3.36162">
        <ele>132.9</ele>
        <time>2024-07-25T08:11:04Z</time>
      </trkpt>
      <trkpt lat="43.5787" lon="3.36167">
        <ele>131.9</ele>
        <time>2024-07-25T08:11:05Z</time>
      </trkpt>
      <trkpt lat="43.57867" lon="3.36171">
        <ele>131.3</ele>
        <time>2024-07-25T08:11:06Z</time>
      </trkpt>
      <trkpt lat="43.57864" lon="3.36174">
        <ele>130.8</ele>
        <time>2024-07-25T08:11:07Z</time>
      </trkpt>
      <trkpt lat="43.57862" lon="3.36176">
        <ele>130.4</ele>
        <time>2024-07-25T08:11:08Z</time>
      </trkpt>
      <trkpt lat="43.57861" lon="3.36177">
        <ele>130.2</ele>
        <time>2024-07-25T08:11:09Z</time>
      </trkpt>
      <trkpt lat="43.57859" lon="3.36179">
        <ele>130</ele>
        <time>2024-07-25T08:11:10Z</time>
      </trkpt>
      <trkpt lat="43.57858" lon="3.36181">
        <ele>129.7</ele>
        <time>2024-07-25T08:11:11Z</time>
      </trkpt>
      <trkpt lat="43.57856" lon="3.36184">
        <ele>129.4</ele>
        <time>2024-07-25T08:11:12Z</time>
      </trkpt>
      <trkpt lat="43.57856" lon="3.36187">
        <ele>129.2</ele>
        <time>2024-07-25T08:11:13Z</time>
      </trkpt>
      <trkpt lat="43.57856" lon="3.36191">
        <ele>128.9</ele>
        <time>2024-07-25T08:11:14Z</time>
      </trkpt>
      <trkpt lat="43.57856" lon="3.36195">
        <ele>128.6</ele>
        <time>2024-07-25T08:11:15Z</time>
      </trkpt>
      <trkpt lat="43.57857" lon="3.362">
        <ele>128.1</ele>
        <time>2024-07-25T08:11:16Z</time>
      </trkpt>
      <trkpt lat="43.5786" lon="3.36205">
        <ele>127.8</ele>
        <time>2024-07-25T08:11:17Z</time>
      </trkpt>
      <trkpt lat="43.57863" lon="3.36209">
        <ele>127.6</ele>
        <time>2024-07-25T08:11:18Z</time>
      </trkpt>
      <trkpt lat="43.57867" lon="3.36213">
        <ele>127.4</ele>
        <time>2024-07-25T08:11:19Z</time>
      </trkpt>
      <trkpt lat="43.57871" lon="3.36217">
        <ele>127.3</ele>
        <time>2024-07-25T08:11:20Z</time>
      </trkpt>
      <trkpt lat="43.57875" lon="3.3622">
        <ele>127.2</ele>
        <time>2024-07-25T08:11:21Z</time>
      </trkpt>
      <trkpt lat="43.57879" lon="3.36224">
        <ele>127.1</ele>
        <time>2024-07-25T08:11:22Z</time>
      </trkpt>
      <trkpt lat="43.57884" lon="3.36228">
        <ele>127.1</ele>
        <time>2024-07-25T08:11:23Z</time>
      </trkpt>
      <trkpt lat="43.57888" lon="3.36232">
        <ele>126.9</ele>
        <time>2024-07-25T08:11:24Z</time>
      </trkpt>
      <trkpt lat="43.57892" lon="3.36236">
        <ele>126.5</ele>
        <time>2024-07-25T08:11:25Z</time>
      </trkpt>
      <trkpt lat="43.57895" lon="3.36239">
        <ele>126.1</ele>
        <time>2024-07-25T08:11:26Z</time>
      </trkpt>
      <trkpt lat="43.57899" lon="3.36241">
        <ele>125.7</ele>
        <time>2024-07-25T08:11:27Z</time>
      </trkpt>
      <trkpt lat="43.57903" lon="3.36242">
        <ele>125.5</ele>
        <time>2024-07-25T08:11:28Z</time>
      </trkpt>
      <trkpt lat="43.57908" lon="3.36242">
        <ele>125.4</ele>
        <time>2024-07-25T08:11:29Z</time>
      </trkpt>
      <trkpt lat="43.57912" lon="3.36241">
        <ele>125.4</ele>
        <time>2024-07-25T08:11:30Z</time>
      </trkpt>
      <trkpt lat="43.57917" lon="3.36239">
        <ele>125.5</ele>
        <time>2024-07-25T08:11:31Z</time>
      </trkpt>
      <trkpt lat="43.57923" lon="3.36238">
        <ele>125</ele>
        <time>2024-07-25T08:11:32Z</time>
      </trkpt>
      <trkpt lat="43.57928" lon="3.36236">
        <ele>124.8</ele>
        <time>2024-07-25T08:11:33Z</time>
      </trkpt>
      <trkpt lat="43.57932" lon="3.36234">
        <ele>124.6</ele>
        <time>2024-07-25T08:11:34Z</time>
      </trkpt>
      <trkpt lat="43.57936" lon="3.36234">
        <ele>124.2</ele>
        <time>2024-07-25T08:11:35Z</time>
      </trkpt>
      <trkpt lat="43.57938" lon="3.36236">
        <ele>123.7</ele>
        <time>2024-07-25T08:11:36Z</time>
      </trkpt>
      <trkpt lat="43.5794" lon="3.36239">
        <ele>123.1</ele>
        <time>2024-07-25T08:11:37Z</time>
      </trkpt>
      <trkpt lat="43.5794" lon="3.36244">
        <ele>122.3</ele>
        <time>2024-07-25T08:11:38Z</time>
      </trkpt>
      <trkpt lat="43.57939" lon="3.36247">
        <ele>122</ele>
        <time>2024-07-25T08:11:39Z</time>
      </trkpt>
      <trkpt lat="43.57937" lon="3.36251">
        <ele>121.7</ele>
        <time>2024-07-25T08:11:40Z</time>
      </trkpt>
      <trkpt lat="43.57936" lon="3.36254">
        <ele>121.6</ele>
        <time>2024-07-25T08:11:41Z</time>
      </trkpt>
      <trkpt lat="43.57933" lon="3.36259">
        <ele>121.5</ele>
        <time>2024-07-25T08:11:42Z</time>
      </trkpt>
      <trkpt lat="43.57931" lon="3.36263">
        <ele>121.3</ele>
        <time>2024-07-25T08:11:43Z</time>
      </trkpt>
      <trkpt lat="43.57928" lon="3.36268">
        <ele>121.1</ele>
        <time>2024-07-25T08:11:44Z</time>
      </trkpt>
      <trkpt lat="43.57925" lon="3.36274">
        <ele>120.8</ele>
        <time>2024-07-25T08:11:45Z</time>
      </trkpt>
      <trkpt lat="43.57921" lon="3.36279">
        <ele>120.6</ele>
        <time>2024-07-25T08:11:46Z</time>
      </trkpt>
      <trkpt lat="43.57917" lon="3.36285">
        <ele>120.2</ele>
        <time>2024-07-25T08:11:47Z</time>
      </trkpt>
      <trkpt lat="43.57913" lon="3.3629">
        <ele>119.8</ele>
        <time>2024-07-25T08:11:48Z</time>
      </trkpt>
      <trkpt lat="43.57908" lon="3.36295">
        <ele>119.5</ele>
        <time>2024-07-25T08:11:49Z</time>
      </trkpt>
      <trkpt lat="43.57903" lon="3.363">
        <ele>119.1</ele>
        <time>2024-07-25T08:11:50Z</time>
      </trkpt>
      <trkpt lat="43.57897" lon="3.36305">
        <ele>118.8</ele>
        <time>2024-07-25T08:11:51Z</time>
      </trkpt>
      <trkpt lat="43.5789" lon="3.3631">
        <ele>118.3</ele>
        <time>2024-07-25T08:11:52Z</time>
      </trkpt>
      <trkpt lat="43.57884" lon="3.36315">
        <ele>117.7</ele>
        <time>2024-07-25T08:11:53Z</time>
      </trkpt>
      <trkpt lat="43.57878" lon="3.3632">
        <ele>117.1</ele>
        <time>2024-07-25T08:11:54Z</time>
      </trkpt>
      <trkpt lat="43.57873" lon="3.36324">
        <ele>116.7</ele>
        <time>2024-07-25T08:11:55Z</time>
      </trkpt>
      <trkpt lat="43.57868" lon="3.36328">
        <ele>116.4</ele>
        <time>2024-07-25T08:11:56Z</time>
      </trkpt>
      <trkpt lat="43.57864" lon="3.36331">
        <ele>116.2</ele>
        <time>2024-07-25T08:11:57Z</time>
      </trkpt>
      <trkpt lat="43.57859" lon="3.36333">
        <ele>116</ele>
        <time>2024-07-25T08:11:58Z</time>
      </trkpt>
      <trkpt lat="43.57855" lon="3.36336">
        <ele>115.8</ele>
        <time>2024-07-25T08:11:59Z</time>
      </trkpt>
      <trkpt lat="43.57852" lon="3.36341">
        <ele>115.4</ele>
        <time>2024-07-25T08:12:00Z</time>
      </trkpt>
      <trkpt lat="43.57851" lon="3.36347">
        <ele>115</ele>
        <time>2024-07-25T08:12:01Z</time>
      </trkpt>
      <trkpt lat="43.57851" lon="3.36352">
        <ele>114.7</ele>
        <time>2024-07-25T08:12:02Z</time>
      </trkpt>
      <trkpt lat="43.57853" lon="3.36356">
        <ele>114.4</ele>
        <time>2024-07-25T08:12:03Z</time>
      </trkpt>
      <trkpt lat="43.57854" lon="3.3636">
        <ele>114.1</ele>
        <time>2024-07-25T08:12:04Z</time>
      </trkpt>
      <trkpt lat="43.57855" lon="3.36363">
        <ele>113.9</ele>
        <time>2024-07-25T08:12:05Z</time>
      </trkpt>
      <trkpt lat="43.57856" lon="3.36365">
        <ele>113.7</ele>
        <time>2024-07-25T08:12:06Z</time>
      </trkpt>
      <trkpt lat="43.57857" lon="3.36367">
        <ele>113.6</ele>
        <time>2024-07-25T08:12:07Z</time>
      </trkpt>
      <trkpt lat="43.57858" lon="3.36369">
        <ele>113.4</ele>
        <time>2024-07-25T08:12:08Z</time>
      </trkpt>
      <trkpt lat="43.57858" lon="3.3637">
        <ele>113.4</ele>
        <time>2024-07-25T08:12:09Z</time>
      </trkpt>
      <trkpt lat="43.57863" lon="3.36381">
        <ele>112.6</ele>
        <time>2024-07-25T08:27:06Z</time>
      </trkpt>
      <trkpt lat="43.57867" lon="3.3638">
        <ele>112.6</ele>
        <time>2024-07-25T08:27:07Z</time>
      </trkpt>
      <trkpt lat="43.5787" lon="3.3638">
        <ele>112.6</ele>
        <time>2024-07-25T08:27:08Z</time>
      </trkpt>
      <trkpt lat="43.57873" lon="3.36379">
        <ele>112.7</ele>
        <time>2024-07-25T08:27:09Z</time>
      </trkpt>
      <trkpt lat="43.57876" lon="3.36378">
        <ele>112.8</ele>
        <time>2024-07-25T08:27:10Z</time>
      </trkpt>
      <trkpt lat="43.57878" lon="3.36381">
        <ele>112.6</ele>
        <time>2024-07-25T08:27:11Z</time>
      </trkpt>
      <trkpt lat="43.57881" lon="3.36383">
        <ele>112.4</ele>
        <time>2024-07-25T08:27:12Z</time>
      </trkpt>
      <trkpt lat="43.57883" lon="3.36386">
        <ele>112.2</ele>
        <time>2024-07-25T08:27:13Z</time>
      </trkpt>
      <trkpt lat="43.57884" lon="3.3639">
        <ele>112</ele>
        <time>2024-07-25T08:27:14Z</time>
      </trkpt>
      <trkpt lat="43.57886" lon="3.36395">
        <ele>111.8</ele>
        <time>2024-07-25T08:27:15Z</time>
      </trkpt>
      <trkpt lat="43.57887" lon="3.36401">
        <ele>111.6</ele>
        <time>2024-07-25T08:27:16Z</time>
      </trkpt>
      <trkpt lat="43.57888" lon="3.36406">
        <ele>111.4</ele>
        <time>2024-07-25T08:27:17Z</time>
      </trkpt>
      <trkpt lat="43.57889" lon="3.36412">
        <ele>111.2</ele>
        <time>2024-07-25T08:27:18Z</time>
      </trkpt>
      <trkpt lat="43.5789" lon="3.36418">
        <ele>111</ele>
        <time>2024-07-25T08:27:19Z</time>
      </trkpt>
      <trkpt lat="43.57891" lon="3.36424">
        <ele>110.7</ele>
        <time>2024-07-25T08:27:20Z</time>
      </trkpt>
      <trkpt lat="43.57891" lon="3.3643">
        <ele>110.5</ele>
        <time>2024-07-25T08:27:21Z</time>
      </trkpt>
      <trkpt lat="43.57891" lon="3.36436">
        <ele>110.3</ele>
        <time>2024-07-25T08:27:22Z</time>
      </trkpt>
      <trkpt lat="43.57892" lon="3.36441">
        <ele>110.1</ele>
        <time>2024-07-25T08:27:23Z</time>
      </trkpt>
      <trkpt lat="43.57894" lon="3.36448">
        <ele>109.7</ele>
        <time>2024-07-25T08:27:24Z</time>
      </trkpt>
      <trkpt lat="43.57896" lon="3.36454">
        <ele>109.3</ele>
        <time>2024-07-25T08:27:25Z</time>
      </trkpt>
      <trkpt lat="43.57899" lon="3.3646">
        <ele>108.9</ele>
        <time>2024-07-25T08:27:26Z</time>
      </trkpt>
      <trkpt lat="43.57902" lon="3.36466">
        <ele>108.4</ele>
        <time>2024-07-25T08:27:27Z</time>
      </trkpt>
      <trkpt lat="43.57906" lon="3.36473">
        <ele>108.1</ele>
        <time>2024-07-25T08:27:28Z</time>
      </trkpt>
      <trkpt lat="43.57909" lon="3.36481">
        <ele>108.8</ele>
        <time>2024-07-25T08:27:29Z</time>
      </trkpt>
      <trkpt lat="43.57912" lon="3.36487">
        <ele>109.4</ele>
        <time>2024-07-25T08:27:30Z</time>
      </trkpt>
      <trkpt lat="43.57915" lon="3.36493">
        <ele>110.2</ele>
        <time>2024-07-25T08:27:31Z</time>
      </trkpt>
      <trkpt lat="43.57917" lon="3.36498">
        <ele>110.8</ele>
        <time>2024-07-25T08:27:32Z</time>
      </trkpt>
      <trkpt lat="43.57918" lon="3.36502">
        <ele>111.3</ele>
        <time>2024-07-25T08:27:33Z</time>
      </trkpt>
      <trkpt lat="43.57918" lon="3.36506">
        <ele>111.7</ele>
        <time>2024-07-25T08:27:34Z</time>
      </trkpt>
      <trkpt lat="43.57917" lon="3.36511">
        <ele>112.2</ele>
        <time>2024-07-25T08:27:35Z</time>
      </trkpt>
      <trkpt lat="43.57917" lon="3.36514">
        <ele>112.5</ele>
        <time>2024-07-25T08:27:36Z</time>
      </trkpt>
      <trkpt lat="43.57915" lon="3.36516">
        <ele>112.6</ele>
        <time>2024-07-25T08:27:37Z</time>
      </trkpt>
      <trkpt lat="43.57913" lon="3.36518">
        <ele>112.8</ele>
        <time>2024-07-25T08:27:38Z</time>
      </trkpt>
      <trkpt lat="43.57911" lon="3.3652">
        <ele>112.9</ele>
        <time>2024-07-25T08:27:39Z</time>
      </trkpt>
      <trkpt lat="43.57909" lon="3.36522">
        <ele>113</ele>
        <time>2024-07-25T08:27:40Z</time>
      </trkpt>
      <trkpt lat="43.57907" lon="3.36524">
        <ele>113.2</ele>
        <time>2024-07-25T08:27:41Z</time>
      </trkpt>
      <trkpt lat="43.57904" lon="3.36525">
        <ele>113.2</ele>
        <time>2024-07-25T08:27:42Z</time>
      </trkpt>
      <trkpt lat="43.57902" lon="3.36527">
        <ele>113.4</ele>
        <time>2024-07-25T08:27:43Z</time>
      </trkpt>
      <trkpt lat="43.57899" lon="3.36528">
        <ele>113.4</ele>
        <time>2024-07-25T08:27:44Z</time>
      </trkpt>
      <trkpt lat="43.57897" lon="3.36528">
        <ele>113.4</ele>
        <time>2024-07-25T08:27:45Z</time>
      </trkpt>
      <trkpt lat="43.57894" lon="3.36529">
        <ele>113.6</ele>
        <time>2024-07-25T08:27:46Z</time>
      </trkpt>
      <trkpt lat="43.57893" lon="3.36529">
        <ele>113.6</ele>
        <time>2024-07-25T08:27:47Z</time>
      </trkpt>
      <trkpt lat="43.57891" lon="3.3653">
        <ele>113.9</ele>
        <time>2024-07-25T08:27:48Z</time>
      </trkpt>
      <trkpt lat="43.57888" lon="3.36531">
        <ele>114.3</ele>
        <time>2024-07-25T08:27:49Z</time>
      </trkpt>
      <trkpt lat="43.57886" lon="3.36531">
        <ele>114.3</ele>
        <time>2024-07-25T08:27:50Z</time>
      </trkpt>
      <trkpt lat="43.57883" lon="3.36532">
        <ele>114.6</ele>
        <time>2024-07-25T08:27:51Z</time>
      </trkpt>
      <trkpt lat="43.57881" lon="3.36531">
        <ele>114.2</ele>
        <time>2024-07-25T08:27:52Z</time>
      </trkpt>
      <trkpt lat="43.57879" lon="3.36531">
        <ele>114.2</ele>
        <time>2024-07-25T08:27:53Z</time>
      </trkpt>
      <trkpt lat="43.57877" lon="3.36532">
        <ele>114.6</ele>
        <time>2024-07-25T08:27:54Z</time>
      </trkpt>
      <trkpt lat="43.57875" lon="3.36532">
        <ele>114.6</ele>
        <time>2024-07-25T08:27:55Z</time>
      </trkpt>
      <trkpt lat="43.57872" lon="3.36532">
        <ele>114.6</ele>
        <time>2024-07-25T08:27:56Z</time>
      </trkpt>
      <trkpt lat="43.57869" lon="3.36532">
        <ele>114.6</ele>
        <time>2024-07-25T08:27:57Z</time>
      </trkpt>
      <trkpt lat="43.57867" lon="3.36532">
        <ele>114.6</ele>
        <time>2024-07-25T08:27:58Z</time>
      </trkpt>
      <trkpt lat="43.57865" lon="3.36532">
        <ele>114.5</ele>
        <time>2024-07-25T08:27:59Z</time>
      </trkpt>
      <trkpt lat="43.57862" lon="3.36533">
        <ele>114.9</ele>
        <time>2024-07-25T08:28:00Z</time>
      </trkpt>
      <trkpt lat="43.5786" lon="3.36534">
        <ele>115.1</ele>
        <time>2024-07-25T08:28:01Z</time>
      </trkpt>
      <trkpt lat="43.57857" lon="3.36535">
        <ele>115</ele>
        <time>2024-07-25T08:28:02Z</time>
      </trkpt>
      <trkpt lat="43.57853" lon="3.36536">
        <ele>114.7</ele>
        <time>2024-07-25T08:28:03Z</time>
      </trkpt>
      <trkpt lat="43.5785" lon="3.36537">
        <ele>114.5</ele>
        <time>2024-07-25T08:28:04Z</time>
      </trkpt>
      <trkpt lat="43.57847" lon="3.36539">
        <ele>114.5</ele>
        <time>2024-07-25T08:28:05Z</time>
      </trkpt>
      <trkpt lat="43.57845" lon="3.36541">
        <ele>114.6</ele>
        <time>2024-07-25T08:28:06Z</time>
      </trkpt>
      <trkpt lat="43.57843" lon="3.36544">
        <ele>115</ele>
        <time>2024-07-25T08:28:07Z</time>
      </trkpt>
      <trkpt lat="43.57841" lon="3.36547">
        <ele>115.2</ele>
        <time>2024-07-25T08:28:08Z</time>
      </trkpt>
      <trkpt lat="43.57839" lon="3.3655">
        <ele>115.4</ele>
        <time>2024-07-25T08:28:09Z</time>
      </trkpt>
      <trkpt lat="43.57838" lon="3.36554">
        <ele>116</ele>
        <time>2024-07-25T08:28:10Z</time>
      </trkpt>
      <trkpt lat="43.57837" lon="3.36558">
        <ele>116.3</ele>
        <time>2024-07-25T08:28:11Z</time>
      </trkpt>
      <trkpt lat="43.57836" lon="3.36562">
        <ele>116.3</ele>
        <time>2024-07-25T08:28:12Z</time>
      </trkpt>
      <trkpt lat="43.57835" lon="3.36565">
        <ele>116.2</ele>
        <time>2024-07-25T08:28:13Z</time>
      </trkpt>
      <trkpt lat="43.57834" lon="3.36568">
        <ele>116.1</ele>
        <time>2024-07-25T08:28:14Z</time>
      </trkpt>
      <trkpt lat="43.57834" lon="3.36573">
        <ele>116.5</ele>
        <time>2024-07-25T08:28:15Z</time>
      </trkpt>
      <trkpt lat="43.57833" lon="3.36578">
        <ele>116.6</ele>
        <time>2024-07-25T08:28:16Z</time>
      </trkpt>
      <trkpt lat="43.57833" lon="3.36582">
        <ele>116.8</ele>
        <time>2024-07-25T08:28:17Z</time>
      </trkpt>
      <trkpt lat="43.57832" lon="3.36587">
        <ele>117</ele>
        <time>2024-07-25T08:28:18Z</time>
      </trkpt>
      <trkpt lat="43.57832" lon="3.36591">
        <ele>117.3</ele>
        <time>2024-07-25T08:28:19Z</time>
      </trkpt>
      <trkpt lat="43.57831" lon="3.36596">
        <ele>117.5</ele>
        <time>2024-07-25T08:28:20Z</time>
      </trkpt>
      <trkpt lat="43.5783" lon="3.36601">
        <ele>117.7</ele>
        <time>2024-07-25T08:28:21Z</time>
      </trkpt>
      <trkpt lat="43.57828" lon="3.36606">
        <ele>117.7</ele>
        <time>2024-07-25T08:28:22Z</time>
      </trkpt>
      <trkpt lat="43.57827" lon="3.3661">
        <ele>117.8</ele>
        <time>2024-07-25T08:28:23Z</time>
      </trkpt>
      <trkpt lat="43.57825" lon="3.36615">
        <ele>117.9</ele>
        <time>2024-07-25T08:28:24Z</time>
      </trkpt>
      <trkpt lat="43.57822" lon="3.36619">
        <ele>117.7</ele>
        <time>2024-07-25T08:28:25Z</time>
      </trkpt>
      <trkpt lat="43.5782" lon="3.36623">
        <ele>117.7</ele>
        <time>2024-07-25T08:28:26Z</time>
      </trkpt>
      <trkpt lat="43.57818" lon="3.36627">
        <ele>117.6</ele>
        <time>2024-07-25T08:28:27Z</time>
      </trkpt>
      <trkpt lat="43.57816" lon="3.36632">
        <ele>117.7</ele>
        <time>2024-07-25T08:28:28Z</time>
      </trkpt>
      <trkpt lat="43.57814" lon="3.36636">
        <ele>117.6</ele>
        <time>2024-07-25T08:28:29Z</time>
      </trkpt>
      <trkpt lat="43.57812" lon="3.36639">
        <ele>117.4</ele>
        <time>2024-07-25T08:28:30Z</time>
      </trkpt>
      <trkpt lat="43.5781" lon="3.36643">
        <ele>117.4</ele>
        <time>2024-07-25T08:28:31Z</time>
      </trkpt>
      <trkpt lat="43.57808" lon="3.36646">
        <ele>117.3</ele>
        <time>2024-07-25T08:28:32Z</time>
      </trkpt>
      <trkpt lat="43.57805" lon="3.3665">
        <ele>117.1</ele>
        <time>2024-07-25T08:28:33Z</time>
      </trkpt>
      <trkpt lat="43.57803" lon="3.36653">
        <ele>117.2</ele>
        <time>2024-07-25T08:28:34Z</time>
      </trkpt>
      <trkpt lat="43.57801" lon="3.36656">
        <ele>117.3</ele>
        <time>2024-07-25T08:28:35Z</time>
      </trkpt>
      <trkpt lat="43.57799" lon="3.36659">
        <ele>117.3</ele>
        <time>2024-07-25T08:28:36Z</time>
      </trkpt>
      <trkpt lat="43.57796" lon="3.36663">
        <ele>117.3</ele>
        <time>2024-07-25T08:28:37Z</time>
      </trkpt>
      <trkpt lat="43.57794" lon="3.36666">
        <ele>117.3</ele>
        <time>2024-07-25T08:28:38Z</time>
      </trkpt>
      <trkpt lat="43.57792" lon="3.36669">
        <ele>117.3</ele>
        <time>2024-07-25T08:28:39Z</time>
      </trkpt>
      <trkpt lat="43.5779" lon="3.36672">
        <ele>117.4</ele>
        <time>2024-07-25T08:28:40Z</time>
      </trkpt>
      <trkpt lat="43.57788" lon="3.36676">
        <ele>117.7</ele>
        <time>2024-07-25T08:28:41Z</time>
      </trkpt>
      <trkpt lat="43.57786" lon="3.36679">
        <ele>117.8</ele>
        <time>2024-07-25T08:28:42Z</time>
      </trkpt>
      <trkpt lat="43.57784" lon="3.36683">
        <ele>118.1</ele>
        <time>2024-07-25T08:28:43Z</time>
      </trkpt>
      <trkpt lat="43.57783" lon="3.36686">
        <ele>118.4</ele>
        <time>2024-07-25T08:28:44Z</time>
      </trkpt>
      <trkpt lat="43.57781" lon="3.3669">
        <ele>118.7</ele>
        <time>2024-07-25T08:28:45Z</time>
      </trkpt>
      <trkpt lat="43.57779" lon="3.36694">
        <ele>119.1</ele>
        <time>2024-07-25T08:28:46Z</time>
      </trkpt>
      <trkpt lat="43.57778" lon="3.36697">
        <ele>119.1</ele>
        <time>2024-07-25T08:28:47Z</time>
      </trkpt>
      <trkpt lat="43.57777" lon="3.36701">
        <ele>119.1</ele>
        <time>2024-07-25T08:28:48Z</time>
      </trkpt>
      <trkpt lat="43.57776" lon="3.36704">
        <ele>119</ele>
        <time>2024-07-25T08:28:49Z</time>
      </trkpt>
      <trkpt lat="43.57775" lon="3.36708">
        <ele>119</ele>
        <time>2024-07-25T08:28:50Z</time>
      </trkpt>
      <trkpt lat="43.57775" lon="3.36712">
        <ele>119.1</ele>
        <time>2024-07-25T08:28:51Z</time>
      </trkpt>
      <trkpt lat="43.57774" lon="3.36715">
        <ele>119</ele>
        <time>2024-07-25T08:28:52Z</time>
      </trkpt>
      <trkpt lat="43.57775" lon="3.36718">
        <ele>119.3</ele>
        <time>2024-07-25T08:28:53Z</time>
      </trkpt>
      <trkpt lat="43.57775" lon="3.36721">
        <ele>119.4</ele>
        <time>2024-07-25T08:28:54Z</time>
      </trkpt>
      <trkpt lat="43.57776" lon="3.36725">
        <ele>119.6</ele>
        <time>2024-07-25T08:28:55Z</time>
      </trkpt>
      <trkpt lat="43.57776" lon="3.36728">
        <ele>119.6</ele>
        <time>2024-07-25T08:28:56Z</time>
      </trkpt>
      <trkpt lat="43.57778" lon="3.36732">
        <ele>120</ele>
        <time>2024-07-25T08:28:57Z</time>
      </trkpt>
      <trkpt lat="43.57779" lon="3.36735">
        <ele>120.1</ele>
        <time>2024-07-25T08:28:58Z</time>
      </trkpt>
      <trkpt lat="43.5778" lon="3.36739">
        <ele>120.2</ele>
        <time>2024-07-25T08:28:59Z</time>
      </trkpt>
      <trkpt lat="43.57781" lon="3.36742">
        <ele>120.3</ele>
        <time>2024-07-25T08:29:00Z</time>
      </trkpt>
      <trkpt lat="43.57782" lon="3.36747">
        <ele>120.5</ele>
        <time>2024-07-25T08:29:01Z</time>
      </trkpt>
      <trkpt lat="43.57783" lon="3.36751">
        <ele>120.6</ele>
        <time>2024-07-25T08:29:02Z</time>
      </trkpt>
      <trkpt lat="43.57784" lon="3.36756">
        <ele>120.7</ele>
        <time>2024-07-25T08:29:03Z</time>
      </trkpt>
      <trkpt lat="43.57785" lon="3.3676">
        <ele>120.9</ele>
        <time>2024-07-25T08:29:04Z</time>
      </trkpt>
      <trkpt lat="43.57786" lon="3.36764">
        <ele>121</ele>
        <time>2024-07-25T08:29:05Z</time>
      </trkpt>
      <trkpt lat="43.57787" lon="3.36768">
        <ele>121.2</ele>
        <time>2024-07-25T08:29:06Z</time>
      </trkpt>
      <trkpt lat="43.57788" lon="3.36773">
        <ele>121.4</ele>
        <time>2024-07-25T08:29:07Z</time>
      </trkpt>
      <trkpt lat="43.57788" lon="3.36777">
        <ele>121.5</ele>
        <time>2024-07-25T08:29:08Z</time>
      </trkpt>
      <trkpt lat="43.57789" lon="3.36781">
        <ele>121.8</ele>
        <time>2024-07-25T08:29:09Z</time>
      </trkpt>
      <trkpt lat="43.5779" lon="3.36785">
        <ele>122.1</ele>
        <time>2024-07-25T08:29:10Z</time>
      </trkpt>
      <trkpt lat="43.5779" lon="3.36788">
        <ele>122.3</ele>
        <time>2024-07-25T08:29:11Z</time>
      </trkpt>
      <trkpt lat="43.57791" lon="3.36792">
        <ele>122.7</ele>
        <time>2024-07-25T08:29:12Z</time>
      </trkpt>
      <trkpt lat="43.57791" lon="3.36796">
        <ele>122.9</ele>
        <time>2024-07-25T08:29:13Z</time>
      </trkpt>
      <trkpt lat="43.57792" lon="3.368">
        <ele>123.3</ele>
        <time>2024-07-25T08:29:14Z</time>
      </trkpt>
      <trkpt lat="43.57794" lon="3.36803">
        <ele>123.8</ele>
        <time>2024-07-25T08:29:15Z</time>
      </trkpt>
      <trkpt lat="43.57795" lon="3.36807">
        <ele>124.1</ele>
        <time>2024-07-25T08:29:16Z</time>
      </trkpt>
      <trkpt lat="43.57796" lon="3.36811">
        <ele>124.2</ele>
        <time>2024-07-25T08:29:17Z</time>
      </trkpt>
      <trkpt lat="43.57797" lon="3.36814">
        <ele>124.2</ele>
        <time>2024-07-25T08:29:18Z</time>
      </trkpt>
      <trkpt lat="43.57798" lon="3.36818">
        <ele>124.3</ele>
        <time>2024-07-25T08:29:19Z</time>
      </trkpt>
      <trkpt lat="43.57799" lon="3.36822">
        <ele>124.4</ele>
        <time>2024-07-25T08:29:20Z</time>
      </trkpt>
      <trkpt lat="43.578" lon="3.36825">
        <ele>124.4</ele>
        <time>2024-07-25T08:29:21Z</time>
      </trkpt>
      <trkpt lat="43.57801" lon="3.36828">
        <ele>124.5</ele>
        <time>2024-07-25T08:29:22Z</time>
      </trkpt>
      <trkpt lat="43.57802" lon="3.36831">
        <ele>124.6</ele>
        <time>2024-07-25T08:29:23Z</time>
      </trkpt>
      <trkpt lat="43.57803" lon="3.36835">
        <ele>124.6</ele>
        <time>2024-07-25T08:29:24Z</time>
      </trkpt>
      <trkpt lat="43.57804" lon="3.36838">
        <ele>124.8</ele>
        <time>2024-07-25T08:29:25Z</time>
      </trkpt>
      <trkpt lat="43.57804" lon="3.36842">
        <ele>124.8</ele>
        <time>2024-07-25T08:29:26Z</time>
      </trkpt>
      <trkpt lat="43.57805" lon="3.36846">
        <ele>124.9</ele>
        <time>2024-07-25T08:29:27Z</time>
      </trkpt>
      <trkpt lat="43.57806" lon="3.36849">
        <ele>125.1</ele>
        <time>2024-07-25T08:29:28Z</time>
      </trkpt>
      <trkpt lat="43.57807" lon="3.36853">
        <ele>125.3</ele>
        <time>2024-07-25T08:29:29Z</time>
      </trkpt>
      <trkpt lat="43.57807" lon="3.36857">
        <ele>125.3</ele>
        <time>2024-07-25T08:29:30Z</time>
      </trkpt>
      <trkpt lat="43.57808" lon="3.36861">
        <ele>125.5</ele>
        <time>2024-07-25T08:29:31Z</time>
      </trkpt>
      <trkpt lat="43.57809" lon="3.36865">
        <ele>125.5</ele>
        <time>2024-07-25T08:29:32Z</time>
      </trkpt>
      <trkpt lat="43.57809" lon="3.3687">
        <ele>125.1</ele>
        <time>2024-07-25T08:29:33Z</time>
      </trkpt>
      <trkpt lat="43.57809" lon="3.36874">
        <ele>124.9</ele>
        <time>2024-07-25T08:29:34Z</time>
      </trkpt>
      <trkpt lat="43.5781" lon="3.36879">
        <ele>124.8</ele>
        <time>2024-07-25T08:29:35Z</time>
      </trkpt>
      <trkpt lat="43.57811" lon="3.36885">
        <ele>124.6</ele>
        <time>2024-07-25T08:29:36Z</time>
      </trkpt>
      <trkpt lat="43.57811" lon="3.36892">
        <ele>124.2</ele>
        <time>2024-07-25T08:29:37Z</time>
      </trkpt>
      <trkpt lat="43.57811" lon="3.36899">
        <ele>123.7</ele>
        <time>2024-07-25T08:29:38Z</time>
      </trkpt>
      <trkpt lat="43.57811" lon="3.36907">
        <ele>123.2</ele>
        <time>2024-07-25T08:29:39Z</time>
      </trkpt>
      <trkpt lat="43.57811" lon="3.36915">
        <ele>122.7</ele>
        <time>2024-07-25T08:29:40Z</time>
      </trkpt>
      <trkpt lat="43.57809" lon="3.36923">
        <ele>122.2</ele>
        <time>2024-07-25T08:29:41Z</time>
      </trkpt>
      <trkpt lat="43.57808" lon="3.36931">
        <ele>122.2</ele>
        <time>2024-07-25T08:29:42Z</time>
      </trkpt>
      <trkpt lat="43.57807" lon="3.3694">
        <ele>122.2</ele>
        <time>2024-07-25T08:29:43Z</time>
      </trkpt>
      <trkpt lat="43.57806" lon="3.3695">
        <ele>121.9</ele>
        <time>2024-07-25T08:29:44Z</time>
      </trkpt>
      <trkpt lat="43.57807" lon="3.36959">
        <ele>121.8</ele>
        <time>2024-07-25T08:29:45Z</time>
      </trkpt>
      <trkpt lat="43.57806" lon="3.36969">
        <ele>121.2</ele>
        <time>2024-07-25T08:29:46Z</time>
      </trkpt>
      <trkpt lat="43.57802" lon="3.36979">
        <ele>121</ele>
        <time>2024-07-25T08:29:47Z</time>
      </trkpt>
      <trkpt lat="43.57798" lon="3.36987">
        <ele>120.8</ele>
        <time>2024-07-25T08:29:48Z</time>
      </trkpt>
      <trkpt lat="43.57794" lon="3.36996">
        <ele>120.7</ele>
        <time>2024-07-25T08:29:49Z</time>
      </trkpt>
      <trkpt lat="43.5779" lon="3.37007">
        <ele>119.7</ele>
        <time>2024-07-25T08:29:50Z</time>
      </trkpt>
      <trkpt lat="43.57787" lon="3.37018">
        <ele>118.5</ele>
        <time>2024-07-25T08:29:51Z</time>
      </trkpt>
      <trkpt lat="43.57784" lon="3.37029">
        <ele>117.5</ele>
        <time>2024-07-25T08:29:52Z</time>
      </trkpt>
      <trkpt lat="43.57782" lon="3.3704">
        <ele>118.4</ele>
        <time>2024-07-25T08:29:53Z</time>
      </trkpt>
      <trkpt lat="43.5778" lon="3.37049">
        <ele>119.2</ele>
        <time>2024-07-25T08:29:54Z</time>
      </trkpt>
      <trkpt lat="43.57779" lon="3.37058">
        <ele>120.2</ele>
        <time>2024-07-25T08:29:55Z</time>
      </trkpt>
      <trkpt lat="43.57779" lon="3.37065">
        <ele>120.9</ele>
        <time>2024-07-25T08:29:56Z</time>
      </trkpt>
      <trkpt lat="43.57779" lon="3.37071">
        <ele>121.6</ele>
        <time>2024-07-25T08:29:57Z</time>
      </trkpt>
      <trkpt lat="43.57779" lon="3.37076">
        <ele>122.1</ele>
        <time>2024-07-25T08:29:58Z</time>
      </trkpt>
      <trkpt lat="43.57779" lon="3.37081">
        <ele>122.6</ele>
        <time>2024-07-25T08:29:59Z</time>
      </trkpt>
      <trkpt lat="43.57778" lon="3.37086">
        <ele>123.2</ele>
        <time>2024-07-25T08:30:00Z</time>
      </trkpt>
      <trkpt lat="43.57778" lon="3.37091">
        <ele>123.5</ele>
        <time>2024-07-25T08:30:01Z</time>
      </trkpt>
      <trkpt lat="43.57777" lon="3.37097">
        <ele>124</ele>
        <time>2024-07-25T08:30:02Z</time>
      </trkpt>
      <trkpt lat="43.57776" lon="3.37101">
        <ele>124.4</ele>
        <time>2024-07-25T08:30:03Z</time>
      </trkpt>
      <trkpt lat="43.57775" lon="3.37106">
        <ele>124.8</ele>
        <time>2024-07-25T08:30:04Z</time>
      </trkpt>
      <trkpt lat="43.57774" lon="3.37111">
        <ele>125.3</ele>
        <time>2024-07-25T08:30:05Z</time>
      </trkpt>
      <trkpt lat="43.57773" lon="3.37117">
        <ele>125.8</ele>
        <time>2024-07-25T08:30:06Z</time>
      </trkpt>
      <trkpt lat="43.57773" lon="3.37122">
        <ele>126.1</ele>
        <time>2024-07-25T08:30:07Z</time>
      </trkpt>
      <trkpt lat="43.57772" lon="3.37127">
        <ele>126.6</ele>
        <time>2024-07-25T08:30:08Z</time>
      </trkpt>
      <trkpt lat="43.57772" lon="3.37132">
        <ele>126.9</ele>
        <time>2024-07-25T08:30:09Z</time>
      </trkpt>
      <trkpt lat="43.57771" lon="3.37137">
        <ele>127.4</ele>
        <time>2024-07-25T08:30:10Z</time>
      </trkpt>
      <trkpt lat="43.5777" lon="3.37142">
        <ele>127.9</ele>
        <time>2024-07-25T08:30:11Z</time>
      </trkpt>
      <trkpt lat="43.5777" lon="3.37147">
        <ele>128.4</ele>
        <time>2024-07-25T08:30:12Z</time>
      </trkpt>
      <trkpt lat="43.57769" lon="3.37152">
        <ele>129</ele>
        <time>2024-07-25T08:30:13Z</time>
      </trkpt>
      <trkpt lat="43.57769" lon="3.37157">
        <ele>129.6</ele>
        <time>2024-07-25T08:30:14Z</time>
      </trkpt>
      <trkpt lat="43.57769" lon="3.37163">
        <ele>130.2</ele>
        <time>2024-07-25T08:30:15Z</time>
      </trkpt>
      <trkpt lat="43.57771" lon="3.37167">
        <ele>130.6</ele>
        <time>2024-07-25T08:30:16Z</time>
      </trkpt>
      <trkpt lat="43.57773" lon="3.37171">
        <ele>131.4</ele>
        <time>2024-07-25T08:30:17Z</time>
      </trkpt>
      <trkpt lat="43.57776" lon="3.37173">
        <ele>131.7</ele>
        <time>2024-07-25T08:30:18Z</time>
      </trkpt>
      <trkpt lat="43.57779" lon="3.37175">
        <ele>132</ele>
        <time>2024-07-25T08:30:19Z</time>
      </trkpt>
      <trkpt lat="43.57782" lon="3.37177">
        <ele>132.1</ele>
        <time>2024-07-25T08:30:20Z</time>
      </trkpt>
      <trkpt lat="43.57785" lon="3.37179">
        <ele>132.2</ele>
        <time>2024-07-25T08:30:21Z</time>
      </trkpt>
      <trkpt lat="43.57787" lon="3.37182">
        <ele>132.7</ele>
        <time>2024-07-25T08:30:22Z</time>
      </trkpt>
      <trkpt lat="43.57789" lon="3.37184">
        <ele>132.8</ele>
        <time>2024-07-25T08:30:23Z</time>
      </trkpt>
      <trkpt lat="43.57792" lon="3.37186">
        <ele>132.8</ele>
        <time>2024-07-25T08:30:24Z</time>
      </trkpt>
      <trkpt lat="43.57794" lon="3.37188">
        <ele>132.9</ele>
        <time>2024-07-25T08:30:25Z</time>
      </trkpt>
      <trkpt lat="43.57796" lon="3.3719">
        <ele>132.9</ele>
        <time>2024-07-25T08:30:26Z</time>
      </trkpt>
      <trkpt lat="43.57798" lon="3.37192">
        <ele>132.9</ele>
        <time>2024-07-25T08:30:27Z</time>
      </trkpt>
      <trkpt lat="43.57799" lon="3.37194">
        <ele>133.1</ele>
        <time>2024-07-25T08:30:28Z</time>
      </trkpt>
      <trkpt lat="43.57802" lon="3.37196">
        <ele>133.1</ele>
        <time>2024-07-25T08:30:29Z</time>
      </trkpt>
      <trkpt lat="43.57804" lon="3.37199">
        <ele>133.6</ele>
        <time>2024-07-25T08:30:30Z</time>
      </trkpt>
      <trkpt lat="43.57806" lon="3.37201">
        <ele>133.8</ele>
        <time>2024-07-25T08:30:31Z</time>
      </trkpt>
      <trkpt lat="43.57808" lon="3.37203">
        <ele>134.1</ele>
        <time>2024-07-25T08:30:32Z</time>
      </trkpt>
      <trkpt lat="43.5781" lon="3.37205">
        <ele>134.4</ele>
        <time>2024-07-25T08:30:33Z</time>
      </trkpt>
      <trkpt lat="43.57812" lon="3.37207">
        <ele>134.7</ele>
        <time>2024-07-25T08:30:34Z</time>
      </trkpt>
      <trkpt lat="43.57815" lon="3.37209">
        <ele>134.8</ele>
        <time>2024-07-25T08:30:35Z</time>
      </trkpt>
      <trkpt lat="43.57818" lon="3.37211">
        <ele>134.9</ele>
        <time>2024-07-25T08:30:36Z</time>
      </trkpt>
      <trkpt lat="43.5782" lon="3.37213">
        <ele>135.1</ele>
        <time>2024-07-25T08:30:37Z</time>
      </trkpt>
      <trkpt lat="43.57822" lon="3.37215">
        <ele>135.3</ele>
        <time>2024-07-25T08:30:38Z</time>
      </trkpt>
      <trkpt lat="43.57825" lon="3.37217">
        <ele>135.3</ele>
        <time>2024-07-25T08:30:39Z</time>
      </trkpt>
      <trkpt lat="43.57827" lon="3.37219">
        <ele>135.4</ele>
        <time>2024-07-25T08:30:40Z</time>
      </trkpt>
      <trkpt lat="43.5783" lon="3.3722">
        <ele>135.1</ele>
        <time>2024-07-25T08:30:41Z</time>
      </trkpt>
      <trkpt lat="43.57832" lon="3.37222">
        <ele>135.2</ele>
        <time>2024-07-25T08:30:42Z</time>
      </trkpt>
      <trkpt lat="43.57834" lon="3.37224">
        <ele>135.5</ele>
        <time>2024-07-25T08:30:43Z</time>
      </trkpt>
      <trkpt lat="43.57837" lon="3.37226">
        <ele>135.8</ele>
        <time>2024-07-25T08:30:44Z</time>
      </trkpt>
      <trkpt lat="43.57839" lon="3.37228">
        <ele>136.2</ele>
        <time>2024-07-25T08:30:45Z</time>
      </trkpt>
      <trkpt lat="43.57842" lon="3.3723">
        <ele>136.4</ele>
        <time>2024-07-25T08:30:46Z</time>
      </trkpt>
      <trkpt lat="43.57845" lon="3.37232">
        <ele>136.5</ele>
        <time>2024-07-25T08:30:47Z</time>
      </trkpt>
      <trkpt lat="43.57847" lon="3.37234">
        <ele>136.9</ele>
        <time>2024-07-25T08:30:48Z</time>
      </trkpt>
      <trkpt lat="43.57849" lon="3.37236">
        <ele>137.1</ele>
        <time>2024-07-25T08:30:49Z</time>
      </trkpt>
      <trkpt lat="43.57851" lon="3.37238">
        <ele>137.4</ele>
        <time>2024-07-25T08:30:50Z</time>
      </trkpt>
      <trkpt lat="43.57854" lon="3.3724">
        <ele>137.5</ele>
        <time>2024-07-25T08:30:51Z</time>
      </trkpt>
      <trkpt lat="43.57856" lon="3.37241">
        <ele>137.4</ele>
        <time>2024-07-25T08:30:52Z</time>
      </trkpt>
      <trkpt lat="43.57859" lon="3.37243">
        <ele>137.4</ele>
        <time>2024-07-25T08:30:53Z</time>
      </trkpt>
      <trkpt lat="43.57861" lon="3.37245">
        <ele>137.6</ele>
        <time>2024-07-25T08:30:54Z</time>
      </trkpt>
      <trkpt lat="43.57863" lon="3.37247">
        <ele>137.7</ele>
        <time>2024-07-25T08:30:55Z</time>
      </trkpt>
      <trkpt lat="43.57866" lon="3.37248">
        <ele>137.4</ele>
        <time>2024-07-25T08:30:56Z</time>
      </trkpt>
      <trkpt lat="43.57868" lon="3.3725">
        <ele>137.5</ele>
        <time>2024-07-25T08:30:57Z</time>
      </trkpt>
      <trkpt lat="43.5787" lon="3.37252">
        <ele>137.6</ele>
        <time>2024-07-25T08:30:58Z</time>
      </trkpt>
      <trkpt lat="43.57873" lon="3.37254">
        <ele>137.5</ele>
        <time>2024-07-25T08:30:59Z</time>
      </trkpt>
      <trkpt lat="43.57875" lon="3.37255">
        <ele>137.4</ele>
        <time>2024-07-25T08:31:00Z</time>
      </trkpt>
      <trkpt lat="43.57877" lon="3.37257">
        <ele>137.5</ele>
        <time>2024-07-25T08:31:01Z</time>
      </trkpt>
      <trkpt lat="43.57879" lon="3.37257">
        <ele>137.1</ele>
        <time>2024-07-25T08:31:02Z</time>
      </trkpt>
      <trkpt lat="43.5788" lon="3.37259">
        <ele>137.4</ele>
        <time>2024-07-25T08:31:03Z</time>
      </trkpt>
      <trkpt lat="43.57882" lon="3.3726">
        <ele>137.3</ele>
        <time>2024-07-25T08:31:04Z</time>
      </trkpt>
      <trkpt lat="43.57884" lon="3.37261">
        <ele>137.2</ele>
        <time>2024-07-25T08:31:05Z</time>
      </trkpt>
      <trkpt lat="43.57886" lon="3.37262">
        <ele>137</ele>
        <time>2024-07-25T08:31:06Z</time>
      </trkpt>
      <trkpt lat="43.57888" lon="3.37264">
        <ele>137.2</ele>
        <time>2024-07-25T08:31:07Z</time>
      </trkpt>
      <trkpt lat="43.5789" lon="3.37266">
        <ele>137.5</ele>
        <time>2024-07-25T08:31:08Z</time>
      </trkpt>
      <trkpt lat="43.57892" lon="3.37267">
        <ele>137.6</ele>
        <time>2024-07-25T08:31:09Z</time>
      </trkpt>
      <trkpt lat="43.57894" lon="3.3727">
        <ele>138.1</ele>
        <time>2024-07-25T08:31:10Z</time>
      </trkpt>
      <trkpt lat="43.57897" lon="3.37272">
        <ele>138.2</ele>
        <time>2024-07-25T08:31:11Z</time>
      </trkpt>
      <trkpt lat="43.57901" lon="3.37273">
        <ele>137.8</ele>
        <time>2024-07-25T08:31:12Z</time>
      </trkpt>
      <trkpt lat="43.57904" lon="3.37275">
        <ele>137.8</ele>
        <time>2024-07-25T08:31:13Z</time>
      </trkpt>
      <trkpt lat="43.57908" lon="3.37278">
        <ele>137.6</ele>
        <time>2024-07-25T08:31:14Z</time>
      </trkpt>
      <trkpt lat="43.57912" lon="3.37281">
        <ele>137.2</ele>
        <time>2024-07-25T08:31:15Z</time>
      </trkpt>
      <trkpt lat="43.57915" lon="3.37283">
        <ele>136.9</ele>
        <time>2024-07-25T08:31:16Z</time>
      </trkpt>
      <trkpt lat="43.57918" lon="3.37285">
        <ele>136.7</ele>
        <time>2024-07-25T08:31:17Z</time>
      </trkpt>
      <trkpt lat="43.5792" lon="3.37286">
        <ele>136.7</ele>
        <time>2024-07-25T08:31:18Z</time>
      </trkpt>
      <trkpt lat="43.57923" lon="3.37288">
        <ele>136.8</ele>
        <time>2024-07-25T08:31:19Z</time>
      </trkpt>
      <trkpt lat="43.57926" lon="3.37291">
        <ele>136.9</ele>
        <time>2024-07-25T08:31:20Z</time>
      </trkpt>
      <trkpt lat="43.57929" lon="3.37293">
        <ele>137</ele>
        <time>2024-07-25T08:31:21Z</time>
      </trkpt>
      <trkpt lat="43.57931" lon="3.37294">
        <ele>136.9</ele>
        <time>2024-07-25T08:31:22Z</time>
      </trkpt>
      <trkpt lat="43.57934" lon="3.37296">
        <ele>136.9</ele>
        <time>2024-07-25T08:31:23Z</time>
      </trkpt>
      <trkpt lat="43.57937" lon="3.37298">
        <ele>136.9</ele>
        <time>2024-07-25T08:31:24Z</time>
      </trkpt>
      <trkpt lat="43.57939" lon="3.37299">
        <ele>136.9</ele>
        <time>2024-07-25T08:31:25Z</time>
      </trkpt>
      <trkpt lat="43.57941" lon="3.37301">
        <ele>136.9</ele>
        <time>2024-07-25T08:31:26Z</time>
      </trkpt>
      <trkpt lat="43.57943" lon="3.37302">
        <ele>136.8</ele>
        <time>2024-07-25T08:31:27Z</time>
      </trkpt>
      <trkpt lat="43.57945" lon="3.37303">
        <ele>136.8</ele>
        <time>2024-07-25T08:31:28Z</time>
      </trkpt>
      <trkpt lat="43.57947" lon="3.37305">
        <ele>136.7</ele>
        <time>2024-07-25T08:31:29Z</time>
      </trkpt>
      <trkpt lat="43.5795" lon="3.37306">
        <ele>136.5</ele>
        <time>2024-07-25T08:31:30Z</time>
      </trkpt>
      <trkpt lat="43.57953" lon="3.37309">
        <ele>136.6</ele>
        <time>2024-07-25T08:31:31Z</time>
      </trkpt>
      <trkpt lat="43.57955" lon="3.3731">
        <ele>136.5</ele>
        <time>2024-07-25T08:31:32Z</time>
      </trkpt>
      <trkpt lat="43.57958" lon="3.37312">
        <ele>136.5</ele>
        <time>2024-07-25T08:31:33Z</time>
      </trkpt>
      <trkpt lat="43.57962" lon="3.37314">
        <ele>136.3</ele>
        <time>2024-07-25T08:31:34Z</time>
      </trkpt>
      <trkpt lat="43.57965" lon="3.37316">
        <ele>136.3</ele>
        <time>2024-07-25T08:31:35Z</time>
      </trkpt>
      <trkpt lat="43.57969" lon="3.37319">
        <ele>136.3</ele>
        <time>2024-07-25T08:31:36Z</time>
      </trkpt>
      <trkpt lat="43.57972" lon="3.37322">
        <ele>136.4</ele>
        <time>2024-07-25T08:31:37Z</time>
      </trkpt>
      <trkpt lat="43.57975" lon="3.37324">
        <ele>136.6</ele>
        <time>2024-07-25T08:31:38Z</time>
      </trkpt>
      <trkpt lat="43.57978" lon="3.37327">
        <ele>136.9</ele>
        <time>2024-07-25T08:31:39Z</time>
      </trkpt>
      <trkpt lat="43.57982" lon="3.37328">
        <ele>136.9</ele>
        <time>2024-07-25T08:31:40Z</time>
      </trkpt>
      <trkpt lat="43.57985" lon="3.3733">
        <ele>137.1</ele>
        <time>2024-07-25T08:31:41Z</time>
      </trkpt>
      <trkpt lat="43.57988" lon="3.37333">
        <ele>137.4</ele>
        <time>2024-07-25T08:31:42Z</time>
      </trkpt>
      <trkpt lat="43.57992" lon="3.37335">
        <ele>137.4</ele>
        <time>2024-07-25T08:31:43Z</time>
      </trkpt>
      <trkpt lat="43.57995" lon="3.37338">
        <ele>137.5</ele>
        <time>2024-07-25T08:31:44Z</time>
      </trkpt>
      <trkpt lat="43.57998" lon="3.37342">
        <ele>137.7</ele>
        <time>2024-07-25T08:31:45Z</time>
      </trkpt>
      <trkpt lat="43.58" lon="3.37346">
        <ele>137.9</ele>
        <time>2024-07-25T08:31:46Z</time>
      </trkpt>
      <trkpt lat="43.58002" lon="3.3735">
        <ele>138</ele>
        <time>2024-07-25T08:31:47Z</time>
      </trkpt>
      <trkpt lat="43.58004" lon="3.37355">
        <ele>138.1</ele>
        <time>2024-07-25T08:31:48Z</time>
      </trkpt>
      <trkpt lat="43.58005" lon="3.37359">
        <ele>138.3</ele>
        <time>2024-07-25T08:31:49Z</time>
      </trkpt>
      <trkpt lat="43.58006" lon="3.37364">
        <ele>138.5</ele>
        <time>2024-07-25T08:31:50Z</time>
      </trkpt>
      <trkpt lat="43.58008" lon="3.37369">
        <ele>138.6</ele>
        <time>2024-07-25T08:31:51Z</time>
      </trkpt>
      <trkpt lat="43.58009" lon="3.37372">
        <ele>138.7</ele>
        <time>2024-07-25T08:31:52Z</time>
      </trkpt>
      <trkpt lat="43.5801" lon="3.37378">
        <ele>138.9</ele>
        <time>2024-07-25T08:31:53Z</time>
      </trkpt>
      <trkpt lat="43.58012" lon="3.37383">
        <ele>138.9</ele>
        <time>2024-07-25T08:31:54Z</time>
      </trkpt>
      <trkpt lat="43.58013" lon="3.37387">
        <ele>139</ele>
        <time>2024-07-25T08:31:55Z</time>
      </trkpt>
      <trkpt lat="43.58015" lon="3.37391">
        <ele>139.1</ele>
        <time>2024-07-25T08:31:56Z</time>
      </trkpt>
      <trkpt lat="43.58016" lon="3.37395">
        <ele>139.4</ele>
        <time>2024-07-25T08:31:57Z</time>
      </trkpt>
      <trkpt lat="43.58017" lon="3.37399">
        <ele>139.7</ele>
        <time>2024-07-25T08:31:58Z</time>
      </trkpt>
      <trkpt lat="43.58019" lon="3.37402">
        <ele>139.9</ele>
        <time>2024-07-25T08:31:59Z</time>
      </trkpt>
      <trkpt lat="43.5802" lon="3.37406">
        <ele>140.2</ele>
        <time>2024-07-25T08:32:00Z</time>
      </trkpt>
      <trkpt lat="43.58022" lon="3.3741">
        <ele>140.6</ele>
        <time>2024-07-25T08:32:01Z</time>
      </trkpt>
      <trkpt lat="43.58023" lon="3.37414">
        <ele>141</ele>
        <time>2024-07-25T08:32:02Z</time>
      </trkpt>
      <trkpt lat="43.58024" lon="3.37418">
        <ele>141.5</ele>
        <time>2024-07-25T08:32:03Z</time>
      </trkpt>
      <trkpt lat="43.58025" lon="3.37423">
        <ele>142.1</ele>
        <time>2024-07-25T08:32:04Z</time>
      </trkpt>
      <trkpt lat="43.58027" lon="3.37427">
        <ele>142.6</ele>
        <time>2024-07-25T08:32:05Z</time>
      </trkpt>
      <trkpt lat="43.58027" lon="3.37431">
        <ele>143.1</ele>
        <time>2024-07-25T08:32:06Z</time>
      </trkpt>
      <trkpt lat="43.58028" lon="3.37435">
        <ele>143.6</ele>
        <time>2024-07-25T08:32:07Z</time>
      </trkpt>
      <trkpt lat="43.58029" lon="3.37439">
        <ele>144.1</ele>
        <time>2024-07-25T08:32:08Z</time>
      </trkpt>
      <trkpt lat="43.5803" lon="3.37443">
        <ele>144.6</ele>
        <time>2024-07-25T08:32:09Z</time>
      </trkpt>
      <trkpt lat="43.58031" lon="3.37447">
        <ele>145.1</ele>
        <time>2024-07-25T08:32:10Z</time>
      </trkpt>
      <trkpt lat="43.58032" lon="3.37451">
        <ele>145.7</ele>
        <time>2024-07-25T08:32:11Z</time>
      </trkpt>
      <trkpt lat="43.58033" lon="3.37456">
        <ele>146.4</ele>
        <time>2024-07-25T08:32:12Z</time>
      </trkpt>
      <trkpt lat="43.58035" lon="3.3746">
        <ele>146.9</ele>
        <time>2024-07-25T08:32:13Z</time>
      </trkpt>
      <trkpt lat="43.58037" lon="3.37463">
        <ele>147.1</ele>
        <time>2024-07-25T08:32:14Z</time>
      </trkpt>
      <trkpt lat="43.58038" lon="3.37467">
        <ele>147.7</ele>
        <time>2024-07-25T08:32:15Z</time>
      </trkpt>
      <trkpt lat="43.5804" lon="3.3747">
        <ele>147.9</ele>
        <time>2024-07-25T08:32:16Z</time>
      </trkpt>
      <trkpt lat="43.58042" lon="3.37473">
        <ele>148.1</ele>
        <time>2024-07-25T08:32:17Z</time>
      </trkpt>
      <trkpt lat="43.58044" lon="3.37476">
        <ele>148.5</ele>
        <time>2024-07-25T08:32:18Z</time>
      </trkpt>
      <trkpt lat="43.58045" lon="3.37479">
        <ele>148.9</ele>
        <time>2024-07-25T08:32:19Z</time>
      </trkpt>
      <trkpt lat="43.58047" lon="3.37483">
        <ele>149.4</ele>
        <time>2024-07-25T08:32:20Z</time>
      </trkpt>
      <trkpt lat="43.58049" lon="3.37486">
        <ele>149.7</ele>
        <time>2024-07-25T08:32:21Z</time>
      </trkpt>
      <trkpt lat="43.58051" lon="3.3749">
        <ele>150.1</ele>
        <time>2024-07-25T08:32:22Z</time>
      </trkpt>
      <trkpt lat="43.58053" lon="3.37493">
        <ele>150.2</ele>
        <time>2024-07-25T08:32:23Z</time>
      </trkpt>
      <trkpt lat="43.58055" lon="3.37496">
        <ele>150.4</ele>
        <time>2024-07-25T08:32:24Z</time>
      </trkpt>
      <trkpt lat="43.58056" lon="3.37499">
        <ele>150.8</ele>
        <time>2024-07-25T08:32:25Z</time>
      </trkpt>
      <trkpt lat="43.58058" lon="3.37502">
        <ele>151.2</ele>
        <time>2024-07-25T08:32:26Z</time>
      </trkpt>
      <trkpt lat="43.58059" lon="3.37505">
        <ele>151.8</ele>
        <time>2024-07-25T08:32:27Z</time>
      </trkpt>
      <trkpt lat="43.58061" lon="3.37508">
        <ele>152.3</ele>
        <time>2024-07-25T08:32:28Z</time>
      </trkpt>
      <trkpt lat="43.58063" lon="3.37511">
        <ele>152.7</ele>
        <time>2024-07-25T08:32:29Z</time>
      </trkpt>
      <trkpt lat="43.58064" lon="3.37514">
        <ele>153.3</ele>
        <time>2024-07-25T08:32:30Z</time>
      </trkpt>
      <trkpt lat="43.58066" lon="3.37517">
        <ele>153.7</ele>
        <time>2024-07-25T08:32:31Z</time>
      </trkpt>
      <trkpt lat="43.58068" lon="3.3752">
        <ele>154.1</ele>
        <time>2024-07-25T08:32:32Z</time>
      </trkpt>
      <trkpt lat="43.58069" lon="3.37523">
        <ele>154.6</ele>
        <time>2024-07-25T08:32:33Z</time>
      </trkpt>
      <trkpt lat="43.58071" lon="3.37526">
        <ele>155</ele>
        <time>2024-07-25T08:32:34Z</time>
      </trkpt>
      <trkpt lat="43.58074" lon="3.37529">
        <ele>155.3</ele>
        <time>2024-07-25T08:32:35Z</time>
      </trkpt>
      <trkpt lat="43.58076" lon="3.37531">
        <ele>155.5</ele>
        <time>2024-07-25T08:32:36Z</time>
      </trkpt>
      <trkpt lat="43.58078" lon="3.37533">
        <ele>155.7</ele>
        <time>2024-07-25T08:32:37Z</time>
      </trkpt>
      <trkpt lat="43.58081" lon="3.37535">
        <ele>155.8</ele>
        <time>2024-07-25T08:32:38Z</time>
      </trkpt>
      <trkpt lat="43.58083" lon="3.37537">
        <ele>156</ele>
        <time>2024-07-25T08:32:39Z</time>
      </trkpt>
      <trkpt lat="43.58085" lon="3.3754">
        <ele>156.4</ele>
        <time>2024-07-25T08:32:40Z</time>
      </trkpt>
      <trkpt lat="43.58088" lon="3.37542">
        <ele>156.5</ele>
        <time>2024-07-25T08:32:41Z</time>
      </trkpt>
      <trkpt lat="43.5809" lon="3.37545">
        <ele>156.9</ele>
        <time>2024-07-25T08:32:42Z</time>
      </trkpt>
      <trkpt lat="43.58092" lon="3.37547">
        <ele>157</ele>
        <time>2024-07-25T08:32:43Z</time>
      </trkpt>
      <trkpt lat="43.58094" lon="3.3755">
        <ele>157.3</ele>
        <time>2024-07-25T08:32:44Z</time>
      </trkpt>
      <trkpt lat="43.58096" lon="3.37553">
        <ele>157.7</ele>
        <time>2024-07-25T08:32:45Z</time>
      </trkpt>
      <trkpt lat="43.58098" lon="3.37557">
        <ele>158.1</ele>
        <time>2024-07-25T08:32:46Z</time>
      </trkpt>
      <trkpt lat="43.581" lon="3.3756">
        <ele>158.3</ele>
        <time>2024-07-25T08:32:47Z</time>
      </trkpt>
      <trkpt lat="43.58101" lon="3.37563">
        <ele>158.6</ele>
        <time>2024-07-25T08:32:48Z</time>
      </trkpt>
      <trkpt lat="43.58103" lon="3.37565">
        <ele>158.6</ele>
        <time>2024-07-25T08:32:49Z</time>
      </trkpt>
      <trkpt lat="43.58104" lon="3.37568">
        <ele>158.9</ele>
        <time>2024-07-25T08:32:50Z</time>
      </trkpt>
      <trkpt lat="43.58105" lon="3.37572">
        <ele>159.4</ele>
        <time>2024-07-25T08:32:51Z</time>
      </trkpt>
      <trkpt lat="43.58106" lon="3.37575">
        <ele>159.7</ele>
        <time>2024-07-25T08:32:52Z</time>
      </trkpt>
      <trkpt lat="43.58107" lon="3.37578">
        <ele>159.9</ele>
        <time>2024-07-25T08:32:53Z</time>
      </trkpt>
      <trkpt lat="43.58109" lon="3.37581">
        <ele>160</ele>
        <time>2024-07-25T08:32:54Z</time>
      </trkpt>
      <trkpt lat="43.5811" lon="3.37585">
        <ele>160.4</ele>
        <time>2024-07-25T08:32:55Z</time>
      </trkpt>
      <trkpt lat="43.58112" lon="3.37588">
        <ele>160.5</ele>
        <time>2024-07-25T08:32:56Z</time>
      </trkpt>
      <trkpt lat="43.58113" lon="3.37591">
        <ele>160.8</ele>
        <time>2024-07-25T08:32:57Z</time>
      </trkpt>
      <trkpt lat="43.58115" lon="3.37594">
        <ele>160.8</ele>
        <time>2024-07-25T08:32:58Z</time>
      </trkpt>
      <trkpt lat="43.58116" lon="3.37597">
        <ele>161.1</ele>
        <time>2024-07-25T08:32:59Z</time>
      </trkpt>
      <trkpt lat="43.58118" lon="3.37599">
        <ele>161</ele>
        <time>2024-07-25T08:33:00Z</time>
      </trkpt>
      <trkpt lat="43.5812" lon="3.37601">
        <ele>160.9</ele>
        <time>2024-07-25T08:33:01Z</time>
      </trkpt>
      <trkpt lat="43.58122" lon="3.37604">
        <ele>161</ele>
        <time>2024-07-25T08:33:02Z</time>
      </trkpt>
      <trkpt lat="43.58123" lon="3.37607">
        <ele>161.3</ele>
        <time>2024-07-25T08:33:03Z</time>
      </trkpt>
      <trkpt lat="43.58125" lon="3.3761">
        <ele>161.3</ele>
        <time>2024-07-25T08:33:04Z</time>
      </trkpt>
      <trkpt lat="43.58127" lon="3.37612">
        <ele>161.2</ele>
        <time>2024-07-25T08:33:05Z</time>
      </trkpt>
      <trkpt lat="43.58128" lon="3.37614">
        <ele>161.3</ele>
        <time>2024-07-25T08:33:06Z</time>
      </trkpt>
      <trkpt lat="43.58128" lon="3.37616">
        <ele>161.5</ele>
        <time>2024-07-25T08:33:07Z</time>
      </trkpt>
      <trkpt lat="43.58129" lon="3.37618">
        <ele>161.5</ele>
        <time>2024-07-25T08:33:08Z</time>
      </trkpt>
      <trkpt lat="43.58129" lon="3.3762">
        <ele>161.7</ele>
        <time>2024-07-25T08:33:09Z</time>
      </trkpt>
      <trkpt lat="43.58128" lon="3.37623">
        <ele>162.2</ele>
        <time>2024-07-25T08:33:10Z</time>
      </trkpt>
      <trkpt lat="43.58128" lon="3.37626">
        <ele>162.6</ele>
        <time>2024-07-25T08:33:11Z</time>
      </trkpt>
      <trkpt lat="43.58128" lon="3.37628">
        <ele>162.8</ele>
        <time>2024-07-25T08:33:12Z</time>
      </trkpt>
      <trkpt lat="43.58128" lon="3.37631">
        <ele>163.1</ele>
        <time>2024-07-25T08:33:13Z</time>
      </trkpt>
      <trkpt lat="43.58127" lon="3.37634">
        <ele>163.6</ele>
        <time>2024-07-25T08:33:14Z</time>
      </trkpt>
      <trkpt lat="43.58127" lon="3.37637">
        <ele>163.9</ele>
        <time>2024-07-25T08:33:15Z</time>
      </trkpt>
      <trkpt lat="43.58127" lon="3.3764">
        <ele>164.2</ele>
        <time>2024-07-25T08:33:16Z</time>
      </trkpt>
      <trkpt lat="43.58126" lon="3.37643">
        <ele>164.6</ele>
        <time>2024-07-25T08:33:17Z</time>
      </trkpt>
      <trkpt lat="43.58125" lon="3.37646">
        <ele>165</ele>
        <time>2024-07-25T08:33:18Z</time>
      </trkpt>
      <trkpt lat="43.58125" lon="3.3765">
        <ele>165.3</ele>
        <time>2024-07-25T08:33:19Z</time>
      </trkpt>
      <trkpt lat="43.58124" lon="3.37653">
        <ele>165.7</ele>
        <time>2024-07-25T08:33:20Z</time>
      </trkpt>
      <trkpt lat="43.58124" lon="3.37657">
        <ele>166</ele>
        <time>2024-07-25T08:33:21Z</time>
      </trkpt>
      <trkpt lat="43.58123" lon="3.37659">
        <ele>166.3</ele>
        <time>2024-07-25T08:33:22Z</time>
      </trkpt>
      <trkpt lat="43.58123" lon="3.37663">
        <ele>166.6</ele>
        <time>2024-07-25T08:33:23Z</time>
      </trkpt>
      <trkpt lat="43.58123" lon="3.37666">
        <ele>166.8</ele>
        <time>2024-07-25T08:33:24Z</time>
      </trkpt>
      <trkpt lat="43.58122" lon="3.37669">
        <ele>167.1</ele>
        <time>2024-07-25T08:33:25Z</time>
      </trkpt>
      <trkpt lat="43.58122" lon="3.37672">
        <ele>167.2</ele>
        <time>2024-07-25T08:33:26Z</time>
      </trkpt>
      <trkpt lat="43.58122" lon="3.37675">
        <ele>167.3</ele>
        <time>2024-07-25T08:33:27Z</time>
      </trkpt>
      <trkpt lat="43.58121" lon="3.37679">
        <ele>167.7</ele>
        <time>2024-07-25T08:33:28Z</time>
      </trkpt>
      <trkpt lat="43.58121" lon="3.37682">
        <ele>167.8</ele>
        <time>2024-07-25T08:33:29Z</time>
      </trkpt>
      <trkpt lat="43.5812" lon="3.37686">
        <ele>168.1</ele>
        <time>2024-07-25T08:33:30Z</time>
      </trkpt>
      <trkpt lat="43.5812" lon="3.37689">
        <ele>168.2</ele>
        <time>2024-07-25T08:33:31Z</time>
      </trkpt>
      <trkpt lat="43.58119" lon="3.37692">
        <ele>168.5</ele>
        <time>2024-07-25T08:33:32Z</time>
      </trkpt>
      <trkpt lat="43.58119" lon="3.37695">
        <ele>168.6</ele>
        <time>2024-07-25T08:33:33Z</time>
      </trkpt>
      <trkpt lat="43.58119" lon="3.37698">
        <ele>169</ele>
        <time>2024-07-25T08:33:34Z</time>
      </trkpt>
      <trkpt lat="43.58118" lon="3.37702">
        <ele>169.6</ele>
        <time>2024-07-25T08:33:35Z</time>
      </trkpt>
      <trkpt lat="43.58118" lon="3.37705">
        <ele>169.9</ele>
        <time>2024-07-25T08:33:36Z</time>
      </trkpt>
      <trkpt lat="43.58118" lon="3.37708">
        <ele>170.2</ele>
        <time>2024-07-25T08:33:37Z</time>
      </trkpt>
      <trkpt lat="43.58119" lon="3.37711">
        <ele>170.4</ele>
        <time>2024-07-25T08:33:38Z</time>
      </trkpt>
      <trkpt lat="43.5812" lon="3.37715">
        <ele>170.6</ele>
        <time>2024-07-25T08:33:39Z</time>
      </trkpt>
      <trkpt lat="43.58121" lon="3.37718">
        <ele>170.8</ele>
        <time>2024-07-25T08:33:40Z</time>
      </trkpt>
      <trkpt lat="43.58122" lon="3.3772">
        <ele>170.8</ele>
        <time>2024-07-25T08:33:41Z</time>
      </trkpt>
      <trkpt lat="43.58123" lon="3.37722">
        <ele>170.8</ele>
        <time>2024-07-25T08:33:42Z</time>
      </trkpt>
      <trkpt lat="43.58125" lon="3.37724">
        <ele>170.7</ele>
        <time>2024-07-25T08:33:43Z</time>
      </trkpt>
      <trkpt lat="43.58127" lon="3.37726">
        <ele>170.5</ele>
        <time>2024-07-25T08:33:44Z</time>
      </trkpt>
      <trkpt lat="43.58128" lon="3.37728">
        <ele>170.6</ele>
        <time>2024-07-25T08:33:45Z</time>
      </trkpt>
      <trkpt lat="43.5813" lon="3.3773">
        <ele>170.4</ele>
        <time>2024-07-25T08:33:46Z</time>
      </trkpt>
      <trkpt lat="43.58131" lon="3.37731">
        <ele>170.4</ele>
        <time>2024-07-25T08:33:47Z</time>
      </trkpt>
      <trkpt lat="43.58132" lon="3.37733">
        <ele>170.4</ele>
        <time>2024-07-25T08:33:48Z</time>
      </trkpt>
      <trkpt lat="43.58134" lon="3.37734">
        <ele>170.2</ele>
        <time>2024-07-25T08:33:49Z</time>
      </trkpt>
      <trkpt lat="43.58136" lon="3.37737">
        <ele>170.1</ele>
        <time>2024-07-25T08:33:50Z</time>
      </trkpt>
      <trkpt lat="43.58137" lon="3.37739">
        <ele>170.2</ele>
        <time>2024-07-25T08:33:51Z</time>
      </trkpt>
      <trkpt lat="43.58139" lon="3.37742">
        <ele>170.1</ele>
        <time>2024-07-25T08:33:52Z</time>
      </trkpt>
      <trkpt lat="43.5814" lon="3.37744">
        <ele>170.2</ele>
        <time>2024-07-25T08:33:53Z</time>
      </trkpt>
      <trkpt lat="43.58141" lon="3.37746">
        <ele>170.3</ele>
        <time>2024-07-25T08:33:54Z</time>
      </trkpt>
      <trkpt lat="43.58143" lon="3.37748">
        <ele>170.2</ele>
        <time>2024-07-25T08:33:55Z</time>
      </trkpt>
      <trkpt lat="43.58144" lon="3.3775">
        <ele>170.3</ele>
        <time>2024-07-25T08:33:56Z</time>
      </trkpt>
      <trkpt lat="43.58145" lon="3.37753">
        <ele>170.5</ele>
        <time>2024-07-25T08:33:57Z</time>
      </trkpt>
      <trkpt lat="43.58147" lon="3.37755">
        <ele>170.5</ele>
        <time>2024-07-25T08:33:58Z</time>
      </trkpt>
      <trkpt lat="43.58148" lon="3.37757">
        <ele>170.6</ele>
        <time>2024-07-25T08:33:59Z</time>
      </trkpt>
      <trkpt lat="43.5815" lon="3.37759">
        <ele>170.6</ele>
        <time>2024-07-25T08:34:00Z</time>
      </trkpt>
      <trkpt lat="43.58151" lon="3.37761">
        <ele>170.7</ele>
        <time>2024-07-25T08:34:01Z</time>
      </trkpt>
      <trkpt lat="43.58153" lon="3.37763">
        <ele>170.6</ele>
        <time>2024-07-25T08:34:02Z</time>
      </trkpt>
      <trkpt lat="43.58154" lon="3.37764">
        <ele>170.6</ele>
        <time>2024-07-25T08:34:03Z</time>
      </trkpt>
      <trkpt lat="43.58154" lon="3.37766">
        <ele>170.8</ele>
        <time>2024-07-25T08:34:04Z</time>
      </trkpt>
      <trkpt lat="43.58155" lon="3.37768">
        <ele>170.9</ele>
        <time>2024-07-25T08:34:05Z</time>
      </trkpt>
      <trkpt lat="43.58155" lon="3.37769">
        <ele>171</ele>
        <time>2024-07-25T08:34:06Z</time>
      </trkpt>
      <trkpt lat="43.58156" lon="3.3777">
        <ele>171</ele>
        <time>2024-07-25T08:34:07Z</time>
      </trkpt>
      <trkpt lat="43.58156" lon="3.37772">
        <ele>171.2</ele>
        <time>2024-07-25T08:34:08Z</time>
      </trkpt>
      <trkpt lat="43.58157" lon="3.37773">
        <ele>171.2</ele>
        <time>2024-07-25T08:34:09Z</time>
      </trkpt>
      <trkpt lat="43.58158" lon="3.37775">
        <ele>171.2</ele>
        <time>2024-07-25T08:34:10Z</time>
      </trkpt>
      <trkpt lat="43.58159" lon="3.37778">
        <ele>171.4</ele>
        <time>2024-07-25T08:34:11Z</time>
      </trkpt>
      <trkpt lat="43.5816" lon="3.3778">
        <ele>171.4</ele>
        <time>2024-07-25T08:34:12Z</time>
      </trkpt>
      <trkpt lat="43.5816" lon="3.37782">
        <ele>171.5</ele>
        <time>2024-07-25T08:34:13Z</time>
      </trkpt>
      <trkpt lat="43.58161" lon="3.37784">
        <ele>171.5</ele>
        <time>2024-07-25T08:34:14Z</time>
      </trkpt>
      <trkpt lat="43.58162" lon="3.37786">
        <ele>171.4</ele>
        <time>2024-07-25T08:34:15Z</time>
      </trkpt>
      <trkpt lat="43.58162" lon="3.37789">
        <ele>171.6</ele>
        <time>2024-07-25T08:34:16Z</time>
      </trkpt>
      <trkpt lat="43.58163" lon="3.37791">
        <ele>171.6</ele>
        <time>2024-07-25T08:34:17Z</time>
      </trkpt>
      <trkpt lat="43.58164" lon="3.37794">
        <ele>171.6</ele>
        <time>2024-07-25T08:34:18Z</time>
      </trkpt>
      <trkpt lat="43.58165" lon="3.37796">
        <ele>171.6</ele>
        <time>2024-07-25T08:34:19Z</time>
      </trkpt>
      <trkpt lat="43.58166" lon="3.37798">
        <ele>171.6</ele>
        <time>2024-07-25T08:34:20Z</time>
      </trkpt>
      <trkpt lat="43.58167" lon="3.37799">
        <ele>171.5</ele>
        <time>2024-07-25T08:34:21Z</time>
      </trkpt>
      <trkpt lat="43.58168" lon="3.37801">
        <ele>171.5</ele>
        <time>2024-07-25T08:34:22Z</time>
      </trkpt>
      <trkpt lat="43.58169" lon="3.37803">
        <ele>171.5</ele>
        <time>2024-07-25T08:34:23Z</time>
      </trkpt>
      <trkpt lat="43.5817" lon="3.37804">
        <ele>171.4</ele>
        <time>2024-07-25T08:34:24Z</time>
      </trkpt>
      <trkpt lat="43.58171" lon="3.37805">
        <ele>171.3</ele>
        <time>2024-07-25T08:34:25Z</time>
      </trkpt>
      <trkpt lat="43.58173" lon="3.37806">
        <ele>171.2</ele>
        <time>2024-07-25T08:34:26Z</time>
      </trkpt>
      <trkpt lat="43.58174" lon="3.37807">
        <ele>171.2</ele>
        <time>2024-07-25T08:34:27Z</time>
      </trkpt>
      <trkpt lat="43.58175" lon="3.37808">
        <ele>171.2</ele>
        <time>2024-07-25T08:34:28Z</time>
      </trkpt>
      <trkpt lat="43.58177" lon="3.3781">
        <ele>171.2</ele>
        <time>2024-07-25T08:34:29Z</time>
      </trkpt>
      <trkpt lat="43.58178" lon="3.37811">
        <ele>171.2</ele>
        <time>2024-07-25T08:34:30Z</time>
      </trkpt>
      <trkpt lat="43.5818" lon="3.37812">
        <ele>171.1</ele>
        <time>2024-07-25T08:34:31Z</time>
      </trkpt>
      <trkpt lat="43.58181" lon="3.37813">
        <ele>171.1</ele>
        <time>2024-07-25T08:34:32Z</time>
      </trkpt>
      <trkpt lat="43.58183" lon="3.37814">
        <ele>171</ele>
        <time>2024-07-25T08:34:33Z</time>
      </trkpt>
      <trkpt lat="43.58184" lon="3.37815">
        <ele>171.1</ele>
        <time>2024-07-25T08:34:34Z</time>
      </trkpt>
      <trkpt lat="43.58185" lon="3.37816">
        <ele>171.1</ele>
        <time>2024-07-25T08:34:35Z</time>
      </trkpt>
      <trkpt lat="43.58187" lon="3.37817">
        <ele>171</ele>
        <time>2024-07-25T08:34:36Z</time>
      </trkpt>
      <trkpt lat="43.58189" lon="3.37818">
        <ele>170.9</ele>
        <time>2024-07-25T08:34:37Z</time>
      </trkpt>
      <trkpt lat="43.58191" lon="3.3782">
        <ele>171</ele>
        <time>2024-07-25T08:34:38Z</time>
      </trkpt>
      <trkpt lat="43.58193" lon="3.37821">
        <ele>171</ele>
        <time>2024-07-25T08:34:39Z</time>
      </trkpt>
      <trkpt lat="43.58195" lon="3.37822">
        <ele>170.9</ele>
        <time>2024-07-25T08:34:40Z</time>
      </trkpt>
      <trkpt lat="43.58197" lon="3.37824">
        <ele>171</ele>
        <time>2024-07-25T08:34:41Z</time>
      </trkpt>
      <trkpt lat="43.58199" lon="3.37826">
        <ele>171.1</ele>
        <time>2024-07-25T08:34:42Z</time>
      </trkpt>
      <trkpt lat="43.58201" lon="3.37828">
        <ele>171.2</ele>
        <time>2024-07-25T08:34:43Z</time>
      </trkpt>
      <trkpt lat="43.58203" lon="3.3783">
        <ele>171.2</ele>
        <time>2024-07-25T08:34:44Z</time>
      </trkpt>
      <trkpt lat="43.58204" lon="3.37832">
        <ele>171.4</ele>
        <time>2024-07-25T08:34:45Z</time>
      </trkpt>
      <trkpt lat="43.58206" lon="3.37834">
        <ele>171.4</ele>
        <time>2024-07-25T08:34:46Z</time>
      </trkpt>
      <trkpt lat="43.58207" lon="3.37837">
        <ele>171.7</ele>
        <time>2024-07-25T08:34:47Z</time>
      </trkpt>
      <trkpt lat="43.58209" lon="3.37839">
        <ele>171.6</ele>
        <time>2024-07-25T08:34:48Z</time>
      </trkpt>
      <trkpt lat="43.5821" lon="3.37842">
        <ele>171.8</ele>
        <time>2024-07-25T08:34:49Z</time>
      </trkpt>
      <trkpt lat="43.58212" lon="3.37845">
        <ele>171.9</ele>
        <time>2024-07-25T08:34:50Z</time>
      </trkpt>
      <trkpt lat="43.58213" lon="3.37847">
        <ele>172</ele>
        <time>2024-07-25T08:34:51Z</time>
      </trkpt>
      <trkpt lat="43.58215" lon="3.37851">
        <ele>172.1</ele>
        <time>2024-07-25T08:34:52Z</time>
      </trkpt>
      <trkpt lat="43.58217" lon="3.37854">
        <ele>172.1</ele>
        <time>2024-07-25T08:34:53Z</time>
      </trkpt>
      <trkpt lat="43.5822" lon="3.37858">
        <ele>172.1</ele>
        <time>2024-07-25T08:34:54Z</time>
      </trkpt>
      <trkpt lat="43.58223" lon="3.37862">
        <ele>172</ele>
        <time>2024-07-25T08:34:55Z</time>
      </trkpt>
      <trkpt lat="43.58226" lon="3.37865">
        <ele>172.1</ele>
        <time>2024-07-25T08:34:56Z</time>
      </trkpt>
      <trkpt lat="43.5823" lon="3.37867">
        <ele>171.9</ele>
        <time>2024-07-25T08:34:57Z</time>
      </trkpt>
      <trkpt lat="43.58234" lon="3.3787">
        <ele>171.7</ele>
        <time>2024-07-25T08:34:58Z</time>
      </trkpt>
      <trkpt lat="43.58239" lon="3.37872">
        <ele>171.3</ele>
        <time>2024-07-25T08:34:59Z</time>
      </trkpt>
      <trkpt lat="43.58244" lon="3.37874">
        <ele>170.8</ele>
        <time>2024-07-25T08:35:00Z</time>
      </trkpt>
      <trkpt lat="43.58249" lon="3.37876">
        <ele>170.2</ele>
        <time>2024-07-25T08:35:01Z</time>
      </trkpt>
      <trkpt lat="43.58254" lon="3.37879">
        <ele>169.6</ele>
        <time>2024-07-25T08:35:02Z</time>
      </trkpt>
      <trkpt lat="43.58259" lon="3.37884">
        <ele>169</ele>
        <time>2024-07-25T08:35:03Z</time>
      </trkpt>
      <trkpt lat="43.58264" lon="3.37889">
        <ele>168.5</ele>
        <time>2024-07-25T08:35:04Z</time>
      </trkpt>
      <trkpt lat="43.5827" lon="3.37894">
        <ele>168</ele>
        <time>2024-07-25T08:35:05Z</time>
      </trkpt>
      <trkpt lat="43.58275" lon="3.379">
        <ele>167.7</ele>
        <time>2024-07-25T08:35:06Z</time>
      </trkpt>
      <trkpt lat="43.58281" lon="3.37906">
        <ele>167.3</ele>
        <time>2024-07-25T08:35:07Z</time>
      </trkpt>
      <trkpt lat="43.58286" lon="3.37912">
        <ele>167.2</ele>
        <time>2024-07-25T08:35:08Z</time>
      </trkpt>
      <trkpt lat="43.58291" lon="3.37918">
        <ele>167.4</ele>
        <time>2024-07-25T08:35:09Z</time>
      </trkpt>
      <trkpt lat="43.58296" lon="3.37922">
        <ele>167.6</ele>
        <time>2024-07-25T08:35:10Z</time>
      </trkpt>
      <trkpt lat="43.58301" lon="3.37927">
        <ele>168.1</ele>
        <time>2024-07-25T08:35:11Z</time>
      </trkpt>
      <trkpt lat="43.58306" lon="3.37932">
        <ele>168.8</ele>
        <time>2024-07-25T08:35:12Z</time>
      </trkpt>
      <trkpt lat="43.5831" lon="3.37936">
        <ele>168.8</ele>
        <time>2024-07-25T08:35:13Z</time>
      </trkpt>
      <trkpt lat="43.58314" lon="3.3794">
        <ele>168.8</ele>
        <time>2024-07-25T08:35:14Z</time>
      </trkpt>
      <trkpt lat="43.58317" lon="3.37943">
        <ele>168.8</ele>
        <time>2024-07-25T08:35:15Z</time>
      </trkpt>
      <trkpt lat="43.58319" lon="3.37945">
        <ele>168.7</ele>
        <time>2024-07-25T08:35:16Z</time>
      </trkpt>
      <trkpt lat="43.58322" lon="3.37949">
        <ele>168.4</ele>
        <time>2024-07-25T08:35:17Z</time>
      </trkpt>
      <trkpt lat="43.58324" lon="3.37952">
        <ele>168.1</ele>
        <time>2024-07-25T08:35:18Z</time>
      </trkpt>
      <trkpt lat="43.58325" lon="3.37957">
        <ele>168.2</ele>
        <time>2024-07-25T08:35:19Z</time>
      </trkpt>
      <trkpt lat="43.58325" lon="3.37961">
        <ele>168.6</ele>
        <time>2024-07-25T08:35:20Z</time>
      </trkpt>
      <trkpt lat="43.58326" lon="3.37965">
        <ele>168.6</ele>
        <time>2024-07-25T08:35:21Z</time>
      </trkpt>
      <trkpt lat="43.58325" lon="3.3797">
        <ele>169.4</ele>
        <time>2024-07-25T08:35:22Z</time>
      </trkpt>
      <trkpt lat="43.58325" lon="3.37973">
        <ele>169.6</ele>
        <time>2024-07-25T08:35:23Z</time>
      </trkpt>
      <trkpt lat="43.58325" lon="3.37978">
        <ele>169.8</ele>
        <time>2024-07-25T08:35:24Z</time>
      </trkpt>
      <trkpt lat="43.58324" lon="3.37982">
        <ele>170.4</ele>
        <time>2024-07-25T08:35:25Z</time>
      </trkpt>
      <trkpt lat="43.58324" lon="3.37988">
        <ele>170.6</ele>
        <time>2024-07-25T08:35:26Z</time>
      </trkpt>
      <trkpt lat="43.58324" lon="3.37994">
        <ele>170.8</ele>
        <time>2024-07-25T08:35:27Z</time>
      </trkpt>
      <trkpt lat="43.58325" lon="3.37999">
        <ele>170.7</ele>
        <time>2024-07-25T08:35:28Z</time>
      </trkpt>
      <trkpt lat="43.58326" lon="3.38003">
        <ele>170.7</ele>
        <time>2024-07-25T08:35:29Z</time>
      </trkpt>
      <trkpt lat="43.58326" lon="3.38007">
        <ele>171.1</ele>
        <time>2024-07-25T08:35:30Z</time>
      </trkpt>
      <trkpt lat="43.58327" lon="3.38012">
        <ele>171.2</ele>
        <time>2024-07-25T08:35:31Z</time>
      </trkpt>
      <trkpt lat="43.58328" lon="3.38016">
        <ele>171.3</ele>
        <time>2024-07-25T08:35:32Z</time>
      </trkpt>
      <trkpt lat="43.58328" lon="3.3802">
        <ele>171.7</ele>
        <time>2024-07-25T08:35:33Z</time>
      </trkpt>
      <trkpt lat="43.58329" lon="3.38024">
        <ele>171.9</ele>
        <time>2024-07-25T08:35:34Z</time>
      </trkpt>
      <trkpt lat="43.58329" lon="3.38028">
        <ele>172.3</ele>
        <time>2024-07-25T08:35:35Z</time>
      </trkpt>
      <trkpt lat="43.5833" lon="3.38033">
        <ele>172.7</ele>
        <time>2024-07-25T08:35:36Z</time>
      </trkpt>
      <trkpt lat="43.58331" lon="3.38037">
        <ele>173</ele>
        <time>2024-07-25T08:35:37Z</time>
      </trkpt>
      <trkpt lat="43.58333" lon="3.3804">
        <ele>172.9</ele>
        <time>2024-07-25T08:35:38Z</time>
      </trkpt>
      <trkpt lat="43.58334" lon="3.38044">
        <ele>173.2</ele>
        <time>2024-07-25T08:35:39Z</time>
      </trkpt>
      <trkpt lat="43.58336" lon="3.38048">
        <ele>173.4</ele>
        <time>2024-07-25T08:35:40Z</time>
      </trkpt>
      <trkpt lat="43.58339" lon="3.38052">
        <ele>173.5</ele>
        <time>2024-07-25T08:35:41Z</time>
      </trkpt>
      <trkpt lat="43.58341" lon="3.38055">
        <ele>173.5</ele>
        <time>2024-07-25T08:35:42Z</time>
      </trkpt>
      <trkpt lat="43.58343" lon="3.38059">
        <ele>173.5</ele>
        <time>2024-07-25T08:35:43Z</time>
      </trkpt>
      <trkpt lat="43.58344" lon="3.38062">
        <ele>173.6</ele>
        <time>2024-07-25T08:35:44Z</time>
      </trkpt>
      <trkpt lat="43.58346" lon="3.38065">
        <ele>173.4</ele>
        <time>2024-07-25T08:35:45Z</time>
      </trkpt>
      <trkpt lat="43.58347" lon="3.38069">
        <ele>173.5</ele>
        <time>2024-07-25T08:35:46Z</time>
      </trkpt>
      <trkpt lat="43.58348" lon="3.38072">
        <ele>173.5</ele>
        <time>2024-07-25T08:35:47Z</time>
      </trkpt>
      <trkpt lat="43.58349" lon="3.38076">
        <ele>173.6</ele>
        <time>2024-07-25T08:35:48Z</time>
      </trkpt>
      <trkpt lat="43.5835" lon="3.3808">
        <ele>173.6</ele>
        <time>2024-07-25T08:35:49Z</time>
      </trkpt>
      <trkpt lat="43.58351" lon="3.38085">
        <ele>173.7</ele>
        <time>2024-07-25T08:35:50Z</time>
      </trkpt>
      <trkpt lat="43.58351" lon="3.38089">
        <ele>174</ele>
        <time>2024-07-25T08:35:51Z</time>
      </trkpt>
      <trkpt lat="43.58352" lon="3.38094">
        <ele>174.2</ele>
        <time>2024-07-25T08:35:52Z</time>
      </trkpt>
      <trkpt lat="43.58352" lon="3.38099">
        <ele>174.6</ele>
        <time>2024-07-25T08:35:53Z</time>
      </trkpt>
      <trkpt lat="43.58353" lon="3.38103">
        <ele>174.7</ele>
        <time>2024-07-25T08:35:54Z</time>
      </trkpt>
      <trkpt lat="43.58354" lon="3.38108">
        <ele>174.8</ele>
        <time>2024-07-25T08:35:55Z</time>
      </trkpt>
      <trkpt lat="43.58355" lon="3.38112">
        <ele>174.9</ele>
        <time>2024-07-25T08:35:56Z</time>
      </trkpt>
      <trkpt lat="43.58357" lon="3.38115">
        <ele>174.8</ele>
        <time>2024-07-25T08:35:57Z</time>
      </trkpt>
      <trkpt lat="43.58359" lon="3.38119">
        <ele>174.8</ele>
        <time>2024-07-25T08:35:58Z</time>
      </trkpt>
      <trkpt lat="43.5836" lon="3.38122">
        <ele>174.9</ele>
        <time>2024-07-25T08:35:59Z</time>
      </trkpt>
      <trkpt lat="43.58362" lon="3.38125">
        <ele>174.8</ele>
        <time>2024-07-25T08:36:00Z</time>
      </trkpt>
      <trkpt lat="43.58364" lon="3.38129">
        <ele>175</ele>
        <time>2024-07-25T08:36:01Z</time>
      </trkpt>
      <trkpt lat="43.58367" lon="3.38132">
        <ele>174.8</ele>
        <time>2024-07-25T08:36:02Z</time>
      </trkpt>
      <trkpt lat="43.58369" lon="3.38136">
        <ele>174.9</ele>
        <time>2024-07-25T08:36:03Z</time>
      </trkpt>
      <trkpt lat="43.58371" lon="3.38139">
        <ele>174.9</ele>
        <time>2024-07-25T08:36:04Z</time>
      </trkpt>
      <trkpt lat="43.58373" lon="3.38142">
        <ele>175.1</ele>
        <time>2024-07-25T08:36:05Z</time>
      </trkpt>
      <trkpt lat="43.58375" lon="3.38146">
        <ele>175.4</ele>
        <time>2024-07-25T08:36:06Z</time>
      </trkpt>
      <trkpt lat="43.58378" lon="3.38149">
        <ele>175.2</ele>
        <time>2024-07-25T08:36:07Z</time>
      </trkpt>
      <trkpt lat="43.5838" lon="3.38152">
        <ele>175.3</ele>
        <time>2024-07-25T08:36:08Z</time>
      </trkpt>
      <trkpt lat="43.58382" lon="3.38156">
        <ele>175.4</ele>
        <time>2024-07-25T08:36:09Z</time>
      </trkpt>
      <trkpt lat="43.58385" lon="3.3816">
        <ele>175.2</ele>
        <time>2024-07-25T08:36:10Z</time>
      </trkpt>
      <trkpt lat="43.58387" lon="3.38164">
        <ele>175.2</ele>
        <time>2024-07-25T08:36:11Z</time>
      </trkpt>
      <trkpt lat="43.5839" lon="3.38167">
        <ele>174.9</ele>
        <time>2024-07-25T08:36:12Z</time>
      </trkpt>
      <trkpt lat="43.58393" lon="3.38171">
        <ele>175.1</ele>
        <time>2024-07-25T08:36:13Z</time>
      </trkpt>
      <trkpt lat="43.58395" lon="3.38175">
        <ele>175.5</ele>
        <time>2024-07-25T08:36:14Z</time>
      </trkpt>
      <trkpt lat="43.58398" lon="3.38178">
        <ele>175.4</ele>
        <time>2024-07-25T08:36:15Z</time>
      </trkpt>
      <trkpt lat="43.58401" lon="3.38182">
        <ele>175.4</ele>
        <time>2024-07-25T08:36:16Z</time>
      </trkpt>
      <trkpt lat="43.58403" lon="3.38185">
        <ele>175.4</ele>
        <time>2024-07-25T08:36:17Z</time>
      </trkpt>
      <trkpt lat="43.58406" lon="3.38188">
        <ele>175.1</ele>
        <time>2024-07-25T08:36:18Z</time>
      </trkpt>
      <trkpt lat="43.58408" lon="3.38192">
        <ele>175.1</ele>
        <time>2024-07-25T08:36:19Z</time>
      </trkpt>
      <trkpt lat="43.5841" lon="3.38196">
        <ele>175.2</ele>
        <time>2024-07-25T08:36:20Z</time>
      </trkpt>
      <trkpt lat="43.58411" lon="3.382">
        <ele>175.6</ele>
        <time>2024-07-25T08:36:21Z</time>
      </trkpt>
      <trkpt lat="43.58411" lon="3.38205">
        <ele>176.5</ele>
        <time>2024-07-25T08:36:22Z</time>
      </trkpt>
      <trkpt lat="43.5841" lon="3.38208">
        <ele>177.3</ele>
        <time>2024-07-25T08:36:23Z</time>
      </trkpt>
      <trkpt lat="43.5841" lon="3.38212">
        <ele>178.1</ele>
        <time>2024-07-25T08:36:24Z</time>
      </trkpt>
      <trkpt lat="43.58411" lon="3.38215">
        <ele>178.2</ele>
        <time>2024-07-25T08:36:25Z</time>
      </trkpt>
      <trkpt lat="43.58411" lon="3.38219">
        <ele>178.9</ele>
        <time>2024-07-25T08:36:26Z</time>
      </trkpt>
      <trkpt lat="43.58411" lon="3.38222">
        <ele>179.4</ele>
        <time>2024-07-25T08:36:27Z</time>
      </trkpt>
      <trkpt lat="43.58411" lon="3.38225">
        <ele>180.1</ele>
        <time>2024-07-25T08:36:28Z</time>
      </trkpt>
      <trkpt lat="43.58411" lon="3.38228">
        <ele>180.7</ele>
        <time>2024-07-25T08:36:29Z</time>
      </trkpt>
      <trkpt lat="43.58411" lon="3.38231">
        <ele>181.4</ele>
        <time>2024-07-25T08:36:30Z</time>
      </trkpt>
      <trkpt lat="43.58412" lon="3.38235">
        <ele>181.9</ele>
        <time>2024-07-25T08:36:31Z</time>
      </trkpt>
      <trkpt lat="43.58413" lon="3.38238">
        <ele>182.1</ele>
        <time>2024-07-25T08:36:32Z</time>
      </trkpt>
      <trkpt lat="43.58413" lon="3.3824">
        <ele>182.5</ele>
        <time>2024-07-25T08:36:33Z</time>
      </trkpt>
      <trkpt lat="43.58414" lon="3.38243">
        <ele>182.7</ele>
        <time>2024-07-25T08:36:34Z</time>
      </trkpt>
      <trkpt lat="43.58415" lon="3.38246">
        <ele>182.9</ele>
        <time>2024-07-25T08:36:35Z</time>
      </trkpt>
      <trkpt lat="43.58416" lon="3.38248">
        <ele>182.9</ele>
        <time>2024-07-25T08:36:36Z</time>
      </trkpt>
      <trkpt lat="43.58417" lon="3.38251">
        <ele>183.1</ele>
        <time>2024-07-25T08:36:37Z</time>
      </trkpt>
      <trkpt lat="43.58418" lon="3.38253">
        <ele>183.3</ele>
        <time>2024-07-25T08:36:38Z</time>
      </trkpt>
      <trkpt lat="43.58419" lon="3.38255">
        <ele>183.4</ele>
        <time>2024-07-25T08:36:39Z</time>
      </trkpt>
      <trkpt lat="43.5842" lon="3.38257">
        <ele>183.5</ele>
        <time>2024-07-25T08:36:40Z</time>
      </trkpt>
      <trkpt lat="43.5842" lon="3.38259">
        <ele>183.9</ele>
        <time>2024-07-25T08:36:41Z</time>
      </trkpt>
      <trkpt lat="43.58421" lon="3.38261">
        <ele>184</ele>
        <time>2024-07-25T08:36:42Z</time>
      </trkpt>
      <trkpt lat="43.58422" lon="3.38262">
        <ele>183.9</ele>
        <time>2024-07-25T08:36:43Z</time>
      </trkpt>
      <trkpt lat="43.58423" lon="3.38264">
        <ele>184</ele>
        <time>2024-07-25T08:36:44Z</time>
      </trkpt>
      <trkpt lat="43.58423" lon="3.38266">
        <ele>184.4</ele>
        <time>2024-07-25T08:36:45Z</time>
      </trkpt>
      <trkpt lat="43.58424" lon="3.38268">
        <ele>184.4</ele>
        <time>2024-07-25T08:36:46Z</time>
      </trkpt>
      <trkpt lat="43.58425" lon="3.3827">
        <ele>184.5</ele>
        <time>2024-07-25T08:36:47Z</time>
      </trkpt>
      <trkpt lat="43.58425" lon="3.38272">
        <ele>184.9</ele>
        <time>2024-07-25T08:36:48Z</time>
      </trkpt>
      <trkpt lat="43.58426" lon="3.38273">
        <ele>184.7</ele>
        <time>2024-07-25T08:36:49Z</time>
      </trkpt>
      <trkpt lat="43.58426" lon="3.38275">
        <ele>185.1</ele>
        <time>2024-07-25T08:36:50Z</time>
      </trkpt>
      <trkpt lat="43.58427" lon="3.38277">
        <ele>185.1</ele>
        <time>2024-07-25T08:36:51Z</time>
      </trkpt>
      <trkpt lat="43.58428" lon="3.38279">
        <ele>185.1</ele>
        <time>2024-07-25T08:36:52Z</time>
      </trkpt>
      <trkpt lat="43.58428" lon="3.3828">
        <ele>185.3</ele>
        <time>2024-07-25T08:36:53Z</time>
      </trkpt>
      <trkpt lat="43.58429" lon="3.38282">
        <ele>185.3</ele>
        <time>2024-07-25T08:36:54Z</time>
      </trkpt>
      <trkpt lat="43.58429" lon="3.38284">
        <ele>185.6</ele>
        <time>2024-07-25T08:36:55Z</time>
      </trkpt>
      <trkpt lat="43.5843" lon="3.38285">
        <ele>185.4</ele>
        <time>2024-07-25T08:36:56Z</time>
      </trkpt>
      <trkpt lat="43.5843" lon="3.38287">
        <ele>185.7</ele>
        <time>2024-07-25T08:36:57Z</time>
      </trkpt>
      <trkpt lat="43.5843" lon="3.38288">
        <ele>185.9</ele>
        <time>2024-07-25T08:36:58Z</time>
      </trkpt>
      <trkpt lat="43.58431" lon="3.3829">
        <ele>185.8</ele>
        <time>2024-07-25T08:36:59Z</time>
      </trkpt>
      <trkpt lat="43.58431" lon="3.38291">
        <ele>186</ele>
        <time>2024-07-25T08:37:00Z</time>
      </trkpt>
      <trkpt lat="43.58431" lon="3.38294">
        <ele>186.4</ele>
        <time>2024-07-25T08:37:01Z</time>
      </trkpt>
      <trkpt lat="43.58431" lon="3.38295">
        <ele>186.6</ele>
        <time>2024-07-25T08:37:02Z</time>
      </trkpt>
      <trkpt lat="43.58432" lon="3.38297">
        <ele>186.5</ele>
        <time>2024-07-25T08:37:03Z</time>
      </trkpt>
      <trkpt lat="43.58432" lon="3.38299">
        <ele>186.8</ele>
        <time>2024-07-25T08:37:04Z</time>
      </trkpt>
      <trkpt lat="43.58432" lon="3.383">
        <ele>187</ele>
        <time>2024-07-25T08:37:05Z</time>
      </trkpt>
      <trkpt lat="43.58433" lon="3.38302">
        <ele>186.8</ele>
        <time>2024-07-25T08:37:06Z</time>
      </trkpt>
      <trkpt lat="43.58433" lon="3.38304">
        <ele>187.1</ele>
        <time>2024-07-25T08:37:07Z</time>
      </trkpt>
      <trkpt lat="43.58433" lon="3.38305">
        <ele>187.3</ele>
        <time>2024-07-25T08:37:08Z</time>
      </trkpt>
      <trkpt lat="43.58433" lon="3.38308">
        <ele>187.7</ele>
        <time>2024-07-25T08:37:09Z</time>
      </trkpt>
      <trkpt lat="43.58433" lon="3.3831">
        <ele>188.1</ele>
        <time>2024-07-25T08:37:10Z</time>
      </trkpt>
      <trkpt lat="43.58434" lon="3.38312">
        <ele>187.9</ele>
        <time>2024-07-25T08:37:11Z</time>
      </trkpt>
      <trkpt lat="43.58434" lon="3.38314">
        <ele>188.2</ele>
        <time>2024-07-25T08:37:12Z</time>
      </trkpt>
      <trkpt lat="43.58435" lon="3.38316">
        <ele>188.1</ele>
        <time>2024-07-25T08:37:13Z</time>
      </trkpt>
      <trkpt lat="43.58435" lon="3.38318">
        <ele>188.4</ele>
        <time>2024-07-25T08:37:14Z</time>
      </trkpt>
      <trkpt lat="43.58435" lon="3.38321">
        <ele>188.8</ele>
        <time>2024-07-25T08:37:15Z</time>
      </trkpt>
      <trkpt lat="43.58435" lon="3.38323">
        <ele>189.1</ele>
        <time>2024-07-25T08:37:16Z</time>
      </trkpt>
      <trkpt lat="43.58435" lon="3.38325">
        <ele>189.5</ele>
        <time>2024-07-25T08:37:17Z</time>
      </trkpt>
      <trkpt lat="43.58435" lon="3.38328">
        <ele>189.9</ele>
        <time>2024-07-25T08:37:18Z</time>
      </trkpt>
      <trkpt lat="43.58436" lon="3.38331">
        <ele>189.9</ele>
        <time>2024-07-25T08:37:19Z</time>
      </trkpt>
      <trkpt lat="43.58436" lon="3.38333">
        <ele>190.2</ele>
        <time>2024-07-25T08:37:20Z</time>
      </trkpt>
      <trkpt lat="43.58436" lon="3.38336">
        <ele>190.6</ele>
        <time>2024-07-25T08:37:21Z</time>
      </trkpt>
      <trkpt lat="43.58436" lon="3.38339">
        <ele>191</ele>
        <time>2024-07-25T08:37:22Z</time>
      </trkpt>
      <trkpt lat="43.58436" lon="3.38342">
        <ele>191.4</ele>
        <time>2024-07-25T08:37:23Z</time>
      </trkpt>
      <trkpt lat="43.58437" lon="3.38345">
        <ele>191.3</ele>
        <time>2024-07-25T08:37:24Z</time>
      </trkpt>
      <trkpt lat="43.58437" lon="3.38348">
        <ele>191.7</ele>
        <time>2024-07-25T08:37:25Z</time>
      </trkpt>
      <trkpt lat="43.58438" lon="3.3835">
        <ele>191.5</ele>
        <time>2024-07-25T08:37:26Z</time>
      </trkpt>
      <trkpt lat="43.58438" lon="3.38353">
        <ele>191.9</ele>
        <time>2024-07-25T08:37:27Z</time>
      </trkpt>
      <trkpt lat="43.58439" lon="3.38356">
        <ele>191.8</ele>
        <time>2024-07-25T08:37:28Z</time>
      </trkpt>
      <trkpt lat="43.58439" lon="3.38358">
        <ele>192.1</ele>
        <time>2024-07-25T08:37:29Z</time>
      </trkpt>
      <trkpt lat="43.5844" lon="3.38361">
        <ele>192.1</ele>
        <time>2024-07-25T08:37:30Z</time>
      </trkpt>
      <trkpt lat="43.5844" lon="3.38364">
        <ele>192.3</ele>
        <time>2024-07-25T08:37:31Z</time>
      </trkpt>
      <trkpt lat="43.58441" lon="3.38366">
        <ele>192</ele>
        <time>2024-07-25T08:37:32Z</time>
      </trkpt>
      <trkpt lat="43.58441" lon="3.38369">
        <ele>192.2</ele>
        <time>2024-07-25T08:37:33Z</time>
      </trkpt>
      <trkpt lat="43.58442" lon="3.38371">
        <ele>191.9</ele>
        <time>2024-07-25T08:37:34Z</time>
      </trkpt>
      <trkpt lat="43.58442" lon="3.38374">
        <ele>192.1</ele>
        <time>2024-07-25T08:37:35Z</time>
      </trkpt>
      <trkpt lat="43.58441" lon="3.38377">
        <ele>192.8</ele>
        <time>2024-07-25T08:37:36Z</time>
      </trkpt>
      <trkpt lat="43.58442" lon="3.38379">
        <ele>192.5</ele>
        <time>2024-07-25T08:37:37Z</time>
      </trkpt>
      <trkpt lat="43.58442" lon="3.38381">
        <ele>192.6</ele>
        <time>2024-07-25T08:37:38Z</time>
      </trkpt>
      <trkpt lat="43.58442" lon="3.38383">
        <ele>192.8</ele>
        <time>2024-07-25T08:37:39Z</time>
      </trkpt>
      <trkpt lat="43.58442" lon="3.38386">
        <ele>193</ele>
        <time>2024-07-25T08:37:40Z</time>
      </trkpt>
      <trkpt lat="43.58442" lon="3.38389">
        <ele>193.2</ele>
        <time>2024-07-25T08:37:41Z</time>
      </trkpt>
      <trkpt lat="43.58442" lon="3.38391">
        <ele>193.3</ele>
        <time>2024-07-25T08:37:42Z</time>
      </trkpt>
      <trkpt lat="43.58442" lon="3.38394">
        <ele>193.4</ele>
        <time>2024-07-25T08:37:43Z</time>
      </trkpt>
      <trkpt lat="43.58442" lon="3.38397">
        <ele>193.5</ele>
        <time>2024-07-25T08:37:44Z</time>
      </trkpt>
      <trkpt lat="43.58442" lon="3.384">
        <ele>193.6</ele>
        <time>2024-07-25T08:37:45Z</time>
      </trkpt>
      <trkpt lat="43.58443" lon="3.38403">
        <ele>193.2</ele>
        <time>2024-07-25T08:37:46Z</time>
      </trkpt>
      <trkpt lat="43.58443" lon="3.38407">
        <ele>193.3</ele>
        <time>2024-07-25T08:37:47Z</time>
      </trkpt>
      <trkpt lat="43.58443" lon="3.3841">
        <ele>193.4</ele>
        <time>2024-07-25T08:37:48Z</time>
      </trkpt>
      <trkpt lat="43.58443" lon="3.38413">
        <ele>193.6</ele>
        <time>2024-07-25T08:37:49Z</time>
      </trkpt>
      <trkpt lat="43.58443" lon="3.38416">
        <ele>193.7</ele>
        <time>2024-07-25T08:37:50Z</time>
      </trkpt>
      <trkpt lat="43.58443" lon="3.38419">
        <ele>193.8</ele>
        <time>2024-07-25T08:37:51Z</time>
      </trkpt>
      <trkpt lat="43.58442" lon="3.38421">
        <ele>194.3</ele>
        <time>2024-07-25T08:37:52Z</time>
      </trkpt>
      <trkpt lat="43.58441" lon="3.38424">
        <ele>194.8</ele>
        <time>2024-07-25T08:37:53Z</time>
      </trkpt>
      <trkpt lat="43.5844" lon="3.38427">
        <ele>195.4</ele>
        <time>2024-07-25T08:37:54Z</time>
      </trkpt>
      <trkpt lat="43.58439" lon="3.3843">
        <ele>195.9</ele>
        <time>2024-07-25T08:37:55Z</time>
      </trkpt>
      <trkpt lat="43.58438" lon="3.38433">
        <ele>196.5</ele>
        <time>2024-07-25T08:37:56Z</time>
      </trkpt>
      <trkpt lat="43.58437" lon="3.38436">
        <ele>197</ele>
        <time>2024-07-25T08:37:57Z</time>
      </trkpt>
      <trkpt lat="43.58436" lon="3.38438">
        <ele>197.5</ele>
        <time>2024-07-25T08:37:58Z</time>
      </trkpt>
      <trkpt lat="43.58435" lon="3.38441">
        <ele>198</ele>
        <time>2024-07-25T08:37:59Z</time>
      </trkpt>
      <trkpt lat="43.58434" lon="3.38444">
        <ele>198.5</ele>
        <time>2024-07-25T08:38:00Z</time>
      </trkpt>
      <trkpt lat="43.58434" lon="3.38447">
        <ele>198.8</ele>
        <time>2024-07-25T08:38:01Z</time>
      </trkpt>
      <trkpt lat="43.58434" lon="3.3845">
        <ele>199.2</ele>
        <time>2024-07-25T08:38:02Z</time>
      </trkpt>
      <trkpt lat="43.58435" lon="3.38453">
        <ele>199.2</ele>
        <time>2024-07-25T08:38:03Z</time>
      </trkpt>
      <trkpt lat="43.58436" lon="3.38456">
        <ele>199.2</ele>
        <time>2024-07-25T08:38:04Z</time>
      </trkpt>
      <trkpt lat="43.58437" lon="3.38458">
        <ele>199.1</ele>
        <time>2024-07-25T08:38:05Z</time>
      </trkpt>
      <trkpt lat="43.58439" lon="3.38461">
        <ele>198.9</ele>
        <time>2024-07-25T08:38:06Z</time>
      </trkpt>
      <trkpt lat="43.58441" lon="3.38462">
        <ele>198.3</ele>
        <time>2024-07-25T08:38:07Z</time>
      </trkpt>
      <trkpt lat="43.58444" lon="3.38464">
        <ele>197.7</ele>
        <time>2024-07-25T08:38:08Z</time>
      </trkpt>
      <trkpt lat="43.58446" lon="3.38465">
        <ele>197.4</ele>
        <time>2024-07-25T08:38:09Z</time>
      </trkpt>
      <trkpt lat="43.58449" lon="3.38466">
        <ele>196.9</ele>
        <time>2024-07-25T08:38:10Z</time>
      </trkpt>
      <trkpt lat="43.58452" lon="3.38467">
        <ele>196.4</ele>
        <time>2024-07-25T08:38:11Z</time>
      </trkpt>
      <trkpt lat="43.58455" lon="3.38468">
        <ele>196</ele>
        <time>2024-07-25T08:38:12Z</time>
      </trkpt>
      <trkpt lat="43.58459" lon="3.38469">
        <ele>195.3</ele>
        <time>2024-07-25T08:38:13Z</time>
      </trkpt>
      <trkpt lat="43.58463" lon="3.3847">
        <ele>194.6</ele>
        <time>2024-07-25T08:38:14Z</time>
      </trkpt>
      <trkpt lat="43.58467" lon="3.38473">
        <ele>194.2</ele>
        <time>2024-07-25T08:38:15Z</time>
      </trkpt>
      <trkpt lat="43.5847" lon="3.38476">
        <ele>193.9</ele>
        <time>2024-07-25T08:38:16Z</time>
      </trkpt>
      <trkpt lat="43.58474" lon="3.38479">
        <ele>193.2</ele>
        <time>2024-07-25T08:38:17Z</time>
      </trkpt>
      <trkpt lat="43.58477" lon="3.38483">
        <ele>192.8</ele>
        <time>2024-07-25T08:38:18Z</time>
      </trkpt>
      <trkpt lat="43.58481" lon="3.38486">
        <ele>192</ele>
        <time>2024-07-25T08:38:19Z</time>
      </trkpt>
      <trkpt lat="43.58485" lon="3.38491">
        <ele>191.3</ele>
        <time>2024-07-25T08:38:20Z</time>
      </trkpt>
      <trkpt lat="43.58488" lon="3.38496">
        <ele>191</ele>
        <time>2024-07-25T08:38:21Z</time>
      </trkpt>
      <trkpt lat="43.5849" lon="3.38502">
        <ele>191</ele>
        <time>2024-07-25T08:38:22Z</time>
      </trkpt>
      <trkpt lat="43.58492" lon="3.38509">
        <ele>191</ele>
        <time>2024-07-25T08:38:23Z</time>
      </trkpt>
      <trkpt lat="43.58493" lon="3.38515">
        <ele>191.2</ele>
        <time>2024-07-25T08:38:24Z</time>
      </trkpt>
      <trkpt lat="43.58495" lon="3.3852">
        <ele>191</ele>
        <time>2024-07-25T08:38:25Z</time>
      </trkpt>
      <trkpt lat="43.58495" lon="3.38526">
        <ele>191.5</ele>
        <time>2024-07-25T08:38:26Z</time>
      </trkpt>
      <trkpt lat="43.58495" lon="3.38531">
        <ele>191.9</ele>
        <time>2024-07-25T08:38:27Z</time>
      </trkpt>
      <trkpt lat="43.58495" lon="3.38537">
        <ele>192.3</ele>
        <time>2024-07-25T08:38:28Z</time>
      </trkpt>
      <trkpt lat="43.58495" lon="3.38543">
        <ele>192.8</ele>
        <time>2024-07-25T08:38:29Z</time>
      </trkpt>
      <trkpt lat="43.58495" lon="3.38548">
        <ele>193.2</ele>
        <time>2024-07-25T08:38:30Z</time>
      </trkpt>
      <trkpt lat="43.58495" lon="3.38554">
        <ele>193.7</ele>
        <time>2024-07-25T08:38:31Z</time>
      </trkpt>
      <trkpt lat="43.58495" lon="3.38559">
        <ele>194.2</ele>
        <time>2024-07-25T08:38:32Z</time>
      </trkpt>
      <trkpt lat="43.58496" lon="3.38564">
        <ele>194.4</ele>
        <time>2024-07-25T08:38:33Z</time>
      </trkpt>
      <trkpt lat="43.58497" lon="3.38569">
        <ele>194.5</ele>
        <time>2024-07-25T08:38:34Z</time>
      </trkpt>
      <trkpt lat="43.58499" lon="3.38573">
        <ele>194.2</ele>
        <time>2024-07-25T08:38:35Z</time>
      </trkpt>
      <trkpt lat="43.585" lon="3.38578">
        <ele>194.4</ele>
        <time>2024-07-25T08:38:36Z</time>
      </trkpt>
      <trkpt lat="43.58501" lon="3.38584">
        <ele>194.8</ele>
        <time>2024-07-25T08:38:37Z</time>
      </trkpt>
      <trkpt lat="43.58502" lon="3.38589">
        <ele>194.8</ele>
        <time>2024-07-25T08:38:38Z</time>
      </trkpt>
      <trkpt lat="43.58502" lon="3.38594">
        <ele>195.2</ele>
        <time>2024-07-25T08:38:39Z</time>
      </trkpt>
      <trkpt lat="43.58503" lon="3.38599">
        <ele>195.3</ele>
        <time>2024-07-25T08:38:40Z</time>
      </trkpt>
      <trkpt lat="43.58503" lon="3.38603">
        <ele>195.6</ele>
        <time>2024-07-25T08:38:41Z</time>
      </trkpt>
      <trkpt lat="43.58504" lon="3.38608">
        <ele>195.6</ele>
        <time>2024-07-25T08:38:42Z</time>
      </trkpt>
      <trkpt lat="43.58505" lon="3.38613">
        <ele>195.8</ele>
        <time>2024-07-25T08:38:43Z</time>
      </trkpt>
      <trkpt lat="43.58504" lon="3.38618">
        <ele>196.6</ele>
        <time>2024-07-25T08:38:44Z</time>
      </trkpt>
      <trkpt lat="43.58505" lon="3.38623">
        <ele>196.8</ele>
        <time>2024-07-25T08:38:45Z</time>
      </trkpt>
      <trkpt lat="43.58505" lon="3.38628">
        <ele>197.4</ele>
        <time>2024-07-25T08:38:46Z</time>
      </trkpt>
      <trkpt lat="43.58506" lon="3.38633">
        <ele>197.6</ele>
        <time>2024-07-25T08:38:47Z</time>
      </trkpt>
      <trkpt lat="43.58506" lon="3.38638">
        <ele>198.2</ele>
        <time>2024-07-25T08:38:48Z</time>
      </trkpt>
      <trkpt lat="43.58507" lon="3.38642">
        <ele>198.2</ele>
        <time>2024-07-25T08:38:49Z</time>
      </trkpt>
      <trkpt lat="43.58507" lon="3.38646">
        <ele>198.5</ele>
        <time>2024-07-25T08:38:50Z</time>
      </trkpt>
      <trkpt lat="43.58507" lon="3.3865">
        <ele>198.8</ele>
        <time>2024-07-25T08:38:51Z</time>
      </trkpt>
      <trkpt lat="43.58508" lon="3.38654">
        <ele>198.8</ele>
        <time>2024-07-25T08:38:52Z</time>
      </trkpt>
      <trkpt lat="43.58509" lon="3.38658">
        <ele>198.8</ele>
        <time>2024-07-25T08:38:53Z</time>
      </trkpt>
      <trkpt lat="43.5851" lon="3.38662">
        <ele>198.8</ele>
        <time>2024-07-25T08:38:54Z</time>
      </trkpt>
      <trkpt lat="43.5851" lon="3.38666">
        <ele>199.1</ele>
        <time>2024-07-25T08:38:55Z</time>
      </trkpt>
      <trkpt lat="43.58511" lon="3.38669">
        <ele>199</ele>
        <time>2024-07-25T08:38:56Z</time>
      </trkpt>
      <trkpt lat="43.58511" lon="3.38673">
        <ele>199.3</ele>
        <time>2024-07-25T08:38:57Z</time>
      </trkpt>
      <trkpt lat="43.58512" lon="3.38677">
        <ele>199.3</ele>
        <time>2024-07-25T08:38:58Z</time>
      </trkpt>
      <trkpt lat="43.58512" lon="3.3868">
        <ele>199.5</ele>
        <time>2024-07-25T08:38:59Z</time>
      </trkpt>
      <trkpt lat="43.58513" lon="3.38685">
        <ele>199.6</ele>
        <time>2024-07-25T08:39:00Z</time>
      </trkpt>
      <trkpt lat="43.58514" lon="3.38688">
        <ele>199.5</ele>
        <time>2024-07-25T08:39:01Z</time>
      </trkpt>
      <trkpt lat="43.58514" lon="3.38692">
        <ele>199.8</ele>
        <time>2024-07-25T08:39:02Z</time>
      </trkpt>
      <trkpt lat="43.58515" lon="3.38696">
        <ele>199.7</ele>
        <time>2024-07-25T08:39:03Z</time>
      </trkpt>
      <trkpt lat="43.58516" lon="3.387">
        <ele>199.6</ele>
        <time>2024-07-25T08:39:04Z</time>
      </trkpt>
      <trkpt lat="43.58517" lon="3.38705">
        <ele>199.5</ele>
        <time>2024-07-25T08:39:05Z</time>
      </trkpt>
      <trkpt lat="43.58518" lon="3.38709">
        <ele>199.3</ele>
        <time>2024-07-25T08:39:06Z</time>
      </trkpt>
      <trkpt lat="43.58519" lon="3.38713">
        <ele>199.2</ele>
        <time>2024-07-25T08:39:07Z</time>
      </trkpt>
      <trkpt lat="43.5852" lon="3.38717">
        <ele>199.1</ele>
        <time>2024-07-25T08:39:08Z</time>
      </trkpt>
      <trkpt lat="43.5852" lon="3.38722">
        <ele>199.2</ele>
        <time>2024-07-25T08:39:09Z</time>
      </trkpt>
      <trkpt lat="43.5852" lon="3.38727">
        <ele>199.4</ele>
        <time>2024-07-25T08:39:10Z</time>
      </trkpt>
      <trkpt lat="43.58519" lon="3.38732">
        <ele>199.9</ele>
        <time>2024-07-25T08:39:11Z</time>
      </trkpt>
      <trkpt lat="43.58519" lon="3.38736">
        <ele>200</ele>
        <time>2024-07-25T08:39:12Z</time>
      </trkpt>
      <trkpt lat="43.58519" lon="3.38741">
        <ele>200.2</ele>
        <time>2024-07-25T08:39:13Z</time>
      </trkpt>
      <trkpt lat="43.58519" lon="3.38745">
        <ele>200.3</ele>
        <time>2024-07-25T08:39:14Z</time>
      </trkpt>
      <trkpt lat="43.58519" lon="3.3875">
        <ele>200.5</ele>
        <time>2024-07-25T08:39:15Z</time>
      </trkpt>
      <trkpt lat="43.58519" lon="3.38754">
        <ele>200.7</ele>
        <time>2024-07-25T08:39:16Z</time>
      </trkpt>
      <trkpt lat="43.58519" lon="3.38759">
        <ele>200.9</ele>
        <time>2024-07-25T08:39:17Z</time>
      </trkpt>
      <trkpt lat="43.58519" lon="3.38764">
        <ele>201</ele>
        <time>2024-07-25T08:39:18Z</time>
      </trkpt>
      <trkpt lat="43.58519" lon="3.38768">
        <ele>201.2</ele>
        <time>2024-07-25T08:39:19Z</time>
      </trkpt>
      <trkpt lat="43.5852" lon="3.38772">
        <ele>201</ele>
        <time>2024-07-25T08:39:20Z</time>
      </trkpt>
      <trkpt lat="43.5852" lon="3.38776">
        <ele>201.2</ele>
        <time>2024-07-25T08:39:21Z</time>
      </trkpt>
      <trkpt lat="43.5852" lon="3.38781">
        <ele>201.3</ele>
        <time>2024-07-25T08:39:22Z</time>
      </trkpt>
      <trkpt lat="43.5852" lon="3.38785">
        <ele>201.4</ele>
        <time>2024-07-25T08:39:23Z</time>
      </trkpt>
      <trkpt lat="43.58519" lon="3.38789">
        <ele>201.8</ele>
        <time>2024-07-25T08:39:24Z</time>
      </trkpt>
      <trkpt lat="43.58519" lon="3.38793">
        <ele>201.9</ele>
        <time>2024-07-25T08:39:25Z</time>
      </trkpt>
      <trkpt lat="43.58517" lon="3.38796">
        <ele>202.5</ele>
        <time>2024-07-25T08:39:26Z</time>
      </trkpt>
      <trkpt lat="43.58516" lon="3.38799">
        <ele>202.8</ele>
        <time>2024-07-25T08:39:27Z</time>
      </trkpt>
      <trkpt lat="43.58515" lon="3.38803">
        <ele>203.2</ele>
        <time>2024-07-25T08:39:28Z</time>
      </trkpt>
      <trkpt lat="43.58514" lon="3.38806">
        <ele>203.5</ele>
        <time>2024-07-25T08:39:29Z</time>
      </trkpt>
      <trkpt lat="43.58513" lon="3.38808">
        <ele>203.8</ele>
        <time>2024-07-25T08:39:30Z</time>
      </trkpt>
      <trkpt lat="43.58513" lon="3.38811">
        <ele>203.8</ele>
        <time>2024-07-25T08:39:31Z</time>
      </trkpt>
      <trkpt lat="43.58512" lon="3.38813">
        <ele>204.1</ele>
        <time>2024-07-25T08:39:32Z</time>
      </trkpt>
      <trkpt lat="43.58512" lon="3.38814">
        <ele>204.1</ele>
        <time>2024-07-25T08:39:33Z</time>
      </trkpt>
      <trkpt lat="43.58511" lon="3.38817">
        <ele>204.4</ele>
        <time>2024-07-25T08:39:34Z</time>
      </trkpt>
      <trkpt lat="43.58511" lon="3.3882">
        <ele>204.4</ele>
        <time>2024-07-25T08:39:35Z</time>
      </trkpt>
      <trkpt lat="43.5851" lon="3.38824">
        <ele>204.7</ele>
        <time>2024-07-25T08:39:36Z</time>
      </trkpt>
      <trkpt lat="43.5851" lon="3.38827">
        <ele>204.8</ele>
        <time>2024-07-25T08:39:37Z</time>
      </trkpt>
      <trkpt lat="43.5851" lon="3.38831">
        <ele>204.8</ele>
        <time>2024-07-25T08:39:38Z</time>
      </trkpt>
      <trkpt lat="43.5851" lon="3.38834">
        <ele>204.8</ele>
        <time>2024-07-25T08:39:39Z</time>
      </trkpt>
      <trkpt lat="43.5851" lon="3.38838">
        <ele>204.8</ele>
        <time>2024-07-25T08:39:40Z</time>
      </trkpt>
      <trkpt lat="43.5851" lon="3.38841">
        <ele>204.8</ele>
        <time>2024-07-25T08:39:41Z</time>
      </trkpt>
      <trkpt lat="43.58511" lon="3.38846">
        <ele>204.6</ele>
        <time>2024-07-25T08:39:42Z</time>
      </trkpt>
      <trkpt lat="43.58511" lon="3.3885">
        <ele>204.6</ele>
        <time>2024-07-25T08:39:43Z</time>
      </trkpt>
      <trkpt lat="43.58511" lon="3.38854">
        <ele>204.6</ele>
        <time>2024-07-25T08:39:44Z</time>
      </trkpt>
      <trkpt lat="43.58511" lon="3.38858">
        <ele>204.6</ele>
        <time>2024-07-25T08:39:45Z</time>
      </trkpt>
      <trkpt lat="43.5851" lon="3.38862">
        <ele>204.8</ele>
        <time>2024-07-25T08:39:46Z</time>
      </trkpt>
      <trkpt lat="43.5851" lon="3.38865">
        <ele>204.8</ele>
        <time>2024-07-25T08:39:47Z</time>
      </trkpt>
      <trkpt lat="43.5851" lon="3.38868">
        <ele>204.7</ele>
        <time>2024-07-25T08:39:48Z</time>
      </trkpt>
      <trkpt lat="43.58509" lon="3.38872">
        <ele>204.8</ele>
        <time>2024-07-25T08:39:49Z</time>
      </trkpt>
      <trkpt lat="43.58509" lon="3.38875">
        <ele>204.7</ele>
        <time>2024-07-25T08:39:50Z</time>
      </trkpt>
      <trkpt lat="43.58508" lon="3.38878">
        <ele>204.8</ele>
        <time>2024-07-25T08:39:51Z</time>
      </trkpt>
      <trkpt lat="43.58507" lon="3.38881">
        <ele>205</ele>
        <time>2024-07-25T08:39:52Z</time>
      </trkpt>
      <trkpt lat="43.58506" lon="3.38884">
        <ele>205.1</ele>
        <time>2024-07-25T08:39:53Z</time>
      </trkpt>
      <trkpt lat="43.58504" lon="3.38886">
        <ele>205.4</ele>
        <time>2024-07-25T08:39:54Z</time>
      </trkpt>
      <trkpt lat="43.58502" lon="3.38888">
        <ele>205.7</ele>
        <time>2024-07-25T08:39:55Z</time>
      </trkpt>
      <trkpt lat="43.58501" lon="3.38891">
        <ele>205.7</ele>
        <time>2024-07-25T08:39:56Z</time>
      </trkpt>
      <trkpt lat="43.58498" lon="3.38893">
        <ele>206.2</ele>
        <time>2024-07-25T08:39:57Z</time>
      </trkpt>
      <trkpt lat="43.58496" lon="3.38895">
        <ele>206.5</ele>
        <time>2024-07-25T08:39:58Z</time>
      </trkpt>
      <trkpt lat="43.58493" lon="3.38897">
        <ele>206.9</ele>
        <time>2024-07-25T08:39:59Z</time>
      </trkpt>
      <trkpt lat="43.5849" lon="3.389">
        <ele>207.3</ele>
        <time>2024-07-25T08:40:00Z</time>
      </trkpt>
      <trkpt lat="43.58487" lon="3.38902">
        <ele>207.6</ele>
        <time>2024-07-25T08:40:01Z</time>
      </trkpt>
      <trkpt lat="43.58484" lon="3.38904">
        <ele>208</ele>
        <time>2024-07-25T08:40:02Z</time>
      </trkpt>
      <trkpt lat="43.58482" lon="3.38906">
        <ele>208.2</ele>
        <time>2024-07-25T08:40:03Z</time>
      </trkpt>
      <trkpt lat="43.58479" lon="3.38907">
        <ele>208.6</ele>
        <time>2024-07-25T08:40:04Z</time>
      </trkpt>
      <trkpt lat="43.58477" lon="3.3891">
        <ele>208.8</ele>
        <time>2024-07-25T08:40:05Z</time>
      </trkpt>
      <trkpt lat="43.58475" lon="3.38912">
        <ele>208.9</ele>
        <time>2024-07-25T08:40:06Z</time>
      </trkpt>
      <trkpt lat="43.58473" lon="3.38915">
        <ele>209</ele>
        <time>2024-07-25T08:40:07Z</time>
      </trkpt>
      <trkpt lat="43.58472" lon="3.38918">
        <ele>209.1</ele>
        <time>2024-07-25T08:40:08Z</time>
      </trkpt>
      <trkpt lat="43.5847" lon="3.38922">
        <ele>209.6</ele>
        <time>2024-07-25T08:40:09Z</time>
      </trkpt>
      <trkpt lat="43.58469" lon="3.38925">
        <ele>209.8</ele>
        <time>2024-07-25T08:40:10Z</time>
      </trkpt>
      <trkpt lat="43.58468" lon="3.38928">
        <ele>210.1</ele>
        <time>2024-07-25T08:40:11Z</time>
      </trkpt>
      <trkpt lat="43.58467" lon="3.38931">
        <ele>210.4</ele>
        <time>2024-07-25T08:40:12Z</time>
      </trkpt>
      <trkpt lat="43.58466" lon="3.38934">
        <ele>210.7</ele>
        <time>2024-07-25T08:40:13Z</time>
      </trkpt>
      <trkpt lat="43.58464" lon="3.38937">
        <ele>211.3</ele>
        <time>2024-07-25T08:40:14Z</time>
      </trkpt>
      <trkpt lat="43.58463" lon="3.38939">
        <ele>211.6</ele>
        <time>2024-07-25T08:40:15Z</time>
      </trkpt>
      <trkpt lat="43.58462" lon="3.38942">
        <ele>211.9</ele>
        <time>2024-07-25T08:40:16Z</time>
      </trkpt>
      <trkpt lat="43.58461" lon="3.38945">
        <ele>212.2</ele>
        <time>2024-07-25T08:40:17Z</time>
      </trkpt>
      <trkpt lat="43.5846" lon="3.38948">
        <ele>212.6</ele>
        <time>2024-07-25T08:40:18Z</time>
      </trkpt>
      <trkpt lat="43.58459" lon="3.3895">
        <ele>212.9</ele>
        <time>2024-07-25T08:40:19Z</time>
      </trkpt>
      <trkpt lat="43.58459" lon="3.38953">
        <ele>213</ele>
        <time>2024-07-25T08:40:20Z</time>
      </trkpt>
      <trkpt lat="43.58459" lon="3.38957">
        <ele>213</ele>
        <time>2024-07-25T08:40:21Z</time>
      </trkpt>
      <trkpt lat="43.58459" lon="3.38961">
        <ele>213.1</ele>
        <time>2024-07-25T08:40:22Z</time>
      </trkpt>
      <trkpt lat="43.58459" lon="3.38964">
        <ele>213.2</ele>
        <time>2024-07-25T08:40:23Z</time>
      </trkpt>
      <trkpt lat="43.58458" lon="3.38966">
        <ele>213.5</ele>
        <time>2024-07-25T08:40:24Z</time>
      </trkpt>
      <trkpt lat="43.58458" lon="3.38969">
        <ele>213.5</ele>
        <time>2024-07-25T08:40:25Z</time>
      </trkpt>
      <trkpt lat="43.58457" lon="3.38972">
        <ele>213.8</ele>
        <time>2024-07-25T08:40:26Z</time>
      </trkpt>
      <trkpt lat="43.58457" lon="3.38975">
        <ele>213.9</ele>
        <time>2024-07-25T08:40:27Z</time>
      </trkpt>
      <trkpt lat="43.58456" lon="3.38977">
        <ele>214.2</ele>
        <time>2024-07-25T08:40:28Z</time>
      </trkpt>
      <trkpt lat="43.58455" lon="3.3898">
        <ele>214.4</ele>
        <time>2024-07-25T08:40:29Z</time>
      </trkpt>
      <trkpt lat="43.58455" lon="3.38983">
        <ele>214.5</ele>
        <time>2024-07-25T08:40:30Z</time>
      </trkpt>
      <trkpt lat="43.58454" lon="3.38988">
        <ele>214.8</ele>
        <time>2024-07-25T08:40:31Z</time>
      </trkpt>
      <trkpt lat="43.58454" lon="3.38992">
        <ele>214.8</ele>
        <time>2024-07-25T08:40:32Z</time>
      </trkpt>
      <trkpt lat="43.58453" lon="3.38995">
        <ele>215.1</ele>
        <time>2024-07-25T08:40:33Z</time>
      </trkpt>
      <trkpt lat="43.58453" lon="3.38998">
        <ele>215.1</ele>
        <time>2024-07-25T08:40:34Z</time>
      </trkpt>
      <trkpt lat="43.58453" lon="3.39001">
        <ele>215.1</ele>
        <time>2024-07-25T08:40:35Z</time>
      </trkpt>
      <trkpt lat="43.58452" lon="3.39004">
        <ele>215.3</ele>
        <time>2024-07-25T08:40:36Z</time>
      </trkpt>
      <trkpt lat="43.58451" lon="3.39007">
        <ele>215.5</ele>
        <time>2024-07-25T08:40:37Z</time>
      </trkpt>
      <trkpt lat="43.58451" lon="3.3901">
        <ele>215.5</ele>
        <time>2024-07-25T08:40:38Z</time>
      </trkpt>
      <trkpt lat="43.58451" lon="3.39013">
        <ele>215.5</ele>
        <time>2024-07-25T08:40:39Z</time>
      </trkpt>
      <trkpt lat="43.5845" lon="3.39016">
        <ele>215.7</ele>
        <time>2024-07-25T08:40:40Z</time>
      </trkpt>
      <trkpt lat="43.58449" lon="3.3902">
        <ele>215.9</ele>
        <time>2024-07-25T08:40:41Z</time>
      </trkpt>
      <trkpt lat="43.58448" lon="3.39023">
        <ele>216.1</ele>
        <time>2024-07-25T08:40:42Z</time>
      </trkpt>
      <trkpt lat="43.58447" lon="3.39027">
        <ele>216.4</ele>
        <time>2024-07-25T08:40:43Z</time>
      </trkpt>
      <trkpt lat="43.58446" lon="3.3903">
        <ele>216.5</ele>
        <time>2024-07-25T08:40:44Z</time>
      </trkpt>
      <trkpt lat="43.58445" lon="3.39033">
        <ele>216.7</ele>
        <time>2024-07-25T08:40:45Z</time>
      </trkpt>
      <trkpt lat="43.58445" lon="3.39035">
        <ele>216.6</ele>
        <time>2024-07-25T08:40:46Z</time>
      </trkpt>
      <trkpt lat="43.58443" lon="3.39039">
        <ele>217</ele>
        <time>2024-07-25T08:40:47Z</time>
      </trkpt>
      <trkpt lat="43.58442" lon="3.39042">
        <ele>217.1</ele>
        <time>2024-07-25T08:40:48Z</time>
      </trkpt>
      <trkpt lat="43.58441" lon="3.39045">
        <ele>217.2</ele>
        <time>2024-07-25T08:40:49Z</time>
      </trkpt>
      <trkpt lat="43.58439" lon="3.39048">
        <ele>217.6</ele>
        <time>2024-07-25T08:40:50Z</time>
      </trkpt>
      <trkpt lat="43.58438" lon="3.39051">
        <ele>217.8</ele>
        <time>2024-07-25T08:40:51Z</time>
      </trkpt>
      <trkpt lat="43.58437" lon="3.39053">
        <ele>218</ele>
        <time>2024-07-25T08:40:52Z</time>
      </trkpt>
      <trkpt lat="43.58436" lon="3.39056">
        <ele>218.1</ele>
        <time>2024-07-25T08:40:53Z</time>
      </trkpt>
      <trkpt lat="43.58434" lon="3.3906">
        <ele>218.4</ele>
        <time>2024-07-25T08:40:54Z</time>
      </trkpt>
      <trkpt lat="43.58433" lon="3.39062">
        <ele>218.5</ele>
        <time>2024-07-25T08:40:55Z</time>
      </trkpt>
      <trkpt lat="43.58432" lon="3.39065">
        <ele>218.6</ele>
        <time>2024-07-25T08:40:56Z</time>
      </trkpt>
      <trkpt lat="43.5843" lon="3.39068">
        <ele>219</ele>
        <time>2024-07-25T08:40:57Z</time>
      </trkpt>
      <trkpt lat="43.58429" lon="3.39071">
        <ele>219.1</ele>
        <time>2024-07-25T08:40:58Z</time>
      </trkpt>
      <trkpt lat="43.58427" lon="3.39073">
        <ele>219.5</ele>
        <time>2024-07-25T08:40:59Z</time>
      </trkpt>
      <trkpt lat="43.58425" lon="3.39075">
        <ele>220</ele>
        <time>2024-07-25T08:41:00Z</time>
      </trkpt>
      <trkpt lat="43.58423" lon="3.39078">
        <ele>220.4</ele>
        <time>2024-07-25T08:41:01Z</time>
      </trkpt>
      <trkpt lat="43.58422" lon="3.39081">
        <ele>220.6</ele>
        <time>2024-07-25T08:41:02Z</time>
      </trkpt>
      <trkpt lat="43.58421" lon="3.39084">
        <ele>220.7</ele>
        <time>2024-07-25T08:41:03Z</time>
      </trkpt>
      <trkpt lat="43.58421" lon="3.39087">
        <ele>220.5</ele>
        <time>2024-07-25T08:41:04Z</time>
      </trkpt>
      <trkpt lat="43.5842" lon="3.39089">
        <ele>220.7</ele>
        <time>2024-07-25T08:41:05Z</time>
      </trkpt>
      <trkpt lat="43.5842" lon="3.39092">
        <ele>220.5</ele>
        <time>2024-07-25T08:41:06Z</time>
      </trkpt>
      <trkpt lat="43.5842" lon="3.39094">
        <ele>220.3</ele>
        <time>2024-07-25T08:41:07Z</time>
      </trkpt>
      <trkpt lat="43.5842" lon="3.39097">
        <ele>220.1</ele>
        <time>2024-07-25T08:41:08Z</time>
      </trkpt>
      <trkpt lat="43.5842" lon="3.39101">
        <ele>219.8</ele>
        <time>2024-07-25T08:41:09Z</time>
      </trkpt>
      <trkpt lat="43.5842" lon="3.39104">
        <ele>219.6</ele>
        <time>2024-07-25T08:41:10Z</time>
      </trkpt>
      <trkpt lat="43.5842" lon="3.39107">
        <ele>219.4</ele>
        <time>2024-07-25T08:41:11Z</time>
      </trkpt>
      <trkpt lat="43.5842" lon="3.3911">
        <ele>219.2</ele>
        <time>2024-07-25T08:41:12Z</time>
      </trkpt>
      <trkpt lat="43.5842" lon="3.39112">
        <ele>219.1</ele>
        <time>2024-07-25T08:41:13Z</time>
      </trkpt>
      <trkpt lat="43.58419" lon="3.39115">
        <ele>219.1</ele>
        <time>2024-07-25T08:41:14Z</time>
      </trkpt>
      <trkpt lat="43.58419" lon="3.39117">
        <ele>219</ele>
        <time>2024-07-25T08:41:15Z</time>
      </trkpt>
      <trkpt lat="43.58418" lon="3.3912">
        <ele>219</ele>
        <time>2024-07-25T08:41:16Z</time>
      </trkpt>
      <trkpt lat="43.58417" lon="3.39123">
        <ele>219.1</ele>
        <time>2024-07-25T08:41:17Z</time>
      </trkpt>
      <trkpt lat="43.58416" lon="3.39125">
        <ele>219.2</ele>
        <time>2024-07-25T08:41:18Z</time>
      </trkpt>
      <trkpt lat="43.58415" lon="3.39128">
        <ele>219.2</ele>
        <time>2024-07-25T08:41:19Z</time>
      </trkpt>
      <trkpt lat="43.58413" lon="3.3913">
        <ele>219.7</ele>
        <time>2024-07-25T08:41:20Z</time>
      </trkpt>
      <trkpt lat="43.58412" lon="3.39133">
        <ele>219.7</ele>
        <time>2024-07-25T08:41:21Z</time>
      </trkpt>
      <trkpt lat="43.5841" lon="3.39135">
        <ele>220.2</ele>
        <time>2024-07-25T08:41:22Z</time>
      </trkpt>
      <trkpt lat="43.58409" lon="3.39138">
        <ele>220.3</ele>
        <time>2024-07-25T08:41:23Z</time>
      </trkpt>
      <trkpt lat="43.58408" lon="3.39141">
        <ele>220.4</ele>
        <time>2024-07-25T08:41:24Z</time>
      </trkpt>
      <trkpt lat="43.58407" lon="3.39144">
        <ele>220.6</ele>
        <time>2024-07-25T08:41:25Z</time>
      </trkpt>
      <trkpt lat="43.58405" lon="3.39147">
        <ele>221.1</ele>
        <time>2024-07-25T08:41:26Z</time>
      </trkpt>
      <trkpt lat="43.58404" lon="3.39149">
        <ele>221.3</ele>
        <time>2024-07-25T08:41:27Z</time>
      </trkpt>
      <trkpt lat="43.58403" lon="3.39152">
        <ele>221.5</ele>
        <time>2024-07-25T08:41:28Z</time>
      </trkpt>
      <trkpt lat="43.58402" lon="3.39155">
        <ele>221.6</ele>
        <time>2024-07-25T08:41:29Z</time>
      </trkpt>
      <trkpt lat="43.584" lon="3.39157">
        <ele>222.1</ele>
        <time>2024-07-25T08:41:30Z</time>
      </trkpt>
      <trkpt lat="43.58399" lon="3.3916">
        <ele>222.3</ele>
        <time>2024-07-25T08:41:31Z</time>
      </trkpt>
      <trkpt lat="43.58398" lon="3.39163">
        <ele>222.5</ele>
        <time>2024-07-25T08:41:32Z</time>
      </trkpt>
      <trkpt lat="43.58397" lon="3.39166">
        <ele>222.7</ele>
        <time>2024-07-25T08:41:33Z</time>
      </trkpt>
      <trkpt lat="43.58396" lon="3.39169">
        <ele>222.9</ele>
        <time>2024-07-25T08:41:34Z</time>
      </trkpt>
      <trkpt lat="43.58395" lon="3.39172">
        <ele>223</ele>
        <time>2024-07-25T08:41:35Z</time>
      </trkpt>
      <trkpt lat="43.58393" lon="3.39176">
        <ele>223.5</ele>
        <time>2024-07-25T08:41:36Z</time>
      </trkpt>
      <trkpt lat="43.58392" lon="3.3918">
        <ele>223.6</ele>
        <time>2024-07-25T08:41:37Z</time>
      </trkpt>
      <trkpt lat="43.5839" lon="3.39184">
        <ele>224.1</ele>
        <time>2024-07-25T08:41:38Z</time>
      </trkpt>
      <trkpt lat="43.58389" lon="3.39188">
        <ele>224.2</ele>
        <time>2024-07-25T08:41:39Z</time>
      </trkpt>
      <trkpt lat="43.58387" lon="3.39192">
        <ele>224.6</ele>
        <time>2024-07-25T08:41:40Z</time>
      </trkpt>
      <trkpt lat="43.58385" lon="3.39195">
        <ele>224.9</ele>
        <time>2024-07-25T08:41:41Z</time>
      </trkpt>
      <trkpt lat="43.58384" lon="3.39198">
        <ele>225</ele>
        <time>2024-07-25T08:41:42Z</time>
      </trkpt>
      <trkpt lat="43.58382" lon="3.39201">
        <ele>225.3</ele>
        <time>2024-07-25T08:41:43Z</time>
      </trkpt>
      <trkpt lat="43.58381" lon="3.39204">
        <ele>225.3</ele>
        <time>2024-07-25T08:41:44Z</time>
      </trkpt>
      <trkpt lat="43.58378" lon="3.39206">
        <ele>225.9</ele>
        <time>2024-07-25T08:41:45Z</time>
      </trkpt>
      <trkpt lat="43.58376" lon="3.39208">
        <ele>226.3</ele>
        <time>2024-07-25T08:41:46Z</time>
      </trkpt>
      <trkpt lat="43.58374" lon="3.3921">
        <ele>226.6</ele>
        <time>2024-07-25T08:41:47Z</time>
      </trkpt>
      <trkpt lat="43.58372" lon="3.39213">
        <ele>226.9</ele>
        <time>2024-07-25T08:41:48Z</time>
      </trkpt>
      <trkpt lat="43.5837" lon="3.39216">
        <ele>227.2</ele>
        <time>2024-07-25T08:41:49Z</time>
      </trkpt>
      <trkpt lat="43.58368" lon="3.39218">
        <ele>227.6</ele>
        <time>2024-07-25T08:41:50Z</time>
      </trkpt>
      <trkpt lat="43.58366" lon="3.3922">
        <ele>227.9</ele>
        <time>2024-07-25T08:41:51Z</time>
      </trkpt>
      <trkpt lat="43.58364" lon="3.39223">
        <ele>228.2</ele>
        <time>2024-07-25T08:41:52Z</time>
      </trkpt>
      <trkpt lat="43.58362" lon="3.39225">
        <ele>228.6</ele>
        <time>2024-07-25T08:41:53Z</time>
      </trkpt>
      <trkpt lat="43.5836" lon="3.39227">
        <ele>228.9</ele>
        <time>2024-07-25T08:41:54Z</time>
      </trkpt>
      <trkpt lat="43.58358" lon="3.3923">
        <ele>229.1</ele>
        <time>2024-07-25T08:41:55Z</time>
      </trkpt>
      <trkpt lat="43.58356" lon="3.39233">
        <ele>229.3</ele>
        <time>2024-07-25T08:41:56Z</time>
      </trkpt>
      <trkpt lat="43.58354" lon="3.39236">
        <ele>229.4</ele>
        <time>2024-07-25T08:41:57Z</time>
      </trkpt>
      <trkpt lat="43.58352" lon="3.39239">
        <ele>229.6</ele>
        <time>2024-07-25T08:41:58Z</time>
      </trkpt>
      <trkpt lat="43.58349" lon="3.39241">
        <ele>230</ele>
        <time>2024-07-25T08:41:59Z</time>
      </trkpt>
      <trkpt lat="43.58347" lon="3.39243">
        <ele>230.2</ele>
        <time>2024-07-25T08:42:00Z</time>
      </trkpt>
      <trkpt lat="43.58345" lon="3.39245">
        <ele>230.4</ele>
        <time>2024-07-25T08:42:01Z</time>
      </trkpt>
      <trkpt lat="43.58343" lon="3.39247">
        <ele>230.5</ele>
        <time>2024-07-25T08:42:02Z</time>
      </trkpt>
      <trkpt lat="43.58341" lon="3.39249">
        <ele>230.7</ele>
        <time>2024-07-25T08:42:03Z</time>
      </trkpt>
      <trkpt lat="43.58339" lon="3.39251">
        <ele>230.9</ele>
        <time>2024-07-25T08:42:04Z</time>
      </trkpt>
      <trkpt lat="43.58337" lon="3.39254">
        <ele>231.2</ele>
        <time>2024-07-25T08:42:05Z</time>
      </trkpt>
      <trkpt lat="43.58335" lon="3.39256">
        <ele>231.5</ele>
        <time>2024-07-25T08:42:06Z</time>
      </trkpt>
      <trkpt lat="43.58334" lon="3.39259">
        <ele>231.6</ele>
        <time>2024-07-25T08:42:07Z</time>
      </trkpt>
      <trkpt lat="43.58332" lon="3.39261">
        <ele>231.9</ele>
        <time>2024-07-25T08:42:08Z</time>
      </trkpt>
      <trkpt lat="43.58331" lon="3.39264">
        <ele>232</ele>
        <time>2024-07-25T08:42:09Z</time>
      </trkpt>
      <trkpt lat="43.58328" lon="3.39266">
        <ele>232.5</ele>
        <time>2024-07-25T08:42:10Z</time>
      </trkpt>
      <trkpt lat="43.58327" lon="3.39268">
        <ele>232.6</ele>
        <time>2024-07-25T08:42:11Z</time>
      </trkpt>
      <trkpt lat="43.58325" lon="3.39271">
        <ele>232.8</ele>
        <time>2024-07-25T08:42:12Z</time>
      </trkpt>
      <trkpt lat="43.58323" lon="3.39274">
        <ele>233</ele>
        <time>2024-07-25T08:42:13Z</time>
      </trkpt>
      <trkpt lat="43.58321" lon="3.39277">
        <ele>233.3</ele>
        <time>2024-07-25T08:42:14Z</time>
      </trkpt>
      <trkpt lat="43.5832" lon="3.3928">
        <ele>233.4</ele>
        <time>2024-07-25T08:42:15Z</time>
      </trkpt>
      <trkpt lat="43.58318" lon="3.39283">
        <ele>233.7</ele>
        <time>2024-07-25T08:42:16Z</time>
      </trkpt>
      <trkpt lat="43.58316" lon="3.39286">
        <ele>234</ele>
        <time>2024-07-25T08:42:17Z</time>
      </trkpt>
      <trkpt lat="43.58315" lon="3.39289">
        <ele>234.2</ele>
        <time>2024-07-25T08:42:18Z</time>
      </trkpt>
      <trkpt lat="43.58314" lon="3.39292">
        <ele>234.3</ele>
        <time>2024-07-25T08:42:19Z</time>
      </trkpt>
      <trkpt lat="43.58312" lon="3.39294">
        <ele>234.5</ele>
        <time>2024-07-25T08:42:20Z</time>
      </trkpt>
      <trkpt lat="43.5831" lon="3.39297">
        <ele>234.7</ele>
        <time>2024-07-25T08:42:21Z</time>
      </trkpt>
      <trkpt lat="43.58308" lon="3.39299">
        <ele>234.9</ele>
        <time>2024-07-25T08:42:22Z</time>
      </trkpt>
      <trkpt lat="43.58307" lon="3.39303">
        <ele>234.9</ele>
        <time>2024-07-25T08:42:23Z</time>
      </trkpt>
      <trkpt lat="43.58306" lon="3.39306">
        <ele>235</ele>
        <time>2024-07-25T08:42:24Z</time>
      </trkpt>
      <trkpt lat="43.58305" lon="3.39309">
        <ele>235.2</ele>
        <time>2024-07-25T08:42:25Z</time>
      </trkpt>
      <trkpt lat="43.58304" lon="3.39313">
        <ele>235.5</ele>
        <time>2024-07-25T08:42:26Z</time>
      </trkpt>
      <trkpt lat="43.58303" lon="3.39316">
        <ele>235.7</ele>
        <time>2024-07-25T08:42:27Z</time>
      </trkpt>
      <trkpt lat="43.58302" lon="3.3932">
        <ele>236</ele>
        <time>2024-07-25T08:42:28Z</time>
      </trkpt>
      <trkpt lat="43.583" lon="3.39323">
        <ele>236.3</ele>
        <time>2024-07-25T08:42:29Z</time>
      </trkpt>
      <trkpt lat="43.58299" lon="3.39327">
        <ele>236.5</ele>
        <time>2024-07-25T08:42:30Z</time>
      </trkpt>
      <trkpt lat="43.58298" lon="3.39331">
        <ele>236.8</ele>
        <time>2024-07-25T08:42:31Z</time>
      </trkpt>
      <trkpt lat="43.58297" lon="3.39335">
        <ele>237.1</ele>
        <time>2024-07-25T08:42:32Z</time>
      </trkpt>
      <trkpt lat="43.58296" lon="3.39339">
        <ele>237.5</ele>
        <time>2024-07-25T08:42:33Z</time>
      </trkpt>
      <trkpt lat="43.58294" lon="3.39342">
        <ele>237.9</ele>
        <time>2024-07-25T08:42:34Z</time>
      </trkpt>
      <trkpt lat="43.58293" lon="3.39346">
        <ele>238.3</ele>
        <time>2024-07-25T08:42:35Z</time>
      </trkpt>
      <trkpt lat="43.58292" lon="3.39349">
        <ele>238.6</ele>
        <time>2024-07-25T08:42:36Z</time>
      </trkpt>
      <trkpt lat="43.58291" lon="3.39352">
        <ele>238.9</ele>
        <time>2024-07-25T08:42:37Z</time>
      </trkpt>
      <trkpt lat="43.58289" lon="3.39354">
        <ele>239.1</ele>
        <time>2024-07-25T08:42:38Z</time>
      </trkpt>
      <trkpt lat="43.58288" lon="3.39357">
        <ele>239.4</ele>
        <time>2024-07-25T08:42:39Z</time>
      </trkpt>
      <trkpt lat="43.58288" lon="3.3936">
        <ele>239.6</ele>
        <time>2024-07-25T08:42:40Z</time>
      </trkpt>
      <trkpt lat="43.58286" lon="3.39362">
        <ele>239.8</ele>
        <time>2024-07-25T08:42:41Z</time>
      </trkpt>
      <trkpt lat="43.58286" lon="3.39363">
        <ele>239.9</ele>
        <time>2024-07-25T08:42:42Z</time>
      </trkpt>
      <trkpt lat="43.58285" lon="3.39363">
        <ele>239.9</ele>
        <time>2024-07-25T08:42:43Z</time>
      </trkpt>
      <trkpt lat="43.58285" lon="3.39364">
        <ele>240.1</ele>
        <time>2024-07-25T08:42:44Z</time>
      </trkpt>
      <trkpt lat="43.58285" lon="3.39364">
        <ele>240.1</ele>
        <time>2024-07-25T08:42:45Z</time>
      </trkpt>
      <trkpt lat="43.58283" lon="3.39373">
        <ele>241.1</ele>
        <time>2024-07-25T08:43:06Z</time>
      </trkpt>
      <trkpt lat="43.58285" lon="3.39374">
        <ele>241.1</ele>
        <time>2024-07-25T08:43:07Z</time>
      </trkpt>
      <trkpt lat="43.58287" lon="3.39375">
        <ele>241.2</ele>
        <time>2024-07-25T08:43:08Z</time>
      </trkpt>
      <trkpt lat="43.5829" lon="3.39377">
        <ele>241.3</ele>
        <time>2024-07-25T08:43:09Z</time>
      </trkpt>
      <trkpt lat="43.58293" lon="3.39379">
        <ele>241.4</ele>
        <time>2024-07-25T08:43:10Z</time>
      </trkpt>
      <trkpt lat="43.58295" lon="3.39381">
        <ele>241.5</ele>
        <time>2024-07-25T08:43:11Z</time>
      </trkpt>
      <trkpt lat="43.58298" lon="3.39383">
        <ele>241.6</ele>
        <time>2024-07-25T08:43:12Z</time>
      </trkpt>
      <trkpt lat="43.583" lon="3.39385">
        <ele>241.8</ele>
        <time>2024-07-25T08:43:13Z</time>
      </trkpt>
      <trkpt lat="43.58303" lon="3.39388">
        <ele>242</ele>
        <time>2024-07-25T08:43:14Z</time>
      </trkpt>
      <trkpt lat="43.58305" lon="3.3939">
        <ele>242.1</ele>
        <time>2024-07-25T08:43:15Z</time>
      </trkpt>
      <trkpt lat="43.58307" lon="3.39392">
        <ele>242.3</ele>
        <time>2024-07-25T08:43:16Z</time>
      </trkpt>
      <trkpt lat="43.58309" lon="3.39394">
        <ele>242.4</ele>
        <time>2024-07-25T08:43:17Z</time>
      </trkpt>
      <trkpt lat="43.58311" lon="3.39396">
        <ele>242.6</ele>
        <time>2024-07-25T08:43:18Z</time>
      </trkpt>
      <trkpt lat="43.58313" lon="3.39398">
        <ele>242.7</ele>
        <time>2024-07-25T08:43:19Z</time>
      </trkpt>
      <trkpt lat="43.58315" lon="3.394">
        <ele>242.9</ele>
        <time>2024-07-25T08:43:20Z</time>
      </trkpt>
      <trkpt lat="43.58317" lon="3.39403">
        <ele>243.1</ele>
        <time>2024-07-25T08:43:21Z</time>
      </trkpt>
      <trkpt lat="43.58319" lon="3.39405">
        <ele>243.3</ele>
        <time>2024-07-25T08:43:22Z</time>
      </trkpt>
      <trkpt lat="43.58321" lon="3.39407">
        <ele>243.4</ele>
        <time>2024-07-25T08:43:23Z</time>
      </trkpt>
      <trkpt lat="43.58324" lon="3.3941">
        <ele>243.6</ele>
        <time>2024-07-25T08:43:24Z</time>
      </trkpt>
      <trkpt lat="43.58326" lon="3.39412">
        <ele>243.8</ele>
        <time>2024-07-25T08:43:25Z</time>
      </trkpt>
      <trkpt lat="43.58328" lon="3.39414">
        <ele>243.9</ele>
        <time>2024-07-25T08:43:26Z</time>
      </trkpt>
      <trkpt lat="43.5833" lon="3.39416">
        <ele>244</ele>
        <time>2024-07-25T08:43:27Z</time>
      </trkpt>
      <trkpt lat="43.58332" lon="3.39418">
        <ele>244.1</ele>
        <time>2024-07-25T08:43:28Z</time>
      </trkpt>
      <trkpt lat="43.58335" lon="3.3942">
        <ele>244</ele>
        <time>2024-07-25T08:43:29Z</time>
      </trkpt>
      <trkpt lat="43.58337" lon="3.39422">
        <ele>243.9</ele>
        <time>2024-07-25T08:43:30Z</time>
      </trkpt>
      <trkpt lat="43.5834" lon="3.39424">
        <ele>243.6</ele>
        <time>2024-07-25T08:43:31Z</time>
      </trkpt>
      <trkpt lat="43.58343" lon="3.39426">
        <ele>243.3</ele>
        <time>2024-07-25T08:43:32Z</time>
      </trkpt>
      <trkpt lat="43.58345" lon="3.39429">
        <ele>243.2</ele>
        <time>2024-07-25T08:43:33Z</time>
      </trkpt>
      <trkpt lat="43.58347" lon="3.39431">
        <ele>243.1</ele>
        <time>2024-07-25T08:43:34Z</time>
      </trkpt>
      <trkpt lat="43.58349" lon="3.39434">
        <ele>243</ele>
        <time>2024-07-25T08:43:35Z</time>
      </trkpt>
      <trkpt lat="43.5835" lon="3.39437">
        <ele>243.1</ele>
        <time>2024-07-25T08:43:36Z</time>
      </trkpt>
      <trkpt lat="43.58352" lon="3.39441">
        <ele>243.1</ele>
        <time>2024-07-25T08:43:37Z</time>
      </trkpt>
      <trkpt lat="43.58353" lon="3.39445">
        <ele>243.2</ele>
        <time>2024-07-25T08:43:38Z</time>
      </trkpt>
      <trkpt lat="43.58355" lon="3.39448">
        <ele>243.4</ele>
        <time>2024-07-25T08:43:39Z</time>
      </trkpt>
      <trkpt lat="43.58356" lon="3.39452">
        <ele>243.8</ele>
        <time>2024-07-25T08:43:40Z</time>
      </trkpt>
      <trkpt lat="43.58357" lon="3.39455">
        <ele>244.1</ele>
        <time>2024-07-25T08:43:41Z</time>
      </trkpt>
      <trkpt lat="43.58358" lon="3.39458">
        <ele>244.4</ele>
        <time>2024-07-25T08:43:42Z</time>
      </trkpt>
      <trkpt lat="43.58359" lon="3.3946">
        <ele>244.5</ele>
        <time>2024-07-25T08:43:43Z</time>
      </trkpt>
      <trkpt lat="43.5836" lon="3.39464">
        <ele>245</ele>
        <time>2024-07-25T08:43:44Z</time>
      </trkpt>
      <trkpt lat="43.58361" lon="3.39467">
        <ele>245.3</ele>
        <time>2024-07-25T08:43:45Z</time>
      </trkpt>
      <trkpt lat="43.58361" lon="3.39472">
        <ele>246</ele>
        <time>2024-07-25T08:43:46Z</time>
      </trkpt>
      <trkpt lat="43.58362" lon="3.39476">
        <ele>246.3</ele>
        <time>2024-07-25T08:43:47Z</time>
      </trkpt>
      <trkpt lat="43.58362" lon="3.3948">
        <ele>246.9</ele>
        <time>2024-07-25T08:43:48Z</time>
      </trkpt>
      <trkpt lat="43.58363" lon="3.39483">
        <ele>247</ele>
        <time>2024-07-25T08:43:49Z</time>
      </trkpt>
      <trkpt lat="43.58364" lon="3.39487">
        <ele>247.3</ele>
        <time>2024-07-25T08:43:50Z</time>
      </trkpt>
      <trkpt lat="43.58365" lon="3.3949">
        <ele>247.5</ele>
        <time>2024-07-25T08:43:51Z</time>
      </trkpt>
      <trkpt lat="43.58366" lon="3.39493">
        <ele>247.6</ele>
        <time>2024-07-25T08:43:52Z</time>
      </trkpt>
      <trkpt lat="43.58367" lon="3.39496">
        <ele>247.8</ele>
        <time>2024-07-25T08:43:53Z</time>
      </trkpt>
      <trkpt lat="43.58368" lon="3.39499">
        <ele>247.9</ele>
        <time>2024-07-25T08:43:54Z</time>
      </trkpt>
      <trkpt lat="43.58369" lon="3.39502">
        <ele>248</ele>
        <time>2024-07-25T08:43:55Z</time>
      </trkpt>
      <trkpt lat="43.5837" lon="3.39506">
        <ele>248.3</ele>
        <time>2024-07-25T08:43:56Z</time>
      </trkpt>
      <trkpt lat="43.58371" lon="3.39509">
        <ele>248.4</ele>
        <time>2024-07-25T08:43:57Z</time>
      </trkpt>
      <trkpt lat="43.58372" lon="3.39512">
        <ele>248.6</ele>
        <time>2024-07-25T08:43:58Z</time>
      </trkpt>
      <trkpt lat="43.58373" lon="3.39516">
        <ele>248.9</ele>
        <time>2024-07-25T08:43:59Z</time>
      </trkpt>
      <trkpt lat="43.58375" lon="3.39519">
        <ele>248.7</ele>
        <time>2024-07-25T08:44:00Z</time>
      </trkpt>
      <trkpt lat="43.58376" lon="3.39523">
        <ele>249</ele>
        <time>2024-07-25T08:44:01Z</time>
      </trkpt>
      <trkpt lat="43.58377" lon="3.39527">
        <ele>249.3</ele>
        <time>2024-07-25T08:44:02Z</time>
      </trkpt>
      <trkpt lat="43.58378" lon="3.3953">
        <ele>249.4</ele>
        <time>2024-07-25T08:44:03Z</time>
      </trkpt>
      <trkpt lat="43.5838" lon="3.39534">
        <ele>249.3</ele>
        <time>2024-07-25T08:44:04Z</time>
      </trkpt>
      <trkpt lat="43.58381" lon="3.39537">
        <ele>249.4</ele>
        <time>2024-07-25T08:44:05Z</time>
      </trkpt>
      <trkpt lat="43.58382" lon="3.39541">
        <ele>249.7</ele>
        <time>2024-07-25T08:44:06Z</time>
      </trkpt>
      <trkpt lat="43.58384" lon="3.39543">
        <ele>249.4</ele>
        <time>2024-07-25T08:44:07Z</time>
      </trkpt>
      <trkpt lat="43.58385" lon="3.39546">
        <ele>249.6</ele>
        <time>2024-07-25T08:44:08Z</time>
      </trkpt>
      <trkpt lat="43.58387" lon="3.39549">
        <ele>249.5</ele>
        <time>2024-07-25T08:44:09Z</time>
      </trkpt>
      <trkpt lat="43.58389" lon="3.39552">
        <ele>249.5</ele>
        <time>2024-07-25T08:44:10Z</time>
      </trkpt>
      <trkpt lat="43.5839" lon="3.39554">
        <ele>249.6</ele>
        <time>2024-07-25T08:44:11Z</time>
      </trkpt>
      <trkpt lat="43.58391" lon="3.39556">
        <ele>249.7</ele>
        <time>2024-07-25T08:44:12Z</time>
      </trkpt>
      <trkpt lat="43.58393" lon="3.39559">
        <ele>249.8</ele>
        <time>2024-07-25T08:44:13Z</time>
      </trkpt>
      <trkpt lat="43.58393" lon="3.39561">
        <ele>250</ele>
        <time>2024-07-25T08:44:14Z</time>
      </trkpt>
      <trkpt lat="43.58394" lon="3.39564">
        <ele>250.2</ele>
        <time>2024-07-25T08:44:15Z</time>
      </trkpt>
      <trkpt lat="43.58395" lon="3.39566">
        <ele>250.2</ele>
        <time>2024-07-25T08:44:16Z</time>
      </trkpt>
      <trkpt lat="43.58395" lon="3.39569">
        <ele>250.6</ele>
        <time>2024-07-25T08:44:17Z</time>
      </trkpt>
      <trkpt lat="43.58396" lon="3.39572">
        <ele>250.8</ele>
        <time>2024-07-25T08:44:18Z</time>
      </trkpt>
      <trkpt lat="43.58396" lon="3.39575">
        <ele>251.1</ele>
        <time>2024-07-25T08:44:19Z</time>
      </trkpt>
      <trkpt lat="43.58396" lon="3.39577">
        <ele>251.3</ele>
        <time>2024-07-25T08:44:20Z</time>
      </trkpt>
      <trkpt lat="43.58396" lon="3.39579">
        <ele>251.5</ele>
        <time>2024-07-25T08:44:21Z</time>
      </trkpt>
      <trkpt lat="43.58395" lon="3.39582">
        <ele>252</ele>
        <time>2024-07-25T08:44:22Z</time>
      </trkpt>
      <trkpt lat="43.58395" lon="3.39584">
        <ele>252.2</ele>
        <time>2024-07-25T08:44:23Z</time>
      </trkpt>
      <trkpt lat="43.58394" lon="3.39586">
        <ele>252.5</ele>
        <time>2024-07-25T08:44:24Z</time>
      </trkpt>
      <trkpt lat="43.58393" lon="3.39587">
        <ele>252.7</ele>
        <time>2024-07-25T08:44:25Z</time>
      </trkpt>
      <trkpt lat="43.58391" lon="3.39589">
        <ele>253.1</ele>
        <time>2024-07-25T08:44:26Z</time>
      </trkpt>
      <trkpt lat="43.5839" lon="3.3959">
        <ele>253.3</ele>
        <time>2024-07-25T08:44:27Z</time>
      </trkpt>
      <trkpt lat="43.58389" lon="3.39592">
        <ele>253.6</ele>
        <time>2024-07-25T08:44:28Z</time>
      </trkpt>
      <trkpt lat="43.58387" lon="3.39594">
        <ele>254.1</ele>
        <time>2024-07-25T08:44:29Z</time>
      </trkpt>
      <trkpt lat="43.58386" lon="3.39595">
        <ele>254.3</ele>
        <time>2024-07-25T08:44:30Z</time>
      </trkpt>
      <trkpt lat="43.58383" lon="3.39596">
        <ele>254.9</ele>
        <time>2024-07-25T08:44:31Z</time>
      </trkpt>
      <trkpt lat="43.58381" lon="3.39597">
        <ele>255.3</ele>
        <time>2024-07-25T08:44:32Z</time>
      </trkpt>
      <trkpt lat="43.58379" lon="3.39599">
        <ele>255.7</ele>
        <time>2024-07-25T08:44:33Z</time>
      </trkpt>
      <trkpt lat="43.58378" lon="3.39601">
        <ele>256</ele>
        <time>2024-07-25T08:44:34Z</time>
      </trkpt>
      <trkpt lat="43.58376" lon="3.39603">
        <ele>256.4</ele>
        <time>2024-07-25T08:44:35Z</time>
      </trkpt>
      <trkpt lat="43.58375" lon="3.39605">
        <ele>256.7</ele>
        <time>2024-07-25T08:44:36Z</time>
      </trkpt>
      <trkpt lat="43.58374" lon="3.39608">
        <ele>257</ele>
        <time>2024-07-25T08:44:37Z</time>
      </trkpt>
      <trkpt lat="43.58373" lon="3.3961">
        <ele>257.2</ele>
        <time>2024-07-25T08:44:38Z</time>
      </trkpt>
      <trkpt lat="43.58372" lon="3.39612">
        <ele>257.5</ele>
        <time>2024-07-25T08:44:39Z</time>
      </trkpt>
      <trkpt lat="43.58371" lon="3.39615">
        <ele>257.7</ele>
        <time>2024-07-25T08:44:40Z</time>
      </trkpt>
      <trkpt lat="43.5837" lon="3.39618">
        <ele>258</ele>
        <time>2024-07-25T08:44:41Z</time>
      </trkpt>
      <trkpt lat="43.5837" lon="3.39621">
        <ele>258.1</ele>
        <time>2024-07-25T08:44:42Z</time>
      </trkpt>
      <trkpt lat="43.58369" lon="3.39623">
        <ele>258.3</ele>
        <time>2024-07-25T08:44:43Z</time>
      </trkpt>
      <trkpt lat="43.58369" lon="3.39626">
        <ele>258.4</ele>
        <time>2024-07-25T08:44:44Z</time>
      </trkpt>
      <trkpt lat="43.58368" lon="3.39628">
        <ele>258.6</ele>
        <time>2024-07-25T08:44:45Z</time>
      </trkpt>
      <trkpt lat="43.58368" lon="3.3963">
        <ele>258.7</ele>
        <time>2024-07-25T08:44:46Z</time>
      </trkpt>
      <trkpt lat="43.58368" lon="3.39633">
        <ele>258.8</ele>
        <time>2024-07-25T08:44:47Z</time>
      </trkpt>
      <trkpt lat="43.58368" lon="3.39635">
        <ele>258.9</ele>
        <time>2024-07-25T08:44:48Z</time>
      </trkpt>
      <trkpt lat="43.58368" lon="3.39637">
        <ele>258.9</ele>
        <time>2024-07-25T08:44:49Z</time>
      </trkpt>
      <trkpt lat="43.58368" lon="3.39639">
        <ele>259</ele>
        <time>2024-07-25T08:44:50Z</time>
      </trkpt>
      <trkpt lat="43.58368" lon="3.39642">
        <ele>259.1</ele>
        <time>2024-07-25T08:44:51Z</time>
      </trkpt>
      <trkpt lat="43.58368" lon="3.39644">
        <ele>259.2</ele>
        <time>2024-07-25T08:44:52Z</time>
      </trkpt>
      <trkpt lat="43.58369" lon="3.39646">
        <ele>259.2</ele>
        <time>2024-07-25T08:44:53Z</time>
      </trkpt>
      <trkpt lat="43.58369" lon="3.39648">
        <ele>259.3</ele>
        <time>2024-07-25T08:44:54Z</time>
      </trkpt>
      <trkpt lat="43.5837" lon="3.39651">
        <ele>259.3</ele>
        <time>2024-07-25T08:44:55Z</time>
      </trkpt>
      <trkpt lat="43.5837" lon="3.39655">
        <ele>259.5</ele>
        <time>2024-07-25T08:44:56Z</time>
      </trkpt>
      <trkpt lat="43.5837" lon="3.39657">
        <ele>259.6</ele>
        <time>2024-07-25T08:44:57Z</time>
      </trkpt>
      <trkpt lat="43.5837" lon="3.3966">
        <ele>259.7</ele>
        <time>2024-07-25T08:44:58Z</time>
      </trkpt>
      <trkpt lat="43.58371" lon="3.39663">
        <ele>259.8</ele>
        <time>2024-07-25T08:44:59Z</time>
      </trkpt>
      <trkpt lat="43.58371" lon="3.39667">
        <ele>260</ele>
        <time>2024-07-25T08:45:00Z</time>
      </trkpt>
      <trkpt lat="43.58372" lon="3.3967">
        <ele>260</ele>
        <time>2024-07-25T08:45:01Z</time>
      </trkpt>
      <trkpt lat="43.58372" lon="3.39673">
        <ele>260.2</ele>
        <time>2024-07-25T08:45:02Z</time>
      </trkpt>
      <trkpt lat="43.58372" lon="3.39676">
        <ele>260.4</ele>
        <time>2024-07-25T08:45:03Z</time>
      </trkpt>
      <trkpt lat="43.58372" lon="3.39679">
        <ele>260.5</ele>
        <time>2024-07-25T08:45:04Z</time>
      </trkpt>
      <trkpt lat="43.58372" lon="3.39682">
        <ele>260.7</ele>
        <time>2024-07-25T08:45:05Z</time>
      </trkpt>
      <trkpt lat="43.58373" lon="3.39685">
        <ele>260.8</ele>
        <time>2024-07-25T08:45:06Z</time>
      </trkpt>
      <trkpt lat="43.58373" lon="3.39688">
        <ele>260.9</ele>
        <time>2024-07-25T08:45:07Z</time>
      </trkpt>
      <trkpt lat="43.58373" lon="3.39691">
        <ele>261.1</ele>
        <time>2024-07-25T08:45:08Z</time>
      </trkpt>
      <trkpt lat="43.58373" lon="3.39694">
        <ele>261.3</ele>
        <time>2024-07-25T08:45:09Z</time>
      </trkpt>
      <trkpt lat="43.58374" lon="3.39697">
        <ele>261.3</ele>
        <time>2024-07-25T08:45:10Z</time>
      </trkpt>
      <trkpt lat="43.58374" lon="3.397">
        <ele>261.5</ele>
        <time>2024-07-25T08:45:11Z</time>
      </trkpt>
      <trkpt lat="43.58375" lon="3.39703">
        <ele>261.6</ele>
        <time>2024-07-25T08:45:12Z</time>
      </trkpt>
      <trkpt lat="43.58375" lon="3.39707">
        <ele>261.9</ele>
        <time>2024-07-25T08:45:13Z</time>
      </trkpt>
      <trkpt lat="43.58376" lon="3.39711">
        <ele>262.1</ele>
        <time>2024-07-25T08:45:14Z</time>
      </trkpt>
      <trkpt lat="43.58376" lon="3.39714">
        <ele>262.3</ele>
        <time>2024-07-25T08:45:15Z</time>
      </trkpt>
      <trkpt lat="43.58376" lon="3.39717">
        <ele>262.5</ele>
        <time>2024-07-25T08:45:16Z</time>
      </trkpt>
      <trkpt lat="43.58376" lon="3.39719">
        <ele>262.7</ele>
        <time>2024-07-25T08:45:17Z</time>
      </trkpt>
      <trkpt lat="43.58375" lon="3.39722">
        <ele>263</ele>
        <time>2024-07-25T08:45:18Z</time>
      </trkpt>
      <trkpt lat="43.58375" lon="3.39725">
        <ele>263.2</ele>
        <time>2024-07-25T08:45:19Z</time>
      </trkpt>
      <trkpt lat="43.58374" lon="3.39728">
        <ele>263.6</ele>
        <time>2024-07-25T08:45:20Z</time>
      </trkpt>
      <trkpt lat="43.58374" lon="3.3973">
        <ele>263.8</ele>
        <time>2024-07-25T08:45:21Z</time>
      </trkpt>
      <trkpt lat="43.58373" lon="3.39733">
        <ele>264.1</ele>
        <time>2024-07-25T08:45:22Z</time>
      </trkpt>
      <trkpt lat="43.58373" lon="3.39735">
        <ele>264.3</ele>
        <time>2024-07-25T08:45:23Z</time>
      </trkpt>
      <trkpt lat="43.58373" lon="3.39739">
        <ele>264.6</ele>
        <time>2024-07-25T08:45:24Z</time>
      </trkpt>
      <trkpt lat="43.58374" lon="3.39742">
        <ele>264.8</ele>
        <time>2024-07-25T08:45:25Z</time>
      </trkpt>
      <trkpt lat="43.58374" lon="3.39744">
        <ele>265</ele>
        <time>2024-07-25T08:45:26Z</time>
      </trkpt>
      <trkpt lat="43.58375" lon="3.39746">
        <ele>265.1</ele>
        <time>2024-07-25T08:45:27Z</time>
      </trkpt>
      <trkpt lat="43.58376" lon="3.39748">
        <ele>265.3</ele>
        <time>2024-07-25T08:45:28Z</time>
      </trkpt>
      <trkpt lat="43.58377" lon="3.3975">
        <ele>265.4</ele>
        <time>2024-07-25T08:45:29Z</time>
      </trkpt>
      <trkpt lat="43.58378" lon="3.39753">
        <ele>265.5</ele>
        <time>2024-07-25T08:45:30Z</time>
      </trkpt>
      <trkpt lat="43.58379" lon="3.39756">
        <ele>265.6</ele>
        <time>2024-07-25T08:45:31Z</time>
      </trkpt>
      <trkpt lat="43.5838" lon="3.39758">
        <ele>265.7</ele>
        <time>2024-07-25T08:45:32Z</time>
      </trkpt>
      <trkpt lat="43.58381" lon="3.3976">
        <ele>265.8</ele>
        <time>2024-07-25T08:45:33Z</time>
      </trkpt>
      <trkpt lat="43.58383" lon="3.39762">
        <ele>265.9</ele>
        <time>2024-07-25T08:45:34Z</time>
      </trkpt>
      <trkpt lat="43.58384" lon="3.39764">
        <ele>266</ele>
        <time>2024-07-25T08:45:35Z</time>
      </trkpt>
      <trkpt lat="43.58386" lon="3.39765">
        <ele>266.1</ele>
        <time>2024-07-25T08:45:36Z</time>
      </trkpt>
      <trkpt lat="43.58387" lon="3.39767">
        <ele>266.2</ele>
        <time>2024-07-25T08:45:37Z</time>
      </trkpt>
      <trkpt lat="43.58389" lon="3.39769">
        <ele>266.4</ele>
        <time>2024-07-25T08:45:38Z</time>
      </trkpt>
      <trkpt lat="43.58391" lon="3.39771">
        <ele>266.6</ele>
        <time>2024-07-25T08:45:39Z</time>
      </trkpt>
      <trkpt lat="43.58392" lon="3.39773">
        <ele>266.7</ele>
        <time>2024-07-25T08:45:40Z</time>
      </trkpt>
      <trkpt lat="43.58393" lon="3.39774">
        <ele>266.8</ele>
        <time>2024-07-25T08:45:41Z</time>
      </trkpt>
      <trkpt lat="43.58395" lon="3.39775">
        <ele>267</ele>
        <time>2024-07-25T08:45:42Z</time>
      </trkpt>
      <trkpt lat="43.58396" lon="3.39776">
        <ele>267.1</ele>
        <time>2024-07-25T08:45:43Z</time>
      </trkpt>
      <trkpt lat="43.58398" lon="3.39777">
        <ele>267.3</ele>
        <time>2024-07-25T08:45:44Z</time>
      </trkpt>
      <trkpt lat="43.584" lon="3.39778">
        <ele>267.4</ele>
        <time>2024-07-25T08:45:45Z</time>
      </trkpt>
      <trkpt lat="43.58402" lon="3.39779">
        <ele>267.6</ele>
        <time>2024-07-25T08:45:46Z</time>
      </trkpt>
      <trkpt lat="43.58404" lon="3.39781">
        <ele>267.8</ele>
        <time>2024-07-25T08:45:47Z</time>
      </trkpt>
      <trkpt lat="43.58406" lon="3.39783">
        <ele>268.1</ele>
        <time>2024-07-25T08:45:48Z</time>
      </trkpt>
      <trkpt lat="43.58408" lon="3.39784">
        <ele>268.3</ele>
        <time>2024-07-25T08:45:49Z</time>
      </trkpt>
      <trkpt lat="43.58409" lon="3.39786">
        <ele>268.5</ele>
        <time>2024-07-25T08:45:50Z</time>
      </trkpt>
      <trkpt lat="43.58411" lon="3.39787">
        <ele>268.7</ele>
        <time>2024-07-25T08:45:51Z</time>
      </trkpt>
      <trkpt lat="43.58413" lon="3.39788">
        <ele>268.9</ele>
        <time>2024-07-25T08:45:52Z</time>
      </trkpt>
      <trkpt lat="43.58415" lon="3.39789">
        <ele>269.1</ele>
        <time>2024-07-25T08:45:53Z</time>
      </trkpt>
      <trkpt lat="43.58417" lon="3.39791">
        <ele>269.4</ele>
        <time>2024-07-25T08:45:54Z</time>
      </trkpt>
      <trkpt lat="43.58419" lon="3.39792">
        <ele>269.4</ele>
        <time>2024-07-25T08:45:55Z</time>
      </trkpt>
      <trkpt lat="43.58421" lon="3.39794">
        <ele>269.5</ele>
        <time>2024-07-25T08:45:56Z</time>
      </trkpt>
      <trkpt lat="43.58423" lon="3.39796">
        <ele>269.7</ele>
        <time>2024-07-25T08:45:57Z</time>
      </trkpt>
      <trkpt lat="43.58424" lon="3.39798">
        <ele>269.8</ele>
        <time>2024-07-25T08:45:58Z</time>
      </trkpt>
      <trkpt lat="43.58425" lon="3.39799">
        <ele>269.9</ele>
        <time>2024-07-25T08:45:59Z</time>
      </trkpt>
      <trkpt lat="43.58427" lon="3.39801">
        <ele>270.1</ele>
        <time>2024-07-25T08:46:00Z</time>
      </trkpt>
      <trkpt lat="43.58428" lon="3.39803">
        <ele>270.3</ele>
        <time>2024-07-25T08:46:01Z</time>
      </trkpt>
      <trkpt lat="43.58429" lon="3.39805">
        <ele>270.5</ele>
        <time>2024-07-25T08:46:02Z</time>
      </trkpt>
      <trkpt lat="43.5843" lon="3.39807">
        <ele>270.7</ele>
        <time>2024-07-25T08:46:03Z</time>
      </trkpt>
      <trkpt lat="43.58431" lon="3.39809">
        <ele>270.9</ele>
        <time>2024-07-25T08:46:04Z</time>
      </trkpt>
      <trkpt lat="43.58432" lon="3.39812">
        <ele>271.3</ele>
        <time>2024-07-25T08:46:05Z</time>
      </trkpt>
      <trkpt lat="43.58432" lon="3.39814">
        <ele>271.5</ele>
        <time>2024-07-25T08:46:06Z</time>
      </trkpt>
      <trkpt lat="43.58433" lon="3.39816">
        <ele>271.8</ele>
        <time>2024-07-25T08:46:07Z</time>
      </trkpt>
      <trkpt lat="43.58433" lon="3.39819">
        <ele>272.1</ele>
        <time>2024-07-25T08:46:08Z</time>
      </trkpt>
      <trkpt lat="43.58432" lon="3.39821">
        <ele>272.4</ele>
        <time>2024-07-25T08:46:09Z</time>
      </trkpt>
      <trkpt lat="43.58431" lon="3.39823">
        <ele>272.7</ele>
        <time>2024-07-25T08:46:10Z</time>
      </trkpt>
      <trkpt lat="43.5843" lon="3.39825">
        <ele>273</ele>
        <time>2024-07-25T08:46:11Z</time>
      </trkpt>
      <trkpt lat="43.58429" lon="3.39828">
        <ele>273.3</ele>
        <time>2024-07-25T08:46:12Z</time>
      </trkpt>
      <trkpt lat="43.58429" lon="3.3983">
        <ele>273.6</ele>
        <time>2024-07-25T08:46:13Z</time>
      </trkpt>
      <trkpt lat="43.58428" lon="3.39833">
        <ele>274</ele>
        <time>2024-07-25T08:46:14Z</time>
      </trkpt>
      <trkpt lat="43.58426" lon="3.39835">
        <ele>274.2</ele>
        <time>2024-07-25T08:46:15Z</time>
      </trkpt>
      <trkpt lat="43.58425" lon="3.39837">
        <ele>274.4</ele>
        <time>2024-07-25T08:46:16Z</time>
      </trkpt>
      <trkpt lat="43.58424" lon="3.39839">
        <ele>274.6</ele>
        <time>2024-07-25T08:46:17Z</time>
      </trkpt>
      <trkpt lat="43.58423" lon="3.39842">
        <ele>274.9</ele>
        <time>2024-07-25T08:46:18Z</time>
      </trkpt>
      <trkpt lat="43.58422" lon="3.39843">
        <ele>275</ele>
        <time>2024-07-25T08:46:19Z</time>
      </trkpt>
      <trkpt lat="43.58421" lon="3.39845">
        <ele>275.3</ele>
        <time>2024-07-25T08:46:20Z</time>
      </trkpt>
      <trkpt lat="43.58419" lon="3.39847">
        <ele>275.5</ele>
        <time>2024-07-25T08:46:21Z</time>
      </trkpt>
      <trkpt lat="43.58419" lon="3.39849">
        <ele>275.7</ele>
        <time>2024-07-25T08:46:22Z</time>
      </trkpt>
      <trkpt lat="43.58418" lon="3.39851">
        <ele>275.9</ele>
        <time>2024-07-25T08:46:23Z</time>
      </trkpt>
      <trkpt lat="43.58417" lon="3.39853">
        <ele>276.1</ele>
        <time>2024-07-25T08:46:24Z</time>
      </trkpt>
      <trkpt lat="43.58416" lon="3.39856">
        <ele>276.4</ele>
        <time>2024-07-25T08:46:25Z</time>
      </trkpt>
      <trkpt lat="43.58415" lon="3.39858">
        <ele>276.5</ele>
        <time>2024-07-25T08:46:26Z</time>
      </trkpt>
      <trkpt lat="43.58414" lon="3.39861">
        <ele>276.7</ele>
        <time>2024-07-25T08:46:27Z</time>
      </trkpt>
      <trkpt lat="43.58413" lon="3.39863">
        <ele>276.7</ele>
        <time>2024-07-25T08:46:28Z</time>
      </trkpt>
      <trkpt lat="43.58412" lon="3.39865">
        <ele>276.8</ele>
        <time>2024-07-25T08:46:29Z</time>
      </trkpt>
      <trkpt lat="43.58411" lon="3.39868">
        <ele>276.9</ele>
        <time>2024-07-25T08:46:30Z</time>
      </trkpt>
      <trkpt lat="43.5841" lon="3.3987">
        <ele>277</ele>
        <time>2024-07-25T08:46:31Z</time>
      </trkpt>
      <trkpt lat="43.58409" lon="3.39873">
        <ele>277.1</ele>
        <time>2024-07-25T08:46:32Z</time>
      </trkpt>
      <trkpt lat="43.58408" lon="3.39875">
        <ele>277.2</ele>
        <time>2024-07-25T08:46:33Z</time>
      </trkpt>
      <trkpt lat="43.58407" lon="3.39877">
        <ele>277.3</ele>
        <time>2024-07-25T08:46:34Z</time>
      </trkpt>
      <trkpt lat="43.58405" lon="3.39879">
        <ele>277.3</ele>
        <time>2024-07-25T08:46:35Z</time>
      </trkpt>
      <trkpt lat="43.58404" lon="3.3988">
        <ele>277.3</ele>
        <time>2024-07-25T08:46:36Z</time>
      </trkpt>
      <trkpt lat="43.58403" lon="3.39883">
        <ele>277.5</ele>
        <time>2024-07-25T08:46:37Z</time>
      </trkpt>
      <trkpt lat="43.58402" lon="3.39886">
        <ele>277.7</ele>
        <time>2024-07-25T08:46:38Z</time>
      </trkpt>
      <trkpt lat="43.58401" lon="3.39888">
        <ele>277.8</ele>
        <time>2024-07-25T08:46:39Z</time>
      </trkpt>
      <trkpt lat="43.584" lon="3.39891">
        <ele>277.9</ele>
        <time>2024-07-25T08:46:40Z</time>
      </trkpt>
      <trkpt lat="43.58399" lon="3.39893">
        <ele>278</ele>
        <time>2024-07-25T08:46:41Z</time>
      </trkpt>
      <trkpt lat="43.58398" lon="3.39896">
        <ele>278.1</ele>
        <time>2024-07-25T08:46:42Z</time>
      </trkpt>
      <trkpt lat="43.58397" lon="3.39899">
        <ele>278.2</ele>
        <time>2024-07-25T08:46:43Z</time>
      </trkpt>
      <trkpt lat="43.58397" lon="3.39901">
        <ele>278.3</ele>
        <time>2024-07-25T08:46:44Z</time>
      </trkpt>
      <trkpt lat="43.58396" lon="3.39904">
        <ele>278.3</ele>
        <time>2024-07-25T08:46:45Z</time>
      </trkpt>
      <trkpt lat="43.58395" lon="3.39906">
        <ele>278.3</ele>
        <time>2024-07-25T08:46:46Z</time>
      </trkpt>
      <trkpt lat="43.58394" lon="3.39909">
        <ele>278.4</ele>
        <time>2024-07-25T08:46:47Z</time>
      </trkpt>
      <trkpt lat="43.58394" lon="3.39912">
        <ele>278.5</ele>
        <time>2024-07-25T08:46:48Z</time>
      </trkpt>
      <trkpt lat="43.58393" lon="3.39914">
        <ele>278.5</ele>
        <time>2024-07-25T08:46:49Z</time>
      </trkpt>
      <trkpt lat="43.58392" lon="3.39917">
        <ele>278.5</ele>
        <time>2024-07-25T08:46:50Z</time>
      </trkpt>
      <trkpt lat="43.58391" lon="3.39919">
        <ele>278.5</ele>
        <time>2024-07-25T08:46:51Z</time>
      </trkpt>
      <trkpt lat="43.5839" lon="3.39922">
        <ele>278.6</ele>
        <time>2024-07-25T08:46:52Z</time>
      </trkpt>
      <trkpt lat="43.58389" lon="3.39924">
        <ele>278.5</ele>
        <time>2024-07-25T08:46:53Z</time>
      </trkpt>
      <trkpt lat="43.58388" lon="3.39927">
        <ele>278.6</ele>
        <time>2024-07-25T08:46:54Z</time>
      </trkpt>
      <trkpt lat="43.58388" lon="3.3993">
        <ele>278.8</ele>
        <time>2024-07-25T08:46:55Z</time>
      </trkpt>
      <trkpt lat="43.58388" lon="3.39934">
        <ele>279.1</ele>
        <time>2024-07-25T08:46:56Z</time>
      </trkpt>
      <trkpt lat="43.58388" lon="3.39937">
        <ele>279.3</ele>
        <time>2024-07-25T08:46:57Z</time>
      </trkpt>
      <trkpt lat="43.58389" lon="3.39941">
        <ele>279.8</ele>
        <time>2024-07-25T08:46:58Z</time>
      </trkpt>
      <trkpt lat="43.5839" lon="3.39945">
        <ele>280.3</ele>
        <time>2024-07-25T08:46:59Z</time>
      </trkpt>
      <trkpt lat="43.58392" lon="3.39947">
        <ele>280.8</ele>
        <time>2024-07-25T08:47:00Z</time>
      </trkpt>
      <trkpt lat="43.58395" lon="3.39948">
        <ele>281.5</ele>
        <time>2024-07-25T08:47:01Z</time>
      </trkpt>
      <trkpt lat="43.58397" lon="3.39948">
        <ele>281.8</ele>
        <time>2024-07-25T08:47:02Z</time>
      </trkpt>
      <trkpt lat="43.584" lon="3.39946">
        <ele>282.2</ele>
        <time>2024-07-25T08:47:03Z</time>
      </trkpt>
      <trkpt lat="43.58402" lon="3.39945">
        <ele>282.4</ele>
        <time>2024-07-25T08:47:04Z</time>
      </trkpt>
      <trkpt lat="43.58403" lon="3.39945">
        <ele>282.6</ele>
        <time>2024-07-25T08:47:05Z</time>
      </trkpt>
      <trkpt lat="43.58405" lon="3.39943">
        <ele>282.8</ele>
        <time>2024-07-25T08:47:06Z</time>
      </trkpt>
      <trkpt lat="43.58407" lon="3.39942">
        <ele>283</ele>
        <time>2024-07-25T08:47:07Z</time>
      </trkpt>
      <trkpt lat="43.58409" lon="3.3994">
        <ele>283.2</ele>
        <time>2024-07-25T08:47:08Z</time>
      </trkpt>
      <trkpt lat="43.5841" lon="3.39939">
        <ele>283.3</ele>
        <time>2024-07-25T08:47:09Z</time>
      </trkpt>
      <trkpt lat="43.58412" lon="3.39938">
        <ele>283.5</ele>
        <time>2024-07-25T08:47:10Z</time>
      </trkpt>
      <trkpt lat="43.58414" lon="3.39936">
        <ele>283.6</ele>
        <time>2024-07-25T08:47:11Z</time>
      </trkpt>
      <trkpt lat="43.58416" lon="3.39935">
        <ele>283.9</ele>
        <time>2024-07-25T08:47:12Z</time>
      </trkpt>
      <trkpt lat="43.58419" lon="3.39934">
        <ele>284.1</ele>
        <time>2024-07-25T08:47:13Z</time>
      </trkpt>
      <trkpt lat="43.58422" lon="3.39933">
        <ele>284.3</ele>
        <time>2024-07-25T08:47:14Z</time>
      </trkpt>
      <trkpt lat="43.58425" lon="3.39931">
        <ele>284.4</ele>
        <time>2024-07-25T08:47:15Z</time>
      </trkpt>
      <trkpt lat="43.58428" lon="3.3993">
        <ele>284.7</ele>
        <time>2024-07-25T08:47:16Z</time>
      </trkpt>
      <trkpt lat="43.58431" lon="3.39929">
        <ele>284.9</ele>
        <time>2024-07-25T08:47:17Z</time>
      </trkpt>
      <trkpt lat="43.58434" lon="3.39928">
        <ele>285.1</ele>
        <time>2024-07-25T08:47:18Z</time>
      </trkpt>
      <trkpt lat="43.58437" lon="3.39927">
        <ele>285.3</ele>
        <time>2024-07-25T08:47:19Z</time>
      </trkpt>
      <trkpt lat="43.5844" lon="3.39927">
        <ele>285.6</ele>
        <time>2024-07-25T08:47:20Z</time>
      </trkpt>
      <trkpt lat="43.58443" lon="3.39927">
        <ele>286</ele>
        <time>2024-07-25T08:47:21Z</time>
      </trkpt>
      <trkpt lat="43.58445" lon="3.39927">
        <ele>286.1</ele>
        <time>2024-07-25T08:47:22Z</time>
      </trkpt>
      <trkpt lat="43.58448" lon="3.39926">
        <ele>286.2</ele>
        <time>2024-07-25T08:47:23Z</time>
      </trkpt>
      <trkpt lat="43.58451" lon="3.39926">
        <ele>286.3</ele>
        <time>2024-07-25T08:47:24Z</time>
      </trkpt>
      <trkpt lat="43.58453" lon="3.39926">
        <ele>286.4</ele>
        <time>2024-07-25T08:47:25Z</time>
      </trkpt>
      <trkpt lat="43.58456" lon="3.39926">
        <ele>286.6</ele>
        <time>2024-07-25T08:47:26Z</time>
      </trkpt>
      <trkpt lat="43.58459" lon="3.39927">
        <ele>286.8</ele>
        <time>2024-07-25T08:47:27Z</time>
      </trkpt>
      <trkpt lat="43.58461" lon="3.39927">
        <ele>286.9</ele>
        <time>2024-07-25T08:47:28Z</time>
      </trkpt>
      <trkpt lat="43.58464" lon="3.39927">
        <ele>287.1</ele>
        <time>2024-07-25T08:47:29Z</time>
      </trkpt>
      <trkpt lat="43.58466" lon="3.39928">
        <ele>287.3</ele>
        <time>2024-07-25T08:47:30Z</time>
      </trkpt>
      <trkpt lat="43.58469" lon="3.39928">
        <ele>287.5</ele>
        <time>2024-07-25T08:47:31Z</time>
      </trkpt>
      <trkpt lat="43.58471" lon="3.39928">
        <ele>287.6</ele>
        <time>2024-07-25T08:47:32Z</time>
      </trkpt>
      <trkpt lat="43.58474" lon="3.39928">
        <ele>287.7</ele>
        <time>2024-07-25T08:47:33Z</time>
      </trkpt>
      <trkpt lat="43.58476" lon="3.39928">
        <ele>287.7</ele>
        <time>2024-07-25T08:47:34Z</time>
      </trkpt>
      <trkpt lat="43.58479" lon="3.39928">
        <ele>287.8</ele>
        <time>2024-07-25T08:47:35Z</time>
      </trkpt>
      <trkpt lat="43.58482" lon="3.39928">
        <ele>287.8</ele>
        <time>2024-07-25T08:47:36Z</time>
      </trkpt>
      <trkpt lat="43.58484" lon="3.39927">
        <ele>287.8</ele>
        <time>2024-07-25T08:47:37Z</time>
      </trkpt>
      <trkpt lat="43.58487" lon="3.39927">
        <ele>287.8</ele>
        <time>2024-07-25T08:47:38Z</time>
      </trkpt>
      <trkpt lat="43.58489" lon="3.39926">
        <ele>287.7</ele>
        <time>2024-07-25T08:47:39Z</time>
      </trkpt>
      <trkpt lat="43.58492" lon="3.39926">
        <ele>287.8</ele>
        <time>2024-07-25T08:47:40Z</time>
      </trkpt>
      <trkpt lat="43.58495" lon="3.39925">
        <ele>287.8</ele>
        <time>2024-07-25T08:47:41Z</time>
      </trkpt>
      <trkpt lat="43.58497" lon="3.39924">
        <ele>287.7</ele>
        <time>2024-07-25T08:47:42Z</time>
      </trkpt>
      <trkpt lat="43.585" lon="3.39924">
        <ele>287.8</ele>
        <time>2024-07-25T08:47:43Z</time>
      </trkpt>
      <trkpt lat="43.58503" lon="3.39923">
        <ele>287.6</ele>
        <time>2024-07-25T08:47:44Z</time>
      </trkpt>
      <trkpt lat="43.58506" lon="3.39921">
        <ele>287.3</ele>
        <time>2024-07-25T08:47:45Z</time>
      </trkpt>
      <trkpt lat="43.5851" lon="3.3992">
        <ele>287</ele>
        <time>2024-07-25T08:47:46Z</time>
      </trkpt>
      <trkpt lat="43.58513" lon="3.39919">
        <ele>286.8</ele>
        <time>2024-07-25T08:47:47Z</time>
      </trkpt>
      <trkpt lat="43.58516" lon="3.39919">
        <ele>286.7</ele>
        <time>2024-07-25T08:47:48Z</time>
      </trkpt>
      <trkpt lat="43.58519" lon="3.39918">
        <ele>286.5</ele>
        <time>2024-07-25T08:47:49Z</time>
      </trkpt>
      <trkpt lat="43.58522" lon="3.39917">
        <ele>286.2</ele>
        <time>2024-07-25T08:47:50Z</time>
      </trkpt>
      <trkpt lat="43.58525" lon="3.39916">
        <ele>286</ele>
        <time>2024-07-25T08:47:51Z</time>
      </trkpt>
      <trkpt lat="43.58529" lon="3.39915">
        <ele>285.9</ele>
        <time>2024-07-25T08:47:52Z</time>
      </trkpt>
      <trkpt lat="43.58532" lon="3.39914">
        <ele>285.8</ele>
        <time>2024-07-25T08:47:53Z</time>
      </trkpt>
      <trkpt lat="43.58535" lon="3.39913">
        <ele>285.8</ele>
        <time>2024-07-25T08:47:54Z</time>
      </trkpt>
      <trkpt lat="43.58539" lon="3.39911">
        <ele>285.7</ele>
        <time>2024-07-25T08:47:55Z</time>
      </trkpt>
      <trkpt lat="43.58542" lon="3.3991">
        <ele>285.6</ele>
        <time>2024-07-25T08:47:56Z</time>
      </trkpt>
      <trkpt lat="43.58545" lon="3.39909">
        <ele>285.6</ele>
        <time>2024-07-25T08:47:57Z</time>
      </trkpt>
      <trkpt lat="43.58548" lon="3.39907">
        <ele>285.6</ele>
        <time>2024-07-25T08:47:58Z</time>
      </trkpt>
      <trkpt lat="43.58551" lon="3.39906">
        <ele>285.6</ele>
        <time>2024-07-25T08:47:59Z</time>
      </trkpt>
      <trkpt lat="43.58554" lon="3.39904">
        <ele>285.5</ele>
        <time>2024-07-25T08:48:00Z</time>
      </trkpt>
      <trkpt lat="43.58557" lon="3.39902">
        <ele>285.5</ele>
        <time>2024-07-25T08:48:01Z</time>
      </trkpt>
      <trkpt lat="43.5856" lon="3.399">
        <ele>285.5</ele>
        <time>2024-07-25T08:48:02Z</time>
      </trkpt>
      <trkpt lat="43.58563" lon="3.39897">
        <ele>285.4</ele>
        <time>2024-07-25T08:48:03Z</time>
      </trkpt>
      <trkpt lat="43.58566" lon="3.39895">
        <ele>285.3</ele>
        <time>2024-07-25T08:48:04Z</time>
      </trkpt>
      <trkpt lat="43.58568" lon="3.39892">
        <ele>285.2</ele>
        <time>2024-07-25T08:48:05Z</time>
      </trkpt>
      <trkpt lat="43.58571" lon="3.3989">
        <ele>285.1</ele>
        <time>2024-07-25T08:48:06Z</time>
      </trkpt>
      <trkpt lat="43.58574" lon="3.39887">
        <ele>284.9</ele>
        <time>2024-07-25T08:48:07Z</time>
      </trkpt>
      <trkpt lat="43.58577" lon="3.39885">
        <ele>284.9</ele>
        <time>2024-07-25T08:48:08Z</time>
      </trkpt>
      <trkpt lat="43.5858" lon="3.39882">
        <ele>284.8</ele>
        <time>2024-07-25T08:48:09Z</time>
      </trkpt>
      <trkpt lat="43.58583" lon="3.39878">
        <ele>284.6</ele>
        <time>2024-07-25T08:48:10Z</time>
      </trkpt>
      <trkpt lat="43.58586" lon="3.39876">
        <ele>284.6</ele>
        <time>2024-07-25T08:48:11Z</time>
      </trkpt>
      <trkpt lat="43.58589" lon="3.39872">
        <ele>284.6</ele>
        <time>2024-07-25T08:48:12Z</time>
      </trkpt>
      <trkpt lat="43.58593" lon="3.3987">
        <ele>284.7</ele>
        <time>2024-07-25T08:48:13Z</time>
      </trkpt>
      <trkpt lat="43.58596" lon="3.39867">
        <ele>284.7</ele>
        <time>2024-07-25T08:48:14Z</time>
      </trkpt>
      <trkpt lat="43.58599" lon="3.39865">
        <ele>284.7</ele>
        <time>2024-07-25T08:48:15Z</time>
      </trkpt>
      <trkpt lat="43.58602" lon="3.39862">
        <ele>284.7</ele>
        <time>2024-07-25T08:48:16Z</time>
      </trkpt>
      <trkpt lat="43.58605" lon="3.39859">
        <ele>284.6</ele>
        <time>2024-07-25T08:48:17Z</time>
      </trkpt>
      <trkpt lat="43.58608" lon="3.39856">
        <ele>284.5</ele>
        <time>2024-07-25T08:48:18Z</time>
      </trkpt>
      <trkpt lat="43.58612" lon="3.39853">
        <ele>284.4</ele>
        <time>2024-07-25T08:48:19Z</time>
      </trkpt>
      <trkpt lat="43.58615" lon="3.3985">
        <ele>284.3</ele>
        <time>2024-07-25T08:48:20Z</time>
      </trkpt>
      <trkpt lat="43.58618" lon="3.39848">
        <ele>284.2</ele>
        <time>2024-07-25T08:48:21Z</time>
      </trkpt>
      <trkpt lat="43.58621" lon="3.39847">
        <ele>284.2</ele>
        <time>2024-07-25T08:48:22Z</time>
      </trkpt>
      <trkpt lat="43.58624" lon="3.39845">
        <ele>284.1</ele>
        <time>2024-07-25T08:48:23Z</time>
      </trkpt>
      <trkpt lat="43.58627" lon="3.39843">
        <ele>284.1</ele>
        <time>2024-07-25T08:48:24Z</time>
      </trkpt>
      <trkpt lat="43.58631" lon="3.39842">
        <ele>284.1</ele>
        <time>2024-07-25T08:48:25Z</time>
      </trkpt>
      <trkpt lat="43.58634" lon="3.39841">
        <ele>284.1</ele>
        <time>2024-07-25T08:48:26Z</time>
      </trkpt>
      <trkpt lat="43.58638" lon="3.39841">
        <ele>284.3</ele>
        <time>2024-07-25T08:48:27Z</time>
      </trkpt>
      <trkpt lat="43.58642" lon="3.3984">
        <ele>284.2</ele>
        <time>2024-07-25T08:48:28Z</time>
      </trkpt>
      <trkpt lat="43.58646" lon="3.39838">
        <ele>284.1</ele>
        <time>2024-07-25T08:48:29Z</time>
      </trkpt>
      <trkpt lat="43.5865" lon="3.39838">
        <ele>284.1</ele>
        <time>2024-07-25T08:48:30Z</time>
      </trkpt>
      <trkpt lat="43.58654" lon="3.39839">
        <ele>284.1</ele>
        <time>2024-07-25T08:48:31Z</time>
      </trkpt>
      <trkpt lat="43.58658" lon="3.39839">
        <ele>284.1</ele>
        <time>2024-07-25T08:48:32Z</time>
      </trkpt>
      <trkpt lat="43.58661" lon="3.39839">
        <ele>284</ele>
        <time>2024-07-25T08:48:33Z</time>
      </trkpt>
      <trkpt lat="43.58665" lon="3.39839">
        <ele>284</ele>
        <time>2024-07-25T08:48:34Z</time>
      </trkpt>
      <trkpt lat="43.58668" lon="3.3984">
        <ele>284</ele>
        <time>2024-07-25T08:48:35Z</time>
      </trkpt>
      <trkpt lat="43.58672" lon="3.3984">
        <ele>284</ele>
        <time>2024-07-25T08:48:36Z</time>
      </trkpt>
      <trkpt lat="43.58675" lon="3.3984">
        <ele>284</ele>
        <time>2024-07-25T08:48:37Z</time>
      </trkpt>
      <trkpt lat="43.58679" lon="3.3984">
        <ele>284</ele>
        <time>2024-07-25T08:48:38Z</time>
      </trkpt>
      <trkpt lat="43.58683" lon="3.3984">
        <ele>284</ele>
        <time>2024-07-25T08:48:39Z</time>
      </trkpt>
      <trkpt lat="43.58687" lon="3.39839">
        <ele>284</ele>
        <time>2024-07-25T08:48:40Z</time>
      </trkpt>
      <trkpt lat="43.5869" lon="3.39839">
        <ele>284</ele>
        <time>2024-07-25T08:48:41Z</time>
      </trkpt>
      <trkpt lat="43.58694" lon="3.39839">
        <ele>284</ele>
        <time>2024-07-25T08:48:42Z</time>
      </trkpt>
      <trkpt lat="43.58697" lon="3.3984">
        <ele>283.9</ele>
        <time>2024-07-25T08:48:43Z</time>
      </trkpt>
      <trkpt lat="43.58701" lon="3.3984">
        <ele>283.8</ele>
        <time>2024-07-25T08:48:44Z</time>
      </trkpt>
      <trkpt lat="43.58704" lon="3.3984">
        <ele>283.7</ele>
        <time>2024-07-25T08:48:45Z</time>
      </trkpt>
      <trkpt lat="43.58708" lon="3.3984">
        <ele>283.6</ele>
        <time>2024-07-25T08:48:46Z</time>
      </trkpt>
      <trkpt lat="43.58712" lon="3.3984">
        <ele>283.5</ele>
        <time>2024-07-25T08:48:47Z</time>
      </trkpt>
      <trkpt lat="43.58716" lon="3.3984">
        <ele>283.4</ele>
        <time>2024-07-25T08:48:48Z</time>
      </trkpt>
      <trkpt lat="43.5872" lon="3.3984">
        <ele>283.3</ele>
        <time>2024-07-25T08:48:49Z</time>
      </trkpt>
      <trkpt lat="43.58724" lon="3.3984">
        <ele>283.2</ele>
        <time>2024-07-25T08:48:50Z</time>
      </trkpt>
      <trkpt lat="43.58728" lon="3.3984">
        <ele>283.2</ele>
        <time>2024-07-25T08:48:51Z</time>
      </trkpt>
      <trkpt lat="43.58732" lon="3.39839">
        <ele>283.2</ele>
        <time>2024-07-25T08:48:52Z</time>
      </trkpt>
      <trkpt lat="43.58736" lon="3.39839">
        <ele>283.2</ele>
        <time>2024-07-25T08:48:53Z</time>
      </trkpt>
      <trkpt lat="43.5874" lon="3.39839">
        <ele>283.2</ele>
        <time>2024-07-25T08:48:54Z</time>
      </trkpt>
      <trkpt lat="43.58744" lon="3.39839">
        <ele>283.2</ele>
        <time>2024-07-25T08:48:55Z</time>
      </trkpt>
      <trkpt lat="43.58748" lon="3.39839">
        <ele>283.2</ele>
        <time>2024-07-25T08:48:56Z</time>
      </trkpt>
      <trkpt lat="43.58751" lon="3.39839">
        <ele>283.2</ele>
        <time>2024-07-25T08:48:57Z</time>
      </trkpt>
      <trkpt lat="43.58755" lon="3.39839">
        <ele>283.2</ele>
        <time>2024-07-25T08:48:58Z</time>
      </trkpt>
      <trkpt lat="43.58758" lon="3.39839">
        <ele>283.2</ele>
        <time>2024-07-25T08:48:59Z</time>
      </trkpt>
      <trkpt lat="43.58762" lon="3.39839">
        <ele>283.2</ele>
        <time>2024-07-25T08:49:00Z</time>
      </trkpt>
      <trkpt lat="43.58766" lon="3.39839">
        <ele>283.2</ele>
        <time>2024-07-25T08:49:01Z</time>
      </trkpt>
      <trkpt lat="43.58769" lon="3.39839">
        <ele>283.2</ele>
        <time>2024-07-25T08:49:02Z</time>
      </trkpt>
      <trkpt lat="43.58773" lon="3.39838">
        <ele>283.2</ele>
        <time>2024-07-25T08:49:03Z</time>
      </trkpt>
      <trkpt lat="43.58776" lon="3.39838">
        <ele>283.2</ele>
        <time>2024-07-25T08:49:04Z</time>
      </trkpt>
      <trkpt lat="43.5878" lon="3.39838">
        <ele>283.2</ele>
        <time>2024-07-25T08:49:05Z</time>
      </trkpt>
      <trkpt lat="43.58784" lon="3.39838">
        <ele>283.1</ele>
        <time>2024-07-25T08:49:06Z</time>
      </trkpt>
      <trkpt lat="43.58787" lon="3.39838">
        <ele>283.1</ele>
        <time>2024-07-25T08:49:07Z</time>
      </trkpt>
      <trkpt lat="43.58791" lon="3.39837">
        <ele>283.1</ele>
        <time>2024-07-25T08:49:08Z</time>
      </trkpt>
      <trkpt lat="43.58794" lon="3.39837">
        <ele>283.1</ele>
        <time>2024-07-25T08:49:09Z</time>
      </trkpt>
      <trkpt lat="43.58798" lon="3.39837">
        <ele>283</ele>
        <time>2024-07-25T08:49:10Z</time>
      </trkpt>
      <trkpt lat="43.58801" lon="3.39838">
        <ele>283</ele>
        <time>2024-07-25T08:49:11Z</time>
      </trkpt>
      <trkpt lat="43.58805" lon="3.39838">
        <ele>283</ele>
        <time>2024-07-25T08:49:12Z</time>
      </trkpt>
      <trkpt lat="43.58809" lon="3.39838">
        <ele>283</ele>
        <time>2024-07-25T08:49:13Z</time>
      </trkpt>
      <trkpt lat="43.58812" lon="3.39838">
        <ele>283</ele>
        <time>2024-07-25T08:49:14Z</time>
      </trkpt>
      <trkpt lat="43.58816" lon="3.39838">
        <ele>283.1</ele>
        <time>2024-07-25T08:49:15Z</time>
      </trkpt>
      <trkpt lat="43.58819" lon="3.39838">
        <ele>283.1</ele>
        <time>2024-07-25T08:49:16Z</time>
      </trkpt>
      <trkpt lat="43.58823" lon="3.39837">
        <ele>283.1</ele>
        <time>2024-07-25T08:49:17Z</time>
      </trkpt>
      <trkpt lat="43.58826" lon="3.39837">
        <ele>283.1</ele>
        <time>2024-07-25T08:49:18Z</time>
      </trkpt>
      <trkpt lat="43.58829" lon="3.39837">
        <ele>283.1</ele>
        <time>2024-07-25T08:49:19Z</time>
      </trkpt>
      <trkpt lat="43.58833" lon="3.39837">
        <ele>283.1</ele>
        <time>2024-07-25T08:49:20Z</time>
      </trkpt>
      <trkpt lat="43.58837" lon="3.39836">
        <ele>283.1</ele>
        <time>2024-07-25T08:49:21Z</time>
      </trkpt>
      <trkpt lat="43.58841" lon="3.39836">
        <ele>283.1</ele>
        <time>2024-07-25T08:49:22Z</time>
      </trkpt>
      <trkpt lat="43.58845" lon="3.39835">
        <ele>283</ele>
        <time>2024-07-25T08:49:23Z</time>
      </trkpt>
      <trkpt lat="43.58849" lon="3.39835">
        <ele>283</ele>
        <time>2024-07-25T08:49:24Z</time>
      </trkpt>
      <trkpt lat="43.58854" lon="3.39834">
        <ele>283</ele>
        <time>2024-07-25T08:49:25Z</time>
      </trkpt>
      <trkpt lat="43.58859" lon="3.39833">
        <ele>283</ele>
        <time>2024-07-25T08:49:26Z</time>
      </trkpt>
      <trkpt lat="43.58864" lon="3.39831">
        <ele>282.8</ele>
        <time>2024-07-25T08:49:27Z</time>
      </trkpt>
      <trkpt lat="43.5887" lon="3.3983">
        <ele>282.6</ele>
        <time>2024-07-25T08:49:28Z</time>
      </trkpt>
      <trkpt lat="43.58875" lon="3.39828">
        <ele>282.4</ele>
        <time>2024-07-25T08:49:29Z</time>
      </trkpt>
      <trkpt lat="43.5888" lon="3.39826">
        <ele>282.2</ele>
        <time>2024-07-25T08:49:30Z</time>
      </trkpt>
      <trkpt lat="43.58886" lon="3.39824">
        <ele>282.1</ele>
        <time>2024-07-25T08:49:31Z</time>
      </trkpt>
      <trkpt lat="43.58891" lon="3.39822">
        <ele>282</ele>
        <time>2024-07-25T08:49:32Z</time>
      </trkpt>
      <trkpt lat="43.58895" lon="3.3982">
        <ele>282</ele>
        <time>2024-07-25T08:49:33Z</time>
      </trkpt>
      <trkpt lat="43.589" lon="3.39817">
        <ele>282</ele>
        <time>2024-07-25T08:49:34Z</time>
      </trkpt>
      <trkpt lat="43.58904" lon="3.39815">
        <ele>282</ele>
        <time>2024-07-25T08:49:35Z</time>
      </trkpt>
      <trkpt lat="43.58908" lon="3.39813">
        <ele>282</ele>
        <time>2024-07-25T08:49:36Z</time>
      </trkpt>
      <trkpt lat="43.58912" lon="3.39812">
        <ele>282</ele>
        <time>2024-07-25T08:49:37Z</time>
      </trkpt>
      <trkpt lat="43.58916" lon="3.3981">
        <ele>282</ele>
        <time>2024-07-25T08:49:38Z</time>
      </trkpt>
      <trkpt lat="43.5892" lon="3.39809">
        <ele>282</ele>
        <time>2024-07-25T08:49:39Z</time>
      </trkpt>
      <trkpt lat="43.58923" lon="3.39808">
        <ele>282</ele>
        <time>2024-07-25T08:49:40Z</time>
      </trkpt>
      <trkpt lat="43.58926" lon="3.39807">
        <ele>282</ele>
        <time>2024-07-25T08:49:41Z</time>
      </trkpt>
      <trkpt lat="43.5893" lon="3.39806">
        <ele>282</ele>
        <time>2024-07-25T08:49:42Z</time>
      </trkpt>
      <trkpt lat="43.58934" lon="3.39805">
        <ele>282</ele>
        <time>2024-07-25T08:49:43Z</time>
      </trkpt>
      <trkpt lat="43.58939" lon="3.39805">
        <ele>282</ele>
        <time>2024-07-25T08:49:44Z</time>
      </trkpt>
      <trkpt lat="43.58943" lon="3.39805">
        <ele>282</ele>
        <time>2024-07-25T08:49:45Z</time>
      </trkpt>
      <trkpt lat="43.58947" lon="3.39806">
        <ele>282.1</ele>
        <time>2024-07-25T08:49:46Z</time>
      </trkpt>
      <trkpt lat="43.58951" lon="3.39806">
        <ele>282.2</ele>
        <time>2024-07-25T08:49:47Z</time>
      </trkpt>
      <trkpt lat="43.58955" lon="3.39807">
        <ele>282.4</ele>
        <time>2024-07-25T08:49:48Z</time>
      </trkpt>
      <trkpt lat="43.58958" lon="3.39807">
        <ele>282.5</ele>
        <time>2024-07-25T08:49:49Z</time>
      </trkpt>
      <trkpt lat="43.58962" lon="3.39808">
        <ele>282.6</ele>
        <time>2024-07-25T08:49:50Z</time>
      </trkpt>
      <trkpt lat="43.58966" lon="3.39808">
        <ele>282.7</ele>
        <time>2024-07-25T08:49:51Z</time>
      </trkpt>
      <trkpt lat="43.58969" lon="3.39809">
        <ele>282.8</ele>
        <time>2024-07-25T08:49:52Z</time>
      </trkpt>
      <trkpt lat="43.58973" lon="3.39809">
        <ele>282.9</ele>
        <time>2024-07-25T08:49:53Z</time>
      </trkpt>
      <trkpt lat="43.58976" lon="3.39811">
        <ele>282.8</ele>
        <time>2024-07-25T08:49:54Z</time>
      </trkpt>
      <trkpt lat="43.5898" lon="3.39813">
        <ele>282.8</ele>
        <time>2024-07-25T08:49:55Z</time>
      </trkpt>
      <trkpt lat="43.58983" lon="3.39815">
        <ele>282.8</ele>
        <time>2024-07-25T08:49:56Z</time>
      </trkpt>
      <trkpt lat="43.58986" lon="3.39819">
        <ele>282.8</ele>
        <time>2024-07-25T08:49:57Z</time>
      </trkpt>
      <trkpt lat="43.58988" lon="3.39823">
        <ele>282.7</ele>
        <time>2024-07-25T08:49:58Z</time>
      </trkpt>
      <trkpt lat="43.5899" lon="3.39827">
        <ele>282.7</ele>
        <time>2024-07-25T08:49:59Z</time>
      </trkpt>
      <trkpt lat="43.58991" lon="3.3983">
        <ele>282.7</ele>
        <time>2024-07-25T08:50:00Z</time>
      </trkpt>
      <trkpt lat="43.58993" lon="3.39834">
        <ele>282.7</ele>
        <time>2024-07-25T08:50:01Z</time>
      </trkpt>
      <trkpt lat="43.58995" lon="3.39838">
        <ele>282.7</ele>
        <time>2024-07-25T08:50:02Z</time>
      </trkpt>
      <trkpt lat="43.58997" lon="3.39841">
        <ele>282.6</ele>
        <time>2024-07-25T08:50:03Z</time>
      </trkpt>
      <trkpt lat="43.59" lon="3.39845">
        <ele>282.6</ele>
        <time>2024-07-25T08:50:04Z</time>
      </trkpt>
      <trkpt lat="43.59004" lon="3.39848">
        <ele>282.5</ele>
        <time>2024-07-25T08:50:05Z</time>
      </trkpt>
      <trkpt lat="43.59008" lon="3.39849">
        <ele>282.4</ele>
        <time>2024-07-25T08:50:06Z</time>
      </trkpt>
      <trkpt lat="43.59012" lon="3.3985">
        <ele>282.4</ele>
        <time>2024-07-25T08:50:07Z</time>
      </trkpt>
      <trkpt lat="43.59016" lon="3.39849">
        <ele>282.4</ele>
        <time>2024-07-25T08:50:08Z</time>
      </trkpt>
      <trkpt lat="43.59019" lon="3.39847">
        <ele>282.5</ele>
        <time>2024-07-25T08:50:09Z</time>
      </trkpt>
      <trkpt lat="43.59022" lon="3.39845">
        <ele>282.6</ele>
        <time>2024-07-25T08:50:10Z</time>
      </trkpt>
      <trkpt lat="43.59025" lon="3.39844">
        <ele>282.6</ele>
        <time>2024-07-25T08:50:11Z</time>
      </trkpt>
      <trkpt lat="43.59028" lon="3.39843">
        <ele>282.7</ele>
        <time>2024-07-25T08:50:12Z</time>
      </trkpt>
      <trkpt lat="43.59031" lon="3.39841">
        <ele>282.8</ele>
        <time>2024-07-25T08:50:13Z</time>
      </trkpt>
      <trkpt lat="43.59034" lon="3.3984">
        <ele>283</ele>
        <time>2024-07-25T08:50:14Z</time>
      </trkpt>
      <trkpt lat="43.59037" lon="3.39838">
        <ele>283.2</ele>
        <time>2024-07-25T08:50:15Z</time>
      </trkpt>
      <trkpt lat="43.5904" lon="3.39838">
        <ele>283.3</ele>
        <time>2024-07-25T08:50:16Z</time>
      </trkpt>
      <trkpt lat="43.59043" lon="3.39838">
        <ele>283.4</ele>
        <time>2024-07-25T08:50:17Z</time>
      </trkpt>
      <trkpt lat="43.59046" lon="3.39838">
        <ele>283.5</ele>
        <time>2024-07-25T08:50:18Z</time>
      </trkpt>
      <trkpt lat="43.59049" lon="3.39838">
        <ele>283.6</ele>
        <time>2024-07-25T08:50:19Z</time>
      </trkpt>
      <trkpt lat="43.59052" lon="3.39838">
        <ele>283.7</ele>
        <time>2024-07-25T08:50:20Z</time>
      </trkpt>
      <trkpt lat="43.59054" lon="3.39839">
        <ele>283.7</ele>
        <time>2024-07-25T08:50:21Z</time>
      </trkpt>
      <trkpt lat="43.59057" lon="3.3984">
        <ele>283.8</ele>
        <time>2024-07-25T08:50:22Z</time>
      </trkpt>
      <trkpt lat="43.5906" lon="3.3984">
        <ele>283.9</ele>
        <time>2024-07-25T08:50:23Z</time>
      </trkpt>
      <trkpt lat="43.59062" lon="3.39841">
        <ele>284</ele>
        <time>2024-07-25T08:50:24Z</time>
      </trkpt>
      <trkpt lat="43.59065" lon="3.39842">
        <ele>284</ele>
        <time>2024-07-25T08:50:25Z</time>
      </trkpt>
      <trkpt lat="43.59068" lon="3.39843">
        <ele>284.1</ele>
        <time>2024-07-25T08:50:26Z</time>
      </trkpt>
      <trkpt lat="43.5907" lon="3.39843">
        <ele>284.2</ele>
        <time>2024-07-25T08:50:27Z</time>
      </trkpt>
      <trkpt lat="43.59073" lon="3.39843">
        <ele>284.3</ele>
        <time>2024-07-25T08:50:28Z</time>
      </trkpt>
      <trkpt lat="43.59076" lon="3.39843">
        <ele>284.4</ele>
        <time>2024-07-25T08:50:29Z</time>
      </trkpt>
      <trkpt lat="43.59078" lon="3.39842">
        <ele>284.5</ele>
        <time>2024-07-25T08:50:30Z</time>
      </trkpt>
      <trkpt lat="43.59081" lon="3.39842">
        <ele>284.6</ele>
        <time>2024-07-25T08:50:31Z</time>
      </trkpt>
      <trkpt lat="43.59083" lon="3.39841">
        <ele>284.7</ele>
        <time>2024-07-25T08:50:32Z</time>
      </trkpt>
      <trkpt lat="43.59085" lon="3.39839">
        <ele>284.9</ele>
        <time>2024-07-25T08:50:33Z</time>
      </trkpt>
      <trkpt lat="43.59088" lon="3.39837">
        <ele>285.2</ele>
        <time>2024-07-25T08:50:34Z</time>
      </trkpt>
      <trkpt lat="43.5909" lon="3.39835">
        <ele>285.4</ele>
        <time>2024-07-25T08:50:35Z</time>
      </trkpt>
      <trkpt lat="43.59093" lon="3.39833">
        <ele>285.7</ele>
        <time>2024-07-25T08:50:36Z</time>
      </trkpt>
      <trkpt lat="43.59094" lon="3.39831">
        <ele>285.8</ele>
        <time>2024-07-25T08:50:37Z</time>
      </trkpt>
      <trkpt lat="43.59096" lon="3.39828">
        <ele>286</ele>
        <time>2024-07-25T08:50:38Z</time>
      </trkpt>
      <trkpt lat="43.59098" lon="3.39826">
        <ele>286.2</ele>
        <time>2024-07-25T08:50:39Z</time>
      </trkpt>
      <trkpt lat="43.591" lon="3.39824">
        <ele>286.3</ele>
        <time>2024-07-25T08:50:40Z</time>
      </trkpt>
      <trkpt lat="43.59101" lon="3.39821">
        <ele>286.4</ele>
        <time>2024-07-25T08:50:41Z</time>
      </trkpt>
      <trkpt lat="43.59103" lon="3.39818">
        <ele>286.6</ele>
        <time>2024-07-25T08:50:42Z</time>
      </trkpt>
      <trkpt lat="43.59104" lon="3.39816">
        <ele>286.6</ele>
        <time>2024-07-25T08:50:43Z</time>
      </trkpt>
      <trkpt lat="43.59106" lon="3.39814">
        <ele>286.8</ele>
        <time>2024-07-25T08:50:44Z</time>
      </trkpt>
      <trkpt lat="43.59108" lon="3.39811">
        <ele>286.9</ele>
        <time>2024-07-25T08:50:45Z</time>
      </trkpt>
      <trkpt lat="43.59109" lon="3.39809">
        <ele>286.9</ele>
        <time>2024-07-25T08:50:46Z</time>
      </trkpt>
      <trkpt lat="43.59111" lon="3.39806">
        <ele>287</ele>
        <time>2024-07-25T08:50:47Z</time>
      </trkpt>
      <trkpt lat="43.59112" lon="3.39803">
        <ele>287.1</ele>
        <time>2024-07-25T08:50:48Z</time>
      </trkpt>
      <trkpt lat="43.59114" lon="3.398">
        <ele>287.2</ele>
        <time>2024-07-25T08:50:49Z</time>
      </trkpt>
      <trkpt lat="43.59115" lon="3.39798">
        <ele>287.3</ele>
        <time>2024-07-25T08:50:50Z</time>
      </trkpt>
      <trkpt lat="43.59116" lon="3.39796">
        <ele>287.4</ele>
        <time>2024-07-25T08:50:51Z</time>
      </trkpt>
      <trkpt lat="43.59118" lon="3.39794">
        <ele>287.5</ele>
        <time>2024-07-25T08:50:52Z</time>
      </trkpt>
      <trkpt lat="43.59119" lon="3.39791">
        <ele>287.6</ele>
        <time>2024-07-25T08:50:53Z</time>
      </trkpt>
      <trkpt lat="43.5912" lon="3.39789">
        <ele>287.6</ele>
        <time>2024-07-25T08:50:54Z</time>
      </trkpt>
      <trkpt lat="43.59122" lon="3.39787">
        <ele>287.8</ele>
        <time>2024-07-25T08:50:55Z</time>
      </trkpt>
      <trkpt lat="43.59123" lon="3.39785">
        <ele>287.9</ele>
        <time>2024-07-25T08:50:56Z</time>
      </trkpt>
      <trkpt lat="43.59124" lon="3.39784">
        <ele>287.9</ele>
        <time>2024-07-25T08:50:57Z</time>
      </trkpt>
      <trkpt lat="43.59125" lon="3.39782">
        <ele>288</ele>
        <time>2024-07-25T08:50:58Z</time>
      </trkpt>
      <trkpt lat="43.59127" lon="3.39779">
        <ele>288.1</ele>
        <time>2024-07-25T08:50:59Z</time>
      </trkpt>
      <trkpt lat="43.59128" lon="3.39778">
        <ele>288.2</ele>
        <time>2024-07-25T08:51:00Z</time>
      </trkpt>
      <trkpt lat="43.59129" lon="3.39776">
        <ele>288.3</ele>
        <time>2024-07-25T08:51:01Z</time>
      </trkpt>
      <trkpt lat="43.59131" lon="3.39773">
        <ele>288.5</ele>
        <time>2024-07-25T08:51:02Z</time>
      </trkpt>
      <trkpt lat="43.59132" lon="3.3977">
        <ele>288.6</ele>
        <time>2024-07-25T08:51:03Z</time>
      </trkpt>
      <trkpt lat="43.59134" lon="3.39767">
        <ele>288.7</ele>
        <time>2024-07-25T08:51:04Z</time>
      </trkpt>
      <trkpt lat="43.59135" lon="3.39765">
        <ele>288.8</ele>
        <time>2024-07-25T08:51:05Z</time>
      </trkpt>
      <trkpt lat="43.59137" lon="3.39762">
        <ele>288.9</ele>
        <time>2024-07-25T08:51:06Z</time>
      </trkpt>
      <trkpt lat="43.59138" lon="3.3976">
        <ele>289</ele>
        <time>2024-07-25T08:51:07Z</time>
      </trkpt>
      <trkpt lat="43.59139" lon="3.39758">
        <ele>289</ele>
        <time>2024-07-25T08:51:08Z</time>
      </trkpt>
      <trkpt lat="43.5914" lon="3.39757">
        <ele>289</ele>
        <time>2024-07-25T08:51:09Z</time>
      </trkpt>
      <trkpt lat="43.59142" lon="3.39755">
        <ele>289</ele>
        <time>2024-07-25T08:51:10Z</time>
      </trkpt>
      <trkpt lat="43.59144" lon="3.39752">
        <ele>289</ele>
        <time>2024-07-25T08:51:11Z</time>
      </trkpt>
      <trkpt lat="43.59146" lon="3.3975">
        <ele>289</ele>
        <time>2024-07-25T08:51:12Z</time>
      </trkpt>
      <trkpt lat="43.59149" lon="3.39748">
        <ele>289</ele>
        <time>2024-07-25T08:51:13Z</time>
      </trkpt>
      <trkpt lat="43.59152" lon="3.39747">
        <ele>288.9</ele>
        <time>2024-07-25T08:51:14Z</time>
      </trkpt>
      <trkpt lat="43.59155" lon="3.39746">
        <ele>288.9</ele>
        <time>2024-07-25T08:51:15Z</time>
      </trkpt>
      <trkpt lat="43.59158" lon="3.39746">
        <ele>289</ele>
        <time>2024-07-25T08:51:16Z</time>
      </trkpt>
      <trkpt lat="43.59161" lon="3.39746">
        <ele>289</ele>
        <time>2024-07-25T08:51:17Z</time>
      </trkpt>
      <trkpt lat="43.59163" lon="3.39745">
        <ele>289</ele>
        <time>2024-07-25T08:51:18Z</time>
      </trkpt>
      <trkpt lat="43.59166" lon="3.39745">
        <ele>289</ele>
        <time>2024-07-25T08:51:19Z</time>
      </trkpt>
      <trkpt lat="43.59169" lon="3.39746">
        <ele>289.1</ele>
        <time>2024-07-25T08:51:20Z</time>
      </trkpt>
      <trkpt lat="43.59172" lon="3.39746">
        <ele>289.1</ele>
        <time>2024-07-25T08:51:21Z</time>
      </trkpt>
      <trkpt lat="43.59175" lon="3.39747">
        <ele>289.2</ele>
        <time>2024-07-25T08:51:22Z</time>
      </trkpt>
      <trkpt lat="43.59178" lon="3.39747">
        <ele>289.3</ele>
        <time>2024-07-25T08:51:23Z</time>
      </trkpt>
      <trkpt lat="43.59182" lon="3.39748">
        <ele>289.5</ele>
        <time>2024-07-25T08:51:24Z</time>
      </trkpt>
      <trkpt lat="43.59185" lon="3.39749">
        <ele>289.6</ele>
        <time>2024-07-25T08:51:25Z</time>
      </trkpt>
      <trkpt lat="43.59189" lon="3.39749">
        <ele>289.7</ele>
        <time>2024-07-25T08:51:26Z</time>
      </trkpt>
      <trkpt lat="43.59193" lon="3.3975">
        <ele>289.9</ele>
        <time>2024-07-25T08:51:27Z</time>
      </trkpt>
      <trkpt lat="43.59196" lon="3.3975">
        <ele>290</ele>
        <time>2024-07-25T08:51:28Z</time>
      </trkpt>
      <trkpt lat="43.59199" lon="3.3975">
        <ele>290</ele>
        <time>2024-07-25T08:51:29Z</time>
      </trkpt>
      <trkpt lat="43.59202" lon="3.39751">
        <ele>290.1</ele>
        <time>2024-07-25T08:51:30Z</time>
      </trkpt>
      <trkpt lat="43.59205" lon="3.39751">
        <ele>290.1</ele>
        <time>2024-07-25T08:51:31Z</time>
      </trkpt>
      <trkpt lat="43.59209" lon="3.39751">
        <ele>290.1</ele>
        <time>2024-07-25T08:51:32Z</time>
      </trkpt>
      <trkpt lat="43.59212" lon="3.39751">
        <ele>290.1</ele>
        <time>2024-07-25T08:51:33Z</time>
      </trkpt>
      <trkpt lat="43.59215" lon="3.39752">
        <ele>290.2</ele>
        <time>2024-07-25T08:51:34Z</time>
      </trkpt>
      <trkpt lat="43.59218" lon="3.39752">
        <ele>290.2</ele>
        <time>2024-07-25T08:51:35Z</time>
      </trkpt>
      <trkpt lat="43.59222" lon="3.39752">
        <ele>290.2</ele>
        <time>2024-07-25T08:51:36Z</time>
      </trkpt>
      <trkpt lat="43.59226" lon="3.39752">
        <ele>290.2</ele>
        <time>2024-07-25T08:51:37Z</time>
      </trkpt>
      <trkpt lat="43.5923" lon="3.39752">
        <ele>290.2</ele>
        <time>2024-07-25T08:51:38Z</time>
      </trkpt>
      <trkpt lat="43.59233" lon="3.39753">
        <ele>290.4</ele>
        <time>2024-07-25T08:51:39Z</time>
      </trkpt>
      <trkpt lat="43.59237" lon="3.39753">
        <ele>290.4</ele>
        <time>2024-07-25T08:51:40Z</time>
      </trkpt>
      <trkpt lat="43.5924" lon="3.39753">
        <ele>290.4</ele>
        <time>2024-07-25T08:51:41Z</time>
      </trkpt>
      <trkpt lat="43.59243" lon="3.39753">
        <ele>290.4</ele>
        <time>2024-07-25T08:51:42Z</time>
      </trkpt>
      <trkpt lat="43.59246" lon="3.39754">
        <ele>290.6</ele>
        <time>2024-07-25T08:51:43Z</time>
      </trkpt>
      <trkpt lat="43.59249" lon="3.39754">
        <ele>290.6</ele>
        <time>2024-07-25T08:51:44Z</time>
      </trkpt>
      <trkpt lat="43.59252" lon="3.39754">
        <ele>290.6</ele>
        <time>2024-07-25T08:51:45Z</time>
      </trkpt>
      <trkpt lat="43.59254" lon="3.39754">
        <ele>290.7</ele>
        <time>2024-07-25T08:51:46Z</time>
      </trkpt>
      <trkpt lat="43.59257" lon="3.39754">
        <ele>290.8</ele>
        <time>2024-07-25T08:51:47Z</time>
      </trkpt>
      <trkpt lat="43.5926" lon="3.39753">
        <ele>290.8</ele>
        <time>2024-07-25T08:51:48Z</time>
      </trkpt>
      <trkpt lat="43.59263" lon="3.39751">
        <ele>290.6</ele>
        <time>2024-07-25T08:51:49Z</time>
      </trkpt>
      <trkpt lat="43.59266" lon="3.39749">
        <ele>290.4</ele>
        <time>2024-07-25T08:51:50Z</time>
      </trkpt>
      <trkpt lat="43.59269" lon="3.39747">
        <ele>290.2</ele>
        <time>2024-07-25T08:51:51Z</time>
      </trkpt>
      <trkpt lat="43.59273" lon="3.39745">
        <ele>290</ele>
        <time>2024-07-25T08:51:52Z</time>
      </trkpt>
      <trkpt lat="43.59276" lon="3.39744">
        <ele>289.9</ele>
        <time>2024-07-25T08:51:53Z</time>
      </trkpt>
      <trkpt lat="43.59279" lon="3.39743">
        <ele>289.7</ele>
        <time>2024-07-25T08:51:54Z</time>
      </trkpt>
      <trkpt lat="43.59282" lon="3.39742">
        <ele>289.4</ele>
        <time>2024-07-25T08:51:55Z</time>
      </trkpt>
      <trkpt lat="43.59285" lon="3.39742">
        <ele>289.3</ele>
        <time>2024-07-25T08:51:56Z</time>
      </trkpt>
      <trkpt lat="43.59289" lon="3.39742">
        <ele>289.2</ele>
        <time>2024-07-25T08:51:57Z</time>
      </trkpt>
      <trkpt lat="43.59292" lon="3.39741">
        <ele>288.9</ele>
        <time>2024-07-25T08:51:58Z</time>
      </trkpt>
      <trkpt lat="43.59296" lon="3.39741">
        <ele>288.7</ele>
        <time>2024-07-25T08:51:59Z</time>
      </trkpt>
      <trkpt lat="43.593" lon="3.39741">
        <ele>288.6</ele>
        <time>2024-07-25T08:52:00Z</time>
      </trkpt>
      <trkpt lat="43.59304" lon="3.39741">
        <ele>288.4</ele>
        <time>2024-07-25T08:52:01Z</time>
      </trkpt>
      <trkpt lat="43.59308" lon="3.39741">
        <ele>288.3</ele>
        <time>2024-07-25T08:52:02Z</time>
      </trkpt>
      <trkpt lat="43.59313" lon="3.39741">
        <ele>288.2</ele>
        <time>2024-07-25T08:52:03Z</time>
      </trkpt>
      <trkpt lat="43.59318" lon="3.3974">
        <ele>287.9</ele>
        <time>2024-07-25T08:52:04Z</time>
      </trkpt>
      <trkpt lat="43.59324" lon="3.39739">
        <ele>287.6</ele>
        <time>2024-07-25T08:52:05Z</time>
      </trkpt>
      <trkpt lat="43.59329" lon="3.39738">
        <ele>287.4</ele>
        <time>2024-07-25T08:52:06Z</time>
      </trkpt>
      <trkpt lat="43.59334" lon="3.39737">
        <ele>287.1</ele>
        <time>2024-07-25T08:52:07Z</time>
      </trkpt>
      <trkpt lat="43.59339" lon="3.39737">
        <ele>286.6</ele>
        <time>2024-07-25T08:52:08Z</time>
      </trkpt>
      <trkpt lat="43.59343" lon="3.39737">
        <ele>286.2</ele>
        <time>2024-07-25T08:52:09Z</time>
      </trkpt>
      <trkpt lat="43.59347" lon="3.39739">
        <ele>286.1</ele>
        <time>2024-07-25T08:52:10Z</time>
      </trkpt>
      <trkpt lat="43.59351" lon="3.39742">
        <ele>286.1</ele>
        <time>2024-07-25T08:52:11Z</time>
      </trkpt>
      <trkpt lat="43.59354" lon="3.39744">
        <ele>286.1</ele>
        <time>2024-07-25T08:52:12Z</time>
      </trkpt>
      <trkpt lat="43.59357" lon="3.39746">
        <ele>286</ele>
        <time>2024-07-25T08:52:13Z</time>
      </trkpt>
      <trkpt lat="43.59361" lon="3.39749">
        <ele>285.9</ele>
        <time>2024-07-25T08:52:14Z</time>
      </trkpt>
      <trkpt lat="43.59364" lon="3.39752">
        <ele>286.1</ele>
        <time>2024-07-25T08:52:15Z</time>
      </trkpt>
      <trkpt lat="43.59367" lon="3.39754">
        <ele>286.1</ele>
        <time>2024-07-25T08:52:16Z</time>
      </trkpt>
      <trkpt lat="43.5937" lon="3.39757">
        <ele>286.3</ele>
        <time>2024-07-25T08:52:17Z</time>
      </trkpt>
      <trkpt lat="43.59373" lon="3.3976">
        <ele>286.4</ele>
        <time>2024-07-25T08:52:18Z</time>
      </trkpt>
      <trkpt lat="43.59376" lon="3.39762">
        <ele>286.4</ele>
        <time>2024-07-25T08:52:19Z</time>
      </trkpt>
      <trkpt lat="43.59379" lon="3.39765">
        <ele>286.5</ele>
        <time>2024-07-25T08:52:20Z</time>
      </trkpt>
      <trkpt lat="43.59382" lon="3.39767">
        <ele>286.5</ele>
        <time>2024-07-25T08:52:21Z</time>
      </trkpt>
      <trkpt lat="43.59384" lon="3.39769">
        <ele>286.5</ele>
        <time>2024-07-25T08:52:22Z</time>
      </trkpt>
      <trkpt lat="43.59387" lon="3.39772">
        <ele>286.6</ele>
        <time>2024-07-25T08:52:23Z</time>
      </trkpt>
      <trkpt lat="43.59391" lon="3.39774">
        <ele>286.2</ele>
        <time>2024-07-25T08:52:24Z</time>
      </trkpt>
      <trkpt lat="43.59394" lon="3.39777">
        <ele>286</ele>
        <time>2024-07-25T08:52:25Z</time>
      </trkpt>
      <trkpt lat="43.59398" lon="3.3978">
        <ele>285.7</ele>
        <time>2024-07-25T08:52:26Z</time>
      </trkpt>
      <trkpt lat="43.59402" lon="3.39784">
        <ele>285.4</ele>
        <time>2024-07-25T08:52:27Z</time>
      </trkpt>
      <trkpt lat="43.59406" lon="3.39789">
        <ele>285.3</ele>
        <time>2024-07-25T08:52:28Z</time>
      </trkpt>
      <trkpt lat="43.5941" lon="3.39795">
        <ele>285.2</ele>
        <time>2024-07-25T08:52:29Z</time>
      </trkpt>
      <trkpt lat="43.59414" lon="3.398">
        <ele>285</ele>
        <time>2024-07-25T08:52:30Z</time>
      </trkpt>
      <trkpt lat="43.59419" lon="3.39806">
        <ele>284.5</ele>
        <time>2024-07-25T08:52:31Z</time>
      </trkpt>
      <trkpt lat="43.59423" lon="3.39811">
        <ele>283.9</ele>
        <time>2024-07-25T08:52:32Z</time>
      </trkpt>
      <trkpt lat="43.59427" lon="3.39817">
        <ele>283.5</ele>
        <time>2024-07-25T08:52:33Z</time>
      </trkpt>
      <trkpt lat="43.59431" lon="3.39822">
        <ele>282.9</ele>
        <time>2024-07-25T08:52:34Z</time>
      </trkpt>
      <trkpt lat="43.59434" lon="3.39827">
        <ele>282.5</ele>
        <time>2024-07-25T08:52:35Z</time>
      </trkpt>
      <trkpt lat="43.59438" lon="3.39832">
        <ele>281.7</ele>
        <time>2024-07-25T08:52:36Z</time>
      </trkpt>
      <trkpt lat="43.59441" lon="3.39838">
        <ele>281.3</ele>
        <time>2024-07-25T08:52:37Z</time>
      </trkpt>
      <trkpt lat="43.59445" lon="3.39844">
        <ele>280.6</ele>
        <time>2024-07-25T08:52:38Z</time>
      </trkpt>
      <trkpt lat="43.59448" lon="3.3985">
        <ele>280.3</ele>
        <time>2024-07-25T08:52:39Z</time>
      </trkpt>
      <trkpt lat="43.5945" lon="3.39858">
        <ele>280.4</ele>
        <time>2024-07-25T08:52:40Z</time>
      </trkpt>
      <trkpt lat="43.59453" lon="3.39865">
        <ele>280.1</ele>
        <time>2024-07-25T08:52:41Z</time>
      </trkpt>
      <trkpt lat="43.59455" lon="3.39873">
        <ele>280</ele>
        <time>2024-07-25T08:52:42Z</time>
      </trkpt>
      <trkpt lat="43.59457" lon="3.39882">
        <ele>280</ele>
        <time>2024-07-25T08:52:43Z</time>
      </trkpt>
      <trkpt lat="43.59459" lon="3.39889">
        <ele>279.8</ele>
        <time>2024-07-25T08:52:44Z</time>
      </trkpt>
      <trkpt lat="43.59461" lon="3.39894">
        <ele>279.3</ele>
        <time>2024-07-25T08:52:45Z</time>
      </trkpt>
      <trkpt lat="43.59462" lon="3.39898">
        <ele>279.2</ele>
        <time>2024-07-25T08:52:46Z</time>
      </trkpt>
      <trkpt lat="43.59464" lon="3.39903">
        <ele>278.7</ele>
        <time>2024-07-25T08:52:47Z</time>
      </trkpt>
      <trkpt lat="43.59467" lon="3.39908">
        <ele>278.1</ele>
        <time>2024-07-25T08:52:48Z</time>
      </trkpt>
      <trkpt lat="43.59469" lon="3.39914">
        <ele>277.7</ele>
        <time>2024-07-25T08:52:49Z</time>
      </trkpt>
      <trkpt lat="43.59472" lon="3.39919">
        <ele>277.2</ele>
        <time>2024-07-25T08:52:50Z</time>
      </trkpt>
      <trkpt lat="43.59475" lon="3.39923">
        <ele>276.8</ele>
        <time>2024-07-25T08:52:51Z</time>
      </trkpt>
      <trkpt lat="43.59478" lon="3.39928">
        <ele>276.4</ele>
        <time>2024-07-25T08:52:52Z</time>
      </trkpt>
      <trkpt lat="43.59481" lon="3.39932">
        <ele>275.9</ele>
        <time>2024-07-25T08:52:53Z</time>
      </trkpt>
      <trkpt lat="43.59484" lon="3.39937">
        <ele>275.5</ele>
        <time>2024-07-25T08:52:54Z</time>
      </trkpt>
      <trkpt lat="43.59488" lon="3.39941">
        <ele>274.8</ele>
        <time>2024-07-25T08:52:55Z</time>
      </trkpt>
      <trkpt lat="43.59492" lon="3.39945">
        <ele>274.1</ele>
        <time>2024-07-25T08:52:56Z</time>
      </trkpt>
      <trkpt lat="43.59495" lon="3.39949">
        <ele>273.6</ele>
        <time>2024-07-25T08:52:57Z</time>
      </trkpt>
      <trkpt lat="43.59499" lon="3.39953">
        <ele>272.9</ele>
        <time>2024-07-25T08:52:58Z</time>
      </trkpt>
      <trkpt lat="43.59501" lon="3.39957">
        <ele>272.7</ele>
        <time>2024-07-25T08:52:59Z</time>
      </trkpt>
      <trkpt lat="43.59504" lon="3.39963">
        <ele>272.4</ele>
        <time>2024-07-25T08:53:00Z</time>
      </trkpt>
      <trkpt lat="43.59507" lon="3.39969">
        <ele>272.2</ele>
        <time>2024-07-25T08:53:01Z</time>
      </trkpt>
      <trkpt lat="43.5951" lon="3.39975">
        <ele>272</ele>
        <time>2024-07-25T08:53:02Z</time>
      </trkpt>
      <trkpt lat="43.59514" lon="3.39981">
        <ele>271.5</ele>
        <time>2024-07-25T08:53:03Z</time>
      </trkpt>
      <trkpt lat="43.59517" lon="3.39988">
        <ele>271.2</ele>
        <time>2024-07-25T08:53:04Z</time>
      </trkpt>
      <trkpt lat="43.5952" lon="3.39993">
        <ele>271</ele>
        <time>2024-07-25T08:53:05Z</time>
      </trkpt>
      <trkpt lat="43.59522" lon="3.39999">
        <ele>271</ele>
        <time>2024-07-25T08:53:06Z</time>
      </trkpt>
      <trkpt lat="43.59525" lon="3.40005">
        <ele>270.5</ele>
        <time>2024-07-25T08:53:07Z</time>
      </trkpt>
      <trkpt lat="43.59528" lon="3.40011">
        <ele>270</ele>
        <time>2024-07-25T08:53:08Z</time>
      </trkpt>
      <trkpt lat="43.59531" lon="3.40018">
        <ele>269.5</ele>
        <time>2024-07-25T08:53:09Z</time>
      </trkpt>
      <trkpt lat="43.59533" lon="3.40025">
        <ele>269.2</ele>
        <time>2024-07-25T08:53:10Z</time>
      </trkpt>
      <trkpt lat="43.59536" lon="3.40032">
        <ele>268.8</ele>
        <time>2024-07-25T08:53:11Z</time>
      </trkpt>
      <trkpt lat="43.59538" lon="3.40039">
        <ele>268.5</ele>
        <time>2024-07-25T08:53:12Z</time>
      </trkpt>
      <trkpt lat="43.59541" lon="3.40046">
        <ele>268.1</ele>
        <time>2024-07-25T08:53:13Z</time>
      </trkpt>
      <trkpt lat="43.59545" lon="3.40051">
        <ele>267.5</ele>
        <time>2024-07-25T08:53:14Z</time>
      </trkpt>
      <trkpt lat="43.59549" lon="3.40056">
        <ele>266.9</ele>
        <time>2024-07-25T08:53:15Z</time>
      </trkpt>
      <trkpt lat="43.59553" lon="3.40059">
        <ele>266.2</ele>
        <time>2024-07-25T08:53:16Z</time>
      </trkpt>
      <trkpt lat="43.59557" lon="3.40062">
        <ele>265.6</ele>
        <time>2024-07-25T08:53:17Z</time>
      </trkpt>
      <trkpt lat="43.5956" lon="3.40068">
        <ele>265</ele>
        <time>2024-07-25T08:53:18Z</time>
      </trkpt>
      <trkpt lat="43.59562" lon="3.40075">
        <ele>264.5</ele>
        <time>2024-07-25T08:53:19Z</time>
      </trkpt>
      <trkpt lat="43.59563" lon="3.40082">
        <ele>264.2</ele>
        <time>2024-07-25T08:53:20Z</time>
      </trkpt>
      <trkpt lat="43.59565" lon="3.4009">
        <ele>263.5</ele>
        <time>2024-07-25T08:53:21Z</time>
      </trkpt>
      <trkpt lat="43.59565" lon="3.40099">
        <ele>262.9</ele>
        <time>2024-07-25T08:53:22Z</time>
      </trkpt>
      <trkpt lat="43.59565" lon="3.40105">
        <ele>262.4</ele>
        <time>2024-07-25T08:53:23Z</time>
      </trkpt>
      <trkpt lat="43.59564" lon="3.40111">
        <ele>262.1</ele>
        <time>2024-07-25T08:53:24Z</time>
      </trkpt>
      <trkpt lat="43.59562" lon="3.40117">
        <ele>262</ele>
        <time>2024-07-25T08:53:25Z</time>
      </trkpt>
      <trkpt lat="43.59559" lon="3.40122">
        <ele>262.2</ele>
        <time>2024-07-25T08:53:26Z</time>
      </trkpt>
      <trkpt lat="43.59557" lon="3.40126">
        <ele>262.3</ele>
        <time>2024-07-25T08:53:27Z</time>
      </trkpt>
      <trkpt lat="43.59554" lon="3.4013">
        <ele>262.5</ele>
        <time>2024-07-25T08:53:28Z</time>
      </trkpt>
      <trkpt lat="43.59551" lon="3.40135">
        <ele>262.5</ele>
        <time>2024-07-25T08:53:29Z</time>
      </trkpt>
      <trkpt lat="43.59549" lon="3.40142">
        <ele>262.2</ele>
        <time>2024-07-25T08:53:30Z</time>
      </trkpt>
      <trkpt lat="43.59547" lon="3.40148">
        <ele>262</ele>
        <time>2024-07-25T08:53:31Z</time>
      </trkpt>
      <trkpt lat="43.59545" lon="3.40153">
        <ele>261.7</ele>
        <time>2024-07-25T08:53:32Z</time>
      </trkpt>
      <trkpt lat="43.59542" lon="3.40159">
        <ele>261.5</ele>
        <time>2024-07-25T08:53:33Z</time>
      </trkpt>
      <trkpt lat="43.59539" lon="3.40165">
        <ele>261.3</ele>
        <time>2024-07-25T08:53:34Z</time>
      </trkpt>
      <trkpt lat="43.59536" lon="3.40169">
        <ele>261.2</ele>
        <time>2024-07-25T08:53:35Z</time>
      </trkpt>
      <trkpt lat="43.59534" lon="3.40173">
        <ele>260.9</ele>
        <time>2024-07-25T08:53:36Z</time>
      </trkpt>
      <trkpt lat="43.59531" lon="3.40178">
        <ele>260.5</ele>
        <time>2024-07-25T08:53:37Z</time>
      </trkpt>
      <trkpt lat="43.59529" lon="3.40182">
        <ele>260.3</ele>
        <time>2024-07-25T08:53:38Z</time>
      </trkpt>
      <trkpt lat="43.59528" lon="3.40187">
        <ele>259.8</ele>
        <time>2024-07-25T08:53:39Z</time>
      </trkpt>
      <trkpt lat="43.59526" lon="3.40191">
        <ele>259.5</ele>
        <time>2024-07-25T08:53:40Z</time>
      </trkpt>
      <trkpt lat="43.59524" lon="3.40196">
        <ele>259</ele>
        <time>2024-07-25T08:53:41Z</time>
      </trkpt>
      <trkpt lat="43.59522" lon="3.40199">
        <ele>258.7</ele>
        <time>2024-07-25T08:53:42Z</time>
      </trkpt>
      <trkpt lat="43.5952" lon="3.40202">
        <ele>258.3</ele>
        <time>2024-07-25T08:53:43Z</time>
      </trkpt>
      <trkpt lat="43.59518" lon="3.40205">
        <ele>257.9</ele>
        <time>2024-07-25T08:53:44Z</time>
      </trkpt>
      <trkpt lat="43.59515" lon="3.40209">
        <ele>257.3</ele>
        <time>2024-07-25T08:53:45Z</time>
      </trkpt>
      <trkpt lat="43.59513" lon="3.40212">
        <ele>256.9</ele>
        <time>2024-07-25T08:53:46Z</time>
      </trkpt>
      <trkpt lat="43.5951" lon="3.40215">
        <ele>256.4</ele>
        <time>2024-07-25T08:53:47Z</time>
      </trkpt>
      <trkpt lat="43.59506" lon="3.40219">
        <ele>255.6</ele>
        <time>2024-07-25T08:53:48Z</time>
      </trkpt>
      <trkpt lat="43.59503" lon="3.40224">
        <ele>254.8</ele>
        <time>2024-07-25T08:53:49Z</time>
      </trkpt>
      <trkpt lat="43.59499" lon="3.40229">
        <ele>254.3</ele>
        <time>2024-07-25T08:53:50Z</time>
      </trkpt>
      <trkpt lat="43.59494" lon="3.40233">
        <ele>254.1</ele>
        <time>2024-07-25T08:53:51Z</time>
      </trkpt>
      <trkpt lat="43.59489" lon="3.40236">
        <ele>253.9</ele>
        <time>2024-07-25T08:53:52Z</time>
      </trkpt>
      <trkpt lat="43.59484" lon="3.40238">
        <ele>253.8</ele>
        <time>2024-07-25T08:53:53Z</time>
      </trkpt>
      <trkpt lat="43.5948" lon="3.40242">
        <ele>253.3</ele>
        <time>2024-07-25T08:53:54Z</time>
      </trkpt>
      <trkpt lat="43.59475" lon="3.40245">
        <ele>252.9</ele>
        <time>2024-07-25T08:53:55Z</time>
      </trkpt>
      <trkpt lat="43.5947" lon="3.40247">
        <ele>252.5</ele>
        <time>2024-07-25T08:53:56Z</time>
      </trkpt>
      <trkpt lat="43.59464" lon="3.4025">
        <ele>251.7</ele>
        <time>2024-07-25T08:53:57Z</time>
      </trkpt>
      <trkpt lat="43.59458" lon="3.40254">
        <ele>250.9</ele>
        <time>2024-07-25T08:53:58Z</time>
      </trkpt>
      <trkpt lat="43.59452" lon="3.40256">
        <ele>250.4</ele>
        <time>2024-07-25T08:53:59Z</time>
      </trkpt>
      <trkpt lat="43.59447" lon="3.40259">
        <ele>249.8</ele>
        <time>2024-07-25T08:54:00Z</time>
      </trkpt>
      <trkpt lat="43.59441" lon="3.4026">
        <ele>249.5</ele>
        <time>2024-07-25T08:54:01Z</time>
      </trkpt>
      <trkpt lat="43.59435" lon="3.4026">
        <ele>249.3</ele>
        <time>2024-07-25T08:54:02Z</time>
      </trkpt>
      <trkpt lat="43.59428" lon="3.4026">
        <ele>249.2</ele>
        <time>2024-07-25T08:54:03Z</time>
      </trkpt>
      <trkpt lat="43.59422" lon="3.4026">
        <ele>249</ele>
        <time>2024-07-25T08:54:04Z</time>
      </trkpt>
      <trkpt lat="43.59416" lon="3.40262">
        <ele>248.7</ele>
        <time>2024-07-25T08:54:05Z</time>
      </trkpt>
      <trkpt lat="43.59411" lon="3.40265">
        <ele>248.5</ele>
        <time>2024-07-25T08:54:06Z</time>
      </trkpt>
      <trkpt lat="43.59407" lon="3.4027">
        <ele>247.9</ele>
        <time>2024-07-25T08:54:07Z</time>
      </trkpt>
      <trkpt lat="43.59403" lon="3.40275">
        <ele>247.3</ele>
        <time>2024-07-25T08:54:08Z</time>
      </trkpt>
      <trkpt lat="43.59398" lon="3.40279">
        <ele>246.8</ele>
        <time>2024-07-25T08:54:09Z</time>
      </trkpt>
      <trkpt lat="43.59393" lon="3.40283">
        <ele>246.3</ele>
        <time>2024-07-25T08:54:10Z</time>
      </trkpt>
      <trkpt lat="43.59388" lon="3.40286">
        <ele>245.9</ele>
        <time>2024-07-25T08:54:11Z</time>
      </trkpt>
      <trkpt lat="43.59383" lon="3.40288">
        <ele>245.8</ele>
        <time>2024-07-25T08:54:12Z</time>
      </trkpt>
      <trkpt lat="43.59377" lon="3.4029">
        <ele>245.7</ele>
        <time>2024-07-25T08:54:13Z</time>
      </trkpt>
      <trkpt lat="43.59373" lon="3.40291">
        <ele>245.7</ele>
        <time>2024-07-25T08:54:14Z</time>
      </trkpt>
      <trkpt lat="43.59367" lon="3.40291">
        <ele>245.9</ele>
        <time>2024-07-25T08:54:15Z</time>
      </trkpt>
      <trkpt lat="43.59362" lon="3.40292">
        <ele>245.9</ele>
        <time>2024-07-25T08:54:16Z</time>
      </trkpt>
      <trkpt lat="43.59357" lon="3.40295">
        <ele>245.4</ele>
        <time>2024-07-25T08:54:17Z</time>
      </trkpt>
      <trkpt lat="43.59354" lon="3.40299">
        <ele>244.6</ele>
        <time>2024-07-25T08:54:18Z</time>
      </trkpt>
      <trkpt lat="43.5935" lon="3.40302">
        <ele>244.1</ele>
        <time>2024-07-25T08:54:19Z</time>
      </trkpt>
      <trkpt lat="43.59347" lon="3.40305">
        <ele>243.6</ele>
        <time>2024-07-25T08:54:20Z</time>
      </trkpt>
      <trkpt lat="43.59344" lon="3.40307">
        <ele>243.4</ele>
        <time>2024-07-25T08:54:21Z</time>
      </trkpt>
      <trkpt lat="43.5934" lon="3.40309">
        <ele>243.1</ele>
        <time>2024-07-25T08:54:22Z</time>
      </trkpt>
      <trkpt lat="43.59337" lon="3.4031">
        <ele>243.1</ele>
        <time>2024-07-25T08:54:23Z</time>
      </trkpt>
      <trkpt lat="43.59332" lon="3.40311">
        <ele>243</ele>
        <time>2024-07-25T08:54:24Z</time>
      </trkpt>
      <trkpt lat="43.59327" lon="3.40312">
        <ele>242.8</ele>
        <time>2024-07-25T08:54:25Z</time>
      </trkpt>
      <trkpt lat="43.59321" lon="3.40312">
        <ele>242.8</ele>
        <time>2024-07-25T08:54:26Z</time>
      </trkpt>
      <trkpt lat="43.59315" lon="3.40312">
        <ele>242.8</ele>
        <time>2024-07-25T08:54:27Z</time>
      </trkpt>
      <trkpt lat="43.59308" lon="3.40312">
        <ele>242.8</ele>
        <time>2024-07-25T08:54:28Z</time>
      </trkpt>
      <trkpt lat="43.59302" lon="3.40313">
        <ele>242.6</ele>
        <time>2024-07-25T08:54:29Z</time>
      </trkpt>
      <trkpt lat="43.59296" lon="3.40314">
        <ele>242.2</ele>
        <time>2024-07-25T08:54:30Z</time>
      </trkpt>
      <trkpt lat="43.59291" lon="3.40314">
        <ele>242.1</ele>
        <time>2024-07-25T08:54:31Z</time>
      </trkpt>
      <trkpt lat="43.59285" lon="3.40314">
        <ele>242</ele>
        <time>2024-07-25T08:54:32Z</time>
      </trkpt>
      <trkpt lat="43.5928" lon="3.40314">
        <ele>241.8</ele>
        <time>2024-07-25T08:54:33Z</time>
      </trkpt>
      <trkpt lat="43.59274" lon="3.40314">
        <ele>241.6</ele>
        <time>2024-07-25T08:54:34Z</time>
      </trkpt>
      <trkpt lat="43.59269" lon="3.40314">
        <ele>241.5</ele>
        <time>2024-07-25T08:54:35Z</time>
      </trkpt>
      <trkpt lat="43.59263" lon="3.40314">
        <ele>241.3</ele>
        <time>2024-07-25T08:54:36Z</time>
      </trkpt>
      <trkpt lat="43.59258" lon="3.40315">
        <ele>240.9</ele>
        <time>2024-07-25T08:54:37Z</time>
      </trkpt>
      <trkpt lat="43.59253" lon="3.40315">
        <ele>240.7</ele>
        <time>2024-07-25T08:54:38Z</time>
      </trkpt>
      <trkpt lat="43.59248" lon="3.40315">
        <ele>240.5</ele>
        <time>2024-07-25T08:54:39Z</time>
      </trkpt>
      <trkpt lat="43.59243" lon="3.40315">
        <ele>240.2</ele>
        <time>2024-07-25T08:54:40Z</time>
      </trkpt>
      <trkpt lat="43.59237" lon="3.40315">
        <ele>239.9</ele>
        <time>2024-07-25T08:54:41Z</time>
      </trkpt>
      <trkpt lat="43.59232" lon="3.40315">
        <ele>239.6</ele>
        <time>2024-07-25T08:54:42Z</time>
      </trkpt>
      <trkpt lat="43.59226" lon="3.40316">
        <ele>239.1</ele>
        <time>2024-07-25T08:54:43Z</time>
      </trkpt>
      <trkpt lat="43.5922" lon="3.40317">
        <ele>238.7</ele>
        <time>2024-07-25T08:54:44Z</time>
      </trkpt>
      <trkpt lat="43.59214" lon="3.40319">
        <ele>238.1</ele>
        <time>2024-07-25T08:54:45Z</time>
      </trkpt>
      <trkpt lat="43.59209" lon="3.40322">
        <ele>237.5</ele>
        <time>2024-07-25T08:54:46Z</time>
      </trkpt>
      <trkpt lat="43.59203" lon="3.40326">
        <ele>236.6</ele>
        <time>2024-07-25T08:54:47Z</time>
      </trkpt>
      <trkpt lat="43.59198" lon="3.40331">
        <ele>235.6</ele>
        <time>2024-07-25T08:54:48Z</time>
      </trkpt>
      <trkpt lat="43.59194" lon="3.40335">
        <ele>234.7</ele>
        <time>2024-07-25T08:54:49Z</time>
      </trkpt>
      <trkpt lat="43.5919" lon="3.40336">
        <ele>234.1</ele>
        <time>2024-07-25T08:54:50Z</time>
      </trkpt>
      <trkpt lat="43.59187" lon="3.40336">
        <ele>233.8</ele>
        <time>2024-07-25T08:54:51Z</time>
      </trkpt>
      <trkpt lat="43.59184" lon="3.40335">
        <ele>233.6</ele>
        <time>2024-07-25T08:54:52Z</time>
      </trkpt>
      <trkpt lat="43.59181" lon="3.40333">
        <ele>233.6</ele>
        <time>2024-07-25T08:54:53Z</time>
      </trkpt>
      <trkpt lat="43.59178" lon="3.40332">
        <ele>233.4</ele>
        <time>2024-07-25T08:54:54Z</time>
      </trkpt>
      <trkpt lat="43.59175" lon="3.40332">
        <ele>233.1</ele>
        <time>2024-07-25T08:54:55Z</time>
      </trkpt>
      <trkpt lat="43.59173" lon="3.40334">
        <ele>232.6</ele>
        <time>2024-07-25T08:54:56Z</time>
      </trkpt>
      <trkpt lat="43.59172" lon="3.40338">
        <ele>231.9</ele>
        <time>2024-07-25T08:54:57Z</time>
      </trkpt>
      <trkpt lat="43.59172" lon="3.40343">
        <ele>231.2</ele>
        <time>2024-07-25T08:54:58Z</time>
      </trkpt>
      <trkpt lat="43.59174" lon="3.40346">
        <ele>231</ele>
        <time>2024-07-25T08:54:59Z</time>
      </trkpt>
      <trkpt lat="43.59177" lon="3.40347">
        <ele>231.1</ele>
        <time>2024-07-25T08:55:00Z</time>
      </trkpt>
      <trkpt lat="43.5918" lon="3.4035">
        <ele>231</ele>
        <time>2024-07-25T08:55:01Z</time>
      </trkpt>
      <trkpt lat="43.59183" lon="3.40353">
        <ele>230.9</ele>
        <time>2024-07-25T08:55:02Z</time>
      </trkpt>
      <trkpt lat="43.59187" lon="3.40357">
        <ele>230.8</ele>
        <time>2024-07-25T08:55:03Z</time>
      </trkpt>
      <trkpt lat="43.59191" lon="3.40361">
        <ele>230.6</ele>
        <time>2024-07-25T08:55:04Z</time>
      </trkpt>
      <trkpt lat="43.59195" lon="3.40366">
        <ele>230.3</ele>
        <time>2024-07-25T08:55:05Z</time>
      </trkpt>
      <trkpt lat="43.592" lon="3.4037">
        <ele>230.1</ele>
        <time>2024-07-25T08:55:06Z</time>
      </trkpt>
      <trkpt lat="43.59204" lon="3.40374">
        <ele>229.7</ele>
        <time>2024-07-25T08:55:07Z</time>
      </trkpt>
      <trkpt lat="43.59209" lon="3.40379">
        <ele>229.1</ele>
        <time>2024-07-25T08:55:08Z</time>
      </trkpt>
      <trkpt lat="43.59214" lon="3.40384">
        <ele>228.5</ele>
        <time>2024-07-25T08:55:09Z</time>
      </trkpt>
      <trkpt lat="43.59219" lon="3.40387">
        <ele>228.2</ele>
        <time>2024-07-25T08:55:10Z</time>
      </trkpt>
      <trkpt lat="43.59223" lon="3.4039">
        <ele>227.9</ele>
        <time>2024-07-25T08:55:11Z</time>
      </trkpt>
      <trkpt lat="43.59226" lon="3.40392">
        <ele>227.7</ele>
        <time>2024-07-25T08:55:12Z</time>
      </trkpt>
      <trkpt lat="43.59229" lon="3.40395">
        <ele>227.4</ele>
        <time>2024-07-25T08:55:13Z</time>
      </trkpt>
      <trkpt lat="43.5923" lon="3.40396">
        <ele>227.3</ele>
        <time>2024-07-25T08:55:14Z</time>
      </trkpt>
      <trkpt lat="43.59233" lon="3.40398">
        <ele>227.1</ele>
        <time>2024-07-25T08:55:15Z</time>
      </trkpt>
      <trkpt lat="43.59236" lon="3.404">
        <ele>226.9</ele>
        <time>2024-07-25T08:55:16Z</time>
      </trkpt>
      <trkpt lat="43.59239" lon="3.40402">
        <ele>226.7</ele>
        <time>2024-07-25T08:55:17Z</time>
      </trkpt>
      <trkpt lat="43.59242" lon="3.40404">
        <ele>226.5</ele>
        <time>2024-07-25T08:55:18Z</time>
      </trkpt>
      <trkpt lat="43.59244" lon="3.40406">
        <ele>226.3</ele>
        <time>2024-07-25T08:55:19Z</time>
      </trkpt>
      <trkpt lat="43.59246" lon="3.40407">
        <ele>226.2</ele>
        <time>2024-07-25T08:55:20Z</time>
      </trkpt>
      <trkpt lat="43.59247" lon="3.40409">
        <ele>226</ele>
        <time>2024-07-25T08:55:21Z</time>
      </trkpt>
      <trkpt lat="43.59248" lon="3.40409">
        <ele>226</ele>
        <time>2024-07-25T08:55:22Z</time>
      </trkpt>
      <trkpt lat="43.59249" lon="3.40409">
        <ele>226.1</ele>
        <time>2024-07-25T08:55:23Z</time>
      </trkpt>
      <trkpt lat="43.59249" lon="3.40409">
        <ele>226.1</ele>
        <time>2024-07-25T08:55:24Z</time>
      </trkpt>
      <trkpt lat="43.59252" lon="3.40407">
        <ele>226.3</ele>
        <time>2024-07-25T08:55:57Z</time>
      </trkpt>
      <trkpt lat="43.59255" lon="3.40406">
        <ele>226.3</ele>
        <time>2024-07-25T08:55:58Z</time>
      </trkpt>
      <trkpt lat="43.59258" lon="3.40406">
        <ele>226.2</ele>
        <time>2024-07-25T08:55:59Z</time>
      </trkpt>
      <trkpt lat="43.59261" lon="3.40405">
        <ele>226.2</ele>
        <time>2024-07-25T08:56:00Z</time>
      </trkpt>
      <trkpt lat="43.59264" lon="3.40405">
        <ele>226.1</ele>
        <time>2024-07-25T08:56:01Z</time>
      </trkpt>
      <trkpt lat="43.59268" lon="3.40404">
        <ele>226.1</ele>
        <time>2024-07-25T08:56:02Z</time>
      </trkpt>
      <trkpt lat="43.59272" lon="3.40402">
        <ele>226.4</ele>
        <time>2024-07-25T08:56:03Z</time>
      </trkpt>
      <trkpt lat="43.59276" lon="3.40401">
        <ele>226.4</ele>
        <time>2024-07-25T08:56:04Z</time>
      </trkpt>
      <trkpt lat="43.59281" lon="3.404">
        <ele>226.6</ele>
        <time>2024-07-25T08:56:05Z</time>
      </trkpt>
      <trkpt lat="43.59287" lon="3.40401">
        <ele>226.5</ele>
        <time>2024-07-25T08:56:06Z</time>
      </trkpt>
      <trkpt lat="43.59292" lon="3.40402">
        <ele>226.4</ele>
        <time>2024-07-25T08:56:07Z</time>
      </trkpt>
      <trkpt lat="43.59298" lon="3.40402">
        <ele>226.5</ele>
        <time>2024-07-25T08:56:08Z</time>
      </trkpt>
      <trkpt lat="43.59303" lon="3.40403">
        <ele>226.4</ele>
        <time>2024-07-25T08:56:09Z</time>
      </trkpt>
      <trkpt lat="43.59307" lon="3.40402">
        <ele>226.7</ele>
        <time>2024-07-25T08:56:10Z</time>
      </trkpt>
      <trkpt lat="43.59311" lon="3.40403">
        <ele>226.7</ele>
        <time>2024-07-25T08:56:11Z</time>
      </trkpt>
      <trkpt lat="43.59314" lon="3.40403">
        <ele>226.8</ele>
        <time>2024-07-25T08:56:12Z</time>
      </trkpt>
      <trkpt lat="43.59317" lon="3.40403">
        <ele>226.9</ele>
        <time>2024-07-25T08:56:13Z</time>
      </trkpt>
      <trkpt lat="43.5932" lon="3.40403">
        <ele>227</ele>
        <time>2024-07-25T08:56:14Z</time>
      </trkpt>
      <trkpt lat="43.59323" lon="3.40402">
        <ele>227.3</ele>
        <time>2024-07-25T08:56:15Z</time>
      </trkpt>
      <trkpt lat="43.59327" lon="3.40401">
        <ele>227.6</ele>
        <time>2024-07-25T08:56:16Z</time>
      </trkpt>
      <trkpt lat="43.5933" lon="3.40399">
        <ele>228.1</ele>
        <time>2024-07-25T08:56:17Z</time>
      </trkpt>
      <trkpt lat="43.59333" lon="3.40399">
        <ele>228.2</ele>
        <time>2024-07-25T08:56:18Z</time>
      </trkpt>
      <trkpt lat="43.59336" lon="3.40398">
        <ele>228.5</ele>
        <time>2024-07-25T08:56:19Z</time>
      </trkpt>
      <trkpt lat="43.59339" lon="3.40398">
        <ele>228.6</ele>
        <time>2024-07-25T08:56:20Z</time>
      </trkpt>
      <trkpt lat="43.59342" lon="3.40397">
        <ele>228.9</ele>
        <time>2024-07-25T08:56:21Z</time>
      </trkpt>
      <trkpt lat="43.59345" lon="3.40397">
        <ele>229.1</ele>
        <time>2024-07-25T08:56:22Z</time>
      </trkpt>
      <trkpt lat="43.59349" lon="3.40396">
        <ele>229.4</ele>
        <time>2024-07-25T08:56:23Z</time>
      </trkpt>
      <trkpt lat="43.59352" lon="3.40396">
        <ele>229.6</ele>
        <time>2024-07-25T08:56:24Z</time>
      </trkpt>
      <trkpt lat="43.59355" lon="3.40395">
        <ele>229.9</ele>
        <time>2024-07-25T08:56:25Z</time>
      </trkpt>
      <trkpt lat="43.59359" lon="3.40395">
        <ele>230</ele>
        <time>2024-07-25T08:56:26Z</time>
      </trkpt>
      <trkpt lat="43.59363" lon="3.40396">
        <ele>230</ele>
        <time>2024-07-25T08:56:27Z</time>
      </trkpt>
      <trkpt lat="43.59367" lon="3.40395">
        <ele>230.1</ele>
        <time>2024-07-25T08:56:28Z</time>
      </trkpt>
      <trkpt lat="43.5937" lon="3.40395">
        <ele>230.1</ele>
        <time>2024-07-25T08:56:29Z</time>
      </trkpt>
      <trkpt lat="43.59373" lon="3.40395">
        <ele>230.1</ele>
        <time>2024-07-25T08:56:30Z</time>
      </trkpt>
      <trkpt lat="43.59375" lon="3.40395">
        <ele>230.1</ele>
        <time>2024-07-25T08:56:31Z</time>
      </trkpt>
      <trkpt lat="43.59377" lon="3.40395">
        <ele>230.1</ele>
        <time>2024-07-25T08:56:32Z</time>
      </trkpt>
      <trkpt lat="43.59379" lon="3.40394">
        <ele>230.3</ele>
        <time>2024-07-25T08:56:33Z</time>
      </trkpt>
      <trkpt lat="43.59381" lon="3.40393">
        <ele>230.4</ele>
        <time>2024-07-25T08:56:34Z</time>
      </trkpt>
      <trkpt lat="43.59384" lon="3.40392">
        <ele>230.6</ele>
        <time>2024-07-25T08:56:35Z</time>
      </trkpt>
      <trkpt lat="43.59386" lon="3.40391">
        <ele>230.7</ele>
        <time>2024-07-25T08:56:36Z</time>
      </trkpt>
      <trkpt lat="43.59388" lon="3.40389">
        <ele>231</ele>
        <time>2024-07-25T08:56:37Z</time>
      </trkpt>
      <trkpt lat="43.5939" lon="3.40388">
        <ele>231.2</ele>
        <time>2024-07-25T08:56:38Z</time>
      </trkpt>
      <trkpt lat="43.59393" lon="3.40387">
        <ele>231.5</ele>
        <time>2024-07-25T08:56:39Z</time>
      </trkpt>
      <trkpt lat="43.59396" lon="3.40386">
        <ele>231.8</ele>
        <time>2024-07-25T08:56:40Z</time>
      </trkpt>
      <trkpt lat="43.59398" lon="3.40387">
        <ele>231.8</ele>
        <time>2024-07-25T08:56:41Z</time>
      </trkpt>
      <trkpt lat="43.59401" lon="3.40386">
        <ele>232.1</ele>
        <time>2024-07-25T08:56:42Z</time>
      </trkpt>
      <trkpt lat="43.59402" lon="3.40387">
        <ele>232.1</ele>
        <time>2024-07-25T08:56:43Z</time>
      </trkpt>
      <trkpt lat="43.59403" lon="3.40387">
        <ele>232.2</ele>
        <time>2024-07-25T08:56:44Z</time>
      </trkpt>
      <trkpt lat="43.59405" lon="3.40388">
        <ele>232.2</ele>
        <time>2024-07-25T08:56:45Z</time>
      </trkpt>
      <trkpt lat="43.59407" lon="3.40389">
        <ele>232.3</ele>
        <time>2024-07-25T08:56:46Z</time>
      </trkpt>
      <trkpt lat="43.59408" lon="3.40392">
        <ele>231.9</ele>
        <time>2024-07-25T08:56:47Z</time>
      </trkpt>
      <trkpt lat="43.59408" lon="3.40396">
        <ele>231.2</ele>
        <time>2024-07-25T08:56:48Z</time>
      </trkpt>
      <trkpt lat="43.59409" lon="3.40401">
        <ele>230.4</ele>
        <time>2024-07-25T08:56:49Z</time>
      </trkpt>
      <trkpt lat="43.59411" lon="3.40406">
        <ele>229.6</ele>
        <time>2024-07-25T08:56:50Z</time>
      </trkpt>
      <trkpt lat="43.59414" lon="3.40409">
        <ele>229.3</ele>
        <time>2024-07-25T08:56:51Z</time>
      </trkpt>
      <trkpt lat="43.59417" lon="3.4041">
        <ele>229.2</ele>
        <time>2024-07-25T08:56:52Z</time>
      </trkpt>
      <trkpt lat="43.5942" lon="3.40409">
        <ele>229.5</ele>
        <time>2024-07-25T08:56:53Z</time>
      </trkpt>
      <trkpt lat="43.59423" lon="3.40407">
        <ele>229.9</ele>
        <time>2024-07-25T08:56:54Z</time>
      </trkpt>
      <trkpt lat="43.59425" lon="3.40406">
        <ele>230.1</ele>
        <time>2024-07-25T08:56:55Z</time>
      </trkpt>
      <trkpt lat="43.59427" lon="3.40405">
        <ele>230.3</ele>
        <time>2024-07-25T08:56:56Z</time>
      </trkpt>
      <trkpt lat="43.5943" lon="3.40404">
        <ele>230.5</ele>
        <time>2024-07-25T08:56:57Z</time>
      </trkpt>
      <trkpt lat="43.59432" lon="3.40405">
        <ele>230.4</ele>
        <time>2024-07-25T08:56:58Z</time>
      </trkpt>
      <trkpt lat="43.59435" lon="3.40404">
        <ele>230.6</ele>
        <time>2024-07-25T08:56:59Z</time>
      </trkpt>
      <trkpt lat="43.59438" lon="3.40406">
        <ele>230.4</ele>
        <time>2024-07-25T08:57:00Z</time>
      </trkpt>
      <trkpt lat="43.59442" lon="3.40409">
        <ele>230</ele>
        <time>2024-07-25T08:57:01Z</time>
      </trkpt>
      <trkpt lat="43.59447" lon="3.40411">
        <ele>229.7</ele>
        <time>2024-07-25T08:57:02Z</time>
      </trkpt>
      <trkpt lat="43.59453" lon="3.40412">
        <ele>229.4</ele>
        <time>2024-07-25T08:57:03Z</time>
      </trkpt>
      <trkpt lat="43.59458" lon="3.40413">
        <ele>229</ele>
        <time>2024-07-25T08:57:04Z</time>
      </trkpt>
      <trkpt lat="43.59462" lon="3.40414">
        <ele>228.8</ele>
        <time>2024-07-25T08:57:05Z</time>
      </trkpt>
      <trkpt lat="43.59465" lon="3.40414">
        <ele>228.6</ele>
        <time>2024-07-25T08:57:06Z</time>
      </trkpt>
      <trkpt lat="43.59468" lon="3.40415">
        <ele>228.4</ele>
        <time>2024-07-25T08:57:07Z</time>
      </trkpt>
      <trkpt lat="43.59472" lon="3.40416">
        <ele>228.1</ele>
        <time>2024-07-25T08:57:08Z</time>
      </trkpt>
      <trkpt lat="43.59477" lon="3.40418">
        <ele>227.6</ele>
        <time>2024-07-25T08:57:09Z</time>
      </trkpt>
      <trkpt lat="43.59482" lon="3.40421">
        <ele>226.9</ele>
        <time>2024-07-25T08:57:10Z</time>
      </trkpt>
      <trkpt lat="43.59487" lon="3.40425">
        <ele>226.1</ele>
        <time>2024-07-25T08:57:11Z</time>
      </trkpt>
      <trkpt lat="43.59492" lon="3.40429">
        <ele>225.4</ele>
        <time>2024-07-25T08:57:12Z</time>
      </trkpt>
      <trkpt lat="43.59495" lon="3.40432">
        <ele>224.9</ele>
        <time>2024-07-25T08:57:13Z</time>
      </trkpt>
      <trkpt lat="43.59498" lon="3.40435">
        <ele>224.4</ele>
        <time>2024-07-25T08:57:14Z</time>
      </trkpt>
      <trkpt lat="43.59502" lon="3.40438">
        <ele>223.9</ele>
        <time>2024-07-25T08:57:15Z</time>
      </trkpt>
      <trkpt lat="43.59506" lon="3.40439">
        <ele>223.8</ele>
        <time>2024-07-25T08:57:16Z</time>
      </trkpt>
      <trkpt lat="43.59509" lon="3.40442">
        <ele>223.4</ele>
        <time>2024-07-25T08:57:17Z</time>
      </trkpt>
      <trkpt lat="43.59513" lon="3.40445">
        <ele>222.9</ele>
        <time>2024-07-25T08:57:18Z</time>
      </trkpt>
      <trkpt lat="43.59517" lon="3.40447">
        <ele>222.7</ele>
        <time>2024-07-25T08:57:19Z</time>
      </trkpt>
      <trkpt lat="43.59521" lon="3.4045">
        <ele>222.3</ele>
        <time>2024-07-25T08:57:20Z</time>
      </trkpt>
      <trkpt lat="43.59524" lon="3.40453">
        <ele>222</ele>
        <time>2024-07-25T08:57:21Z</time>
      </trkpt>
      <trkpt lat="43.59529" lon="3.40456">
        <ele>221.8</ele>
        <time>2024-07-25T08:57:22Z</time>
      </trkpt>
      <trkpt lat="43.59534" lon="3.40459">
        <ele>221.7</ele>
        <time>2024-07-25T08:57:23Z</time>
      </trkpt>
      <trkpt lat="43.59538" lon="3.4046">
        <ele>221.7</ele>
        <time>2024-07-25T08:57:24Z</time>
      </trkpt>
      <trkpt lat="43.59542" lon="3.40463">
        <ele>221.5</ele>
        <time>2024-07-25T08:57:25Z</time>
      </trkpt>
      <trkpt lat="43.59544" lon="3.40465">
        <ele>221.4</ele>
        <time>2024-07-25T08:57:26Z</time>
      </trkpt>
      <trkpt lat="43.59546" lon="3.40466">
        <ele>221.3</ele>
        <time>2024-07-25T08:57:27Z</time>
      </trkpt>
      <trkpt lat="43.59547" lon="3.40467">
        <ele>221.3</ele>
        <time>2024-07-25T08:57:28Z</time>
      </trkpt>
      <trkpt lat="43.59549" lon="3.40469">
        <ele>221.1</ele>
        <time>2024-07-25T08:57:29Z</time>
      </trkpt>
      <trkpt lat="43.5955" lon="3.4047">
        <ele>221</ele>
        <time>2024-07-25T08:57:30Z</time>
      </trkpt>
      <trkpt lat="43.59552" lon="3.40472">
        <ele>220.9</ele>
        <time>2024-07-25T08:57:31Z</time>
      </trkpt>
      <trkpt lat="43.59553" lon="3.40474">
        <ele>220.7</ele>
        <time>2024-07-25T08:57:32Z</time>
      </trkpt>
      <trkpt lat="43.59555" lon="3.40476">
        <ele>220.6</ele>
        <time>2024-07-25T08:57:33Z</time>
      </trkpt>
      <trkpt lat="43.59555" lon="3.40478">
        <ele>220.3</ele>
        <time>2024-07-25T08:57:34Z</time>
      </trkpt>
      <trkpt lat="43.59555" lon="3.40481">
        <ele>220</ele>
        <time>2024-07-25T08:57:35Z</time>
      </trkpt>
      <trkpt lat="43.59554" lon="3.40483">
        <ele>219.7</ele>
        <time>2024-07-25T08:57:36Z</time>
      </trkpt>
      <trkpt lat="43.59554" lon="3.40486">
        <ele>219.4</ele>
        <time>2024-07-25T08:57:37Z</time>
      </trkpt>
      <trkpt lat="43.59553" lon="3.4049">
        <ele>218.9</ele>
        <time>2024-07-25T08:57:38Z</time>
      </trkpt>
      <trkpt lat="43.59554" lon="3.40493">
        <ele>218.6</ele>
        <time>2024-07-25T08:57:39Z</time>
      </trkpt>
      <trkpt lat="43.59554" lon="3.40497">
        <ele>218.2</ele>
        <time>2024-07-25T08:57:40Z</time>
      </trkpt>
      <trkpt lat="43.59555" lon="3.40499">
        <ele>218</ele>
        <time>2024-07-25T08:57:41Z</time>
      </trkpt>
      <trkpt lat="43.59555" lon="3.40503">
        <ele>217.5</ele>
        <time>2024-07-25T08:57:42Z</time>
      </trkpt>
      <trkpt lat="43.59554" lon="3.40505">
        <ele>217.1</ele>
        <time>2024-07-25T08:57:43Z</time>
      </trkpt>
      <trkpt lat="43.59554" lon="3.40509">
        <ele>216.5</ele>
        <time>2024-07-25T08:57:44Z</time>
      </trkpt>
      <trkpt lat="43.59553" lon="3.40513">
        <ele>215.8</ele>
        <time>2024-07-25T08:57:45Z</time>
      </trkpt>
      <trkpt lat="43.59554" lon="3.40517">
        <ele>215.3</ele>
        <time>2024-07-25T08:57:46Z</time>
      </trkpt>
      <trkpt lat="43.59554" lon="3.4052">
        <ele>214.9</ele>
        <time>2024-07-25T08:57:47Z</time>
      </trkpt>
      <trkpt lat="43.59556" lon="3.40523">
        <ele>214.7</ele>
        <time>2024-07-25T08:57:48Z</time>
      </trkpt>
      <trkpt lat="43.59557" lon="3.40525">
        <ele>214.5</ele>
        <time>2024-07-25T08:57:49Z</time>
      </trkpt>
      <trkpt lat="43.59557" lon="3.40528">
        <ele>214</ele>
        <time>2024-07-25T08:57:50Z</time>
      </trkpt>
      <trkpt lat="43.59556" lon="3.40531">
        <ele>213.6</ele>
        <time>2024-07-25T08:57:51Z</time>
      </trkpt>
      <trkpt lat="43.59556" lon="3.40534">
        <ele>213.1</ele>
        <time>2024-07-25T08:57:52Z</time>
      </trkpt>
      <trkpt lat="43.59557" lon="3.40537">
        <ele>212.7</ele>
        <time>2024-07-25T08:57:53Z</time>
      </trkpt>
      <trkpt lat="43.59556" lon="3.40539">
        <ele>212.4</ele>
        <time>2024-07-25T08:57:54Z</time>
      </trkpt>
      <trkpt lat="43.59556" lon="3.4054">
        <ele>212.3</ele>
        <time>2024-07-25T08:57:55Z</time>
      </trkpt>
      <trkpt lat="43.59556" lon="3.40543">
        <ele>211.8</ele>
        <time>2024-07-25T08:57:56Z</time>
      </trkpt>
      <trkpt lat="43.59556" lon="3.40545">
        <ele>211.5</ele>
        <time>2024-07-25T08:57:57Z</time>
      </trkpt>
      <trkpt lat="43.59557" lon="3.40547">
        <ele>211.3</ele>
        <time>2024-07-25T08:57:58Z</time>
      </trkpt>
      <trkpt lat="43.59556" lon="3.40547">
        <ele>211.2</ele>
        <time>2024-07-25T08:57:59Z</time>
      </trkpt>
      <trkpt lat="43.59556" lon="3.40547">
        <ele>211.2</ele>
        <time>2024-07-25T08:58:00Z</time>
      </trkpt>
      <trkpt lat="43.59558" lon="3.40551">
        <ele>210.7</ele>
        <time>2024-07-25T08:58:10Z</time>
      </trkpt>
      <trkpt lat="43.59559" lon="3.40553">
        <ele>210.5</ele>
        <time>2024-07-25T08:58:11Z</time>
      </trkpt>
      <trkpt lat="43.59559" lon="3.40555">
        <ele>210.2</ele>
        <time>2024-07-25T08:58:12Z</time>
      </trkpt>
      <trkpt lat="43.59559" lon="3.40557">
        <ele>209.8</ele>
        <time>2024-07-25T08:58:13Z</time>
      </trkpt>
      <trkpt lat="43.59559" lon="3.40559">
        <ele>209.4</ele>
        <time>2024-07-25T08:58:14Z</time>
      </trkpt>
      <trkpt lat="43.5956" lon="3.40562">
        <ele>208.8</ele>
        <time>2024-07-25T08:58:15Z</time>
      </trkpt>
      <trkpt lat="43.59562" lon="3.40566">
        <ele>208.1</ele>
        <time>2024-07-25T08:58:16Z</time>
      </trkpt>
      <trkpt lat="43.59562" lon="3.40569">
        <ele>207.4</ele>
        <time>2024-07-25T08:58:17Z</time>
      </trkpt>
      <trkpt lat="43.59564" lon="3.4057">
        <ele>207.3</ele>
        <time>2024-07-25T08:58:18Z</time>
      </trkpt>
      <trkpt lat="43.59566" lon="3.40572">
        <ele>207</ele>
        <time>2024-07-25T08:58:19Z</time>
      </trkpt>
      <trkpt lat="43.59569" lon="3.40574">
        <ele>206.8</ele>
        <time>2024-07-25T08:58:20Z</time>
      </trkpt>
      <trkpt lat="43.59572" lon="3.40576">
        <ele>206.6</ele>
        <time>2024-07-25T08:58:21Z</time>
      </trkpt>
      <trkpt lat="43.59575" lon="3.4058">
        <ele>206</ele>
        <time>2024-07-25T08:58:22Z</time>
      </trkpt>
      <trkpt lat="43.59578" lon="3.40583">
        <ele>205.7</ele>
        <time>2024-07-25T08:58:23Z</time>
      </trkpt>
      <trkpt lat="43.5958" lon="3.40586">
        <ele>205.3</ele>
        <time>2024-07-25T08:58:24Z</time>
      </trkpt>
      <trkpt lat="43.59581" lon="3.40589">
        <ele>204.8</ele>
        <time>2024-07-25T08:58:25Z</time>
      </trkpt>
      <trkpt lat="43.59582" lon="3.40591">
        <ele>204.5</ele>
        <time>2024-07-25T08:58:26Z</time>
      </trkpt>
      <trkpt lat="43.59583" lon="3.40593">
        <ele>204.2</ele>
        <time>2024-07-25T08:58:27Z</time>
      </trkpt>
      <trkpt lat="43.59584" lon="3.40595">
        <ele>203.9</ele>
        <time>2024-07-25T08:58:28Z</time>
      </trkpt>
      <trkpt lat="43.59585" lon="3.40597">
        <ele>203.4</ele>
        <time>2024-07-25T08:58:29Z</time>
      </trkpt>
      <trkpt lat="43.59587" lon="3.40599">
        <ele>202.9</ele>
        <time>2024-07-25T08:58:30Z</time>
      </trkpt>
      <trkpt lat="43.59589" lon="3.406">
        <ele>202.6</ele>
        <time>2024-07-25T08:58:31Z</time>
      </trkpt>
      <trkpt lat="43.5959" lon="3.40602">
        <ele>202.2</ele>
        <time>2024-07-25T08:58:32Z</time>
      </trkpt>
      <trkpt lat="43.59591" lon="3.40604">
        <ele>201.7</ele>
        <time>2024-07-25T08:58:33Z</time>
      </trkpt>
      <trkpt lat="43.59593" lon="3.40606">
        <ele>201.2</ele>
        <time>2024-07-25T08:58:34Z</time>
      </trkpt>
      <trkpt lat="43.59593" lon="3.40609">
        <ele>200.7</ele>
        <time>2024-07-25T08:58:35Z</time>
      </trkpt>
      <trkpt lat="43.59594" lon="3.40613">
        <ele>199.8</ele>
        <time>2024-07-25T08:58:36Z</time>
      </trkpt>
      <trkpt lat="43.59595" lon="3.40616">
        <ele>199.1</ele>
        <time>2024-07-25T08:58:37Z</time>
      </trkpt>
      <trkpt lat="43.59597" lon="3.40618">
        <ele>198.5</ele>
        <time>2024-07-25T08:58:38Z</time>
      </trkpt>
      <trkpt lat="43.59599" lon="3.40619">
        <ele>198.2</ele>
        <time>2024-07-25T08:58:39Z</time>
      </trkpt>
      <trkpt lat="43.59601" lon="3.40621">
        <ele>197.7</ele>
        <time>2024-07-25T08:58:40Z</time>
      </trkpt>
      <trkpt lat="43.59603" lon="3.40623">
        <ele>197.2</ele>
        <time>2024-07-25T08:58:41Z</time>
      </trkpt>
      <trkpt lat="43.59605" lon="3.40623">
        <ele>197.1</ele>
        <time>2024-07-25T08:58:42Z</time>
      </trkpt>
      <trkpt lat="43.59606" lon="3.40622">
        <ele>197.3</ele>
        <time>2024-07-25T08:58:43Z</time>
      </trkpt>
      <trkpt lat="43.59606" lon="3.40622">
        <ele>197.3</ele>
        <time>2024-07-25T08:58:44Z</time>
      </trkpt>
      <trkpt lat="43.59616" lon="3.40633">
        <ele>194.3</ele>
        <time>2024-07-25T08:59:25Z</time>
      </trkpt>
      <trkpt lat="43.59618" lon="3.40634">
        <ele>193.8</ele>
        <time>2024-07-25T08:59:26Z</time>
      </trkpt>
      <trkpt lat="43.59618" lon="3.40634">
        <ele>193.8</ele>
        <time>2024-07-25T08:59:27Z</time>
      </trkpt>
      <trkpt lat="43.59618" lon="3.40634">
        <ele>193.8</ele>
        <time>2024-07-25T08:59:28Z</time>
      </trkpt>
      <trkpt lat="43.59623" lon="3.40638">
        <ele>192.4</ele>
        <time>2024-07-25T08:59:59Z</time>
      </trkpt>
      <trkpt lat="43.59625" lon="3.40639">
        <ele>192</ele>
        <time>2024-07-25T09:00:00Z</time>
      </trkpt>
      <trkpt lat="43.59627" lon="3.40639">
        <ele>191.7</ele>
        <time>2024-07-25T09:00:01Z</time>
      </trkpt>
      <trkpt lat="43.5963" lon="3.40638">
        <ele>191.4</ele>
        <time>2024-07-25T09:00:02Z</time>
      </trkpt>
      <trkpt lat="43.59632" lon="3.40639">
        <ele>191</ele>
        <time>2024-07-25T09:00:03Z</time>
      </trkpt>
      <trkpt lat="43.59635" lon="3.4064">
        <ele>190.4</ele>
        <time>2024-07-25T09:00:04Z</time>
      </trkpt>
      <trkpt lat="43.59638" lon="3.4064">
        <ele>190</ele>
        <time>2024-07-25T09:00:05Z</time>
      </trkpt>
      <trkpt lat="43.5964" lon="3.40639">
        <ele>189.7</ele>
        <time>2024-07-25T09:00:06Z</time>
      </trkpt>
      <trkpt lat="43.59642" lon="3.40638">
        <ele>189.3</ele>
        <time>2024-07-25T09:00:07Z</time>
      </trkpt>
      <trkpt lat="43.59644" lon="3.40636">
        <ele>189</ele>
        <time>2024-07-25T09:00:08Z</time>
      </trkpt>
      <trkpt lat="43.59645" lon="3.40633">
        <ele>189.1</ele>
        <time>2024-07-25T09:00:09Z</time>
      </trkpt>
      <trkpt lat="43.59646" lon="3.40629">
        <ele>189.4</ele>
        <time>2024-07-25T09:00:10Z</time>
      </trkpt>
      <trkpt lat="43.59646" lon="3.40626">
        <ele>189.7</ele>
        <time>2024-07-25T09:00:11Z</time>
      </trkpt>
      <trkpt lat="43.59647" lon="3.40625">
        <ele>189.6</ele>
        <time>2024-07-25T09:00:12Z</time>
      </trkpt>
      <trkpt lat="43.59648" lon="3.40623">
        <ele>189.6</ele>
        <time>2024-07-25T09:00:13Z</time>
      </trkpt>
      <trkpt lat="43.5965" lon="3.40623">
        <ele>189.1</ele>
        <time>2024-07-25T09:00:14Z</time>
      </trkpt>
      <trkpt lat="43.59652" lon="3.40623">
        <ele>188.7</ele>
        <time>2024-07-25T09:00:15Z</time>
      </trkpt>
      <trkpt lat="43.59654" lon="3.40623">
        <ele>188.2</ele>
        <time>2024-07-25T09:00:16Z</time>
      </trkpt>
      <trkpt lat="43.59656" lon="3.40622">
        <ele>187.9</ele>
        <time>2024-07-25T09:00:17Z</time>
      </trkpt>
      <trkpt lat="43.59658" lon="3.40622">
        <ele>187.4</ele>
        <time>2024-07-25T09:00:18Z</time>
      </trkpt>
      <trkpt lat="43.5966" lon="3.40622">
        <ele>187</ele>
        <time>2024-07-25T09:00:19Z</time>
      </trkpt>
      <trkpt lat="43.59662" lon="3.40622">
        <ele>186.5</ele>
        <time>2024-07-25T09:00:20Z</time>
      </trkpt>
      <trkpt lat="43.59663" lon="3.40622">
        <ele>186.3</ele>
        <time>2024-07-25T09:00:21Z</time>
      </trkpt>
      <trkpt lat="43.59664" lon="3.40622">
        <ele>186</ele>
        <time>2024-07-25T09:00:22Z</time>
      </trkpt>
      <trkpt lat="43.59666" lon="3.40623">
        <ele>185.4</ele>
        <time>2024-07-25T09:00:23Z</time>
      </trkpt>
      <trkpt lat="43.59667" lon="3.40622">
        <ele>185.3</ele>
        <time>2024-07-25T09:00:24Z</time>
      </trkpt>
      <trkpt lat="43.59669" lon="3.40621">
        <ele>184.8</ele>
        <time>2024-07-25T09:00:25Z</time>
      </trkpt>
      <trkpt lat="43.5967" lon="3.40619">
        <ele>184.8</ele>
        <time>2024-07-25T09:00:26Z</time>
      </trkpt>
      <trkpt lat="43.59672" lon="3.40617">
        <ele>184.5</ele>
        <time>2024-07-25T09:00:27Z</time>
      </trkpt>
      <trkpt lat="43.59674" lon="3.40615">
        <ele>184.1</ele>
        <time>2024-07-25T09:00:28Z</time>
      </trkpt>
      <trkpt lat="43.59676" lon="3.40615">
        <ele>183.5</ele>
        <time>2024-07-25T09:00:29Z</time>
      </trkpt>
      <trkpt lat="43.59678" lon="3.40616">
        <ele>182.7</ele>
        <time>2024-07-25T09:00:30Z</time>
      </trkpt>
      <trkpt lat="43.5968" lon="3.40616">
        <ele>182.1</ele>
        <time>2024-07-25T09:00:31Z</time>
      </trkpt>
      <trkpt lat="43.5968" lon="3.40617">
        <ele>181.9</ele>
        <time>2024-07-25T09:00:32Z</time>
      </trkpt>
      <trkpt lat="43.5968" lon="3.40617">
        <ele>181.9</ele>
        <time>2024-07-25T09:00:33Z</time>
      </trkpt>
      <trkpt lat="43.5968" lon="3.40617">
        <ele>181.9</ele>
        <time>2024-07-25T09:00:34Z</time>
      </trkpt>
      <trkpt lat="43.59719" lon="3.40618">
        <ele>173.7</ele>
        <time>2024-07-25T09:02:14Z</time>
      </trkpt>
      <trkpt lat="43.59721" lon="3.40619">
        <ele>173.2</ele>
        <time>2024-07-25T09:02:15Z</time>
      </trkpt>
      <trkpt lat="43.59722" lon="3.40619">
        <ele>173</ele>
        <time>2024-07-25T09:02:16Z</time>
      </trkpt>
      <trkpt lat="43.59724" lon="3.40619">
        <ele>172.8</ele>
        <time>2024-07-25T09:02:17Z</time>
      </trkpt>
      <trkpt lat="43.59726" lon="3.40619">
        <ele>172.6</ele>
        <time>2024-07-25T09:02:18Z</time>
      </trkpt>
      <trkpt lat="43.59728" lon="3.40619">
        <ele>172.4</ele>
        <time>2024-07-25T09:02:19Z</time>
      </trkpt>
      <trkpt lat="43.5973" lon="3.40619">
        <ele>172.1</ele>
        <time>2024-07-25T09:02:20Z</time>
      </trkpt>
      <trkpt lat="43.59732" lon="3.40619">
        <ele>171.9</ele>
        <time>2024-07-25T09:02:21Z</time>
      </trkpt>
      <trkpt lat="43.59734" lon="3.40619">
        <ele>171.7</ele>
        <time>2024-07-25T09:02:22Z</time>
      </trkpt>
      <trkpt lat="43.59736" lon="3.4062">
        <ele>171.3</ele>
        <time>2024-07-25T09:02:23Z</time>
      </trkpt>
      <trkpt lat="43.59738" lon="3.4062">
        <ele>171</ele>
        <time>2024-07-25T09:02:24Z</time>
      </trkpt>
      <trkpt lat="43.5974" lon="3.40621">
        <ele>170.6</ele>
        <time>2024-07-25T09:02:25Z</time>
      </trkpt>
      <trkpt lat="43.59742" lon="3.40623">
        <ele>170.1</ele>
        <time>2024-07-25T09:02:26Z</time>
      </trkpt>
      <trkpt lat="43.59744" lon="3.40623">
        <ele>169.9</ele>
        <time>2024-07-25T09:02:27Z</time>
      </trkpt>
      <trkpt lat="43.59746" lon="3.40623">
        <ele>169.7</ele>
        <time>2024-07-25T09:02:28Z</time>
      </trkpt>
      <trkpt lat="43.59748" lon="3.40623">
        <ele>169.5</ele>
        <time>2024-07-25T09:02:29Z</time>
      </trkpt>
      <trkpt lat="43.5975" lon="3.40622">
        <ele>169.4</ele>
        <time>2024-07-25T09:02:30Z</time>
      </trkpt>
      <trkpt lat="43.59752" lon="3.40623">
        <ele>169</ele>
        <time>2024-07-25T09:02:31Z</time>
      </trkpt>
      <trkpt lat="43.59754" lon="3.40624">
        <ele>168.6</ele>
        <time>2024-07-25T09:02:32Z</time>
      </trkpt>
      <trkpt lat="43.59757" lon="3.40623">
        <ele>168.2</ele>
        <time>2024-07-25T09:02:33Z</time>
      </trkpt>
      <trkpt lat="43.59759" lon="3.40622">
        <ele>168.1</ele>
        <time>2024-07-25T09:02:34Z</time>
      </trkpt>
      <trkpt lat="43.5976" lon="3.40619">
        <ele>168.3</ele>
        <time>2024-07-25T09:02:35Z</time>
      </trkpt>
      <trkpt lat="43.59762" lon="3.40619">
        <ele>167.9</ele>
        <time>2024-07-25T09:02:36Z</time>
      </trkpt>
      <trkpt lat="43.59764" lon="3.4062">
        <ele>167.5</ele>
        <time>2024-07-25T09:02:37Z</time>
      </trkpt>
      <trkpt lat="43.59766" lon="3.40621">
        <ele>167.1</ele>
        <time>2024-07-25T09:02:38Z</time>
      </trkpt>
      <trkpt lat="43.59768" lon="3.40622">
        <ele>166.7</ele>
        <time>2024-07-25T09:02:39Z</time>
      </trkpt>
      <trkpt lat="43.59772" lon="3.40622">
        <ele>166.1</ele>
        <time>2024-07-25T09:02:40Z</time>
      </trkpt>
      <trkpt lat="43.59774" lon="3.40621">
        <ele>165.9</ele>
        <time>2024-07-25T09:02:41Z</time>
      </trkpt>
      <trkpt lat="43.59776" lon="3.40621">
        <ele>165.6</ele>
        <time>2024-07-25T09:02:42Z</time>
      </trkpt>
      <trkpt lat="43.59777" lon="3.40621">
        <ele>165.4</ele>
        <time>2024-07-25T09:02:43Z</time>
      </trkpt>
      <trkpt lat="43.59779" lon="3.40623">
        <ele>165</ele>
        <time>2024-07-25T09:02:44Z</time>
      </trkpt>
      <trkpt lat="43.5978" lon="3.40626">
        <ele>164.7</ele>
        <time>2024-07-25T09:02:45Z</time>
      </trkpt>
      <trkpt lat="43.5978" lon="3.40629">
        <ele>164.5</ele>
        <time>2024-07-25T09:02:46Z</time>
      </trkpt>
      <trkpt lat="43.5978" lon="3.40632">
        <ele>164.3</ele>
        <time>2024-07-25T09:02:47Z</time>
      </trkpt>
      <trkpt lat="43.59779" lon="3.40636">
        <ele>164.1</ele>
        <time>2024-07-25T09:02:48Z</time>
      </trkpt>
      <trkpt lat="43.59778" lon="3.4064">
        <ele>163.9</ele>
        <time>2024-07-25T09:02:49Z</time>
      </trkpt>
      <trkpt lat="43.59778" lon="3.40643">
        <ele>163.5</ele>
        <time>2024-07-25T09:02:50Z</time>
      </trkpt>
      <trkpt lat="43.59778" lon="3.40646">
        <ele>163.2</ele>
        <time>2024-07-25T09:02:51Z</time>
      </trkpt>
      <trkpt lat="43.59779" lon="3.4065">
        <ele>162.7</ele>
        <time>2024-07-25T09:02:52Z</time>
      </trkpt>
      <trkpt lat="43.5978" lon="3.40654">
        <ele>162.1</ele>
        <time>2024-07-25T09:02:53Z</time>
      </trkpt>
      <trkpt lat="43.59781" lon="3.40659">
        <ele>161.4</ele>
        <time>2024-07-25T09:02:54Z</time>
      </trkpt>
      <trkpt lat="43.5978" lon="3.40662">
        <ele>161.2</ele>
        <time>2024-07-25T09:02:55Z</time>
      </trkpt>
      <trkpt lat="43.5978" lon="3.40666">
        <ele>160.8</ele>
        <time>2024-07-25T09:02:56Z</time>
      </trkpt>
      <trkpt lat="43.59781" lon="3.40668">
        <ele>160.3</ele>
        <time>2024-07-25T09:02:57Z</time>
      </trkpt>
      <trkpt lat="43.59782" lon="3.40671">
        <ele>159.8</ele>
        <time>2024-07-25T09:02:58Z</time>
      </trkpt>
      <trkpt lat="43.59782" lon="3.40673">
        <ele>159.5</ele>
        <time>2024-07-25T09:02:59Z</time>
      </trkpt>
      <trkpt lat="43.59783" lon="3.40675">
        <ele>159</ele>
        <time>2024-07-25T09:03:00Z</time>
      </trkpt>
      <trkpt lat="43.59784" lon="3.40676">
        <ele>158.8</ele>
        <time>2024-07-25T09:03:01Z</time>
      </trkpt>
      <trkpt lat="43.59785" lon="3.40679">
        <ele>158.2</ele>
        <time>2024-07-25T09:03:02Z</time>
      </trkpt>
      <trkpt lat="43.59786" lon="3.40681">
        <ele>157.8</ele>
        <time>2024-07-25T09:03:03Z</time>
      </trkpt>
      <trkpt lat="43.59786" lon="3.40684">
        <ele>157.3</ele>
        <time>2024-07-25T09:03:04Z</time>
      </trkpt>
      <trkpt lat="43.59786" lon="3.40686">
        <ele>157</ele>
        <time>2024-07-25T09:03:05Z</time>
      </trkpt>
      <trkpt lat="43.59787" lon="3.40688">
        <ele>156.6</ele>
        <time>2024-07-25T09:03:06Z</time>
      </trkpt>
      <trkpt lat="43.59788" lon="3.40691">
        <ele>156</ele>
        <time>2024-07-25T09:03:07Z</time>
      </trkpt>
      <trkpt lat="43.59788" lon="3.40693">
        <ele>155.7</ele>
        <time>2024-07-25T09:03:08Z</time>
      </trkpt>
      <trkpt lat="43.59788" lon="3.40695">
        <ele>155.4</ele>
        <time>2024-07-25T09:03:09Z</time>
      </trkpt>
      <trkpt lat="43.59788" lon="3.40696">
        <ele>155.3</ele>
        <time>2024-07-25T09:03:10Z</time>
      </trkpt>
      <trkpt lat="43.59786" lon="3.40698">
        <ele>155.2</ele>
        <time>2024-07-25T09:03:11Z</time>
      </trkpt>
      <trkpt lat="43.59785" lon="3.407">
        <ele>155</ele>
        <time>2024-07-25T09:03:12Z</time>
      </trkpt>
      <trkpt lat="43.59784" lon="3.40701">
        <ele>155</ele>
        <time>2024-07-25T09:03:13Z</time>
      </trkpt>
      <trkpt lat="43.59784" lon="3.40703">
        <ele>154.6</ele>
        <time>2024-07-25T09:03:14Z</time>
      </trkpt>
      <trkpt lat="43.59784" lon="3.40705">
        <ele>154.3</ele>
        <time>2024-07-25T09:03:15Z</time>
      </trkpt>
      <trkpt lat="43.59784" lon="3.40709">
        <ele>153.6</ele>
        <time>2024-07-25T09:03:16Z</time>
      </trkpt>
      <trkpt lat="43.59784" lon="3.40711">
        <ele>153.3</ele>
        <time>2024-07-25T09:03:17Z</time>
      </trkpt>
      <trkpt lat="43.59784" lon="3.40713">
        <ele>152.9</ele>
        <time>2024-07-25T09:03:18Z</time>
      </trkpt>
      <trkpt lat="43.59784" lon="3.40715">
        <ele>152.6</ele>
        <time>2024-07-25T09:03:19Z</time>
      </trkpt>
      <trkpt lat="43.59783" lon="3.40718">
        <ele>152.2</ele>
        <time>2024-07-25T09:03:20Z</time>
      </trkpt>
      <trkpt lat="43.59782" lon="3.40721">
        <ele>151.8</ele>
        <time>2024-07-25T09:03:21Z</time>
      </trkpt>
      <trkpt lat="43.59781" lon="3.40725">
        <ele>151.2</ele>
        <time>2024-07-25T09:03:22Z</time>
      </trkpt>
      <trkpt lat="43.59779" lon="3.40729">
        <ele>150.9</ele>
        <time>2024-07-25T09:03:23Z</time>
      </trkpt>
      <trkpt lat="43.59778" lon="3.40733">
        <ele>150.4</ele>
        <time>2024-07-25T09:03:24Z</time>
      </trkpt>
      <trkpt lat="43.59776" lon="3.40737">
        <ele>150.1</ele>
        <time>2024-07-25T09:03:25Z</time>
      </trkpt>
      <trkpt lat="43.59775" lon="3.40741">
        <ele>149.6</ele>
        <time>2024-07-25T09:03:26Z</time>
      </trkpt>
      <trkpt lat="43.59773" lon="3.40744">
        <ele>149.4</ele>
        <time>2024-07-25T09:03:27Z</time>
      </trkpt>
      <trkpt lat="43.59773" lon="3.40747">
        <ele>149</ele>
        <time>2024-07-25T09:03:28Z</time>
      </trkpt>
      <trkpt lat="43.59773" lon="3.4075">
        <ele>148.5</ele>
        <time>2024-07-25T09:03:29Z</time>
      </trkpt>
      <trkpt lat="43.59773" lon="3.40752">
        <ele>148.1</ele>
        <time>2024-07-25T09:03:30Z</time>
      </trkpt>
      <trkpt lat="43.59773" lon="3.40755">
        <ele>147.4</ele>
        <time>2024-07-25T09:03:31Z</time>
      </trkpt>
      <trkpt lat="43.59774" lon="3.40757">
        <ele>146.9</ele>
        <time>2024-07-25T09:03:32Z</time>
      </trkpt>
      <trkpt lat="43.59775" lon="3.40759">
        <ele>146.4</ele>
        <time>2024-07-25T09:03:33Z</time>
      </trkpt>
      <trkpt lat="43.59777" lon="3.40759">
        <ele>146.1</ele>
        <time>2024-07-25T09:03:34Z</time>
      </trkpt>
      <trkpt lat="43.59779" lon="3.4076">
        <ele>145.7</ele>
        <time>2024-07-25T09:03:35Z</time>
      </trkpt>
      <trkpt lat="43.59781" lon="3.40761">
        <ele>145.3</ele>
        <time>2024-07-25T09:03:36Z</time>
      </trkpt>
      <trkpt lat="43.59782" lon="3.40761">
        <ele>145.1</ele>
        <time>2024-07-25T09:03:37Z</time>
      </trkpt>
      <trkpt lat="43.59785" lon="3.40762">
        <ele>144.6</ele>
        <time>2024-07-25T09:03:38Z</time>
      </trkpt>
      <trkpt lat="43.59787" lon="3.40764">
        <ele>144</ele>
        <time>2024-07-25T09:03:39Z</time>
      </trkpt>
      <trkpt lat="43.59789" lon="3.40766">
        <ele>143.4</ele>
        <time>2024-07-25T09:03:40Z</time>
      </trkpt>
      <trkpt lat="43.59791" lon="3.40766">
        <ele>143.2</ele>
        <time>2024-07-25T09:03:41Z</time>
      </trkpt>
      <trkpt lat="43.59793" lon="3.40767">
        <ele>142.8</ele>
        <time>2024-07-25T09:03:42Z</time>
      </trkpt>
      <trkpt lat="43.59795" lon="3.40769">
        <ele>142.3</ele>
        <time>2024-07-25T09:03:43Z</time>
      </trkpt>
      <trkpt lat="43.59798" lon="3.40771">
        <ele>141.7</ele>
        <time>2024-07-25T09:03:44Z</time>
      </trkpt>
      <trkpt lat="43.598" lon="3.40772">
        <ele>141.3</ele>
        <time>2024-07-25T09:03:45Z</time>
      </trkpt>
      <trkpt lat="43.59801" lon="3.40772">
        <ele>141.2</ele>
        <time>2024-07-25T09:03:46Z</time>
      </trkpt>
      <trkpt lat="43.59801" lon="3.40772">
        <ele>141.2</ele>
        <time>2024-07-25T09:03:47Z</time>
      </trkpt>
      <trkpt lat="43.59807" lon="3.40771">
        <ele>140.8</ele>
        <time>2024-07-25T09:04:02Z</time>
      </trkpt>
      <trkpt lat="43.59809" lon="3.40769">
        <ele>140.7</ele>
        <time>2024-07-25T09:04:03Z</time>
      </trkpt>
      <trkpt lat="43.5981" lon="3.40767">
        <ele>140.8</ele>
        <time>2024-07-25T09:04:04Z</time>
      </trkpt>
      <trkpt lat="43.59812" lon="3.40766">
        <ele>140.6</ele>
        <time>2024-07-25T09:04:05Z</time>
      </trkpt>
      <trkpt lat="43.59814" lon="3.40765">
        <ele>140.4</ele>
        <time>2024-07-25T09:04:06Z</time>
      </trkpt>
      <trkpt lat="43.59816" lon="3.40764">
        <ele>140.1</ele>
        <time>2024-07-25T09:04:07Z</time>
      </trkpt>
      <trkpt lat="43.59818" lon="3.40763">
        <ele>139.8</ele>
        <time>2024-07-25T09:04:08Z</time>
      </trkpt>
      <trkpt lat="43.59821" lon="3.40763">
        <ele>139.3</ele>
        <time>2024-07-25T09:04:09Z</time>
      </trkpt>
      <trkpt lat="43.59824" lon="3.40764">
        <ele>138.7</ele>
        <time>2024-07-25T09:04:10Z</time>
      </trkpt>
      <trkpt lat="43.59826" lon="3.40765">
        <ele>138.3</ele>
        <time>2024-07-25T09:04:11Z</time>
      </trkpt>
      <trkpt lat="43.59828" lon="3.40765">
        <ele>137.9</ele>
        <time>2024-07-25T09:04:12Z</time>
      </trkpt>
      <trkpt lat="43.5983" lon="3.40765">
        <ele>137.6</ele>
        <time>2024-07-25T09:04:13Z</time>
      </trkpt>
      <trkpt lat="43.59831" lon="3.40763">
        <ele>137.4</ele>
        <time>2024-07-25T09:04:14Z</time>
      </trkpt>
      <trkpt lat="43.59832" lon="3.4076">
        <ele>137.3</ele>
        <time>2024-07-25T09:04:15Z</time>
      </trkpt>
      <trkpt lat="43.59833" lon="3.40759">
        <ele>137.1</ele>
        <time>2024-07-25T09:04:16Z</time>
      </trkpt>
      <trkpt lat="43.59834" lon="3.40759">
        <ele>136.8</ele>
        <time>2024-07-25T09:04:17Z</time>
      </trkpt>
      <trkpt lat="43.59836" lon="3.40759">
        <ele>136.4</ele>
        <time>2024-07-25T09:04:18Z</time>
      </trkpt>
      <trkpt lat="43.59836" lon="3.40759">
        <ele>136.4</ele>
        <time>2024-07-25T09:04:19Z</time>
      </trkpt>
      <trkpt lat="43.59837" lon="3.40759">
        <ele>136.2</ele>
        <time>2024-07-25T09:04:20Z</time>
      </trkpt>
      <trkpt lat="43.59846" lon="3.40756">
        <ele>134</ele>
        <time>2024-07-25T09:05:23Z</time>
      </trkpt>
      <trkpt lat="43.59845" lon="3.40753">
        <ele>134.2</ele>
        <time>2024-07-25T09:05:24Z</time>
      </trkpt>
      <trkpt lat="43.59846" lon="3.40748">
        <ele>134.1</ele>
        <time>2024-07-25T09:05:25Z</time>
      </trkpt>
      <trkpt lat="43.59847" lon="3.40743">
        <ele>134.4</ele>
        <time>2024-07-25T09:05:26Z</time>
      </trkpt>
      <trkpt lat="43.59851" lon="3.40739">
        <ele>133.7</ele>
        <time>2024-07-25T09:05:27Z</time>
      </trkpt>
      <trkpt lat="43.59855" lon="3.40734">
        <ele>132.7</ele>
        <time>2024-07-25T09:05:28Z</time>
      </trkpt>
      <trkpt lat="43.5986" lon="3.40729">
        <ele>131.2</ele>
        <time>2024-07-25T09:05:29Z</time>
      </trkpt>
      <trkpt lat="43.59865" lon="3.40725">
        <ele>130.2</ele>
        <time>2024-07-25T09:05:30Z</time>
      </trkpt>
      <trkpt lat="43.59869" lon="3.4072">
        <ele>130.2</ele>
        <time>2024-07-25T09:05:31Z</time>
      </trkpt>
      <trkpt lat="43.59872" lon="3.40715">
        <ele>130.8</ele>
        <time>2024-07-25T09:05:32Z</time>
      </trkpt>
      <trkpt lat="43.59876" lon="3.4071">
        <ele>130.8</ele>
        <time>2024-07-25T09:05:33Z</time>
      </trkpt>
      <trkpt lat="43.59879" lon="3.40704">
        <ele>131</ele>
        <time>2024-07-25T09:05:34Z</time>
      </trkpt>
      <trkpt lat="43.59882" lon="3.40697">
        <ele>130.9</ele>
        <time>2024-07-25T09:05:35Z</time>
      </trkpt>
      <trkpt lat="43.59887" lon="3.4069">
        <ele>130.5</ele>
        <time>2024-07-25T09:05:36Z</time>
      </trkpt>
      <trkpt lat="43.59892" lon="3.40684">
        <ele>130.3</ele>
        <time>2024-07-25T09:05:37Z</time>
      </trkpt>
      <trkpt lat="43.59897" lon="3.40678">
        <ele>129.8</ele>
        <time>2024-07-25T09:05:38Z</time>
      </trkpt>
      <trkpt lat="43.59903" lon="3.40672">
        <ele>128.1</ele>
        <time>2024-07-25T09:05:39Z</time>
      </trkpt>
      <trkpt lat="43.59909" lon="3.40665">
        <ele>126.4</ele>
        <time>2024-07-25T09:05:40Z</time>
      </trkpt>
      <trkpt lat="43.59916" lon="3.4066">
        <ele>124.3</ele>
        <time>2024-07-25T09:05:41Z</time>
      </trkpt>
      <trkpt lat="43.59923" lon="3.40654">
        <ele>124.4</ele>
        <time>2024-07-25T09:05:42Z</time>
      </trkpt>
      <trkpt lat="43.5993" lon="3.40648">
        <ele>123.9</ele>
        <time>2024-07-25T09:05:43Z</time>
      </trkpt>
      <trkpt lat="43.59936" lon="3.40643">
        <ele>122.9</ele>
        <time>2024-07-25T09:05:44Z</time>
      </trkpt>
      <trkpt lat="43.59943" lon="3.40637">
        <ele>121.4</ele>
        <time>2024-07-25T09:05:45Z</time>
      </trkpt>
      <trkpt lat="43.59947" lon="3.40629">
        <ele>123.5</ele>
        <time>2024-07-25T09:05:46Z</time>
      </trkpt>
      <trkpt lat="43.59951" lon="3.40622">
        <ele>125.3</ele>
        <time>2024-07-25T09:05:47Z</time>
      </trkpt>
      <trkpt lat="43.59954" lon="3.40615">
        <ele>126.9</ele>
        <time>2024-07-25T09:05:48Z</time>
      </trkpt>
      <trkpt lat="43.59955" lon="3.4061">
        <ele>128.1</ele>
        <time>2024-07-25T09:05:49Z</time>
      </trkpt>
      <trkpt lat="43.59955" lon="3.40606">
        <ele>128.6</ele>
        <time>2024-07-25T09:05:50Z</time>
      </trkpt>
      <trkpt lat="43.59956" lon="3.40603">
        <ele>128.7</ele>
        <time>2024-07-25T09:05:51Z</time>
      </trkpt>
      <trkpt lat="43.59958" lon="3.406">
        <ele>128.5</ele>
        <time>2024-07-25T09:05:52Z</time>
      </trkpt>
      <trkpt lat="43.59959" lon="3.40596">
        <ele>128.7</ele>
        <time>2024-07-25T09:05:53Z</time>
      </trkpt>
      <trkpt lat="43.59961" lon="3.40593">
        <ele>128.5</ele>
        <time>2024-07-25T09:05:54Z</time>
      </trkpt>
      <trkpt lat="43.59963" lon="3.40589">
        <ele>128.3</ele>
        <time>2024-07-25T09:05:55Z</time>
      </trkpt>
      <trkpt lat="43.59965" lon="3.40586">
        <ele>128</ele>
        <time>2024-07-25T09:05:56Z</time>
      </trkpt>
      <trkpt lat="43.59967" lon="3.40582">
        <ele>128</ele>
        <time>2024-07-25T09:05:57Z</time>
      </trkpt>
      <trkpt lat="43.5997" lon="3.40579">
        <ele>127.9</ele>
        <time>2024-07-25T09:05:58Z</time>
      </trkpt>
      <trkpt lat="43.59973" lon="3.40575">
        <ele>128.3</ele>
        <time>2024-07-25T09:05:59Z</time>
      </trkpt>
      <trkpt lat="43.59976" lon="3.40572">
        <ele>128.9</ele>
        <time>2024-07-25T09:06:00Z</time>
      </trkpt>
      <trkpt lat="43.59978" lon="3.4057">
        <ele>129.2</ele>
        <time>2024-07-25T09:06:01Z</time>
      </trkpt>
      <trkpt lat="43.59981" lon="3.40568">
        <ele>129.5</ele>
        <time>2024-07-25T09:06:02Z</time>
      </trkpt>
      <trkpt lat="43.59983" lon="3.40567">
        <ele>129.5</ele>
        <time>2024-07-25T09:06:03Z</time>
      </trkpt>
      <trkpt lat="43.59986" lon="3.40567">
        <ele>129.2</ele>
        <time>2024-07-25T09:06:04Z</time>
      </trkpt>
      <trkpt lat="43.59988" lon="3.40567">
        <ele>129</ele>
        <time>2024-07-25T09:06:05Z</time>
      </trkpt>
      <trkpt lat="43.5999" lon="3.40567">
        <ele>128.8</ele>
        <time>2024-07-25T09:06:06Z</time>
      </trkpt>
      <trkpt lat="43.59992" lon="3.40567">
        <ele>128.6</ele>
        <time>2024-07-25T09:06:07Z</time>
      </trkpt>
      <trkpt lat="43.59996" lon="3.40568">
        <ele>127.8</ele>
        <time>2024-07-25T09:06:08Z</time>
      </trkpt>
      <trkpt lat="43.59999" lon="3.4057">
        <ele>126.9</ele>
        <time>2024-07-25T09:06:09Z</time>
      </trkpt>
      <trkpt lat="43.60001" lon="3.4057">
        <ele>126.9</ele>
        <time>2024-07-25T09:06:10Z</time>
      </trkpt>
      <trkpt lat="43.60004" lon="3.40571">
        <ele>126.8</ele>
        <time>2024-07-25T09:06:11Z</time>
      </trkpt>
      <trkpt lat="43.60008" lon="3.40572">
        <ele>126.8</ele>
        <time>2024-07-25T09:06:12Z</time>
      </trkpt>
      <trkpt lat="43.6001" lon="3.40573">
        <ele>126.7</ele>
        <time>2024-07-25T09:06:13Z</time>
      </trkpt>
      <trkpt lat="43.60014" lon="3.40574">
        <ele>126.7</ele>
        <time>2024-07-25T09:06:14Z</time>
      </trkpt>
      <trkpt lat="43.60017" lon="3.40574">
        <ele>126.9</ele>
        <time>2024-07-25T09:06:15Z</time>
      </trkpt>
      <trkpt lat="43.60019" lon="3.40574">
        <ele>127.1</ele>
        <time>2024-07-25T09:06:16Z</time>
      </trkpt>
      <trkpt lat="43.60022" lon="3.40574">
        <ele>127.3</ele>
        <time>2024-07-25T09:06:17Z</time>
      </trkpt>
      <trkpt lat="43.60026" lon="3.40574">
        <ele>127.6</ele>
        <time>2024-07-25T09:06:18Z</time>
      </trkpt>
      <trkpt lat="43.60029" lon="3.40573">
        <ele>127.8</ele>
        <time>2024-07-25T09:06:19Z</time>
      </trkpt>
      <trkpt lat="43.60032" lon="3.40571">
        <ele>128.2</ele>
        <time>2024-07-25T09:06:20Z</time>
      </trkpt>
      <trkpt lat="43.60035" lon="3.40568">
        <ele>128.6</ele>
        <time>2024-07-25T09:06:21Z</time>
      </trkpt>
      <trkpt lat="43.60036" lon="3.40565">
        <ele>129.1</ele>
        <time>2024-07-25T09:06:22Z</time>
      </trkpt>
      <trkpt lat="43.60038" lon="3.40561">
        <ele>129.7</ele>
        <time>2024-07-25T09:06:23Z</time>
      </trkpt>
      <trkpt lat="43.60039" lon="3.40558">
        <ele>130.2</ele>
        <time>2024-07-25T09:06:24Z</time>
      </trkpt>
      <trkpt lat="43.6004" lon="3.40555">
        <ele>130.6</ele>
        <time>2024-07-25T09:06:25Z</time>
      </trkpt>
      <trkpt lat="43.60041" lon="3.40551">
        <ele>130.9</ele>
        <time>2024-07-25T09:06:26Z</time>
      </trkpt>
      <trkpt lat="43.60042" lon="3.40548">
        <ele>131</ele>
        <time>2024-07-25T09:06:27Z</time>
      </trkpt>
      <trkpt lat="43.60042" lon="3.40545">
        <ele>131.2</ele>
        <time>2024-07-25T09:06:28Z</time>
      </trkpt>
      <trkpt lat="43.60043" lon="3.40542">
        <ele>131.4</ele>
        <time>2024-07-25T09:06:29Z</time>
      </trkpt>
      <trkpt lat="43.60044" lon="3.40539">
        <ele>131.6</ele>
        <time>2024-07-25T09:06:30Z</time>
      </trkpt>
      <trkpt lat="43.60045" lon="3.40536">
        <ele>131.8</ele>
        <time>2024-07-25T09:06:31Z</time>
      </trkpt>
      <trkpt lat="43.60046" lon="3.40532">
        <ele>132</ele>
        <time>2024-07-25T09:06:32Z</time>
      </trkpt>
      <trkpt lat="43.60047" lon="3.40529">
        <ele>132.2</ele>
        <time>2024-07-25T09:06:33Z</time>
      </trkpt>
      <trkpt lat="43.60048" lon="3.40526">
        <ele>132.3</ele>
        <time>2024-07-25T09:06:34Z</time>
      </trkpt>
      <trkpt lat="43.60049" lon="3.40523">
        <ele>132.4</ele>
        <time>2024-07-25T09:06:35Z</time>
      </trkpt>
      <trkpt lat="43.6005" lon="3.4052">
        <ele>132.5</ele>
        <time>2024-07-25T09:06:36Z</time>
      </trkpt>
      <trkpt lat="43.60051" lon="3.40516">
        <ele>132.6</ele>
        <time>2024-07-25T09:06:37Z</time>
      </trkpt>
      <trkpt lat="43.60052" lon="3.40513">
        <ele>132.7</ele>
        <time>2024-07-25T09:06:38Z</time>
      </trkpt>
      <trkpt lat="43.60054" lon="3.4051">
        <ele>132.7</ele>
        <time>2024-07-25T09:06:39Z</time>
      </trkpt>
      <trkpt lat="43.60055" lon="3.40506">
        <ele>132.8</ele>
        <time>2024-07-25T09:06:40Z</time>
      </trkpt>
      <trkpt lat="43.60057" lon="3.40503">
        <ele>132.8</ele>
        <time>2024-07-25T09:06:41Z</time>
      </trkpt>
      <trkpt lat="43.60058" lon="3.40499">
        <ele>132.9</ele>
        <time>2024-07-25T09:06:42Z</time>
      </trkpt>
      <trkpt lat="43.6006" lon="3.40496">
        <ele>132.9</ele>
        <time>2024-07-25T09:06:43Z</time>
      </trkpt>
      <trkpt lat="43.60061" lon="3.40493">
        <ele>133.1</ele>
        <time>2024-07-25T09:06:44Z</time>
      </trkpt>
      <trkpt lat="43.60063" lon="3.40489">
        <ele>133.1</ele>
        <time>2024-07-25T09:06:45Z</time>
      </trkpt>
      <trkpt lat="43.60064" lon="3.40486">
        <ele>133.2</ele>
        <time>2024-07-25T09:06:46Z</time>
      </trkpt>
      <trkpt lat="43.60066" lon="3.40483">
        <ele>133.2</ele>
        <time>2024-07-25T09:06:47Z</time>
      </trkpt>
      <trkpt lat="43.60067" lon="3.4048">
        <ele>133.3</ele>
        <time>2024-07-25T09:06:48Z</time>
      </trkpt>
      <trkpt lat="43.60069" lon="3.40476">
        <ele>133.3</ele>
        <time>2024-07-25T09:06:49Z</time>
      </trkpt>
      <trkpt lat="43.6007" lon="3.40472">
        <ele>133.4</ele>
        <time>2024-07-25T09:06:50Z</time>
      </trkpt>
      <trkpt lat="43.60072" lon="3.40469">
        <ele>133.3</ele>
        <time>2024-07-25T09:06:51Z</time>
      </trkpt>
      <trkpt lat="43.60073" lon="3.40465">
        <ele>133.3</ele>
        <time>2024-07-25T09:06:52Z</time>
      </trkpt>
      <trkpt lat="43.60074" lon="3.40461">
        <ele>133.3</ele>
        <time>2024-07-25T09:06:53Z</time>
      </trkpt>
      <trkpt lat="43.60075" lon="3.40457">
        <ele>133.3</ele>
        <time>2024-07-25T09:06:54Z</time>
      </trkpt>
      <trkpt lat="43.60075" lon="3.40453">
        <ele>133.4</ele>
        <time>2024-07-25T09:06:55Z</time>
      </trkpt>
      <trkpt lat="43.60076" lon="3.40449">
        <ele>133.4</ele>
        <time>2024-07-25T09:06:56Z</time>
      </trkpt>
      <trkpt lat="43.60077" lon="3.40444">
        <ele>133.4</ele>
        <time>2024-07-25T09:06:57Z</time>
      </trkpt>
      <trkpt lat="43.60077" lon="3.4044">
        <ele>133.3</ele>
        <time>2024-07-25T09:06:58Z</time>
      </trkpt>
      <trkpt lat="43.60077" lon="3.40435">
        <ele>133.2</ele>
        <time>2024-07-25T09:06:59Z</time>
      </trkpt>
      <trkpt lat="43.60077" lon="3.4043">
        <ele>133.1</ele>
        <time>2024-07-25T09:07:00Z</time>
      </trkpt>
      <trkpt lat="43.60077" lon="3.40424">
        <ele>132.9</ele>
        <time>2024-07-25T09:07:01Z</time>
      </trkpt>
      <trkpt lat="43.60078" lon="3.40419">
        <ele>132.6</ele>
        <time>2024-07-25T09:07:02Z</time>
      </trkpt>
      <trkpt lat="43.60078" lon="3.40414">
        <ele>132.7</ele>
        <time>2024-07-25T09:07:03Z</time>
      </trkpt>
      <trkpt lat="43.60078" lon="3.40409">
        <ele>132.9</ele>
        <time>2024-07-25T09:07:04Z</time>
      </trkpt>
      <trkpt lat="43.60078" lon="3.40404">
        <ele>133</ele>
        <time>2024-07-25T09:07:05Z</time>
      </trkpt>
      <trkpt lat="43.60079" lon="3.404">
        <ele>133.1</ele>
        <time>2024-07-25T09:07:06Z</time>
      </trkpt>
      <trkpt lat="43.6008" lon="3.40394">
        <ele>133.2</ele>
        <time>2024-07-25T09:07:07Z</time>
      </trkpt>
      <trkpt lat="43.60081" lon="3.40389">
        <ele>133.2</ele>
        <time>2024-07-25T09:07:08Z</time>
      </trkpt>
      <trkpt lat="43.60082" lon="3.40385">
        <ele>133.3</ele>
        <time>2024-07-25T09:07:09Z</time>
      </trkpt>
      <trkpt lat="43.60083" lon="3.40381">
        <ele>133.3</ele>
        <time>2024-07-25T09:07:10Z</time>
      </trkpt>
      <trkpt lat="43.60085" lon="3.40377">
        <ele>133.2</ele>
        <time>2024-07-25T09:07:11Z</time>
      </trkpt>
      <trkpt lat="43.60086" lon="3.40373">
        <ele>133.2</ele>
        <time>2024-07-25T09:07:12Z</time>
      </trkpt>
      <trkpt lat="43.60087" lon="3.40369">
        <ele>133.2</ele>
        <time>2024-07-25T09:07:13Z</time>
      </trkpt>
      <trkpt lat="43.60088" lon="3.40365">
        <ele>133.2</ele>
        <time>2024-07-25T09:07:14Z</time>
      </trkpt>
      <trkpt lat="43.6009" lon="3.40361">
        <ele>133</ele>
        <time>2024-07-25T09:07:15Z</time>
      </trkpt>
      <trkpt lat="43.60091" lon="3.40356">
        <ele>133.1</ele>
        <time>2024-07-25T09:07:16Z</time>
      </trkpt>
      <trkpt lat="43.60093" lon="3.40352">
        <ele>133.1</ele>
        <time>2024-07-25T09:07:17Z</time>
      </trkpt>
      <trkpt lat="43.60094" lon="3.40348">
        <ele>133.1</ele>
        <time>2024-07-25T09:07:18Z</time>
      </trkpt>
      <trkpt lat="43.60095" lon="3.40344">
        <ele>133.2</ele>
        <time>2024-07-25T09:07:19Z</time>
      </trkpt>
      <trkpt lat="43.60096" lon="3.40339">
        <ele>133.3</ele>
        <time>2024-07-25T09:07:20Z</time>
      </trkpt>
      <trkpt lat="43.60096" lon="3.40335">
        <ele>133.5</ele>
        <time>2024-07-25T09:07:21Z</time>
      </trkpt>
      <trkpt lat="43.60096" lon="3.4033">
        <ele>133.8</ele>
        <time>2024-07-25T09:07:22Z</time>
      </trkpt>
      <trkpt lat="43.60095" lon="3.40325">
        <ele>134</ele>
        <time>2024-07-25T09:07:23Z</time>
      </trkpt>
      <trkpt lat="43.60095" lon="3.40321">
        <ele>134.2</ele>
        <time>2024-07-25T09:07:24Z</time>
      </trkpt>
      <trkpt lat="43.60094" lon="3.40317">
        <ele>134.4</ele>
        <time>2024-07-25T09:07:25Z</time>
      </trkpt>
      <trkpt lat="43.60094" lon="3.40312">
        <ele>134.6</ele>
        <time>2024-07-25T09:07:26Z</time>
      </trkpt>
      <trkpt lat="43.60093" lon="3.40308">
        <ele>134.9</ele>
        <time>2024-07-25T09:07:27Z</time>
      </trkpt>
      <trkpt lat="43.60093" lon="3.40304">
        <ele>135</ele>
        <time>2024-07-25T09:07:28Z</time>
      </trkpt>
      <trkpt lat="43.60093" lon="3.403">
        <ele>135</ele>
        <time>2024-07-25T09:07:29Z</time>
      </trkpt>
      <trkpt lat="43.60093" lon="3.40296">
        <ele>135.1</ele>
        <time>2024-07-25T09:07:30Z</time>
      </trkpt>
      <trkpt lat="43.60093" lon="3.40293">
        <ele>135.1</ele>
        <time>2024-07-25T09:07:31Z</time>
      </trkpt>
      <trkpt lat="43.60092" lon="3.40289">
        <ele>135.2</ele>
        <time>2024-07-25T09:07:32Z</time>
      </trkpt>
      <trkpt lat="43.60092" lon="3.40285">
        <ele>135.3</ele>
        <time>2024-07-25T09:07:33Z</time>
      </trkpt>
      <trkpt lat="43.60093" lon="3.40281">
        <ele>135.3</ele>
        <time>2024-07-25T09:07:34Z</time>
      </trkpt>
      <trkpt lat="43.60093" lon="3.40277">
        <ele>135.3</ele>
        <time>2024-07-25T09:07:35Z</time>
      </trkpt>
      <trkpt lat="43.60094" lon="3.40273">
        <ele>135.3</ele>
        <time>2024-07-25T09:07:36Z</time>
      </trkpt>
      <trkpt lat="43.60094" lon="3.40269">
        <ele>135.3</ele>
        <time>2024-07-25T09:07:37Z</time>
      </trkpt>
      <trkpt lat="43.60096" lon="3.40264">
        <ele>135.1</ele>
        <time>2024-07-25T09:07:38Z</time>
      </trkpt>
      <trkpt lat="43.60097" lon="3.40259">
        <ele>135</ele>
        <time>2024-07-25T09:07:39Z</time>
      </trkpt>
      <trkpt lat="43.60099" lon="3.40253">
        <ele>134.8</ele>
        <time>2024-07-25T09:07:40Z</time>
      </trkpt>
      <trkpt lat="43.60101" lon="3.40247">
        <ele>134.5</ele>
        <time>2024-07-25T09:07:41Z</time>
      </trkpt>
      <trkpt lat="43.60104" lon="3.40242">
        <ele>134.2</ele>
        <time>2024-07-25T09:07:42Z</time>
      </trkpt>
      <trkpt lat="43.60106" lon="3.40236">
        <ele>134.1</ele>
        <time>2024-07-25T09:07:43Z</time>
      </trkpt>
      <trkpt lat="43.6011" lon="3.40231">
        <ele>133.8</ele>
        <time>2024-07-25T09:07:44Z</time>
      </trkpt>
      <trkpt lat="43.60116" lon="3.40226">
        <ele>133.4</ele>
        <time>2024-07-25T09:07:45Z</time>
      </trkpt>
      <trkpt lat="43.60122" lon="3.40223">
        <ele>132.8</ele>
        <time>2024-07-25T09:07:46Z</time>
      </trkpt>
      <trkpt lat="43.60129" lon="3.40222">
        <ele>132.1</ele>
        <time>2024-07-25T09:07:47Z</time>
      </trkpt>
      <trkpt lat="43.60137" lon="3.40223">
        <ele>131.2</ele>
        <time>2024-07-25T09:07:48Z</time>
      </trkpt>
      <trkpt lat="43.60144" lon="3.40223">
        <ele>130.7</ele>
        <time>2024-07-25T09:07:49Z</time>
      </trkpt>
      <trkpt lat="43.60152" lon="3.40224">
        <ele>130.1</ele>
        <time>2024-07-25T09:07:50Z</time>
      </trkpt>
      <trkpt lat="43.60158" lon="3.40225">
        <ele>129.7</ele>
        <time>2024-07-25T09:07:51Z</time>
      </trkpt>
      <trkpt lat="43.60165" lon="3.40228">
        <ele>129.1</ele>
        <time>2024-07-25T09:07:52Z</time>
      </trkpt>
      <trkpt lat="43.60172" lon="3.40233">
        <ele>128.5</ele>
        <time>2024-07-25T09:07:53Z</time>
      </trkpt>
      <trkpt lat="43.60178" lon="3.40239">
        <ele>127.9</ele>
        <time>2024-07-25T09:07:54Z</time>
      </trkpt>
      <trkpt lat="43.60183" lon="3.40246">
        <ele>127.3</ele>
        <time>2024-07-25T09:07:55Z</time>
      </trkpt>
      <trkpt lat="43.60189" lon="3.40254">
        <ele>126.6</ele>
        <time>2024-07-25T09:07:56Z</time>
      </trkpt>
      <trkpt lat="43.60195" lon="3.40261">
        <ele>126</ele>
        <time>2024-07-25T09:07:57Z</time>
      </trkpt>
      <trkpt lat="43.60201" lon="3.40267">
        <ele>125.5</ele>
        <time>2024-07-25T09:07:58Z</time>
      </trkpt>
      <trkpt lat="43.60207" lon="3.40274">
        <ele>124.8</ele>
        <time>2024-07-25T09:07:59Z</time>
      </trkpt>
      <trkpt lat="43.60211" lon="3.4028">
        <ele>124</ele>
        <time>2024-07-25T09:08:00Z</time>
      </trkpt>
      <trkpt lat="43.60215" lon="3.40288">
        <ele>122.8</ele>
        <time>2024-07-25T09:08:01Z</time>
      </trkpt>
      <trkpt lat="43.60218" lon="3.40298">
        <ele>121.4</ele>
        <time>2024-07-25T09:08:02Z</time>
      </trkpt>
      <trkpt lat="43.6022" lon="3.40309">
        <ele>120.1</ele>
        <time>2024-07-25T09:08:03Z</time>
      </trkpt>
      <trkpt lat="43.60222" lon="3.4032">
        <ele>119</ele>
        <time>2024-07-25T09:08:04Z</time>
      </trkpt>
      <trkpt lat="43.60226" lon="3.4033">
        <ele>118</ele>
        <time>2024-07-25T09:08:05Z</time>
      </trkpt>
      <trkpt lat="43.6023" lon="3.4034">
        <ele>117.2</ele>
        <time>2024-07-25T09:08:06Z</time>
      </trkpt>
      <trkpt lat="43.60233" lon="3.40347">
        <ele>116.7</ele>
        <time>2024-07-25T09:08:07Z</time>
      </trkpt>
      <trkpt lat="43.60237" lon="3.40353">
        <ele>116.2</ele>
        <time>2024-07-25T09:08:08Z</time>
      </trkpt>
      <trkpt lat="43.6024" lon="3.40358">
        <ele>115.8</ele>
        <time>2024-07-25T09:08:09Z</time>
      </trkpt>
      <trkpt lat="43.60243" lon="3.40362">
        <ele>115.5</ele>
        <time>2024-07-25T09:08:10Z</time>
      </trkpt>
      <trkpt lat="43.60244" lon="3.40364">
        <ele>115.6</ele>
        <time>2024-07-25T09:08:11Z</time>
      </trkpt>
      <trkpt lat="43.60245" lon="3.40366">
        <ele>115.6</ele>
        <time>2024-07-25T09:08:12Z</time>
      </trkpt>
      <trkpt lat="43.60245" lon="3.40368">
        <ele>115.7</ele>
        <time>2024-07-25T09:08:13Z</time>
      </trkpt>
      <trkpt lat="43.60246" lon="3.40369">
        <ele>115.7</ele>
        <time>2024-07-25T09:08:14Z</time>
      </trkpt>
      <trkpt lat="43.60247" lon="3.4037">
        <ele>115.7</ele>
        <time>2024-07-25T09:08:15Z</time>
      </trkpt>
      <trkpt lat="43.60247" lon="3.4037">
        <ele>115.7</ele>
        <time>2024-07-25T09:08:16Z</time>
      </trkpt>
      <trkpt lat="43.60247" lon="3.4037">
        <ele>115.7</ele>
        <time>2024-07-25T09:08:17Z</time>
      </trkpt>
      <trkpt lat="43.60246" lon="3.40378">
        <ele>116.2</ele>
        <time>2024-07-25T09:09:19Z</time>
      </trkpt>
      <trkpt lat="43.60245" lon="3.4038">
        <ele>116.2</ele>
        <time>2024-07-25T09:09:20Z</time>
      </trkpt>
      <trkpt lat="43.60243" lon="3.40383">
        <ele>116.3</ele>
        <time>2024-07-25T09:09:21Z</time>
      </trkpt>
      <trkpt lat="43.60242" lon="3.40386">
        <ele>116.3</ele>
        <time>2024-07-25T09:09:22Z</time>
      </trkpt>
      <trkpt lat="43.6024" lon="3.40389">
        <ele>116.3</ele>
        <time>2024-07-25T09:09:23Z</time>
      </trkpt>
      <trkpt lat="43.60239" lon="3.40392">
        <ele>116.3</ele>
        <time>2024-07-25T09:09:24Z</time>
      </trkpt>
      <trkpt lat="43.60237" lon="3.40396">
        <ele>116.2</ele>
        <time>2024-07-25T09:09:25Z</time>
      </trkpt>
      <trkpt lat="43.60235" lon="3.40399">
        <ele>116.1</ele>
        <time>2024-07-25T09:09:26Z</time>
      </trkpt>
      <trkpt lat="43.60233" lon="3.40403">
        <ele>115.9</ele>
        <time>2024-07-25T09:09:27Z</time>
      </trkpt>
      <trkpt lat="43.60231" lon="3.40407">
        <ele>115.6</ele>
        <time>2024-07-25T09:09:28Z</time>
      </trkpt>
      <trkpt lat="43.60229" lon="3.4041">
        <ele>115.3</ele>
        <time>2024-07-25T09:09:29Z</time>
      </trkpt>
      <trkpt lat="43.60226" lon="3.40414">
        <ele>114.7</ele>
        <time>2024-07-25T09:09:30Z</time>
      </trkpt>
      <trkpt lat="43.60224" lon="3.40418">
        <ele>114.3</ele>
        <time>2024-07-25T09:09:31Z</time>
      </trkpt>
      <trkpt lat="43.60221" lon="3.40422">
        <ele>114.1</ele>
        <time>2024-07-25T09:09:32Z</time>
      </trkpt>
      <trkpt lat="43.60218" lon="3.40425">
        <ele>114.3</ele>
        <time>2024-07-25T09:09:33Z</time>
      </trkpt>
      <trkpt lat="43.60215" lon="3.40429">
        <ele>114.4</ele>
        <time>2024-07-25T09:09:34Z</time>
      </trkpt>
      <trkpt lat="43.60212" lon="3.40433">
        <ele>114.5</ele>
        <time>2024-07-25T09:09:35Z</time>
      </trkpt>
      <trkpt lat="43.60209" lon="3.40436">
        <ele>114.6</ele>
        <time>2024-07-25T09:09:36Z</time>
      </trkpt>
      <trkpt lat="43.60206" lon="3.40439">
        <ele>114.7</ele>
        <time>2024-07-25T09:09:37Z</time>
      </trkpt>
      <trkpt lat="43.60204" lon="3.40442">
        <ele>114.7</ele>
        <time>2024-07-25T09:09:38Z</time>
      </trkpt>
      <trkpt lat="43.60201" lon="3.40445">
        <ele>114.8</ele>
        <time>2024-07-25T09:09:39Z</time>
      </trkpt>
      <trkpt lat="43.60198" lon="3.40448">
        <ele>115</ele>
        <time>2024-07-25T09:09:40Z</time>
      </trkpt>
      <trkpt lat="43.60195" lon="3.40452">
        <ele>115.2</ele>
        <time>2024-07-25T09:09:41Z</time>
      </trkpt>
      <trkpt lat="43.60192" lon="3.40455">
        <ele>116.1</ele>
        <time>2024-07-25T09:09:42Z</time>
      </trkpt>
      <trkpt lat="43.60191" lon="3.4046">
        <ele>116.7</ele>
        <time>2024-07-25T09:09:43Z</time>
      </trkpt>
      <trkpt lat="43.60192" lon="3.40466">
        <ele>116.7</ele>
        <time>2024-07-25T09:09:44Z</time>
      </trkpt>
      <trkpt lat="43.60193" lon="3.40473">
        <ele>116.8</ele>
        <time>2024-07-25T09:09:45Z</time>
      </trkpt>
      <trkpt lat="43.60194" lon="3.40478">
        <ele>117.6</ele>
        <time>2024-07-25T09:09:46Z</time>
      </trkpt>
      <trkpt lat="43.60196" lon="3.40483">
        <ele>118.4</ele>
        <time>2024-07-25T09:09:47Z</time>
      </trkpt>
      <trkpt lat="43.60198" lon="3.40487">
        <ele>118.9</ele>
        <time>2024-07-25T09:09:48Z</time>
      </trkpt>
      <trkpt lat="43.602" lon="3.40491">
        <ele>119.3</ele>
        <time>2024-07-25T09:09:49Z</time>
      </trkpt>
      <trkpt lat="43.60202" lon="3.40496">
        <ele>119.6</ele>
        <time>2024-07-25T09:09:50Z</time>
      </trkpt>
      <trkpt lat="43.60205" lon="3.405">
        <ele>119.2</ele>
        <time>2024-07-25T09:09:51Z</time>
      </trkpt>
      <trkpt lat="43.60208" lon="3.40505">
        <ele>118.8</ele>
        <time>2024-07-25T09:09:52Z</time>
      </trkpt>
      <trkpt lat="43.60211" lon="3.4051">
        <ele>118.1</ele>
        <time>2024-07-25T09:09:53Z</time>
      </trkpt>
      <trkpt lat="43.60214" lon="3.40514">
        <ele>117.2</ele>
        <time>2024-07-25T09:09:54Z</time>
      </trkpt>
      <trkpt lat="43.60217" lon="3.40518">
        <ele>116.1</ele>
        <time>2024-07-25T09:09:55Z</time>
      </trkpt>
      <trkpt lat="43.60219" lon="3.40523">
        <ele>115.5</ele>
        <time>2024-07-25T09:09:56Z</time>
      </trkpt>
      <trkpt lat="43.60221" lon="3.40527">
        <ele>114.6</ele>
        <time>2024-07-25T09:09:57Z</time>
      </trkpt>
      <trkpt lat="43.60223" lon="3.40532">
        <ele>114.4</ele>
        <time>2024-07-25T09:09:58Z</time>
      </trkpt>
      <trkpt lat="43.60225" lon="3.40536">
        <ele>114.8</ele>
        <time>2024-07-25T09:09:59Z</time>
      </trkpt>
      <trkpt lat="43.60227" lon="3.4054">
        <ele>115.2</ele>
        <time>2024-07-25T09:10:00Z</time>
      </trkpt>
      <trkpt lat="43.60228" lon="3.40544">
        <ele>115.5</ele>
        <time>2024-07-25T09:10:01Z</time>
      </trkpt>
      <trkpt lat="43.60229" lon="3.40548">
        <ele>115.8</ele>
        <time>2024-07-25T09:10:02Z</time>
      </trkpt>
      <trkpt lat="43.60231" lon="3.40553">
        <ele>116.2</ele>
        <time>2024-07-25T09:10:03Z</time>
      </trkpt>
      <trkpt lat="43.60232" lon="3.40556">
        <ele>116.3</ele>
        <time>2024-07-25T09:10:04Z</time>
      </trkpt>
      <trkpt lat="43.60233" lon="3.4056">
        <ele>116.1</ele>
        <time>2024-07-25T09:10:05Z</time>
      </trkpt>
      <trkpt lat="43.60234" lon="3.40563">
        <ele>115.9</ele>
        <time>2024-07-25T09:10:06Z</time>
      </trkpt>
      <trkpt lat="43.60235" lon="3.40566">
        <ele>115.7</ele>
        <time>2024-07-25T09:10:07Z</time>
      </trkpt>
      <trkpt lat="43.60237" lon="3.40569">
        <ele>115.6</ele>
        <time>2024-07-25T09:10:08Z</time>
      </trkpt>
      <trkpt lat="43.6024" lon="3.40571">
        <ele>115.5</ele>
        <time>2024-07-25T09:10:09Z</time>
      </trkpt>
      <trkpt lat="43.60241" lon="3.40573">
        <ele>115.4</ele>
        <time>2024-07-25T09:10:10Z</time>
      </trkpt>
      <trkpt lat="43.60244" lon="3.40575">
        <ele>115.4</ele>
        <time>2024-07-25T09:10:11Z</time>
      </trkpt>
      <trkpt lat="43.60247" lon="3.40576">
        <ele>115.4</ele>
        <time>2024-07-25T09:10:12Z</time>
      </trkpt>
      <trkpt lat="43.60249" lon="3.40577">
        <ele>115.4</ele>
        <time>2024-07-25T09:10:13Z</time>
      </trkpt>
      <trkpt lat="43.60252" lon="3.40578">
        <ele>115.5</ele>
        <time>2024-07-25T09:10:14Z</time>
      </trkpt>
      <trkpt lat="43.60255" lon="3.40579">
        <ele>115.5</ele>
        <time>2024-07-25T09:10:15Z</time>
      </trkpt>
      <trkpt lat="43.60257" lon="3.40579">
        <ele>115.6</ele>
        <time>2024-07-25T09:10:16Z</time>
      </trkpt>
      <trkpt lat="43.6026" lon="3.4058">
        <ele>115.6</ele>
        <time>2024-07-25T09:10:17Z</time>
      </trkpt>
      <trkpt lat="43.60262" lon="3.40581">
        <ele>115.6</ele>
        <time>2024-07-25T09:10:18Z</time>
      </trkpt>
      <trkpt lat="43.60264" lon="3.40582">
        <ele>115.6</ele>
        <time>2024-07-25T09:10:19Z</time>
      </trkpt>
      <trkpt lat="43.60267" lon="3.40582">
        <ele>115.7</ele>
        <time>2024-07-25T09:10:20Z</time>
      </trkpt>
      <trkpt lat="43.6027" lon="3.40583">
        <ele>115.8</ele>
        <time>2024-07-25T09:10:21Z</time>
      </trkpt>
      <trkpt lat="43.60272" lon="3.40583">
        <ele>115.8</ele>
        <time>2024-07-25T09:10:22Z</time>
      </trkpt>
      <trkpt lat="43.60275" lon="3.40583">
        <ele>115.9</ele>
        <time>2024-07-25T09:10:23Z</time>
      </trkpt>
      <trkpt lat="43.60277" lon="3.40583">
        <ele>116</ele>
        <time>2024-07-25T09:10:24Z</time>
      </trkpt>
      <trkpt lat="43.60279" lon="3.40584">
        <ele>116</ele>
        <time>2024-07-25T09:10:25Z</time>
      </trkpt>
      <trkpt lat="43.60282" lon="3.40584">
        <ele>116.4</ele>
        <time>2024-07-25T09:10:26Z</time>
      </trkpt>
      <trkpt lat="43.60284" lon="3.40583">
        <ele>116.7</ele>
        <time>2024-07-25T09:10:27Z</time>
      </trkpt>
      <trkpt lat="43.60287" lon="3.40582">
        <ele>117.1</ele>
        <time>2024-07-25T09:10:28Z</time>
      </trkpt>
      <trkpt lat="43.60289" lon="3.40582">
        <ele>117.4</ele>
        <time>2024-07-25T09:10:29Z</time>
      </trkpt>
      <trkpt lat="43.60291" lon="3.40582">
        <ele>117.6</ele>
        <time>2024-07-25T09:10:30Z</time>
      </trkpt>
      <trkpt lat="43.60293" lon="3.40582">
        <ele>117.8</ele>
        <time>2024-07-25T09:10:31Z</time>
      </trkpt>
      <trkpt lat="43.60295" lon="3.40582">
        <ele>118</ele>
        <time>2024-07-25T09:10:32Z</time>
      </trkpt>
      <trkpt lat="43.60297" lon="3.40582">
        <ele>118.2</ele>
        <time>2024-07-25T09:10:33Z</time>
      </trkpt>
      <trkpt lat="43.60299" lon="3.40581">
        <ele>118.5</ele>
        <time>2024-07-25T09:10:34Z</time>
      </trkpt>
      <trkpt lat="43.60302" lon="3.40581">
        <ele>118.9</ele>
        <time>2024-07-25T09:10:35Z</time>
      </trkpt>
      <trkpt lat="43.60304" lon="3.40581">
        <ele>119.1</ele>
        <time>2024-07-25T09:10:36Z</time>
      </trkpt>
      <trkpt lat="43.60306" lon="3.4058">
        <ele>119.4</ele>
        <time>2024-07-25T09:10:37Z</time>
      </trkpt>
      <trkpt lat="43.60308" lon="3.4058">
        <ele>119.5</ele>
        <time>2024-07-25T09:10:38Z</time>
      </trkpt>
      <trkpt lat="43.60309" lon="3.40581">
        <ele>119.4</ele>
        <time>2024-07-25T09:10:39Z</time>
      </trkpt>
      <trkpt lat="43.60311" lon="3.40581">
        <ele>119.5</ele>
        <time>2024-07-25T09:10:40Z</time>
      </trkpt>
      <trkpt lat="43.60313" lon="3.40581">
        <ele>119.5</ele>
        <time>2024-07-25T09:10:41Z</time>
      </trkpt>
      <trkpt lat="43.60314" lon="3.4058">
        <ele>119.7</ele>
        <time>2024-07-25T09:10:42Z</time>
      </trkpt>
      <trkpt lat="43.60315" lon="3.4058">
        <ele>119.7</ele>
        <time>2024-07-25T09:10:43Z</time>
      </trkpt>
      <trkpt lat="43.60315" lon="3.40578">
        <ele>120</ele>
        <time>2024-07-25T09:10:44Z</time>
      </trkpt>
      <trkpt lat="43.60316" lon="3.40577">
        <ele>120.1</ele>
        <time>2024-07-25T09:10:45Z</time>
      </trkpt>
      <trkpt lat="43.60315" lon="3.40575">
        <ele>120.3</ele>
        <time>2024-07-25T09:10:46Z</time>
      </trkpt>
      <trkpt lat="43.60314" lon="3.40574">
        <ele>120.4</ele>
        <time>2024-07-25T09:10:47Z</time>
      </trkpt>
      <trkpt lat="43.60312" lon="3.40575">
        <ele>120.2</ele>
        <time>2024-07-25T09:10:48Z</time>
      </trkpt>
      <trkpt lat="43.6031" lon="3.40574">
        <ele>120.2</ele>
        <time>2024-07-25T09:10:49Z</time>
      </trkpt>
      <trkpt lat="43.60308" lon="3.40574">
        <ele>120.1</ele>
        <time>2024-07-25T09:10:50Z</time>
      </trkpt>
      <trkpt lat="43.60306" lon="3.40573">
        <ele>120.1</ele>
        <time>2024-07-25T09:10:51Z</time>
      </trkpt>
      <trkpt lat="43.60304" lon="3.40572">
        <ele>120.1</ele>
        <time>2024-07-25T09:10:52Z</time>
      </trkpt>
      <trkpt lat="43.60303" lon="3.40571">
        <ele>120.1</ele>
        <time>2024-07-25T09:10:53Z</time>
      </trkpt>
      <trkpt lat="43.603" lon="3.40569">
        <ele>119.9</ele>
        <time>2024-07-25T09:10:54Z</time>
      </trkpt>
      <trkpt lat="43.60298" lon="3.40566">
        <ele>120.1</ele>
        <time>2024-07-25T09:10:55Z</time>
      </trkpt>
      <trkpt lat="43.60296" lon="3.40563">
        <ele>120.2</ele>
        <time>2024-07-25T09:10:56Z</time>
      </trkpt>
      <trkpt lat="43.60295" lon="3.40561">
        <ele>120.3</ele>
        <time>2024-07-25T09:10:57Z</time>
      </trkpt>
      <trkpt lat="43.60293" lon="3.40559">
        <ele>120.3</ele>
        <time>2024-07-25T09:10:58Z</time>
      </trkpt>
      <trkpt lat="43.60293" lon="3.40557">
        <ele>120.5</ele>
        <time>2024-07-25T09:10:59Z</time>
      </trkpt>
      <trkpt lat="43.60292" lon="3.40555">
        <ele>120.6</ele>
        <time>2024-07-25T09:11:00Z</time>
      </trkpt>
      <trkpt lat="43.60291" lon="3.40552">
        <ele>120.7</ele>
        <time>2024-07-25T09:11:01Z</time>
      </trkpt>
      <trkpt lat="43.6029" lon="3.4055">
        <ele>120.8</ele>
        <time>2024-07-25T09:11:02Z</time>
      </trkpt>
      <trkpt lat="43.60289" lon="3.40549">
        <ele>120.8</ele>
        <time>2024-07-25T09:11:03Z</time>
      </trkpt>
      <trkpt lat="43.60287" lon="3.40546">
        <ele>120.8</ele>
        <time>2024-07-25T09:11:04Z</time>
      </trkpt>
      <trkpt lat="43.60286" lon="3.40544">
        <ele>120.8</ele>
        <time>2024-07-25T09:11:05Z</time>
      </trkpt>
      <trkpt lat="43.60285" lon="3.40541">
        <ele>121</ele>
        <time>2024-07-25T09:11:06Z</time>
      </trkpt>
      <trkpt lat="43.60285" lon="3.40539">
        <ele>121.1</ele>
        <time>2024-07-25T09:11:07Z</time>
      </trkpt>
      <trkpt lat="43.60285" lon="3.40537">
        <ele>121.3</ele>
        <time>2024-07-25T09:11:08Z</time>
      </trkpt>
      <trkpt lat="43.60285" lon="3.40535">
        <ele>121.5</ele>
        <time>2024-07-25T09:11:09Z</time>
      </trkpt>
      <trkpt lat="43.60286" lon="3.40533">
        <ele>121.8</ele>
        <time>2024-07-25T09:11:10Z</time>
      </trkpt>
      <trkpt lat="43.60288" lon="3.40532">
        <ele>122.1</ele>
        <time>2024-07-25T09:11:11Z</time>
      </trkpt>
      <trkpt lat="43.60289" lon="3.4053">
        <ele>122.4</ele>
        <time>2024-07-25T09:11:12Z</time>
      </trkpt>
      <trkpt lat="43.60291" lon="3.40528">
        <ele>122.9</ele>
        <time>2024-07-25T09:11:13Z</time>
      </trkpt>
      <trkpt lat="43.60292" lon="3.40525">
        <ele>123.4</ele>
        <time>2024-07-25T09:11:14Z</time>
      </trkpt>
      <trkpt lat="43.60293" lon="3.40522">
        <ele>123.9</ele>
        <time>2024-07-25T09:11:15Z</time>
      </trkpt>
      <trkpt lat="43.60294" lon="3.40519">
        <ele>124.4</ele>
        <time>2024-07-25T09:11:16Z</time>
      </trkpt>
      <trkpt lat="43.60294" lon="3.40516">
        <ele>124.8</ele>
        <time>2024-07-25T09:11:17Z</time>
      </trkpt>
      <trkpt lat="43.60294" lon="3.40513">
        <ele>125.2</ele>
        <time>2024-07-25T09:11:18Z</time>
      </trkpt>
      <trkpt lat="43.60294" lon="3.40511">
        <ele>125.4</ele>
        <time>2024-07-25T09:11:19Z</time>
      </trkpt>
      <trkpt lat="43.60295" lon="3.40508">
        <ele>125.9</ele>
        <time>2024-07-25T09:11:20Z</time>
      </trkpt>
      <trkpt lat="43.60295" lon="3.40506">
        <ele>126.1</ele>
        <time>2024-07-25T09:11:21Z</time>
      </trkpt>
      <trkpt lat="43.60296" lon="3.40503">
        <ele>126.6</ele>
        <time>2024-07-25T09:11:22Z</time>
      </trkpt>
      <trkpt lat="43.60296" lon="3.405">
        <ele>127</ele>
        <time>2024-07-25T09:11:23Z</time>
      </trkpt>
      <trkpt lat="43.60297" lon="3.40497">
        <ele>127.3</ele>
        <time>2024-07-25T09:11:24Z</time>
      </trkpt>
      <trkpt lat="43.60297" lon="3.40494">
        <ele>127.6</ele>
        <time>2024-07-25T09:11:25Z</time>
      </trkpt>
      <trkpt lat="43.60297" lon="3.40492">
        <ele>127.8</ele>
        <time>2024-07-25T09:11:26Z</time>
      </trkpt>
      <trkpt lat="43.60297" lon="3.40488">
        <ele>128.1</ele>
        <time>2024-07-25T09:11:27Z</time>
      </trkpt>
      <trkpt lat="43.60297" lon="3.40486">
        <ele>128.3</ele>
        <time>2024-07-25T09:11:28Z</time>
      </trkpt>
      <trkpt lat="43.60298" lon="3.40483">
        <ele>128.7</ele>
        <time>2024-07-25T09:11:29Z</time>
      </trkpt>
      <trkpt lat="43.60298" lon="3.4048">
        <ele>129</ele>
        <time>2024-07-25T09:11:30Z</time>
      </trkpt>
      <trkpt lat="43.60299" lon="3.40477">
        <ele>129.4</ele>
        <time>2024-07-25T09:11:31Z</time>
      </trkpt>
      <trkpt lat="43.60299" lon="3.40474">
        <ele>129.7</ele>
        <time>2024-07-25T09:11:32Z</time>
      </trkpt>
      <trkpt lat="43.60299" lon="3.40472">
        <ele>129.8</ele>
        <time>2024-07-25T09:11:33Z</time>
      </trkpt>
      <trkpt lat="43.603" lon="3.40468">
        <ele>130</ele>
        <time>2024-07-25T09:11:34Z</time>
      </trkpt>
      <trkpt lat="43.60301" lon="3.40462">
        <ele>130.2</ele>
        <time>2024-07-25T09:11:35Z</time>
      </trkpt>
      <trkpt lat="43.60301" lon="3.40457">
        <ele>130.2</ele>
        <time>2024-07-25T09:11:36Z</time>
      </trkpt>
      <trkpt lat="43.60302" lon="3.40452">
        <ele>130.4</ele>
        <time>2024-07-25T09:11:37Z</time>
      </trkpt>
      <trkpt lat="43.60302" lon="3.40447">
        <ele>130.4</ele>
        <time>2024-07-25T09:11:38Z</time>
      </trkpt>
      <trkpt lat="43.60302" lon="3.40442">
        <ele>130.3</ele>
        <time>2024-07-25T09:11:39Z</time>
      </trkpt>
      <trkpt lat="43.60302" lon="3.40437">
        <ele>130.3</ele>
        <time>2024-07-25T09:11:40Z</time>
      </trkpt>
      <trkpt lat="43.60303" lon="3.40432">
        <ele>130.5</ele>
        <time>2024-07-25T09:11:41Z</time>
      </trkpt>
      <trkpt lat="43.60303" lon="3.40428">
        <ele>130.5</ele>
        <time>2024-07-25T09:11:42Z</time>
      </trkpt>
      <trkpt lat="43.60305" lon="3.40424">
        <ele>130.9</ele>
        <time>2024-07-25T09:11:43Z</time>
      </trkpt>
      <trkpt lat="43.60306" lon="3.4042">
        <ele>131.2</ele>
        <time>2024-07-25T09:11:44Z</time>
      </trkpt>
      <trkpt lat="43.60307" lon="3.40416">
        <ele>131.6</ele>
        <time>2024-07-25T09:11:45Z</time>
      </trkpt>
      <trkpt lat="43.60309" lon="3.40412">
        <ele>132.2</ele>
        <time>2024-07-25T09:11:46Z</time>
      </trkpt>
      <trkpt lat="43.6031" lon="3.4041">
        <ele>132.4</ele>
        <time>2024-07-25T09:11:47Z</time>
      </trkpt>
      <trkpt lat="43.60311" lon="3.40407">
        <ele>132.7</ele>
        <time>2024-07-25T09:11:48Z</time>
      </trkpt>
      <trkpt lat="43.60312" lon="3.40404">
        <ele>132.9</ele>
        <time>2024-07-25T09:11:49Z</time>
      </trkpt>
      <trkpt lat="43.60313" lon="3.40401">
        <ele>133.1</ele>
        <time>2024-07-25T09:11:50Z</time>
      </trkpt>
      <trkpt lat="43.60315" lon="3.40397">
        <ele>133.7</ele>
        <time>2024-07-25T09:11:51Z</time>
      </trkpt>
      <trkpt lat="43.60316" lon="3.40393">
        <ele>133.8</ele>
        <time>2024-07-25T09:11:52Z</time>
      </trkpt>
      <trkpt lat="43.60317" lon="3.40389">
        <ele>134</ele>
        <time>2024-07-25T09:11:53Z</time>
      </trkpt>
      <trkpt lat="43.60318" lon="3.40386">
        <ele>134.1</ele>
        <time>2024-07-25T09:11:54Z</time>
      </trkpt>
      <trkpt lat="43.60319" lon="3.40381">
        <ele>134</ele>
        <time>2024-07-25T09:11:55Z</time>
      </trkpt>
      <trkpt lat="43.60319" lon="3.40376">
        <ele>133.4</ele>
        <time>2024-07-25T09:11:56Z</time>
      </trkpt>
      <trkpt lat="43.60321" lon="3.40371">
        <ele>133.7</ele>
        <time>2024-07-25T09:11:57Z</time>
      </trkpt>
      <trkpt lat="43.60322" lon="3.40367">
        <ele>133.6</ele>
        <time>2024-07-25T09:11:58Z</time>
      </trkpt>
      <trkpt lat="43.60324" lon="3.40362">
        <ele>133.7</ele>
        <time>2024-07-25T09:11:59Z</time>
      </trkpt>
      <trkpt lat="43.60326" lon="3.40358">
        <ele>133.7</ele>
        <time>2024-07-25T09:12:00Z</time>
      </trkpt>
      <trkpt lat="43.60327" lon="3.40354">
        <ele>133.3</ele>
        <time>2024-07-25T09:12:01Z</time>
      </trkpt>
      <trkpt lat="43.60329" lon="3.4035">
        <ele>133.2</ele>
        <time>2024-07-25T09:12:02Z</time>
      </trkpt>
      <trkpt lat="43.6033" lon="3.40345">
        <ele>132.5</ele>
        <time>2024-07-25T09:12:03Z</time>
      </trkpt>
      <trkpt lat="43.60333" lon="3.4034">
        <ele>132.3</ele>
        <time>2024-07-25T09:12:04Z</time>
      </trkpt>
      <trkpt lat="43.60335" lon="3.40336">
        <ele>132.5</ele>
        <time>2024-07-25T09:12:05Z</time>
      </trkpt>
      <trkpt lat="43.60337" lon="3.40333">
        <ele>133</ele>
        <time>2024-07-25T09:12:06Z</time>
      </trkpt>
      <trkpt lat="43.60339" lon="3.40331">
        <ele>133.7</ele>
        <time>2024-07-25T09:12:07Z</time>
      </trkpt>
      <trkpt lat="43.6034" lon="3.40328">
        <ele>133.4</ele>
        <time>2024-07-25T09:12:08Z</time>
      </trkpt>
      <trkpt lat="43.60341" lon="3.40327">
        <ele>133.8</ele>
        <time>2024-07-25T09:12:09Z</time>
      </trkpt>
      <trkpt lat="43.60342" lon="3.40324">
        <ele>133.5</ele>
        <time>2024-07-25T09:12:10Z</time>
      </trkpt>
      <trkpt lat="43.60344" lon="3.40322">
        <ele>134.1</ele>
        <time>2024-07-25T09:12:11Z</time>
      </trkpt>
      <trkpt lat="43.60345" lon="3.40319">
        <ele>133.9</ele>
        <time>2024-07-25T09:12:12Z</time>
      </trkpt>
      <trkpt lat="43.60346" lon="3.40316">
        <ele>133.6</ele>
        <time>2024-07-25T09:12:13Z</time>
      </trkpt>
      <trkpt lat="43.60347" lon="3.40312">
        <ele>133.1</ele>
        <time>2024-07-25T09:12:14Z</time>
      </trkpt>
      <trkpt lat="43.60348" lon="3.40309">
        <ele>132.9</ele>
        <time>2024-07-25T09:12:15Z</time>
      </trkpt>
      <trkpt lat="43.60349" lon="3.40305">
        <ele>132.3</ele>
        <time>2024-07-25T09:12:16Z</time>
      </trkpt>
      <trkpt lat="43.60351" lon="3.403">
        <ele>131.9</ele>
        <time>2024-07-25T09:12:17Z</time>
      </trkpt>
      <trkpt lat="43.60354" lon="3.40296">
        <ele>132.2</ele>
        <time>2024-07-25T09:12:18Z</time>
      </trkpt>
      <trkpt lat="43.60355" lon="3.40292">
        <ele>131.4</ele>
        <time>2024-07-25T09:12:19Z</time>
      </trkpt>
      <trkpt lat="43.60357" lon="3.40289">
        <ele>131.3</ele>
        <time>2024-07-25T09:12:20Z</time>
      </trkpt>
      <trkpt lat="43.60358" lon="3.40286">
        <ele>130.7</ele>
        <time>2024-07-25T09:12:21Z</time>
      </trkpt>
      <trkpt lat="43.60361" lon="3.40283">
        <ele>130.8</ele>
        <time>2024-07-25T09:12:22Z</time>
      </trkpt>
      <trkpt lat="43.60363" lon="3.4028">
        <ele>131</ele>
        <time>2024-07-25T09:12:23Z</time>
      </trkpt>
      <trkpt lat="43.60365" lon="3.40277">
        <ele>131.1</ele>
        <time>2024-07-25T09:12:24Z</time>
      </trkpt>
      <trkpt lat="43.60367" lon="3.40273">
        <ele>130.9</ele>
        <time>2024-07-25T09:12:25Z</time>
      </trkpt>
      <trkpt lat="43.60369" lon="3.4027">
        <ele>131.1</ele>
        <time>2024-07-25T09:12:26Z</time>
      </trkpt>
      <trkpt lat="43.60372" lon="3.40266">
        <ele>131.3</ele>
        <time>2024-07-25T09:12:27Z</time>
      </trkpt>
      <trkpt lat="43.60373" lon="3.40261">
        <ele>130.1</ele>
        <time>2024-07-25T09:12:28Z</time>
      </trkpt>
      <trkpt lat="43.60375" lon="3.40257">
        <ele>129.6</ele>
        <time>2024-07-25T09:12:29Z</time>
      </trkpt>
      <trkpt lat="43.60377" lon="3.40253">
        <ele>129.2</ele>
        <time>2024-07-25T09:12:30Z</time>
      </trkpt>
      <trkpt lat="43.60379" lon="3.40247">
        <ele>128.5</ele>
        <time>2024-07-25T09:12:31Z</time>
      </trkpt>
      <trkpt lat="43.60382" lon="3.40241">
        <ele>128.7</ele>
        <time>2024-07-25T09:12:32Z</time>
      </trkpt>
      <trkpt lat="43.60383" lon="3.40236">
        <ele>128</ele>
        <time>2024-07-25T09:12:33Z</time>
      </trkpt>
      <trkpt lat="43.60383" lon="3.40231">
        <ele>126.9</ele>
        <time>2024-07-25T09:12:34Z</time>
      </trkpt>
      <trkpt lat="43.60384" lon="3.40227">
        <ele>126.2</ele>
        <time>2024-07-25T09:12:35Z</time>
      </trkpt>
      <trkpt lat="43.60384" lon="3.40223">
        <ele>125.3</ele>
        <time>2024-07-25T09:12:36Z</time>
      </trkpt>
      <trkpt lat="43.60385" lon="3.40219">
        <ele>124.9</ele>
        <time>2024-07-25T09:12:37Z</time>
      </trkpt>
      <trkpt lat="43.60386" lon="3.40214">
        <ele>124.4</ele>
        <time>2024-07-25T09:12:38Z</time>
      </trkpt>
      <trkpt lat="43.60387" lon="3.40209">
        <ele>123.9</ele>
        <time>2024-07-25T09:12:39Z</time>
      </trkpt>
      <trkpt lat="43.60388" lon="3.40205">
        <ele>123.4</ele>
        <time>2024-07-25T09:12:40Z</time>
      </trkpt>
      <trkpt lat="43.6039" lon="3.402">
        <ele>123.4</ele>
        <time>2024-07-25T09:12:41Z</time>
      </trkpt>
      <trkpt lat="43.60391" lon="3.40196">
        <ele>123.4</ele>
        <time>2024-07-25T09:12:42Z</time>
      </trkpt>
      <trkpt lat="43.60393" lon="3.40191">
        <ele>124.1</ele>
        <time>2024-07-25T09:12:43Z</time>
      </trkpt>
      <trkpt lat="43.60394" lon="3.40186">
        <ele>124.4</ele>
        <time>2024-07-25T09:12:44Z</time>
      </trkpt>
      <trkpt lat="43.60395" lon="3.40181">
        <ele>124.7</ele>
        <time>2024-07-25T09:12:45Z</time>
      </trkpt>
      <trkpt lat="43.60397" lon="3.40175">
        <ele>125.2</ele>
        <time>2024-07-25T09:12:46Z</time>
      </trkpt>
      <trkpt lat="43.60399" lon="3.40168">
        <ele>125.4</ele>
        <time>2024-07-25T09:12:47Z</time>
      </trkpt>
      <trkpt lat="43.604" lon="3.40162">
        <ele>125.3</ele>
        <time>2024-07-25T09:12:48Z</time>
      </trkpt>
      <trkpt lat="43.60402" lon="3.40157">
        <ele>125.4</ele>
        <time>2024-07-25T09:12:49Z</time>
      </trkpt>
      <trkpt lat="43.60404" lon="3.40153">
        <ele>125.6</ele>
        <time>2024-07-25T09:12:50Z</time>
      </trkpt>
      <trkpt lat="43.60405" lon="3.40149">
        <ele>125.4</ele>
        <time>2024-07-25T09:12:51Z</time>
      </trkpt>
      <trkpt lat="43.60407" lon="3.40147">
        <ele>125.6</ele>
        <time>2024-07-25T09:12:52Z</time>
      </trkpt>
      <trkpt lat="43.60409" lon="3.40144">
        <ele>125.6</ele>
        <time>2024-07-25T09:12:53Z</time>
      </trkpt>
      <trkpt lat="43.60411" lon="3.40142">
        <ele>125.6</ele>
        <time>2024-07-25T09:12:54Z</time>
      </trkpt>
      <trkpt lat="43.60413" lon="3.40138">
        <ele>125.5</ele>
        <time>2024-07-25T09:12:55Z</time>
      </trkpt>
      <trkpt lat="43.60414" lon="3.40133">
        <ele>125.6</ele>
        <time>2024-07-25T09:12:56Z</time>
      </trkpt>
      <trkpt lat="43.60415" lon="3.40127">
        <ele>125.8</ele>
        <time>2024-07-25T09:12:57Z</time>
      </trkpt>
      <trkpt lat="43.60414" lon="3.40122">
        <ele>125.7</ele>
        <time>2024-07-25T09:12:58Z</time>
      </trkpt>
      <trkpt lat="43.60413" lon="3.40118">
        <ele>125.6</ele>
        <time>2024-07-25T09:12:59Z</time>
      </trkpt>
      <trkpt lat="43.60412" lon="3.40115">
        <ele>125.5</ele>
        <time>2024-07-25T09:13:00Z</time>
      </trkpt>
      <trkpt lat="43.60411" lon="3.40111">
        <ele>125.4</ele>
        <time>2024-07-25T09:13:01Z</time>
      </trkpt>
      <trkpt lat="43.6041" lon="3.40108">
        <ele>125.7</ele>
        <time>2024-07-25T09:13:02Z</time>
      </trkpt>
      <trkpt lat="43.60408" lon="3.40105">
        <ele>125.8</ele>
        <time>2024-07-25T09:13:03Z</time>
      </trkpt>
      <trkpt lat="43.60404" lon="3.40104">
        <ele>125.4</ele>
        <time>2024-07-25T09:13:04Z</time>
      </trkpt>
      <trkpt lat="43.60401" lon="3.40104">
        <ele>125</ele>
        <time>2024-07-25T09:13:05Z</time>
      </trkpt>
      <trkpt lat="43.60398" lon="3.40106">
        <ele>124.5</ele>
        <time>2024-07-25T09:13:06Z</time>
      </trkpt>
      <trkpt lat="43.60395" lon="3.40107">
        <ele>124</ele>
        <time>2024-07-25T09:13:07Z</time>
      </trkpt>
      <trkpt lat="43.60391" lon="3.40108">
        <ele>123.5</ele>
        <time>2024-07-25T09:13:08Z</time>
      </trkpt>
      <trkpt lat="43.60388" lon="3.40109">
        <ele>123.2</ele>
        <time>2024-07-25T09:13:09Z</time>
      </trkpt>
      <trkpt lat="43.60384" lon="3.4011">
        <ele>123.4</ele>
        <time>2024-07-25T09:13:10Z</time>
      </trkpt>
      <trkpt lat="43.60381" lon="3.40112">
        <ele>123.5</ele>
        <time>2024-07-25T09:13:11Z</time>
      </trkpt>
      <trkpt lat="43.60378" lon="3.40113">
        <ele>123.7</ele>
        <time>2024-07-25T09:13:12Z</time>
      </trkpt>
      <trkpt lat="43.60376" lon="3.40114">
        <ele>123.8</ele>
        <time>2024-07-25T09:13:13Z</time>
      </trkpt>
      <trkpt lat="43.60374" lon="3.40113">
        <ele>124</ele>
        <time>2024-07-25T09:13:14Z</time>
      </trkpt>
      <trkpt lat="43.60373" lon="3.40111">
        <ele>124.2</ele>
        <time>2024-07-25T09:13:15Z</time>
      </trkpt>
      <trkpt lat="43.60371" lon="3.40108">
        <ele>124.5</ele>
        <time>2024-07-25T09:13:16Z</time>
      </trkpt>
      <trkpt lat="43.60369" lon="3.40104">
        <ele>124.9</ele>
        <time>2024-07-25T09:13:17Z</time>
      </trkpt>
      <trkpt lat="43.60368" lon="3.40101">
        <ele>125.2</ele>
        <time>2024-07-25T09:13:18Z</time>
      </trkpt>
      <trkpt lat="43.60368" lon="3.40099">
        <ele>125.4</ele>
        <time>2024-07-25T09:13:19Z</time>
      </trkpt>
      <trkpt lat="43.60368" lon="3.40096">
        <ele>125.6</ele>
        <time>2024-07-25T09:13:20Z</time>
      </trkpt>
      <trkpt lat="43.60368" lon="3.40093">
        <ele>125.8</ele>
        <time>2024-07-25T09:13:21Z</time>
      </trkpt>
      <trkpt lat="43.60367" lon="3.40089">
        <ele>126.2</ele>
        <time>2024-07-25T09:13:22Z</time>
      </trkpt>
      <trkpt lat="43.60367" lon="3.40086">
        <ele>126.4</ele>
        <time>2024-07-25T09:13:23Z</time>
      </trkpt>
      <trkpt lat="43.60367" lon="3.40084">
        <ele>126.5</ele>
        <time>2024-07-25T09:13:24Z</time>
      </trkpt>
      <trkpt lat="43.60367" lon="3.40081">
        <ele>126.7</ele>
        <time>2024-07-25T09:13:25Z</time>
      </trkpt>
      <trkpt lat="43.60367" lon="3.4008">
        <ele>126.7</ele>
        <time>2024-07-25T09:13:26Z</time>
      </trkpt>
      <trkpt lat="43.60366" lon="3.40079">
        <ele>126.8</ele>
        <time>2024-07-25T09:13:27Z</time>
      </trkpt>
      <trkpt lat="43.60366" lon="3.40077">
        <ele>126.9</ele>
        <time>2024-07-25T09:13:28Z</time>
      </trkpt>
      <trkpt lat="43.60366" lon="3.40076">
        <ele>126.9</ele>
        <time>2024-07-25T09:13:29Z</time>
      </trkpt>
      <trkpt lat="43.60367" lon="3.40074">
        <ele>126.9</ele>
        <time>2024-07-25T09:13:30Z</time>
      </trkpt>
      <trkpt lat="43.60368" lon="3.40072">
        <ele>126.9</ele>
        <time>2024-07-25T09:13:31Z</time>
      </trkpt>
      <trkpt lat="43.60368" lon="3.4007">
        <ele>127</ele>
        <time>2024-07-25T09:13:32Z</time>
      </trkpt>
      <trkpt lat="43.60368" lon="3.40068">
        <ele>127.1</ele>
        <time>2024-07-25T09:13:33Z</time>
      </trkpt>
      <trkpt lat="43.60369" lon="3.40066">
        <ele>127.1</ele>
        <time>2024-07-25T09:13:34Z</time>
      </trkpt>
      <trkpt lat="43.60369" lon="3.40063">
        <ele>127.2</ele>
        <time>2024-07-25T09:13:35Z</time>
      </trkpt>
      <trkpt lat="43.60369" lon="3.40061">
        <ele>127.2</ele>
        <time>2024-07-25T09:13:36Z</time>
      </trkpt>
      <trkpt lat="43.60369" lon="3.4006">
        <ele>127.3</ele>
        <time>2024-07-25T09:13:37Z</time>
      </trkpt>
      <trkpt lat="43.60369" lon="3.40059">
        <ele>127.3</ele>
        <time>2024-07-25T09:13:38Z</time>
      </trkpt>
      <trkpt lat="43.60374" lon="3.40044">
        <ele>127.5</ele>
        <time>2024-07-25T09:14:00Z</time>
      </trkpt>
      <trkpt lat="43.60372" lon="3.40042">
        <ele>127.7</ele>
        <time>2024-07-25T09:14:01Z</time>
      </trkpt>
      <trkpt lat="43.60372" lon="3.40038">
        <ele>127.8</ele>
        <time>2024-07-25T09:14:02Z</time>
      </trkpt>
      <trkpt lat="43.60372" lon="3.40034">
        <ele>128</ele>
        <time>2024-07-25T09:14:03Z</time>
      </trkpt>
      <trkpt lat="43.60372" lon="3.4003">
        <ele>128.1</ele>
        <time>2024-07-25T09:14:04Z</time>
      </trkpt>
      <trkpt lat="43.60372" lon="3.40027">
        <ele>128.3</ele>
        <time>2024-07-25T09:14:05Z</time>
      </trkpt>
      <trkpt lat="43.60371" lon="3.40025">
        <ele>128.4</ele>
        <time>2024-07-25T09:14:06Z</time>
      </trkpt>
      <trkpt lat="43.6037" lon="3.40023">
        <ele>128.6</ele>
        <time>2024-07-25T09:14:07Z</time>
      </trkpt>
      <trkpt lat="43.6037" lon="3.40021">
        <ele>128.7</ele>
        <time>2024-07-25T09:14:08Z</time>
      </trkpt>
      <trkpt lat="43.60369" lon="3.40019">
        <ele>128.9</ele>
        <time>2024-07-25T09:14:09Z</time>
      </trkpt>
      <trkpt lat="43.60368" lon="3.40018">
        <ele>129</ele>
        <time>2024-07-25T09:14:10Z</time>
      </trkpt>
      <trkpt lat="43.60368" lon="3.40016">
        <ele>129.1</ele>
        <time>2024-07-25T09:14:11Z</time>
      </trkpt>
      <trkpt lat="43.60368" lon="3.40014">
        <ele>129.2</ele>
        <time>2024-07-25T09:14:12Z</time>
      </trkpt>
      <trkpt lat="43.60368" lon="3.40014">
        <ele>129.2</ele>
        <time>2024-07-25T09:14:13Z</time>
      </trkpt>
      <trkpt lat="43.60368" lon="3.40014">
        <ele>129.2</ele>
        <time>2024-07-25T09:14:14Z</time>
      </trkpt>
      <trkpt lat="43.60368" lon="3.40007">
        <ele>129.6</ele>
        <time>2024-07-25T09:14:17Z</time>
      </trkpt>
      <trkpt lat="43.60368" lon="3.40001">
        <ele>130</ele>
        <time>2024-07-25T09:14:18Z</time>
      </trkpt>
      <trkpt lat="43.60369" lon="3.39997">
        <ele>130</ele>
        <time>2024-07-25T09:14:19Z</time>
      </trkpt>
      <trkpt lat="43.60369" lon="3.39992">
        <ele>130.2</ele>
        <time>2024-07-25T09:14:20Z</time>
      </trkpt>
      <trkpt lat="43.60369" lon="3.39987">
        <ele>130.3</ele>
        <time>2024-07-25T09:14:21Z</time>
      </trkpt>
      <trkpt lat="43.6037" lon="3.39981">
        <ele>130.4</ele>
        <time>2024-07-25T09:14:22Z</time>
      </trkpt>
      <trkpt lat="43.6037" lon="3.39975">
        <ele>130.6</ele>
        <time>2024-07-25T09:14:23Z</time>
      </trkpt>
      <trkpt lat="43.60371" lon="3.3997">
        <ele>130.7</ele>
        <time>2024-07-25T09:14:24Z</time>
      </trkpt>
      <trkpt lat="43.60372" lon="3.39965">
        <ele>130.7</ele>
        <time>2024-07-25T09:14:25Z</time>
      </trkpt>
      <trkpt lat="43.60373" lon="3.3996">
        <ele>130.8</ele>
        <time>2024-07-25T09:14:26Z</time>
      </trkpt>
      <trkpt lat="43.60374" lon="3.39956">
        <ele>130.8</ele>
        <time>2024-07-25T09:14:27Z</time>
      </trkpt>
      <trkpt lat="43.60374" lon="3.39952">
        <ele>130.9</ele>
        <time>2024-07-25T09:14:28Z</time>
      </trkpt>
      <trkpt lat="43.60375" lon="3.39947">
        <ele>130.9</ele>
        <time>2024-07-25T09:14:29Z</time>
      </trkpt>
      <trkpt lat="43.60375" lon="3.39942">
        <ele>131.1</ele>
        <time>2024-07-25T09:14:30Z</time>
      </trkpt>
      <trkpt lat="43.60376" lon="3.39937">
        <ele>131.2</ele>
        <time>2024-07-25T09:14:31Z</time>
      </trkpt>
      <trkpt lat="43.60378" lon="3.39933">
        <ele>130.9</ele>
        <time>2024-07-25T09:14:32Z</time>
      </trkpt>
      <trkpt lat="43.60378" lon="3.39928">
        <ele>131.2</ele>
        <time>2024-07-25T09:14:33Z</time>
      </trkpt>
      <trkpt lat="43.60379" lon="3.39923">
        <ele>131.2</ele>
        <time>2024-07-25T09:14:34Z</time>
      </trkpt>
      <trkpt lat="43.60379" lon="3.3992">
        <ele>131.3</ele>
        <time>2024-07-25T09:14:35Z</time>
      </trkpt>
      <trkpt lat="43.60379" lon="3.39915">
        <ele>131.7</ele>
        <time>2024-07-25T09:14:36Z</time>
      </trkpt>
      <trkpt lat="43.6038" lon="3.39912">
        <ele>131.7</ele>
        <time>2024-07-25T09:14:37Z</time>
      </trkpt>
      <trkpt lat="43.60381" lon="3.39909">
        <ele>131.8</ele>
        <time>2024-07-25T09:14:38Z</time>
      </trkpt>
      <trkpt lat="43.60381" lon="3.39905">
        <ele>132.2</ele>
        <time>2024-07-25T09:14:39Z</time>
      </trkpt>
      <trkpt lat="43.60381" lon="3.39901">
        <ele>132.7</ele>
        <time>2024-07-25T09:14:40Z</time>
      </trkpt>
      <trkpt lat="43.60382" lon="3.39897">
        <ele>132.9</ele>
        <time>2024-07-25T09:14:41Z</time>
      </trkpt>
      <trkpt lat="43.60383" lon="3.39894">
        <ele>132.9</ele>
        <time>2024-07-25T09:14:42Z</time>
      </trkpt>
      <trkpt lat="43.60383" lon="3.3989">
        <ele>133.4</ele>
        <time>2024-07-25T09:14:43Z</time>
      </trkpt>
      <trkpt lat="43.60383" lon="3.39886">
        <ele>133.6</ele>
        <time>2024-07-25T09:14:44Z</time>
      </trkpt>
      <trkpt lat="43.60382" lon="3.39883">
        <ele>133.9</ele>
        <time>2024-07-25T09:14:45Z</time>
      </trkpt>
      <trkpt lat="43.60382" lon="3.39879">
        <ele>134</ele>
        <time>2024-07-25T09:14:46Z</time>
      </trkpt>
      <trkpt lat="43.60382" lon="3.39875">
        <ele>134.1</ele>
        <time>2024-07-25T09:14:47Z</time>
      </trkpt>
      <trkpt lat="43.60382" lon="3.39872">
        <ele>134.2</ele>
        <time>2024-07-25T09:14:48Z</time>
      </trkpt>
      <trkpt lat="43.60381" lon="3.39868">
        <ele>134.5</ele>
        <time>2024-07-25T09:14:49Z</time>
      </trkpt>
      <trkpt lat="43.60381" lon="3.39864">
        <ele>134.6</ele>
        <time>2024-07-25T09:14:50Z</time>
      </trkpt>
      <trkpt lat="43.60382" lon="3.3986">
        <ele>134.5</ele>
        <time>2024-07-25T09:14:51Z</time>
      </trkpt>
      <trkpt lat="43.60381" lon="3.39857">
        <ele>134.9</ele>
        <time>2024-07-25T09:14:52Z</time>
      </trkpt>
      <trkpt lat="43.60381" lon="3.39853">
        <ele>135.1</ele>
        <time>2024-07-25T09:14:53Z</time>
      </trkpt>
      <trkpt lat="43.6038" lon="3.3985">
        <ele>135.4</ele>
        <time>2024-07-25T09:14:54Z</time>
      </trkpt>
      <trkpt lat="43.6038" lon="3.39846">
        <ele>135.6</ele>
        <time>2024-07-25T09:14:55Z</time>
      </trkpt>
      <trkpt lat="43.60379" lon="3.39843">
        <ele>136</ele>
        <time>2024-07-25T09:14:56Z</time>
      </trkpt>
      <trkpt lat="43.60379" lon="3.39839">
        <ele>136.2</ele>
        <time>2024-07-25T09:14:57Z</time>
      </trkpt>
      <trkpt lat="43.60378" lon="3.39835">
        <ele>136.7</ele>
        <time>2024-07-25T09:14:58Z</time>
      </trkpt>
      <trkpt lat="43.60378" lon="3.39831">
        <ele>136.8</ele>
        <time>2024-07-25T09:14:59Z</time>
      </trkpt>
      <trkpt lat="43.60377" lon="3.39828">
        <ele>137.2</ele>
        <time>2024-07-25T09:15:00Z</time>
      </trkpt>
      <trkpt lat="43.60377" lon="3.39825">
        <ele>137.3</ele>
        <time>2024-07-25T09:15:01Z</time>
      </trkpt>
      <trkpt lat="43.60376" lon="3.39822">
        <ele>137.7</ele>
        <time>2024-07-25T09:15:02Z</time>
      </trkpt>
      <trkpt lat="43.60375" lon="3.39818">
        <ele>138.1</ele>
        <time>2024-07-25T09:15:03Z</time>
      </trkpt>
      <trkpt lat="43.60374" lon="3.39815">
        <ele>138.4</ele>
        <time>2024-07-25T09:15:04Z</time>
      </trkpt>
      <trkpt lat="43.60373" lon="3.39811">
        <ele>138.8</ele>
        <time>2024-07-25T09:15:05Z</time>
      </trkpt>
      <trkpt lat="43.60374" lon="3.39806">
        <ele>138.7</ele>
        <time>2024-07-25T09:15:06Z</time>
      </trkpt>
      <trkpt lat="43.60375" lon="3.39802">
        <ele>138.7</ele>
        <time>2024-07-25T09:15:07Z</time>
      </trkpt>
      <trkpt lat="43.60377" lon="3.39799">
        <ele>138.4</ele>
        <time>2024-07-25T09:15:08Z</time>
      </trkpt>
      <trkpt lat="43.60378" lon="3.39795">
        <ele>138.4</ele>
        <time>2024-07-25T09:15:09Z</time>
      </trkpt>
      <trkpt lat="43.6038" lon="3.39792">
        <ele>138.1</ele>
        <time>2024-07-25T09:15:10Z</time>
      </trkpt>
      <trkpt lat="43.60381" lon="3.39788">
        <ele>138.1</ele>
        <time>2024-07-25T09:15:11Z</time>
      </trkpt>
      <trkpt lat="43.60382" lon="3.39784">
        <ele>138.1</ele>
        <time>2024-07-25T09:15:12Z</time>
      </trkpt>
      <trkpt lat="43.60383" lon="3.3978">
        <ele>138.1</ele>
        <time>2024-07-25T09:15:13Z</time>
      </trkpt>
      <trkpt lat="43.60384" lon="3.39775">
        <ele>138.2</ele>
        <time>2024-07-25T09:15:14Z</time>
      </trkpt>
      <trkpt lat="43.60385" lon="3.3977">
        <ele>138.1</ele>
        <time>2024-07-25T09:15:15Z</time>
      </trkpt>
      <trkpt lat="43.60387" lon="3.39765">
        <ele>137.9</ele>
        <time>2024-07-25T09:15:16Z</time>
      </trkpt>
      <trkpt lat="43.60388" lon="3.39759">
        <ele>137.9</ele>
        <time>2024-07-25T09:15:17Z</time>
      </trkpt>
      <trkpt lat="43.6039" lon="3.39754">
        <ele>137.7</ele>
        <time>2024-07-25T09:15:18Z</time>
      </trkpt>
      <trkpt lat="43.60392" lon="3.39748">
        <ele>137.5</ele>
        <time>2024-07-25T09:15:19Z</time>
      </trkpt>
      <trkpt lat="43.60394" lon="3.39742">
        <ele>137.2</ele>
        <time>2024-07-25T09:15:20Z</time>
      </trkpt>
      <trkpt lat="43.60395" lon="3.39736">
        <ele>137.1</ele>
        <time>2024-07-25T09:15:21Z</time>
      </trkpt>
      <trkpt lat="43.60397" lon="3.3973">
        <ele>137</ele>
        <time>2024-07-25T09:15:22Z</time>
      </trkpt>
      <trkpt lat="43.604" lon="3.39724">
        <ele>136.7</ele>
        <time>2024-07-25T09:15:23Z</time>
      </trkpt>
      <trkpt lat="43.60402" lon="3.39718">
        <ele>136.7</ele>
        <time>2024-07-25T09:15:24Z</time>
      </trkpt>
      <trkpt lat="43.60404" lon="3.39711">
        <ele>136.6</ele>
        <time>2024-07-25T09:15:25Z</time>
      </trkpt>
      <trkpt lat="43.60406" lon="3.39705">
        <ele>136.4</ele>
        <time>2024-07-25T09:15:26Z</time>
      </trkpt>
      <trkpt lat="43.60408" lon="3.39699">
        <ele>136.2</ele>
        <time>2024-07-25T09:15:27Z</time>
      </trkpt>
      <trkpt lat="43.60408" lon="3.39692">
        <ele>136.2</ele>
        <time>2024-07-25T09:15:28Z</time>
      </trkpt>
      <trkpt lat="43.60409" lon="3.39685">
        <ele>136</ele>
        <time>2024-07-25T09:15:29Z</time>
      </trkpt>
      <trkpt lat="43.60408" lon="3.39679">
        <ele>136.1</ele>
        <time>2024-07-25T09:15:30Z</time>
      </trkpt>
      <trkpt lat="43.60406" lon="3.39672">
        <ele>136.2</ele>
        <time>2024-07-25T09:15:31Z</time>
      </trkpt>
      <trkpt lat="43.60405" lon="3.39665">
        <ele>136.3</ele>
        <time>2024-07-25T09:15:32Z</time>
      </trkpt>
      <trkpt lat="43.60404" lon="3.39658">
        <ele>136.5</ele>
        <time>2024-07-25T09:15:33Z</time>
      </trkpt>
      <trkpt lat="43.60403" lon="3.39652">
        <ele>136.7</ele>
        <time>2024-07-25T09:15:34Z</time>
      </trkpt>
      <trkpt lat="43.60401" lon="3.39645">
        <ele>137</ele>
        <time>2024-07-25T09:15:35Z</time>
      </trkpt>
      <trkpt lat="43.60398" lon="3.3964">
        <ele>137.3</ele>
        <time>2024-07-25T09:15:36Z</time>
      </trkpt>
      <trkpt lat="43.60395" lon="3.39635">
        <ele>137.5</ele>
        <time>2024-07-25T09:15:37Z</time>
      </trkpt>
      <trkpt lat="43.60392" lon="3.39631">
        <ele>137.6</ele>
        <time>2024-07-25T09:15:38Z</time>
      </trkpt>
      <trkpt lat="43.6039" lon="3.39626">
        <ele>137.5</ele>
        <time>2024-07-25T09:15:39Z</time>
      </trkpt>
      <trkpt lat="43.60388" lon="3.39621">
        <ele>137.6</ele>
        <time>2024-07-25T09:15:40Z</time>
      </trkpt>
      <trkpt lat="43.60387" lon="3.39616">
        <ele>137.7</ele>
        <time>2024-07-25T09:15:41Z</time>
      </trkpt>
      <trkpt lat="43.60386" lon="3.3961">
        <ele>137.8</ele>
        <time>2024-07-25T09:15:42Z</time>
      </trkpt>
      <trkpt lat="43.60386" lon="3.39603">
        <ele>137.5</ele>
        <time>2024-07-25T09:15:43Z</time>
      </trkpt>
      <trkpt lat="43.60387" lon="3.39596">
        <ele>137</ele>
        <time>2024-07-25T09:15:44Z</time>
      </trkpt>
      <trkpt lat="43.60387" lon="3.39589">
        <ele>136.7</ele>
        <time>2024-07-25T09:15:45Z</time>
      </trkpt>
      <trkpt lat="43.60388" lon="3.39583">
        <ele>136.2</ele>
        <time>2024-07-25T09:15:46Z</time>
      </trkpt>
      <trkpt lat="43.60388" lon="3.39577">
        <ele>136.4</ele>
        <time>2024-07-25T09:15:47Z</time>
      </trkpt>
      <trkpt lat="43.60389" lon="3.39571">
        <ele>136.4</ele>
        <time>2024-07-25T09:15:48Z</time>
      </trkpt>
      <trkpt lat="43.6039" lon="3.39566">
        <ele>136.6</ele>
        <time>2024-07-25T09:15:49Z</time>
      </trkpt>
      <trkpt lat="43.60391" lon="3.3956">
        <ele>136.9</ele>
        <time>2024-07-25T09:15:50Z</time>
      </trkpt>
      <trkpt lat="43.60391" lon="3.39554">
        <ele>137.1</ele>
        <time>2024-07-25T09:15:51Z</time>
      </trkpt>
      <trkpt lat="43.60393" lon="3.39548">
        <ele>137.3</ele>
        <time>2024-07-25T09:15:52Z</time>
      </trkpt>
      <trkpt lat="43.60395" lon="3.39543">
        <ele>137.6</ele>
        <time>2024-07-25T09:15:53Z</time>
      </trkpt>
      <trkpt lat="43.60399" lon="3.3954">
        <ele>137.8</ele>
        <time>2024-07-25T09:15:54Z</time>
      </trkpt>
      <trkpt lat="43.60402" lon="3.39539">
        <ele>137.9</ele>
        <time>2024-07-25T09:15:55Z</time>
      </trkpt>
      <trkpt lat="43.60406" lon="3.39538">
        <ele>138</ele>
        <time>2024-07-25T09:15:56Z</time>
      </trkpt>
      <trkpt lat="43.6041" lon="3.3954">
        <ele>138</ele>
        <time>2024-07-25T09:15:57Z</time>
      </trkpt>
      <trkpt lat="43.60414" lon="3.39544">
        <ele>137.8</ele>
        <time>2024-07-25T09:15:58Z</time>
      </trkpt>
      <trkpt lat="43.60416" lon="3.39548">
        <ele>137.5</ele>
        <time>2024-07-25T09:15:59Z</time>
      </trkpt>
      <trkpt lat="43.60419" lon="3.39552">
        <ele>137.5</ele>
        <time>2024-07-25T09:16:00Z</time>
      </trkpt>
      <trkpt lat="43.60422" lon="3.39555">
        <ele>137.6</ele>
        <time>2024-07-25T09:16:01Z</time>
      </trkpt>
      <trkpt lat="43.60426" lon="3.39558">
        <ele>138</ele>
        <time>2024-07-25T09:16:02Z</time>
      </trkpt>
      <trkpt lat="43.60429" lon="3.39561">
        <ele>138.2</ele>
        <time>2024-07-25T09:16:03Z</time>
      </trkpt>
      <trkpt lat="43.60432" lon="3.39563">
        <ele>138.5</ele>
        <time>2024-07-25T09:16:04Z</time>
      </trkpt>
      <trkpt lat="43.60435" lon="3.39565">
        <ele>138.8</ele>
        <time>2024-07-25T09:16:05Z</time>
      </trkpt>
      <trkpt lat="43.60438" lon="3.39567">
        <ele>139</ele>
        <time>2024-07-25T09:16:06Z</time>
      </trkpt>
      <trkpt lat="43.6044" lon="3.39569">
        <ele>139.1</ele>
        <time>2024-07-25T09:16:07Z</time>
      </trkpt>
      <trkpt lat="43.60443" lon="3.3957">
        <ele>139.4</ele>
        <time>2024-07-25T09:16:08Z</time>
      </trkpt>
      <trkpt lat="43.60445" lon="3.39572">
        <ele>139.5</ele>
        <time>2024-07-25T09:16:09Z</time>
      </trkpt>
      <trkpt lat="43.60447" lon="3.39573">
        <ele>139.6</ele>
        <time>2024-07-25T09:16:10Z</time>
      </trkpt>
      <trkpt lat="43.6045" lon="3.39574">
        <ele>139.9</ele>
        <time>2024-07-25T09:16:11Z</time>
      </trkpt>
      <trkpt lat="43.60453" lon="3.39576">
        <ele>140</ele>
        <time>2024-07-25T09:16:12Z</time>
      </trkpt>
      <trkpt lat="43.60455" lon="3.39577">
        <ele>140.2</ele>
        <time>2024-07-25T09:16:13Z</time>
      </trkpt>
      <trkpt lat="43.60457" lon="3.39578">
        <ele>140.3</ele>
        <time>2024-07-25T09:16:14Z</time>
      </trkpt>
      <trkpt lat="43.6046" lon="3.39579">
        <ele>140.5</ele>
        <time>2024-07-25T09:16:15Z</time>
      </trkpt>
      <trkpt lat="43.60462" lon="3.39579">
        <ele>140.6</ele>
        <time>2024-07-25T09:16:16Z</time>
      </trkpt>
      <trkpt lat="43.60465" lon="3.3958">
        <ele>140.8</ele>
        <time>2024-07-25T09:16:17Z</time>
      </trkpt>
      <trkpt lat="43.60468" lon="3.39581">
        <ele>140.9</ele>
        <time>2024-07-25T09:16:18Z</time>
      </trkpt>
      <trkpt lat="43.60471" lon="3.39581">
        <ele>141.2</ele>
        <time>2024-07-25T09:16:19Z</time>
      </trkpt>
      <trkpt lat="43.60473" lon="3.39581">
        <ele>141.3</ele>
        <time>2024-07-25T09:16:20Z</time>
      </trkpt>
      <trkpt lat="43.60476" lon="3.39581">
        <ele>141.3</ele>
        <time>2024-07-25T09:16:21Z</time>
      </trkpt>
      <trkpt lat="43.60478" lon="3.39579">
        <ele>141.5</ele>
        <time>2024-07-25T09:16:22Z</time>
      </trkpt>
      <trkpt lat="43.60481" lon="3.39578">
        <ele>141.6</ele>
        <time>2024-07-25T09:16:23Z</time>
      </trkpt>
      <trkpt lat="43.60484" lon="3.39576">
        <ele>141.9</ele>
        <time>2024-07-25T09:16:24Z</time>
      </trkpt>
      <trkpt lat="43.60487" lon="3.39574">
        <ele>142.2</ele>
        <time>2024-07-25T09:16:25Z</time>
      </trkpt>
      <trkpt lat="43.60489" lon="3.39572">
        <ele>142.5</ele>
        <time>2024-07-25T09:16:26Z</time>
      </trkpt>
      <trkpt lat="43.60491" lon="3.3957">
        <ele>142.8</ele>
        <time>2024-07-25T09:16:27Z</time>
      </trkpt>
      <trkpt lat="43.60494" lon="3.39568">
        <ele>143.1</ele>
        <time>2024-07-25T09:16:28Z</time>
      </trkpt>
      <trkpt lat="43.60496" lon="3.39565">
        <ele>143.5</ele>
        <time>2024-07-25T09:16:29Z</time>
      </trkpt>
      <trkpt lat="43.60499" lon="3.39563">
        <ele>143.9</ele>
        <time>2024-07-25T09:16:30Z</time>
      </trkpt>
      <trkpt lat="43.60501" lon="3.39561">
        <ele>144.3</ele>
        <time>2024-07-25T09:16:31Z</time>
      </trkpt>
      <trkpt lat="43.60503" lon="3.39559">
        <ele>144.7</ele>
        <time>2024-07-25T09:16:32Z</time>
      </trkpt>
      <trkpt lat="43.60506" lon="3.39556">
        <ele>145.2</ele>
        <time>2024-07-25T09:16:33Z</time>
      </trkpt>
      <trkpt lat="43.60508" lon="3.39554">
        <ele>145.4</ele>
        <time>2024-07-25T09:16:34Z</time>
      </trkpt>
      <trkpt lat="43.6051" lon="3.39552">
        <ele>145.7</ele>
        <time>2024-07-25T09:16:35Z</time>
      </trkpt>
      <trkpt lat="43.60513" lon="3.39549">
        <ele>146.1</ele>
        <time>2024-07-25T09:16:36Z</time>
      </trkpt>
      <trkpt lat="43.60517" lon="3.39547">
        <ele>146.3</ele>
        <time>2024-07-25T09:16:37Z</time>
      </trkpt>
      <trkpt lat="43.6052" lon="3.3955">
        <ele>146.2</ele>
        <time>2024-07-25T09:16:38Z</time>
      </trkpt>
      <trkpt lat="43.60522" lon="3.39554">
        <ele>145.9</ele>
        <time>2024-07-25T09:16:39Z</time>
      </trkpt>
      <trkpt lat="43.60522" lon="3.39558">
        <ele>145.7</ele>
        <time>2024-07-25T09:16:40Z</time>
      </trkpt>
      <trkpt lat="43.60521" lon="3.39562">
        <ele>145.5</ele>
        <time>2024-07-25T09:16:41Z</time>
      </trkpt>
      <trkpt lat="43.60521" lon="3.39566">
        <ele>145.4</ele>
        <time>2024-07-25T09:16:42Z</time>
      </trkpt>
      <trkpt lat="43.60521" lon="3.3957">
        <ele>145.2</ele>
        <time>2024-07-25T09:16:43Z</time>
      </trkpt>
      <trkpt lat="43.6052" lon="3.39574">
        <ele>145</ele>
        <time>2024-07-25T09:16:44Z</time>
      </trkpt>
      <trkpt lat="43.6052" lon="3.39579">
        <ele>144.8</ele>
        <time>2024-07-25T09:16:45Z</time>
      </trkpt>
      <trkpt lat="43.60519" lon="3.39583">
        <ele>144.4</ele>
        <time>2024-07-25T09:16:46Z</time>
      </trkpt>
      <trkpt lat="43.6052" lon="3.39588">
        <ele>144.4</ele>
        <time>2024-07-25T09:16:47Z</time>
      </trkpt>
      <trkpt lat="43.60521" lon="3.39592">
        <ele>144.3</ele>
        <time>2024-07-25T09:16:48Z</time>
      </trkpt>
      <trkpt lat="43.60523" lon="3.39596">
        <ele>144.4</ele>
        <time>2024-07-25T09:16:49Z</time>
      </trkpt>
      <trkpt lat="43.60525" lon="3.39599">
        <ele>144.5</ele>
        <time>2024-07-25T09:16:50Z</time>
      </trkpt>
      <trkpt lat="43.60528" lon="3.396">
        <ele>144.8</ele>
        <time>2024-07-25T09:16:51Z</time>
      </trkpt>
      <trkpt lat="43.60531" lon="3.39601">
        <ele>144.9</ele>
        <time>2024-07-25T09:16:52Z</time>
      </trkpt>
      <trkpt lat="43.60535" lon="3.39601">
        <ele>145.2</ele>
        <time>2024-07-25T09:16:53Z</time>
      </trkpt>
      <trkpt lat="43.60538" lon="3.396">
        <ele>145.4</ele>
        <time>2024-07-25T09:16:54Z</time>
      </trkpt>
      <trkpt lat="43.60541" lon="3.39598">
        <ele>145.7</ele>
        <time>2024-07-25T09:16:55Z</time>
      </trkpt>
      <trkpt lat="43.60543" lon="3.39595">
        <ele>145.9</ele>
        <time>2024-07-25T09:16:56Z</time>
      </trkpt>
      <trkpt lat="43.60545" lon="3.39593">
        <ele>146.1</ele>
        <time>2024-07-25T09:16:57Z</time>
      </trkpt>
      <trkpt lat="43.60546" lon="3.3959">
        <ele>146.3</ele>
        <time>2024-07-25T09:16:58Z</time>
      </trkpt>
      <trkpt lat="43.60548" lon="3.39586">
        <ele>146.6</ele>
        <time>2024-07-25T09:16:59Z</time>
      </trkpt>
      <trkpt lat="43.60549" lon="3.39583">
        <ele>146.8</ele>
        <time>2024-07-25T09:17:00Z</time>
      </trkpt>
      <trkpt lat="43.6055" lon="3.39581">
        <ele>146.9</ele>
        <time>2024-07-25T09:17:01Z</time>
      </trkpt>
      <trkpt lat="43.60551" lon="3.39578">
        <ele>147.2</ele>
        <time>2024-07-25T09:17:02Z</time>
      </trkpt>
      <trkpt lat="43.60552" lon="3.39575">
        <ele>147.4</ele>
        <time>2024-07-25T09:17:03Z</time>
      </trkpt>
      <trkpt lat="43.60553" lon="3.39573">
        <ele>147.6</ele>
        <time>2024-07-25T09:17:04Z</time>
      </trkpt>
      <trkpt lat="43.60554" lon="3.39571">
        <ele>147.8</ele>
        <time>2024-07-25T09:17:05Z</time>
      </trkpt>
      <trkpt lat="43.60555" lon="3.39568">
        <ele>148.1</ele>
        <time>2024-07-25T09:17:06Z</time>
      </trkpt>
      <trkpt lat="43.60556" lon="3.39566">
        <ele>148.3</ele>
        <time>2024-07-25T09:17:07Z</time>
      </trkpt>
      <trkpt lat="43.60557" lon="3.39564">
        <ele>148.5</ele>
        <time>2024-07-25T09:17:08Z</time>
      </trkpt>
      <trkpt lat="43.60558" lon="3.39561">
        <ele>148.9</ele>
        <time>2024-07-25T09:17:09Z</time>
      </trkpt>
      <trkpt lat="43.60559" lon="3.39558">
        <ele>149.2</ele>
        <time>2024-07-25T09:17:10Z</time>
      </trkpt>
      <trkpt lat="43.6056" lon="3.39556">
        <ele>149.4</ele>
        <time>2024-07-25T09:17:11Z</time>
      </trkpt>
      <trkpt lat="43.60562" lon="3.39554">
        <ele>149.9</ele>
        <time>2024-07-25T09:17:12Z</time>
      </trkpt>
      <trkpt lat="43.60563" lon="3.39551">
        <ele>150.3</ele>
        <time>2024-07-25T09:17:13Z</time>
      </trkpt>
      <trkpt lat="43.60564" lon="3.39548">
        <ele>150.6</ele>
        <time>2024-07-25T09:17:14Z</time>
      </trkpt>
      <trkpt lat="43.60565" lon="3.39546">
        <ele>150.9</ele>
        <time>2024-07-25T09:17:15Z</time>
      </trkpt>
      <trkpt lat="43.60566" lon="3.39543">
        <ele>151.3</ele>
        <time>2024-07-25T09:17:16Z</time>
      </trkpt>
      <trkpt lat="43.60567" lon="3.39541">
        <ele>151.6</ele>
        <time>2024-07-25T09:17:17Z</time>
      </trkpt>
      <trkpt lat="43.60568" lon="3.39538">
        <ele>152</ele>
        <time>2024-07-25T09:17:18Z</time>
      </trkpt>
      <trkpt lat="43.60569" lon="3.39536">
        <ele>152.2</ele>
        <time>2024-07-25T09:17:19Z</time>
      </trkpt>
      <trkpt lat="43.6057" lon="3.39533">
        <ele>152.6</ele>
        <time>2024-07-25T09:17:20Z</time>
      </trkpt>
      <trkpt lat="43.60571" lon="3.39531">
        <ele>152.8</ele>
        <time>2024-07-25T09:17:21Z</time>
      </trkpt>
      <trkpt lat="43.60573" lon="3.39528">
        <ele>153.2</ele>
        <time>2024-07-25T09:17:22Z</time>
      </trkpt>
      <trkpt lat="43.60574" lon="3.39527">
        <ele>153.4</ele>
        <time>2024-07-25T09:17:23Z</time>
      </trkpt>
      <trkpt lat="43.60576" lon="3.39525">
        <ele>153.7</ele>
        <time>2024-07-25T09:17:24Z</time>
      </trkpt>
      <trkpt lat="43.60577" lon="3.39524">
        <ele>153.9</ele>
        <time>2024-07-25T09:17:25Z</time>
      </trkpt>
      <trkpt lat="43.60579" lon="3.39522">
        <ele>154.3</ele>
        <time>2024-07-25T09:17:26Z</time>
      </trkpt>
      <trkpt lat="43.60581" lon="3.39521">
        <ele>154.5</ele>
        <time>2024-07-25T09:17:27Z</time>
      </trkpt>
      <trkpt lat="43.60583" lon="3.3952">
        <ele>154.8</ele>
        <time>2024-07-25T09:17:28Z</time>
      </trkpt>
      <trkpt lat="43.60585" lon="3.3952">
        <ele>154.9</ele>
        <time>2024-07-25T09:17:29Z</time>
      </trkpt>
      <trkpt lat="43.60587" lon="3.39519">
        <ele>155</ele>
        <time>2024-07-25T09:17:30Z</time>
      </trkpt>
      <trkpt lat="43.6059" lon="3.3952">
        <ele>155</ele>
        <time>2024-07-25T09:17:31Z</time>
      </trkpt>
      <trkpt lat="43.60592" lon="3.3952">
        <ele>155.1</ele>
        <time>2024-07-25T09:17:32Z</time>
      </trkpt>
      <trkpt lat="43.60595" lon="3.39521">
        <ele>155</ele>
        <time>2024-07-25T09:17:33Z</time>
      </trkpt>
      <trkpt lat="43.60598" lon="3.39522">
        <ele>155</ele>
        <time>2024-07-25T09:17:34Z</time>
      </trkpt>
      <trkpt lat="43.606" lon="3.39524">
        <ele>154.9</ele>
        <time>2024-07-25T09:17:35Z</time>
      </trkpt>
      <trkpt lat="43.60603" lon="3.39526">
        <ele>154.9</ele>
        <time>2024-07-25T09:17:36Z</time>
      </trkpt>
      <trkpt lat="43.60607" lon="3.39528">
        <ele>154.8</ele>
        <time>2024-07-25T09:17:37Z</time>
      </trkpt>
      <trkpt lat="43.60611" lon="3.3953">
        <ele>154.8</ele>
        <time>2024-07-25T09:17:38Z</time>
      </trkpt>
      <trkpt lat="43.60614" lon="3.39532">
        <ele>154.5</ele>
        <time>2024-07-25T09:17:39Z</time>
      </trkpt>
      <trkpt lat="43.60618" lon="3.39534">
        <ele>154.3</ele>
        <time>2024-07-25T09:17:40Z</time>
      </trkpt>
      <trkpt lat="43.60622" lon="3.39536">
        <ele>154.1</ele>
        <time>2024-07-25T09:17:41Z</time>
      </trkpt>
      <trkpt lat="43.60626" lon="3.39538">
        <ele>153.9</ele>
        <time>2024-07-25T09:17:42Z</time>
      </trkpt>
      <trkpt lat="43.6063" lon="3.39541">
        <ele>153.6</ele>
        <time>2024-07-25T09:17:43Z</time>
      </trkpt>
      <trkpt lat="43.60634" lon="3.39544">
        <ele>153.2</ele>
        <time>2024-07-25T09:17:44Z</time>
      </trkpt>
      <trkpt lat="43.60639" lon="3.39548">
        <ele>152.8</ele>
        <time>2024-07-25T09:17:45Z</time>
      </trkpt>
      <trkpt lat="43.60643" lon="3.39551">
        <ele>152.6</ele>
        <time>2024-07-25T09:17:46Z</time>
      </trkpt>
      <trkpt lat="43.60648" lon="3.39554">
        <ele>152.5</ele>
        <time>2024-07-25T09:17:47Z</time>
      </trkpt>
      <trkpt lat="43.60653" lon="3.39557">
        <ele>152.4</ele>
        <time>2024-07-25T09:17:48Z</time>
      </trkpt>
      <trkpt lat="43.60658" lon="3.3956">
        <ele>152.3</ele>
        <time>2024-07-25T09:17:49Z</time>
      </trkpt>
      <trkpt lat="43.60663" lon="3.39563">
        <ele>152.3</ele>
        <time>2024-07-25T09:17:50Z</time>
      </trkpt>
      <trkpt lat="43.60668" lon="3.39566">
        <ele>152.3</ele>
        <time>2024-07-25T09:17:51Z</time>
      </trkpt>
      <trkpt lat="43.60672" lon="3.39569">
        <ele>152.1</ele>
        <time>2024-07-25T09:17:52Z</time>
      </trkpt>
      <trkpt lat="43.60676" lon="3.39574">
        <ele>151.9</ele>
        <time>2024-07-25T09:17:53Z</time>
      </trkpt>
      <trkpt lat="43.60679" lon="3.39579">
        <ele>151.7</ele>
        <time>2024-07-25T09:17:54Z</time>
      </trkpt>
      <trkpt lat="43.6068" lon="3.39585">
        <ele>151.6</ele>
        <time>2024-07-25T09:17:55Z</time>
      </trkpt>
      <trkpt lat="43.6068" lon="3.39591">
        <ele>151.9</ele>
        <time>2024-07-25T09:17:56Z</time>
      </trkpt>
      <trkpt lat="43.60679" lon="3.39597">
        <ele>152.1</ele>
        <time>2024-07-25T09:17:57Z</time>
      </trkpt>
      <trkpt lat="43.60676" lon="3.39602">
        <ele>152</ele>
        <time>2024-07-25T09:17:58Z</time>
      </trkpt>
      <trkpt lat="43.60673" lon="3.39607">
        <ele>151.8</ele>
        <time>2024-07-25T09:17:59Z</time>
      </trkpt>
      <trkpt lat="43.6067" lon="3.39612">
        <ele>151.7</ele>
        <time>2024-07-25T09:18:00Z</time>
      </trkpt>
      <trkpt lat="43.60667" lon="3.39619">
        <ele>153</ele>
        <time>2024-07-25T09:18:01Z</time>
      </trkpt>
      <trkpt lat="43.60663" lon="3.39625">
        <ele>153.8</ele>
        <time>2024-07-25T09:18:02Z</time>
      </trkpt>
      <trkpt lat="43.60659" lon="3.3963">
        <ele>154</ele>
        <time>2024-07-25T09:18:03Z</time>
      </trkpt>
      <trkpt lat="43.60656" lon="3.39634">
        <ele>154</ele>
        <time>2024-07-25T09:18:04Z</time>
      </trkpt>
      <trkpt lat="43.60653" lon="3.39638">
        <ele>153.9</ele>
        <time>2024-07-25T09:18:05Z</time>
      </trkpt>
      <trkpt lat="43.6065" lon="3.39642">
        <ele>153.8</ele>
        <time>2024-07-25T09:18:06Z</time>
      </trkpt>
      <trkpt lat="43.60647" lon="3.39646">
        <ele>153.7</ele>
        <time>2024-07-25T09:18:07Z</time>
      </trkpt>
      <trkpt lat="43.60644" lon="3.39651">
        <ele>153.5</ele>
        <time>2024-07-25T09:18:08Z</time>
      </trkpt>
      <trkpt lat="43.60643" lon="3.39655">
        <ele>153.8</ele>
        <time>2024-07-25T09:18:09Z</time>
      </trkpt>
      <trkpt lat="43.60642" lon="3.39661">
        <ele>154.4</ele>
        <time>2024-07-25T09:18:10Z</time>
      </trkpt>
      <trkpt lat="43.6064" lon="3.39666">
        <ele>154.4</ele>
        <time>2024-07-25T09:18:11Z</time>
      </trkpt>
      <trkpt lat="43.60637" lon="3.3967">
        <ele>154.4</ele>
        <time>2024-07-25T09:18:12Z</time>
      </trkpt>
      <trkpt lat="43.60634" lon="3.39674">
        <ele>154.7</ele>
        <time>2024-07-25T09:18:13Z</time>
      </trkpt>
      <trkpt lat="43.60631" lon="3.39677">
        <ele>154.7</ele>
        <time>2024-07-25T09:18:14Z</time>
      </trkpt>
      <trkpt lat="43.60629" lon="3.39681">
        <ele>155.1</ele>
        <time>2024-07-25T09:18:15Z</time>
      </trkpt>
      <trkpt lat="43.60627" lon="3.39685">
        <ele>155.5</ele>
        <time>2024-07-25T09:18:16Z</time>
      </trkpt>
      <trkpt lat="43.60625" lon="3.3969">
        <ele>156</ele>
        <time>2024-07-25T09:18:17Z</time>
      </trkpt>
      <trkpt lat="43.60622" lon="3.39694">
        <ele>156</ele>
        <time>2024-07-25T09:18:18Z</time>
      </trkpt>
      <trkpt lat="43.60619" lon="3.39697">
        <ele>155.8</ele>
        <time>2024-07-25T09:18:19Z</time>
      </trkpt>
      <trkpt lat="43.60615" lon="3.397">
        <ele>155.2</ele>
        <time>2024-07-25T09:18:20Z</time>
      </trkpt>
      <trkpt lat="43.60612" lon="3.39703">
        <ele>154.8</ele>
        <time>2024-07-25T09:18:21Z</time>
      </trkpt>
      <trkpt lat="43.60609" lon="3.39707">
        <ele>154.8</ele>
        <time>2024-07-25T09:18:22Z</time>
      </trkpt>
      <trkpt lat="43.60607" lon="3.39711">
        <ele>155</ele>
        <time>2024-07-25T09:18:23Z</time>
      </trkpt>
      <trkpt lat="43.60605" lon="3.39715">
        <ele>155.2</ele>
        <time>2024-07-25T09:18:24Z</time>
      </trkpt>
      <trkpt lat="43.60603" lon="3.3972">
        <ele>155.6</ele>
        <time>2024-07-25T09:18:25Z</time>
      </trkpt>
      <trkpt lat="43.60602" lon="3.39724">
        <ele>156</ele>
        <time>2024-07-25T09:18:26Z</time>
      </trkpt>
      <trkpt lat="43.60599" lon="3.39728">
        <ele>155.9</ele>
        <time>2024-07-25T09:18:27Z</time>
      </trkpt>
      <trkpt lat="43.60597" lon="3.39732">
        <ele>156</ele>
        <time>2024-07-25T09:18:28Z</time>
      </trkpt>
      <trkpt lat="43.60594" lon="3.39735">
        <ele>155.7</ele>
        <time>2024-07-25T09:18:29Z</time>
      </trkpt>
      <trkpt lat="43.60592" lon="3.39738">
        <ele>155.6</ele>
        <time>2024-07-25T09:18:30Z</time>
      </trkpt>
      <trkpt lat="43.6059" lon="3.39742">
        <ele>155.7</ele>
        <time>2024-07-25T09:18:31Z</time>
      </trkpt>
      <trkpt lat="43.6059" lon="3.39746">
        <ele>156.3</ele>
        <time>2024-07-25T09:18:32Z</time>
      </trkpt>
      <trkpt lat="43.6059" lon="3.39751">
        <ele>157.1</ele>
        <time>2024-07-25T09:18:33Z</time>
      </trkpt>
      <trkpt lat="43.60589" lon="3.39757">
        <ele>158</ele>
        <time>2024-07-25T09:18:34Z</time>
      </trkpt>
      <trkpt lat="43.60588" lon="3.39762">
        <ele>158.7</ele>
        <time>2024-07-25T09:18:35Z</time>
      </trkpt>
      <trkpt lat="43.60585" lon="3.39767">
        <ele>158.7</ele>
        <time>2024-07-25T09:18:36Z</time>
      </trkpt>
      <trkpt lat="43.60583" lon="3.3977">
        <ele>158.5</ele>
        <time>2024-07-25T09:18:37Z</time>
      </trkpt>
      <trkpt lat="43.6058" lon="3.39772">
        <ele>158.4</ele>
        <time>2024-07-25T09:18:38Z</time>
      </trkpt>
      <trkpt lat="43.60576" lon="3.39774">
        <ele>158</ele>
        <time>2024-07-25T09:18:39Z</time>
      </trkpt>
      <trkpt lat="43.60573" lon="3.39777">
        <ele>158</ele>
        <time>2024-07-25T09:18:40Z</time>
      </trkpt>
      <trkpt lat="43.6057" lon="3.39781">
        <ele>158.3</ele>
        <time>2024-07-25T09:18:41Z</time>
      </trkpt>
      <trkpt lat="43.60568" lon="3.39784">
        <ele>158.6</ele>
        <time>2024-07-25T09:18:42Z</time>
      </trkpt>
      <trkpt lat="43.60565" lon="3.39787">
        <ele>158.6</ele>
        <time>2024-07-25T09:18:43Z</time>
      </trkpt>
      <trkpt lat="43.60563" lon="3.3979">
        <ele>158.8</ele>
        <time>2024-07-25T09:18:44Z</time>
      </trkpt>
      <trkpt lat="43.6056" lon="3.39793">
        <ele>158.7</ele>
        <time>2024-07-25T09:18:45Z</time>
      </trkpt>
      <trkpt lat="43.60558" lon="3.39796">
        <ele>158.8</ele>
        <time>2024-07-25T09:18:46Z</time>
      </trkpt>
      <trkpt lat="43.60555" lon="3.39798">
        <ele>158.5</ele>
        <time>2024-07-25T09:18:47Z</time>
      </trkpt>
      <trkpt lat="43.60552" lon="3.39801">
        <ele>158.2</ele>
        <time>2024-07-25T09:18:48Z</time>
      </trkpt>
      <trkpt lat="43.60549" lon="3.39804">
        <ele>157.9</ele>
        <time>2024-07-25T09:18:49Z</time>
      </trkpt>
      <trkpt lat="43.60546" lon="3.39805">
        <ele>157.2</ele>
        <time>2024-07-25T09:18:50Z</time>
      </trkpt>
      <trkpt lat="43.60543" lon="3.39807">
        <ele>156.5</ele>
        <time>2024-07-25T09:18:51Z</time>
      </trkpt>
      <trkpt lat="43.60541" lon="3.3981">
        <ele>156.3</ele>
        <time>2024-07-25T09:18:52Z</time>
      </trkpt>
      <trkpt lat="43.60539" lon="3.39813">
        <ele>156</ele>
        <time>2024-07-25T09:18:53Z</time>
      </trkpt>
      <trkpt lat="43.60537" lon="3.39817">
        <ele>155.9</ele>
        <time>2024-07-25T09:18:54Z</time>
      </trkpt>
      <trkpt lat="43.60537" lon="3.39821">
        <ele>156.3</ele>
        <time>2024-07-25T09:18:55Z</time>
      </trkpt>
      <trkpt lat="43.60536" lon="3.39825">
        <ele>156.5</ele>
        <time>2024-07-25T09:18:56Z</time>
      </trkpt>
      <trkpt lat="43.60536" lon="3.39829">
        <ele>156.9</ele>
        <time>2024-07-25T09:18:57Z</time>
      </trkpt>
      <trkpt lat="43.60536" lon="3.39835">
        <ele>157.4</ele>
        <time>2024-07-25T09:18:58Z</time>
      </trkpt>
      <trkpt lat="43.60537" lon="3.3984">
        <ele>157.9</ele>
        <time>2024-07-25T09:18:59Z</time>
      </trkpt>
      <trkpt lat="43.60539" lon="3.39844">
        <ele>158.5</ele>
        <time>2024-07-25T09:19:00Z</time>
      </trkpt>
      <trkpt lat="43.60541" lon="3.39847">
        <ele>159.1</ele>
        <time>2024-07-25T09:19:01Z</time>
      </trkpt>
      <trkpt lat="43.60543" lon="3.39851">
        <ele>159.6</ele>
        <time>2024-07-25T09:19:02Z</time>
      </trkpt>
      <trkpt lat="43.60544" lon="3.39856">
        <ele>159.9</ele>
        <time>2024-07-25T09:19:03Z</time>
      </trkpt>
      <trkpt lat="43.60545" lon="3.3986">
        <ele>160.1</ele>
        <time>2024-07-25T09:19:04Z</time>
      </trkpt>
      <trkpt lat="43.60546" lon="3.39864">
        <ele>160.6</ele>
        <time>2024-07-25T09:19:05Z</time>
      </trkpt>
      <trkpt lat="43.60547" lon="3.39868">
        <ele>161.2</ele>
        <time>2024-07-25T09:19:06Z</time>
      </trkpt>
      <trkpt lat="43.60547" lon="3.39873">
        <ele>161.8</ele>
        <time>2024-07-25T09:19:07Z</time>
      </trkpt>
      <trkpt lat="43.60547" lon="3.39877">
        <ele>162.2</ele>
        <time>2024-07-25T09:19:08Z</time>
      </trkpt>
      <trkpt lat="43.60547" lon="3.3988">
        <ele>162.6</ele>
        <time>2024-07-25T09:19:09Z</time>
      </trkpt>
      <trkpt lat="43.60545" lon="3.39885">
        <ele>162.6</ele>
        <time>2024-07-25T09:19:10Z</time>
      </trkpt>
      <trkpt lat="43.60544" lon="3.3989">
        <ele>162.8</ele>
        <time>2024-07-25T09:19:11Z</time>
      </trkpt>
      <trkpt lat="43.60543" lon="3.39895">
        <ele>163.3</ele>
        <time>2024-07-25T09:19:12Z</time>
      </trkpt>
      <trkpt lat="43.60542" lon="3.399">
        <ele>163.7</ele>
        <time>2024-07-25T09:19:13Z</time>
      </trkpt>
      <trkpt lat="43.60541" lon="3.39904">
        <ele>163.9</ele>
        <time>2024-07-25T09:19:14Z</time>
      </trkpt>
      <trkpt lat="43.6054" lon="3.39909">
        <ele>164.2</ele>
        <time>2024-07-25T09:19:15Z</time>
      </trkpt>
      <trkpt lat="43.60538" lon="3.39914">
        <ele>164.1</ele>
        <time>2024-07-25T09:19:16Z</time>
      </trkpt>
      <trkpt lat="43.60537" lon="3.39919">
        <ele>164.2</ele>
        <time>2024-07-25T09:19:17Z</time>
      </trkpt>
      <trkpt lat="43.60535" lon="3.39923">
        <ele>163.7</ele>
        <time>2024-07-25T09:19:18Z</time>
      </trkpt>
      <trkpt lat="43.60534" lon="3.39927">
        <ele>163.6</ele>
        <time>2024-07-25T09:19:19Z</time>
      </trkpt>
      <trkpt lat="43.60533" lon="3.39931">
        <ele>163.5</ele>
        <time>2024-07-25T09:19:20Z</time>
      </trkpt>
      <trkpt lat="43.60532" lon="3.39936">
        <ele>163.4</ele>
        <time>2024-07-25T09:19:21Z</time>
      </trkpt>
      <trkpt lat="43.60531" lon="3.39941">
        <ele>163.3</ele>
        <time>2024-07-25T09:19:22Z</time>
      </trkpt>
      <trkpt lat="43.6053" lon="3.39945">
        <ele>163.2</ele>
        <time>2024-07-25T09:19:23Z</time>
      </trkpt>
      <trkpt lat="43.60529" lon="3.3995">
        <ele>163</ele>
        <time>2024-07-25T09:19:24Z</time>
      </trkpt>
      <trkpt lat="43.60528" lon="3.39955">
        <ele>162.9</ele>
        <time>2024-07-25T09:19:25Z</time>
      </trkpt>
      <trkpt lat="43.60528" lon="3.3996">
        <ele>163.2</ele>
        <time>2024-07-25T09:19:26Z</time>
      </trkpt>
      <trkpt lat="43.60527" lon="3.39965">
        <ele>163.2</ele>
        <time>2024-07-25T09:19:27Z</time>
      </trkpt>
      <trkpt lat="43.60526" lon="3.3997">
        <ele>163.2</ele>
        <time>2024-07-25T09:19:28Z</time>
      </trkpt>
      <trkpt lat="43.60524" lon="3.39974">
        <ele>162.8</ele>
        <time>2024-07-25T09:19:29Z</time>
      </trkpt>
      <trkpt lat="43.60523" lon="3.39978">
        <ele>162.9</ele>
        <time>2024-07-25T09:19:30Z</time>
      </trkpt>
      <trkpt lat="43.60522" lon="3.39982">
        <ele>162.9</ele>
        <time>2024-07-25T09:19:31Z</time>
      </trkpt>
      <trkpt lat="43.60521" lon="3.39987">
        <ele>163</ele>
        <time>2024-07-25T09:19:32Z</time>
      </trkpt>
      <trkpt lat="43.6052" lon="3.39992">
        <ele>163.1</ele>
        <time>2024-07-25T09:19:33Z</time>
      </trkpt>
      <trkpt lat="43.6052" lon="3.39996">
        <ele>163.5</ele>
        <time>2024-07-25T09:19:34Z</time>
      </trkpt>
      <trkpt lat="43.6052" lon="3.39999">
        <ele>163.8</ele>
        <time>2024-07-25T09:19:35Z</time>
      </trkpt>
      <trkpt lat="43.60519" lon="3.40003">
        <ele>163.7</ele>
        <time>2024-07-25T09:19:36Z</time>
      </trkpt>
      <trkpt lat="43.60519" lon="3.40008">
        <ele>164</ele>
        <time>2024-07-25T09:19:37Z</time>
      </trkpt>
      <trkpt lat="43.60518" lon="3.40013">
        <ele>163.9</ele>
        <time>2024-07-25T09:19:38Z</time>
      </trkpt>
      <trkpt lat="43.60519" lon="3.40019">
        <ele>164.7</ele>
        <time>2024-07-25T09:19:39Z</time>
      </trkpt>
      <trkpt lat="43.60518" lon="3.40024">
        <ele>164.6</ele>
        <time>2024-07-25T09:19:40Z</time>
      </trkpt>
      <trkpt lat="43.60518" lon="3.40029">
        <ele>164.8</ele>
        <time>2024-07-25T09:19:41Z</time>
      </trkpt>
      <trkpt lat="43.60517" lon="3.40034">
        <ele>164.7</ele>
        <time>2024-07-25T09:19:42Z</time>
      </trkpt>
      <trkpt lat="43.60517" lon="3.40038">
        <ele>164.9</ele>
        <time>2024-07-25T09:19:43Z</time>
      </trkpt>
      <trkpt lat="43.60517" lon="3.40043">
        <ele>165.1</ele>
        <time>2024-07-25T09:19:44Z</time>
      </trkpt>
      <trkpt lat="43.60517" lon="3.40047">
        <ele>165.3</ele>
        <time>2024-07-25T09:19:45Z</time>
      </trkpt>
      <trkpt lat="43.60518" lon="3.40051">
        <ele>165.9</ele>
        <time>2024-07-25T09:19:46Z</time>
      </trkpt>
      <trkpt lat="43.60518" lon="3.40056">
        <ele>166.1</ele>
        <time>2024-07-25T09:19:47Z</time>
      </trkpt>
      <trkpt lat="43.60518" lon="3.40061">
        <ele>166</ele>
        <time>2024-07-25T09:19:48Z</time>
      </trkpt>
      <trkpt lat="43.60519" lon="3.40066">
        <ele>166.3</ele>
        <time>2024-07-25T09:19:49Z</time>
      </trkpt>
      <trkpt lat="43.6052" lon="3.4007">
        <ele>166.5</ele>
        <time>2024-07-25T09:19:50Z</time>
      </trkpt>
      <trkpt lat="43.60521" lon="3.40075">
        <ele>166.8</ele>
        <time>2024-07-25T09:19:51Z</time>
      </trkpt>
      <trkpt lat="43.60522" lon="3.4008">
        <ele>167</ele>
        <time>2024-07-25T09:19:52Z</time>
      </trkpt>
      <trkpt lat="43.60523" lon="3.40084">
        <ele>167.3</ele>
        <time>2024-07-25T09:19:53Z</time>
      </trkpt>
      <trkpt lat="43.60524" lon="3.40089">
        <ele>168.1</ele>
        <time>2024-07-25T09:19:54Z</time>
      </trkpt>
      <trkpt lat="43.60525" lon="3.40093">
        <ele>168.7</ele>
        <time>2024-07-25T09:19:55Z</time>
      </trkpt>
      <trkpt lat="43.60526" lon="3.40098">
        <ele>169.4</ele>
        <time>2024-07-25T09:19:56Z</time>
      </trkpt>
      <trkpt lat="43.60527" lon="3.40103">
        <ele>170.2</ele>
        <time>2024-07-25T09:19:57Z</time>
      </trkpt>
      <trkpt lat="43.60527" lon="3.40107">
        <ele>170.4</ele>
        <time>2024-07-25T09:19:58Z</time>
      </trkpt>
      <trkpt lat="43.60527" lon="3.40112">
        <ele>170.8</ele>
        <time>2024-07-25T09:19:59Z</time>
      </trkpt>
      <trkpt lat="43.60525" lon="3.40116">
        <ele>170.6</ele>
        <time>2024-07-25T09:20:00Z</time>
      </trkpt>
      <trkpt lat="43.60523" lon="3.40119">
        <ele>170.3</ele>
        <time>2024-07-25T09:20:01Z</time>
      </trkpt>
      <trkpt lat="43.60521" lon="3.40123">
        <ele>170.1</ele>
        <time>2024-07-25T09:20:02Z</time>
      </trkpt>
      <trkpt lat="43.60519" lon="3.40126">
        <ele>169.8</ele>
        <time>2024-07-25T09:20:03Z</time>
      </trkpt>
      <trkpt lat="43.60517" lon="3.40129">
        <ele>169.4</ele>
        <time>2024-07-25T09:20:04Z</time>
      </trkpt>
      <trkpt lat="43.60515" lon="3.40133">
        <ele>169.2</ele>
        <time>2024-07-25T09:20:05Z</time>
      </trkpt>
      <trkpt lat="43.60513" lon="3.40137">
        <ele>169</ele>
        <time>2024-07-25T09:20:06Z</time>
      </trkpt>
      <trkpt lat="43.60511" lon="3.40141">
        <ele>169</ele>
        <time>2024-07-25T09:20:07Z</time>
      </trkpt>
      <trkpt lat="43.6051" lon="3.40144">
        <ele>169.3</ele>
        <time>2024-07-25T09:20:08Z</time>
      </trkpt>
      <trkpt lat="43.60508" lon="3.40148">
        <ele>169.5</ele>
        <time>2024-07-25T09:20:09Z</time>
      </trkpt>
      <trkpt lat="43.60506" lon="3.40153">
        <ele>170.1</ele>
        <time>2024-07-25T09:20:10Z</time>
      </trkpt>
      <trkpt lat="43.60505" lon="3.40157">
        <ele>170.7</ele>
        <time>2024-07-25T09:20:11Z</time>
      </trkpt>
      <trkpt lat="43.60504" lon="3.40161">
        <ele>171.4</ele>
        <time>2024-07-25T09:20:12Z</time>
      </trkpt>
      <trkpt lat="43.60503" lon="3.40165">
        <ele>172.1</ele>
        <time>2024-07-25T09:20:13Z</time>
      </trkpt>
      <trkpt lat="43.60502" lon="3.4017">
        <ele>173</ele>
        <time>2024-07-25T09:20:14Z</time>
      </trkpt>
      <trkpt lat="43.605" lon="3.40174">
        <ele>173.3</ele>
        <time>2024-07-25T09:20:15Z</time>
      </trkpt>
      <trkpt lat="43.605" lon="3.40178">
        <ele>174</ele>
        <time>2024-07-25T09:20:16Z</time>
      </trkpt>
      <trkpt lat="43.60499" lon="3.40182">
        <ele>174.4</ele>
        <time>2024-07-25T09:20:17Z</time>
      </trkpt>
      <trkpt lat="43.60499" lon="3.40187">
        <ele>175.3</ele>
        <time>2024-07-25T09:20:18Z</time>
      </trkpt>
      <trkpt lat="43.60499" lon="3.40191">
        <ele>176</ele>
        <time>2024-07-25T09:20:19Z</time>
      </trkpt>
      <trkpt lat="43.60499" lon="3.40195">
        <ele>176.7</ele>
        <time>2024-07-25T09:20:20Z</time>
      </trkpt>
      <trkpt lat="43.60499" lon="3.402">
        <ele>176.9</ele>
        <time>2024-07-25T09:20:21Z</time>
      </trkpt>
      <trkpt lat="43.60499" lon="3.40204">
        <ele>177.1</ele>
        <time>2024-07-25T09:20:22Z</time>
      </trkpt>
      <trkpt lat="43.605" lon="3.40209">
        <ele>177.5</ele>
        <time>2024-07-25T09:20:23Z</time>
      </trkpt>
      <trkpt lat="43.605" lon="3.40213">
        <ele>177.7</ele>
        <time>2024-07-25T09:20:24Z</time>
      </trkpt>
      <trkpt lat="43.605" lon="3.40217">
        <ele>177.8</ele>
        <time>2024-07-25T09:20:25Z</time>
      </trkpt>
      <trkpt lat="43.605" lon="3.40222">
        <ele>178</ele>
        <time>2024-07-25T09:20:26Z</time>
      </trkpt>
      <trkpt lat="43.60499" lon="3.40226">
        <ele>177.6</ele>
        <time>2024-07-25T09:20:27Z</time>
      </trkpt>
      <trkpt lat="43.60498" lon="3.40231">
        <ele>177.1</ele>
        <time>2024-07-25T09:20:28Z</time>
      </trkpt>
      <trkpt lat="43.60497" lon="3.40235">
        <ele>176.8</ele>
        <time>2024-07-25T09:20:29Z</time>
      </trkpt>
      <trkpt lat="43.60496" lon="3.40239">
        <ele>176.5</ele>
        <time>2024-07-25T09:20:30Z</time>
      </trkpt>
      <trkpt lat="43.60495" lon="3.40242">
        <ele>176.2</ele>
        <time>2024-07-25T09:20:31Z</time>
      </trkpt>
      <trkpt lat="43.60494" lon="3.40246">
        <ele>176</ele>
        <time>2024-07-25T09:20:32Z</time>
      </trkpt>
      <trkpt lat="43.60494" lon="3.40249">
        <ele>175.8</ele>
        <time>2024-07-25T09:20:33Z</time>
      </trkpt>
      <trkpt lat="43.60493" lon="3.40253">
        <ele>175.7</ele>
        <time>2024-07-25T09:20:34Z</time>
      </trkpt>
      <trkpt lat="43.60493" lon="3.40257">
        <ele>175.7</ele>
        <time>2024-07-25T09:20:35Z</time>
      </trkpt>
      <trkpt lat="43.60494" lon="3.40261">
        <ele>175.8</ele>
        <time>2024-07-25T09:20:36Z</time>
      </trkpt>
      <trkpt lat="43.60495" lon="3.40265">
        <ele>175.8</ele>
        <time>2024-07-25T09:20:37Z</time>
      </trkpt>
      <trkpt lat="43.60497" lon="3.4027">
        <ele>175.9</ele>
        <time>2024-07-25T09:20:38Z</time>
      </trkpt>
      <trkpt lat="43.60499" lon="3.40274">
        <ele>176</ele>
        <time>2024-07-25T09:20:39Z</time>
      </trkpt>
      <trkpt lat="43.60501" lon="3.40277">
        <ele>176.1</ele>
        <time>2024-07-25T09:20:40Z</time>
      </trkpt>
      <trkpt lat="43.60503" lon="3.40281">
        <ele>175.7</ele>
        <time>2024-07-25T09:20:41Z</time>
      </trkpt>
      <trkpt lat="43.60506" lon="3.40284">
        <ele>175.4</ele>
        <time>2024-07-25T09:20:42Z</time>
      </trkpt>
      <trkpt lat="43.60509" lon="3.40286">
        <ele>175.2</ele>
        <time>2024-07-25T09:20:43Z</time>
      </trkpt>
      <trkpt lat="43.60512" lon="3.4029">
        <ele>174.5</ele>
        <time>2024-07-25T09:20:44Z</time>
      </trkpt>
      <trkpt lat="43.60515" lon="3.40293">
        <ele>174</ele>
        <time>2024-07-25T09:20:45Z</time>
      </trkpt>
      <trkpt lat="43.60518" lon="3.40296">
        <ele>173.4</ele>
        <time>2024-07-25T09:20:46Z</time>
      </trkpt>
      <trkpt lat="43.60521" lon="3.40298">
        <ele>173</ele>
        <time>2024-07-25T09:20:47Z</time>
      </trkpt>
      <trkpt lat="43.60525" lon="3.403">
        <ele>172.5</ele>
        <time>2024-07-25T09:20:48Z</time>
      </trkpt>
      <trkpt lat="43.60528" lon="3.40301">
        <ele>172.3</ele>
        <time>2024-07-25T09:20:49Z</time>
      </trkpt>
      <trkpt lat="43.60531" lon="3.40302">
        <ele>172.1</ele>
        <time>2024-07-25T09:20:50Z</time>
      </trkpt>
      <trkpt lat="43.60533" lon="3.40302">
        <ele>172.2</ele>
        <time>2024-07-25T09:20:51Z</time>
      </trkpt>
      <trkpt lat="43.60535" lon="3.40303">
        <ele>172</ele>
        <time>2024-07-25T09:20:52Z</time>
      </trkpt>
      <trkpt lat="43.60538" lon="3.40303">
        <ele>172.1</ele>
        <time>2024-07-25T09:20:53Z</time>
      </trkpt>
      <trkpt lat="43.60541" lon="3.40303">
        <ele>172.2</ele>
        <time>2024-07-25T09:20:54Z</time>
      </trkpt>
      <trkpt lat="43.60545" lon="3.40304">
        <ele>172</ele>
        <time>2024-07-25T09:20:55Z</time>
      </trkpt>
      <trkpt lat="43.60548" lon="3.40305">
        <ele>171.9</ele>
        <time>2024-07-25T09:20:56Z</time>
      </trkpt>
      <trkpt lat="43.60551" lon="3.40306">
        <ele>171.7</ele>
        <time>2024-07-25T09:20:57Z</time>
      </trkpt>
      <trkpt lat="43.60556" lon="3.40307">
        <ele>171.6</ele>
        <time>2024-07-25T09:20:58Z</time>
      </trkpt>
      <trkpt lat="43.6056" lon="3.40307">
        <ele>171.5</ele>
        <time>2024-07-25T09:20:59Z</time>
      </trkpt>
      <trkpt lat="43.60564" lon="3.40309">
        <ele>170.8</ele>
        <time>2024-07-25T09:21:00Z</time>
      </trkpt>
      <trkpt lat="43.60568" lon="3.40309">
        <ele>170.6</ele>
        <time>2024-07-25T09:21:01Z</time>
      </trkpt>
      <trkpt lat="43.60572" lon="3.40309">
        <ele>170.4</ele>
        <time>2024-07-25T09:21:02Z</time>
      </trkpt>
      <trkpt lat="43.60576" lon="3.40308">
        <ele>170.5</ele>
        <time>2024-07-25T09:21:03Z</time>
      </trkpt>
      <trkpt lat="43.60581" lon="3.40307">
        <ele>170.6</ele>
        <time>2024-07-25T09:21:04Z</time>
      </trkpt>
      <trkpt lat="43.60585" lon="3.40305">
        <ele>170.8</ele>
        <time>2024-07-25T09:21:05Z</time>
      </trkpt>
      <trkpt lat="43.60589" lon="3.40303">
        <ele>170.6</ele>
        <time>2024-07-25T09:21:06Z</time>
      </trkpt>
      <trkpt lat="43.60594" lon="3.403">
        <ele>170.3</ele>
        <time>2024-07-25T09:21:07Z</time>
      </trkpt>
      <trkpt lat="43.60598" lon="3.40296">
        <ele>170.4</ele>
        <time>2024-07-25T09:21:08Z</time>
      </trkpt>
      <trkpt lat="43.60601" lon="3.4029">
        <ele>171</ele>
        <time>2024-07-25T09:21:09Z</time>
      </trkpt>
      <trkpt lat="43.60605" lon="3.40285">
        <ele>171.1</ele>
        <time>2024-07-25T09:21:10Z</time>
      </trkpt>
      <trkpt lat="43.60608" lon="3.40279">
        <ele>171.6</ele>
        <time>2024-07-25T09:21:11Z</time>
      </trkpt>
      <trkpt lat="43.60613" lon="3.40273">
        <ele>170.6</ele>
        <time>2024-07-25T09:21:12Z</time>
      </trkpt>
      <trkpt lat="43.60618" lon="3.40267">
        <ele>169.3</ele>
        <time>2024-07-25T09:21:13Z</time>
      </trkpt>
      <trkpt lat="43.60624" lon="3.40261">
        <ele>167.7</ele>
        <time>2024-07-25T09:21:14Z</time>
      </trkpt>
      <trkpt lat="43.60629" lon="3.40255">
        <ele>166.6</ele>
        <time>2024-07-25T09:21:15Z</time>
      </trkpt>
      <trkpt lat="43.60634" lon="3.4025">
        <ele>165.4</ele>
        <time>2024-07-25T09:21:16Z</time>
      </trkpt>
      <trkpt lat="43.60639" lon="3.40244">
        <ele>164.6</ele>
        <time>2024-07-25T09:21:17Z</time>
      </trkpt>
      <trkpt lat="43.60644" lon="3.40239">
        <ele>164.4</ele>
        <time>2024-07-25T09:21:18Z</time>
      </trkpt>
      <trkpt lat="43.60649" lon="3.40233">
        <ele>164.2</ele>
        <time>2024-07-25T09:21:19Z</time>
      </trkpt>
      <trkpt lat="43.60654" lon="3.40228">
        <ele>163.8</ele>
        <time>2024-07-25T09:21:20Z</time>
      </trkpt>
      <trkpt lat="43.60659" lon="3.40221">
        <ele>163.4</ele>
        <time>2024-07-25T09:21:21Z</time>
      </trkpt>
      <trkpt lat="43.60662" lon="3.40213">
        <ele>163</ele>
        <time>2024-07-25T09:21:22Z</time>
      </trkpt>
      <trkpt lat="43.60663" lon="3.40204">
        <ele>162.9</ele>
        <time>2024-07-25T09:21:23Z</time>
      </trkpt>
      <trkpt lat="43.60664" lon="3.40195">
        <ele>162.8</ele>
        <time>2024-07-25T09:21:24Z</time>
      </trkpt>
      <trkpt lat="43.60665" lon="3.40186">
        <ele>164.8</ele>
        <time>2024-07-25T09:21:25Z</time>
      </trkpt>
      <trkpt lat="43.60666" lon="3.40177">
        <ele>167.2</ele>
        <time>2024-07-25T09:21:26Z</time>
      </trkpt>
      <trkpt lat="43.60667" lon="3.40168">
        <ele>169.6</ele>
        <time>2024-07-25T09:21:27Z</time>
      </trkpt>
      <trkpt lat="43.60669" lon="3.40159">
        <ele>171.3</ele>
        <time>2024-07-25T09:21:28Z</time>
      </trkpt>
      <trkpt lat="43.60672" lon="3.40153">
        <ele>172.1</ele>
        <time>2024-07-25T09:21:29Z</time>
      </trkpt>
      <trkpt lat="43.60676" lon="3.40148">
        <ele>172.5</ele>
        <time>2024-07-25T09:21:30Z</time>
      </trkpt>
      <trkpt lat="43.60681" lon="3.40144">
        <ele>172.4</ele>
        <time>2024-07-25T09:21:31Z</time>
      </trkpt>
      <trkpt lat="43.60687" lon="3.40141">
        <ele>171.9</ele>
        <time>2024-07-25T09:21:32Z</time>
      </trkpt>
      <trkpt lat="43.60693" lon="3.40141">
        <ele>170.9</ele>
        <time>2024-07-25T09:21:33Z</time>
      </trkpt>
      <trkpt lat="43.60699" lon="3.40143">
        <ele>169.1</ele>
        <time>2024-07-25T09:21:34Z</time>
      </trkpt>
      <trkpt lat="43.60705" lon="3.40143">
        <ele>167.6</ele>
        <time>2024-07-25T09:21:35Z</time>
      </trkpt>
      <trkpt lat="43.6071" lon="3.4014">
        <ele>166.9</ele>
        <time>2024-07-25T09:21:36Z</time>
      </trkpt>
      <trkpt lat="43.60715" lon="3.40136">
        <ele>166.1</ele>
        <time>2024-07-25T09:21:37Z</time>
      </trkpt>
      <trkpt lat="43.60719" lon="3.40131">
        <ele>165.4</ele>
        <time>2024-07-25T09:21:38Z</time>
      </trkpt>
      <trkpt lat="43.60724" lon="3.40126">
        <ele>164.4</ele>
        <time>2024-07-25T09:21:39Z</time>
      </trkpt>
      <trkpt lat="43.60729" lon="3.40122">
        <ele>163</ele>
        <time>2024-07-25T09:21:40Z</time>
      </trkpt>
      <trkpt lat="43.60735" lon="3.4012">
        <ele>161.2</ele>
        <time>2024-07-25T09:21:41Z</time>
      </trkpt>
      <trkpt lat="43.6074" lon="3.40118">
        <ele>159.7</ele>
        <time>2024-07-25T09:21:42Z</time>
      </trkpt>
      <trkpt lat="43.60745" lon="3.40117">
        <ele>158.2</ele>
        <time>2024-07-25T09:21:43Z</time>
      </trkpt>
      <trkpt lat="43.6075" lon="3.40117">
        <ele>156.6</ele>
        <time>2024-07-25T09:21:44Z</time>
      </trkpt>
      <trkpt lat="43.60754" lon="3.40116">
        <ele>155.8</ele>
        <time>2024-07-25T09:21:45Z</time>
      </trkpt>
      <trkpt lat="43.60759" lon="3.40114">
        <ele>154.9</ele>
        <time>2024-07-25T09:21:46Z</time>
      </trkpt>
      <trkpt lat="43.60762" lon="3.40111">
        <ele>154.4</ele>
        <time>2024-07-25T09:21:47Z</time>
      </trkpt>
      <trkpt lat="43.60766" lon="3.40108">
        <ele>153.9</ele>
        <time>2024-07-25T09:21:48Z</time>
      </trkpt>
      <trkpt lat="43.60769" lon="3.40106">
        <ele>153.5</ele>
        <time>2024-07-25T09:21:49Z</time>
      </trkpt>
      <trkpt lat="43.60771" lon="3.40103">
        <ele>153.4</ele>
        <time>2024-07-25T09:21:50Z</time>
      </trkpt>
      <trkpt lat="43.60774" lon="3.40099">
        <ele>153.2</ele>
        <time>2024-07-25T09:21:51Z</time>
      </trkpt>
      <trkpt lat="43.60776" lon="3.40096">
        <ele>153.1</ele>
        <time>2024-07-25T09:21:52Z</time>
      </trkpt>
      <trkpt lat="43.60779" lon="3.40092">
        <ele>152.7</ele>
        <time>2024-07-25T09:21:53Z</time>
      </trkpt>
      <trkpt lat="43.60782" lon="3.40089">
        <ele>152.1</ele>
        <time>2024-07-25T09:21:54Z</time>
      </trkpt>
      <trkpt lat="43.60786" lon="3.40085">
        <ele>151.4</ele>
        <time>2024-07-25T09:21:55Z</time>
      </trkpt>
      <trkpt lat="43.60791" lon="3.40081">
        <ele>150.7</ele>
        <time>2024-07-25T09:21:56Z</time>
      </trkpt>
      <trkpt lat="43.60796" lon="3.40078">
        <ele>150</ele>
        <time>2024-07-25T09:21:57Z</time>
      </trkpt>
      <trkpt lat="43.60801" lon="3.40076">
        <ele>149.1</ele>
        <time>2024-07-25T09:21:58Z</time>
      </trkpt>
      <trkpt lat="43.60807" lon="3.40074">
        <ele>148.1</ele>
        <time>2024-07-25T09:21:59Z</time>
      </trkpt>
      <trkpt lat="43.60812" lon="3.40074">
        <ele>147.4</ele>
        <time>2024-07-25T09:22:00Z</time>
      </trkpt>
      <trkpt lat="43.60816" lon="3.40074">
        <ele>146.8</ele>
        <time>2024-07-25T09:22:01Z</time>
      </trkpt>
      <trkpt lat="43.6082" lon="3.40076">
        <ele>145.8</ele>
        <time>2024-07-25T09:22:02Z</time>
      </trkpt>
      <trkpt lat="43.60823" lon="3.4008">
        <ele>144.3</ele>
        <time>2024-07-25T09:22:03Z</time>
      </trkpt>
      <trkpt lat="43.60822" lon="3.40085">
        <ele>143.4</ele>
        <time>2024-07-25T09:22:04Z</time>
      </trkpt>
      <trkpt lat="43.6082" lon="3.40089">
        <ele>143</ele>
        <time>2024-07-25T09:22:05Z</time>
      </trkpt>
      <trkpt lat="43.60817" lon="3.40093">
        <ele>142.8</ele>
        <time>2024-07-25T09:22:06Z</time>
      </trkpt>
      <trkpt lat="43.60813" lon="3.40097">
        <ele>142.8</ele>
        <time>2024-07-25T09:22:07Z</time>
      </trkpt>
      <trkpt lat="43.6081" lon="3.40102">
        <ele>142.6</ele>
        <time>2024-07-25T09:22:08Z</time>
      </trkpt>
      <trkpt lat="43.60809" lon="3.40107">
        <ele>142</ele>
        <time>2024-07-25T09:22:09Z</time>
      </trkpt>
      <trkpt lat="43.60809" lon="3.40112">
        <ele>141.4</ele>
        <time>2024-07-25T09:22:10Z</time>
      </trkpt>
      <trkpt lat="43.60811" lon="3.40114">
        <ele>140.9</ele>
        <time>2024-07-25T09:22:11Z</time>
      </trkpt>
      <trkpt lat="43.60814" lon="3.40115">
        <ele>140.3</ele>
        <time>2024-07-25T09:22:12Z</time>
      </trkpt>
      <trkpt lat="43.60817" lon="3.40114">
        <ele>139.8</ele>
        <time>2024-07-25T09:22:13Z</time>
      </trkpt>
      <trkpt lat="43.60822" lon="3.40111">
        <ele>139.1</ele>
        <time>2024-07-25T09:22:14Z</time>
      </trkpt>
      <trkpt lat="43.60826" lon="3.40108">
        <ele>138.9</ele>
        <time>2024-07-25T09:22:15Z</time>
      </trkpt>
      <trkpt lat="43.6083" lon="3.40105">
        <ele>138.7</ele>
        <time>2024-07-25T09:22:16Z</time>
      </trkpt>
      <trkpt lat="43.60835" lon="3.40102">
        <ele>138.4</ele>
        <time>2024-07-25T09:22:17Z</time>
      </trkpt>
      <trkpt lat="43.6084" lon="3.40101">
        <ele>137.9</ele>
        <time>2024-07-25T09:22:18Z</time>
      </trkpt>
      <trkpt lat="43.60844" lon="3.40101">
        <ele>137.3</ele>
        <time>2024-07-25T09:22:19Z</time>
      </trkpt>
      <trkpt lat="43.60848" lon="3.40102">
        <ele>136.5</ele>
        <time>2024-07-25T09:22:20Z</time>
      </trkpt>
      <trkpt lat="43.60852" lon="3.40102">
        <ele>136</ele>
        <time>2024-07-25T09:22:21Z</time>
      </trkpt>
      <trkpt lat="43.60856" lon="3.401">
        <ele>135.7</ele>
        <time>2024-07-25T09:22:22Z</time>
      </trkpt>
      <trkpt lat="43.60861" lon="3.40098">
        <ele>135.4</ele>
        <time>2024-07-25T09:22:23Z</time>
      </trkpt>
      <trkpt lat="43.60866" lon="3.40095">
        <ele>135.1</ele>
        <time>2024-07-25T09:22:24Z</time>
      </trkpt>
      <trkpt lat="43.6087" lon="3.40091">
        <ele>135.1</ele>
        <time>2024-07-25T09:22:25Z</time>
      </trkpt>
      <trkpt lat="43.60874" lon="3.40089">
        <ele>134.6</ele>
        <time>2024-07-25T09:22:26Z</time>
      </trkpt>
      <trkpt lat="43.60878" lon="3.40087">
        <ele>134</ele>
        <time>2024-07-25T09:22:27Z</time>
      </trkpt>
      <trkpt lat="43.60881" lon="3.40088">
        <ele>133.3</ele>
        <time>2024-07-25T09:22:28Z</time>
      </trkpt>
      <trkpt lat="43.60885" lon="3.4009">
        <ele>132.5</ele>
        <time>2024-07-25T09:22:29Z</time>
      </trkpt>
      <trkpt lat="43.60888" lon="3.40095">
        <ele>131.7</ele>
        <time>2024-07-25T09:22:30Z</time>
      </trkpt>
      <trkpt lat="43.60889" lon="3.401">
        <ele>131.4</ele>
        <time>2024-07-25T09:22:31Z</time>
      </trkpt>
      <trkpt lat="43.6089" lon="3.40105">
        <ele>131.3</ele>
        <time>2024-07-25T09:22:32Z</time>
      </trkpt>
      <trkpt lat="43.60891" lon="3.40109">
        <ele>131.3</ele>
        <time>2024-07-25T09:22:33Z</time>
      </trkpt>
      <trkpt lat="43.60892" lon="3.40113">
        <ele>131.2</ele>
        <time>2024-07-25T09:22:34Z</time>
      </trkpt>
      <trkpt lat="43.60892" lon="3.40115">
        <ele>131.1</ele>
        <time>2024-07-25T09:22:35Z</time>
      </trkpt>
      <trkpt lat="43.60894" lon="3.40119">
        <ele>131</ele>
        <time>2024-07-25T09:22:36Z</time>
      </trkpt>
      <trkpt lat="43.60896" lon="3.40123">
        <ele>130.7</ele>
        <time>2024-07-25T09:22:37Z</time>
      </trkpt>
      <trkpt lat="43.60897" lon="3.40128">
        <ele>130.2</ele>
        <time>2024-07-25T09:22:38Z</time>
      </trkpt>
      <trkpt lat="43.60899" lon="3.40132">
        <ele>129.7</ele>
        <time>2024-07-25T09:22:39Z</time>
      </trkpt>
      <trkpt lat="43.609" lon="3.40136">
        <ele>129.2</ele>
        <time>2024-07-25T09:22:40Z</time>
      </trkpt>
      <trkpt lat="43.60902" lon="3.4014">
        <ele>128.6</ele>
        <time>2024-07-25T09:22:41Z</time>
      </trkpt>
      <trkpt lat="43.60905" lon="3.40144">
        <ele>128.2</ele>
        <time>2024-07-25T09:22:42Z</time>
      </trkpt>
      <trkpt lat="43.60907" lon="3.40149">
        <ele>128.1</ele>
        <time>2024-07-25T09:22:43Z</time>
      </trkpt>
      <trkpt lat="43.60909" lon="3.40154">
        <ele>128.2</ele>
        <time>2024-07-25T09:22:44Z</time>
      </trkpt>
      <trkpt lat="43.60911" lon="3.40159">
        <ele>128.3</ele>
        <time>2024-07-25T09:22:45Z</time>
      </trkpt>
      <trkpt lat="43.60914" lon="3.40164">
        <ele>128.7</ele>
        <time>2024-07-25T09:22:46Z</time>
      </trkpt>
      <trkpt lat="43.60917" lon="3.40168">
        <ele>128.7</ele>
        <time>2024-07-25T09:22:47Z</time>
      </trkpt>
      <trkpt lat="43.6092" lon="3.40172">
        <ele>127.6</ele>
        <time>2024-07-25T09:22:48Z</time>
      </trkpt>
      <trkpt lat="43.60924" lon="3.40175">
        <ele>126.6</ele>
        <time>2024-07-25T09:22:49Z</time>
      </trkpt>
      <trkpt lat="43.60929" lon="3.40177">
        <ele>125.7</ele>
        <time>2024-07-25T09:22:50Z</time>
      </trkpt>
      <trkpt lat="43.60934" lon="3.40179">
        <ele>124.9</ele>
        <time>2024-07-25T09:22:51Z</time>
      </trkpt>
      <trkpt lat="43.60939" lon="3.4018">
        <ele>124.2</ele>
        <time>2024-07-25T09:22:52Z</time>
      </trkpt>
      <trkpt lat="43.60944" lon="3.40182">
        <ele>123.6</ele>
        <time>2024-07-25T09:22:53Z</time>
      </trkpt>
      <trkpt lat="43.60948" lon="3.40184">
        <ele>124.5</ele>
        <time>2024-07-25T09:22:54Z</time>
      </trkpt>
      <trkpt lat="43.60953" lon="3.40186">
        <ele>125.9</ele>
        <time>2024-07-25T09:22:55Z</time>
      </trkpt>
      <trkpt lat="43.60957" lon="3.40189">
        <ele>127</ele>
        <time>2024-07-25T09:22:56Z</time>
      </trkpt>
      <trkpt lat="43.60961" lon="3.40192">
        <ele>128.1</ele>
        <time>2024-07-25T09:22:57Z</time>
      </trkpt>
      <trkpt lat="43.60965" lon="3.40195">
        <ele>129.2</ele>
        <time>2024-07-25T09:22:58Z</time>
      </trkpt>
      <trkpt lat="43.60969" lon="3.40199">
        <ele>130.5</ele>
        <time>2024-07-25T09:22:59Z</time>
      </trkpt>
      <trkpt lat="43.60973" lon="3.40203">
        <ele>131.6</ele>
        <time>2024-07-25T09:23:00Z</time>
      </trkpt>
      <trkpt lat="43.60976" lon="3.40207">
        <ele>131.9</ele>
        <time>2024-07-25T09:23:01Z</time>
      </trkpt>
      <trkpt lat="43.60979" lon="3.40211">
        <ele>132.1</ele>
        <time>2024-07-25T09:23:02Z</time>
      </trkpt>
      <trkpt lat="43.60982" lon="3.40216">
        <ele>132.4</ele>
        <time>2024-07-25T09:23:03Z</time>
      </trkpt>
      <trkpt lat="43.60985" lon="3.40219">
        <ele>132.4</ele>
        <time>2024-07-25T09:23:04Z</time>
      </trkpt>
      <trkpt lat="43.60987" lon="3.40223">
        <ele>132.5</ele>
        <time>2024-07-25T09:23:05Z</time>
      </trkpt>
      <trkpt lat="43.60989" lon="3.40225">
        <ele>132.4</ele>
        <time>2024-07-25T09:23:06Z</time>
      </trkpt>
      <trkpt lat="43.60992" lon="3.40224">
        <ele>132.3</ele>
        <time>2024-07-25T09:23:07Z</time>
      </trkpt>
      <trkpt lat="43.60995" lon="3.40222">
        <ele>132.2</ele>
        <time>2024-07-25T09:23:08Z</time>
      </trkpt>
      <trkpt lat="43.60997" lon="3.40219">
        <ele>132.1</ele>
        <time>2024-07-25T09:23:09Z</time>
      </trkpt>
      <trkpt lat="43.60999" lon="3.40216">
        <ele>132</ele>
        <time>2024-07-25T09:23:10Z</time>
      </trkpt>
      <trkpt lat="43.61002" lon="3.40212">
        <ele>132.1</ele>
        <time>2024-07-25T09:23:11Z</time>
      </trkpt>
      <trkpt lat="43.61005" lon="3.40208">
        <ele>132.3</ele>
        <time>2024-07-25T09:23:12Z</time>
      </trkpt>
      <trkpt lat="43.61009" lon="3.40204">
        <ele>132.4</ele>
        <time>2024-07-25T09:23:13Z</time>
      </trkpt>
      <trkpt lat="43.61013" lon="3.402">
        <ele>132.6</ele>
        <time>2024-07-25T09:23:14Z</time>
      </trkpt>
      <trkpt lat="43.61017" lon="3.40195">
        <ele>132.6</ele>
        <time>2024-07-25T09:23:15Z</time>
      </trkpt>
      <trkpt lat="43.6102" lon="3.4019">
        <ele>132.7</ele>
        <time>2024-07-25T09:23:16Z</time>
      </trkpt>
      <trkpt lat="43.61024" lon="3.40185">
        <ele>132.9</ele>
        <time>2024-07-25T09:23:17Z</time>
      </trkpt>
      <trkpt lat="43.61028" lon="3.4018">
        <ele>133</ele>
        <time>2024-07-25T09:23:18Z</time>
      </trkpt>
      <trkpt lat="43.61031" lon="3.40176">
        <ele>133.1</ele>
        <time>2024-07-25T09:23:19Z</time>
      </trkpt>
      <trkpt lat="43.61034" lon="3.40172">
        <ele>133.2</ele>
        <time>2024-07-25T09:23:20Z</time>
      </trkpt>
      <trkpt lat="43.61037" lon="3.40168">
        <ele>133.3</ele>
        <time>2024-07-25T09:23:21Z</time>
      </trkpt>
      <trkpt lat="43.61039" lon="3.40165">
        <ele>133.4</ele>
        <time>2024-07-25T09:23:22Z</time>
      </trkpt>
      <trkpt lat="43.61041" lon="3.40163">
        <ele>133.5</ele>
        <time>2024-07-25T09:23:23Z</time>
      </trkpt>
      <trkpt lat="43.61043" lon="3.40162">
        <ele>133.5</ele>
        <time>2024-07-25T09:23:24Z</time>
      </trkpt>
      <trkpt lat="43.61045" lon="3.40162">
        <ele>133.6</ele>
        <time>2024-07-25T09:23:25Z</time>
      </trkpt>
      <trkpt lat="43.61047" lon="3.40162">
        <ele>133.7</ele>
        <time>2024-07-25T09:23:26Z</time>
      </trkpt>
      <trkpt lat="43.61049" lon="3.40163">
        <ele>133.8</ele>
        <time>2024-07-25T09:23:27Z</time>
      </trkpt>
      <trkpt lat="43.61051" lon="3.40163">
        <ele>133.8</ele>
        <time>2024-07-25T09:23:28Z</time>
      </trkpt>
      <trkpt lat="43.61054" lon="3.40164">
        <ele>133.9</ele>
        <time>2024-07-25T09:23:29Z</time>
      </trkpt>
      <trkpt lat="43.61057" lon="3.40164">
        <ele>134</ele>
        <time>2024-07-25T09:23:30Z</time>
      </trkpt>
      <trkpt lat="43.6106" lon="3.40165">
        <ele>134</ele>
        <time>2024-07-25T09:23:31Z</time>
      </trkpt>
      <trkpt lat="43.61062" lon="3.40167">
        <ele>134</ele>
        <time>2024-07-25T09:23:32Z</time>
      </trkpt>
      <trkpt lat="43.61064" lon="3.40169">
        <ele>134</ele>
        <time>2024-07-25T09:23:33Z</time>
      </trkpt>
      <trkpt lat="43.61066" lon="3.40171">
        <ele>134</ele>
        <time>2024-07-25T09:23:34Z</time>
      </trkpt>
      <trkpt lat="43.61068" lon="3.40173">
        <ele>134</ele>
        <time>2024-07-25T09:23:35Z</time>
      </trkpt>
      <trkpt lat="43.61069" lon="3.40176">
        <ele>134</ele>
        <time>2024-07-25T09:23:36Z</time>
      </trkpt>
      <trkpt lat="43.6107" lon="3.40179">
        <ele>134</ele>
        <time>2024-07-25T09:23:37Z</time>
      </trkpt>
      <trkpt lat="43.61071" lon="3.40181">
        <ele>134</ele>
        <time>2024-07-25T09:23:38Z</time>
      </trkpt>
      <trkpt lat="43.61072" lon="3.40182">
        <ele>134</ele>
        <time>2024-07-25T09:23:39Z</time>
      </trkpt>
      <trkpt lat="43.61073" lon="3.40183">
        <ele>134</ele>
        <time>2024-07-25T09:23:40Z</time>
      </trkpt>
      <trkpt lat="43.61073" lon="3.40182">
        <ele>134</ele>
        <time>2024-07-25T09:23:41Z</time>
      </trkpt>
      <trkpt lat="43.61073" lon="3.40182">
        <ele>134</ele>
        <time>2024-07-25T09:23:42Z</time>
        <extensions>
          <visugpx:TrkExtension xmlns:visugpx="https://www.visugpx.com/editgpx/">
            <visugpx:node>1</visugpx:node>
            </visugpx:TrkExtension>
        </extensions>
      </trkpt>
    </trkseg>
  </trk>
</gpx>